<?xml version="1.0" encoding="utf-8" standalone="yes"?>
<gpx version="1.1" creator="Locus Map, Android"
 xmlns="http://www.topografix.com/GPX/1/1"
 xmlns:xsi="http://www.w3.org/2001/XMLSchema-instance"
 xsi:schemaLocation="http://www.topografix.com/GPX/1/1 http://www.topografix.com/GPX/1/1/gpx.xsd"
 xmlns:gpxx="http://www.garmin.com/xmlschemas/GpxExtensions/v3"
 xmlns:gpxtrkx="http://www.garmin.com/xmlschemas/TrackStatsExtension/v1"
 xmlns:gpxtpx="http://www.garmin.com/xmlschemas/TrackPointExtension/v2"
 xmlns:locus="http://www.locusmap.eu">
	<metadata>
		<desc>File with points/tracks from Locus Map Classic/3.70.16</desc>
		<time>2025-08-03T14:20:04.160Z</time>
	</metadata>
<trk>
<name>Morning Aug 3rd</name>
	<extensions>
		<line xmlns="http://www.topografix.com/GPX/gpx_style/0/2">
			<color>0000FF</color>
			<opacity>0.59</opacity>
			<width>6.0</width>
			<extensions>
				<locus:lsColorBase>#960000FF</locus:lsColorBase>
				<locus:lsWidth>6.0</locus:lsWidth>
				<locus:lsUnits>PIXELS</locus:lsUnits>
			</extensions>
		</line>
	</extensions>
<trkseg>
<trkpt lat="45.9504440" lon="10.1424070">
	<ele>1091.40</ele>
	<time>2025-08-03T05:57:21.000Z</time>
</trkpt>
<trkpt lat="45.9504410" lon="10.1424170">
	<ele>1091.40</ele>
	<time>2025-08-03T05:57:22.000Z</time>
</trkpt>
<trkpt lat="45.9504390" lon="10.1424270">
	<ele>1091.40</ele>
	<time>2025-08-03T05:57:23.000Z</time>
</trkpt>
<trkpt lat="45.9504290" lon="10.1424430">
	<ele>1091.40</ele>
	<time>2025-08-03T05:57:24.000Z</time>
</trkpt>
<trkpt lat="45.9504170" lon="10.1424740">
	<ele>1091.40</ele>
	<time>2025-08-03T05:57:25.000Z</time>
</trkpt>
<trkpt lat="45.9504130" lon="10.1424900">
	<ele>1091.40</ele>
	<time>2025-08-03T05:57:26.000Z</time>
</trkpt>
<trkpt lat="45.9504090" lon="10.1425120">
	<ele>1091.40</ele>
	<time>2025-08-03T05:57:27.000Z</time>
</trkpt>
<trkpt lat="45.9503990" lon="10.1425440">
	<ele>1091.40</ele>
	<time>2025-08-03T05:57:28.000Z</time>
</trkpt>
<trkpt lat="45.9503940" lon="10.1425710">
	<ele>1091.40</ele>
	<time>2025-08-03T05:57:29.000Z</time>
</trkpt>
<trkpt lat="45.9503860" lon="10.1425970">
	<ele>1091.40</ele>
	<time>2025-08-03T05:57:30.000Z</time>
</trkpt>
<trkpt lat="45.9503910" lon="10.1426140">
	<ele>1091.40</ele>
	<time>2025-08-03T05:57:31.000Z</time>
</trkpt>
<trkpt lat="45.9504040" lon="10.1426150">
	<ele>1091.40</ele>
	<time>2025-08-03T05:57:32.000Z</time>
</trkpt>
<trkpt lat="45.9504130" lon="10.1426320">
	<ele>1091.40</ele>
	<time>2025-08-03T05:57:33.000Z</time>
</trkpt>
<trkpt lat="45.9504130" lon="10.1426560">
	<ele>1091.40</ele>
	<time>2025-08-03T05:57:34.000Z</time>
</trkpt>
<trkpt lat="45.9504110" lon="10.1426810">
	<ele>1091.80</ele>
	<time>2025-08-03T05:57:35.000Z</time>
</trkpt>
<trkpt lat="45.9504080" lon="10.1427060">
	<ele>1091.80</ele>
	<time>2025-08-03T05:57:36.000Z</time>
</trkpt>
<trkpt lat="45.9504160" lon="10.1427040">
	<ele>1092.00</ele>
	<time>2025-08-03T05:57:37.000Z</time>
</trkpt>
<trkpt lat="45.9504130" lon="10.1427230">
	<ele>1092.40</ele>
	<time>2025-08-03T05:57:38.000Z</time>
</trkpt>
<trkpt lat="45.9504150" lon="10.1427340">
	<ele>1092.60</ele>
	<time>2025-08-03T05:57:39.000Z</time>
</trkpt>
<trkpt lat="45.9504190" lon="10.1427410">
	<ele>1092.80</ele>
	<time>2025-08-03T05:57:40.000Z</time>
</trkpt>
<trkpt lat="45.9504190" lon="10.1427550">
	<ele>1092.80</ele>
	<time>2025-08-03T05:57:41.000Z</time>
</trkpt>
<trkpt lat="45.9504170" lon="10.1427660">
	<ele>1092.80</ele>
	<time>2025-08-03T05:57:42.000Z</time>
</trkpt>
<trkpt lat="45.9504140" lon="10.1427920">
	<ele>1092.60</ele>
	<time>2025-08-03T05:57:43.000Z</time>
</trkpt>
<trkpt lat="45.9503950" lon="10.1428300">
	<ele>1092.60</ele>
	<time>2025-08-03T05:57:44.000Z</time>
</trkpt>
<trkpt lat="45.9503820" lon="10.1428480">
	<ele>1092.40</ele>
	<time>2025-08-03T05:57:45.000Z</time>
</trkpt>
<trkpt lat="45.9503700" lon="10.1428660">
	<ele>1092.40</ele>
	<time>2025-08-03T05:57:46.000Z</time>
</trkpt>
<trkpt lat="45.9503630" lon="10.1429000">
	<ele>1092.20</ele>
	<time>2025-08-03T05:57:47.000Z</time>
</trkpt>
<trkpt lat="45.9503640" lon="10.1429250">
	<ele>1092.20</ele>
	<time>2025-08-03T05:57:48.000Z</time>
</trkpt>
<trkpt lat="45.9503630" lon="10.1429460">
	<ele>1092.40</ele>
	<time>2025-08-03T05:57:49.000Z</time>
</trkpt>
<trkpt lat="45.9503630" lon="10.1429620">
	<ele>1092.40</ele>
	<time>2025-08-03T05:57:50.000Z</time>
</trkpt>
<trkpt lat="45.9503710" lon="10.1429710">
	<ele>1092.40</ele>
	<time>2025-08-03T05:57:51.000Z</time>
</trkpt>
<trkpt lat="45.9503620" lon="10.1429750">
	<ele>1092.40</ele>
	<time>2025-08-03T05:57:52.000Z</time>
</trkpt>
<trkpt lat="45.9503650" lon="10.1429810">
	<ele>1092.60</ele>
	<time>2025-08-03T05:57:53.000Z</time>
</trkpt>
<trkpt lat="45.9503800" lon="10.1429790">
	<ele>1092.60</ele>
	<time>2025-08-03T05:57:54.000Z</time>
</trkpt>
<trkpt lat="45.9503800" lon="10.1429910">
	<ele>1092.80</ele>
	<time>2025-08-03T05:57:55.000Z</time>
</trkpt>
<trkpt lat="45.9503650" lon="10.1429970">
	<ele>1092.80</ele>
	<time>2025-08-03T05:57:56.000Z</time>
</trkpt>
<trkpt lat="45.9503540" lon="10.1429920">
	<ele>1092.80</ele>
	<time>2025-08-03T05:57:57.000Z</time>
</trkpt>
<trkpt lat="45.9503440" lon="10.1429890">
	<ele>1092.60</ele>
	<time>2025-08-03T05:57:58.000Z</time>
</trkpt>
<trkpt lat="45.9503240" lon="10.1429680">
	<ele>1092.40</ele>
	<time>2025-08-03T05:57:59.000Z</time>
</trkpt>
<trkpt lat="45.9503120" lon="10.1429420">
	<ele>1092.40</ele>
	<time>2025-08-03T05:58:00.000Z</time>
</trkpt>
<trkpt lat="45.9503020" lon="10.1429170">
	<ele>1092.20</ele>
	<time>2025-08-03T05:58:01.000Z</time>
</trkpt>
<trkpt lat="45.9502970" lon="10.1429200">
	<ele>1092.20</ele>
	<time>2025-08-03T05:58:02.000Z</time>
</trkpt>
<trkpt lat="45.9502940" lon="10.1429320">
	<ele>1092.00</ele>
	<time>2025-08-03T05:58:03.000Z</time>
</trkpt>
<trkpt lat="45.9502940" lon="10.1429440">
	<ele>1092.00</ele>
	<time>2025-08-03T05:58:04.000Z</time>
</trkpt>
<trkpt lat="45.9502950" lon="10.1429550">
	<ele>1092.00</ele>
	<time>2025-08-03T05:58:05.000Z</time>
</trkpt>
<trkpt lat="45.9502950" lon="10.1429570">
	<ele>1092.00</ele>
	<time>2025-08-03T05:58:06.000Z</time>
</trkpt>
<trkpt lat="45.9502920" lon="10.1429600">
	<ele>1092.00</ele>
	<time>2025-08-03T05:58:07.000Z</time>
</trkpt>
<trkpt lat="45.9502960" lon="10.1429580">
	<ele>1092.00</ele>
	<time>2025-08-03T05:58:08.000Z</time>
</trkpt>
<trkpt lat="45.9502970" lon="10.1429480">
	<ele>1092.20</ele>
	<time>2025-08-03T05:58:09.000Z</time>
</trkpt>
<trkpt lat="45.9502970" lon="10.1429380">
	<ele>1092.20</ele>
	<time>2025-08-03T05:58:10.000Z</time>
</trkpt>
<trkpt lat="45.9503020" lon="10.1429290">
	<ele>1092.20</ele>
	<time>2025-08-03T05:58:11.000Z</time>
</trkpt>
<trkpt lat="45.9503100" lon="10.1429330">
	<ele>1092.20</ele>
	<time>2025-08-03T05:58:12.000Z</time>
</trkpt>
<trkpt lat="45.9503140" lon="10.1429410">
	<ele>1092.20</ele>
	<time>2025-08-03T05:58:13.000Z</time>
</trkpt>
<trkpt lat="45.9503150" lon="10.1429410">
	<ele>1092.20</ele>
	<time>2025-08-03T05:58:14.000Z</time>
</trkpt>
<trkpt lat="45.9503220" lon="10.1429410">
	<ele>1092.20</ele>
	<time>2025-08-03T05:58:15.000Z</time>
</trkpt>
<trkpt lat="45.9503260" lon="10.1429420">
	<ele>1092.20</ele>
	<time>2025-08-03T05:58:16.000Z</time>
</trkpt>
<trkpt lat="45.9503260" lon="10.1429420">
	<ele>1092.20</ele>
	<time>2025-08-03T05:58:17.000Z</time>
</trkpt>
<trkpt lat="45.9503260" lon="10.1429420">
	<ele>1092.20</ele>
	<time>2025-08-03T05:58:18.000Z</time>
</trkpt>
<trkpt lat="45.9503260" lon="10.1429420">
	<ele>1092.20</ele>
	<time>2025-08-03T05:58:19.000Z</time>
</trkpt>
<trkpt lat="45.9503260" lon="10.1429420">
	<ele>1092.20</ele>
	<time>2025-08-03T05:58:20.000Z</time>
</trkpt>
<trkpt lat="45.9503260" lon="10.1429420">
	<ele>1092.00</ele>
	<time>2025-08-03T05:58:21.000Z</time>
</trkpt>
<trkpt lat="45.9503260" lon="10.1429420">
	<ele>1092.00</ele>
	<time>2025-08-03T05:58:22.000Z</time>
</trkpt>
<trkpt lat="45.9503260" lon="10.1429420">
	<ele>1092.00</ele>
	<time>2025-08-03T05:58:23.000Z</time>
</trkpt>
<trkpt lat="45.9503260" lon="10.1429420">
	<ele>1092.00</ele>
	<time>2025-08-03T05:58:24.000Z</time>
</trkpt>
<trkpt lat="45.9503260" lon="10.1429420">
	<ele>1092.00</ele>
	<time>2025-08-03T05:58:25.000Z</time>
</trkpt>
<trkpt lat="45.9503260" lon="10.1429420">
	<ele>1092.00</ele>
	<time>2025-08-03T05:58:26.000Z</time>
</trkpt>
<trkpt lat="45.9503260" lon="10.1429410">
	<ele>1092.00</ele>
	<time>2025-08-03T05:58:27.000Z</time>
</trkpt>
<trkpt lat="45.9503260" lon="10.1429410">
	<ele>1092.00</ele>
	<time>2025-08-03T05:58:28.000Z</time>
</trkpt>
<trkpt lat="45.9503220" lon="10.1429410">
	<ele>1092.00</ele>
	<time>2025-08-03T05:58:29.000Z</time>
</trkpt>
<trkpt lat="45.9503210" lon="10.1429380">
	<ele>1092.20</ele>
	<time>2025-08-03T05:58:30.000Z</time>
</trkpt>
<trkpt lat="45.9503160" lon="10.1429360">
	<ele>1092.20</ele>
	<time>2025-08-03T05:58:31.000Z</time>
</trkpt>
<trkpt lat="45.9503140" lon="10.1429330">
	<ele>1092.20</ele>
	<time>2025-08-03T05:58:32.000Z</time>
</trkpt>
<trkpt lat="45.9503110" lon="10.1429290">
	<ele>1092.20</ele>
	<time>2025-08-03T05:58:33.000Z</time>
</trkpt>
<trkpt lat="45.9503100" lon="10.1429280">
	<ele>1092.20</ele>
	<time>2025-08-03T05:58:34.000Z</time>
</trkpt>
<trkpt lat="45.9503100" lon="10.1429180">
	<ele>1092.20</ele>
	<time>2025-08-03T05:58:35.000Z</time>
</trkpt>
<trkpt lat="45.9503100" lon="10.1429140">
	<ele>1092.20</ele>
	<time>2025-08-03T05:58:36.000Z</time>
</trkpt>
<trkpt lat="45.9503100" lon="10.1429130">
	<ele>1092.20</ele>
	<time>2025-08-03T05:58:37.000Z</time>
</trkpt>
<trkpt lat="45.9503100" lon="10.1429130">
	<ele>1092.20</ele>
	<time>2025-08-03T05:58:38.000Z</time>
</trkpt>
<trkpt lat="45.9503140" lon="10.1429150">
	<ele>1092.20</ele>
	<time>2025-08-03T05:58:39.000Z</time>
</trkpt>
<trkpt lat="45.9503300" lon="10.1429190">
	<ele>1092.20</ele>
	<time>2025-08-03T05:58:40.000Z</time>
</trkpt>
<trkpt lat="45.9503430" lon="10.1429210">
	<ele>1092.40</ele>
	<time>2025-08-03T05:58:41.000Z</time>
</trkpt>
<trkpt lat="45.9503530" lon="10.1429220">
	<ele>1092.40</ele>
	<time>2025-08-03T05:58:42.000Z</time>
</trkpt>
<trkpt lat="45.9503640" lon="10.1429220">
	<ele>1092.40</ele>
	<time>2025-08-03T05:58:43.000Z</time>
</trkpt>
<trkpt lat="45.9503770" lon="10.1429250">
	<ele>1092.60</ele>
	<time>2025-08-03T05:58:44.000Z</time>
</trkpt>
<trkpt lat="45.9503830" lon="10.1429250">
	<ele>1092.80</ele>
	<time>2025-08-03T05:58:45.000Z</time>
</trkpt>
<trkpt lat="45.9503820" lon="10.1429220">
	<ele>1093.00</ele>
	<time>2025-08-03T05:58:46.000Z</time>
</trkpt>
<trkpt lat="45.9503850" lon="10.1429210">
	<ele>1093.00</ele>
	<time>2025-08-03T05:58:47.000Z</time>
</trkpt>
<trkpt lat="45.9503890" lon="10.1429210">
	<ele>1093.20</ele>
	<time>2025-08-03T05:58:48.000Z</time>
</trkpt>
<trkpt lat="45.9503910" lon="10.1429200">
	<ele>1093.20</ele>
	<time>2025-08-03T05:58:49.000Z</time>
</trkpt>
<trkpt lat="45.9503940" lon="10.1429180">
	<ele>1093.40</ele>
	<time>2025-08-03T05:58:50.000Z</time>
</trkpt>
<trkpt lat="45.9503990" lon="10.1429160">
	<ele>1093.60</ele>
	<time>2025-08-03T05:58:51.000Z</time>
</trkpt>
<trkpt lat="45.9503990" lon="10.1429180">
	<ele>1093.60</ele>
	<time>2025-08-03T05:58:52.000Z</time>
</trkpt>
<trkpt lat="45.9504010" lon="10.1429240">
	<ele>1093.80</ele>
	<time>2025-08-03T05:58:53.000Z</time>
</trkpt>
<trkpt lat="45.9504030" lon="10.1429330">
	<ele>1094.00</ele>
	<time>2025-08-03T05:58:54.000Z</time>
</trkpt>
<trkpt lat="45.9504120" lon="10.1429420">
	<ele>1094.00</ele>
	<time>2025-08-03T05:58:55.000Z</time>
</trkpt>
<trkpt lat="45.9504270" lon="10.1429540">
	<ele>1094.00</ele>
	<time>2025-08-03T05:58:56.000Z</time>
</trkpt>
<trkpt lat="45.9504450" lon="10.1429620">
	<ele>1094.00</ele>
	<time>2025-08-03T05:58:57.000Z</time>
</trkpt>
<trkpt lat="45.9504580" lon="10.1429650">
	<ele>1094.00</ele>
	<time>2025-08-03T05:58:58.000Z</time>
</trkpt>
<trkpt lat="45.9504650" lon="10.1429570">
	<ele>1094.00</ele>
	<time>2025-08-03T05:58:59.000Z</time>
</trkpt>
<trkpt lat="45.9504730" lon="10.1429530">
	<ele>1094.20</ele>
	<time>2025-08-03T05:59:00.000Z</time>
</trkpt>
<trkpt lat="45.9504780" lon="10.1429530">
	<ele>1094.40</ele>
	<time>2025-08-03T05:59:01.000Z</time>
</trkpt>
<trkpt lat="45.9504900" lon="10.1429600">
	<ele>1094.60</ele>
	<time>2025-08-03T05:59:02.000Z</time>
</trkpt>
<trkpt lat="45.9505010" lon="10.1429720">
	<ele>1094.60</ele>
	<time>2025-08-03T05:59:03.000Z</time>
</trkpt>
<trkpt lat="45.9505150" lon="10.1429760">
	<ele>1094.80</ele>
	<time>2025-08-03T05:59:04.000Z</time>
</trkpt>
<trkpt lat="45.9505210" lon="10.1429830">
	<ele>1094.80</ele>
	<time>2025-08-03T05:59:05.000Z</time>
</trkpt>
<trkpt lat="45.9505190" lon="10.1430090">
	<ele>1095.00</ele>
	<time>2025-08-03T05:59:06.000Z</time>
</trkpt>
<trkpt lat="45.9505290" lon="10.1430230">
	<ele>1095.20</ele>
	<time>2025-08-03T05:59:07.000Z</time>
</trkpt>
<trkpt lat="45.9505490" lon="10.1430340">
	<ele>1095.40</ele>
	<time>2025-08-03T05:59:08.000Z</time>
</trkpt>
<trkpt lat="45.9505740" lon="10.1430300">
	<ele>1095.80</ele>
	<time>2025-08-03T05:59:09.000Z</time>
</trkpt>
<trkpt lat="45.9505930" lon="10.1430360">
	<ele>1096.00</ele>
	<time>2025-08-03T05:59:10.000Z</time>
</trkpt>
<trkpt lat="45.9506110" lon="10.1430420">
	<ele>1096.00</ele>
	<time>2025-08-03T05:59:11.000Z</time>
</trkpt>
<trkpt lat="45.9506260" lon="10.1430440">
	<ele>1096.20</ele>
	<time>2025-08-03T05:59:12.000Z</time>
</trkpt>
<trkpt lat="45.9506280" lon="10.1430440">
	<ele>1096.20</ele>
	<time>2025-08-03T05:59:13.000Z</time>
</trkpt>
<trkpt lat="45.9506330" lon="10.1430450">
	<ele>1096.40</ele>
	<time>2025-08-03T05:59:14.000Z</time>
</trkpt>
<trkpt lat="45.9506340" lon="10.1430490">
	<ele>1096.40</ele>
	<time>2025-08-03T05:59:15.000Z</time>
</trkpt>
<trkpt lat="45.9506330" lon="10.1430480">
	<ele>1096.60</ele>
	<time>2025-08-03T05:59:16.000Z</time>
</trkpt>
<trkpt lat="45.9506370" lon="10.1430480">
	<ele>1096.80</ele>
	<time>2025-08-03T05:59:17.000Z</time>
</trkpt>
<trkpt lat="45.9506430" lon="10.1430400">
	<ele>1096.80</ele>
	<time>2025-08-03T05:59:18.000Z</time>
</trkpt>
<trkpt lat="45.9506480" lon="10.1430340">
	<ele>1097.00</ele>
	<time>2025-08-03T05:59:19.000Z</time>
</trkpt>
<trkpt lat="45.9506570" lon="10.1430270">
	<ele>1097.00</ele>
	<time>2025-08-03T05:59:20.000Z</time>
</trkpt>
<trkpt lat="45.9506630" lon="10.1430260">
	<ele>1097.20</ele>
	<time>2025-08-03T05:59:21.000Z</time>
</trkpt>
<trkpt lat="45.9506720" lon="10.1430310">
	<ele>1097.20</ele>
	<time>2025-08-03T05:59:22.000Z</time>
</trkpt>
<trkpt lat="45.9506950" lon="10.1430760">
	<ele>1097.20</ele>
	<time>2025-08-03T05:59:23.000Z</time>
</trkpt>
<trkpt lat="45.9507050" lon="10.1430850">
	<ele>1097.20</ele>
	<time>2025-08-03T05:59:24.000Z</time>
</trkpt>
<trkpt lat="45.9507100" lon="10.1430720">
	<ele>1097.20</ele>
	<time>2025-08-03T05:59:25.000Z</time>
</trkpt>
<trkpt lat="45.9507070" lon="10.1430520">
	<ele>1097.20</ele>
	<time>2025-08-03T05:59:26.000Z</time>
</trkpt>
<trkpt lat="45.9506990" lon="10.1430510">
	<ele>1097.20</ele>
	<time>2025-08-03T05:59:27.000Z</time>
</trkpt>
<trkpt lat="45.9506960" lon="10.1430580">
	<ele>1097.40</ele>
	<time>2025-08-03T05:59:28.000Z</time>
</trkpt>
<trkpt lat="45.9507010" lon="10.1430690">
	<ele>1097.60</ele>
	<time>2025-08-03T05:59:29.000Z</time>
</trkpt>
<trkpt lat="45.9507090" lon="10.1430680">
	<ele>1097.60</ele>
	<time>2025-08-03T05:59:30.000Z</time>
</trkpt>
<trkpt lat="45.9507170" lon="10.1430630">
	<ele>1097.80</ele>
	<time>2025-08-03T05:59:31.000Z</time>
</trkpt>
<trkpt lat="45.9507290" lon="10.1430590">
	<ele>1098.00</ele>
	<time>2025-08-03T05:59:32.000Z</time>
</trkpt>
<trkpt lat="45.9507380" lon="10.1430540">
	<ele>1098.20</ele>
	<time>2025-08-03T05:59:33.000Z</time>
</trkpt>
<trkpt lat="45.9507440" lon="10.1430610">
	<ele>1098.40</ele>
	<time>2025-08-03T05:59:34.000Z</time>
</trkpt>
<trkpt lat="45.9507470" lon="10.1430730">
	<ele>1098.60</ele>
	<time>2025-08-03T05:59:35.000Z</time>
</trkpt>
<trkpt lat="45.9507510" lon="10.1430730">
	<ele>1098.80</ele>
	<time>2025-08-03T05:59:36.000Z</time>
</trkpt>
<trkpt lat="45.9507590" lon="10.1430770">
	<ele>1099.00</ele>
	<time>2025-08-03T05:59:37.000Z</time>
</trkpt>
<trkpt lat="45.9507690" lon="10.1430880">
	<ele>1099.00</ele>
	<time>2025-08-03T05:59:38.000Z</time>
</trkpt>
<trkpt lat="45.9507740" lon="10.1430940">
	<ele>1099.20</ele>
	<time>2025-08-03T05:59:39.000Z</time>
</trkpt>
<trkpt lat="45.9507910" lon="10.1430960">
	<ele>1099.20</ele>
	<time>2025-08-03T05:59:40.000Z</time>
</trkpt>
<trkpt lat="45.9508010" lon="10.1430940">
	<ele>1099.40</ele>
	<time>2025-08-03T05:59:41.000Z</time>
</trkpt>
<trkpt lat="45.9508080" lon="10.1430890">
	<ele>1099.60</ele>
	<time>2025-08-03T05:59:42.000Z</time>
</trkpt>
<trkpt lat="45.9508060" lon="10.1430860">
	<ele>1099.80</ele>
	<time>2025-08-03T05:59:43.000Z</time>
</trkpt>
<trkpt lat="45.9508060" lon="10.1430860">
	<ele>1099.80</ele>
	<time>2025-08-03T05:59:44.000Z</time>
</trkpt>
<trkpt lat="45.9508170" lon="10.1430790">
	<ele>1100.00</ele>
	<time>2025-08-03T05:59:45.000Z</time>
</trkpt>
<trkpt lat="45.9508180" lon="10.1430790">
	<ele>1100.00</ele>
	<time>2025-08-03T05:59:46.000Z</time>
</trkpt>
<trkpt lat="45.9508280" lon="10.1430680">
	<ele>1100.20</ele>
	<time>2025-08-03T05:59:47.000Z</time>
</trkpt>
<trkpt lat="45.9508330" lon="10.1430600">
	<ele>1100.20</ele>
	<time>2025-08-03T05:59:48.000Z</time>
</trkpt>
<trkpt lat="45.9508350" lon="10.1430570">
	<ele>1100.40</ele>
	<time>2025-08-03T05:59:49.000Z</time>
</trkpt>
<trkpt lat="45.9508420" lon="10.1430500">
	<ele>1100.40</ele>
	<time>2025-08-03T05:59:50.000Z</time>
</trkpt>
<trkpt lat="45.9508490" lon="10.1430450">
	<ele>1100.60</ele>
	<time>2025-08-03T05:59:51.000Z</time>
</trkpt>
<trkpt lat="45.9508540" lon="10.1430380">
	<ele>1100.60</ele>
	<time>2025-08-03T05:59:52.000Z</time>
</trkpt>
<trkpt lat="45.9508480" lon="10.1430290">
	<ele>1100.80</ele>
	<time>2025-08-03T05:59:53.000Z</time>
</trkpt>
<trkpt lat="45.9508440" lon="10.1430370">
	<ele>1101.00</ele>
	<time>2025-08-03T05:59:54.000Z</time>
</trkpt>
<trkpt lat="45.9508450" lon="10.1430380">
	<ele>1101.20</ele>
	<time>2025-08-03T05:59:55.000Z</time>
</trkpt>
<trkpt lat="45.9508460" lon="10.1430290">
	<ele>1101.40</ele>
	<time>2025-08-03T05:59:56.000Z</time>
</trkpt>
<trkpt lat="45.9508500" lon="10.1430130">
	<ele>1101.60</ele>
	<time>2025-08-03T05:59:57.000Z</time>
</trkpt>
<trkpt lat="45.9508440" lon="10.1429930">
	<ele>1101.80</ele>
	<time>2025-08-03T05:59:58.000Z</time>
</trkpt>
<trkpt lat="45.9508500" lon="10.1429840">
	<ele>1101.80</ele>
	<time>2025-08-03T05:59:59.000Z</time>
</trkpt>
<trkpt lat="45.9508570" lon="10.1429760">
	<ele>1102.00</ele>
	<time>2025-08-03T06:00:00.000Z</time>
</trkpt>
<trkpt lat="45.9508620" lon="10.1429690">
	<ele>1102.20</ele>
	<time>2025-08-03T06:00:01.000Z</time>
</trkpt>
<trkpt lat="45.9508660" lon="10.1429620">
	<ele>1102.40</ele>
	<time>2025-08-03T06:00:02.000Z</time>
</trkpt>
<trkpt lat="45.9508710" lon="10.1429570">
	<ele>1102.60</ele>
	<time>2025-08-03T06:00:03.000Z</time>
</trkpt>
<trkpt lat="45.9508780" lon="10.1429580">
	<ele>1102.80</ele>
	<time>2025-08-03T06:00:04.000Z</time>
</trkpt>
<trkpt lat="45.9508860" lon="10.1429560">
	<ele>1102.80</ele>
	<time>2025-08-03T06:00:05.000Z</time>
</trkpt>
<trkpt lat="45.9508900" lon="10.1429480">
	<ele>1103.00</ele>
	<time>2025-08-03T06:00:06.000Z</time>
</trkpt>
<trkpt lat="45.9509000" lon="10.1429450">
	<ele>1103.20</ele>
	<time>2025-08-03T06:00:07.000Z</time>
</trkpt>
<trkpt lat="45.9509100" lon="10.1429350">
	<ele>1103.20</ele>
	<time>2025-08-03T06:00:08.000Z</time>
</trkpt>
<trkpt lat="45.9509190" lon="10.1429280">
	<ele>1103.60</ele>
	<time>2025-08-03T06:00:09.000Z</time>
</trkpt>
<trkpt lat="45.9509280" lon="10.1429250">
	<ele>1103.80</ele>
	<time>2025-08-03T06:00:10.000Z</time>
</trkpt>
<trkpt lat="45.9509390" lon="10.1429270">
	<ele>1103.80</ele>
	<time>2025-08-03T06:00:11.000Z</time>
</trkpt>
<trkpt lat="45.9509490" lon="10.1429240">
	<ele>1104.20</ele>
	<time>2025-08-03T06:00:12.000Z</time>
</trkpt>
<trkpt lat="45.9509560" lon="10.1429220">
	<ele>1104.20</ele>
	<time>2025-08-03T06:00:13.000Z</time>
</trkpt>
<trkpt lat="45.9509630" lon="10.1429140">
	<ele>1104.60</ele>
	<time>2025-08-03T06:00:14.000Z</time>
</trkpt>
<trkpt lat="45.9509670" lon="10.1429140">
	<ele>1104.80</ele>
	<time>2025-08-03T06:00:15.000Z</time>
</trkpt>
<trkpt lat="45.9509690" lon="10.1429180">
	<ele>1104.80</ele>
	<time>2025-08-03T06:00:16.000Z</time>
</trkpt>
<trkpt lat="45.9509710" lon="10.1429230">
	<ele>1105.00</ele>
	<time>2025-08-03T06:00:17.000Z</time>
</trkpt>
<trkpt lat="45.9509710" lon="10.1429320">
	<ele>1105.40</ele>
	<time>2025-08-03T06:00:18.000Z</time>
</trkpt>
<trkpt lat="45.9509720" lon="10.1429380">
	<ele>1105.40</ele>
	<time>2025-08-03T06:00:19.000Z</time>
</trkpt>
<trkpt lat="45.9509740" lon="10.1429360">
	<ele>1105.80</ele>
	<time>2025-08-03T06:00:20.000Z</time>
</trkpt>
<trkpt lat="45.9509780" lon="10.1429340">
	<ele>1106.00</ele>
	<time>2025-08-03T06:00:21.000Z</time>
</trkpt>
<trkpt lat="45.9509810" lon="10.1429330">
	<ele>1106.00</ele>
	<time>2025-08-03T06:00:22.000Z</time>
</trkpt>
<trkpt lat="45.9509910" lon="10.1429390">
	<ele>1106.40</ele>
	<time>2025-08-03T06:00:23.000Z</time>
</trkpt>
<trkpt lat="45.9509950" lon="10.1429480">
	<ele>1106.40</ele>
	<time>2025-08-03T06:00:24.000Z</time>
</trkpt>
<trkpt lat="45.9510040" lon="10.1429570">
	<ele>1106.60</ele>
	<time>2025-08-03T06:00:25.000Z</time>
</trkpt>
<trkpt lat="45.9510160" lon="10.1429560">
	<ele>1106.80</ele>
	<time>2025-08-03T06:00:26.000Z</time>
</trkpt>
<trkpt lat="45.9510220" lon="10.1429570">
	<ele>1106.80</ele>
	<time>2025-08-03T06:00:27.000Z</time>
</trkpt>
<trkpt lat="45.9510270" lon="10.1429570">
	<ele>1107.00</ele>
	<time>2025-08-03T06:00:28.000Z</time>
</trkpt>
<trkpt lat="45.9510360" lon="10.1429560">
	<ele>1107.20</ele>
	<time>2025-08-03T06:00:29.000Z</time>
</trkpt>
<trkpt lat="45.9510390" lon="10.1429570">
	<ele>1107.40</ele>
	<time>2025-08-03T06:00:30.000Z</time>
</trkpt>
<trkpt lat="45.9510300" lon="10.1429770">
	<ele>1107.60</ele>
	<time>2025-08-03T06:00:31.000Z</time>
</trkpt>
<trkpt lat="45.9510240" lon="10.1429870">
	<ele>1107.80</ele>
	<time>2025-08-03T06:00:32.000Z</time>
</trkpt>
<trkpt lat="45.9510240" lon="10.1429990">
	<ele>1108.20</ele>
	<time>2025-08-03T06:00:33.000Z</time>
</trkpt>
<trkpt lat="45.9510310" lon="10.1430090">
	<ele>1108.40</ele>
	<time>2025-08-03T06:00:34.000Z</time>
</trkpt>
<trkpt lat="45.9510480" lon="10.1430160">
	<ele>1108.60</ele>
	<time>2025-08-03T06:00:35.000Z</time>
</trkpt>
<trkpt lat="45.9510690" lon="10.1430220">
	<ele>1108.80</ele>
	<time>2025-08-03T06:00:36.000Z</time>
</trkpt>
<trkpt lat="45.9510930" lon="10.1430180">
	<ele>1109.00</ele>
	<time>2025-08-03T06:00:37.000Z</time>
</trkpt>
<trkpt lat="45.9511130" lon="10.1430180">
	<ele>1109.20</ele>
	<time>2025-08-03T06:00:38.000Z</time>
</trkpt>
<trkpt lat="45.9511280" lon="10.1430180">
	<ele>1109.40</ele>
	<time>2025-08-03T06:00:39.000Z</time>
</trkpt>
<trkpt lat="45.9511430" lon="10.1430250">
	<ele>1109.40</ele>
	<time>2025-08-03T06:00:40.000Z</time>
</trkpt>
<trkpt lat="45.9511570" lon="10.1430330">
	<ele>1109.60</ele>
	<time>2025-08-03T06:00:41.000Z</time>
</trkpt>
<trkpt lat="45.9511670" lon="10.1430370">
	<ele>1109.60</ele>
	<time>2025-08-03T06:00:42.000Z</time>
</trkpt>
<trkpt lat="45.9511790" lon="10.1430450">
	<ele>1110.00</ele>
	<time>2025-08-03T06:00:43.000Z</time>
</trkpt>
<trkpt lat="45.9511910" lon="10.1430500">
	<ele>1110.00</ele>
	<time>2025-08-03T06:00:44.000Z</time>
</trkpt>
<trkpt lat="45.9511880" lon="10.1430410">
	<ele>1110.20</ele>
	<time>2025-08-03T06:00:45.000Z</time>
</trkpt>
<trkpt lat="45.9511870" lon="10.1430380">
	<ele>1110.40</ele>
	<time>2025-08-03T06:00:46.000Z</time>
</trkpt>
<trkpt lat="45.9511950" lon="10.1430390">
	<ele>1110.60</ele>
	<time>2025-08-03T06:00:47.000Z</time>
</trkpt>
<trkpt lat="45.9512050" lon="10.1430410">
	<ele>1111.00</ele>
	<time>2025-08-03T06:00:48.000Z</time>
</trkpt>
<trkpt lat="45.9512120" lon="10.1430420">
	<ele>1111.20</ele>
	<time>2025-08-03T06:00:49.000Z</time>
</trkpt>
<trkpt lat="45.9512160" lon="10.1430320">
	<ele>1111.40</ele>
	<time>2025-08-03T06:00:50.000Z</time>
</trkpt>
<trkpt lat="45.9512170" lon="10.1430220">
	<ele>1111.60</ele>
	<time>2025-08-03T06:00:51.000Z</time>
</trkpt>
<trkpt lat="45.9512610" lon="10.1430350">
	<ele>1111.60</ele>
	<time>2025-08-03T06:00:52.000Z</time>
</trkpt>
<trkpt lat="45.9512710" lon="10.1430350">
	<ele>1112.00</ele>
	<time>2025-08-03T06:00:53.000Z</time>
</trkpt>
<trkpt lat="45.9512630" lon="10.1430220">
	<ele>1112.40</ele>
	<time>2025-08-03T06:00:54.000Z</time>
</trkpt>
<trkpt lat="45.9512800" lon="10.1430250">
	<ele>1112.60</ele>
	<time>2025-08-03T06:00:55.000Z</time>
</trkpt>
<trkpt lat="45.9512880" lon="10.1430240">
	<ele>1112.80</ele>
	<time>2025-08-03T06:00:56.000Z</time>
</trkpt>
<trkpt lat="45.9513030" lon="10.1430150">
	<ele>1113.20</ele>
	<time>2025-08-03T06:00:57.000Z</time>
</trkpt>
<trkpt lat="45.9513010" lon="10.1429930">
	<ele>1113.40</ele>
	<time>2025-08-03T06:00:58.000Z</time>
</trkpt>
<trkpt lat="45.9513030" lon="10.1429770">
	<ele>1113.40</ele>
	<time>2025-08-03T06:00:59.000Z</time>
</trkpt>
<trkpt lat="45.9513100" lon="10.1429700">
	<ele>1113.60</ele>
	<time>2025-08-03T06:01:00.000Z</time>
</trkpt>
<trkpt lat="45.9513140" lon="10.1429570">
	<ele>1114.00</ele>
	<time>2025-08-03T06:01:01.000Z</time>
</trkpt>
<trkpt lat="45.9512950" lon="10.1429310">
	<ele>1114.20</ele>
	<time>2025-08-03T06:01:02.000Z</time>
</trkpt>
<trkpt lat="45.9512820" lon="10.1429110">
	<ele>1114.40</ele>
	<time>2025-08-03T06:01:03.000Z</time>
</trkpt>
<trkpt lat="45.9512780" lon="10.1428960">
	<ele>1114.40</ele>
	<time>2025-08-03T06:01:04.000Z</time>
</trkpt>
<trkpt lat="45.9512790" lon="10.1428850">
	<ele>1114.60</ele>
	<time>2025-08-03T06:01:05.000Z</time>
</trkpt>
<trkpt lat="45.9512860" lon="10.1428850">
	<ele>1115.00</ele>
	<time>2025-08-03T06:01:06.000Z</time>
</trkpt>
<trkpt lat="45.9512950" lon="10.1428840">
	<ele>1115.20</ele>
	<time>2025-08-03T06:01:07.000Z</time>
</trkpt>
<trkpt lat="45.9513040" lon="10.1428800">
	<ele>1115.40</ele>
	<time>2025-08-03T06:01:08.000Z</time>
</trkpt>
<trkpt lat="45.9513130" lon="10.1428810">
	<ele>1115.60</ele>
	<time>2025-08-03T06:01:09.000Z</time>
</trkpt>
<trkpt lat="45.9513210" lon="10.1428900">
	<ele>1115.80</ele>
	<time>2025-08-03T06:01:10.000Z</time>
</trkpt>
<trkpt lat="45.9513260" lon="10.1428930">
	<ele>1115.80</ele>
	<time>2025-08-03T06:01:11.000Z</time>
</trkpt>
<trkpt lat="45.9513290" lon="10.1428890">
	<ele>1115.80</ele>
	<time>2025-08-03T06:01:12.000Z</time>
</trkpt>
<trkpt lat="45.9513250" lon="10.1428760">
	<ele>1115.60</ele>
	<time>2025-08-03T06:01:13.000Z</time>
</trkpt>
<trkpt lat="45.9513320" lon="10.1428660">
	<ele>1115.40</ele>
	<time>2025-08-03T06:01:14.000Z</time>
</trkpt>
<trkpt lat="45.9513440" lon="10.1428640">
	<ele>1115.40</ele>
	<time>2025-08-03T06:01:15.000Z</time>
</trkpt>
<trkpt lat="45.9513600" lon="10.1428670">
	<ele>1115.40</ele>
	<time>2025-08-03T06:01:16.000Z</time>
</trkpt>
<trkpt lat="45.9513670" lon="10.1428690">
	<ele>1115.40</ele>
	<time>2025-08-03T06:01:17.000Z</time>
</trkpt>
<trkpt lat="45.9513830" lon="10.1428700">
	<ele>1115.40</ele>
	<time>2025-08-03T06:01:18.000Z</time>
</trkpt>
<trkpt lat="45.9513880" lon="10.1428620">
	<ele>1115.60</ele>
	<time>2025-08-03T06:01:19.000Z</time>
</trkpt>
<trkpt lat="45.9513900" lon="10.1428550">
	<ele>1115.80</ele>
	<time>2025-08-03T06:01:20.000Z</time>
</trkpt>
<trkpt lat="45.9514000" lon="10.1428450">
	<ele>1116.00</ele>
	<time>2025-08-03T06:01:21.000Z</time>
</trkpt>
<trkpt lat="45.9514100" lon="10.1428350">
	<ele>1116.20</ele>
	<time>2025-08-03T06:01:22.000Z</time>
</trkpt>
<trkpt lat="45.9514210" lon="10.1428190">
	<ele>1116.40</ele>
	<time>2025-08-03T06:01:23.000Z</time>
</trkpt>
<trkpt lat="45.9514280" lon="10.1428020">
	<ele>1116.60</ele>
	<time>2025-08-03T06:01:24.000Z</time>
</trkpt>
<trkpt lat="45.9514330" lon="10.1427930">
	<ele>1116.80</ele>
	<time>2025-08-03T06:01:25.000Z</time>
</trkpt>
<trkpt lat="45.9514500" lon="10.1427960">
	<ele>1117.00</ele>
	<time>2025-08-03T06:01:26.000Z</time>
</trkpt>
<trkpt lat="45.9514560" lon="10.1427940">
	<ele>1117.20</ele>
	<time>2025-08-03T06:01:27.000Z</time>
</trkpt>
<trkpt lat="45.9514710" lon="10.1427950">
	<ele>1117.40</ele>
	<time>2025-08-03T06:01:28.000Z</time>
</trkpt>
<trkpt lat="45.9514780" lon="10.1427850">
	<ele>1117.40</ele>
	<time>2025-08-03T06:01:29.000Z</time>
</trkpt>
<trkpt lat="45.9515070" lon="10.1427930">
	<ele>1117.60</ele>
	<time>2025-08-03T06:01:30.000Z</time>
</trkpt>
<trkpt lat="45.9515320" lon="10.1427820">
	<ele>1117.60</ele>
	<time>2025-08-03T06:01:31.000Z</time>
</trkpt>
<trkpt lat="45.9515620" lon="10.1427820">
	<ele>1117.80</ele>
	<time>2025-08-03T06:01:32.000Z</time>
</trkpt>
<trkpt lat="45.9516030" lon="10.1427840">
	<ele>1118.00</ele>
	<time>2025-08-03T06:01:33.000Z</time>
</trkpt>
<trkpt lat="45.9516340" lon="10.1427830">
	<ele>1118.00</ele>
	<time>2025-08-03T06:01:34.000Z</time>
</trkpt>
<trkpt lat="45.9516600" lon="10.1427760">
	<ele>1118.20</ele>
	<time>2025-08-03T06:01:35.000Z</time>
</trkpt>
<trkpt lat="45.9516720" lon="10.1427560">
	<ele>1118.40</ele>
	<time>2025-08-03T06:01:36.000Z</time>
</trkpt>
<trkpt lat="45.9516690" lon="10.1427350">
	<ele>1118.40</ele>
	<time>2025-08-03T06:01:37.000Z</time>
</trkpt>
<trkpt lat="45.9516650" lon="10.1427210">
	<ele>1118.40</ele>
	<time>2025-08-03T06:01:38.000Z</time>
</trkpt>
<trkpt lat="45.9516570" lon="10.1426890">
	<ele>1118.40</ele>
	<time>2025-08-03T06:01:39.000Z</time>
</trkpt>
<trkpt lat="45.9516500" lon="10.1426620">
	<ele>1118.60</ele>
	<time>2025-08-03T06:01:40.000Z</time>
</trkpt>
<trkpt lat="45.9516520" lon="10.1426380">
	<ele>1118.80</ele>
	<time>2025-08-03T06:01:41.000Z</time>
</trkpt>
<trkpt lat="45.9516430" lon="10.1426130">
	<ele>1118.80</ele>
	<time>2025-08-03T06:01:42.000Z</time>
</trkpt>
<trkpt lat="45.9516340" lon="10.1425930">
	<ele>1118.80</ele>
	<time>2025-08-03T06:01:43.000Z</time>
</trkpt>
<trkpt lat="45.9516390" lon="10.1425720">
	<ele>1118.80</ele>
	<time>2025-08-03T06:01:44.000Z</time>
</trkpt>
<trkpt lat="45.9516320" lon="10.1425530">
	<ele>1119.00</ele>
	<time>2025-08-03T06:01:45.000Z</time>
</trkpt>
<trkpt lat="45.9516300" lon="10.1425370">
	<ele>1119.00</ele>
	<time>2025-08-03T06:01:46.000Z</time>
</trkpt>
<trkpt lat="45.9516330" lon="10.1425290">
	<ele>1119.00</ele>
	<time>2025-08-03T06:01:47.000Z</time>
</trkpt>
<trkpt lat="45.9516350" lon="10.1425280">
	<ele>1119.20</ele>
	<time>2025-08-03T06:01:48.000Z</time>
</trkpt>
<trkpt lat="45.9516350" lon="10.1425280">
	<ele>1119.20</ele>
	<time>2025-08-03T06:01:49.000Z</time>
</trkpt>
<trkpt lat="45.9516320" lon="10.1425250">
	<ele>1119.00</ele>
	<time>2025-08-03T06:01:50.000Z</time>
</trkpt>
<trkpt lat="45.9516300" lon="10.1425140">
	<ele>1119.20</ele>
	<time>2025-08-03T06:01:51.000Z</time>
</trkpt>
<trkpt lat="45.9516270" lon="10.1424960">
	<ele>1119.20</ele>
	<time>2025-08-03T06:01:52.000Z</time>
</trkpt>
<trkpt lat="45.9516190" lon="10.1424740">
	<ele>1119.20</ele>
	<time>2025-08-03T06:01:53.000Z</time>
</trkpt>
<trkpt lat="45.9516060" lon="10.1424540">
	<ele>1119.20</ele>
	<time>2025-08-03T06:01:54.000Z</time>
</trkpt>
<trkpt lat="45.9515960" lon="10.1424370">
	<ele>1119.20</ele>
	<time>2025-08-03T06:01:55.000Z</time>
</trkpt>
<trkpt lat="45.9515850" lon="10.1424250">
	<ele>1119.20</ele>
	<time>2025-08-03T06:01:56.000Z</time>
</trkpt>
<trkpt lat="45.9515700" lon="10.1424160">
	<ele>1119.20</ele>
	<time>2025-08-03T06:01:57.000Z</time>
</trkpt>
<trkpt lat="45.9515540" lon="10.1424210">
	<ele>1119.20</ele>
	<time>2025-08-03T06:01:58.000Z</time>
</trkpt>
<trkpt lat="45.9515400" lon="10.1424020">
	<ele>1119.20</ele>
	<time>2025-08-03T06:01:59.000Z</time>
</trkpt>
<trkpt lat="45.9515270" lon="10.1423950">
	<ele>1119.20</ele>
	<time>2025-08-03T06:02:00.000Z</time>
</trkpt>
<trkpt lat="45.9515140" lon="10.1423900">
	<ele>1119.20</ele>
	<time>2025-08-03T06:02:01.000Z</time>
</trkpt>
<trkpt lat="45.9515020" lon="10.1423830">
	<ele>1119.20</ele>
	<time>2025-08-03T06:02:02.000Z</time>
</trkpt>
<trkpt lat="45.9514900" lon="10.1423720">
	<ele>1119.20</ele>
	<time>2025-08-03T06:02:03.000Z</time>
</trkpt>
<trkpt lat="45.9514810" lon="10.1423650">
	<ele>1119.20</ele>
	<time>2025-08-03T06:02:04.000Z</time>
</trkpt>
<trkpt lat="45.9514790" lon="10.1423540">
	<ele>1119.20</ele>
	<time>2025-08-03T06:02:05.000Z</time>
</trkpt>
<trkpt lat="45.9514740" lon="10.1423510">
	<ele>1119.20</ele>
	<time>2025-08-03T06:02:06.000Z</time>
</trkpt>
<trkpt lat="45.9514560" lon="10.1423580">
	<ele>1119.20</ele>
	<time>2025-08-03T06:02:07.000Z</time>
</trkpt>
<trkpt lat="45.9514470" lon="10.1423450">
	<ele>1119.20</ele>
	<time>2025-08-03T06:02:08.000Z</time>
</trkpt>
<trkpt lat="45.9514370" lon="10.1423280">
	<ele>1119.40</ele>
	<time>2025-08-03T06:02:09.000Z</time>
</trkpt>
<trkpt lat="45.9514260" lon="10.1423200">
	<ele>1119.40</ele>
	<time>2025-08-03T06:02:10.000Z</time>
</trkpt>
<trkpt lat="45.9514140" lon="10.1423170">
	<ele>1119.40</ele>
	<time>2025-08-03T06:02:11.000Z</time>
</trkpt>
<trkpt lat="45.9514100" lon="10.1423020">
	<ele>1119.40</ele>
	<time>2025-08-03T06:02:12.000Z</time>
</trkpt>
<trkpt lat="45.9514040" lon="10.1422900">
	<ele>1119.60</ele>
	<time>2025-08-03T06:02:13.000Z</time>
</trkpt>
<trkpt lat="45.9513930" lon="10.1422840">
	<ele>1119.60</ele>
	<time>2025-08-03T06:02:14.000Z</time>
</trkpt>
<trkpt lat="45.9513810" lon="10.1422790">
	<ele>1119.60</ele>
	<time>2025-08-03T06:02:15.000Z</time>
</trkpt>
<trkpt lat="45.9513680" lon="10.1422650">
	<ele>1119.60</ele>
	<time>2025-08-03T06:02:16.000Z</time>
</trkpt>
<trkpt lat="45.9513520" lon="10.1422500">
	<ele>1119.80</ele>
	<time>2025-08-03T06:02:17.000Z</time>
</trkpt>
<trkpt lat="45.9513410" lon="10.1422320">
	<ele>1119.80</ele>
	<time>2025-08-03T06:02:18.000Z</time>
</trkpt>
<trkpt lat="45.9513350" lon="10.1422250">
	<ele>1119.80</ele>
	<time>2025-08-03T06:02:19.000Z</time>
</trkpt>
<trkpt lat="45.9513290" lon="10.1422210">
	<ele>1119.80</ele>
	<time>2025-08-03T06:02:20.000Z</time>
</trkpt>
<trkpt lat="45.9513330" lon="10.1421960">
	<ele>1119.80</ele>
	<time>2025-08-03T06:02:21.000Z</time>
</trkpt>
<trkpt lat="45.9513330" lon="10.1421700">
	<ele>1120.00</ele>
	<time>2025-08-03T06:02:22.000Z</time>
</trkpt>
<trkpt lat="45.9513300" lon="10.1421440">
	<ele>1120.00</ele>
	<time>2025-08-03T06:02:23.000Z</time>
</trkpt>
<trkpt lat="45.9513300" lon="10.1421200">
	<ele>1120.20</ele>
	<time>2025-08-03T06:02:24.000Z</time>
</trkpt>
<trkpt lat="45.9513330" lon="10.1420930">
	<ele>1120.20</ele>
	<time>2025-08-03T06:02:25.000Z</time>
</trkpt>
<trkpt lat="45.9513350" lon="10.1420700">
	<ele>1120.20</ele>
	<time>2025-08-03T06:02:26.000Z</time>
</trkpt>
<trkpt lat="45.9513390" lon="10.1420360">
	<ele>1120.20</ele>
	<time>2025-08-03T06:02:27.000Z</time>
</trkpt>
<trkpt lat="45.9513380" lon="10.1420040">
	<ele>1120.40</ele>
	<time>2025-08-03T06:02:28.000Z</time>
</trkpt>
<trkpt lat="45.9513380" lon="10.1419790">
	<ele>1120.40</ele>
	<time>2025-08-03T06:02:29.000Z</time>
</trkpt>
<trkpt lat="45.9513410" lon="10.1419530">
	<ele>1120.40</ele>
	<time>2025-08-03T06:02:30.000Z</time>
</trkpt>
<trkpt lat="45.9513430" lon="10.1419260">
	<ele>1120.40</ele>
	<time>2025-08-03T06:02:31.000Z</time>
</trkpt>
<trkpt lat="45.9513440" lon="10.1419010">
	<ele>1120.60</ele>
	<time>2025-08-03T06:02:32.000Z</time>
</trkpt>
<trkpt lat="45.9513440" lon="10.1418800">
	<ele>1120.60</ele>
	<time>2025-08-03T06:02:33.000Z</time>
</trkpt>
<trkpt lat="45.9513530" lon="10.1418620">
	<ele>1120.80</ele>
	<time>2025-08-03T06:02:34.000Z</time>
</trkpt>
<trkpt lat="45.9513630" lon="10.1418400">
	<ele>1120.80</ele>
	<time>2025-08-03T06:02:35.000Z</time>
</trkpt>
<trkpt lat="45.9513670" lon="10.1418260">
	<ele>1121.00</ele>
	<time>2025-08-03T06:02:36.000Z</time>
</trkpt>
<trkpt lat="45.9513670" lon="10.1418110">
	<ele>1121.00</ele>
	<time>2025-08-03T06:02:37.000Z</time>
</trkpt>
<trkpt lat="45.9513680" lon="10.1417950">
	<ele>1121.20</ele>
	<time>2025-08-03T06:02:38.000Z</time>
</trkpt>
<trkpt lat="45.9513670" lon="10.1417760">
	<ele>1121.20</ele>
	<time>2025-08-03T06:02:39.000Z</time>
</trkpt>
<trkpt lat="45.9513530" lon="10.1417630">
	<ele>1121.40</ele>
	<time>2025-08-03T06:02:40.000Z</time>
</trkpt>
<trkpt lat="45.9513360" lon="10.1417530">
	<ele>1121.60</ele>
	<time>2025-08-03T06:02:41.000Z</time>
</trkpt>
<trkpt lat="45.9513320" lon="10.1417370">
	<ele>1121.60</ele>
	<time>2025-08-03T06:02:42.000Z</time>
</trkpt>
<trkpt lat="45.9513340" lon="10.1417250">
	<ele>1121.60</ele>
	<time>2025-08-03T06:02:43.000Z</time>
</trkpt>
<trkpt lat="45.9513350" lon="10.1417050">
	<ele>1121.80</ele>
	<time>2025-08-03T06:02:44.000Z</time>
</trkpt>
<trkpt lat="45.9513370" lon="10.1416680">
	<ele>1122.00</ele>
	<time>2025-08-03T06:02:45.000Z</time>
</trkpt>
<trkpt lat="45.9513360" lon="10.1416450">
	<ele>1122.00</ele>
	<time>2025-08-03T06:02:46.000Z</time>
</trkpt>
<trkpt lat="45.9513350" lon="10.1416310">
	<ele>1122.00</ele>
	<time>2025-08-03T06:02:47.000Z</time>
</trkpt>
<trkpt lat="45.9513300" lon="10.1416130">
	<ele>1122.20</ele>
	<time>2025-08-03T06:02:48.000Z</time>
</trkpt>
<trkpt lat="45.9513330" lon="10.1415990">
	<ele>1122.20</ele>
	<time>2025-08-03T06:02:49.000Z</time>
</trkpt>
<trkpt lat="45.9513400" lon="10.1415870">
	<ele>1122.20</ele>
	<time>2025-08-03T06:02:50.000Z</time>
</trkpt>
<trkpt lat="45.9513310" lon="10.1415830">
	<ele>1122.40</ele>
	<time>2025-08-03T06:02:51.000Z</time>
</trkpt>
<trkpt lat="45.9513280" lon="10.1415670">
	<ele>1122.40</ele>
	<time>2025-08-03T06:02:52.000Z</time>
</trkpt>
<trkpt lat="45.9513310" lon="10.1415580">
	<ele>1122.60</ele>
	<time>2025-08-03T06:02:53.000Z</time>
</trkpt>
<trkpt lat="45.9513360" lon="10.1415520">
	<ele>1122.80</ele>
	<time>2025-08-03T06:02:54.000Z</time>
</trkpt>
<trkpt lat="45.9513350" lon="10.1415370">
	<ele>1122.80</ele>
	<time>2025-08-03T06:02:55.000Z</time>
</trkpt>
<trkpt lat="45.9513320" lon="10.1415240">
	<ele>1122.80</ele>
	<time>2025-08-03T06:02:56.000Z</time>
</trkpt>
<trkpt lat="45.9513290" lon="10.1415170">
	<ele>1123.00</ele>
	<time>2025-08-03T06:02:57.000Z</time>
</trkpt>
<trkpt lat="45.9513270" lon="10.1415100">
	<ele>1123.00</ele>
	<time>2025-08-03T06:02:58.000Z</time>
</trkpt>
<trkpt lat="45.9513290" lon="10.1414960">
	<ele>1123.20</ele>
	<time>2025-08-03T06:02:59.000Z</time>
</trkpt>
<trkpt lat="45.9513290" lon="10.1414820">
	<ele>1123.40</ele>
	<time>2025-08-03T06:03:00.000Z</time>
</trkpt>
<trkpt lat="45.9513300" lon="10.1414640">
	<ele>1123.60</ele>
	<time>2025-08-03T06:03:01.000Z</time>
</trkpt>
<trkpt lat="45.9513340" lon="10.1414480">
	<ele>1123.80</ele>
	<time>2025-08-03T06:03:02.000Z</time>
</trkpt>
<trkpt lat="45.9513370" lon="10.1414270">
	<ele>1124.00</ele>
	<time>2025-08-03T06:03:03.000Z</time>
</trkpt>
<trkpt lat="45.9513400" lon="10.1414100">
	<ele>1124.20</ele>
	<time>2025-08-03T06:03:04.000Z</time>
</trkpt>
<trkpt lat="45.9513410" lon="10.1414040">
	<ele>1124.20</ele>
	<time>2025-08-03T06:03:05.000Z</time>
</trkpt>
<trkpt lat="45.9513410" lon="10.1414020">
	<ele>1124.40</ele>
	<time>2025-08-03T06:03:06.000Z</time>
</trkpt>
<trkpt lat="45.9513460" lon="10.1413870">
	<ele>1124.40</ele>
	<time>2025-08-03T06:03:07.000Z</time>
</trkpt>
<trkpt lat="45.9513530" lon="10.1413720">
	<ele>1124.40</ele>
	<time>2025-08-03T06:03:08.000Z</time>
</trkpt>
<trkpt lat="45.9513690" lon="10.1413540">
	<ele>1124.80</ele>
	<time>2025-08-03T06:03:09.000Z</time>
</trkpt>
<trkpt lat="45.9513860" lon="10.1413310">
	<ele>1124.80</ele>
	<time>2025-08-03T06:03:10.000Z</time>
</trkpt>
<trkpt lat="45.9514000" lon="10.1413080">
	<ele>1125.00</ele>
	<time>2025-08-03T06:03:11.000Z</time>
</trkpt>
<trkpt lat="45.9514070" lon="10.1412970">
	<ele>1125.20</ele>
	<time>2025-08-03T06:03:12.000Z</time>
</trkpt>
<trkpt lat="45.9514090" lon="10.1412690">
	<ele>1125.60</ele>
	<time>2025-08-03T06:03:13.000Z</time>
</trkpt>
<trkpt lat="45.9514180" lon="10.1412420">
	<ele>1125.60</ele>
	<time>2025-08-03T06:03:14.000Z</time>
</trkpt>
<trkpt lat="45.9514300" lon="10.1412200">
	<ele>1125.80</ele>
	<time>2025-08-03T06:03:15.000Z</time>
</trkpt>
<trkpt lat="45.9514400" lon="10.1411920">
	<ele>1125.80</ele>
	<time>2025-08-03T06:03:16.000Z</time>
</trkpt>
<trkpt lat="45.9514480" lon="10.1411640">
	<ele>1125.80</ele>
	<time>2025-08-03T06:03:17.000Z</time>
</trkpt>
<trkpt lat="45.9514490" lon="10.1411410">
	<ele>1125.80</ele>
	<time>2025-08-03T06:03:18.000Z</time>
</trkpt>
<trkpt lat="45.9514530" lon="10.1411190">
	<ele>1125.80</ele>
	<time>2025-08-03T06:03:19.000Z</time>
</trkpt>
<trkpt lat="45.9514630" lon="10.1410970">
	<ele>1125.80</ele>
	<time>2025-08-03T06:03:20.000Z</time>
</trkpt>
<trkpt lat="45.9514700" lon="10.1410780">
	<ele>1125.80</ele>
	<time>2025-08-03T06:03:21.000Z</time>
</trkpt>
<trkpt lat="45.9514770" lon="10.1410550">
	<ele>1126.00</ele>
	<time>2025-08-03T06:03:22.000Z</time>
</trkpt>
<trkpt lat="45.9514820" lon="10.1410280">
	<ele>1126.00</ele>
	<time>2025-08-03T06:03:23.000Z</time>
</trkpt>
<trkpt lat="45.9514860" lon="10.1410030">
	<ele>1126.00</ele>
	<time>2025-08-03T06:03:24.000Z</time>
</trkpt>
<trkpt lat="45.9514830" lon="10.1409840">
	<ele>1126.20</ele>
	<time>2025-08-03T06:03:25.000Z</time>
</trkpt>
<trkpt lat="45.9514820" lon="10.1409740">
	<ele>1126.20</ele>
	<time>2025-08-03T06:03:26.000Z</time>
</trkpt>
<trkpt lat="45.9514800" lon="10.1409610">
	<ele>1126.40</ele>
	<time>2025-08-03T06:03:27.000Z</time>
</trkpt>
<trkpt lat="45.9514770" lon="10.1409430">
	<ele>1126.40</ele>
	<time>2025-08-03T06:03:28.000Z</time>
</trkpt>
<trkpt lat="45.9514750" lon="10.1409190">
	<ele>1126.40</ele>
	<time>2025-08-03T06:03:29.000Z</time>
</trkpt>
<trkpt lat="45.9514760" lon="10.1409010">
	<ele>1126.40</ele>
	<time>2025-08-03T06:03:30.000Z</time>
</trkpt>
<trkpt lat="45.9514760" lon="10.1408910">
	<ele>1126.60</ele>
	<time>2025-08-03T06:03:31.000Z</time>
</trkpt>
<trkpt lat="45.9514750" lon="10.1408760">
	<ele>1126.60</ele>
	<time>2025-08-03T06:03:32.000Z</time>
</trkpt>
<trkpt lat="45.9514680" lon="10.1408520">
	<ele>1126.80</ele>
	<time>2025-08-03T06:03:33.000Z</time>
</trkpt>
<trkpt lat="45.9514650" lon="10.1408390">
	<ele>1127.00</ele>
	<time>2025-08-03T06:03:34.000Z</time>
</trkpt>
<trkpt lat="45.9514700" lon="10.1408300">
	<ele>1127.20</ele>
	<time>2025-08-03T06:03:35.000Z</time>
</trkpt>
<trkpt lat="45.9514680" lon="10.1408170">
	<ele>1127.40</ele>
	<time>2025-08-03T06:03:36.000Z</time>
</trkpt>
<trkpt lat="45.9514660" lon="10.1408060">
	<ele>1127.60</ele>
	<time>2025-08-03T06:03:37.000Z</time>
</trkpt>
<trkpt lat="45.9514700" lon="10.1407950">
	<ele>1127.80</ele>
	<time>2025-08-03T06:03:38.000Z</time>
</trkpt>
<trkpt lat="45.9514750" lon="10.1407810">
	<ele>1128.00</ele>
	<time>2025-08-03T06:03:39.000Z</time>
</trkpt>
<trkpt lat="45.9514820" lon="10.1407660">
	<ele>1128.00</ele>
	<time>2025-08-03T06:03:40.000Z</time>
</trkpt>
<trkpt lat="45.9514910" lon="10.1407440">
	<ele>1128.00</ele>
	<time>2025-08-03T06:03:41.000Z</time>
</trkpt>
<trkpt lat="45.9515000" lon="10.1407290">
	<ele>1128.00</ele>
	<time>2025-08-03T06:03:42.000Z</time>
</trkpt>
<trkpt lat="45.9515060" lon="10.1407150">
	<ele>1128.20</ele>
	<time>2025-08-03T06:03:43.000Z</time>
</trkpt>
<trkpt lat="45.9515130" lon="10.1407050">
	<ele>1128.60</ele>
	<time>2025-08-03T06:03:44.000Z</time>
</trkpt>
<trkpt lat="45.9515360" lon="10.1406940">
	<ele>1128.60</ele>
	<time>2025-08-03T06:03:45.000Z</time>
</trkpt>
<trkpt lat="45.9515410" lon="10.1406720">
	<ele>1128.80</ele>
	<time>2025-08-03T06:03:46.000Z</time>
</trkpt>
<trkpt lat="45.9515490" lon="10.1406510">
	<ele>1129.00</ele>
	<time>2025-08-03T06:03:47.000Z</time>
</trkpt>
<trkpt lat="45.9515510" lon="10.1406300">
	<ele>1129.00</ele>
	<time>2025-08-03T06:03:48.000Z</time>
</trkpt>
<trkpt lat="45.9515570" lon="10.1406110">
	<ele>1129.20</ele>
	<time>2025-08-03T06:03:49.000Z</time>
</trkpt>
<trkpt lat="45.9515610" lon="10.1405960">
	<ele>1129.60</ele>
	<time>2025-08-03T06:03:50.000Z</time>
</trkpt>
<trkpt lat="45.9515650" lon="10.1405790">
	<ele>1129.80</ele>
	<time>2025-08-03T06:03:51.000Z</time>
</trkpt>
<trkpt lat="45.9515730" lon="10.1405650">
	<ele>1129.80</ele>
	<time>2025-08-03T06:03:52.000Z</time>
</trkpt>
<trkpt lat="45.9515810" lon="10.1405510">
	<ele>1130.00</ele>
	<time>2025-08-03T06:03:53.000Z</time>
</trkpt>
<trkpt lat="45.9515830" lon="10.1405360">
	<ele>1130.00</ele>
	<time>2025-08-03T06:03:54.000Z</time>
</trkpt>
<trkpt lat="45.9515840" lon="10.1405190">
	<ele>1130.20</ele>
	<time>2025-08-03T06:03:55.000Z</time>
</trkpt>
<trkpt lat="45.9515850" lon="10.1404990">
	<ele>1130.20</ele>
	<time>2025-08-03T06:03:56.000Z</time>
</trkpt>
<trkpt lat="45.9515840" lon="10.1404800">
	<ele>1130.40</ele>
	<time>2025-08-03T06:03:57.000Z</time>
</trkpt>
<trkpt lat="45.9515880" lon="10.1404600">
	<ele>1130.80</ele>
	<time>2025-08-03T06:03:58.000Z</time>
</trkpt>
<trkpt lat="45.9515880" lon="10.1404340">
	<ele>1131.00</ele>
	<time>2025-08-03T06:03:59.000Z</time>
</trkpt>
<trkpt lat="45.9515850" lon="10.1404130">
	<ele>1131.00</ele>
	<time>2025-08-03T06:04:00.000Z</time>
</trkpt>
<trkpt lat="45.9515830" lon="10.1404030">
	<ele>1131.20</ele>
	<time>2025-08-03T06:04:01.000Z</time>
</trkpt>
<trkpt lat="45.9515830" lon="10.1403890">
	<ele>1131.20</ele>
	<time>2025-08-03T06:04:02.000Z</time>
</trkpt>
<trkpt lat="45.9515790" lon="10.1403760">
	<ele>1131.40</ele>
	<time>2025-08-03T06:04:03.000Z</time>
</trkpt>
<trkpt lat="45.9515700" lon="10.1403610">
	<ele>1131.60</ele>
	<time>2025-08-03T06:04:04.000Z</time>
</trkpt>
<trkpt lat="45.9515650" lon="10.1403360">
	<ele>1131.80</ele>
	<time>2025-08-03T06:04:05.000Z</time>
</trkpt>
<trkpt lat="45.9515580" lon="10.1403110">
	<ele>1132.00</ele>
	<time>2025-08-03T06:04:06.000Z</time>
</trkpt>
<trkpt lat="45.9515510" lon="10.1402920">
	<ele>1132.20</ele>
	<time>2025-08-03T06:04:07.000Z</time>
</trkpt>
<trkpt lat="45.9515590" lon="10.1402790">
	<ele>1132.20</ele>
	<time>2025-08-03T06:04:08.000Z</time>
</trkpt>
<trkpt lat="45.9515750" lon="10.1402690">
	<ele>1132.40</ele>
	<time>2025-08-03T06:04:09.000Z</time>
</trkpt>
<trkpt lat="45.9515770" lon="10.1402550">
	<ele>1132.60</ele>
	<time>2025-08-03T06:04:10.000Z</time>
</trkpt>
<trkpt lat="45.9515750" lon="10.1402360">
	<ele>1132.60</ele>
	<time>2025-08-03T06:04:11.000Z</time>
</trkpt>
<trkpt lat="45.9515750" lon="10.1402110">
	<ele>1132.80</ele>
	<time>2025-08-03T06:04:12.000Z</time>
</trkpt>
<trkpt lat="45.9515730" lon="10.1401910">
	<ele>1132.80</ele>
	<time>2025-08-03T06:04:13.000Z</time>
</trkpt>
<trkpt lat="45.9515700" lon="10.1401760">
	<ele>1133.00</ele>
	<time>2025-08-03T06:04:14.000Z</time>
</trkpt>
<trkpt lat="45.9515700" lon="10.1401620">
	<ele>1133.20</ele>
	<time>2025-08-03T06:04:15.000Z</time>
</trkpt>
<trkpt lat="45.9515690" lon="10.1401550">
	<ele>1133.20</ele>
	<time>2025-08-03T06:04:16.000Z</time>
</trkpt>
<trkpt lat="45.9515670" lon="10.1401460">
	<ele>1133.40</ele>
	<time>2025-08-03T06:04:17.000Z</time>
</trkpt>
<trkpt lat="45.9515680" lon="10.1401340">
	<ele>1133.40</ele>
	<time>2025-08-03T06:04:18.000Z</time>
</trkpt>
<trkpt lat="45.9515630" lon="10.1401310">
	<ele>1133.60</ele>
	<time>2025-08-03T06:04:19.000Z</time>
</trkpt>
<trkpt lat="45.9515640" lon="10.1401160">
	<ele>1133.80</ele>
	<time>2025-08-03T06:04:20.000Z</time>
</trkpt>
<trkpt lat="45.9515640" lon="10.1400950">
	<ele>1134.00</ele>
	<time>2025-08-03T06:04:21.000Z</time>
</trkpt>
<trkpt lat="45.9515600" lon="10.1400720">
	<ele>1134.20</ele>
	<time>2025-08-03T06:04:22.000Z</time>
</trkpt>
<trkpt lat="45.9515570" lon="10.1400520">
	<ele>1134.20</ele>
	<time>2025-08-03T06:04:23.000Z</time>
</trkpt>
<trkpt lat="45.9515550" lon="10.1400430">
	<ele>1134.20</ele>
	<time>2025-08-03T06:04:24.000Z</time>
</trkpt>
<trkpt lat="45.9515550" lon="10.1400270">
	<ele>1134.20</ele>
	<time>2025-08-03T06:04:25.000Z</time>
</trkpt>
<trkpt lat="45.9515540" lon="10.1400090">
	<ele>1134.20</ele>
	<time>2025-08-03T06:04:26.000Z</time>
</trkpt>
<trkpt lat="45.9515490" lon="10.1399970">
	<ele>1134.20</ele>
	<time>2025-08-03T06:04:27.000Z</time>
</trkpt>
<trkpt lat="45.9515460" lon="10.1399810">
	<ele>1134.20</ele>
	<time>2025-08-03T06:04:28.000Z</time>
</trkpt>
<trkpt lat="45.9515460" lon="10.1399650">
	<ele>1134.20</ele>
	<time>2025-08-03T06:04:29.000Z</time>
</trkpt>
<trkpt lat="45.9515500" lon="10.1399510">
	<ele>1134.20</ele>
	<time>2025-08-03T06:04:30.000Z</time>
</trkpt>
<trkpt lat="45.9515510" lon="10.1399440">
	<ele>1134.40</ele>
	<time>2025-08-03T06:04:31.000Z</time>
</trkpt>
<trkpt lat="45.9515590" lon="10.1399320">
	<ele>1134.40</ele>
	<time>2025-08-03T06:04:32.000Z</time>
</trkpt>
<trkpt lat="45.9515600" lon="10.1399290">
	<ele>1134.40</ele>
	<time>2025-08-03T06:04:33.000Z</time>
</trkpt>
<trkpt lat="45.9515690" lon="10.1399210">
	<ele>1134.40</ele>
	<time>2025-08-03T06:04:34.000Z</time>
</trkpt>
<trkpt lat="45.9515660" lon="10.1399050">
	<ele>1134.60</ele>
	<time>2025-08-03T06:04:35.000Z</time>
</trkpt>
<trkpt lat="45.9515680" lon="10.1398850">
	<ele>1134.60</ele>
	<time>2025-08-03T06:04:36.000Z</time>
</trkpt>
<trkpt lat="45.9515740" lon="10.1398630">
	<ele>1134.60</ele>
	<time>2025-08-03T06:04:37.000Z</time>
</trkpt>
<trkpt lat="45.9515790" lon="10.1398400">
	<ele>1134.40</ele>
	<time>2025-08-03T06:04:38.000Z</time>
</trkpt>
<trkpt lat="45.9515840" lon="10.1398180">
	<ele>1134.40</ele>
	<time>2025-08-03T06:04:39.000Z</time>
</trkpt>
<trkpt lat="45.9515890" lon="10.1397960">
	<ele>1134.40</ele>
	<time>2025-08-03T06:04:40.000Z</time>
</trkpt>
<trkpt lat="45.9515920" lon="10.1397740">
	<ele>1134.60</ele>
	<time>2025-08-03T06:04:41.000Z</time>
</trkpt>
<trkpt lat="45.9515980" lon="10.1397480">
	<ele>1134.60</ele>
	<time>2025-08-03T06:04:42.000Z</time>
</trkpt>
<trkpt lat="45.9516060" lon="10.1397270">
	<ele>1134.60</ele>
	<time>2025-08-03T06:04:43.000Z</time>
</trkpt>
<trkpt lat="45.9516130" lon="10.1396970">
	<ele>1134.60</ele>
	<time>2025-08-03T06:04:44.000Z</time>
</trkpt>
<trkpt lat="45.9516150" lon="10.1396680">
	<ele>1134.60</ele>
	<time>2025-08-03T06:04:45.000Z</time>
</trkpt>
<trkpt lat="45.9516210" lon="10.1396380">
	<ele>1134.60</ele>
	<time>2025-08-03T06:04:46.000Z</time>
</trkpt>
<trkpt lat="45.9516290" lon="10.1396200">
	<ele>1134.60</ele>
	<time>2025-08-03T06:04:47.000Z</time>
</trkpt>
<trkpt lat="45.9516330" lon="10.1396070">
	<ele>1134.60</ele>
	<time>2025-08-03T06:04:48.000Z</time>
</trkpt>
<trkpt lat="45.9516340" lon="10.1395950">
	<ele>1134.60</ele>
	<time>2025-08-03T06:04:49.000Z</time>
</trkpt>
<trkpt lat="45.9516360" lon="10.1395820">
	<ele>1134.80</ele>
	<time>2025-08-03T06:04:50.000Z</time>
</trkpt>
<trkpt lat="45.9516430" lon="10.1395650">
	<ele>1134.80</ele>
	<time>2025-08-03T06:04:51.000Z</time>
</trkpt>
<trkpt lat="45.9516560" lon="10.1395220">
	<ele>1134.80</ele>
	<time>2025-08-03T06:04:52.000Z</time>
</trkpt>
<trkpt lat="45.9516780" lon="10.1395040">
	<ele>1134.80</ele>
	<time>2025-08-03T06:04:53.000Z</time>
</trkpt>
<trkpt lat="45.9516870" lon="10.1394900">
	<ele>1134.80</ele>
	<time>2025-08-03T06:04:54.000Z</time>
</trkpt>
<trkpt lat="45.9516970" lon="10.1394800">
	<ele>1134.80</ele>
	<time>2025-08-03T06:04:55.000Z</time>
</trkpt>
<trkpt lat="45.9517030" lon="10.1394740">
	<ele>1134.80</ele>
	<time>2025-08-03T06:04:56.000Z</time>
</trkpt>
<trkpt lat="45.9517060" lon="10.1394650">
	<ele>1134.80</ele>
	<time>2025-08-03T06:04:57.000Z</time>
</trkpt>
<trkpt lat="45.9517090" lon="10.1394530">
	<ele>1134.80</ele>
	<time>2025-08-03T06:04:58.000Z</time>
</trkpt>
<trkpt lat="45.9517130" lon="10.1394400">
	<ele>1134.80</ele>
	<time>2025-08-03T06:04:59.000Z</time>
</trkpt>
<trkpt lat="45.9517180" lon="10.1394240">
	<ele>1135.00</ele>
	<time>2025-08-03T06:05:00.000Z</time>
</trkpt>
<trkpt lat="45.9517220" lon="10.1394030">
	<ele>1135.00</ele>
	<time>2025-08-03T06:05:01.000Z</time>
</trkpt>
<trkpt lat="45.9517230" lon="10.1393920">
	<ele>1135.00</ele>
	<time>2025-08-03T06:05:02.000Z</time>
</trkpt>
<trkpt lat="45.9517250" lon="10.1393820">
	<ele>1135.00</ele>
	<time>2025-08-03T06:05:03.000Z</time>
</trkpt>
<trkpt lat="45.9517280" lon="10.1393690">
	<ele>1135.00</ele>
	<time>2025-08-03T06:05:04.000Z</time>
</trkpt>
<trkpt lat="45.9517290" lon="10.1393540">
	<ele>1135.00</ele>
	<time>2025-08-03T06:05:05.000Z</time>
</trkpt>
<trkpt lat="45.9517270" lon="10.1393420">
	<ele>1135.00</ele>
	<time>2025-08-03T06:05:06.000Z</time>
</trkpt>
<trkpt lat="45.9517200" lon="10.1393270">
	<ele>1135.20</ele>
	<time>2025-08-03T06:05:07.000Z</time>
</trkpt>
<trkpt lat="45.9517070" lon="10.1393080">
	<ele>1135.20</ele>
	<time>2025-08-03T06:05:08.000Z</time>
</trkpt>
<trkpt lat="45.9516910" lon="10.1392860">
	<ele>1135.20</ele>
	<time>2025-08-03T06:05:09.000Z</time>
</trkpt>
<trkpt lat="45.9516910" lon="10.1392680">
	<ele>1135.20</ele>
	<time>2025-08-03T06:05:10.000Z</time>
</trkpt>
<trkpt lat="45.9516930" lon="10.1392550">
	<ele>1135.20</ele>
	<time>2025-08-03T06:05:11.000Z</time>
</trkpt>
<trkpt lat="45.9516970" lon="10.1392370">
	<ele>1135.20</ele>
	<time>2025-08-03T06:05:12.000Z</time>
</trkpt>
<trkpt lat="45.9516990" lon="10.1392170">
	<ele>1135.20</ele>
	<time>2025-08-03T06:05:13.000Z</time>
</trkpt>
<trkpt lat="45.9517030" lon="10.1391980">
	<ele>1135.20</ele>
	<time>2025-08-03T06:05:14.000Z</time>
</trkpt>
<trkpt lat="45.9517080" lon="10.1391850">
	<ele>1135.20</ele>
	<time>2025-08-03T06:05:15.000Z</time>
</trkpt>
<trkpt lat="45.9517140" lon="10.1391660">
	<ele>1135.20</ele>
	<time>2025-08-03T06:05:16.000Z</time>
</trkpt>
<trkpt lat="45.9517190" lon="10.1391490">
	<ele>1135.40</ele>
	<time>2025-08-03T06:05:17.000Z</time>
</trkpt>
<trkpt lat="45.9517170" lon="10.1391320">
	<ele>1135.40</ele>
	<time>2025-08-03T06:05:18.000Z</time>
</trkpt>
<trkpt lat="45.9517220" lon="10.1391110">
	<ele>1135.40</ele>
	<time>2025-08-03T06:05:19.000Z</time>
</trkpt>
<trkpt lat="45.9517290" lon="10.1390910">
	<ele>1135.40</ele>
	<time>2025-08-03T06:05:20.000Z</time>
</trkpt>
<trkpt lat="45.9517310" lon="10.1390700">
	<ele>1135.40</ele>
	<time>2025-08-03T06:05:21.000Z</time>
</trkpt>
<trkpt lat="45.9517320" lon="10.1390550">
	<ele>1135.40</ele>
	<time>2025-08-03T06:05:22.000Z</time>
</trkpt>
<trkpt lat="45.9517320" lon="10.1390370">
	<ele>1135.60</ele>
	<time>2025-08-03T06:05:23.000Z</time>
</trkpt>
<trkpt lat="45.9517330" lon="10.1390250">
	<ele>1135.60</ele>
	<time>2025-08-03T06:05:24.000Z</time>
</trkpt>
<trkpt lat="45.9517340" lon="10.1390190">
	<ele>1135.60</ele>
	<time>2025-08-03T06:05:25.000Z</time>
</trkpt>
<trkpt lat="45.9517350" lon="10.1390140">
	<ele>1135.60</ele>
	<time>2025-08-03T06:05:26.000Z</time>
</trkpt>
<trkpt lat="45.9517380" lon="10.1390030">
	<ele>1135.60</ele>
	<time>2025-08-03T06:05:27.000Z</time>
</trkpt>
<trkpt lat="45.9517330" lon="10.1389900">
	<ele>1135.60</ele>
	<time>2025-08-03T06:05:28.000Z</time>
</trkpt>
<trkpt lat="45.9517300" lon="10.1389780">
	<ele>1135.60</ele>
	<time>2025-08-03T06:05:29.000Z</time>
</trkpt>
<trkpt lat="45.9517290" lon="10.1389670">
	<ele>1135.60</ele>
	<time>2025-08-03T06:05:30.000Z</time>
</trkpt>
<trkpt lat="45.9517210" lon="10.1389550">
	<ele>1135.60</ele>
	<time>2025-08-03T06:05:31.000Z</time>
</trkpt>
<trkpt lat="45.9517120" lon="10.1389400">
	<ele>1135.40</ele>
	<time>2025-08-03T06:05:32.000Z</time>
</trkpt>
<trkpt lat="45.9517110" lon="10.1389290">
	<ele>1135.40</ele>
	<time>2025-08-03T06:05:33.000Z</time>
</trkpt>
<trkpt lat="45.9517150" lon="10.1389130">
	<ele>1135.40</ele>
	<time>2025-08-03T06:05:34.000Z</time>
</trkpt>
<trkpt lat="45.9517240" lon="10.1388970">
	<ele>1135.60</ele>
	<time>2025-08-03T06:05:35.000Z</time>
</trkpt>
<trkpt lat="45.9517330" lon="10.1388820">
	<ele>1135.60</ele>
	<time>2025-08-03T06:05:36.000Z</time>
</trkpt>
<trkpt lat="45.9517390" lon="10.1388690">
	<ele>1135.60</ele>
	<time>2025-08-03T06:05:37.000Z</time>
</trkpt>
<trkpt lat="45.9517400" lon="10.1388510">
	<ele>1135.60</ele>
	<time>2025-08-03T06:05:38.000Z</time>
</trkpt>
<trkpt lat="45.9517410" lon="10.1388380">
	<ele>1135.60</ele>
	<time>2025-08-03T06:05:39.000Z</time>
</trkpt>
<trkpt lat="45.9517360" lon="10.1388180">
	<ele>1135.60</ele>
	<time>2025-08-03T06:05:40.000Z</time>
</trkpt>
<trkpt lat="45.9517310" lon="10.1387980">
	<ele>1135.40</ele>
	<time>2025-08-03T06:05:41.000Z</time>
</trkpt>
<trkpt lat="45.9517250" lon="10.1387760">
	<ele>1135.40</ele>
	<time>2025-08-03T06:05:42.000Z</time>
</trkpt>
<trkpt lat="45.9517270" lon="10.1387580">
	<ele>1135.40</ele>
	<time>2025-08-03T06:05:43.000Z</time>
</trkpt>
<trkpt lat="45.9517290" lon="10.1387440">
	<ele>1135.40</ele>
	<time>2025-08-03T06:05:44.000Z</time>
</trkpt>
<trkpt lat="45.9517310" lon="10.1387280">
	<ele>1135.40</ele>
	<time>2025-08-03T06:05:45.000Z</time>
</trkpt>
<trkpt lat="45.9517280" lon="10.1387150">
	<ele>1135.40</ele>
	<time>2025-08-03T06:05:46.000Z</time>
</trkpt>
<trkpt lat="45.9517270" lon="10.1387050">
	<ele>1135.40</ele>
	<time>2025-08-03T06:05:47.000Z</time>
</trkpt>
<trkpt lat="45.9517250" lon="10.1386850">
	<ele>1135.60</ele>
	<time>2025-08-03T06:05:48.000Z</time>
</trkpt>
<trkpt lat="45.9517230" lon="10.1386600">
	<ele>1135.60</ele>
	<time>2025-08-03T06:05:49.000Z</time>
</trkpt>
<trkpt lat="45.9517240" lon="10.1386400">
	<ele>1135.60</ele>
	<time>2025-08-03T06:05:50.000Z</time>
</trkpt>
<trkpt lat="45.9517230" lon="10.1386200">
	<ele>1135.60</ele>
	<time>2025-08-03T06:05:51.000Z</time>
</trkpt>
<trkpt lat="45.9517270" lon="10.1386000">
	<ele>1135.40</ele>
	<time>2025-08-03T06:05:52.000Z</time>
</trkpt>
<trkpt lat="45.9517360" lon="10.1385850">
	<ele>1135.40</ele>
	<time>2025-08-03T06:05:53.000Z</time>
</trkpt>
<trkpt lat="45.9517380" lon="10.1385670">
	<ele>1135.60</ele>
	<time>2025-08-03T06:05:54.000Z</time>
</trkpt>
<trkpt lat="45.9517390" lon="10.1385490">
	<ele>1135.60</ele>
	<time>2025-08-03T06:05:55.000Z</time>
</trkpt>
<trkpt lat="45.9517340" lon="10.1385320">
	<ele>1135.60</ele>
	<time>2025-08-03T06:05:56.000Z</time>
</trkpt>
<trkpt lat="45.9517310" lon="10.1385050">
	<ele>1135.60</ele>
	<time>2025-08-03T06:05:57.000Z</time>
</trkpt>
<trkpt lat="45.9517360" lon="10.1384870">
	<ele>1135.80</ele>
	<time>2025-08-03T06:05:58.000Z</time>
</trkpt>
<trkpt lat="45.9517330" lon="10.1384760">
	<ele>1135.80</ele>
	<time>2025-08-03T06:05:59.000Z</time>
</trkpt>
<trkpt lat="45.9517380" lon="10.1384620">
	<ele>1135.80</ele>
	<time>2025-08-03T06:06:00.000Z</time>
</trkpt>
<trkpt lat="45.9517540" lon="10.1384450">
	<ele>1135.60</ele>
	<time>2025-08-03T06:06:01.000Z</time>
</trkpt>
<trkpt lat="45.9517620" lon="10.1384290">
	<ele>1135.60</ele>
	<time>2025-08-03T06:06:02.000Z</time>
</trkpt>
<trkpt lat="45.9517670" lon="10.1384080">
	<ele>1135.60</ele>
	<time>2025-08-03T06:06:03.000Z</time>
</trkpt>
<trkpt lat="45.9517620" lon="10.1383840">
	<ele>1135.60</ele>
	<time>2025-08-03T06:06:04.000Z</time>
</trkpt>
<trkpt lat="45.9517580" lon="10.1383500">
	<ele>1135.80</ele>
	<time>2025-08-03T06:06:05.000Z</time>
</trkpt>
<trkpt lat="45.9517580" lon="10.1383230">
	<ele>1135.80</ele>
	<time>2025-08-03T06:06:06.000Z</time>
</trkpt>
<trkpt lat="45.9517560" lon="10.1383070">
	<ele>1135.80</ele>
	<time>2025-08-03T06:06:07.000Z</time>
</trkpt>
<trkpt lat="45.9517570" lon="10.1382940">
	<ele>1136.00</ele>
	<time>2025-08-03T06:06:08.000Z</time>
</trkpt>
<trkpt lat="45.9517730" lon="10.1382780">
	<ele>1136.00</ele>
	<time>2025-08-03T06:06:09.000Z</time>
</trkpt>
<trkpt lat="45.9517910" lon="10.1382530">
	<ele>1136.20</ele>
	<time>2025-08-03T06:06:10.000Z</time>
</trkpt>
<trkpt lat="45.9518090" lon="10.1382250">
	<ele>1136.40</ele>
	<time>2025-08-03T06:06:11.000Z</time>
</trkpt>
<trkpt lat="45.9518210" lon="10.1382070">
	<ele>1136.40</ele>
	<time>2025-08-03T06:06:12.000Z</time>
</trkpt>
<trkpt lat="45.9518320" lon="10.1381870">
	<ele>1136.60</ele>
	<time>2025-08-03T06:06:13.000Z</time>
</trkpt>
<trkpt lat="45.9518370" lon="10.1381640">
	<ele>1136.60</ele>
	<time>2025-08-03T06:06:14.000Z</time>
</trkpt>
<trkpt lat="45.9518410" lon="10.1381460">
	<ele>1136.60</ele>
	<time>2025-08-03T06:06:15.000Z</time>
</trkpt>
<trkpt lat="45.9518410" lon="10.1381240">
	<ele>1136.80</ele>
	<time>2025-08-03T06:06:16.000Z</time>
</trkpt>
<trkpt lat="45.9518340" lon="10.1380980">
	<ele>1136.80</ele>
	<time>2025-08-03T06:06:17.000Z</time>
</trkpt>
<trkpt lat="45.9518270" lon="10.1380740">
	<ele>1137.00</ele>
	<time>2025-08-03T06:06:18.000Z</time>
</trkpt>
<trkpt lat="45.9518210" lon="10.1380510">
	<ele>1137.00</ele>
	<time>2025-08-03T06:06:19.000Z</time>
</trkpt>
<trkpt lat="45.9518120" lon="10.1380330">
	<ele>1137.20</ele>
	<time>2025-08-03T06:06:20.000Z</time>
</trkpt>
<trkpt lat="45.9518050" lon="10.1380130">
	<ele>1137.40</ele>
	<time>2025-08-03T06:06:21.000Z</time>
</trkpt>
<trkpt lat="45.9517980" lon="10.1379910">
	<ele>1137.40</ele>
	<time>2025-08-03T06:06:22.000Z</time>
</trkpt>
<trkpt lat="45.9517970" lon="10.1379710">
	<ele>1137.40</ele>
	<time>2025-08-03T06:06:23.000Z</time>
</trkpt>
<trkpt lat="45.9517930" lon="10.1379530">
	<ele>1137.40</ele>
	<time>2025-08-03T06:06:24.000Z</time>
</trkpt>
<trkpt lat="45.9517830" lon="10.1379360">
	<ele>1137.20</ele>
	<time>2025-08-03T06:06:25.000Z</time>
</trkpt>
<trkpt lat="45.9517790" lon="10.1379120">
	<ele>1137.20</ele>
	<time>2025-08-03T06:06:26.000Z</time>
</trkpt>
<trkpt lat="45.9517740" lon="10.1378910">
	<ele>1137.20</ele>
	<time>2025-08-03T06:06:27.000Z</time>
</trkpt>
<trkpt lat="45.9517760" lon="10.1378750">
	<ele>1137.00</ele>
	<time>2025-08-03T06:06:28.000Z</time>
</trkpt>
<trkpt lat="45.9517730" lon="10.1378510">
	<ele>1137.00</ele>
	<time>2025-08-03T06:06:29.000Z</time>
</trkpt>
<trkpt lat="45.9517650" lon="10.1378250">
	<ele>1137.00</ele>
	<time>2025-08-03T06:06:30.000Z</time>
</trkpt>
<trkpt lat="45.9517520" lon="10.1377960">
	<ele>1136.80</ele>
	<time>2025-08-03T06:06:31.000Z</time>
</trkpt>
<trkpt lat="45.9517460" lon="10.1377680">
	<ele>1136.80</ele>
	<time>2025-08-03T06:06:32.000Z</time>
</trkpt>
<trkpt lat="45.9517430" lon="10.1377400">
	<ele>1136.60</ele>
	<time>2025-08-03T06:06:33.000Z</time>
</trkpt>
<trkpt lat="45.9517410" lon="10.1377160">
	<ele>1136.60</ele>
	<time>2025-08-03T06:06:34.000Z</time>
</trkpt>
<trkpt lat="45.9517370" lon="10.1376920">
	<ele>1136.40</ele>
	<time>2025-08-03T06:06:35.000Z</time>
</trkpt>
<trkpt lat="45.9517360" lon="10.1376700">
	<ele>1136.40</ele>
	<time>2025-08-03T06:06:36.000Z</time>
</trkpt>
<trkpt lat="45.9517290" lon="10.1376480">
	<ele>1136.20</ele>
	<time>2025-08-03T06:06:37.000Z</time>
</trkpt>
<trkpt lat="45.9517240" lon="10.1376240">
	<ele>1136.20</ele>
	<time>2025-08-03T06:06:38.000Z</time>
</trkpt>
<trkpt lat="45.9517320" lon="10.1376000">
	<ele>1136.00</ele>
	<time>2025-08-03T06:06:39.000Z</time>
</trkpt>
<trkpt lat="45.9517460" lon="10.1375680">
	<ele>1136.00</ele>
	<time>2025-08-03T06:06:40.000Z</time>
</trkpt>
<trkpt lat="45.9517550" lon="10.1375440">
	<ele>1135.80</ele>
	<time>2025-08-03T06:06:41.000Z</time>
</trkpt>
<trkpt lat="45.9517620" lon="10.1375130">
	<ele>1135.60</ele>
	<time>2025-08-03T06:06:42.000Z</time>
</trkpt>
<trkpt lat="45.9517650" lon="10.1374890">
	<ele>1135.60</ele>
	<time>2025-08-03T06:06:43.000Z</time>
</trkpt>
<trkpt lat="45.9517650" lon="10.1374590">
	<ele>1135.60</ele>
	<time>2025-08-03T06:06:44.000Z</time>
</trkpt>
<trkpt lat="45.9517700" lon="10.1374390">
	<ele>1135.60</ele>
	<time>2025-08-03T06:06:45.000Z</time>
</trkpt>
<trkpt lat="45.9517810" lon="10.1374260">
	<ele>1135.60</ele>
	<time>2025-08-03T06:06:46.000Z</time>
</trkpt>
<trkpt lat="45.9517920" lon="10.1374140">
	<ele>1135.60</ele>
	<time>2025-08-03T06:06:47.000Z</time>
</trkpt>
<trkpt lat="45.9518040" lon="10.1373990">
	<ele>1135.60</ele>
	<time>2025-08-03T06:06:48.000Z</time>
</trkpt>
<trkpt lat="45.9518120" lon="10.1373850">
	<ele>1135.60</ele>
	<time>2025-08-03T06:06:49.000Z</time>
</trkpt>
<trkpt lat="45.9518210" lon="10.1373760">
	<ele>1135.60</ele>
	<time>2025-08-03T06:06:50.000Z</time>
</trkpt>
<trkpt lat="45.9518250" lon="10.1373670">
	<ele>1135.60</ele>
	<time>2025-08-03T06:06:51.000Z</time>
</trkpt>
<trkpt lat="45.9518350" lon="10.1373600">
	<ele>1135.40</ele>
	<time>2025-08-03T06:06:52.000Z</time>
</trkpt>
<trkpt lat="45.9518420" lon="10.1373480">
	<ele>1135.40</ele>
	<time>2025-08-03T06:06:53.000Z</time>
</trkpt>
<trkpt lat="45.9518470" lon="10.1373320">
	<ele>1135.40</ele>
	<time>2025-08-03T06:06:54.000Z</time>
</trkpt>
<trkpt lat="45.9518520" lon="10.1373140">
	<ele>1135.20</ele>
	<time>2025-08-03T06:06:55.000Z</time>
</trkpt>
<trkpt lat="45.9518560" lon="10.1373030">
	<ele>1135.20</ele>
	<time>2025-08-03T06:06:56.000Z</time>
</trkpt>
<trkpt lat="45.9518580" lon="10.1372990">
	<ele>1135.20</ele>
	<time>2025-08-03T06:06:57.000Z</time>
</trkpt>
<trkpt lat="45.9518620" lon="10.1372930">
	<ele>1135.20</ele>
	<time>2025-08-03T06:06:58.000Z</time>
</trkpt>
<trkpt lat="45.9518830" lon="10.1372900">
	<ele>1135.00</ele>
	<time>2025-08-03T06:06:59.000Z</time>
</trkpt>
<trkpt lat="45.9519020" lon="10.1372910">
	<ele>1135.00</ele>
	<time>2025-08-03T06:07:00.000Z</time>
</trkpt>
<trkpt lat="45.9519170" lon="10.1372910">
	<ele>1135.00</ele>
	<time>2025-08-03T06:07:01.000Z</time>
</trkpt>
<trkpt lat="45.9519330" lon="10.1372780">
	<ele>1135.00</ele>
	<time>2025-08-03T06:07:02.000Z</time>
</trkpt>
<trkpt lat="45.9519450" lon="10.1372640">
	<ele>1135.00</ele>
	<time>2025-08-03T06:07:03.000Z</time>
</trkpt>
<trkpt lat="45.9519580" lon="10.1372440">
	<ele>1135.00</ele>
	<time>2025-08-03T06:07:04.000Z</time>
</trkpt>
<trkpt lat="45.9519680" lon="10.1372240">
	<ele>1135.00</ele>
	<time>2025-08-03T06:07:05.000Z</time>
</trkpt>
<trkpt lat="45.9519810" lon="10.1372030">
	<ele>1135.00</ele>
	<time>2025-08-03T06:07:06.000Z</time>
</trkpt>
<trkpt lat="45.9519940" lon="10.1371890">
	<ele>1135.00</ele>
	<time>2025-08-03T06:07:07.000Z</time>
</trkpt>
<trkpt lat="45.9520080" lon="10.1371790">
	<ele>1135.00</ele>
	<time>2025-08-03T06:07:08.000Z</time>
</trkpt>
<trkpt lat="45.9520280" lon="10.1371870">
	<ele>1135.20</ele>
	<time>2025-08-03T06:07:09.000Z</time>
</trkpt>
<trkpt lat="45.9520460" lon="10.1371840">
	<ele>1135.20</ele>
	<time>2025-08-03T06:07:10.000Z</time>
</trkpt>
<trkpt lat="45.9520710" lon="10.1371690">
	<ele>1135.20</ele>
	<time>2025-08-03T06:07:11.000Z</time>
</trkpt>
<trkpt lat="45.9520870" lon="10.1371490">
	<ele>1135.20</ele>
	<time>2025-08-03T06:07:12.000Z</time>
</trkpt>
<trkpt lat="45.9520980" lon="10.1371410">
	<ele>1135.20</ele>
	<time>2025-08-03T06:07:13.000Z</time>
</trkpt>
<trkpt lat="45.9521120" lon="10.1371440">
	<ele>1135.40</ele>
	<time>2025-08-03T06:07:14.000Z</time>
</trkpt>
<trkpt lat="45.9521230" lon="10.1371450">
	<ele>1135.40</ele>
	<time>2025-08-03T06:07:15.000Z</time>
</trkpt>
<trkpt lat="45.9521340" lon="10.1371400">
	<ele>1135.40</ele>
	<time>2025-08-03T06:07:16.000Z</time>
</trkpt>
<trkpt lat="45.9521390" lon="10.1371220">
	<ele>1135.60</ele>
	<time>2025-08-03T06:07:17.000Z</time>
</trkpt>
<trkpt lat="45.9521540" lon="10.1371150">
	<ele>1135.60</ele>
	<time>2025-08-03T06:07:18.000Z</time>
</trkpt>
<trkpt lat="45.9521670" lon="10.1371090">
	<ele>1135.60</ele>
	<time>2025-08-03T06:07:19.000Z</time>
</trkpt>
<trkpt lat="45.9521770" lon="10.1370920">
	<ele>1135.60</ele>
	<time>2025-08-03T06:07:20.000Z</time>
</trkpt>
<trkpt lat="45.9521870" lon="10.1370810">
	<ele>1135.60</ele>
	<time>2025-08-03T06:07:21.000Z</time>
</trkpt>
<trkpt lat="45.9522020" lon="10.1370730">
	<ele>1135.60</ele>
	<time>2025-08-03T06:07:22.000Z</time>
</trkpt>
<trkpt lat="45.9522140" lon="10.1370620">
	<ele>1135.80</ele>
	<time>2025-08-03T06:07:23.000Z</time>
</trkpt>
<trkpt lat="45.9522220" lon="10.1370490">
	<ele>1135.80</ele>
	<time>2025-08-03T06:07:24.000Z</time>
</trkpt>
<trkpt lat="45.9522270" lon="10.1370320">
	<ele>1135.80</ele>
	<time>2025-08-03T06:07:25.000Z</time>
</trkpt>
<trkpt lat="45.9522360" lon="10.1370210">
	<ele>1135.80</ele>
	<time>2025-08-03T06:07:26.000Z</time>
</trkpt>
<trkpt lat="45.9522430" lon="10.1370070">
	<ele>1136.00</ele>
	<time>2025-08-03T06:07:27.000Z</time>
</trkpt>
<trkpt lat="45.9522590" lon="10.1370040">
	<ele>1136.00</ele>
	<time>2025-08-03T06:07:28.000Z</time>
</trkpt>
<trkpt lat="45.9522680" lon="10.1369920">
	<ele>1136.00</ele>
	<time>2025-08-03T06:07:29.000Z</time>
</trkpt>
<trkpt lat="45.9522760" lon="10.1369760">
	<ele>1136.20</ele>
	<time>2025-08-03T06:07:30.000Z</time>
</trkpt>
<trkpt lat="45.9522860" lon="10.1369650">
	<ele>1136.20</ele>
	<time>2025-08-03T06:07:31.000Z</time>
</trkpt>
<trkpt lat="45.9522930" lon="10.1369540">
	<ele>1136.20</ele>
	<time>2025-08-03T06:07:32.000Z</time>
</trkpt>
<trkpt lat="45.9522950" lon="10.1369320">
	<ele>1136.20</ele>
	<time>2025-08-03T06:07:33.000Z</time>
</trkpt>
<trkpt lat="45.9523010" lon="10.1369140">
	<ele>1136.20</ele>
	<time>2025-08-03T06:07:34.000Z</time>
</trkpt>
<trkpt lat="45.9523090" lon="10.1369030">
	<ele>1136.20</ele>
	<time>2025-08-03T06:07:35.000Z</time>
</trkpt>
<trkpt lat="45.9523110" lon="10.1368960">
	<ele>1136.20</ele>
	<time>2025-08-03T06:07:36.000Z</time>
</trkpt>
<trkpt lat="45.9523130" lon="10.1368830">
	<ele>1136.20</ele>
	<time>2025-08-03T06:07:37.000Z</time>
</trkpt>
<trkpt lat="45.9523170" lon="10.1368690">
	<ele>1136.40</ele>
	<time>2025-08-03T06:07:38.000Z</time>
</trkpt>
<trkpt lat="45.9523200" lon="10.1368530">
	<ele>1136.40</ele>
	<time>2025-08-03T06:07:39.000Z</time>
</trkpt>
<trkpt lat="45.9523230" lon="10.1368350">
	<ele>1136.60</ele>
	<time>2025-08-03T06:07:40.000Z</time>
</trkpt>
<trkpt lat="45.9523290" lon="10.1368200">
	<ele>1136.60</ele>
	<time>2025-08-03T06:07:41.000Z</time>
</trkpt>
<trkpt lat="45.9523370" lon="10.1368130">
	<ele>1136.80</ele>
	<time>2025-08-03T06:07:42.000Z</time>
</trkpt>
<trkpt lat="45.9523560" lon="10.1368140">
	<ele>1136.80</ele>
	<time>2025-08-03T06:07:43.000Z</time>
</trkpt>
<trkpt lat="45.9523720" lon="10.1368170">
	<ele>1137.00</ele>
	<time>2025-08-03T06:07:44.000Z</time>
</trkpt>
<trkpt lat="45.9523800" lon="10.1368040">
	<ele>1137.00</ele>
	<time>2025-08-03T06:07:45.000Z</time>
</trkpt>
<trkpt lat="45.9523890" lon="10.1367930">
	<ele>1137.00</ele>
	<time>2025-08-03T06:07:46.000Z</time>
</trkpt>
<trkpt lat="45.9524120" lon="10.1367860">
	<ele>1137.00</ele>
	<time>2025-08-03T06:07:47.000Z</time>
</trkpt>
<trkpt lat="45.9524190" lon="10.1367690">
	<ele>1137.00</ele>
	<time>2025-08-03T06:07:48.000Z</time>
</trkpt>
<trkpt lat="45.9524200" lon="10.1367470">
	<ele>1137.00</ele>
	<time>2025-08-03T06:07:49.000Z</time>
</trkpt>
<trkpt lat="45.9524170" lon="10.1367240">
	<ele>1137.00</ele>
	<time>2025-08-03T06:07:50.000Z</time>
</trkpt>
<trkpt lat="45.9524100" lon="10.1367020">
	<ele>1137.00</ele>
	<time>2025-08-03T06:07:51.000Z</time>
</trkpt>
<trkpt lat="45.9524030" lon="10.1366840">
	<ele>1137.00</ele>
	<time>2025-08-03T06:07:52.000Z</time>
</trkpt>
<trkpt lat="45.9523880" lon="10.1366640">
	<ele>1137.20</ele>
	<time>2025-08-03T06:07:53.000Z</time>
</trkpt>
<trkpt lat="45.9523760" lon="10.1366440">
	<ele>1137.20</ele>
	<time>2025-08-03T06:07:54.000Z</time>
</trkpt>
<trkpt lat="45.9523720" lon="10.1366340">
	<ele>1137.20</ele>
	<time>2025-08-03T06:07:55.000Z</time>
</trkpt>
<trkpt lat="45.9523680" lon="10.1366240">
	<ele>1137.20</ele>
	<time>2025-08-03T06:07:56.000Z</time>
</trkpt>
<trkpt lat="45.9523580" lon="10.1366030">
	<ele>1137.40</ele>
	<time>2025-08-03T06:07:57.000Z</time>
</trkpt>
<trkpt lat="45.9523440" lon="10.1365710">
	<ele>1137.40</ele>
	<time>2025-08-03T06:07:58.000Z</time>
</trkpt>
<trkpt lat="45.9523350" lon="10.1365480">
	<ele>1137.40</ele>
	<time>2025-08-03T06:07:59.000Z</time>
</trkpt>
<trkpt lat="45.9523190" lon="10.1365260">
	<ele>1137.40</ele>
	<time>2025-08-03T06:08:00.000Z</time>
</trkpt>
<trkpt lat="45.9523080" lon="10.1365130">
	<ele>1137.40</ele>
	<time>2025-08-03T06:08:01.000Z</time>
</trkpt>
<trkpt lat="45.9523000" lon="10.1365040">
	<ele>1137.40</ele>
	<time>2025-08-03T06:08:02.000Z</time>
</trkpt>
<trkpt lat="45.9522920" lon="10.1364930">
	<ele>1137.40</ele>
	<time>2025-08-03T06:08:03.000Z</time>
</trkpt>
<trkpt lat="45.9522810" lon="10.1364890">
	<ele>1137.40</ele>
	<time>2025-08-03T06:08:04.000Z</time>
</trkpt>
<trkpt lat="45.9522810" lon="10.1364870">
	<ele>1137.60</ele>
	<time>2025-08-03T06:08:05.000Z</time>
</trkpt>
<trkpt lat="45.9522690" lon="10.1364900">
	<ele>1137.60</ele>
	<time>2025-08-03T06:08:06.000Z</time>
</trkpt>
<trkpt lat="45.9522550" lon="10.1364940">
	<ele>1137.60</ele>
	<time>2025-08-03T06:08:07.000Z</time>
</trkpt>
<trkpt lat="45.9522440" lon="10.1364880">
	<ele>1137.80</ele>
	<time>2025-08-03T06:08:08.000Z</time>
</trkpt>
<trkpt lat="45.9522320" lon="10.1364810">
	<ele>1138.00</ele>
	<time>2025-08-03T06:08:09.000Z</time>
</trkpt>
<trkpt lat="45.9522190" lon="10.1364730">
	<ele>1138.40</ele>
	<time>2025-08-03T06:08:10.000Z</time>
</trkpt>
<trkpt lat="45.9522060" lon="10.1364700">
	<ele>1138.60</ele>
	<time>2025-08-03T06:08:11.000Z</time>
</trkpt>
<trkpt lat="45.9521920" lon="10.1364680">
	<ele>1138.60</ele>
	<time>2025-08-03T06:08:12.000Z</time>
</trkpt>
<trkpt lat="45.9521730" lon="10.1364740">
	<ele>1138.80</ele>
	<time>2025-08-03T06:08:13.000Z</time>
</trkpt>
<trkpt lat="45.9521510" lon="10.1364730">
	<ele>1139.00</ele>
	<time>2025-08-03T06:08:14.000Z</time>
</trkpt>
<trkpt lat="45.9521310" lon="10.1364760">
	<ele>1139.20</ele>
	<time>2025-08-03T06:08:15.000Z</time>
</trkpt>
<trkpt lat="45.9521070" lon="10.1364820">
	<ele>1139.40</ele>
	<time>2025-08-03T06:08:16.000Z</time>
</trkpt>
<trkpt lat="45.9520860" lon="10.1364830">
	<ele>1139.60</ele>
	<time>2025-08-03T06:08:17.000Z</time>
</trkpt>
<trkpt lat="45.9520590" lon="10.1364910">
	<ele>1139.60</ele>
	<time>2025-08-03T06:08:18.000Z</time>
</trkpt>
<trkpt lat="45.9520380" lon="10.1364810">
	<ele>1139.60</ele>
	<time>2025-08-03T06:08:19.000Z</time>
</trkpt>
<trkpt lat="45.9519990" lon="10.1364790">
	<ele>1139.80</ele>
	<time>2025-08-03T06:08:20.000Z</time>
</trkpt>
<trkpt lat="45.9519680" lon="10.1364690">
	<ele>1140.00</ele>
	<time>2025-08-03T06:08:21.000Z</time>
</trkpt>
<trkpt lat="45.9519490" lon="10.1364660">
	<ele>1140.00</ele>
	<time>2025-08-03T06:08:22.000Z</time>
</trkpt>
<trkpt lat="45.9519420" lon="10.1364710">
	<ele>1140.20</ele>
	<time>2025-08-03T06:08:23.000Z</time>
</trkpt>
<trkpt lat="45.9519310" lon="10.1364800">
	<ele>1140.40</ele>
	<time>2025-08-03T06:08:24.000Z</time>
</trkpt>
<trkpt lat="45.9519160" lon="10.1364900">
	<ele>1140.40</ele>
	<time>2025-08-03T06:08:25.000Z</time>
</trkpt>
<trkpt lat="45.9519020" lon="10.1364990">
	<ele>1140.60</ele>
	<time>2025-08-03T06:08:26.000Z</time>
</trkpt>
<trkpt lat="45.9518910" lon="10.1364970">
	<ele>1140.60</ele>
	<time>2025-08-03T06:08:27.000Z</time>
</trkpt>
<trkpt lat="45.9518790" lon="10.1364950">
	<ele>1140.80</ele>
	<time>2025-08-03T06:08:28.000Z</time>
</trkpt>
<trkpt lat="45.9518670" lon="10.1364900">
	<ele>1140.80</ele>
	<time>2025-08-03T06:08:29.000Z</time>
</trkpt>
<trkpt lat="45.9518550" lon="10.1364860">
	<ele>1140.80</ele>
	<time>2025-08-03T06:08:30.000Z</time>
</trkpt>
<trkpt lat="45.9518500" lon="10.1364760">
	<ele>1141.00</ele>
	<time>2025-08-03T06:08:31.000Z</time>
</trkpt>
<trkpt lat="45.9518500" lon="10.1364700">
	<ele>1141.00</ele>
	<time>2025-08-03T06:08:32.000Z</time>
</trkpt>
<trkpt lat="45.9518410" lon="10.1364570">
	<ele>1141.20</ele>
	<time>2025-08-03T06:08:33.000Z</time>
</trkpt>
<trkpt lat="45.9518250" lon="10.1364410">
	<ele>1141.20</ele>
	<time>2025-08-03T06:08:34.000Z</time>
</trkpt>
<trkpt lat="45.9518100" lon="10.1364280">
	<ele>1141.40</ele>
	<time>2025-08-03T06:08:35.000Z</time>
</trkpt>
<trkpt lat="45.9517980" lon="10.1364090">
	<ele>1141.40</ele>
	<time>2025-08-03T06:08:36.000Z</time>
</trkpt>
<trkpt lat="45.9517910" lon="10.1363900">
	<ele>1141.80</ele>
	<time>2025-08-03T06:08:37.000Z</time>
</trkpt>
<trkpt lat="45.9517880" lon="10.1363800">
	<ele>1141.80</ele>
	<time>2025-08-03T06:08:38.000Z</time>
</trkpt>
<trkpt lat="45.9517770" lon="10.1363580">
	<ele>1142.00</ele>
	<time>2025-08-03T06:08:39.000Z</time>
</trkpt>
<trkpt lat="45.9517710" lon="10.1363290">
	<ele>1142.00</ele>
	<time>2025-08-03T06:08:40.000Z</time>
</trkpt>
<trkpt lat="45.9517640" lon="10.1363010">
	<ele>1142.00</ele>
	<time>2025-08-03T06:08:41.000Z</time>
</trkpt>
<trkpt lat="45.9517570" lon="10.1362770">
	<ele>1142.00</ele>
	<time>2025-08-03T06:08:42.000Z</time>
</trkpt>
<trkpt lat="45.9517530" lon="10.1362530">
	<ele>1142.20</ele>
	<time>2025-08-03T06:08:43.000Z</time>
</trkpt>
<trkpt lat="45.9517510" lon="10.1362370">
	<ele>1142.20</ele>
	<time>2025-08-03T06:08:44.000Z</time>
</trkpt>
<trkpt lat="45.9517610" lon="10.1362260">
	<ele>1142.40</ele>
	<time>2025-08-03T06:08:45.000Z</time>
</trkpt>
<trkpt lat="45.9517680" lon="10.1362200">
	<ele>1142.60</ele>
	<time>2025-08-03T06:08:46.000Z</time>
</trkpt>
<trkpt lat="45.9517720" lon="10.1361990">
	<ele>1142.80</ele>
	<time>2025-08-03T06:08:47.000Z</time>
</trkpt>
<trkpt lat="45.9517770" lon="10.1361880">
	<ele>1142.80</ele>
	<time>2025-08-03T06:08:48.000Z</time>
</trkpt>
<trkpt lat="45.9517830" lon="10.1361660">
	<ele>1143.00</ele>
	<time>2025-08-03T06:08:49.000Z</time>
</trkpt>
<trkpt lat="45.9517860" lon="10.1361510">
	<ele>1143.00</ele>
	<time>2025-08-03T06:08:50.000Z</time>
</trkpt>
<trkpt lat="45.9517900" lon="10.1361400">
	<ele>1143.20</ele>
	<time>2025-08-03T06:08:51.000Z</time>
</trkpt>
<trkpt lat="45.9517920" lon="10.1361300">
	<ele>1143.20</ele>
	<time>2025-08-03T06:08:52.000Z</time>
</trkpt>
<trkpt lat="45.9517940" lon="10.1361230">
	<ele>1143.20</ele>
	<time>2025-08-03T06:08:53.000Z</time>
</trkpt>
<trkpt lat="45.9517980" lon="10.1361070">
	<ele>1143.40</ele>
	<time>2025-08-03T06:08:54.000Z</time>
</trkpt>
<trkpt lat="45.9518060" lon="10.1360920">
	<ele>1143.80</ele>
	<time>2025-08-03T06:08:55.000Z</time>
</trkpt>
<trkpt lat="45.9518090" lon="10.1360750">
	<ele>1143.80</ele>
	<time>2025-08-03T06:08:56.000Z</time>
</trkpt>
<trkpt lat="45.9518110" lon="10.1360580">
	<ele>1144.00</ele>
	<time>2025-08-03T06:08:57.000Z</time>
</trkpt>
<trkpt lat="45.9518090" lon="10.1360360">
	<ele>1144.00</ele>
	<time>2025-08-03T06:08:58.000Z</time>
</trkpt>
<trkpt lat="45.9518090" lon="10.1360150">
	<ele>1144.20</ele>
	<time>2025-08-03T06:08:59.000Z</time>
</trkpt>
<trkpt lat="45.9518180" lon="10.1360000">
	<ele>1144.20</ele>
	<time>2025-08-03T06:09:00.000Z</time>
</trkpt>
<trkpt lat="45.9518240" lon="10.1359870">
	<ele>1144.40</ele>
	<time>2025-08-03T06:09:01.000Z</time>
</trkpt>
<trkpt lat="45.9518240" lon="10.1359790">
	<ele>1144.60</ele>
	<time>2025-08-03T06:09:02.000Z</time>
</trkpt>
<trkpt lat="45.9518200" lon="10.1359700">
	<ele>1144.80</ele>
	<time>2025-08-03T06:09:03.000Z</time>
</trkpt>
<trkpt lat="45.9518160" lon="10.1359500">
	<ele>1144.80</ele>
	<time>2025-08-03T06:09:04.000Z</time>
</trkpt>
<trkpt lat="45.9518100" lon="10.1359280">
	<ele>1145.00</ele>
	<time>2025-08-03T06:09:05.000Z</time>
</trkpt>
<trkpt lat="45.9518050" lon="10.1359050">
	<ele>1145.20</ele>
	<time>2025-08-03T06:09:06.000Z</time>
</trkpt>
<trkpt lat="45.9517930" lon="10.1358790">
	<ele>1145.20</ele>
	<time>2025-08-03T06:09:07.000Z</time>
</trkpt>
<trkpt lat="45.9517890" lon="10.1358600">
	<ele>1145.40</ele>
	<time>2025-08-03T06:09:08.000Z</time>
</trkpt>
<trkpt lat="45.9517960" lon="10.1358370">
	<ele>1145.40</ele>
	<time>2025-08-03T06:09:09.000Z</time>
</trkpt>
<trkpt lat="45.9518100" lon="10.1358260">
	<ele>1145.60</ele>
	<time>2025-08-03T06:09:10.000Z</time>
</trkpt>
<trkpt lat="45.9518220" lon="10.1358120">
	<ele>1145.60</ele>
	<time>2025-08-03T06:09:11.000Z</time>
</trkpt>
<trkpt lat="45.9518280" lon="10.1357970">
	<ele>1145.80</ele>
	<time>2025-08-03T06:09:12.000Z</time>
</trkpt>
<trkpt lat="45.9518250" lon="10.1357830">
	<ele>1145.80</ele>
	<time>2025-08-03T06:09:13.000Z</time>
</trkpt>
<trkpt lat="45.9518210" lon="10.1357710">
	<ele>1146.00</ele>
	<time>2025-08-03T06:09:14.000Z</time>
</trkpt>
<trkpt lat="45.9518230" lon="10.1357600">
	<ele>1146.00</ele>
	<time>2025-08-03T06:09:15.000Z</time>
</trkpt>
<trkpt lat="45.9518220" lon="10.1357450">
	<ele>1146.20</ele>
	<time>2025-08-03T06:09:16.000Z</time>
</trkpt>
<trkpt lat="45.9518190" lon="10.1357260">
	<ele>1146.20</ele>
	<time>2025-08-03T06:09:17.000Z</time>
</trkpt>
<trkpt lat="45.9518150" lon="10.1357040">
	<ele>1146.20</ele>
	<time>2025-08-03T06:09:18.000Z</time>
</trkpt>
<trkpt lat="45.9518130" lon="10.1356770">
	<ele>1146.40</ele>
	<time>2025-08-03T06:09:19.000Z</time>
</trkpt>
<trkpt lat="45.9518120" lon="10.1356550">
	<ele>1146.60</ele>
	<time>2025-08-03T06:09:20.000Z</time>
</trkpt>
<trkpt lat="45.9518090" lon="10.1356370">
	<ele>1146.60</ele>
	<time>2025-08-03T06:09:21.000Z</time>
</trkpt>
<trkpt lat="45.9518040" lon="10.1356190">
	<ele>1146.80</ele>
	<time>2025-08-03T06:09:22.000Z</time>
</trkpt>
<trkpt lat="45.9518080" lon="10.1355990">
	<ele>1147.00</ele>
	<time>2025-08-03T06:09:23.000Z</time>
</trkpt>
<trkpt lat="45.9518080" lon="10.1355830">
	<ele>1147.00</ele>
	<time>2025-08-03T06:09:24.000Z</time>
</trkpt>
<trkpt lat="45.9518080" lon="10.1355620">
	<ele>1147.00</ele>
	<time>2025-08-03T06:09:25.000Z</time>
</trkpt>
<trkpt lat="45.9518150" lon="10.1355450">
	<ele>1147.20</ele>
	<time>2025-08-03T06:09:26.000Z</time>
</trkpt>
<trkpt lat="45.9518170" lon="10.1355280">
	<ele>1147.20</ele>
	<time>2025-08-03T06:09:27.000Z</time>
</trkpt>
<trkpt lat="45.9518150" lon="10.1355120">
	<ele>1147.40</ele>
	<time>2025-08-03T06:09:28.000Z</time>
</trkpt>
<trkpt lat="45.9518170" lon="10.1354990">
	<ele>1147.60</ele>
	<time>2025-08-03T06:09:29.000Z</time>
</trkpt>
<trkpt lat="45.9518180" lon="10.1354860">
	<ele>1147.60</ele>
	<time>2025-08-03T06:09:30.000Z</time>
</trkpt>
<trkpt lat="45.9518210" lon="10.1354710">
	<ele>1147.80</ele>
	<time>2025-08-03T06:09:31.000Z</time>
</trkpt>
<trkpt lat="45.9518210" lon="10.1354570">
	<ele>1147.80</ele>
	<time>2025-08-03T06:09:32.000Z</time>
</trkpt>
<trkpt lat="45.9518230" lon="10.1354440">
	<ele>1148.00</ele>
	<time>2025-08-03T06:09:34.000Z</time>
</trkpt>
<trkpt lat="45.9518300" lon="10.1354320">
	<ele>1148.20</ele>
	<time>2025-08-03T06:09:35.000Z</time>
</trkpt>
<trkpt lat="45.9518490" lon="10.1354200">
	<ele>1148.40</ele>
	<time>2025-08-03T06:09:36.000Z</time>
</trkpt>
<trkpt lat="45.9518590" lon="10.1354160">
	<ele>1148.40</ele>
	<time>2025-08-03T06:09:37.000Z</time>
</trkpt>
<trkpt lat="45.9518690" lon="10.1354190">
	<ele>1148.60</ele>
	<time>2025-08-03T06:09:38.000Z</time>
</trkpt>
<trkpt lat="45.9518620" lon="10.1354120">
	<ele>1148.60</ele>
	<time>2025-08-03T06:09:39.000Z</time>
</trkpt>
<trkpt lat="45.9518610" lon="10.1354100">
	<ele>1148.80</ele>
	<time>2025-08-03T06:09:40.000Z</time>
</trkpt>
<trkpt lat="45.9518580" lon="10.1354090">
	<ele>1148.80</ele>
	<time>2025-08-03T06:09:41.000Z</time>
</trkpt>
<trkpt lat="45.9518620" lon="10.1353960">
	<ele>1148.60</ele>
	<time>2025-08-03T06:09:42.000Z</time>
</trkpt>
<trkpt lat="45.9518580" lon="10.1353840">
	<ele>1148.60</ele>
	<time>2025-08-03T06:09:43.000Z</time>
</trkpt>
<trkpt lat="45.9518580" lon="10.1353810">
	<ele>1148.60</ele>
	<time>2025-08-03T06:09:44.000Z</time>
</trkpt>
<trkpt lat="45.9518710" lon="10.1353940">
	<ele>1148.60</ele>
	<time>2025-08-03T06:09:45.000Z</time>
</trkpt>
<trkpt lat="45.9518750" lon="10.1353980">
	<ele>1148.60</ele>
	<time>2025-08-03T06:09:46.000Z</time>
</trkpt>
<trkpt lat="45.9518780" lon="10.1354000">
	<ele>1148.60</ele>
	<time>2025-08-03T06:09:47.000Z</time>
</trkpt>
<trkpt lat="45.9518800" lon="10.1353970">
	<ele>1148.80</ele>
	<time>2025-08-03T06:09:48.000Z</time>
</trkpt>
<trkpt lat="45.9518820" lon="10.1353990">
	<ele>1148.80</ele>
	<time>2025-08-03T06:09:49.000Z</time>
</trkpt>
<trkpt lat="45.9518790" lon="10.1353980">
	<ele>1149.00</ele>
	<time>2025-08-03T06:09:50.000Z</time>
</trkpt>
<trkpt lat="45.9518780" lon="10.1353970">
	<ele>1149.00</ele>
	<time>2025-08-03T06:09:51.000Z</time>
</trkpt>
<trkpt lat="45.9518780" lon="10.1353960">
	<ele>1148.80</ele>
	<time>2025-08-03T06:09:52.000Z</time>
</trkpt>
<trkpt lat="45.9518790" lon="10.1353980">
	<ele>1148.60</ele>
	<time>2025-08-03T06:09:53.000Z</time>
</trkpt>
<trkpt lat="45.9518800" lon="10.1354010">
	<ele>1148.40</ele>
	<time>2025-08-03T06:09:54.000Z</time>
</trkpt>
<trkpt lat="45.9518810" lon="10.1354020">
	<ele>1148.40</ele>
	<time>2025-08-03T06:09:55.000Z</time>
</trkpt>
<trkpt lat="45.9518830" lon="10.1354060">
	<ele>1148.40</ele>
	<time>2025-08-03T06:09:56.000Z</time>
</trkpt>
<trkpt lat="45.9518840" lon="10.1354080">
	<ele>1148.40</ele>
	<time>2025-08-03T06:09:57.000Z</time>
</trkpt>
<trkpt lat="45.9518840" lon="10.1354080">
	<ele>1148.40</ele>
	<time>2025-08-03T06:09:58.000Z</time>
</trkpt>
<trkpt lat="45.9518840" lon="10.1354080">
	<ele>1148.40</ele>
	<time>2025-08-03T06:09:59.000Z</time>
</trkpt>
<trkpt lat="45.9518840" lon="10.1354080">
	<ele>1148.40</ele>
	<time>2025-08-03T06:10:00.000Z</time>
</trkpt>
<trkpt lat="45.9518840" lon="10.1354080">
	<ele>1148.20</ele>
	<time>2025-08-03T06:10:01.000Z</time>
</trkpt>
<trkpt lat="45.9518840" lon="10.1354080">
	<ele>1148.20</ele>
	<time>2025-08-03T06:10:02.000Z</time>
</trkpt>
<trkpt lat="45.9518840" lon="10.1354080">
	<ele>1148.20</ele>
	<time>2025-08-03T06:10:03.000Z</time>
</trkpt>
<trkpt lat="45.9518840" lon="10.1354080">
	<ele>1148.20</ele>
	<time>2025-08-03T06:10:04.000Z</time>
</trkpt>
<trkpt lat="45.9518840" lon="10.1354080">
	<ele>1148.20</ele>
	<time>2025-08-03T06:10:05.000Z</time>
</trkpt>
<trkpt lat="45.9518840" lon="10.1354080">
	<ele>1148.40</ele>
	<time>2025-08-03T06:10:06.000Z</time>
</trkpt>
<trkpt lat="45.9518840" lon="10.1354080">
	<ele>1148.40</ele>
	<time>2025-08-03T06:10:07.000Z</time>
</trkpt>
<trkpt lat="45.9518840" lon="10.1354080">
	<ele>1148.60</ele>
	<time>2025-08-03T06:10:08.000Z</time>
</trkpt>
<trkpt lat="45.9518880" lon="10.1354040">
	<ele>1148.60</ele>
	<time>2025-08-03T06:10:09.000Z</time>
</trkpt>
<trkpt lat="45.9518900" lon="10.1353840">
	<ele>1148.60</ele>
	<time>2025-08-03T06:10:10.000Z</time>
</trkpt>
<trkpt lat="45.9518960" lon="10.1353720">
	<ele>1148.80</ele>
	<time>2025-08-03T06:10:11.000Z</time>
</trkpt>
<trkpt lat="45.9519010" lon="10.1353640">
	<ele>1148.80</ele>
	<time>2025-08-03T06:10:12.000Z</time>
</trkpt>
<trkpt lat="45.9518960" lon="10.1353570">
	<ele>1148.80</ele>
	<time>2025-08-03T06:10:13.000Z</time>
</trkpt>
<trkpt lat="45.9518920" lon="10.1353500">
	<ele>1149.00</ele>
	<time>2025-08-03T06:10:14.000Z</time>
</trkpt>
<trkpt lat="45.9518920" lon="10.1353470">
	<ele>1149.00</ele>
	<time>2025-08-03T06:10:15.000Z</time>
</trkpt>
<trkpt lat="45.9518930" lon="10.1353420">
	<ele>1149.00</ele>
	<time>2025-08-03T06:10:16.000Z</time>
</trkpt>
<trkpt lat="45.9518850" lon="10.1353340">
	<ele>1149.00</ele>
	<time>2025-08-03T06:10:17.000Z</time>
</trkpt>
<trkpt lat="45.9518850" lon="10.1353280">
	<ele>1149.00</ele>
	<time>2025-08-03T06:10:18.000Z</time>
</trkpt>
<trkpt lat="45.9518840" lon="10.1353290">
	<ele>1149.00</ele>
	<time>2025-08-03T06:10:19.000Z</time>
</trkpt>
<trkpt lat="45.9518830" lon="10.1353300">
	<ele>1149.00</ele>
	<time>2025-08-03T06:10:20.000Z</time>
</trkpt>
<trkpt lat="45.9518820" lon="10.1353290">
	<ele>1149.00</ele>
	<time>2025-08-03T06:10:21.000Z</time>
</trkpt>
<trkpt lat="45.9518810" lon="10.1353250">
	<ele>1149.00</ele>
	<time>2025-08-03T06:10:22.000Z</time>
</trkpt>
<trkpt lat="45.9518800" lon="10.1353120">
	<ele>1149.00</ele>
	<time>2025-08-03T06:10:23.000Z</time>
</trkpt>
<trkpt lat="45.9518750" lon="10.1352940">
	<ele>1149.20</ele>
	<time>2025-08-03T06:10:24.000Z</time>
</trkpt>
<trkpt lat="45.9518650" lon="10.1352830">
	<ele>1149.20</ele>
	<time>2025-08-03T06:10:25.000Z</time>
</trkpt>
<trkpt lat="45.9518720" lon="10.1352700">
	<ele>1149.40</ele>
	<time>2025-08-03T06:10:26.000Z</time>
</trkpt>
<trkpt lat="45.9518740" lon="10.1352580">
	<ele>1149.60</ele>
	<time>2025-08-03T06:10:27.000Z</time>
</trkpt>
<trkpt lat="45.9518710" lon="10.1352410">
	<ele>1149.60</ele>
	<time>2025-08-03T06:10:28.000Z</time>
</trkpt>
<trkpt lat="45.9518600" lon="10.1352220">
	<ele>1149.80</ele>
	<time>2025-08-03T06:10:29.000Z</time>
</trkpt>
<trkpt lat="45.9518460" lon="10.1352060">
	<ele>1149.80</ele>
	<time>2025-08-03T06:10:30.000Z</time>
</trkpt>
<trkpt lat="45.9518370" lon="10.1351980">
	<ele>1150.00</ele>
	<time>2025-08-03T06:10:31.000Z</time>
</trkpt>
<trkpt lat="45.9518260" lon="10.1351870">
	<ele>1150.00</ele>
	<time>2025-08-03T06:10:32.000Z</time>
</trkpt>
<trkpt lat="45.9518180" lon="10.1351750">
	<ele>1150.20</ele>
	<time>2025-08-03T06:10:33.000Z</time>
</trkpt>
<trkpt lat="45.9518110" lon="10.1351650">
	<ele>1150.40</ele>
	<time>2025-08-03T06:10:34.000Z</time>
</trkpt>
<trkpt lat="45.9518070" lon="10.1351550">
	<ele>1150.40</ele>
	<time>2025-08-03T06:10:35.000Z</time>
</trkpt>
<trkpt lat="45.9518060" lon="10.1351400">
	<ele>1150.60</ele>
	<time>2025-08-03T06:10:36.000Z</time>
</trkpt>
<trkpt lat="45.9518010" lon="10.1351240">
	<ele>1150.60</ele>
	<time>2025-08-03T06:10:37.000Z</time>
</trkpt>
<trkpt lat="45.9518010" lon="10.1351080">
	<ele>1150.60</ele>
	<time>2025-08-03T06:10:38.000Z</time>
</trkpt>
<trkpt lat="45.9518070" lon="10.1350900">
	<ele>1150.80</ele>
	<time>2025-08-03T06:10:39.000Z</time>
</trkpt>
<trkpt lat="45.9518130" lon="10.1350710">
	<ele>1151.00</ele>
	<time>2025-08-03T06:10:40.000Z</time>
</trkpt>
<trkpt lat="45.9518140" lon="10.1350500">
	<ele>1151.00</ele>
	<time>2025-08-03T06:10:41.000Z</time>
</trkpt>
<trkpt lat="45.9518130" lon="10.1350290">
	<ele>1151.20</ele>
	<time>2025-08-03T06:10:42.000Z</time>
</trkpt>
<trkpt lat="45.9518100" lon="10.1350100">
	<ele>1151.40</ele>
	<time>2025-08-03T06:10:43.000Z</time>
</trkpt>
<trkpt lat="45.9518080" lon="10.1349930">
	<ele>1151.40</ele>
	<time>2025-08-03T06:10:44.000Z</time>
</trkpt>
<trkpt lat="45.9518010" lon="10.1349720">
	<ele>1151.60</ele>
	<time>2025-08-03T06:10:45.000Z</time>
</trkpt>
<trkpt lat="45.9517930" lon="10.1349490">
	<ele>1151.80</ele>
	<time>2025-08-03T06:10:46.000Z</time>
</trkpt>
<trkpt lat="45.9517940" lon="10.1349280">
	<ele>1151.80</ele>
	<time>2025-08-03T06:10:47.000Z</time>
</trkpt>
<trkpt lat="45.9517920" lon="10.1349070">
	<ele>1152.00</ele>
	<time>2025-08-03T06:10:48.000Z</time>
</trkpt>
<trkpt lat="45.9517880" lon="10.1348910">
	<ele>1152.20</ele>
	<time>2025-08-03T06:10:49.000Z</time>
</trkpt>
<trkpt lat="45.9517890" lon="10.1348760">
	<ele>1152.40</ele>
	<time>2025-08-03T06:10:50.000Z</time>
</trkpt>
<trkpt lat="45.9517960" lon="10.1348580">
	<ele>1152.60</ele>
	<time>2025-08-03T06:10:51.000Z</time>
</trkpt>
<trkpt lat="45.9517990" lon="10.1348370">
	<ele>1152.80</ele>
	<time>2025-08-03T06:10:52.000Z</time>
</trkpt>
<trkpt lat="45.9518060" lon="10.1348230">
	<ele>1152.80</ele>
	<time>2025-08-03T06:10:53.000Z</time>
</trkpt>
<trkpt lat="45.9518110" lon="10.1348090">
	<ele>1152.80</ele>
	<time>2025-08-03T06:10:54.000Z</time>
</trkpt>
<trkpt lat="45.9518160" lon="10.1347890">
	<ele>1152.80</ele>
	<time>2025-08-03T06:10:55.000Z</time>
</trkpt>
<trkpt lat="45.9518170" lon="10.1347660">
	<ele>1152.80</ele>
	<time>2025-08-03T06:10:56.000Z</time>
</trkpt>
<trkpt lat="45.9518170" lon="10.1347440">
	<ele>1152.80</ele>
	<time>2025-08-03T06:10:57.000Z</time>
</trkpt>
<trkpt lat="45.9518140" lon="10.1347230">
	<ele>1153.00</ele>
	<time>2025-08-03T06:10:58.000Z</time>
</trkpt>
<trkpt lat="45.9518040" lon="10.1347060">
	<ele>1153.00</ele>
	<time>2025-08-03T06:10:59.000Z</time>
</trkpt>
<trkpt lat="45.9518060" lon="10.1346850">
	<ele>1153.00</ele>
	<time>2025-08-03T06:11:00.000Z</time>
</trkpt>
<trkpt lat="45.9517980" lon="10.1346680">
	<ele>1153.20</ele>
	<time>2025-08-03T06:11:01.000Z</time>
</trkpt>
<trkpt lat="45.9517960" lon="10.1346530">
	<ele>1153.40</ele>
	<time>2025-08-03T06:11:02.000Z</time>
</trkpt>
<trkpt lat="45.9518030" lon="10.1346340">
	<ele>1153.40</ele>
	<time>2025-08-03T06:11:03.000Z</time>
</trkpt>
<trkpt lat="45.9518080" lon="10.1346170">
	<ele>1153.40</ele>
	<time>2025-08-03T06:11:04.000Z</time>
</trkpt>
<trkpt lat="45.9518040" lon="10.1346000">
	<ele>1153.60</ele>
	<time>2025-08-03T06:11:05.000Z</time>
</trkpt>
<trkpt lat="45.9517980" lon="10.1345780">
	<ele>1153.60</ele>
	<time>2025-08-03T06:11:06.000Z</time>
</trkpt>
<trkpt lat="45.9517940" lon="10.1345590">
	<ele>1153.80</ele>
	<time>2025-08-03T06:11:07.000Z</time>
</trkpt>
<trkpt lat="45.9517930" lon="10.1345500">
	<ele>1153.80</ele>
	<time>2025-08-03T06:11:08.000Z</time>
</trkpt>
<trkpt lat="45.9517940" lon="10.1345550">
	<ele>1154.00</ele>
	<time>2025-08-03T06:11:09.000Z</time>
</trkpt>
<trkpt lat="45.9518000" lon="10.1345580">
	<ele>1154.00</ele>
	<time>2025-08-03T06:11:10.000Z</time>
</trkpt>
<trkpt lat="45.9517950" lon="10.1345600">
	<ele>1154.00</ele>
	<time>2025-08-03T06:11:11.000Z</time>
</trkpt>
<trkpt lat="45.9517940" lon="10.1345620">
	<ele>1154.00</ele>
	<time>2025-08-03T06:11:12.000Z</time>
</trkpt>
<trkpt lat="45.9517940" lon="10.1345630">
	<ele>1154.00</ele>
	<time>2025-08-03T06:11:13.000Z</time>
</trkpt>
<trkpt lat="45.9517930" lon="10.1345650">
	<ele>1154.20</ele>
	<time>2025-08-03T06:11:14.000Z</time>
</trkpt>
<trkpt lat="45.9517890" lon="10.1345670">
	<ele>1154.20</ele>
	<time>2025-08-03T06:11:15.000Z</time>
</trkpt>
<trkpt lat="45.9517880" lon="10.1345650">
	<ele>1154.40</ele>
	<time>2025-08-03T06:11:16.000Z</time>
</trkpt>
<trkpt lat="45.9517910" lon="10.1345540">
	<ele>1154.40</ele>
	<time>2025-08-03T06:11:17.000Z</time>
</trkpt>
<trkpt lat="45.9517960" lon="10.1345420">
	<ele>1154.40</ele>
	<time>2025-08-03T06:11:18.000Z</time>
</trkpt>
<trkpt lat="45.9517940" lon="10.1345250">
	<ele>1154.40</ele>
	<time>2025-08-03T06:11:19.000Z</time>
</trkpt>
<trkpt lat="45.9517930" lon="10.1345060">
	<ele>1154.40</ele>
	<time>2025-08-03T06:11:20.000Z</time>
</trkpt>
<trkpt lat="45.9517960" lon="10.1344850">
	<ele>1154.40</ele>
	<time>2025-08-03T06:11:21.000Z</time>
</trkpt>
<trkpt lat="45.9517950" lon="10.1344660">
	<ele>1154.40</ele>
	<time>2025-08-03T06:11:22.000Z</time>
</trkpt>
<trkpt lat="45.9517940" lon="10.1344480">
	<ele>1154.60</ele>
	<time>2025-08-03T06:11:23.000Z</time>
</trkpt>
<trkpt lat="45.9517930" lon="10.1344330">
	<ele>1154.60</ele>
	<time>2025-08-03T06:11:24.000Z</time>
</trkpt>
<trkpt lat="45.9517850" lon="10.1344140">
	<ele>1154.80</ele>
	<time>2025-08-03T06:11:25.000Z</time>
</trkpt>
<trkpt lat="45.9517820" lon="10.1343960">
	<ele>1154.80</ele>
	<time>2025-08-03T06:11:26.000Z</time>
</trkpt>
<trkpt lat="45.9517860" lon="10.1343730">
	<ele>1154.80</ele>
	<time>2025-08-03T06:11:27.000Z</time>
</trkpt>
<trkpt lat="45.9517920" lon="10.1343560">
	<ele>1155.00</ele>
	<time>2025-08-03T06:11:28.000Z</time>
</trkpt>
<trkpt lat="45.9517930" lon="10.1343430">
	<ele>1155.20</ele>
	<time>2025-08-03T06:11:29.000Z</time>
</trkpt>
<trkpt lat="45.9517960" lon="10.1343310">
	<ele>1155.20</ele>
	<time>2025-08-03T06:11:30.000Z</time>
</trkpt>
<trkpt lat="45.9517950" lon="10.1343210">
	<ele>1155.40</ele>
	<time>2025-08-03T06:11:31.000Z</time>
</trkpt>
<trkpt lat="45.9517980" lon="10.1343110">
	<ele>1155.40</ele>
	<time>2025-08-03T06:11:32.000Z</time>
</trkpt>
<trkpt lat="45.9517940" lon="10.1342960">
	<ele>1155.60</ele>
	<time>2025-08-03T06:11:33.000Z</time>
</trkpt>
<trkpt lat="45.9517910" lon="10.1342800">
	<ele>1155.60</ele>
	<time>2025-08-03T06:11:34.000Z</time>
</trkpt>
<trkpt lat="45.9517880" lon="10.1342580">
	<ele>1155.80</ele>
	<time>2025-08-03T06:11:35.000Z</time>
</trkpt>
<trkpt lat="45.9517820" lon="10.1342340">
	<ele>1155.80</ele>
	<time>2025-08-03T06:11:36.000Z</time>
</trkpt>
<trkpt lat="45.9517660" lon="10.1342120">
	<ele>1155.80</ele>
	<time>2025-08-03T06:11:37.000Z</time>
</trkpt>
<trkpt lat="45.9517600" lon="10.1341970">
	<ele>1155.80</ele>
	<time>2025-08-03T06:11:38.000Z</time>
</trkpt>
<trkpt lat="45.9517600" lon="10.1341810">
	<ele>1155.80</ele>
	<time>2025-08-03T06:11:39.000Z</time>
</trkpt>
<trkpt lat="45.9517670" lon="10.1341690">
	<ele>1156.00</ele>
	<time>2025-08-03T06:11:40.000Z</time>
</trkpt>
<trkpt lat="45.9517720" lon="10.1341550">
	<ele>1156.00</ele>
	<time>2025-08-03T06:11:41.000Z</time>
</trkpt>
<trkpt lat="45.9517710" lon="10.1341380">
	<ele>1156.20</ele>
	<time>2025-08-03T06:11:42.000Z</time>
</trkpt>
<trkpt lat="45.9517720" lon="10.1341190">
	<ele>1156.20</ele>
	<time>2025-08-03T06:11:43.000Z</time>
</trkpt>
<trkpt lat="45.9517650" lon="10.1341010">
	<ele>1156.20</ele>
	<time>2025-08-03T06:11:44.000Z</time>
</trkpt>
<trkpt lat="45.9517660" lon="10.1340890">
	<ele>1156.20</ele>
	<time>2025-08-03T06:11:45.000Z</time>
</trkpt>
<trkpt lat="45.9517680" lon="10.1340820">
	<ele>1156.40</ele>
	<time>2025-08-03T06:11:46.000Z</time>
</trkpt>
<trkpt lat="45.9517540" lon="10.1340760">
	<ele>1156.40</ele>
	<time>2025-08-03T06:11:47.000Z</time>
</trkpt>
<trkpt lat="45.9517460" lon="10.1340580">
	<ele>1156.60</ele>
	<time>2025-08-03T06:11:48.000Z</time>
</trkpt>
<trkpt lat="45.9517430" lon="10.1340250">
	<ele>1156.80</ele>
	<time>2025-08-03T06:11:49.000Z</time>
</trkpt>
<trkpt lat="45.9517440" lon="10.1340190">
	<ele>1157.00</ele>
	<time>2025-08-03T06:11:50.000Z</time>
</trkpt>
<trkpt lat="45.9517330" lon="10.1339910">
	<ele>1157.00</ele>
	<time>2025-08-03T06:11:51.000Z</time>
</trkpt>
<trkpt lat="45.9517330" lon="10.1339770">
	<ele>1157.20</ele>
	<time>2025-08-03T06:11:52.000Z</time>
</trkpt>
<trkpt lat="45.9517340" lon="10.1339630">
	<ele>1157.20</ele>
	<time>2025-08-03T06:11:53.000Z</time>
</trkpt>
<trkpt lat="45.9517320" lon="10.1339500">
	<ele>1157.40</ele>
	<time>2025-08-03T06:11:54.000Z</time>
</trkpt>
<trkpt lat="45.9517270" lon="10.1339370">
	<ele>1157.60</ele>
	<time>2025-08-03T06:11:55.000Z</time>
</trkpt>
<trkpt lat="45.9517270" lon="10.1339240">
	<ele>1157.80</ele>
	<time>2025-08-03T06:11:56.000Z</time>
</trkpt>
<trkpt lat="45.9517310" lon="10.1339130">
	<ele>1157.80</ele>
	<time>2025-08-03T06:11:57.000Z</time>
</trkpt>
<trkpt lat="45.9517360" lon="10.1339050">
	<ele>1158.00</ele>
	<time>2025-08-03T06:11:58.000Z</time>
</trkpt>
<trkpt lat="45.9517370" lon="10.1338900">
	<ele>1158.00</ele>
	<time>2025-08-03T06:11:59.000Z</time>
</trkpt>
<trkpt lat="45.9517340" lon="10.1338690">
	<ele>1158.20</ele>
	<time>2025-08-03T06:12:00.000Z</time>
</trkpt>
<trkpt lat="45.9517290" lon="10.1338600">
	<ele>1158.40</ele>
	<time>2025-08-03T06:12:01.000Z</time>
</trkpt>
<trkpt lat="45.9517140" lon="10.1338360">
	<ele>1158.60</ele>
	<time>2025-08-03T06:12:02.000Z</time>
</trkpt>
<trkpt lat="45.9517020" lon="10.1338150">
	<ele>1158.80</ele>
	<time>2025-08-03T06:12:03.000Z</time>
</trkpt>
<trkpt lat="45.9517040" lon="10.1338010">
	<ele>1158.80</ele>
	<time>2025-08-03T06:12:04.000Z</time>
</trkpt>
<trkpt lat="45.9517110" lon="10.1337840">
	<ele>1158.80</ele>
	<time>2025-08-03T06:12:05.000Z</time>
</trkpt>
<trkpt lat="45.9517100" lon="10.1337690">
	<ele>1159.00</ele>
	<time>2025-08-03T06:12:06.000Z</time>
</trkpt>
<trkpt lat="45.9517050" lon="10.1337560">
	<ele>1159.00</ele>
	<time>2025-08-03T06:12:07.000Z</time>
</trkpt>
<trkpt lat="45.9516980" lon="10.1337390">
	<ele>1159.00</ele>
	<time>2025-08-03T06:12:08.000Z</time>
</trkpt>
<trkpt lat="45.9516870" lon="10.1337200">
	<ele>1159.00</ele>
	<time>2025-08-03T06:12:09.000Z</time>
</trkpt>
<trkpt lat="45.9516780" lon="10.1336980">
	<ele>1159.20</ele>
	<time>2025-08-03T06:12:10.000Z</time>
</trkpt>
<trkpt lat="45.9516670" lon="10.1336740">
	<ele>1159.40</ele>
	<time>2025-08-03T06:12:11.000Z</time>
</trkpt>
<trkpt lat="45.9516580" lon="10.1336500">
	<ele>1159.40</ele>
	<time>2025-08-03T06:12:12.000Z</time>
</trkpt>
<trkpt lat="45.9516510" lon="10.1336330">
	<ele>1159.40</ele>
	<time>2025-08-03T06:12:13.000Z</time>
</trkpt>
<trkpt lat="45.9516210" lon="10.1336300">
	<ele>1159.60</ele>
	<time>2025-08-03T06:12:14.000Z</time>
</trkpt>
<trkpt lat="45.9516080" lon="10.1335930">
	<ele>1159.60</ele>
	<time>2025-08-03T06:12:15.000Z</time>
</trkpt>
<trkpt lat="45.9516090" lon="10.1335580">
	<ele>1159.80</ele>
	<time>2025-08-03T06:12:16.000Z</time>
</trkpt>
<trkpt lat="45.9516110" lon="10.1335290">
	<ele>1160.00</ele>
	<time>2025-08-03T06:12:17.000Z</time>
</trkpt>
<trkpt lat="45.9516030" lon="10.1335210">
	<ele>1160.20</ele>
	<time>2025-08-03T06:12:18.000Z</time>
</trkpt>
<trkpt lat="45.9516010" lon="10.1335160">
	<ele>1160.20</ele>
	<time>2025-08-03T06:12:19.000Z</time>
</trkpt>
<trkpt lat="45.9515920" lon="10.1335160">
	<ele>1160.40</ele>
	<time>2025-08-03T06:12:20.000Z</time>
</trkpt>
<trkpt lat="45.9515830" lon="10.1335040">
	<ele>1160.40</ele>
	<time>2025-08-03T06:12:21.000Z</time>
</trkpt>
<trkpt lat="45.9515880" lon="10.1334860">
	<ele>1160.40</ele>
	<time>2025-08-03T06:12:22.000Z</time>
</trkpt>
<trkpt lat="45.9515920" lon="10.1334710">
	<ele>1160.60</ele>
	<time>2025-08-03T06:12:23.000Z</time>
</trkpt>
<trkpt lat="45.9515930" lon="10.1334490">
	<ele>1160.60</ele>
	<time>2025-08-03T06:12:24.000Z</time>
</trkpt>
<trkpt lat="45.9515900" lon="10.1334340">
	<ele>1160.60</ele>
	<time>2025-08-03T06:12:25.000Z</time>
</trkpt>
<trkpt lat="45.9515910" lon="10.1334220">
	<ele>1160.80</ele>
	<time>2025-08-03T06:12:26.000Z</time>
</trkpt>
<trkpt lat="45.9515990" lon="10.1334060">
	<ele>1160.80</ele>
	<time>2025-08-03T06:12:27.000Z</time>
</trkpt>
<trkpt lat="45.9515980" lon="10.1333930">
	<ele>1160.80</ele>
	<time>2025-08-03T06:12:28.000Z</time>
</trkpt>
<trkpt lat="45.9516020" lon="10.1333740">
	<ele>1161.00</ele>
	<time>2025-08-03T06:12:29.000Z</time>
</trkpt>
<trkpt lat="45.9516010" lon="10.1333570">
	<ele>1161.00</ele>
	<time>2025-08-03T06:12:30.000Z</time>
</trkpt>
<trkpt lat="45.9516060" lon="10.1333400">
	<ele>1161.00</ele>
	<time>2025-08-03T06:12:31.000Z</time>
</trkpt>
<trkpt lat="45.9516140" lon="10.1333230">
	<ele>1161.20</ele>
	<time>2025-08-03T06:12:32.000Z</time>
</trkpt>
<trkpt lat="45.9516140" lon="10.1333050">
	<ele>1161.40</ele>
	<time>2025-08-03T06:12:33.000Z</time>
</trkpt>
<trkpt lat="45.9516190" lon="10.1332850">
	<ele>1161.40</ele>
	<time>2025-08-03T06:12:34.000Z</time>
</trkpt>
<trkpt lat="45.9516310" lon="10.1332740">
	<ele>1161.40</ele>
	<time>2025-08-03T06:12:35.000Z</time>
</trkpt>
<trkpt lat="45.9516330" lon="10.1332600">
	<ele>1161.40</ele>
	<time>2025-08-03T06:12:36.000Z</time>
</trkpt>
<trkpt lat="45.9516350" lon="10.1332450">
	<ele>1161.40</ele>
	<time>2025-08-03T06:12:37.000Z</time>
</trkpt>
<trkpt lat="45.9516410" lon="10.1332300">
	<ele>1161.40</ele>
	<time>2025-08-03T06:12:38.000Z</time>
</trkpt>
<trkpt lat="45.9516420" lon="10.1332230">
	<ele>1161.40</ele>
	<time>2025-08-03T06:12:39.000Z</time>
</trkpt>
<trkpt lat="45.9516430" lon="10.1332130">
	<ele>1161.60</ele>
	<time>2025-08-03T06:12:40.000Z</time>
</trkpt>
<trkpt lat="45.9516420" lon="10.1332140">
	<ele>1161.80</ele>
	<time>2025-08-03T06:12:41.000Z</time>
</trkpt>
<trkpt lat="45.9516200" lon="10.1332010">
	<ele>1162.00</ele>
	<time>2025-08-03T06:12:42.000Z</time>
</trkpt>
<trkpt lat="45.9516150" lon="10.1331850">
	<ele>1162.20</ele>
	<time>2025-08-03T06:12:43.000Z</time>
</trkpt>
<trkpt lat="45.9516090" lon="10.1331670">
	<ele>1162.20</ele>
	<time>2025-08-03T06:12:44.000Z</time>
</trkpt>
<trkpt lat="45.9516120" lon="10.1331530">
	<ele>1162.40</ele>
	<time>2025-08-03T06:12:45.000Z</time>
</trkpt>
<trkpt lat="45.9516200" lon="10.1331410">
	<ele>1162.40</ele>
	<time>2025-08-03T06:12:46.000Z</time>
</trkpt>
<trkpt lat="45.9516250" lon="10.1331330">
	<ele>1162.60</ele>
	<time>2025-08-03T06:12:47.000Z</time>
</trkpt>
<trkpt lat="45.9516330" lon="10.1331230">
	<ele>1162.60</ele>
	<time>2025-08-03T06:12:48.000Z</time>
</trkpt>
<trkpt lat="45.9516280" lon="10.1331090">
	<ele>1162.60</ele>
	<time>2025-08-03T06:12:49.000Z</time>
</trkpt>
<trkpt lat="45.9516010" lon="10.1330880">
	<ele>1162.60</ele>
	<time>2025-08-03T06:12:50.000Z</time>
</trkpt>
<trkpt lat="45.9515940" lon="10.1330670">
	<ele>1162.60</ele>
	<time>2025-08-03T06:12:51.000Z</time>
</trkpt>
<trkpt lat="45.9516030" lon="10.1330520">
	<ele>1162.60</ele>
	<time>2025-08-03T06:12:52.000Z</time>
</trkpt>
<trkpt lat="45.9516160" lon="10.1330330">
	<ele>1162.80</ele>
	<time>2025-08-03T06:12:53.000Z</time>
</trkpt>
<trkpt lat="45.9516210" lon="10.1330140">
	<ele>1163.00</ele>
	<time>2025-08-03T06:12:54.000Z</time>
</trkpt>
<trkpt lat="45.9516180" lon="10.1329910">
	<ele>1163.00</ele>
	<time>2025-08-03T06:12:55.000Z</time>
</trkpt>
<trkpt lat="45.9516200" lon="10.1329790">
	<ele>1163.40</ele>
	<time>2025-08-03T06:12:56.000Z</time>
</trkpt>
<trkpt lat="45.9516220" lon="10.1329670">
	<ele>1163.40</ele>
	<time>2025-08-03T06:12:57.000Z</time>
</trkpt>
<trkpt lat="45.9516290" lon="10.1329510">
	<ele>1163.60</ele>
	<time>2025-08-03T06:12:58.000Z</time>
</trkpt>
<trkpt lat="45.9516390" lon="10.1329340">
	<ele>1163.80</ele>
	<time>2025-08-03T06:12:59.000Z</time>
</trkpt>
<trkpt lat="45.9516510" lon="10.1329140">
	<ele>1164.00</ele>
	<time>2025-08-03T06:13:00.000Z</time>
</trkpt>
<trkpt lat="45.9516610" lon="10.1328980">
	<ele>1164.20</ele>
	<time>2025-08-03T06:13:01.000Z</time>
</trkpt>
<trkpt lat="45.9516690" lon="10.1328830">
	<ele>1164.20</ele>
	<time>2025-08-03T06:13:02.000Z</time>
</trkpt>
<trkpt lat="45.9516770" lon="10.1328700">
	<ele>1164.40</ele>
	<time>2025-08-03T06:13:03.000Z</time>
</trkpt>
<trkpt lat="45.9516840" lon="10.1328490">
	<ele>1164.60</ele>
	<time>2025-08-03T06:13:04.000Z</time>
</trkpt>
<trkpt lat="45.9516890" lon="10.1328310">
	<ele>1164.80</ele>
	<time>2025-08-03T06:13:05.000Z</time>
</trkpt>
<trkpt lat="45.9516980" lon="10.1328210">
	<ele>1164.80</ele>
	<time>2025-08-03T06:13:06.000Z</time>
</trkpt>
<trkpt lat="45.9517070" lon="10.1328090">
	<ele>1165.00</ele>
	<time>2025-08-03T06:13:07.000Z</time>
</trkpt>
<trkpt lat="45.9517170" lon="10.1327950">
	<ele>1165.20</ele>
	<time>2025-08-03T06:13:08.000Z</time>
</trkpt>
<trkpt lat="45.9517210" lon="10.1327840">
	<ele>1165.40</ele>
	<time>2025-08-03T06:13:09.000Z</time>
</trkpt>
<trkpt lat="45.9517280" lon="10.1327740">
	<ele>1165.40</ele>
	<time>2025-08-03T06:13:10.000Z</time>
</trkpt>
<trkpt lat="45.9517390" lon="10.1327610">
	<ele>1165.60</ele>
	<time>2025-08-03T06:13:11.000Z</time>
</trkpt>
<trkpt lat="45.9517420" lon="10.1327530">
	<ele>1165.80</ele>
	<time>2025-08-03T06:13:12.000Z</time>
</trkpt>
<trkpt lat="45.9517440" lon="10.1327410">
	<ele>1165.80</ele>
	<time>2025-08-03T06:13:13.000Z</time>
</trkpt>
<trkpt lat="45.9517420" lon="10.1327210">
	<ele>1166.20</ele>
	<time>2025-08-03T06:13:14.000Z</time>
</trkpt>
<trkpt lat="45.9517370" lon="10.1327010">
	<ele>1166.40</ele>
	<time>2025-08-03T06:13:15.000Z</time>
</trkpt>
<trkpt lat="45.9517310" lon="10.1326750">
	<ele>1166.40</ele>
	<time>2025-08-03T06:13:16.000Z</time>
</trkpt>
<trkpt lat="45.9517310" lon="10.1326490">
	<ele>1166.60</ele>
	<time>2025-08-03T06:13:17.000Z</time>
</trkpt>
<trkpt lat="45.9517320" lon="10.1326270">
	<ele>1166.80</ele>
	<time>2025-08-03T06:13:18.000Z</time>
</trkpt>
<trkpt lat="45.9517310" lon="10.1326070">
	<ele>1166.80</ele>
	<time>2025-08-03T06:13:19.000Z</time>
</trkpt>
<trkpt lat="45.9517310" lon="10.1325870">
	<ele>1167.20</ele>
	<time>2025-08-03T06:13:20.000Z</time>
</trkpt>
<trkpt lat="45.9517370" lon="10.1325760">
	<ele>1167.40</ele>
	<time>2025-08-03T06:13:21.000Z</time>
</trkpt>
<trkpt lat="45.9517460" lon="10.1325730">
	<ele>1167.40</ele>
	<time>2025-08-03T06:13:22.000Z</time>
</trkpt>
<trkpt lat="45.9517470" lon="10.1325610">
	<ele>1167.60</ele>
	<time>2025-08-03T06:13:23.000Z</time>
</trkpt>
<trkpt lat="45.9517640" lon="10.1325460">
	<ele>1167.80</ele>
	<time>2025-08-03T06:13:24.000Z</time>
</trkpt>
<trkpt lat="45.9517780" lon="10.1325260">
	<ele>1168.00</ele>
	<time>2025-08-03T06:13:25.000Z</time>
</trkpt>
<trkpt lat="45.9517790" lon="10.1325100">
	<ele>1168.20</ele>
	<time>2025-08-03T06:13:26.000Z</time>
</trkpt>
<trkpt lat="45.9517710" lon="10.1325030">
	<ele>1168.40</ele>
	<time>2025-08-03T06:13:27.000Z</time>
</trkpt>
<trkpt lat="45.9517740" lon="10.1324910">
	<ele>1168.60</ele>
	<time>2025-08-03T06:13:28.000Z</time>
</trkpt>
<trkpt lat="45.9517870" lon="10.1324820">
	<ele>1168.60</ele>
	<time>2025-08-03T06:13:29.000Z</time>
</trkpt>
<trkpt lat="45.9517900" lon="10.1324650">
	<ele>1169.00</ele>
	<time>2025-08-03T06:13:30.000Z</time>
</trkpt>
<trkpt lat="45.9517850" lon="10.1324400">
	<ele>1169.20</ele>
	<time>2025-08-03T06:13:31.000Z</time>
</trkpt>
<trkpt lat="45.9517770" lon="10.1324300">
	<ele>1169.20</ele>
	<time>2025-08-03T06:13:32.000Z</time>
</trkpt>
<trkpt lat="45.9517730" lon="10.1324190">
	<ele>1169.40</ele>
	<time>2025-08-03T06:13:33.000Z</time>
</trkpt>
<trkpt lat="45.9517670" lon="10.1323980">
	<ele>1169.40</ele>
	<time>2025-08-03T06:13:34.000Z</time>
</trkpt>
<trkpt lat="45.9517670" lon="10.1323830">
	<ele>1169.80</ele>
	<time>2025-08-03T06:13:35.000Z</time>
</trkpt>
<trkpt lat="45.9517750" lon="10.1323700">
	<ele>1170.00</ele>
	<time>2025-08-03T06:13:36.000Z</time>
</trkpt>
<trkpt lat="45.9517870" lon="10.1323570">
	<ele>1170.20</ele>
	<time>2025-08-03T06:13:37.000Z</time>
</trkpt>
<trkpt lat="45.9517910" lon="10.1323430">
	<ele>1170.40</ele>
	<time>2025-08-03T06:13:38.000Z</time>
</trkpt>
<trkpt lat="45.9518100" lon="10.1323330">
	<ele>1170.60</ele>
	<time>2025-08-03T06:13:39.000Z</time>
</trkpt>
<trkpt lat="45.9518140" lon="10.1323210">
	<ele>1170.60</ele>
	<time>2025-08-03T06:13:40.000Z</time>
</trkpt>
<trkpt lat="45.9518110" lon="10.1323060">
	<ele>1170.80</ele>
	<time>2025-08-03T06:13:41.000Z</time>
</trkpt>
<trkpt lat="45.9518090" lon="10.1322940">
	<ele>1171.00</ele>
	<time>2025-08-03T06:13:42.000Z</time>
</trkpt>
<trkpt lat="45.9518170" lon="10.1322850">
	<ele>1171.20</ele>
	<time>2025-08-03T06:13:43.000Z</time>
</trkpt>
<trkpt lat="45.9518170" lon="10.1322700">
	<ele>1171.20</ele>
	<time>2025-08-03T06:13:44.000Z</time>
</trkpt>
<trkpt lat="45.9518110" lon="10.1322550">
	<ele>1171.40</ele>
	<time>2025-08-03T06:13:45.000Z</time>
</trkpt>
<trkpt lat="45.9518120" lon="10.1322410">
	<ele>1171.60</ele>
	<time>2025-08-03T06:13:46.000Z</time>
</trkpt>
<trkpt lat="45.9518140" lon="10.1322280">
	<ele>1171.80</ele>
	<time>2025-08-03T06:13:47.000Z</time>
</trkpt>
<trkpt lat="45.9518160" lon="10.1322160">
	<ele>1172.00</ele>
	<time>2025-08-03T06:13:48.000Z</time>
</trkpt>
<trkpt lat="45.9518140" lon="10.1322030">
	<ele>1172.20</ele>
	<time>2025-08-03T06:13:49.000Z</time>
</trkpt>
<trkpt lat="45.9518140" lon="10.1321920">
	<ele>1172.40</ele>
	<time>2025-08-03T06:13:50.000Z</time>
</trkpt>
<trkpt lat="45.9518150" lon="10.1321850">
	<ele>1172.60</ele>
	<time>2025-08-03T06:13:51.000Z</time>
</trkpt>
<trkpt lat="45.9518220" lon="10.1321750">
	<ele>1172.60</ele>
	<time>2025-08-03T06:13:52.000Z</time>
</trkpt>
<trkpt lat="45.9518200" lon="10.1321630">
	<ele>1173.00</ele>
	<time>2025-08-03T06:13:53.000Z</time>
</trkpt>
<trkpt lat="45.9518260" lon="10.1321560">
	<ele>1173.20</ele>
	<time>2025-08-03T06:13:54.000Z</time>
</trkpt>
<trkpt lat="45.9518300" lon="10.1321430">
	<ele>1173.20</ele>
	<time>2025-08-03T06:13:55.000Z</time>
</trkpt>
<trkpt lat="45.9518280" lon="10.1321250">
	<ele>1173.40</ele>
	<time>2025-08-03T06:13:56.000Z</time>
</trkpt>
<trkpt lat="45.9518270" lon="10.1321110">
	<ele>1173.40</ele>
	<time>2025-08-03T06:13:57.000Z</time>
</trkpt>
<trkpt lat="45.9518280" lon="10.1321140">
	<ele>1173.40</ele>
	<time>2025-08-03T06:13:58.000Z</time>
</trkpt>
<trkpt lat="45.9518280" lon="10.1321240">
	<ele>1173.60</ele>
	<time>2025-08-03T06:13:59.000Z</time>
</trkpt>
<trkpt lat="45.9518190" lon="10.1321260">
	<ele>1173.60</ele>
	<time>2025-08-03T06:14:00.000Z</time>
</trkpt>
<trkpt lat="45.9518110" lon="10.1321220">
	<ele>1173.60</ele>
	<time>2025-08-03T06:14:01.000Z</time>
</trkpt>
<trkpt lat="45.9518010" lon="10.1321170">
	<ele>1173.60</ele>
	<time>2025-08-03T06:14:02.000Z</time>
</trkpt>
<trkpt lat="45.9517590" lon="10.1320870">
	<ele>1173.60</ele>
	<time>2025-08-03T06:14:03.000Z</time>
</trkpt>
<trkpt lat="45.9517550" lon="10.1320540">
	<ele>1173.80</ele>
	<time>2025-08-03T06:14:04.000Z</time>
</trkpt>
<trkpt lat="45.9517450" lon="10.1320410">
	<ele>1173.80</ele>
	<time>2025-08-03T06:14:05.000Z</time>
</trkpt>
<trkpt lat="45.9517340" lon="10.1320340">
	<ele>1173.80</ele>
	<time>2025-08-03T06:14:06.000Z</time>
</trkpt>
<trkpt lat="45.9517310" lon="10.1320330">
	<ele>1174.00</ele>
	<time>2025-08-03T06:14:07.000Z</time>
</trkpt>
<trkpt lat="45.9517370" lon="10.1320270">
	<ele>1174.00</ele>
	<time>2025-08-03T06:14:08.000Z</time>
</trkpt>
<trkpt lat="45.9517310" lon="10.1320270">
	<ele>1174.20</ele>
	<time>2025-08-03T06:14:09.000Z</time>
</trkpt>
<trkpt lat="45.9517190" lon="10.1320240">
	<ele>1174.20</ele>
	<time>2025-08-03T06:14:10.000Z</time>
</trkpt>
<trkpt lat="45.9517200" lon="10.1320300">
	<ele>1174.40</ele>
	<time>2025-08-03T06:14:11.000Z</time>
</trkpt>
<trkpt lat="45.9517210" lon="10.1320330">
	<ele>1174.40</ele>
	<time>2025-08-03T06:14:12.000Z</time>
</trkpt>
<trkpt lat="45.9517310" lon="10.1320270">
	<ele>1174.40</ele>
	<time>2025-08-03T06:14:13.000Z</time>
</trkpt>
<trkpt lat="45.9517410" lon="10.1320270">
	<ele>1174.60</ele>
	<time>2025-08-03T06:14:14.000Z</time>
</trkpt>
<trkpt lat="45.9517460" lon="10.1320240">
	<ele>1174.60</ele>
	<time>2025-08-03T06:14:15.000Z</time>
</trkpt>
<trkpt lat="45.9517430" lon="10.1320210">
	<ele>1174.60</ele>
	<time>2025-08-03T06:14:16.000Z</time>
</trkpt>
<trkpt lat="45.9517520" lon="10.1320220">
	<ele>1174.80</ele>
	<time>2025-08-03T06:14:17.000Z</time>
</trkpt>
<trkpt lat="45.9517620" lon="10.1320300">
	<ele>1174.80</ele>
	<time>2025-08-03T06:14:18.000Z</time>
</trkpt>
<trkpt lat="45.9517810" lon="10.1320380">
	<ele>1175.00</ele>
	<time>2025-08-03T06:14:19.000Z</time>
</trkpt>
<trkpt lat="45.9517920" lon="10.1320470">
	<ele>1175.20</ele>
	<time>2025-08-03T06:14:20.000Z</time>
</trkpt>
<trkpt lat="45.9518010" lon="10.1320530">
	<ele>1175.20</ele>
	<time>2025-08-03T06:14:21.000Z</time>
</trkpt>
<trkpt lat="45.9518080" lon="10.1320640">
	<ele>1175.20</ele>
	<time>2025-08-03T06:14:22.000Z</time>
</trkpt>
<trkpt lat="45.9518120" lon="10.1320640">
	<ele>1175.20</ele>
	<time>2025-08-03T06:14:23.000Z</time>
</trkpt>
<trkpt lat="45.9518100" lon="10.1320680">
	<ele>1175.40</ele>
	<time>2025-08-03T06:14:24.000Z</time>
</trkpt>
<trkpt lat="45.9518090" lon="10.1320760">
	<ele>1175.40</ele>
	<time>2025-08-03T06:14:25.000Z</time>
</trkpt>
<trkpt lat="45.9518100" lon="10.1320740">
	<ele>1175.40</ele>
	<time>2025-08-03T06:14:26.000Z</time>
</trkpt>
<trkpt lat="45.9518110" lon="10.1320820">
	<ele>1175.40</ele>
	<time>2025-08-03T06:14:27.000Z</time>
</trkpt>
<trkpt lat="45.9518110" lon="10.1320860">
	<ele>1175.40</ele>
	<time>2025-08-03T06:14:28.000Z</time>
</trkpt>
<trkpt lat="45.9518150" lon="10.1320950">
	<ele>1175.60</ele>
	<time>2025-08-03T06:14:29.000Z</time>
</trkpt>
<trkpt lat="45.9518190" lon="10.1320980">
	<ele>1175.80</ele>
	<time>2025-08-03T06:14:30.000Z</time>
</trkpt>
<trkpt lat="45.9518220" lon="10.1321040">
	<ele>1175.80</ele>
	<time>2025-08-03T06:14:31.000Z</time>
</trkpt>
<trkpt lat="45.9518250" lon="10.1321150">
	<ele>1176.00</ele>
	<time>2025-08-03T06:14:32.000Z</time>
</trkpt>
<trkpt lat="45.9518230" lon="10.1321270">
	<ele>1176.20</ele>
	<time>2025-08-03T06:14:33.000Z</time>
</trkpt>
<trkpt lat="45.9518170" lon="10.1321430">
	<ele>1176.40</ele>
	<time>2025-08-03T06:14:34.000Z</time>
</trkpt>
<trkpt lat="45.9518130" lon="10.1321560">
	<ele>1176.80</ele>
	<time>2025-08-03T06:14:35.000Z</time>
</trkpt>
<trkpt lat="45.9518130" lon="10.1321670">
	<ele>1177.00</ele>
	<time>2025-08-03T06:14:36.000Z</time>
</trkpt>
<trkpt lat="45.9518180" lon="10.1321660">
	<ele>1177.20</ele>
	<time>2025-08-03T06:14:37.000Z</time>
</trkpt>
<trkpt lat="45.9518180" lon="10.1321800">
	<ele>1177.40</ele>
	<time>2025-08-03T06:14:38.000Z</time>
</trkpt>
<trkpt lat="45.9518190" lon="10.1321900">
	<ele>1177.60</ele>
	<time>2025-08-03T06:14:39.000Z</time>
</trkpt>
<trkpt lat="45.9518230" lon="10.1321930">
	<ele>1178.00</ele>
	<time>2025-08-03T06:14:40.000Z</time>
</trkpt>
<trkpt lat="45.9518250" lon="10.1322090">
	<ele>1178.20</ele>
	<time>2025-08-03T06:14:41.000Z</time>
</trkpt>
<trkpt lat="45.9518340" lon="10.1322230">
	<ele>1178.20</ele>
	<time>2025-08-03T06:14:42.000Z</time>
</trkpt>
<trkpt lat="45.9518400" lon="10.1322460">
	<ele>1178.60</ele>
	<time>2025-08-03T06:14:43.000Z</time>
</trkpt>
<trkpt lat="45.9518490" lon="10.1322660">
	<ele>1178.60</ele>
	<time>2025-08-03T06:14:44.000Z</time>
</trkpt>
<trkpt lat="45.9518530" lon="10.1322750">
	<ele>1179.00</ele>
	<time>2025-08-03T06:14:45.000Z</time>
</trkpt>
<trkpt lat="45.9518600" lon="10.1322810">
	<ele>1179.20</ele>
	<time>2025-08-03T06:14:46.000Z</time>
</trkpt>
<trkpt lat="45.9518680" lon="10.1322840">
	<ele>1179.20</ele>
	<time>2025-08-03T06:14:47.000Z</time>
</trkpt>
<trkpt lat="45.9518750" lon="10.1322780">
	<ele>1179.40</ele>
	<time>2025-08-03T06:14:48.000Z</time>
</trkpt>
<trkpt lat="45.9518790" lon="10.1322820">
	<ele>1179.40</ele>
	<time>2025-08-03T06:14:49.000Z</time>
</trkpt>
<trkpt lat="45.9518810" lon="10.1322920">
	<ele>1179.40</ele>
	<time>2025-08-03T06:14:50.000Z</time>
</trkpt>
<trkpt lat="45.9518820" lon="10.1323030">
	<ele>1179.60</ele>
	<time>2025-08-03T06:14:51.000Z</time>
</trkpt>
<trkpt lat="45.9518740" lon="10.1323270">
	<ele>1179.80</ele>
	<time>2025-08-03T06:14:52.000Z</time>
</trkpt>
<trkpt lat="45.9518810" lon="10.1323380">
	<ele>1180.00</ele>
	<time>2025-08-03T06:14:53.000Z</time>
</trkpt>
<trkpt lat="45.9518870" lon="10.1323500">
	<ele>1180.40</ele>
	<time>2025-08-03T06:14:54.000Z</time>
</trkpt>
<trkpt lat="45.9518990" lon="10.1323550">
	<ele>1180.80</ele>
	<time>2025-08-03T06:14:55.000Z</time>
</trkpt>
<trkpt lat="45.9519040" lon="10.1323600">
	<ele>1181.00</ele>
	<time>2025-08-03T06:14:56.000Z</time>
</trkpt>
<trkpt lat="45.9519130" lon="10.1323730">
	<ele>1181.00</ele>
	<time>2025-08-03T06:14:57.000Z</time>
</trkpt>
<trkpt lat="45.9519190" lon="10.1323950">
	<ele>1181.20</ele>
	<time>2025-08-03T06:14:58.000Z</time>
</trkpt>
<trkpt lat="45.9519200" lon="10.1324040">
	<ele>1181.40</ele>
	<time>2025-08-03T06:14:59.000Z</time>
</trkpt>
<trkpt lat="45.9519210" lon="10.1324160">
	<ele>1181.40</ele>
	<time>2025-08-03T06:15:00.000Z</time>
</trkpt>
<trkpt lat="45.9519230" lon="10.1324250">
	<ele>1181.60</ele>
	<time>2025-08-03T06:15:01.000Z</time>
</trkpt>
<trkpt lat="45.9519270" lon="10.1324390">
	<ele>1181.80</ele>
	<time>2025-08-03T06:15:02.000Z</time>
</trkpt>
<trkpt lat="45.9519370" lon="10.1324460">
	<ele>1182.20</ele>
	<time>2025-08-03T06:15:03.000Z</time>
</trkpt>
<trkpt lat="45.9519430" lon="10.1324610">
	<ele>1182.40</ele>
	<time>2025-08-03T06:15:04.000Z</time>
</trkpt>
<trkpt lat="45.9519460" lon="10.1324650">
	<ele>1182.60</ele>
	<time>2025-08-03T06:15:05.000Z</time>
</trkpt>
<trkpt lat="45.9519510" lon="10.1324600">
	<ele>1182.60</ele>
	<time>2025-08-03T06:15:06.000Z</time>
</trkpt>
<trkpt lat="45.9519470" lon="10.1324760">
	<ele>1182.80</ele>
	<time>2025-08-03T06:15:07.000Z</time>
</trkpt>
<trkpt lat="45.9519480" lon="10.1324950">
	<ele>1183.00</ele>
	<time>2025-08-03T06:15:08.000Z</time>
</trkpt>
<trkpt lat="45.9519530" lon="10.1325060">
	<ele>1183.20</ele>
	<time>2025-08-03T06:15:09.000Z</time>
</trkpt>
<trkpt lat="45.9519550" lon="10.1325180">
	<ele>1183.40</ele>
	<time>2025-08-03T06:15:10.000Z</time>
</trkpt>
<trkpt lat="45.9519600" lon="10.1325280">
	<ele>1183.60</ele>
	<time>2025-08-03T06:15:11.000Z</time>
</trkpt>
<trkpt lat="45.9519670" lon="10.1325320">
	<ele>1183.80</ele>
	<time>2025-08-03T06:15:12.000Z</time>
</trkpt>
<trkpt lat="45.9519750" lon="10.1325380">
	<ele>1184.00</ele>
	<time>2025-08-03T06:15:13.000Z</time>
</trkpt>
<trkpt lat="45.9519890" lon="10.1325320">
	<ele>1184.20</ele>
	<time>2025-08-03T06:15:14.000Z</time>
</trkpt>
<trkpt lat="45.9519940" lon="10.1325360">
	<ele>1184.40</ele>
	<time>2025-08-03T06:15:15.000Z</time>
</trkpt>
<trkpt lat="45.9520010" lon="10.1325340">
	<ele>1184.60</ele>
	<time>2025-08-03T06:15:16.000Z</time>
</trkpt>
<trkpt lat="45.9520040" lon="10.1325410">
	<ele>1184.80</ele>
	<time>2025-08-03T06:15:17.000Z</time>
</trkpt>
<trkpt lat="45.9520090" lon="10.1325490">
	<ele>1185.00</ele>
	<time>2025-08-03T06:15:18.000Z</time>
</trkpt>
<trkpt lat="45.9520100" lon="10.1325620">
	<ele>1185.20</ele>
	<time>2025-08-03T06:15:19.000Z</time>
</trkpt>
<trkpt lat="45.9520100" lon="10.1325750">
	<ele>1185.40</ele>
	<time>2025-08-03T06:15:20.000Z</time>
</trkpt>
<trkpt lat="45.9520160" lon="10.1325930">
	<ele>1185.60</ele>
	<time>2025-08-03T06:15:21.000Z</time>
</trkpt>
<trkpt lat="45.9520200" lon="10.1326010">
	<ele>1185.60</ele>
	<time>2025-08-03T06:15:22.000Z</time>
</trkpt>
<trkpt lat="45.9520270" lon="10.1326080">
	<ele>1185.80</ele>
	<time>2025-08-03T06:15:23.000Z</time>
</trkpt>
<trkpt lat="45.9520270" lon="10.1326100">
	<ele>1186.00</ele>
	<time>2025-08-03T06:15:24.000Z</time>
</trkpt>
<trkpt lat="45.9520280" lon="10.1326120">
	<ele>1186.20</ele>
	<time>2025-08-03T06:15:25.000Z</time>
</trkpt>
<trkpt lat="45.9520320" lon="10.1326160">
	<ele>1186.60</ele>
	<time>2025-08-03T06:15:26.000Z</time>
</trkpt>
<trkpt lat="45.9520330" lon="10.1326280">
	<ele>1186.60</ele>
	<time>2025-08-03T06:15:27.000Z</time>
</trkpt>
<trkpt lat="45.9520310" lon="10.1326510">
	<ele>1187.00</ele>
	<time>2025-08-03T06:15:28.000Z</time>
</trkpt>
<trkpt lat="45.9520230" lon="10.1326800">
	<ele>1187.00</ele>
	<time>2025-08-03T06:15:29.000Z</time>
</trkpt>
<trkpt lat="45.9520280" lon="10.1327010">
	<ele>1187.40</ele>
	<time>2025-08-03T06:15:30.000Z</time>
</trkpt>
<trkpt lat="45.9520330" lon="10.1327100">
	<ele>1187.60</ele>
	<time>2025-08-03T06:15:31.000Z</time>
</trkpt>
<trkpt lat="45.9520420" lon="10.1327190">
	<ele>1187.80</ele>
	<time>2025-08-03T06:15:32.000Z</time>
</trkpt>
<trkpt lat="45.9520490" lon="10.1327290">
	<ele>1188.00</ele>
	<time>2025-08-03T06:15:33.000Z</time>
</trkpt>
<trkpt lat="45.9520550" lon="10.1327370">
	<ele>1188.40</ele>
	<time>2025-08-03T06:15:34.000Z</time>
</trkpt>
<trkpt lat="45.9520650" lon="10.1327440">
	<ele>1188.60</ele>
	<time>2025-08-03T06:15:35.000Z</time>
</trkpt>
<trkpt lat="45.9520700" lon="10.1327530">
	<ele>1188.80</ele>
	<time>2025-08-03T06:15:36.000Z</time>
</trkpt>
<trkpt lat="45.9520750" lon="10.1327630">
	<ele>1189.00</ele>
	<time>2025-08-03T06:15:37.000Z</time>
</trkpt>
<trkpt lat="45.9520760" lon="10.1327820">
	<ele>1189.20</ele>
	<time>2025-08-03T06:15:38.000Z</time>
</trkpt>
<trkpt lat="45.9520860" lon="10.1327870">
	<ele>1189.40</ele>
	<time>2025-08-03T06:15:39.000Z</time>
</trkpt>
<trkpt lat="45.9520890" lon="10.1327930">
	<ele>1189.80</ele>
	<time>2025-08-03T06:15:40.000Z</time>
</trkpt>
<trkpt lat="45.9520950" lon="10.1327910">
	<ele>1190.00</ele>
	<time>2025-08-03T06:15:41.000Z</time>
</trkpt>
<trkpt lat="45.9521030" lon="10.1327920">
	<ele>1190.20</ele>
	<time>2025-08-03T06:15:42.000Z</time>
</trkpt>
<trkpt lat="45.9521100" lon="10.1327980">
	<ele>1190.20</ele>
	<time>2025-08-03T06:15:43.000Z</time>
</trkpt>
<trkpt lat="45.9521160" lon="10.1327980">
	<ele>1190.40</ele>
	<time>2025-08-03T06:15:44.000Z</time>
</trkpt>
<trkpt lat="45.9521200" lon="10.1328060">
	<ele>1190.80</ele>
	<time>2025-08-03T06:15:45.000Z</time>
</trkpt>
<trkpt lat="45.9521170" lon="10.1328150">
	<ele>1191.00</ele>
	<time>2025-08-03T06:15:46.000Z</time>
</trkpt>
<trkpt lat="45.9521110" lon="10.1328210">
	<ele>1191.20</ele>
	<time>2025-08-03T06:15:47.000Z</time>
</trkpt>
<trkpt lat="45.9521020" lon="10.1328430">
	<ele>1191.40</ele>
	<time>2025-08-03T06:15:48.000Z</time>
</trkpt>
<trkpt lat="45.9520990" lon="10.1328680">
	<ele>1191.60</ele>
	<time>2025-08-03T06:15:49.000Z</time>
</trkpt>
<trkpt lat="45.9521060" lon="10.1328790">
	<ele>1191.60</ele>
	<time>2025-08-03T06:15:50.000Z</time>
</trkpt>
<trkpt lat="45.9521080" lon="10.1328810">
	<ele>1192.00</ele>
	<time>2025-08-03T06:15:51.000Z</time>
</trkpt>
<trkpt lat="45.9521200" lon="10.1328790">
	<ele>1192.20</ele>
	<time>2025-08-03T06:15:52.000Z</time>
</trkpt>
<trkpt lat="45.9521360" lon="10.1328790">
	<ele>1192.20</ele>
	<time>2025-08-03T06:15:53.000Z</time>
</trkpt>
<trkpt lat="45.9521570" lon="10.1328720">
	<ele>1192.40</ele>
	<time>2025-08-03T06:15:54.000Z</time>
</trkpt>
<trkpt lat="45.9521760" lon="10.1328660">
	<ele>1192.40</ele>
	<time>2025-08-03T06:15:55.000Z</time>
</trkpt>
<trkpt lat="45.9521910" lon="10.1328680">
	<ele>1192.60</ele>
	<time>2025-08-03T06:15:56.000Z</time>
</trkpt>
<trkpt lat="45.9522060" lon="10.1328720">
	<ele>1192.60</ele>
	<time>2025-08-03T06:15:57.000Z</time>
</trkpt>
<trkpt lat="45.9522210" lon="10.1328800">
	<ele>1192.60</ele>
	<time>2025-08-03T06:15:58.000Z</time>
</trkpt>
<trkpt lat="45.9522270" lon="10.1328800">
	<ele>1192.60</ele>
	<time>2025-08-03T06:15:59.000Z</time>
</trkpt>
<trkpt lat="45.9522300" lon="10.1328800">
	<ele>1192.60</ele>
	<time>2025-08-03T06:16:00.000Z</time>
</trkpt>
<trkpt lat="45.9522330" lon="10.1328810">
	<ele>1192.60</ele>
	<time>2025-08-03T06:16:01.000Z</time>
</trkpt>
<trkpt lat="45.9522390" lon="10.1328940">
	<ele>1192.80</ele>
	<time>2025-08-03T06:16:02.000Z</time>
</trkpt>
<trkpt lat="45.9522450" lon="10.1329020">
	<ele>1193.00</ele>
	<time>2025-08-03T06:16:03.000Z</time>
</trkpt>
<trkpt lat="45.9522490" lon="10.1329160">
	<ele>1193.00</ele>
	<time>2025-08-03T06:16:04.000Z</time>
</trkpt>
<trkpt lat="45.9522540" lon="10.1329180">
	<ele>1193.20</ele>
	<time>2025-08-03T06:16:05.000Z</time>
</trkpt>
<trkpt lat="45.9522650" lon="10.1329280">
	<ele>1193.20</ele>
	<time>2025-08-03T06:16:06.000Z</time>
</trkpt>
<trkpt lat="45.9522680" lon="10.1329340">
	<ele>1193.20</ele>
	<time>2025-08-03T06:16:07.000Z</time>
</trkpt>
<trkpt lat="45.9522840" lon="10.1329320">
	<ele>1193.40</ele>
	<time>2025-08-03T06:16:08.000Z</time>
</trkpt>
<trkpt lat="45.9522840" lon="10.1329340">
	<ele>1193.40</ele>
	<time>2025-08-03T06:16:09.000Z</time>
</trkpt>
<trkpt lat="45.9523110" lon="10.1329130">
	<ele>1193.60</ele>
	<time>2025-08-03T06:16:10.000Z</time>
</trkpt>
<trkpt lat="45.9523450" lon="10.1328920">
	<ele>1193.60</ele>
	<time>2025-08-03T06:16:11.000Z</time>
</trkpt>
<trkpt lat="45.9523470" lon="10.1328920">
	<ele>1193.80</ele>
	<time>2025-08-03T06:16:12.000Z</time>
</trkpt>
<trkpt lat="45.9523570" lon="10.1328930">
	<ele>1194.00</ele>
	<time>2025-08-03T06:16:13.000Z</time>
</trkpt>
<trkpt lat="45.9523720" lon="10.1328990">
	<ele>1194.20</ele>
	<time>2025-08-03T06:16:14.000Z</time>
</trkpt>
<trkpt lat="45.9523730" lon="10.1329100">
	<ele>1194.60</ele>
	<time>2025-08-03T06:16:15.000Z</time>
</trkpt>
<trkpt lat="45.9523660" lon="10.1329170">
	<ele>1194.60</ele>
	<time>2025-08-03T06:16:16.000Z</time>
</trkpt>
<trkpt lat="45.9523800" lon="10.1329130">
	<ele>1194.80</ele>
	<time>2025-08-03T06:16:17.000Z</time>
</trkpt>
<trkpt lat="45.9523780" lon="10.1329170">
	<ele>1194.80</ele>
	<time>2025-08-03T06:16:18.000Z</time>
</trkpt>
<trkpt lat="45.9523850" lon="10.1329220">
	<ele>1195.20</ele>
	<time>2025-08-03T06:16:19.000Z</time>
</trkpt>
<trkpt lat="45.9523950" lon="10.1329170">
	<ele>1195.20</ele>
	<time>2025-08-03T06:16:20.000Z</time>
</trkpt>
<trkpt lat="45.9524100" lon="10.1329070">
	<ele>1195.60</ele>
	<time>2025-08-03T06:16:21.000Z</time>
</trkpt>
<trkpt lat="45.9524150" lon="10.1328950">
	<ele>1196.00</ele>
	<time>2025-08-03T06:16:22.000Z</time>
</trkpt>
<trkpt lat="45.9524160" lon="10.1328870">
	<ele>1196.00</ele>
	<time>2025-08-03T06:16:23.000Z</time>
</trkpt>
<trkpt lat="45.9524160" lon="10.1328810">
	<ele>1196.20</ele>
	<time>2025-08-03T06:16:24.000Z</time>
</trkpt>
<trkpt lat="45.9524240" lon="10.1328760">
	<ele>1196.40</ele>
	<time>2025-08-03T06:16:25.000Z</time>
</trkpt>
<trkpt lat="45.9524300" lon="10.1328700">
	<ele>1196.60</ele>
	<time>2025-08-03T06:16:26.000Z</time>
</trkpt>
<trkpt lat="45.9524360" lon="10.1328650">
	<ele>1196.80</ele>
	<time>2025-08-03T06:16:27.000Z</time>
</trkpt>
<trkpt lat="45.9524460" lon="10.1328640">
	<ele>1197.00</ele>
	<time>2025-08-03T06:16:28.000Z</time>
</trkpt>
<trkpt lat="45.9524580" lon="10.1328630">
	<ele>1197.20</ele>
	<time>2025-08-03T06:16:29.000Z</time>
</trkpt>
<trkpt lat="45.9524690" lon="10.1328590">
	<ele>1197.40</ele>
	<time>2025-08-03T06:16:30.000Z</time>
</trkpt>
<trkpt lat="45.9524800" lon="10.1328550">
	<ele>1197.60</ele>
	<time>2025-08-03T06:16:31.000Z</time>
</trkpt>
<trkpt lat="45.9524920" lon="10.1328490">
	<ele>1197.60</ele>
	<time>2025-08-03T06:16:32.000Z</time>
</trkpt>
<trkpt lat="45.9524980" lon="10.1328430">
	<ele>1197.80</ele>
	<time>2025-08-03T06:16:33.000Z</time>
</trkpt>
<trkpt lat="45.9525050" lon="10.1328350">
	<ele>1198.00</ele>
	<time>2025-08-03T06:16:34.000Z</time>
</trkpt>
<trkpt lat="45.9525080" lon="10.1328310">
	<ele>1198.20</ele>
	<time>2025-08-03T06:16:35.000Z</time>
</trkpt>
<trkpt lat="45.9525130" lon="10.1328300">
	<ele>1198.40</ele>
	<time>2025-08-03T06:16:36.000Z</time>
</trkpt>
<trkpt lat="45.9525160" lon="10.1328290">
	<ele>1198.60</ele>
	<time>2025-08-03T06:16:37.000Z</time>
</trkpt>
<trkpt lat="45.9525210" lon="10.1328270">
	<ele>1198.60</ele>
	<time>2025-08-03T06:16:38.000Z</time>
</trkpt>
<trkpt lat="45.9525310" lon="10.1328230">
	<ele>1198.80</ele>
	<time>2025-08-03T06:16:39.000Z</time>
</trkpt>
<trkpt lat="45.9525390" lon="10.1328180">
	<ele>1198.80</ele>
	<time>2025-08-03T06:16:40.000Z</time>
</trkpt>
<trkpt lat="45.9525430" lon="10.1328110">
	<ele>1199.00</ele>
	<time>2025-08-03T06:16:41.000Z</time>
</trkpt>
<trkpt lat="45.9525470" lon="10.1328090">
	<ele>1199.20</ele>
	<time>2025-08-03T06:16:42.000Z</time>
</trkpt>
<trkpt lat="45.9525550" lon="10.1328070">
	<ele>1199.20</ele>
	<time>2025-08-03T06:16:43.000Z</time>
</trkpt>
<trkpt lat="45.9525640" lon="10.1328030">
	<ele>1199.40</ele>
	<time>2025-08-03T06:16:44.000Z</time>
</trkpt>
<trkpt lat="45.9525780" lon="10.1327890">
	<ele>1199.60</ele>
	<time>2025-08-03T06:16:45.000Z</time>
</trkpt>
<trkpt lat="45.9525940" lon="10.1327660">
	<ele>1199.60</ele>
	<time>2025-08-03T06:16:46.000Z</time>
</trkpt>
<trkpt lat="45.9526180" lon="10.1327470">
	<ele>1199.60</ele>
	<time>2025-08-03T06:16:47.000Z</time>
</trkpt>
<trkpt lat="45.9526380" lon="10.1327360">
	<ele>1199.80</ele>
	<time>2025-08-03T06:16:48.000Z</time>
</trkpt>
<trkpt lat="45.9526490" lon="10.1327300">
	<ele>1200.00</ele>
	<time>2025-08-03T06:16:49.000Z</time>
</trkpt>
<trkpt lat="45.9526580" lon="10.1327240">
	<ele>1200.00</ele>
	<time>2025-08-03T06:16:50.000Z</time>
</trkpt>
<trkpt lat="45.9526750" lon="10.1327080">
	<ele>1200.40</ele>
	<time>2025-08-03T06:16:51.000Z</time>
</trkpt>
<trkpt lat="45.9526800" lon="10.1326930">
	<ele>1200.40</ele>
	<time>2025-08-03T06:16:52.000Z</time>
</trkpt>
<trkpt lat="45.9526830" lon="10.1326770">
	<ele>1200.80</ele>
	<time>2025-08-03T06:16:53.000Z</time>
</trkpt>
<trkpt lat="45.9526930" lon="10.1326590">
	<ele>1200.80</ele>
	<time>2025-08-03T06:16:54.000Z</time>
</trkpt>
<trkpt lat="45.9527030" lon="10.1326430">
	<ele>1201.00</ele>
	<time>2025-08-03T06:16:55.000Z</time>
</trkpt>
<trkpt lat="45.9527060" lon="10.1326350">
	<ele>1201.00</ele>
	<time>2025-08-03T06:16:56.000Z</time>
</trkpt>
<trkpt lat="45.9527080" lon="10.1326290">
	<ele>1201.20</ele>
	<time>2025-08-03T06:16:57.000Z</time>
</trkpt>
<trkpt lat="45.9527150" lon="10.1326130">
	<ele>1201.40</ele>
	<time>2025-08-03T06:16:58.000Z</time>
</trkpt>
<trkpt lat="45.9527270" lon="10.1326060">
	<ele>1201.60</ele>
	<time>2025-08-03T06:16:59.000Z</time>
</trkpt>
<trkpt lat="45.9527290" lon="10.1326000">
	<ele>1201.60</ele>
	<time>2025-08-03T06:17:00.000Z</time>
</trkpt>
<trkpt lat="45.9527300" lon="10.1325960">
	<ele>1201.80</ele>
	<time>2025-08-03T06:17:01.000Z</time>
</trkpt>
<trkpt lat="45.9527250" lon="10.1325850">
	<ele>1201.80</ele>
	<time>2025-08-03T06:17:02.000Z</time>
</trkpt>
<trkpt lat="45.9527190" lon="10.1325640">
	<ele>1202.00</ele>
	<time>2025-08-03T06:17:03.000Z</time>
</trkpt>
<trkpt lat="45.9527260" lon="10.1325190">
	<ele>1202.40</ele>
	<time>2025-08-03T06:17:04.000Z</time>
</trkpt>
<trkpt lat="45.9527350" lon="10.1324760">
	<ele>1202.40</ele>
	<time>2025-08-03T06:17:05.000Z</time>
</trkpt>
<trkpt lat="45.9527350" lon="10.1324530">
	<ele>1202.60</ele>
	<time>2025-08-03T06:17:06.000Z</time>
</trkpt>
<trkpt lat="45.9527470" lon="10.1324260">
	<ele>1202.80</ele>
	<time>2025-08-03T06:17:07.000Z</time>
</trkpt>
<trkpt lat="45.9527470" lon="10.1324190">
	<ele>1203.00</ele>
	<time>2025-08-03T06:17:08.000Z</time>
</trkpt>
<trkpt lat="45.9527410" lon="10.1324160">
	<ele>1203.20</ele>
	<time>2025-08-03T06:17:09.000Z</time>
</trkpt>
<trkpt lat="45.9527390" lon="10.1324080">
	<ele>1203.40</ele>
	<time>2025-08-03T06:17:10.000Z</time>
</trkpt>
<trkpt lat="45.9527380" lon="10.1323960">
	<ele>1203.60</ele>
	<time>2025-08-03T06:17:11.000Z</time>
</trkpt>
<trkpt lat="45.9527400" lon="10.1323910">
	<ele>1203.80</ele>
	<time>2025-08-03T06:17:12.000Z</time>
</trkpt>
<trkpt lat="45.9527370" lon="10.1323810">
	<ele>1204.00</ele>
	<time>2025-08-03T06:17:13.000Z</time>
</trkpt>
<trkpt lat="45.9527380" lon="10.1323720">
	<ele>1204.20</ele>
	<time>2025-08-03T06:17:14.000Z</time>
</trkpt>
<trkpt lat="45.9527440" lon="10.1323630">
	<ele>1204.40</ele>
	<time>2025-08-03T06:17:15.000Z</time>
</trkpt>
<trkpt lat="45.9527520" lon="10.1323540">
	<ele>1204.60</ele>
	<time>2025-08-03T06:17:16.000Z</time>
</trkpt>
<trkpt lat="45.9527530" lon="10.1323410">
	<ele>1204.80</ele>
	<time>2025-08-03T06:17:17.000Z</time>
</trkpt>
<trkpt lat="45.9527430" lon="10.1323220">
	<ele>1205.00</ele>
	<time>2025-08-03T06:17:18.000Z</time>
</trkpt>
<trkpt lat="45.9527380" lon="10.1323020">
	<ele>1205.00</ele>
	<time>2025-08-03T06:17:19.000Z</time>
</trkpt>
<trkpt lat="45.9527300" lon="10.1322880">
	<ele>1205.20</ele>
	<time>2025-08-03T06:17:20.000Z</time>
</trkpt>
<trkpt lat="45.9527220" lon="10.1322820">
	<ele>1205.20</ele>
	<time>2025-08-03T06:17:21.000Z</time>
</trkpt>
<trkpt lat="45.9527220" lon="10.1322780">
	<ele>1205.40</ele>
	<time>2025-08-03T06:17:22.000Z</time>
</trkpt>
<trkpt lat="45.9527270" lon="10.1322770">
	<ele>1205.40</ele>
	<time>2025-08-03T06:17:23.000Z</time>
</trkpt>
<trkpt lat="45.9527300" lon="10.1322720">
	<ele>1205.60</ele>
	<time>2025-08-03T06:17:24.000Z</time>
</trkpt>
<trkpt lat="45.9527260" lon="10.1322650">
	<ele>1205.80</ele>
	<time>2025-08-03T06:17:25.000Z</time>
</trkpt>
<trkpt lat="45.9527240" lon="10.1322540">
	<ele>1206.00</ele>
	<time>2025-08-03T06:17:26.000Z</time>
</trkpt>
<trkpt lat="45.9527230" lon="10.1322480">
	<ele>1206.20</ele>
	<time>2025-08-03T06:17:27.000Z</time>
</trkpt>
<trkpt lat="45.9527210" lon="10.1322420">
	<ele>1206.40</ele>
	<time>2025-08-03T06:17:28.000Z</time>
</trkpt>
<trkpt lat="45.9527220" lon="10.1322360">
	<ele>1206.40</ele>
	<time>2025-08-03T06:17:29.000Z</time>
</trkpt>
<trkpt lat="45.9527180" lon="10.1322420">
	<ele>1206.60</ele>
	<time>2025-08-03T06:17:30.000Z</time>
</trkpt>
<trkpt lat="45.9527140" lon="10.1322340">
	<ele>1206.80</ele>
	<time>2025-08-03T06:17:31.000Z</time>
</trkpt>
<trkpt lat="45.9527090" lon="10.1322290">
	<ele>1207.00</ele>
	<time>2025-08-03T06:17:32.000Z</time>
</trkpt>
<trkpt lat="45.9527060" lon="10.1322100">
	<ele>1207.20</ele>
	<time>2025-08-03T06:17:33.000Z</time>
</trkpt>
<trkpt lat="45.9527060" lon="10.1322020">
	<ele>1207.60</ele>
	<time>2025-08-03T06:17:34.000Z</time>
</trkpt>
<trkpt lat="45.9526980" lon="10.1321860">
	<ele>1207.80</ele>
	<time>2025-08-03T06:17:35.000Z</time>
</trkpt>
<trkpt lat="45.9526860" lon="10.1321730">
	<ele>1208.00</ele>
	<time>2025-08-03T06:17:36.000Z</time>
</trkpt>
<trkpt lat="45.9526760" lon="10.1321630">
	<ele>1208.20</ele>
	<time>2025-08-03T06:17:37.000Z</time>
</trkpt>
<trkpt lat="45.9526650" lon="10.1321580">
	<ele>1208.40</ele>
	<time>2025-08-03T06:17:38.000Z</time>
</trkpt>
<trkpt lat="45.9526600" lon="10.1321410">
	<ele>1208.60</ele>
	<time>2025-08-03T06:17:39.000Z</time>
</trkpt>
<trkpt lat="45.9526510" lon="10.1321310">
	<ele>1208.80</ele>
	<time>2025-08-03T06:17:40.000Z</time>
</trkpt>
<trkpt lat="45.9526430" lon="10.1321220">
	<ele>1209.00</ele>
	<time>2025-08-03T06:17:41.000Z</time>
</trkpt>
<trkpt lat="45.9526380" lon="10.1321180">
	<ele>1209.20</ele>
	<time>2025-08-03T06:17:42.000Z</time>
</trkpt>
<trkpt lat="45.9526300" lon="10.1321150">
	<ele>1209.20</ele>
	<time>2025-08-03T06:17:43.000Z</time>
</trkpt>
<trkpt lat="45.9526240" lon="10.1320990">
	<ele>1209.60</ele>
	<time>2025-08-03T06:17:44.000Z</time>
</trkpt>
<trkpt lat="45.9526220" lon="10.1320840">
	<ele>1209.80</ele>
	<time>2025-08-03T06:17:45.000Z</time>
</trkpt>
<trkpt lat="45.9526190" lon="10.1320700">
	<ele>1210.00</ele>
	<time>2025-08-03T06:17:46.000Z</time>
</trkpt>
<trkpt lat="45.9526320" lon="10.1320550">
	<ele>1210.20</ele>
	<time>2025-08-03T06:17:47.000Z</time>
</trkpt>
<trkpt lat="45.9526320" lon="10.1320440">
	<ele>1210.20</ele>
	<time>2025-08-03T06:17:48.000Z</time>
</trkpt>
<trkpt lat="45.9526220" lon="10.1320320">
	<ele>1210.40</ele>
	<time>2025-08-03T06:17:49.000Z</time>
</trkpt>
<trkpt lat="45.9526150" lon="10.1320250">
	<ele>1210.60</ele>
	<time>2025-08-03T06:17:50.000Z</time>
</trkpt>
<trkpt lat="45.9526050" lon="10.1320180">
	<ele>1210.80</ele>
	<time>2025-08-03T06:17:51.000Z</time>
</trkpt>
<trkpt lat="45.9526130" lon="10.1319870">
	<ele>1210.80</ele>
	<time>2025-08-03T06:17:52.000Z</time>
</trkpt>
<trkpt lat="45.9526260" lon="10.1319570">
	<ele>1211.00</ele>
	<time>2025-08-03T06:17:53.000Z</time>
</trkpt>
<trkpt lat="45.9526320" lon="10.1319290">
	<ele>1211.40</ele>
	<time>2025-08-03T06:17:54.000Z</time>
</trkpt>
<trkpt lat="45.9526370" lon="10.1319090">
	<ele>1211.60</ele>
	<time>2025-08-03T06:17:55.000Z</time>
</trkpt>
<trkpt lat="45.9526280" lon="10.1318910">
	<ele>1211.80</ele>
	<time>2025-08-03T06:17:56.000Z</time>
</trkpt>
<trkpt lat="45.9526110" lon="10.1318800">
	<ele>1212.20</ele>
	<time>2025-08-03T06:17:57.000Z</time>
</trkpt>
<trkpt lat="45.9525850" lon="10.1318820">
	<ele>1212.40</ele>
	<time>2025-08-03T06:17:58.000Z</time>
</trkpt>
<trkpt lat="45.9525680" lon="10.1318730">
	<ele>1212.60</ele>
	<time>2025-08-03T06:17:59.000Z</time>
</trkpt>
<trkpt lat="45.9525640" lon="10.1318660">
	<ele>1212.60</ele>
	<time>2025-08-03T06:18:00.000Z</time>
</trkpt>
<trkpt lat="45.9525690" lon="10.1318560">
	<ele>1212.80</ele>
	<time>2025-08-03T06:18:01.000Z</time>
</trkpt>
<trkpt lat="45.9525590" lon="10.1318500">
	<ele>1213.00</ele>
	<time>2025-08-03T06:18:02.000Z</time>
</trkpt>
<trkpt lat="45.9525560" lon="10.1318500">
	<ele>1213.20</ele>
	<time>2025-08-03T06:18:03.000Z</time>
</trkpt>
<trkpt lat="45.9525560" lon="10.1318450">
	<ele>1213.60</ele>
	<time>2025-08-03T06:18:04.000Z</time>
</trkpt>
<trkpt lat="45.9525520" lon="10.1318420">
	<ele>1213.80</ele>
	<time>2025-08-03T06:18:05.000Z</time>
</trkpt>
<trkpt lat="45.9525490" lon="10.1318410">
	<ele>1214.20</ele>
	<time>2025-08-03T06:18:06.000Z</time>
</trkpt>
<trkpt lat="45.9525460" lon="10.1318320">
	<ele>1214.40</ele>
	<time>2025-08-03T06:18:07.000Z</time>
</trkpt>
<trkpt lat="45.9525400" lon="10.1318320">
	<ele>1214.60</ele>
	<time>2025-08-03T06:18:08.000Z</time>
</trkpt>
<trkpt lat="45.9525330" lon="10.1318230">
	<ele>1214.60</ele>
	<time>2025-08-03T06:18:09.000Z</time>
</trkpt>
<trkpt lat="45.9525210" lon="10.1318170">
	<ele>1214.60</ele>
	<time>2025-08-03T06:18:10.000Z</time>
</trkpt>
<trkpt lat="45.9525170" lon="10.1318150">
	<ele>1214.60</ele>
	<time>2025-08-03T06:18:11.000Z</time>
</trkpt>
<trkpt lat="45.9525170" lon="10.1318130">
	<ele>1214.80</ele>
	<time>2025-08-03T06:18:12.000Z</time>
</trkpt>
<trkpt lat="45.9525070" lon="10.1318060">
	<ele>1215.00</ele>
	<time>2025-08-03T06:18:13.000Z</time>
</trkpt>
<trkpt lat="45.9525020" lon="10.1318050">
	<ele>1215.40</ele>
	<time>2025-08-03T06:18:14.000Z</time>
</trkpt>
<trkpt lat="45.9525000" lon="10.1318030">
	<ele>1215.60</ele>
	<time>2025-08-03T06:18:15.000Z</time>
</trkpt>
<trkpt lat="45.9525040" lon="10.1317950">
	<ele>1215.80</ele>
	<time>2025-08-03T06:18:16.000Z</time>
</trkpt>
<trkpt lat="45.9525060" lon="10.1317900">
	<ele>1216.00</ele>
	<time>2025-08-03T06:18:17.000Z</time>
</trkpt>
<trkpt lat="45.9525080" lon="10.1317970">
	<ele>1216.00</ele>
	<time>2025-08-03T06:18:18.000Z</time>
</trkpt>
<trkpt lat="45.9525060" lon="10.1317950">
	<ele>1216.40</ele>
	<time>2025-08-03T06:18:19.000Z</time>
</trkpt>
<trkpt lat="45.9525050" lon="10.1317910">
	<ele>1216.40</ele>
	<time>2025-08-03T06:18:20.000Z</time>
</trkpt>
<trkpt lat="45.9525020" lon="10.1317870">
	<ele>1216.80</ele>
	<time>2025-08-03T06:18:21.000Z</time>
</trkpt>
<trkpt lat="45.9524970" lon="10.1317800">
	<ele>1216.80</ele>
	<time>2025-08-03T06:18:22.000Z</time>
</trkpt>
<trkpt lat="45.9524880" lon="10.1317740">
	<ele>1217.00</ele>
	<time>2025-08-03T06:18:23.000Z</time>
</trkpt>
<trkpt lat="45.9524840" lon="10.1317630">
	<ele>1217.40</ele>
	<time>2025-08-03T06:18:24.000Z</time>
</trkpt>
<trkpt lat="45.9524810" lon="10.1317550">
	<ele>1217.60</ele>
	<time>2025-08-03T06:18:25.000Z</time>
</trkpt>
<trkpt lat="45.9524780" lon="10.1317460">
	<ele>1217.80</ele>
	<time>2025-08-03T06:18:26.000Z</time>
</trkpt>
<trkpt lat="45.9524760" lon="10.1317410">
	<ele>1218.00</ele>
	<time>2025-08-03T06:18:27.000Z</time>
</trkpt>
<trkpt lat="45.9524740" lon="10.1317360">
	<ele>1218.20</ele>
	<time>2025-08-03T06:18:28.000Z</time>
</trkpt>
<trkpt lat="45.9524750" lon="10.1317310">
	<ele>1218.40</ele>
	<time>2025-08-03T06:18:29.000Z</time>
</trkpt>
<trkpt lat="45.9524750" lon="10.1317290">
	<ele>1218.60</ele>
	<time>2025-08-03T06:18:30.000Z</time>
</trkpt>
<trkpt lat="45.9524670" lon="10.1317250">
	<ele>1218.80</ele>
	<time>2025-08-03T06:18:31.000Z</time>
</trkpt>
<trkpt lat="45.9524590" lon="10.1317250">
	<ele>1219.20</ele>
	<time>2025-08-03T06:18:32.000Z</time>
</trkpt>
<trkpt lat="45.9524580" lon="10.1317170">
	<ele>1219.40</ele>
	<time>2025-08-03T06:18:33.000Z</time>
</trkpt>
<trkpt lat="45.9524540" lon="10.1317020">
	<ele>1219.60</ele>
	<time>2025-08-03T06:18:34.000Z</time>
</trkpt>
<trkpt lat="45.9524530" lon="10.1316900">
	<ele>1219.80</ele>
	<time>2025-08-03T06:18:35.000Z</time>
</trkpt>
<trkpt lat="45.9524510" lon="10.1316860">
	<ele>1220.00</ele>
	<time>2025-08-03T06:18:36.000Z</time>
</trkpt>
<trkpt lat="45.9524540" lon="10.1316750">
	<ele>1220.20</ele>
	<time>2025-08-03T06:18:37.000Z</time>
</trkpt>
<trkpt lat="45.9524560" lon="10.1316620">
	<ele>1220.40</ele>
	<time>2025-08-03T06:18:38.000Z</time>
</trkpt>
<trkpt lat="45.9524580" lon="10.1316460">
	<ele>1220.40</ele>
	<time>2025-08-03T06:18:39.000Z</time>
</trkpt>
<trkpt lat="45.9524590" lon="10.1316380">
	<ele>1220.60</ele>
	<time>2025-08-03T06:18:40.000Z</time>
</trkpt>
<trkpt lat="45.9524550" lon="10.1316290">
	<ele>1221.00</ele>
	<time>2025-08-03T06:18:41.000Z</time>
</trkpt>
<trkpt lat="45.9524550" lon="10.1316240">
	<ele>1221.20</ele>
	<time>2025-08-03T06:18:42.000Z</time>
</trkpt>
<trkpt lat="45.9524600" lon="10.1316050">
	<ele>1221.40</ele>
	<time>2025-08-03T06:18:43.000Z</time>
</trkpt>
<trkpt lat="45.9524570" lon="10.1316020">
	<ele>1221.40</ele>
	<time>2025-08-03T06:18:44.000Z</time>
</trkpt>
<trkpt lat="45.9524550" lon="10.1315880">
	<ele>1221.60</ele>
	<time>2025-08-03T06:18:45.000Z</time>
</trkpt>
<trkpt lat="45.9524550" lon="10.1315890">
	<ele>1221.60</ele>
	<time>2025-08-03T06:18:46.000Z</time>
</trkpt>
<trkpt lat="45.9524550" lon="10.1315880">
	<ele>1221.60</ele>
	<time>2025-08-03T06:18:47.000Z</time>
</trkpt>
<trkpt lat="45.9524580" lon="10.1315740">
	<ele>1221.80</ele>
	<time>2025-08-03T06:18:48.000Z</time>
</trkpt>
<trkpt lat="45.9524590" lon="10.1315520">
	<ele>1221.80</ele>
	<time>2025-08-03T06:18:49.000Z</time>
</trkpt>
<trkpt lat="45.9524580" lon="10.1315340">
	<ele>1221.80</ele>
	<time>2025-08-03T06:18:50.000Z</time>
</trkpt>
<trkpt lat="45.9524540" lon="10.1315320">
	<ele>1221.80</ele>
	<time>2025-08-03T06:18:51.000Z</time>
</trkpt>
<trkpt lat="45.9524530" lon="10.1315270">
	<ele>1221.80</ele>
	<time>2025-08-03T06:18:52.000Z</time>
</trkpt>
<trkpt lat="45.9524600" lon="10.1315270">
	<ele>1221.80</ele>
	<time>2025-08-03T06:18:53.000Z</time>
</trkpt>
<trkpt lat="45.9524620" lon="10.1315270">
	<ele>1221.80</ele>
	<time>2025-08-03T06:18:54.000Z</time>
</trkpt>
<trkpt lat="45.9524640" lon="10.1315270">
	<ele>1221.80</ele>
	<time>2025-08-03T06:18:55.000Z</time>
</trkpt>
<trkpt lat="45.9524650" lon="10.1315280">
	<ele>1221.80</ele>
	<time>2025-08-03T06:18:56.000Z</time>
</trkpt>
<trkpt lat="45.9524700" lon="10.1315250">
	<ele>1221.80</ele>
	<time>2025-08-03T06:18:57.000Z</time>
</trkpt>
<trkpt lat="45.9524690" lon="10.1315250">
	<ele>1222.00</ele>
	<time>2025-08-03T06:18:58.000Z</time>
</trkpt>
<trkpt lat="45.9524670" lon="10.1315130">
	<ele>1222.00</ele>
	<time>2025-08-03T06:18:59.000Z</time>
</trkpt>
<trkpt lat="45.9524610" lon="10.1314960">
	<ele>1222.20</ele>
	<time>2025-08-03T06:19:00.000Z</time>
</trkpt>
<trkpt lat="45.9524570" lon="10.1314820">
	<ele>1222.20</ele>
	<time>2025-08-03T06:19:01.000Z</time>
</trkpt>
<trkpt lat="45.9524440" lon="10.1314710">
	<ele>1222.20</ele>
	<time>2025-08-03T06:19:02.000Z</time>
</trkpt>
<trkpt lat="45.9524420" lon="10.1314590">
	<ele>1222.20</ele>
	<time>2025-08-03T06:19:03.000Z</time>
</trkpt>
<trkpt lat="45.9524420" lon="10.1314520">
	<ele>1222.20</ele>
	<time>2025-08-03T06:19:04.000Z</time>
</trkpt>
<trkpt lat="45.9524420" lon="10.1314410">
	<ele>1222.20</ele>
	<time>2025-08-03T06:19:05.000Z</time>
</trkpt>
<trkpt lat="45.9524520" lon="10.1314340">
	<ele>1222.20</ele>
	<time>2025-08-03T06:19:06.000Z</time>
</trkpt>
<trkpt lat="45.9524550" lon="10.1314230">
	<ele>1222.20</ele>
	<time>2025-08-03T06:19:07.000Z</time>
</trkpt>
<trkpt lat="45.9524550" lon="10.1314160">
	<ele>1222.40</ele>
	<time>2025-08-03T06:19:08.000Z</time>
</trkpt>
<trkpt lat="45.9524500" lon="10.1314110">
	<ele>1222.40</ele>
	<time>2025-08-03T06:19:09.000Z</time>
</trkpt>
<trkpt lat="45.9524440" lon="10.1314060">
	<ele>1222.60</ele>
	<time>2025-08-03T06:19:10.000Z</time>
</trkpt>
<trkpt lat="45.9524350" lon="10.1314010">
	<ele>1222.80</ele>
	<time>2025-08-03T06:19:11.000Z</time>
</trkpt>
<trkpt lat="45.9524280" lon="10.1313930">
	<ele>1223.00</ele>
	<time>2025-08-03T06:19:12.000Z</time>
</trkpt>
<trkpt lat="45.9524330" lon="10.1313850">
	<ele>1223.20</ele>
	<time>2025-08-03T06:19:13.000Z</time>
</trkpt>
<trkpt lat="45.9524400" lon="10.1313680">
	<ele>1223.40</ele>
	<time>2025-08-03T06:19:14.000Z</time>
</trkpt>
<trkpt lat="45.9524460" lon="10.1313470">
	<ele>1223.40</ele>
	<time>2025-08-03T06:19:15.000Z</time>
</trkpt>
<trkpt lat="45.9524550" lon="10.1313320">
	<ele>1223.60</ele>
	<time>2025-08-03T06:19:16.000Z</time>
</trkpt>
<trkpt lat="45.9524690" lon="10.1313220">
	<ele>1223.60</ele>
	<time>2025-08-03T06:19:17.000Z</time>
</trkpt>
<trkpt lat="45.9524760" lon="10.1313210">
	<ele>1223.80</ele>
	<time>2025-08-03T06:19:18.000Z</time>
</trkpt>
<trkpt lat="45.9524770" lon="10.1313190">
	<ele>1223.80</ele>
	<time>2025-08-03T06:19:19.000Z</time>
</trkpt>
<trkpt lat="45.9524760" lon="10.1313180">
	<ele>1224.00</ele>
	<time>2025-08-03T06:19:20.000Z</time>
</trkpt>
<trkpt lat="45.9524700" lon="10.1313140">
	<ele>1224.20</ele>
	<time>2025-08-03T06:19:21.000Z</time>
</trkpt>
<trkpt lat="45.9524660" lon="10.1313110">
	<ele>1224.40</ele>
	<time>2025-08-03T06:19:22.000Z</time>
</trkpt>
<trkpt lat="45.9524630" lon="10.1312990">
	<ele>1224.60</ele>
	<time>2025-08-03T06:19:23.000Z</time>
</trkpt>
<trkpt lat="45.9524550" lon="10.1312870">
	<ele>1224.80</ele>
	<time>2025-08-03T06:19:24.000Z</time>
</trkpt>
<trkpt lat="45.9524470" lon="10.1312730">
	<ele>1225.00</ele>
	<time>2025-08-03T06:19:25.000Z</time>
</trkpt>
<trkpt lat="45.9524470" lon="10.1312550">
	<ele>1225.20</ele>
	<time>2025-08-03T06:19:26.000Z</time>
</trkpt>
<trkpt lat="45.9524440" lon="10.1312470">
	<ele>1225.20</ele>
	<time>2025-08-03T06:19:27.000Z</time>
</trkpt>
<trkpt lat="45.9524510" lon="10.1312430">
	<ele>1225.40</ele>
	<time>2025-08-03T06:19:28.000Z</time>
</trkpt>
<trkpt lat="45.9524530" lon="10.1312340">
	<ele>1225.60</ele>
	<time>2025-08-03T06:19:29.000Z</time>
</trkpt>
<trkpt lat="45.9524540" lon="10.1312280">
	<ele>1225.80</ele>
	<time>2025-08-03T06:19:30.000Z</time>
</trkpt>
<trkpt lat="45.9524520" lon="10.1312180">
	<ele>1226.00</ele>
	<time>2025-08-03T06:19:31.000Z</time>
</trkpt>
<trkpt lat="45.9524520" lon="10.1312030">
	<ele>1226.20</ele>
	<time>2025-08-03T06:19:32.000Z</time>
</trkpt>
<trkpt lat="45.9524400" lon="10.1311940">
	<ele>1226.40</ele>
	<time>2025-08-03T06:19:33.000Z</time>
</trkpt>
<trkpt lat="45.9524390" lon="10.1311960">
	<ele>1226.80</ele>
	<time>2025-08-03T06:19:34.000Z</time>
</trkpt>
<trkpt lat="45.9524480" lon="10.1311980">
	<ele>1227.00</ele>
	<time>2025-08-03T06:19:35.000Z</time>
</trkpt>
<trkpt lat="45.9524640" lon="10.1312040">
	<ele>1227.20</ele>
	<time>2025-08-03T06:19:36.000Z</time>
</trkpt>
<trkpt lat="45.9524730" lon="10.1312070">
	<ele>1227.40</ele>
	<time>2025-08-03T06:19:37.000Z</time>
</trkpt>
<trkpt lat="45.9524660" lon="10.1312010">
	<ele>1227.60</ele>
	<time>2025-08-03T06:19:38.000Z</time>
</trkpt>
<trkpt lat="45.9524600" lon="10.1311870">
	<ele>1227.80</ele>
	<time>2025-08-03T06:19:39.000Z</time>
</trkpt>
<trkpt lat="45.9524570" lon="10.1311720">
	<ele>1228.00</ele>
	<time>2025-08-03T06:19:40.000Z</time>
</trkpt>
<trkpt lat="45.9524580" lon="10.1311630">
	<ele>1228.20</ele>
	<time>2025-08-03T06:19:41.000Z</time>
</trkpt>
<trkpt lat="45.9524480" lon="10.1311430">
	<ele>1228.20</ele>
	<time>2025-08-03T06:19:42.000Z</time>
</trkpt>
<trkpt lat="45.9524430" lon="10.1311430">
	<ele>1228.40</ele>
	<time>2025-08-03T06:19:43.000Z</time>
</trkpt>
<trkpt lat="45.9524280" lon="10.1311280">
	<ele>1228.60</ele>
	<time>2025-08-03T06:19:44.000Z</time>
</trkpt>
<trkpt lat="45.9524110" lon="10.1311160">
	<ele>1228.60</ele>
	<time>2025-08-03T06:19:45.000Z</time>
</trkpt>
<trkpt lat="45.9524060" lon="10.1311130">
	<ele>1228.80</ele>
	<time>2025-08-03T06:19:46.000Z</time>
</trkpt>
<trkpt lat="45.9524030" lon="10.1311090">
	<ele>1228.80</ele>
	<time>2025-08-03T06:19:47.000Z</time>
</trkpt>
<trkpt lat="45.9523870" lon="10.1311050">
	<ele>1229.00</ele>
	<time>2025-08-03T06:19:48.000Z</time>
</trkpt>
<trkpt lat="45.9523720" lon="10.1311080">
	<ele>1229.20</ele>
	<time>2025-08-03T06:19:49.000Z</time>
</trkpt>
<trkpt lat="45.9523640" lon="10.1311130">
	<ele>1229.20</ele>
	<time>2025-08-03T06:19:50.000Z</time>
</trkpt>
<trkpt lat="45.9523580" lon="10.1311210">
	<ele>1229.40</ele>
	<time>2025-08-03T06:19:51.000Z</time>
</trkpt>
<trkpt lat="45.9523560" lon="10.1311310">
	<ele>1229.40</ele>
	<time>2025-08-03T06:19:52.000Z</time>
</trkpt>
<trkpt lat="45.9523550" lon="10.1311390">
	<ele>1229.40</ele>
	<time>2025-08-03T06:19:53.000Z</time>
</trkpt>
<trkpt lat="45.9523550" lon="10.1311570">
	<ele>1229.40</ele>
	<time>2025-08-03T06:19:54.000Z</time>
</trkpt>
<trkpt lat="45.9523570" lon="10.1311570">
	<ele>1229.40</ele>
	<time>2025-08-03T06:19:55.000Z</time>
</trkpt>
<trkpt lat="45.9523600" lon="10.1311590">
	<ele>1229.40</ele>
	<time>2025-08-03T06:19:56.000Z</time>
</trkpt>
<trkpt lat="45.9523620" lon="10.1311510">
	<ele>1229.40</ele>
	<time>2025-08-03T06:19:57.000Z</time>
</trkpt>
<trkpt lat="45.9523620" lon="10.1311490">
	<ele>1229.60</ele>
	<time>2025-08-03T06:19:58.000Z</time>
</trkpt>
<trkpt lat="45.9523580" lon="10.1311370">
	<ele>1229.60</ele>
	<time>2025-08-03T06:19:59.000Z</time>
</trkpt>
<trkpt lat="45.9523490" lon="10.1311220">
	<ele>1229.60</ele>
	<time>2025-08-03T06:20:00.000Z</time>
</trkpt>
<trkpt lat="45.9523470" lon="10.1311230">
	<ele>1229.60</ele>
	<time>2025-08-03T06:20:01.000Z</time>
</trkpt>
<trkpt lat="45.9523470" lon="10.1311210">
	<ele>1229.60</ele>
	<time>2025-08-03T06:20:02.000Z</time>
</trkpt>
<trkpt lat="45.9523410" lon="10.1311020">
	<ele>1229.40</ele>
	<time>2025-08-03T06:20:03.000Z</time>
</trkpt>
<trkpt lat="45.9523360" lon="10.1310990">
	<ele>1229.40</ele>
	<time>2025-08-03T06:20:04.000Z</time>
</trkpt>
<trkpt lat="45.9523290" lon="10.1310860">
	<ele>1229.40</ele>
	<time>2025-08-03T06:20:05.000Z</time>
</trkpt>
<trkpt lat="45.9523270" lon="10.1310830">
	<ele>1229.40</ele>
	<time>2025-08-03T06:20:06.000Z</time>
</trkpt>
<trkpt lat="45.9523270" lon="10.1310820">
	<ele>1229.40</ele>
	<time>2025-08-03T06:20:07.000Z</time>
</trkpt>
<trkpt lat="45.9523270" lon="10.1310820">
	<ele>1229.40</ele>
	<time>2025-08-03T06:20:08.000Z</time>
</trkpt>
<trkpt lat="45.9523250" lon="10.1310820">
	<ele>1229.40</ele>
	<time>2025-08-03T06:20:09.000Z</time>
</trkpt>
<trkpt lat="45.9523190" lon="10.1310860">
	<ele>1229.40</ele>
	<time>2025-08-03T06:20:10.000Z</time>
</trkpt>
<trkpt lat="45.9523090" lon="10.1310760">
	<ele>1229.60</ele>
	<time>2025-08-03T06:20:11.000Z</time>
</trkpt>
<trkpt lat="45.9523030" lon="10.1310730">
	<ele>1229.60</ele>
	<time>2025-08-03T06:20:12.000Z</time>
</trkpt>
<trkpt lat="45.9522940" lon="10.1310690">
	<ele>1229.80</ele>
	<time>2025-08-03T06:20:13.000Z</time>
</trkpt>
<trkpt lat="45.9522900" lon="10.1310670">
	<ele>1229.80</ele>
	<time>2025-08-03T06:20:14.000Z</time>
</trkpt>
<trkpt lat="45.9522820" lon="10.1310620">
	<ele>1230.00</ele>
	<time>2025-08-03T06:20:15.000Z</time>
</trkpt>
<trkpt lat="45.9522790" lon="10.1310640">
	<ele>1230.00</ele>
	<time>2025-08-03T06:20:16.000Z</time>
</trkpt>
<trkpt lat="45.9522770" lon="10.1310640">
	<ele>1230.20</ele>
	<time>2025-08-03T06:20:17.000Z</time>
</trkpt>
<trkpt lat="45.9522770" lon="10.1310640">
	<ele>1230.40</ele>
	<time>2025-08-03T06:20:18.000Z</time>
</trkpt>
<trkpt lat="45.9522690" lon="10.1310610">
	<ele>1230.40</ele>
	<time>2025-08-03T06:20:19.000Z</time>
</trkpt>
<trkpt lat="45.9522590" lon="10.1310580">
	<ele>1230.60</ele>
	<time>2025-08-03T06:20:20.000Z</time>
</trkpt>
<trkpt lat="45.9522500" lon="10.1310510">
	<ele>1230.40</ele>
	<time>2025-08-03T06:20:21.000Z</time>
</trkpt>
<trkpt lat="45.9522410" lon="10.1310440">
	<ele>1230.40</ele>
	<time>2025-08-03T06:20:22.000Z</time>
</trkpt>
<trkpt lat="45.9522330" lon="10.1310310">
	<ele>1230.40</ele>
	<time>2025-08-03T06:20:23.000Z</time>
</trkpt>
<trkpt lat="45.9522240" lon="10.1310250">
	<ele>1230.20</ele>
	<time>2025-08-03T06:20:24.000Z</time>
</trkpt>
<trkpt lat="45.9522160" lon="10.1310200">
	<ele>1230.20</ele>
	<time>2025-08-03T06:20:25.000Z</time>
</trkpt>
<trkpt lat="45.9522110" lon="10.1310130">
	<ele>1230.20</ele>
	<time>2025-08-03T06:20:26.000Z</time>
</trkpt>
<trkpt lat="45.9522080" lon="10.1310120">
	<ele>1230.20</ele>
	<time>2025-08-03T06:20:27.000Z</time>
</trkpt>
<trkpt lat="45.9522010" lon="10.1310090">
	<ele>1230.20</ele>
	<time>2025-08-03T06:20:28.000Z</time>
</trkpt>
<trkpt lat="45.9521990" lon="10.1310090">
	<ele>1230.40</ele>
	<time>2025-08-03T06:20:29.000Z</time>
</trkpt>
<trkpt lat="45.9521980" lon="10.1310080">
	<ele>1230.40</ele>
	<time>2025-08-03T06:20:30.000Z</time>
</trkpt>
<trkpt lat="45.9521980" lon="10.1310080">
	<ele>1230.40</ele>
	<time>2025-08-03T06:20:31.000Z</time>
</trkpt>
<trkpt lat="45.9522020" lon="10.1309940">
	<ele>1230.40</ele>
	<time>2025-08-03T06:20:32.000Z</time>
</trkpt>
<trkpt lat="45.9522000" lon="10.1309940">
	<ele>1230.40</ele>
	<time>2025-08-03T06:20:33.000Z</time>
</trkpt>
<trkpt lat="45.9522000" lon="10.1309940">
	<ele>1230.40</ele>
	<time>2025-08-03T06:20:34.000Z</time>
</trkpt>
<trkpt lat="45.9521990" lon="10.1309920">
	<ele>1230.40</ele>
	<time>2025-08-03T06:20:35.000Z</time>
</trkpt>
<trkpt lat="45.9522010" lon="10.1309920">
	<ele>1230.40</ele>
	<time>2025-08-03T06:20:36.000Z</time>
</trkpt>
<trkpt lat="45.9522020" lon="10.1309920">
	<ele>1230.40</ele>
	<time>2025-08-03T06:20:37.000Z</time>
</trkpt>
<trkpt lat="45.9522020" lon="10.1309910">
	<ele>1230.40</ele>
	<time>2025-08-03T06:20:38.000Z</time>
</trkpt>
<trkpt lat="45.9522020" lon="10.1309910">
	<ele>1230.40</ele>
	<time>2025-08-03T06:20:39.000Z</time>
</trkpt>
<trkpt lat="45.9522020" lon="10.1309910">
	<ele>1230.40</ele>
	<time>2025-08-03T06:20:40.000Z</time>
</trkpt>
<trkpt lat="45.9522020" lon="10.1309910">
	<ele>1230.40</ele>
	<time>2025-08-03T06:20:41.000Z</time>
</trkpt>
<trkpt lat="45.9522020" lon="10.1309910">
	<ele>1230.40</ele>
	<time>2025-08-03T06:20:42.000Z</time>
</trkpt>
<trkpt lat="45.9522020" lon="10.1309910">
	<ele>1230.40</ele>
	<time>2025-08-03T06:20:43.000Z</time>
</trkpt>
<trkpt lat="45.9522020" lon="10.1309910">
	<ele>1230.40</ele>
	<time>2025-08-03T06:20:44.000Z</time>
</trkpt>
<trkpt lat="45.9522020" lon="10.1309910">
	<ele>1230.40</ele>
	<time>2025-08-03T06:20:45.000Z</time>
</trkpt>
<trkpt lat="45.9522020" lon="10.1309920">
	<ele>1230.40</ele>
	<time>2025-08-03T06:20:46.000Z</time>
</trkpt>
<trkpt lat="45.9522020" lon="10.1309920">
	<ele>1230.40</ele>
	<time>2025-08-03T06:20:47.000Z</time>
</trkpt>
<trkpt lat="45.9522020" lon="10.1309920">
	<ele>1230.40</ele>
	<time>2025-08-03T06:20:48.000Z</time>
</trkpt>
<trkpt lat="45.9522020" lon="10.1309920">
	<ele>1230.40</ele>
	<time>2025-08-03T06:20:49.000Z</time>
</trkpt>
<trkpt lat="45.9522020" lon="10.1309920">
	<ele>1230.40</ele>
	<time>2025-08-03T06:20:50.000Z</time>
</trkpt>
<trkpt lat="45.9522020" lon="10.1309920">
	<ele>1230.40</ele>
	<time>2025-08-03T06:20:51.000Z</time>
</trkpt>
<trkpt lat="45.9522020" lon="10.1309920">
	<ele>1230.40</ele>
	<time>2025-08-03T06:20:52.000Z</time>
</trkpt>
<trkpt lat="45.9522020" lon="10.1309920">
	<ele>1230.40</ele>
	<time>2025-08-03T06:20:53.000Z</time>
</trkpt>
<trkpt lat="45.9522040" lon="10.1309920">
	<ele>1230.40</ele>
	<time>2025-08-03T06:20:54.000Z</time>
</trkpt>
<trkpt lat="45.9522040" lon="10.1309920">
	<ele>1230.40</ele>
	<time>2025-08-03T06:20:55.000Z</time>
</trkpt>
<trkpt lat="45.9522060" lon="10.1309920">
	<ele>1230.40</ele>
	<time>2025-08-03T06:20:56.000Z</time>
</trkpt>
<trkpt lat="45.9522070" lon="10.1309920">
	<ele>1230.40</ele>
	<time>2025-08-03T06:20:57.000Z</time>
</trkpt>
<trkpt lat="45.9522080" lon="10.1309920">
	<ele>1230.60</ele>
	<time>2025-08-03T06:20:58.000Z</time>
</trkpt>
<trkpt lat="45.9522080" lon="10.1309920">
	<ele>1230.60</ele>
	<time>2025-08-03T06:20:59.000Z</time>
</trkpt>
<trkpt lat="45.9522080" lon="10.1309920">
	<ele>1230.60</ele>
	<time>2025-08-03T06:21:00.000Z</time>
</trkpt>
<trkpt lat="45.9522090" lon="10.1309920">
	<ele>1230.60</ele>
	<time>2025-08-03T06:21:01.000Z</time>
</trkpt>
<trkpt lat="45.9522090" lon="10.1309920">
	<ele>1230.60</ele>
	<time>2025-08-03T06:21:02.000Z</time>
</trkpt>
<trkpt lat="45.9522090" lon="10.1309920">
	<ele>1230.60</ele>
	<time>2025-08-03T06:21:03.000Z</time>
</trkpt>
<trkpt lat="45.9522100" lon="10.1309920">
	<ele>1230.60</ele>
	<time>2025-08-03T06:21:04.000Z</time>
</trkpt>
<trkpt lat="45.9522100" lon="10.1309920">
	<ele>1230.60</ele>
	<time>2025-08-03T06:21:05.000Z</time>
</trkpt>
<trkpt lat="45.9522100" lon="10.1309920">
	<ele>1230.40</ele>
	<time>2025-08-03T06:21:06.000Z</time>
</trkpt>
<trkpt lat="45.9522110" lon="10.1309920">
	<ele>1230.40</ele>
	<time>2025-08-03T06:21:07.000Z</time>
</trkpt>
<trkpt lat="45.9522110" lon="10.1309920">
	<ele>1230.40</ele>
	<time>2025-08-03T06:21:08.000Z</time>
</trkpt>
<trkpt lat="45.9522110" lon="10.1309920">
	<ele>1230.40</ele>
	<time>2025-08-03T06:21:09.000Z</time>
</trkpt>
<trkpt lat="45.9522110" lon="10.1309920">
	<ele>1230.40</ele>
	<time>2025-08-03T06:21:10.000Z</time>
</trkpt>
<trkpt lat="45.9522120" lon="10.1309920">
	<ele>1230.40</ele>
	<time>2025-08-03T06:21:11.000Z</time>
</trkpt>
<trkpt lat="45.9522120" lon="10.1309920">
	<ele>1230.20</ele>
	<time>2025-08-03T06:21:12.000Z</time>
</trkpt>
<trkpt lat="45.9522120" lon="10.1309920">
	<ele>1230.20</ele>
	<time>2025-08-03T06:21:13.000Z</time>
</trkpt>
<trkpt lat="45.9522130" lon="10.1309920">
	<ele>1230.20</ele>
	<time>2025-08-03T06:21:14.000Z</time>
</trkpt>
<trkpt lat="45.9522150" lon="10.1309920">
	<ele>1230.20</ele>
	<time>2025-08-03T06:21:15.000Z</time>
</trkpt>
<trkpt lat="45.9522150" lon="10.1309910">
	<ele>1230.20</ele>
	<time>2025-08-03T06:21:16.000Z</time>
</trkpt>
<trkpt lat="45.9522160" lon="10.1309900">
	<ele>1230.20</ele>
	<time>2025-08-03T06:21:17.000Z</time>
</trkpt>
<trkpt lat="45.9522160" lon="10.1309900">
	<ele>1230.20</ele>
	<time>2025-08-03T06:21:18.000Z</time>
</trkpt>
<trkpt lat="45.9522180" lon="10.1309890">
	<ele>1230.40</ele>
	<time>2025-08-03T06:21:19.000Z</time>
</trkpt>
<trkpt lat="45.9522180" lon="10.1309880">
	<ele>1230.40</ele>
	<time>2025-08-03T06:21:20.000Z</time>
</trkpt>
<trkpt lat="45.9522180" lon="10.1309870">
	<ele>1230.60</ele>
	<time>2025-08-03T06:21:21.000Z</time>
</trkpt>
<trkpt lat="45.9522170" lon="10.1309890">
	<ele>1230.60</ele>
	<time>2025-08-03T06:21:22.000Z</time>
</trkpt>
<trkpt lat="45.9522230" lon="10.1309860">
	<ele>1230.60</ele>
	<time>2025-08-03T06:21:23.000Z</time>
</trkpt>
<trkpt lat="45.9522360" lon="10.1309750">
	<ele>1230.60</ele>
	<time>2025-08-03T06:21:24.000Z</time>
</trkpt>
<trkpt lat="45.9522330" lon="10.1309570">
	<ele>1230.60</ele>
	<time>2025-08-03T06:21:25.000Z</time>
</trkpt>
<trkpt lat="45.9522290" lon="10.1309360">
	<ele>1230.40</ele>
	<time>2025-08-03T06:21:26.000Z</time>
</trkpt>
<trkpt lat="45.9522270" lon="10.1309250">
	<ele>1230.20</ele>
	<time>2025-08-03T06:21:27.000Z</time>
</trkpt>
<trkpt lat="45.9522310" lon="10.1309060">
	<ele>1230.20</ele>
	<time>2025-08-03T06:21:28.000Z</time>
</trkpt>
<trkpt lat="45.9522280" lon="10.1308860">
	<ele>1229.80</ele>
	<time>2025-08-03T06:21:29.000Z</time>
</trkpt>
<trkpt lat="45.9522210" lon="10.1308640">
	<ele>1229.60</ele>
	<time>2025-08-03T06:21:30.000Z</time>
</trkpt>
<trkpt lat="45.9522140" lon="10.1308390">
	<ele>1229.60</ele>
	<time>2025-08-03T06:21:31.000Z</time>
</trkpt>
<trkpt lat="45.9521990" lon="10.1308110">
	<ele>1229.40</ele>
	<time>2025-08-03T06:21:32.000Z</time>
</trkpt>
<trkpt lat="45.9521920" lon="10.1307910">
	<ele>1229.40</ele>
	<time>2025-08-03T06:21:33.000Z</time>
</trkpt>
<trkpt lat="45.9521890" lon="10.1307830">
	<ele>1229.20</ele>
	<time>2025-08-03T06:21:34.000Z</time>
</trkpt>
<trkpt lat="45.9521920" lon="10.1307730">
	<ele>1229.20</ele>
	<time>2025-08-03T06:21:35.000Z</time>
</trkpt>
<trkpt lat="45.9521950" lon="10.1307600">
	<ele>1229.00</ele>
	<time>2025-08-03T06:21:36.000Z</time>
</trkpt>
<trkpt lat="45.9521920" lon="10.1307440">
	<ele>1228.80</ele>
	<time>2025-08-03T06:21:37.000Z</time>
</trkpt>
<trkpt lat="45.9521940" lon="10.1307230">
	<ele>1228.80</ele>
	<time>2025-08-03T06:21:38.000Z</time>
</trkpt>
<trkpt lat="45.9522030" lon="10.1307030">
	<ele>1228.60</ele>
	<time>2025-08-03T06:21:39.000Z</time>
</trkpt>
<trkpt lat="45.9522040" lon="10.1306830">
	<ele>1228.60</ele>
	<time>2025-08-03T06:21:40.000Z</time>
</trkpt>
<trkpt lat="45.9522010" lon="10.1306780">
	<ele>1228.60</ele>
	<time>2025-08-03T06:21:41.000Z</time>
</trkpt>
<trkpt lat="45.9522090" lon="10.1306740">
	<ele>1228.60</ele>
	<time>2025-08-03T06:21:42.000Z</time>
</trkpt>
<trkpt lat="45.9522170" lon="10.1306590">
	<ele>1228.60</ele>
	<time>2025-08-03T06:21:43.000Z</time>
</trkpt>
<trkpt lat="45.9522220" lon="10.1306450">
	<ele>1228.80</ele>
	<time>2025-08-03T06:21:44.000Z</time>
</trkpt>
<trkpt lat="45.9522320" lon="10.1306360">
	<ele>1228.80</ele>
	<time>2025-08-03T06:21:45.000Z</time>
</trkpt>
<trkpt lat="45.9522420" lon="10.1306280">
	<ele>1228.80</ele>
	<time>2025-08-03T06:21:46.000Z</time>
</trkpt>
<trkpt lat="45.9522440" lon="10.1306260">
	<ele>1229.00</ele>
	<time>2025-08-03T06:21:47.000Z</time>
</trkpt>
<trkpt lat="45.9522490" lon="10.1306090">
	<ele>1229.00</ele>
	<time>2025-08-03T06:21:48.000Z</time>
</trkpt>
<trkpt lat="45.9522530" lon="10.1305830">
	<ele>1229.00</ele>
	<time>2025-08-03T06:21:49.000Z</time>
</trkpt>
<trkpt lat="45.9522490" lon="10.1305600">
	<ele>1229.00</ele>
	<time>2025-08-03T06:21:50.000Z</time>
</trkpt>
<trkpt lat="45.9522530" lon="10.1305410">
	<ele>1229.00</ele>
	<time>2025-08-03T06:21:51.000Z</time>
</trkpt>
<trkpt lat="45.9522550" lon="10.1305220">
	<ele>1228.80</ele>
	<time>2025-08-03T06:21:52.000Z</time>
</trkpt>
<trkpt lat="45.9522670" lon="10.1304880">
	<ele>1228.80</ele>
	<time>2025-08-03T06:21:53.000Z</time>
</trkpt>
<trkpt lat="45.9522870" lon="10.1304590">
	<ele>1228.80</ele>
	<time>2025-08-03T06:21:54.000Z</time>
</trkpt>
<trkpt lat="45.9523060" lon="10.1304330">
	<ele>1228.60</ele>
	<time>2025-08-03T06:21:55.000Z</time>
</trkpt>
<trkpt lat="45.9523210" lon="10.1304100">
	<ele>1228.20</ele>
	<time>2025-08-03T06:21:56.000Z</time>
</trkpt>
<trkpt lat="45.9523310" lon="10.1303900">
	<ele>1228.20</ele>
	<time>2025-08-03T06:21:57.000Z</time>
</trkpt>
<trkpt lat="45.9523280" lon="10.1303630">
	<ele>1228.00</ele>
	<time>2025-08-03T06:21:58.000Z</time>
</trkpt>
<trkpt lat="45.9523310" lon="10.1303570">
	<ele>1228.00</ele>
	<time>2025-08-03T06:21:59.000Z</time>
</trkpt>
<trkpt lat="45.9523300" lon="10.1303540">
	<ele>1227.80</ele>
	<time>2025-08-03T06:22:00.000Z</time>
</trkpt>
<trkpt lat="45.9523320" lon="10.1303280">
	<ele>1227.80</ele>
	<time>2025-08-03T06:22:01.000Z</time>
</trkpt>
<trkpt lat="45.9523320" lon="10.1303200">
	<ele>1227.60</ele>
	<time>2025-08-03T06:22:02.000Z</time>
</trkpt>
<trkpt lat="45.9523370" lon="10.1303140">
	<ele>1227.40</ele>
	<time>2025-08-03T06:22:03.000Z</time>
</trkpt>
<trkpt lat="45.9523380" lon="10.1303070">
	<ele>1227.20</ele>
	<time>2025-08-03T06:22:04.000Z</time>
</trkpt>
<trkpt lat="45.9523370" lon="10.1303020">
	<ele>1227.00</ele>
	<time>2025-08-03T06:22:05.000Z</time>
</trkpt>
<trkpt lat="45.9523390" lon="10.1302850">
	<ele>1227.00</ele>
	<time>2025-08-03T06:22:06.000Z</time>
</trkpt>
<trkpt lat="45.9523450" lon="10.1302670">
	<ele>1227.00</ele>
	<time>2025-08-03T06:22:07.000Z</time>
</trkpt>
<trkpt lat="45.9523460" lon="10.1302540">
	<ele>1226.80</ele>
	<time>2025-08-03T06:22:08.000Z</time>
</trkpt>
<trkpt lat="45.9523470" lon="10.1302470">
	<ele>1226.80</ele>
	<time>2025-08-03T06:22:09.000Z</time>
</trkpt>
<trkpt lat="45.9523620" lon="10.1302340">
	<ele>1226.80</ele>
	<time>2025-08-03T06:22:10.000Z</time>
</trkpt>
<trkpt lat="45.9523620" lon="10.1302170">
	<ele>1226.60</ele>
	<time>2025-08-03T06:22:11.000Z</time>
</trkpt>
<trkpt lat="45.9523590" lon="10.1302030">
	<ele>1226.60</ele>
	<time>2025-08-03T06:22:12.000Z</time>
</trkpt>
<trkpt lat="45.9523590" lon="10.1301970">
	<ele>1226.60</ele>
	<time>2025-08-03T06:22:13.000Z</time>
</trkpt>
<trkpt lat="45.9523680" lon="10.1301890">
	<ele>1226.60</ele>
	<time>2025-08-03T06:22:14.000Z</time>
</trkpt>
<trkpt lat="45.9523780" lon="10.1301820">
	<ele>1226.60</ele>
	<time>2025-08-03T06:22:15.000Z</time>
</trkpt>
<trkpt lat="45.9523910" lon="10.1301770">
	<ele>1226.60</ele>
	<time>2025-08-03T06:22:16.000Z</time>
</trkpt>
<trkpt lat="45.9523990" lon="10.1301670">
	<ele>1226.80</ele>
	<time>2025-08-03T06:22:17.000Z</time>
</trkpt>
<trkpt lat="45.9524050" lon="10.1301560">
	<ele>1227.00</ele>
	<time>2025-08-03T06:22:18.000Z</time>
</trkpt>
<trkpt lat="45.9524080" lon="10.1301510">
	<ele>1227.20</ele>
	<time>2025-08-03T06:22:19.000Z</time>
</trkpt>
<trkpt lat="45.9524130" lon="10.1301410">
	<ele>1227.20</ele>
	<time>2025-08-03T06:22:20.000Z</time>
</trkpt>
<trkpt lat="45.9524210" lon="10.1301250">
	<ele>1227.20</ele>
	<time>2025-08-03T06:22:21.000Z</time>
</trkpt>
<trkpt lat="45.9524350" lon="10.1301100">
	<ele>1227.20</ele>
	<time>2025-08-03T06:22:22.000Z</time>
</trkpt>
<trkpt lat="45.9524500" lon="10.1300940">
	<ele>1227.20</ele>
	<time>2025-08-03T06:22:23.000Z</time>
</trkpt>
<trkpt lat="45.9524590" lon="10.1300790">
	<ele>1227.20</ele>
	<time>2025-08-03T06:22:24.000Z</time>
</trkpt>
<trkpt lat="45.9524740" lon="10.1300610">
	<ele>1227.40</ele>
	<time>2025-08-03T06:22:25.000Z</time>
</trkpt>
<trkpt lat="45.9524790" lon="10.1300470">
	<ele>1227.40</ele>
	<time>2025-08-03T06:22:26.000Z</time>
</trkpt>
<trkpt lat="45.9524790" lon="10.1300420">
	<ele>1227.40</ele>
	<time>2025-08-03T06:22:27.000Z</time>
</trkpt>
<trkpt lat="45.9524950" lon="10.1300270">
	<ele>1227.40</ele>
	<time>2025-08-03T06:22:28.000Z</time>
</trkpt>
<trkpt lat="45.9525090" lon="10.1300080">
	<ele>1227.60</ele>
	<time>2025-08-03T06:22:29.000Z</time>
</trkpt>
<trkpt lat="45.9525170" lon="10.1299910">
	<ele>1227.80</ele>
	<time>2025-08-03T06:22:30.000Z</time>
</trkpt>
<trkpt lat="45.9525210" lon="10.1299690">
	<ele>1227.80</ele>
	<time>2025-08-03T06:22:31.000Z</time>
</trkpt>
<trkpt lat="45.9525240" lon="10.1299460">
	<ele>1228.00</ele>
	<time>2025-08-03T06:22:32.000Z</time>
</trkpt>
<trkpt lat="45.9525240" lon="10.1299400">
	<ele>1228.00</ele>
	<time>2025-08-03T06:22:33.000Z</time>
</trkpt>
<trkpt lat="45.9525220" lon="10.1299370">
	<ele>1228.00</ele>
	<time>2025-08-03T06:22:34.000Z</time>
</trkpt>
<trkpt lat="45.9525230" lon="10.1299360">
	<ele>1228.00</ele>
	<time>2025-08-03T06:22:35.000Z</time>
</trkpt>
<trkpt lat="45.9525300" lon="10.1299270">
	<ele>1228.20</ele>
	<time>2025-08-03T06:22:36.000Z</time>
</trkpt>
<trkpt lat="45.9525350" lon="10.1299190">
	<ele>1228.40</ele>
	<time>2025-08-03T06:22:37.000Z</time>
</trkpt>
<trkpt lat="45.9525460" lon="10.1299130">
	<ele>1228.60</ele>
	<time>2025-08-03T06:22:38.000Z</time>
</trkpt>
<trkpt lat="45.9525640" lon="10.1299050">
	<ele>1228.80</ele>
	<time>2025-08-03T06:22:39.000Z</time>
</trkpt>
<trkpt lat="45.9525840" lon="10.1298980">
	<ele>1228.80</ele>
	<time>2025-08-03T06:22:40.000Z</time>
</trkpt>
<trkpt lat="45.9525950" lon="10.1298830">
	<ele>1229.00</ele>
	<time>2025-08-03T06:22:41.000Z</time>
</trkpt>
<trkpt lat="45.9526040" lon="10.1298670">
	<ele>1229.00</ele>
	<time>2025-08-03T06:22:42.000Z</time>
</trkpt>
<trkpt lat="45.9526020" lon="10.1298480">
	<ele>1229.00</ele>
	<time>2025-08-03T06:22:43.000Z</time>
</trkpt>
<trkpt lat="45.9525990" lon="10.1298430">
	<ele>1229.00</ele>
	<time>2025-08-03T06:22:44.000Z</time>
</trkpt>
<trkpt lat="45.9525990" lon="10.1298380">
	<ele>1229.00</ele>
	<time>2025-08-03T06:22:45.000Z</time>
</trkpt>
<trkpt lat="45.9526070" lon="10.1298350">
	<ele>1229.00</ele>
	<time>2025-08-03T06:22:46.000Z</time>
</trkpt>
<trkpt lat="45.9526110" lon="10.1298290">
	<ele>1229.00</ele>
	<time>2025-08-03T06:22:47.000Z</time>
</trkpt>
<trkpt lat="45.9526140" lon="10.1298180">
	<ele>1229.00</ele>
	<time>2025-08-03T06:22:48.000Z</time>
</trkpt>
<trkpt lat="45.9526180" lon="10.1298030">
	<ele>1229.00</ele>
	<time>2025-08-03T06:22:49.000Z</time>
</trkpt>
<trkpt lat="45.9526060" lon="10.1297820">
	<ele>1229.00</ele>
	<time>2025-08-03T06:22:50.000Z</time>
</trkpt>
<trkpt lat="45.9525990" lon="10.1297700">
	<ele>1228.80</ele>
	<time>2025-08-03T06:22:51.000Z</time>
</trkpt>
<trkpt lat="45.9525960" lon="10.1297530">
	<ele>1228.80</ele>
	<time>2025-08-03T06:22:52.000Z</time>
</trkpt>
<trkpt lat="45.9525980" lon="10.1297340">
	<ele>1228.80</ele>
	<time>2025-08-03T06:22:53.000Z</time>
</trkpt>
<trkpt lat="45.9525990" lon="10.1297180">
	<ele>1229.00</ele>
	<time>2025-08-03T06:22:54.000Z</time>
</trkpt>
<trkpt lat="45.9525980" lon="10.1296990">
	<ele>1229.00</ele>
	<time>2025-08-03T06:22:55.000Z</time>
</trkpt>
<trkpt lat="45.9526020" lon="10.1296870">
	<ele>1229.00</ele>
	<time>2025-08-03T06:22:56.000Z</time>
</trkpt>
<trkpt lat="45.9525930" lon="10.1296610">
	<ele>1229.00</ele>
	<time>2025-08-03T06:22:57.000Z</time>
</trkpt>
<trkpt lat="45.9525910" lon="10.1296300">
	<ele>1229.00</ele>
	<time>2025-08-03T06:22:58.000Z</time>
</trkpt>
<trkpt lat="45.9525910" lon="10.1296100">
	<ele>1229.00</ele>
	<time>2025-08-03T06:22:59.000Z</time>
</trkpt>
<trkpt lat="45.9526020" lon="10.1295970">
	<ele>1229.00</ele>
	<time>2025-08-03T06:23:00.000Z</time>
</trkpt>
<trkpt lat="45.9526130" lon="10.1295870">
	<ele>1229.00</ele>
	<time>2025-08-03T06:23:01.000Z</time>
</trkpt>
<trkpt lat="45.9526230" lon="10.1295680">
	<ele>1228.80</ele>
	<time>2025-08-03T06:23:02.000Z</time>
</trkpt>
<trkpt lat="45.9526310" lon="10.1295440">
	<ele>1228.80</ele>
	<time>2025-08-03T06:23:03.000Z</time>
</trkpt>
<trkpt lat="45.9526340" lon="10.1295200">
	<ele>1228.60</ele>
	<time>2025-08-03T06:23:04.000Z</time>
</trkpt>
<trkpt lat="45.9526400" lon="10.1295070">
	<ele>1228.60</ele>
	<time>2025-08-03T06:23:05.000Z</time>
</trkpt>
<trkpt lat="45.9526450" lon="10.1294920">
	<ele>1228.40</ele>
	<time>2025-08-03T06:23:06.000Z</time>
</trkpt>
<trkpt lat="45.9526530" lon="10.1294820">
	<ele>1228.40</ele>
	<time>2025-08-03T06:23:07.000Z</time>
</trkpt>
<trkpt lat="45.9526510" lon="10.1294650">
	<ele>1228.20</ele>
	<time>2025-08-03T06:23:08.000Z</time>
</trkpt>
<trkpt lat="45.9526470" lon="10.1294460">
	<ele>1228.20</ele>
	<time>2025-08-03T06:23:09.000Z</time>
</trkpt>
<trkpt lat="45.9526590" lon="10.1294330">
	<ele>1227.80</ele>
	<time>2025-08-03T06:23:10.000Z</time>
</trkpt>
<trkpt lat="45.9526750" lon="10.1294130">
	<ele>1227.60</ele>
	<time>2025-08-03T06:23:11.000Z</time>
</trkpt>
<trkpt lat="45.9526780" lon="10.1294060">
	<ele>1227.40</ele>
	<time>2025-08-03T06:23:12.000Z</time>
</trkpt>
<trkpt lat="45.9526840" lon="10.1293920">
	<ele>1227.20</ele>
	<time>2025-08-03T06:23:13.000Z</time>
</trkpt>
<trkpt lat="45.9526940" lon="10.1293770">
	<ele>1226.80</ele>
	<time>2025-08-03T06:23:14.000Z</time>
</trkpt>
<trkpt lat="45.9527040" lon="10.1293590">
	<ele>1226.60</ele>
	<time>2025-08-03T06:23:15.000Z</time>
</trkpt>
<trkpt lat="45.9527240" lon="10.1293470">
	<ele>1226.20</ele>
	<time>2025-08-03T06:23:16.000Z</time>
</trkpt>
<trkpt lat="45.9527380" lon="10.1293430">
	<ele>1226.00</ele>
	<time>2025-08-03T06:23:17.000Z</time>
</trkpt>
<trkpt lat="45.9527530" lon="10.1293380">
	<ele>1225.80</ele>
	<time>2025-08-03T06:23:18.000Z</time>
</trkpt>
<trkpt lat="45.9527710" lon="10.1293360">
	<ele>1225.60</ele>
	<time>2025-08-03T06:23:19.000Z</time>
</trkpt>
<trkpt lat="45.9527900" lon="10.1293280">
	<ele>1225.40</ele>
	<time>2025-08-03T06:23:20.000Z</time>
</trkpt>
<trkpt lat="45.9528000" lon="10.1293140">
	<ele>1225.20</ele>
	<time>2025-08-03T06:23:21.000Z</time>
</trkpt>
<trkpt lat="45.9528040" lon="10.1293010">
	<ele>1224.80</ele>
	<time>2025-08-03T06:23:22.000Z</time>
</trkpt>
<trkpt lat="45.9528050" lon="10.1292780">
	<ele>1224.80</ele>
	<time>2025-08-03T06:23:23.000Z</time>
</trkpt>
<trkpt lat="45.9528150" lon="10.1292520">
	<ele>1224.60</ele>
	<time>2025-08-03T06:23:24.000Z</time>
</trkpt>
<trkpt lat="45.9528250" lon="10.1292360">
	<ele>1224.40</ele>
	<time>2025-08-03T06:23:25.000Z</time>
</trkpt>
<trkpt lat="45.9528340" lon="10.1292240">
	<ele>1224.20</ele>
	<time>2025-08-03T06:23:26.000Z</time>
</trkpt>
<trkpt lat="45.9528340" lon="10.1292150">
	<ele>1224.00</ele>
	<time>2025-08-03T06:23:27.000Z</time>
</trkpt>
<trkpt lat="45.9528350" lon="10.1292090">
	<ele>1224.00</ele>
	<time>2025-08-03T06:23:28.000Z</time>
</trkpt>
<trkpt lat="45.9528300" lon="10.1291940">
	<ele>1223.80</ele>
	<time>2025-08-03T06:23:29.000Z</time>
</trkpt>
<trkpt lat="45.9528380" lon="10.1291720">
	<ele>1223.60</ele>
	<time>2025-08-03T06:23:30.000Z</time>
</trkpt>
<trkpt lat="45.9528390" lon="10.1291500">
	<ele>1223.60</ele>
	<time>2025-08-03T06:23:31.000Z</time>
</trkpt>
<trkpt lat="45.9528550" lon="10.1291330">
	<ele>1223.40</ele>
	<time>2025-08-03T06:23:32.000Z</time>
</trkpt>
<trkpt lat="45.9528610" lon="10.1291080">
	<ele>1223.40</ele>
	<time>2025-08-03T06:23:33.000Z</time>
</trkpt>
<trkpt lat="45.9528550" lon="10.1290840">
	<ele>1223.20</ele>
	<time>2025-08-03T06:23:34.000Z</time>
</trkpt>
<trkpt lat="45.9528450" lon="10.1290600">
	<ele>1223.00</ele>
	<time>2025-08-03T06:23:35.000Z</time>
</trkpt>
<trkpt lat="45.9528240" lon="10.1290220">
	<ele>1223.00</ele>
	<time>2025-08-03T06:23:36.000Z</time>
</trkpt>
<trkpt lat="45.9528000" lon="10.1290030">
	<ele>1222.80</ele>
	<time>2025-08-03T06:23:37.000Z</time>
</trkpt>
<trkpt lat="45.9527850" lon="10.1289820">
	<ele>1222.60</ele>
	<time>2025-08-03T06:23:38.000Z</time>
</trkpt>
<trkpt lat="45.9527810" lon="10.1289560">
	<ele>1222.20</ele>
	<time>2025-08-03T06:23:39.000Z</time>
</trkpt>
<trkpt lat="45.9527850" lon="10.1289310">
	<ele>1222.00</ele>
	<time>2025-08-03T06:23:40.000Z</time>
</trkpt>
<trkpt lat="45.9527980" lon="10.1289200">
	<ele>1222.00</ele>
	<time>2025-08-03T06:23:41.000Z</time>
</trkpt>
<trkpt lat="45.9528150" lon="10.1289080">
	<ele>1221.80</ele>
	<time>2025-08-03T06:23:42.000Z</time>
</trkpt>
<trkpt lat="45.9528310" lon="10.1289030">
	<ele>1221.80</ele>
	<time>2025-08-03T06:23:43.000Z</time>
</trkpt>
<trkpt lat="45.9528340" lon="10.1288960">
	<ele>1221.60</ele>
	<time>2025-08-03T06:23:44.000Z</time>
</trkpt>
<trkpt lat="45.9528150" lon="10.1288920">
	<ele>1221.40</ele>
	<time>2025-08-03T06:23:45.000Z</time>
</trkpt>
<trkpt lat="45.9528120" lon="10.1288900">
	<ele>1221.40</ele>
	<time>2025-08-03T06:23:46.000Z</time>
</trkpt>
<trkpt lat="45.9528140" lon="10.1288840">
	<ele>1221.20</ele>
	<time>2025-08-03T06:23:47.000Z</time>
</trkpt>
<trkpt lat="45.9528160" lon="10.1288790">
	<ele>1221.20</ele>
	<time>2025-08-03T06:23:48.000Z</time>
</trkpt>
<trkpt lat="45.9528220" lon="10.1288740">
	<ele>1221.20</ele>
	<time>2025-08-03T06:23:49.000Z</time>
</trkpt>
<trkpt lat="45.9528210" lon="10.1288670">
	<ele>1221.20</ele>
	<time>2025-08-03T06:23:50.000Z</time>
</trkpt>
<trkpt lat="45.9528200" lon="10.1288610">
	<ele>1221.00</ele>
	<time>2025-08-03T06:23:51.000Z</time>
</trkpt>
<trkpt lat="45.9528200" lon="10.1288570">
	<ele>1220.80</ele>
	<time>2025-08-03T06:23:52.000Z</time>
</trkpt>
<trkpt lat="45.9528260" lon="10.1288500">
	<ele>1220.80</ele>
	<time>2025-08-03T06:23:53.000Z</time>
</trkpt>
<trkpt lat="45.9528330" lon="10.1288430">
	<ele>1220.40</ele>
	<time>2025-08-03T06:23:54.000Z</time>
</trkpt>
<trkpt lat="45.9528340" lon="10.1288320">
	<ele>1220.20</ele>
	<time>2025-08-03T06:23:55.000Z</time>
</trkpt>
<trkpt lat="45.9528240" lon="10.1288180">
	<ele>1220.00</ele>
	<time>2025-08-03T06:23:56.000Z</time>
</trkpt>
<trkpt lat="45.9528120" lon="10.1288050">
	<ele>1220.00</ele>
	<time>2025-08-03T06:23:57.000Z</time>
</trkpt>
<trkpt lat="45.9528040" lon="10.1287920">
	<ele>1219.80</ele>
	<time>2025-08-03T06:23:58.000Z</time>
</trkpt>
<trkpt lat="45.9527980" lon="10.1287880">
	<ele>1219.60</ele>
	<time>2025-08-03T06:23:59.000Z</time>
</trkpt>
<trkpt lat="45.9528060" lon="10.1287960">
	<ele>1219.00</ele>
	<time>2025-08-03T06:24:00.000Z</time>
</trkpt>
<trkpt lat="45.9528140" lon="10.1287870">
	<ele>1218.60</ele>
	<time>2025-08-03T06:24:01.000Z</time>
</trkpt>
<trkpt lat="45.9528150" lon="10.1287840">
	<ele>1218.40</ele>
	<time>2025-08-03T06:24:02.000Z</time>
</trkpt>
<trkpt lat="45.9528180" lon="10.1287730">
	<ele>1218.20</ele>
	<time>2025-08-03T06:24:03.000Z</time>
</trkpt>
<trkpt lat="45.9528220" lon="10.1287640">
	<ele>1217.80</ele>
	<time>2025-08-03T06:24:04.000Z</time>
</trkpt>
<trkpt lat="45.9528230" lon="10.1287580">
	<ele>1217.80</ele>
	<time>2025-08-03T06:24:05.000Z</time>
</trkpt>
<trkpt lat="45.9528230" lon="10.1287440">
	<ele>1217.60</ele>
	<time>2025-08-03T06:24:06.000Z</time>
</trkpt>
<trkpt lat="45.9528260" lon="10.1287250">
	<ele>1217.40</ele>
	<time>2025-08-03T06:24:07.000Z</time>
</trkpt>
<trkpt lat="45.9528300" lon="10.1287040">
	<ele>1217.00</ele>
	<time>2025-08-03T06:24:08.000Z</time>
</trkpt>
<trkpt lat="45.9528290" lon="10.1286810">
	<ele>1216.80</ele>
	<time>2025-08-03T06:24:09.000Z</time>
</trkpt>
<trkpt lat="45.9528420" lon="10.1286720">
	<ele>1216.60</ele>
	<time>2025-08-03T06:24:10.000Z</time>
</trkpt>
<trkpt lat="45.9528560" lon="10.1286670">
	<ele>1216.40</ele>
	<time>2025-08-03T06:24:11.000Z</time>
</trkpt>
<trkpt lat="45.9528740" lon="10.1286560">
	<ele>1216.20</ele>
	<time>2025-08-03T06:24:12.000Z</time>
</trkpt>
<trkpt lat="45.9528840" lon="10.1286390">
	<ele>1216.00</ele>
	<time>2025-08-03T06:24:13.000Z</time>
</trkpt>
<trkpt lat="45.9528990" lon="10.1286300">
	<ele>1215.80</ele>
	<time>2025-08-03T06:24:14.000Z</time>
</trkpt>
<trkpt lat="45.9529090" lon="10.1286110">
	<ele>1215.40</ele>
	<time>2025-08-03T06:24:15.000Z</time>
</trkpt>
<trkpt lat="45.9529240" lon="10.1285930">
	<ele>1215.20</ele>
	<time>2025-08-03T06:24:16.000Z</time>
</trkpt>
<trkpt lat="45.9529550" lon="10.1285870">
	<ele>1215.20</ele>
	<time>2025-08-03T06:24:17.000Z</time>
</trkpt>
<trkpt lat="45.9529600" lon="10.1285750">
	<ele>1215.00</ele>
	<time>2025-08-03T06:24:18.000Z</time>
</trkpt>
<trkpt lat="45.9529820" lon="10.1285620">
	<ele>1214.80</ele>
	<time>2025-08-03T06:24:19.000Z</time>
</trkpt>
<trkpt lat="45.9529910" lon="10.1285490">
	<ele>1214.80</ele>
	<time>2025-08-03T06:24:20.000Z</time>
</trkpt>
<trkpt lat="45.9529870" lon="10.1285330">
	<ele>1214.80</ele>
	<time>2025-08-03T06:24:21.000Z</time>
</trkpt>
<trkpt lat="45.9529900" lon="10.1285270">
	<ele>1214.80</ele>
	<time>2025-08-03T06:24:22.000Z</time>
</trkpt>
<trkpt lat="45.9529990" lon="10.1285280">
	<ele>1214.80</ele>
	<time>2025-08-03T06:24:23.000Z</time>
</trkpt>
<trkpt lat="45.9530140" lon="10.1285260">
	<ele>1214.80</ele>
	<time>2025-08-03T06:24:24.000Z</time>
</trkpt>
<trkpt lat="45.9530340" lon="10.1285320">
	<ele>1215.00</ele>
	<time>2025-08-03T06:24:25.000Z</time>
</trkpt>
<trkpt lat="45.9530630" lon="10.1285330">
	<ele>1215.00</ele>
	<time>2025-08-03T06:24:26.000Z</time>
</trkpt>
<trkpt lat="45.9530800" lon="10.1285120">
	<ele>1215.00</ele>
	<time>2025-08-03T06:24:27.000Z</time>
</trkpt>
<trkpt lat="45.9531030" lon="10.1285060">
	<ele>1215.00</ele>
	<time>2025-08-03T06:24:28.000Z</time>
</trkpt>
<trkpt lat="45.9531190" lon="10.1285070">
	<ele>1215.00</ele>
	<time>2025-08-03T06:24:29.000Z</time>
</trkpt>
<trkpt lat="45.9531250" lon="10.1285030">
	<ele>1215.20</ele>
	<time>2025-08-03T06:24:30.000Z</time>
</trkpt>
<trkpt lat="45.9531290" lon="10.1285000">
	<ele>1215.20</ele>
	<time>2025-08-03T06:24:31.000Z</time>
</trkpt>
<trkpt lat="45.9531260" lon="10.1285160">
	<ele>1215.20</ele>
	<time>2025-08-03T06:24:32.000Z</time>
</trkpt>
<trkpt lat="45.9530920" lon="10.1285530">
	<ele>1215.20</ele>
	<time>2025-08-03T06:24:33.000Z</time>
</trkpt>
<trkpt lat="45.9530870" lon="10.1285620">
	<ele>1215.40</ele>
	<time>2025-08-03T06:24:34.000Z</time>
</trkpt>
<trkpt lat="45.9530980" lon="10.1285670">
	<ele>1215.60</ele>
	<time>2025-08-03T06:24:35.000Z</time>
</trkpt>
<trkpt lat="45.9531000" lon="10.1285660">
	<ele>1215.80</ele>
	<time>2025-08-03T06:24:36.000Z</time>
</trkpt>
<trkpt lat="45.9531110" lon="10.1285600">
	<ele>1215.80</ele>
	<time>2025-08-03T06:24:37.000Z</time>
</trkpt>
<trkpt lat="45.9531130" lon="10.1285560">
	<ele>1216.00</ele>
	<time>2025-08-03T06:24:38.000Z</time>
</trkpt>
<trkpt lat="45.9531180" lon="10.1285410">
	<ele>1216.00</ele>
	<time>2025-08-03T06:24:39.000Z</time>
</trkpt>
<trkpt lat="45.9531290" lon="10.1285240">
	<ele>1216.40</ele>
	<time>2025-08-03T06:24:40.000Z</time>
</trkpt>
<trkpt lat="45.9531450" lon="10.1285120">
	<ele>1216.60</ele>
	<time>2025-08-03T06:24:41.000Z</time>
</trkpt>
<trkpt lat="45.9531580" lon="10.1284970">
	<ele>1216.60</ele>
	<time>2025-08-03T06:24:42.000Z</time>
</trkpt>
<trkpt lat="45.9531680" lon="10.1284860">
	<ele>1216.60</ele>
	<time>2025-08-03T06:24:43.000Z</time>
</trkpt>
<trkpt lat="45.9531770" lon="10.1284770">
	<ele>1216.60</ele>
	<time>2025-08-03T06:24:44.000Z</time>
</trkpt>
<trkpt lat="45.9531860" lon="10.1284680">
	<ele>1216.60</ele>
	<time>2025-08-03T06:24:45.000Z</time>
</trkpt>
<trkpt lat="45.9531930" lon="10.1284590">
	<ele>1216.40</ele>
	<time>2025-08-03T06:24:46.000Z</time>
</trkpt>
<trkpt lat="45.9531930" lon="10.1284550">
	<ele>1216.40</ele>
	<time>2025-08-03T06:24:47.000Z</time>
</trkpt>
<trkpt lat="45.9532050" lon="10.1284480">
	<ele>1216.40</ele>
	<time>2025-08-03T06:24:48.000Z</time>
</trkpt>
<trkpt lat="45.9532220" lon="10.1284400">
	<ele>1216.40</ele>
	<time>2025-08-03T06:24:49.000Z</time>
</trkpt>
<trkpt lat="45.9532360" lon="10.1284310">
	<ele>1216.40</ele>
	<time>2025-08-03T06:24:50.000Z</time>
</trkpt>
<trkpt lat="45.9532520" lon="10.1284160">
	<ele>1216.40</ele>
	<time>2025-08-03T06:24:51.000Z</time>
</trkpt>
<trkpt lat="45.9532630" lon="10.1283920">
	<ele>1216.60</ele>
	<time>2025-08-03T06:24:52.000Z</time>
</trkpt>
<trkpt lat="45.9532720" lon="10.1283600">
	<ele>1216.60</ele>
	<time>2025-08-03T06:24:53.000Z</time>
</trkpt>
<trkpt lat="45.9532700" lon="10.1283430">
	<ele>1216.60</ele>
	<time>2025-08-03T06:24:54.000Z</time>
</trkpt>
<trkpt lat="45.9532680" lon="10.1283430">
	<ele>1216.80</ele>
	<time>2025-08-03T06:24:55.000Z</time>
</trkpt>
<trkpt lat="45.9532760" lon="10.1283560">
	<ele>1216.80</ele>
	<time>2025-08-03T06:24:56.000Z</time>
</trkpt>
<trkpt lat="45.9532960" lon="10.1283690">
	<ele>1216.80</ele>
	<time>2025-08-03T06:24:57.000Z</time>
</trkpt>
<trkpt lat="45.9533090" lon="10.1283670">
	<ele>1216.80</ele>
	<time>2025-08-03T06:24:58.000Z</time>
</trkpt>
<trkpt lat="45.9533240" lon="10.1283610">
	<ele>1216.80</ele>
	<time>2025-08-03T06:24:59.000Z</time>
</trkpt>
<trkpt lat="45.9533350" lon="10.1283580">
	<ele>1216.80</ele>
	<time>2025-08-03T06:25:00.000Z</time>
</trkpt>
<trkpt lat="45.9533490" lon="10.1283560">
	<ele>1217.00</ele>
	<time>2025-08-03T06:25:01.000Z</time>
</trkpt>
<trkpt lat="45.9533530" lon="10.1283560">
	<ele>1217.00</ele>
	<time>2025-08-03T06:25:02.000Z</time>
</trkpt>
<trkpt lat="45.9533580" lon="10.1283530">
	<ele>1217.20</ele>
	<time>2025-08-03T06:25:03.000Z</time>
</trkpt>
<trkpt lat="45.9533620" lon="10.1283530">
	<ele>1217.20</ele>
	<time>2025-08-03T06:25:04.000Z</time>
</trkpt>
<trkpt lat="45.9533950" lon="10.1283730">
	<ele>1217.20</ele>
	<time>2025-08-03T06:25:05.000Z</time>
</trkpt>
<trkpt lat="45.9534080" lon="10.1283800">
	<ele>1217.40</ele>
	<time>2025-08-03T06:25:06.000Z</time>
</trkpt>
<trkpt lat="45.9534120" lon="10.1283840">
	<ele>1217.40</ele>
	<time>2025-08-03T06:25:07.000Z</time>
</trkpt>
<trkpt lat="45.9534310" lon="10.1283800">
	<ele>1217.40</ele>
	<time>2025-08-03T06:25:08.000Z</time>
</trkpt>
<trkpt lat="45.9534360" lon="10.1283820">
	<ele>1217.60</ele>
	<time>2025-08-03T06:25:09.000Z</time>
</trkpt>
<trkpt lat="45.9534480" lon="10.1283760">
	<ele>1217.80</ele>
	<time>2025-08-03T06:25:10.000Z</time>
</trkpt>
<trkpt lat="45.9534600" lon="10.1283740">
	<ele>1217.80</ele>
	<time>2025-08-03T06:25:11.000Z</time>
</trkpt>
<trkpt lat="45.9534780" lon="10.1283660">
	<ele>1218.00</ele>
	<time>2025-08-03T06:25:12.000Z</time>
</trkpt>
<trkpt lat="45.9535030" lon="10.1283520">
	<ele>1218.40</ele>
	<time>2025-08-03T06:25:13.000Z</time>
</trkpt>
<trkpt lat="45.9535260" lon="10.1283550">
	<ele>1218.60</ele>
	<time>2025-08-03T06:25:14.000Z</time>
</trkpt>
<trkpt lat="45.9535460" lon="10.1283500">
	<ele>1218.80</ele>
	<time>2025-08-03T06:25:15.000Z</time>
</trkpt>
<trkpt lat="45.9535650" lon="10.1283420">
	<ele>1219.00</ele>
	<time>2025-08-03T06:25:16.000Z</time>
</trkpt>
<trkpt lat="45.9535820" lon="10.1283350">
	<ele>1219.00</ele>
	<time>2025-08-03T06:25:17.000Z</time>
</trkpt>
<trkpt lat="45.9536000" lon="10.1283250">
	<ele>1219.00</ele>
	<time>2025-08-03T06:25:18.000Z</time>
</trkpt>
<trkpt lat="45.9536160" lon="10.1283260">
	<ele>1219.00</ele>
	<time>2025-08-03T06:25:19.000Z</time>
</trkpt>
<trkpt lat="45.9536300" lon="10.1283320">
	<ele>1219.20</ele>
	<time>2025-08-03T06:25:20.000Z</time>
</trkpt>
<trkpt lat="45.9536440" lon="10.1283350">
	<ele>1219.20</ele>
	<time>2025-08-03T06:25:21.000Z</time>
</trkpt>
<trkpt lat="45.9536650" lon="10.1283350">
	<ele>1219.40</ele>
	<time>2025-08-03T06:25:22.000Z</time>
</trkpt>
<trkpt lat="45.9536750" lon="10.1283290">
	<ele>1219.20</ele>
	<time>2025-08-03T06:25:23.000Z</time>
</trkpt>
<trkpt lat="45.9536780" lon="10.1283240">
	<ele>1219.20</ele>
	<time>2025-08-03T06:25:24.000Z</time>
</trkpt>
<trkpt lat="45.9536860" lon="10.1283140">
	<ele>1219.00</ele>
	<time>2025-08-03T06:25:25.000Z</time>
</trkpt>
<trkpt lat="45.9537000" lon="10.1283030">
	<ele>1219.00</ele>
	<time>2025-08-03T06:25:26.000Z</time>
</trkpt>
<trkpt lat="45.9537160" lon="10.1282950">
	<ele>1219.00</ele>
	<time>2025-08-03T06:25:27.000Z</time>
</trkpt>
<trkpt lat="45.9537450" lon="10.1282900">
	<ele>1219.00</ele>
	<time>2025-08-03T06:25:28.000Z</time>
</trkpt>
<trkpt lat="45.9537820" lon="10.1282860">
	<ele>1218.80</ele>
	<time>2025-08-03T06:25:29.000Z</time>
</trkpt>
<trkpt lat="45.9537970" lon="10.1282800">
	<ele>1218.80</ele>
	<time>2025-08-03T06:25:30.000Z</time>
</trkpt>
<trkpt lat="45.9537970" lon="10.1282740">
	<ele>1218.80</ele>
	<time>2025-08-03T06:25:31.000Z</time>
</trkpt>
<trkpt lat="45.9537970" lon="10.1282740">
	<ele>1218.80</ele>
	<time>2025-08-03T06:25:32.000Z</time>
</trkpt>
<trkpt lat="45.9537990" lon="10.1282740">
	<ele>1219.00</ele>
	<time>2025-08-03T06:25:33.000Z</time>
</trkpt>
<trkpt lat="45.9537920" lon="10.1282680">
	<ele>1219.40</ele>
	<time>2025-08-03T06:25:34.000Z</time>
</trkpt>
<trkpt lat="45.9537860" lon="10.1282640">
	<ele>1219.40</ele>
	<time>2025-08-03T06:25:35.000Z</time>
</trkpt>
<trkpt lat="45.9537850" lon="10.1282600">
	<ele>1219.60</ele>
	<time>2025-08-03T06:25:36.000Z</time>
</trkpt>
<trkpt lat="45.9537880" lon="10.1282580">
	<ele>1219.60</ele>
	<time>2025-08-03T06:25:37.000Z</time>
</trkpt>
<trkpt lat="45.9537810" lon="10.1282580">
	<ele>1219.60</ele>
	<time>2025-08-03T06:25:38.000Z</time>
</trkpt>
<trkpt lat="45.9537780" lon="10.1282560">
	<ele>1219.60</ele>
	<time>2025-08-03T06:25:39.000Z</time>
</trkpt>
<trkpt lat="45.9537690" lon="10.1282410">
	<ele>1219.60</ele>
	<time>2025-08-03T06:25:40.000Z</time>
</trkpt>
<trkpt lat="45.9537730" lon="10.1282480">
	<ele>1219.60</ele>
	<time>2025-08-03T06:25:41.000Z</time>
</trkpt>
<trkpt lat="45.9537760" lon="10.1282540">
	<ele>1219.60</ele>
	<time>2025-08-03T06:25:42.000Z</time>
</trkpt>
<trkpt lat="45.9537860" lon="10.1282640">
	<ele>1219.80</ele>
	<time>2025-08-03T06:25:43.000Z</time>
</trkpt>
<trkpt lat="45.9537970" lon="10.1282800">
	<ele>1219.80</ele>
	<time>2025-08-03T06:25:44.000Z</time>
</trkpt>
<trkpt lat="45.9538050" lon="10.1282900">
	<ele>1219.80</ele>
	<time>2025-08-03T06:25:45.000Z</time>
</trkpt>
<trkpt lat="45.9538220" lon="10.1282990">
	<ele>1219.80</ele>
	<time>2025-08-03T06:25:46.000Z</time>
</trkpt>
<trkpt lat="45.9538340" lon="10.1283010">
	<ele>1219.60</ele>
	<time>2025-08-03T06:25:47.000Z</time>
</trkpt>
<trkpt lat="45.9538600" lon="10.1282990">
	<ele>1219.40</ele>
	<time>2025-08-03T06:25:48.000Z</time>
</trkpt>
<trkpt lat="45.9538820" lon="10.1282950">
	<ele>1219.40</ele>
	<time>2025-08-03T06:25:49.000Z</time>
</trkpt>
<trkpt lat="45.9538960" lon="10.1282870">
	<ele>1219.20</ele>
	<time>2025-08-03T06:25:50.000Z</time>
</trkpt>
<trkpt lat="45.9539110" lon="10.1282850">
	<ele>1219.00</ele>
	<time>2025-08-03T06:25:51.000Z</time>
</trkpt>
<trkpt lat="45.9539350" lon="10.1282780">
	<ele>1219.00</ele>
	<time>2025-08-03T06:25:52.000Z</time>
</trkpt>
<trkpt lat="45.9539600" lon="10.1282740">
	<ele>1219.00</ele>
	<time>2025-08-03T06:25:53.000Z</time>
</trkpt>
<trkpt lat="45.9539770" lon="10.1282690">
	<ele>1218.80</ele>
	<time>2025-08-03T06:25:54.000Z</time>
</trkpt>
<trkpt lat="45.9539950" lon="10.1282610">
	<ele>1218.80</ele>
	<time>2025-08-03T06:25:55.000Z</time>
</trkpt>
<trkpt lat="45.9540120" lon="10.1282500">
	<ele>1218.80</ele>
	<time>2025-08-03T06:25:56.000Z</time>
</trkpt>
<trkpt lat="45.9540210" lon="10.1282300">
	<ele>1218.80</ele>
	<time>2025-08-03T06:25:57.000Z</time>
</trkpt>
<trkpt lat="45.9540370" lon="10.1282110">
	<ele>1218.80</ele>
	<time>2025-08-03T06:25:58.000Z</time>
</trkpt>
<trkpt lat="45.9540580" lon="10.1282010">
	<ele>1218.80</ele>
	<time>2025-08-03T06:25:59.000Z</time>
</trkpt>
<trkpt lat="45.9540750" lon="10.1281930">
	<ele>1218.80</ele>
	<time>2025-08-03T06:26:00.000Z</time>
</trkpt>
<trkpt lat="45.9540840" lon="10.1281790">
	<ele>1218.80</ele>
	<time>2025-08-03T06:26:01.000Z</time>
</trkpt>
<trkpt lat="45.9541000" lon="10.1281680">
	<ele>1218.80</ele>
	<time>2025-08-03T06:26:02.000Z</time>
</trkpt>
<trkpt lat="45.9541220" lon="10.1281700">
	<ele>1218.80</ele>
	<time>2025-08-03T06:26:03.000Z</time>
</trkpt>
<trkpt lat="45.9541510" lon="10.1281790">
	<ele>1218.80</ele>
	<time>2025-08-03T06:26:04.000Z</time>
</trkpt>
<trkpt lat="45.9541740" lon="10.1281780">
	<ele>1219.00</ele>
	<time>2025-08-03T06:26:05.000Z</time>
</trkpt>
<trkpt lat="45.9541980" lon="10.1281760">
	<ele>1219.20</ele>
	<time>2025-08-03T06:26:06.000Z</time>
</trkpt>
<trkpt lat="45.9542120" lon="10.1281660">
	<ele>1219.40</ele>
	<time>2025-08-03T06:26:07.000Z</time>
</trkpt>
<trkpt lat="45.9542150" lon="10.1281450">
	<ele>1219.40</ele>
	<time>2025-08-03T06:26:08.000Z</time>
</trkpt>
<trkpt lat="45.9542260" lon="10.1281220">
	<ele>1219.60</ele>
	<time>2025-08-03T06:26:09.000Z</time>
</trkpt>
<trkpt lat="45.9542380" lon="10.1280980">
	<ele>1219.80</ele>
	<time>2025-08-03T06:26:10.000Z</time>
</trkpt>
<trkpt lat="45.9542460" lon="10.1280760">
	<ele>1220.00</ele>
	<time>2025-08-03T06:26:11.000Z</time>
</trkpt>
<trkpt lat="45.9542500" lon="10.1280580">
	<ele>1220.20</ele>
	<time>2025-08-03T06:26:12.000Z</time>
</trkpt>
<trkpt lat="45.9542510" lon="10.1280440">
	<ele>1220.20</ele>
	<time>2025-08-03T06:26:13.000Z</time>
</trkpt>
<trkpt lat="45.9542470" lon="10.1280280">
	<ele>1220.40</ele>
	<time>2025-08-03T06:26:14.000Z</time>
</trkpt>
<trkpt lat="45.9542490" lon="10.1280100">
	<ele>1220.40</ele>
	<time>2025-08-03T06:26:15.000Z</time>
</trkpt>
<trkpt lat="45.9542470" lon="10.1279850">
	<ele>1220.40</ele>
	<time>2025-08-03T06:26:16.000Z</time>
</trkpt>
<trkpt lat="45.9542370" lon="10.1279560">
	<ele>1220.40</ele>
	<time>2025-08-03T06:26:17.000Z</time>
</trkpt>
<trkpt lat="45.9542280" lon="10.1279260">
	<ele>1220.40</ele>
	<time>2025-08-03T06:26:18.000Z</time>
</trkpt>
<trkpt lat="45.9542270" lon="10.1279040">
	<ele>1220.20</ele>
	<time>2025-08-03T06:26:19.000Z</time>
</trkpt>
<trkpt lat="45.9542270" lon="10.1278880">
	<ele>1220.20</ele>
	<time>2025-08-03T06:26:20.000Z</time>
</trkpt>
<trkpt lat="45.9542290" lon="10.1278740">
	<ele>1220.00</ele>
	<time>2025-08-03T06:26:21.000Z</time>
</trkpt>
<trkpt lat="45.9542340" lon="10.1278570">
	<ele>1220.00</ele>
	<time>2025-08-03T06:26:22.000Z</time>
</trkpt>
<trkpt lat="45.9542420" lon="10.1278420">
	<ele>1220.00</ele>
	<time>2025-08-03T06:26:23.000Z</time>
</trkpt>
<trkpt lat="45.9542510" lon="10.1278290">
	<ele>1220.20</ele>
	<time>2025-08-03T06:26:24.000Z</time>
</trkpt>
<trkpt lat="45.9542710" lon="10.1278070">
	<ele>1220.20</ele>
	<time>2025-08-03T06:26:25.000Z</time>
</trkpt>
<trkpt lat="45.9542760" lon="10.1277820">
	<ele>1220.20</ele>
	<time>2025-08-03T06:26:26.000Z</time>
</trkpt>
<trkpt lat="45.9542690" lon="10.1277610">
	<ele>1220.20</ele>
	<time>2025-08-03T06:26:27.000Z</time>
</trkpt>
<trkpt lat="45.9542690" lon="10.1277440">
	<ele>1220.20</ele>
	<time>2025-08-03T06:26:28.000Z</time>
</trkpt>
<trkpt lat="45.9542710" lon="10.1277200">
	<ele>1220.20</ele>
	<time>2025-08-03T06:26:29.000Z</time>
</trkpt>
<trkpt lat="45.9542680" lon="10.1277030">
	<ele>1220.20</ele>
	<time>2025-08-03T06:26:30.000Z</time>
</trkpt>
<trkpt lat="45.9542800" lon="10.1276900">
	<ele>1220.20</ele>
	<time>2025-08-03T06:26:31.000Z</time>
</trkpt>
<trkpt lat="45.9542920" lon="10.1276770">
	<ele>1220.20</ele>
	<time>2025-08-03T06:26:32.000Z</time>
</trkpt>
<trkpt lat="45.9543110" lon="10.1276630">
	<ele>1220.40</ele>
	<time>2025-08-03T06:26:33.000Z</time>
</trkpt>
<trkpt lat="45.9543270" lon="10.1276480">
	<ele>1220.60</ele>
	<time>2025-08-03T06:26:34.000Z</time>
</trkpt>
<trkpt lat="45.9543330" lon="10.1276380">
	<ele>1220.80</ele>
	<time>2025-08-03T06:26:35.000Z</time>
</trkpt>
<trkpt lat="45.9543470" lon="10.1276250">
	<ele>1220.80</ele>
	<time>2025-08-03T06:26:36.000Z</time>
</trkpt>
<trkpt lat="45.9543590" lon="10.1276100">
	<ele>1220.80</ele>
	<time>2025-08-03T06:26:37.000Z</time>
</trkpt>
<trkpt lat="45.9543630" lon="10.1275990">
	<ele>1220.80</ele>
	<time>2025-08-03T06:26:38.000Z</time>
</trkpt>
<trkpt lat="45.9543630" lon="10.1275850">
	<ele>1221.00</ele>
	<time>2025-08-03T06:26:39.000Z</time>
</trkpt>
<trkpt lat="45.9543560" lon="10.1275670">
	<ele>1221.00</ele>
	<time>2025-08-03T06:26:40.000Z</time>
</trkpt>
<trkpt lat="45.9543500" lon="10.1275480">
	<ele>1221.20</ele>
	<time>2025-08-03T06:26:41.000Z</time>
</trkpt>
<trkpt lat="45.9543710" lon="10.1275340">
	<ele>1221.20</ele>
	<time>2025-08-03T06:26:42.000Z</time>
</trkpt>
<trkpt lat="45.9543770" lon="10.1275180">
	<ele>1221.40</ele>
	<time>2025-08-03T06:26:43.000Z</time>
</trkpt>
<trkpt lat="45.9543910" lon="10.1275030">
	<ele>1221.40</ele>
	<time>2025-08-03T06:26:44.000Z</time>
</trkpt>
<trkpt lat="45.9544030" lon="10.1274890">
	<ele>1221.40</ele>
	<time>2025-08-03T06:26:45.000Z</time>
</trkpt>
<trkpt lat="45.9544150" lon="10.1274780">
	<ele>1221.40</ele>
	<time>2025-08-03T06:26:46.000Z</time>
</trkpt>
<trkpt lat="45.9544280" lon="10.1274660">
	<ele>1221.40</ele>
	<time>2025-08-03T06:26:47.000Z</time>
</trkpt>
<trkpt lat="45.9544290" lon="10.1274480">
	<ele>1221.60</ele>
	<time>2025-08-03T06:26:48.000Z</time>
</trkpt>
<trkpt lat="45.9544250" lon="10.1274280">
	<ele>1221.60</ele>
	<time>2025-08-03T06:26:49.000Z</time>
</trkpt>
<trkpt lat="45.9544170" lon="10.1274070">
	<ele>1221.60</ele>
	<time>2025-08-03T06:26:50.000Z</time>
</trkpt>
<trkpt lat="45.9544200" lon="10.1273920">
	<ele>1221.80</ele>
	<time>2025-08-03T06:26:51.000Z</time>
</trkpt>
<trkpt lat="45.9544240" lon="10.1273800">
	<ele>1221.80</ele>
	<time>2025-08-03T06:26:52.000Z</time>
</trkpt>
<trkpt lat="45.9544300" lon="10.1273670">
	<ele>1221.80</ele>
	<time>2025-08-03T06:26:53.000Z</time>
</trkpt>
<trkpt lat="45.9544420" lon="10.1273490">
	<ele>1222.00</ele>
	<time>2025-08-03T06:26:54.000Z</time>
</trkpt>
<trkpt lat="45.9544450" lon="10.1273250">
	<ele>1222.00</ele>
	<time>2025-08-03T06:26:55.000Z</time>
</trkpt>
<trkpt lat="45.9544420" lon="10.1273050">
	<ele>1222.00</ele>
	<time>2025-08-03T06:26:56.000Z</time>
</trkpt>
<trkpt lat="45.9544440" lon="10.1272790">
	<ele>1222.00</ele>
	<time>2025-08-03T06:26:57.000Z</time>
</trkpt>
<trkpt lat="45.9544540" lon="10.1272660">
	<ele>1222.00</ele>
	<time>2025-08-03T06:26:58.000Z</time>
</trkpt>
<trkpt lat="45.9544630" lon="10.1272510">
	<ele>1222.00</ele>
	<time>2025-08-03T06:26:59.000Z</time>
</trkpt>
<trkpt lat="45.9544800" lon="10.1272380">
	<ele>1222.00</ele>
	<time>2025-08-03T06:27:00.000Z</time>
</trkpt>
<trkpt lat="45.9544930" lon="10.1272250">
	<ele>1222.00</ele>
	<time>2025-08-03T06:27:01.000Z</time>
</trkpt>
<trkpt lat="45.9544990" lon="10.1272180">
	<ele>1222.00</ele>
	<time>2025-08-03T06:27:02.000Z</time>
</trkpt>
<trkpt lat="45.9545000" lon="10.1272150">
	<ele>1222.00</ele>
	<time>2025-08-03T06:27:03.000Z</time>
</trkpt>
<trkpt lat="45.9545090" lon="10.1272180">
	<ele>1222.00</ele>
	<time>2025-08-03T06:27:04.000Z</time>
</trkpt>
<trkpt lat="45.9545220" lon="10.1272210">
	<ele>1222.20</ele>
	<time>2025-08-03T06:27:05.000Z</time>
</trkpt>
<trkpt lat="45.9545380" lon="10.1272230">
	<ele>1222.20</ele>
	<time>2025-08-03T06:27:06.000Z</time>
</trkpt>
<trkpt lat="45.9545480" lon="10.1272170">
	<ele>1222.40</ele>
	<time>2025-08-03T06:27:07.000Z</time>
</trkpt>
<trkpt lat="45.9545600" lon="10.1272070">
	<ele>1222.40</ele>
	<time>2025-08-03T06:27:08.000Z</time>
</trkpt>
<trkpt lat="45.9545700" lon="10.1271900">
	<ele>1222.60</ele>
	<time>2025-08-03T06:27:09.000Z</time>
</trkpt>
<trkpt lat="45.9545750" lon="10.1271740">
	<ele>1222.60</ele>
	<time>2025-08-03T06:27:10.000Z</time>
</trkpt>
<trkpt lat="45.9545720" lon="10.1271670">
	<ele>1222.80</ele>
	<time>2025-08-03T06:27:11.000Z</time>
</trkpt>
<trkpt lat="45.9545740" lon="10.1271580">
	<ele>1223.00</ele>
	<time>2025-08-03T06:27:12.000Z</time>
</trkpt>
<trkpt lat="45.9545860" lon="10.1271450">
	<ele>1223.00</ele>
	<time>2025-08-03T06:27:13.000Z</time>
</trkpt>
<trkpt lat="45.9545890" lon="10.1271270">
	<ele>1223.20</ele>
	<time>2025-08-03T06:27:14.000Z</time>
</trkpt>
<trkpt lat="45.9545810" lon="10.1271060">
	<ele>1223.40</ele>
	<time>2025-08-03T06:27:15.000Z</time>
</trkpt>
<trkpt lat="45.9545850" lon="10.1270960">
	<ele>1223.60</ele>
	<time>2025-08-03T06:27:16.000Z</time>
</trkpt>
<trkpt lat="45.9545990" lon="10.1270850">
	<ele>1223.80</ele>
	<time>2025-08-03T06:27:17.000Z</time>
</trkpt>
<trkpt lat="45.9546140" lon="10.1270710">
	<ele>1223.80</ele>
	<time>2025-08-03T06:27:18.000Z</time>
</trkpt>
<trkpt lat="45.9546340" lon="10.1270550">
	<ele>1223.80</ele>
	<time>2025-08-03T06:27:19.000Z</time>
</trkpt>
<trkpt lat="45.9546560" lon="10.1270540">
	<ele>1224.00</ele>
	<time>2025-08-03T06:27:20.000Z</time>
</trkpt>
<trkpt lat="45.9546730" lon="10.1270400">
	<ele>1224.00</ele>
	<time>2025-08-03T06:27:21.000Z</time>
</trkpt>
<trkpt lat="45.9546790" lon="10.1270280">
	<ele>1224.00</ele>
	<time>2025-08-03T06:27:22.000Z</time>
</trkpt>
<trkpt lat="45.9546710" lon="10.1270130">
	<ele>1224.20</ele>
	<time>2025-08-03T06:27:23.000Z</time>
</trkpt>
<trkpt lat="45.9546650" lon="10.1270010">
	<ele>1224.20</ele>
	<time>2025-08-03T06:27:24.000Z</time>
</trkpt>
<trkpt lat="45.9546570" lon="10.1270040">
	<ele>1224.20</ele>
	<time>2025-08-03T06:27:25.000Z</time>
</trkpt>
<trkpt lat="45.9546340" lon="10.1270040">
	<ele>1224.20</ele>
	<time>2025-08-03T06:27:26.000Z</time>
</trkpt>
<trkpt lat="45.9546100" lon="10.1270030">
	<ele>1224.60</ele>
	<time>2025-08-03T06:27:27.000Z</time>
</trkpt>
<trkpt lat="45.9545970" lon="10.1270040">
	<ele>1224.80</ele>
	<time>2025-08-03T06:27:28.000Z</time>
</trkpt>
<trkpt lat="45.9545850" lon="10.1269950">
	<ele>1225.00</ele>
	<time>2025-08-03T06:27:29.000Z</time>
</trkpt>
<trkpt lat="45.9545700" lon="10.1269950">
	<ele>1225.00</ele>
	<time>2025-08-03T06:27:30.000Z</time>
</trkpt>
<trkpt lat="45.9545490" lon="10.1269920">
	<ele>1225.40</ele>
	<time>2025-08-03T06:27:31.000Z</time>
</trkpt>
<trkpt lat="45.9545340" lon="10.1269870">
	<ele>1225.60</ele>
	<time>2025-08-03T06:27:32.000Z</time>
</trkpt>
<trkpt lat="45.9545310" lon="10.1269750">
	<ele>1225.80</ele>
	<time>2025-08-03T06:27:33.000Z</time>
</trkpt>
<trkpt lat="45.9545300" lon="10.1269530">
	<ele>1226.20</ele>
	<time>2025-08-03T06:27:34.000Z</time>
</trkpt>
<trkpt lat="45.9545390" lon="10.1269390">
	<ele>1226.20</ele>
	<time>2025-08-03T06:27:35.000Z</time>
</trkpt>
<trkpt lat="45.9545390" lon="10.1269340">
	<ele>1226.40</ele>
	<time>2025-08-03T06:27:36.000Z</time>
</trkpt>
<trkpt lat="45.9545460" lon="10.1269260">
	<ele>1226.40</ele>
	<time>2025-08-03T06:27:37.000Z</time>
</trkpt>
<trkpt lat="45.9545490" lon="10.1269240">
	<ele>1226.40</ele>
	<time>2025-08-03T06:27:38.000Z</time>
</trkpt>
<trkpt lat="45.9545510" lon="10.1269230">
	<ele>1226.60</ele>
	<time>2025-08-03T06:27:39.000Z</time>
</trkpt>
<trkpt lat="45.9545610" lon="10.1269180">
	<ele>1226.60</ele>
	<time>2025-08-03T06:27:40.000Z</time>
</trkpt>
<trkpt lat="45.9545660" lon="10.1268990">
	<ele>1226.60</ele>
	<time>2025-08-03T06:27:41.000Z</time>
</trkpt>
<trkpt lat="45.9545660" lon="10.1268950">
	<ele>1226.80</ele>
	<time>2025-08-03T06:27:42.000Z</time>
</trkpt>
<trkpt lat="45.9545670" lon="10.1268870">
	<ele>1227.00</ele>
	<time>2025-08-03T06:27:43.000Z</time>
</trkpt>
<trkpt lat="45.9545690" lon="10.1268800">
	<ele>1227.00</ele>
	<time>2025-08-03T06:27:44.000Z</time>
</trkpt>
<trkpt lat="45.9545710" lon="10.1268710">
	<ele>1227.00</ele>
	<time>2025-08-03T06:27:45.000Z</time>
</trkpt>
<trkpt lat="45.9545730" lon="10.1268610">
	<ele>1227.20</ele>
	<time>2025-08-03T06:27:46.000Z</time>
</trkpt>
<trkpt lat="45.9545820" lon="10.1268490">
	<ele>1227.00</ele>
	<time>2025-08-03T06:27:47.000Z</time>
</trkpt>
<trkpt lat="45.9545820" lon="10.1268350">
	<ele>1226.80</ele>
	<time>2025-08-03T06:27:48.000Z</time>
</trkpt>
<trkpt lat="45.9545770" lon="10.1268250">
	<ele>1226.80</ele>
	<time>2025-08-03T06:27:49.000Z</time>
</trkpt>
<trkpt lat="45.9545690" lon="10.1268170">
	<ele>1226.80</ele>
	<time>2025-08-03T06:27:50.000Z</time>
</trkpt>
<trkpt lat="45.9545620" lon="10.1268040">
	<ele>1226.80</ele>
	<time>2025-08-03T06:27:51.000Z</time>
</trkpt>
<trkpt lat="45.9545570" lon="10.1267920">
	<ele>1227.00</ele>
	<time>2025-08-03T06:27:52.000Z</time>
</trkpt>
<trkpt lat="45.9545490" lon="10.1267740">
	<ele>1227.20</ele>
	<time>2025-08-03T06:27:53.000Z</time>
</trkpt>
<trkpt lat="45.9545430" lon="10.1267540">
	<ele>1227.40</ele>
	<time>2025-08-03T06:27:54.000Z</time>
</trkpt>
<trkpt lat="45.9545370" lon="10.1267430">
	<ele>1227.40</ele>
	<time>2025-08-03T06:27:55.000Z</time>
</trkpt>
<trkpt lat="45.9545450" lon="10.1267260">
	<ele>1227.40</ele>
	<time>2025-08-03T06:27:56.000Z</time>
</trkpt>
<trkpt lat="45.9545510" lon="10.1267050">
	<ele>1227.60</ele>
	<time>2025-08-03T06:27:57.000Z</time>
</trkpt>
<trkpt lat="45.9545500" lon="10.1266940">
	<ele>1227.60</ele>
	<time>2025-08-03T06:27:58.000Z</time>
</trkpt>
<trkpt lat="45.9545630" lon="10.1266900">
	<ele>1227.80</ele>
	<time>2025-08-03T06:27:59.000Z</time>
</trkpt>
<trkpt lat="45.9545610" lon="10.1266820">
	<ele>1228.00</ele>
	<time>2025-08-03T06:28:00.000Z</time>
</trkpt>
<trkpt lat="45.9545690" lon="10.1266790">
	<ele>1228.00</ele>
	<time>2025-08-03T06:28:01.000Z</time>
</trkpt>
<trkpt lat="45.9545760" lon="10.1266760">
	<ele>1228.20</ele>
	<time>2025-08-03T06:28:02.000Z</time>
</trkpt>
<trkpt lat="45.9545740" lon="10.1266710">
	<ele>1228.40</ele>
	<time>2025-08-03T06:28:03.000Z</time>
</trkpt>
<trkpt lat="45.9545660" lon="10.1266570">
	<ele>1228.60</ele>
	<time>2025-08-03T06:28:04.000Z</time>
</trkpt>
<trkpt lat="45.9545580" lon="10.1266380">
	<ele>1228.60</ele>
	<time>2025-08-03T06:28:05.000Z</time>
</trkpt>
<trkpt lat="45.9545600" lon="10.1266300">
	<ele>1228.80</ele>
	<time>2025-08-03T06:28:06.000Z</time>
</trkpt>
<trkpt lat="45.9545600" lon="10.1266170">
	<ele>1228.80</ele>
	<time>2025-08-03T06:28:07.000Z</time>
</trkpt>
<trkpt lat="45.9545670" lon="10.1266070">
	<ele>1229.00</ele>
	<time>2025-08-03T06:28:08.000Z</time>
</trkpt>
<trkpt lat="45.9545700" lon="10.1265940">
	<ele>1229.20</ele>
	<time>2025-08-03T06:28:09.000Z</time>
</trkpt>
<trkpt lat="45.9545690" lon="10.1265790">
	<ele>1229.40</ele>
	<time>2025-08-03T06:28:10.000Z</time>
</trkpt>
<trkpt lat="45.9545730" lon="10.1265640">
	<ele>1229.40</ele>
	<time>2025-08-03T06:28:11.000Z</time>
</trkpt>
<trkpt lat="45.9545970" lon="10.1265580">
	<ele>1229.60</ele>
	<time>2025-08-03T06:28:12.000Z</time>
</trkpt>
<trkpt lat="45.9546020" lon="10.1265530">
	<ele>1229.80</ele>
	<time>2025-08-03T06:28:13.000Z</time>
</trkpt>
<trkpt lat="45.9545900" lon="10.1265400">
	<ele>1229.80</ele>
	<time>2025-08-03T06:28:14.000Z</time>
</trkpt>
<trkpt lat="45.9545820" lon="10.1265340">
	<ele>1230.20</ele>
	<time>2025-08-03T06:28:15.000Z</time>
</trkpt>
<trkpt lat="45.9545770" lon="10.1265270">
	<ele>1230.20</ele>
	<time>2025-08-03T06:28:16.000Z</time>
</trkpt>
<trkpt lat="45.9545740" lon="10.1265000">
	<ele>1230.40</ele>
	<time>2025-08-03T06:28:17.000Z</time>
</trkpt>
<trkpt lat="45.9545840" lon="10.1264820">
	<ele>1230.60</ele>
	<time>2025-08-03T06:28:18.000Z</time>
</trkpt>
<trkpt lat="45.9545900" lon="10.1264590">
	<ele>1230.60</ele>
	<time>2025-08-03T06:28:19.000Z</time>
</trkpt>
<trkpt lat="45.9545930" lon="10.1264340">
	<ele>1230.60</ele>
	<time>2025-08-03T06:28:20.000Z</time>
</trkpt>
<trkpt lat="45.9546040" lon="10.1264100">
	<ele>1231.00</ele>
	<time>2025-08-03T06:28:21.000Z</time>
</trkpt>
<trkpt lat="45.9546180" lon="10.1263850">
	<ele>1231.00</ele>
	<time>2025-08-03T06:28:22.000Z</time>
</trkpt>
<trkpt lat="45.9546250" lon="10.1263620">
	<ele>1231.20</ele>
	<time>2025-08-03T06:28:23.000Z</time>
</trkpt>
<trkpt lat="45.9546350" lon="10.1263460">
	<ele>1231.20</ele>
	<time>2025-08-03T06:28:24.000Z</time>
</trkpt>
<trkpt lat="45.9546440" lon="10.1263260">
	<ele>1231.20</ele>
	<time>2025-08-03T06:28:25.000Z</time>
</trkpt>
<trkpt lat="45.9546580" lon="10.1263080">
	<ele>1231.40</ele>
	<time>2025-08-03T06:28:26.000Z</time>
</trkpt>
<trkpt lat="45.9546580" lon="10.1262860">
	<ele>1231.60</ele>
	<time>2025-08-03T06:28:27.000Z</time>
</trkpt>
<trkpt lat="45.9546600" lon="10.1262650">
	<ele>1231.80</ele>
	<time>2025-08-03T06:28:28.000Z</time>
</trkpt>
<trkpt lat="45.9546700" lon="10.1262520">
	<ele>1231.80</ele>
	<time>2025-08-03T06:28:29.000Z</time>
</trkpt>
<trkpt lat="45.9546750" lon="10.1262410">
	<ele>1232.00</ele>
	<time>2025-08-03T06:28:30.000Z</time>
</trkpt>
<trkpt lat="45.9546750" lon="10.1262230">
	<ele>1232.20</ele>
	<time>2025-08-03T06:28:31.000Z</time>
</trkpt>
<trkpt lat="45.9546880" lon="10.1262130">
	<ele>1232.40</ele>
	<time>2025-08-03T06:28:32.000Z</time>
</trkpt>
<trkpt lat="45.9546970" lon="10.1262070">
	<ele>1232.40</ele>
	<time>2025-08-03T06:28:33.000Z</time>
</trkpt>
<trkpt lat="45.9547070" lon="10.1261990">
	<ele>1232.80</ele>
	<time>2025-08-03T06:28:34.000Z</time>
</trkpt>
<trkpt lat="45.9547180" lon="10.1261840">
	<ele>1233.00</ele>
	<time>2025-08-03T06:28:35.000Z</time>
</trkpt>
<trkpt lat="45.9547270" lon="10.1261700">
	<ele>1233.20</ele>
	<time>2025-08-03T06:28:36.000Z</time>
</trkpt>
<trkpt lat="45.9547340" lon="10.1261610">
	<ele>1233.40</ele>
	<time>2025-08-03T06:28:37.000Z</time>
</trkpt>
<trkpt lat="45.9547260" lon="10.1261480">
	<ele>1233.60</ele>
	<time>2025-08-03T06:28:38.000Z</time>
</trkpt>
<trkpt lat="45.9547220" lon="10.1261290">
	<ele>1233.80</ele>
	<time>2025-08-03T06:28:39.000Z</time>
</trkpt>
<trkpt lat="45.9547170" lon="10.1261080">
	<ele>1233.80</ele>
	<time>2025-08-03T06:28:40.000Z</time>
</trkpt>
<trkpt lat="45.9547170" lon="10.1260890">
	<ele>1234.00</ele>
	<time>2025-08-03T06:28:41.000Z</time>
</trkpt>
<trkpt lat="45.9547350" lon="10.1260790">
	<ele>1234.20</ele>
	<time>2025-08-03T06:28:42.000Z</time>
</trkpt>
<trkpt lat="45.9547440" lon="10.1260730">
	<ele>1234.40</ele>
	<time>2025-08-03T06:28:43.000Z</time>
</trkpt>
<trkpt lat="45.9547350" lon="10.1260580">
	<ele>1234.40</ele>
	<time>2025-08-03T06:28:44.000Z</time>
</trkpt>
<trkpt lat="45.9547380" lon="10.1260480">
	<ele>1234.60</ele>
	<time>2025-08-03T06:28:45.000Z</time>
</trkpt>
<trkpt lat="45.9547330" lon="10.1260350">
	<ele>1234.80</ele>
	<time>2025-08-03T06:28:46.000Z</time>
</trkpt>
<trkpt lat="45.9547310" lon="10.1260250">
	<ele>1235.00</ele>
	<time>2025-08-03T06:28:47.000Z</time>
</trkpt>
<trkpt lat="45.9547260" lon="10.1260180">
	<ele>1235.20</ele>
	<time>2025-08-03T06:28:48.000Z</time>
</trkpt>
<trkpt lat="45.9547310" lon="10.1260110">
	<ele>1235.40</ele>
	<time>2025-08-03T06:28:49.000Z</time>
</trkpt>
<trkpt lat="45.9547620" lon="10.1260010">
	<ele>1235.60</ele>
	<time>2025-08-03T06:28:50.000Z</time>
</trkpt>
<trkpt lat="45.9547790" lon="10.1259920">
	<ele>1235.80</ele>
	<time>2025-08-03T06:28:51.000Z</time>
</trkpt>
<trkpt lat="45.9547840" lon="10.1259730">
	<ele>1235.80</ele>
	<time>2025-08-03T06:28:52.000Z</time>
</trkpt>
<trkpt lat="45.9547860" lon="10.1259600">
	<ele>1236.00</ele>
	<time>2025-08-03T06:28:53.000Z</time>
</trkpt>
<trkpt lat="45.9547840" lon="10.1259460">
	<ele>1236.00</ele>
	<time>2025-08-03T06:28:54.000Z</time>
</trkpt>
<trkpt lat="45.9547860" lon="10.1259270">
	<ele>1236.00</ele>
	<time>2025-08-03T06:28:55.000Z</time>
</trkpt>
<trkpt lat="45.9547930" lon="10.1259070">
	<ele>1236.00</ele>
	<time>2025-08-03T06:28:56.000Z</time>
</trkpt>
<trkpt lat="45.9547950" lon="10.1258900">
	<ele>1236.00</ele>
	<time>2025-08-03T06:28:57.000Z</time>
</trkpt>
<trkpt lat="45.9548120" lon="10.1258800">
	<ele>1236.20</ele>
	<time>2025-08-03T06:28:58.000Z</time>
</trkpt>
<trkpt lat="45.9548240" lon="10.1258690">
	<ele>1236.40</ele>
	<time>2025-08-03T06:28:59.000Z</time>
</trkpt>
<trkpt lat="45.9548290" lon="10.1258570">
	<ele>1236.40</ele>
	<time>2025-08-03T06:29:00.000Z</time>
</trkpt>
<trkpt lat="45.9548220" lon="10.1258350">
	<ele>1236.60</ele>
	<time>2025-08-03T06:29:01.000Z</time>
</trkpt>
<trkpt lat="45.9548180" lon="10.1258210">
	<ele>1236.80</ele>
	<time>2025-08-03T06:29:02.000Z</time>
</trkpt>
<trkpt lat="45.9548220" lon="10.1258090">
	<ele>1236.80</ele>
	<time>2025-08-03T06:29:03.000Z</time>
</trkpt>
<trkpt lat="45.9548360" lon="10.1257980">
	<ele>1237.00</ele>
	<time>2025-08-03T06:29:04.000Z</time>
</trkpt>
<trkpt lat="45.9548530" lon="10.1257910">
	<ele>1237.20</ele>
	<time>2025-08-03T06:29:05.000Z</time>
</trkpt>
<trkpt lat="45.9548660" lon="10.1257810">
	<ele>1237.20</ele>
	<time>2025-08-03T06:29:06.000Z</time>
</trkpt>
<trkpt lat="45.9548640" lon="10.1257650">
	<ele>1237.40</ele>
	<time>2025-08-03T06:29:07.000Z</time>
</trkpt>
<trkpt lat="45.9548530" lon="10.1257470">
	<ele>1237.60</ele>
	<time>2025-08-03T06:29:08.000Z</time>
</trkpt>
<trkpt lat="45.9548540" lon="10.1257480">
	<ele>1237.60</ele>
	<time>2025-08-03T06:29:09.000Z</time>
</trkpt>
<trkpt lat="45.9548550" lon="10.1257480">
	<ele>1237.80</ele>
	<time>2025-08-03T06:29:10.000Z</time>
</trkpt>
<trkpt lat="45.9548570" lon="10.1257470">
	<ele>1237.80</ele>
	<time>2025-08-03T06:29:11.000Z</time>
</trkpt>
<trkpt lat="45.9548550" lon="10.1257470">
	<ele>1238.00</ele>
	<time>2025-08-03T06:29:12.000Z</time>
</trkpt>
<trkpt lat="45.9548430" lon="10.1257450">
	<ele>1238.00</ele>
	<time>2025-08-03T06:29:13.000Z</time>
</trkpt>
<trkpt lat="45.9548270" lon="10.1257540">
	<ele>1238.00</ele>
	<time>2025-08-03T06:29:14.000Z</time>
</trkpt>
<trkpt lat="45.9548270" lon="10.1257590">
	<ele>1238.00</ele>
	<time>2025-08-03T06:29:15.000Z</time>
</trkpt>
<trkpt lat="45.9548260" lon="10.1257650">
	<ele>1238.20</ele>
	<time>2025-08-03T06:29:16.000Z</time>
</trkpt>
<trkpt lat="45.9548190" lon="10.1257700">
	<ele>1238.20</ele>
	<time>2025-08-03T06:29:17.000Z</time>
</trkpt>
<trkpt lat="45.9548200" lon="10.1257640">
	<ele>1238.20</ele>
	<time>2025-08-03T06:29:18.000Z</time>
</trkpt>
<trkpt lat="45.9548300" lon="10.1257550">
	<ele>1238.20</ele>
	<time>2025-08-03T06:29:19.000Z</time>
</trkpt>
<trkpt lat="45.9548520" lon="10.1257440">
	<ele>1238.20</ele>
	<time>2025-08-03T06:29:20.000Z</time>
</trkpt>
<trkpt lat="45.9548510" lon="10.1257230">
	<ele>1238.20</ele>
	<time>2025-08-03T06:29:21.000Z</time>
</trkpt>
<trkpt lat="45.9548550" lon="10.1257030">
	<ele>1238.40</ele>
	<time>2025-08-03T06:29:22.000Z</time>
</trkpt>
<trkpt lat="45.9548530" lon="10.1256810">
	<ele>1238.40</ele>
	<time>2025-08-03T06:29:23.000Z</time>
</trkpt>
<trkpt lat="45.9548530" lon="10.1256630">
	<ele>1238.60</ele>
	<time>2025-08-03T06:29:24.000Z</time>
</trkpt>
<trkpt lat="45.9548660" lon="10.1256480">
	<ele>1238.80</ele>
	<time>2025-08-03T06:29:25.000Z</time>
</trkpt>
<trkpt lat="45.9548770" lon="10.1256300">
	<ele>1238.80</ele>
	<time>2025-08-03T06:29:26.000Z</time>
</trkpt>
<trkpt lat="45.9548870" lon="10.1256170">
	<ele>1239.00</ele>
	<time>2025-08-03T06:29:27.000Z</time>
</trkpt>
<trkpt lat="45.9548910" lon="10.1256020">
	<ele>1239.00</ele>
	<time>2025-08-03T06:29:28.000Z</time>
</trkpt>
<trkpt lat="45.9548910" lon="10.1255800">
	<ele>1239.20</ele>
	<time>2025-08-03T06:29:29.000Z</time>
</trkpt>
<trkpt lat="45.9549010" lon="10.1255660">
	<ele>1239.40</ele>
	<time>2025-08-03T06:29:30.000Z</time>
</trkpt>
<trkpt lat="45.9549180" lon="10.1255540">
	<ele>1239.60</ele>
	<time>2025-08-03T06:29:31.000Z</time>
</trkpt>
<trkpt lat="45.9549330" lon="10.1255390">
	<ele>1239.80</ele>
	<time>2025-08-03T06:29:32.000Z</time>
</trkpt>
<trkpt lat="45.9549370" lon="10.1255150">
	<ele>1239.80</ele>
	<time>2025-08-03T06:29:33.000Z</time>
</trkpt>
<trkpt lat="45.9549410" lon="10.1254890">
	<ele>1240.00</ele>
	<time>2025-08-03T06:29:34.000Z</time>
</trkpt>
<trkpt lat="45.9549500" lon="10.1254760">
	<ele>1240.20</ele>
	<time>2025-08-03T06:29:35.000Z</time>
</trkpt>
<trkpt lat="45.9549450" lon="10.1254570">
	<ele>1240.20</ele>
	<time>2025-08-03T06:29:36.000Z</time>
</trkpt>
<trkpt lat="45.9549470" lon="10.1254440">
	<ele>1240.40</ele>
	<time>2025-08-03T06:29:37.000Z</time>
</trkpt>
<trkpt lat="45.9549550" lon="10.1254360">
	<ele>1240.60</ele>
	<time>2025-08-03T06:29:38.000Z</time>
</trkpt>
<trkpt lat="45.9549540" lon="10.1254280">
	<ele>1240.80</ele>
	<time>2025-08-03T06:29:39.000Z</time>
</trkpt>
<trkpt lat="45.9549540" lon="10.1254160">
	<ele>1240.80</ele>
	<time>2025-08-03T06:29:40.000Z</time>
</trkpt>
<trkpt lat="45.9549670" lon="10.1254020">
	<ele>1241.00</ele>
	<time>2025-08-03T06:29:41.000Z</time>
</trkpt>
<trkpt lat="45.9549800" lon="10.1253880">
	<ele>1241.20</ele>
	<time>2025-08-03T06:29:42.000Z</time>
</trkpt>
<trkpt lat="45.9549860" lon="10.1253750">
	<ele>1241.40</ele>
	<time>2025-08-03T06:29:43.000Z</time>
</trkpt>
<trkpt lat="45.9549880" lon="10.1253590">
	<ele>1241.60</ele>
	<time>2025-08-03T06:29:44.000Z</time>
</trkpt>
<trkpt lat="45.9549890" lon="10.1253450">
	<ele>1241.80</ele>
	<time>2025-08-03T06:29:45.000Z</time>
</trkpt>
<trkpt lat="45.9549950" lon="10.1253310">
	<ele>1242.00</ele>
	<time>2025-08-03T06:29:46.000Z</time>
</trkpt>
<trkpt lat="45.9550030" lon="10.1253210">
	<ele>1242.00</ele>
	<time>2025-08-03T06:29:47.000Z</time>
</trkpt>
<trkpt lat="45.9550050" lon="10.1253150">
	<ele>1242.20</ele>
	<time>2025-08-03T06:29:48.000Z</time>
</trkpt>
<trkpt lat="45.9550060" lon="10.1253060">
	<ele>1242.60</ele>
	<time>2025-08-03T06:29:49.000Z</time>
</trkpt>
<trkpt lat="45.9550100" lon="10.1252950">
	<ele>1242.80</ele>
	<time>2025-08-03T06:29:50.000Z</time>
</trkpt>
<trkpt lat="45.9550160" lon="10.1252850">
	<ele>1243.00</ele>
	<time>2025-08-03T06:29:51.000Z</time>
</trkpt>
<trkpt lat="45.9550200" lon="10.1252750">
	<ele>1243.20</ele>
	<time>2025-08-03T06:29:52.000Z</time>
</trkpt>
<trkpt lat="45.9550190" lon="10.1252580">
	<ele>1243.40</ele>
	<time>2025-08-03T06:29:53.000Z</time>
</trkpt>
<trkpt lat="45.9550210" lon="10.1252410">
	<ele>1243.40</ele>
	<time>2025-08-03T06:29:54.000Z</time>
</trkpt>
<trkpt lat="45.9550180" lon="10.1252270">
	<ele>1243.60</ele>
	<time>2025-08-03T06:29:55.000Z</time>
</trkpt>
<trkpt lat="45.9550030" lon="10.1252100">
	<ele>1243.60</ele>
	<time>2025-08-03T06:29:56.000Z</time>
</trkpt>
<trkpt lat="45.9549940" lon="10.1251940">
	<ele>1243.80</ele>
	<time>2025-08-03T06:29:57.000Z</time>
</trkpt>
<trkpt lat="45.9549960" lon="10.1251770">
	<ele>1244.00</ele>
	<time>2025-08-03T06:29:58.000Z</time>
</trkpt>
<trkpt lat="45.9550010" lon="10.1251620">
	<ele>1244.20</ele>
	<time>2025-08-03T06:29:59.000Z</time>
</trkpt>
<trkpt lat="45.9550070" lon="10.1251450">
	<ele>1244.40</ele>
	<time>2025-08-03T06:30:00.000Z</time>
</trkpt>
<trkpt lat="45.9550120" lon="10.1251270">
	<ele>1244.60</ele>
	<time>2025-08-03T06:30:01.000Z</time>
</trkpt>
<trkpt lat="45.9550090" lon="10.1251060">
	<ele>1244.80</ele>
	<time>2025-08-03T06:30:02.000Z</time>
</trkpt>
<trkpt lat="45.9550050" lon="10.1250870">
	<ele>1244.80</ele>
	<time>2025-08-03T06:30:03.000Z</time>
</trkpt>
<trkpt lat="45.9550000" lon="10.1250700">
	<ele>1245.20</ele>
	<time>2025-08-03T06:30:04.000Z</time>
</trkpt>
<trkpt lat="45.9549930" lon="10.1250530">
	<ele>1245.20</ele>
	<time>2025-08-03T06:30:05.000Z</time>
</trkpt>
<trkpt lat="45.9549880" lon="10.1250370">
	<ele>1245.40</ele>
	<time>2025-08-03T06:30:06.000Z</time>
</trkpt>
<trkpt lat="45.9549860" lon="10.1250240">
	<ele>1245.60</ele>
	<time>2025-08-03T06:30:07.000Z</time>
</trkpt>
<trkpt lat="45.9549820" lon="10.1250110">
	<ele>1245.80</ele>
	<time>2025-08-03T06:30:08.000Z</time>
</trkpt>
<trkpt lat="45.9549660" lon="10.1249920">
	<ele>1246.00</ele>
	<time>2025-08-03T06:30:09.000Z</time>
</trkpt>
<trkpt lat="45.9549580" lon="10.1249780">
	<ele>1246.20</ele>
	<time>2025-08-03T06:30:10.000Z</time>
</trkpt>
<trkpt lat="45.9549680" lon="10.1249770">
	<ele>1246.20</ele>
	<time>2025-08-03T06:30:11.000Z</time>
</trkpt>
<trkpt lat="45.9549700" lon="10.1249720">
	<ele>1246.40</ele>
	<time>2025-08-03T06:30:12.000Z</time>
</trkpt>
<trkpt lat="45.9549640" lon="10.1249700">
	<ele>1246.60</ele>
	<time>2025-08-03T06:30:13.000Z</time>
</trkpt>
<trkpt lat="45.9549570" lon="10.1249570">
	<ele>1246.80</ele>
	<time>2025-08-03T06:30:14.000Z</time>
</trkpt>
<trkpt lat="45.9549650" lon="10.1249470">
	<ele>1247.00</ele>
	<time>2025-08-03T06:30:15.000Z</time>
</trkpt>
<trkpt lat="45.9549720" lon="10.1249290">
	<ele>1247.00</ele>
	<time>2025-08-03T06:30:16.000Z</time>
</trkpt>
<trkpt lat="45.9549940" lon="10.1249070">
	<ele>1247.20</ele>
	<time>2025-08-03T06:30:17.000Z</time>
</trkpt>
<trkpt lat="45.9549930" lon="10.1248890">
	<ele>1247.40</ele>
	<time>2025-08-03T06:30:18.000Z</time>
</trkpt>
<trkpt lat="45.9549850" lon="10.1248790">
	<ele>1247.60</ele>
	<time>2025-08-03T06:30:19.000Z</time>
</trkpt>
<trkpt lat="45.9549900" lon="10.1248740">
	<ele>1247.80</ele>
	<time>2025-08-03T06:30:20.000Z</time>
</trkpt>
<trkpt lat="45.9549930" lon="10.1248690">
	<ele>1248.20</ele>
	<time>2025-08-03T06:30:21.000Z</time>
</trkpt>
<trkpt lat="45.9550020" lon="10.1248610">
	<ele>1248.40</ele>
	<time>2025-08-03T06:30:22.000Z</time>
</trkpt>
<trkpt lat="45.9550140" lon="10.1248440">
	<ele>1248.40</ele>
	<time>2025-08-03T06:30:23.000Z</time>
</trkpt>
<trkpt lat="45.9550160" lon="10.1248240">
	<ele>1248.60</ele>
	<time>2025-08-03T06:30:24.000Z</time>
</trkpt>
<trkpt lat="45.9550220" lon="10.1248170">
	<ele>1248.60</ele>
	<time>2025-08-03T06:30:25.000Z</time>
</trkpt>
<trkpt lat="45.9550300" lon="10.1248100">
	<ele>1248.80</ele>
	<time>2025-08-03T06:30:26.000Z</time>
</trkpt>
<trkpt lat="45.9550320" lon="10.1247850">
	<ele>1249.00</ele>
	<time>2025-08-03T06:30:27.000Z</time>
</trkpt>
<trkpt lat="45.9550360" lon="10.1247700">
	<ele>1249.20</ele>
	<time>2025-08-03T06:30:28.000Z</time>
</trkpt>
<trkpt lat="45.9550310" lon="10.1247580">
	<ele>1249.60</ele>
	<time>2025-08-03T06:30:29.000Z</time>
</trkpt>
<trkpt lat="45.9550250" lon="10.1247410">
	<ele>1249.60</ele>
	<time>2025-08-03T06:30:30.000Z</time>
</trkpt>
<trkpt lat="45.9550400" lon="10.1247390">
	<ele>1249.80</ele>
	<time>2025-08-03T06:30:31.000Z</time>
</trkpt>
<trkpt lat="45.9550500" lon="10.1247280">
	<ele>1250.00</ele>
	<time>2025-08-03T06:30:32.000Z</time>
</trkpt>
<trkpt lat="45.9550620" lon="10.1247190">
	<ele>1250.20</ele>
	<time>2025-08-03T06:30:33.000Z</time>
</trkpt>
<trkpt lat="45.9550780" lon="10.1247180">
	<ele>1250.40</ele>
	<time>2025-08-03T06:30:34.000Z</time>
</trkpt>
<trkpt lat="45.9550890" lon="10.1247110">
	<ele>1250.60</ele>
	<time>2025-08-03T06:30:35.000Z</time>
</trkpt>
<trkpt lat="45.9550840" lon="10.1246960">
	<ele>1251.00</ele>
	<time>2025-08-03T06:30:36.000Z</time>
</trkpt>
<trkpt lat="45.9550810" lon="10.1246840">
	<ele>1251.20</ele>
	<time>2025-08-03T06:30:37.000Z</time>
</trkpt>
<trkpt lat="45.9550800" lon="10.1246750">
	<ele>1251.60</ele>
	<time>2025-08-03T06:30:38.000Z</time>
</trkpt>
<trkpt lat="45.9550620" lon="10.1246560">
	<ele>1252.00</ele>
	<time>2025-08-03T06:30:39.000Z</time>
</trkpt>
<trkpt lat="45.9550590" lon="10.1246400">
	<ele>1252.00</ele>
	<time>2025-08-03T06:30:40.000Z</time>
</trkpt>
<trkpt lat="45.9550580" lon="10.1246260">
	<ele>1252.40</ele>
	<time>2025-08-03T06:30:41.000Z</time>
</trkpt>
<trkpt lat="45.9550640" lon="10.1246140">
	<ele>1252.60</ele>
	<time>2025-08-03T06:30:42.000Z</time>
</trkpt>
<trkpt lat="45.9550630" lon="10.1246030">
	<ele>1252.80</ele>
	<time>2025-08-03T06:30:43.000Z</time>
</trkpt>
<trkpt lat="45.9550690" lon="10.1246020">
	<ele>1253.00</ele>
	<time>2025-08-03T06:30:44.000Z</time>
</trkpt>
<trkpt lat="45.9550770" lon="10.1246010">
	<ele>1253.00</ele>
	<time>2025-08-03T06:30:45.000Z</time>
</trkpt>
<trkpt lat="45.9550840" lon="10.1245950">
	<ele>1253.40</ele>
	<time>2025-08-03T06:30:46.000Z</time>
</trkpt>
<trkpt lat="45.9550870" lon="10.1245880">
	<ele>1253.60</ele>
	<time>2025-08-03T06:30:47.000Z</time>
</trkpt>
<trkpt lat="45.9550920" lon="10.1245820">
	<ele>1253.80</ele>
	<time>2025-08-03T06:30:48.000Z</time>
</trkpt>
<trkpt lat="45.9551000" lon="10.1245780">
	<ele>1253.80</ele>
	<time>2025-08-03T06:30:49.000Z</time>
</trkpt>
<trkpt lat="45.9551150" lon="10.1245790">
	<ele>1254.00</ele>
	<time>2025-08-03T06:30:50.000Z</time>
</trkpt>
<trkpt lat="45.9551260" lon="10.1245750">
	<ele>1254.20</ele>
	<time>2025-08-03T06:30:51.000Z</time>
</trkpt>
<trkpt lat="45.9551420" lon="10.1245750">
	<ele>1254.40</ele>
	<time>2025-08-03T06:30:52.000Z</time>
</trkpt>
<trkpt lat="45.9551570" lon="10.1245710">
	<ele>1254.60</ele>
	<time>2025-08-03T06:30:53.000Z</time>
</trkpt>
<trkpt lat="45.9551650" lon="10.1245600">
	<ele>1254.80</ele>
	<time>2025-08-03T06:30:54.000Z</time>
</trkpt>
<trkpt lat="45.9551730" lon="10.1245500">
	<ele>1255.00</ele>
	<time>2025-08-03T06:30:55.000Z</time>
</trkpt>
<trkpt lat="45.9551860" lon="10.1245450">
	<ele>1255.00</ele>
	<time>2025-08-03T06:30:56.000Z</time>
</trkpt>
<trkpt lat="45.9551960" lon="10.1245400">
	<ele>1255.20</ele>
	<time>2025-08-03T06:30:57.000Z</time>
</trkpt>
<trkpt lat="45.9551910" lon="10.1245220">
	<ele>1255.20</ele>
	<time>2025-08-03T06:30:58.000Z</time>
</trkpt>
<trkpt lat="45.9551940" lon="10.1245120">
	<ele>1255.20</ele>
	<time>2025-08-03T06:30:59.000Z</time>
</trkpt>
<trkpt lat="45.9552030" lon="10.1245040">
	<ele>1255.40</ele>
	<time>2025-08-03T06:31:00.000Z</time>
</trkpt>
<trkpt lat="45.9552130" lon="10.1244940">
	<ele>1255.60</ele>
	<time>2025-08-03T06:31:01.000Z</time>
</trkpt>
<trkpt lat="45.9552170" lon="10.1244740">
	<ele>1255.60</ele>
	<time>2025-08-03T06:31:02.000Z</time>
</trkpt>
<trkpt lat="45.9552200" lon="10.1244610">
	<ele>1255.80</ele>
	<time>2025-08-03T06:31:03.000Z</time>
</trkpt>
<trkpt lat="45.9552210" lon="10.1244530">
	<ele>1256.00</ele>
	<time>2025-08-03T06:31:04.000Z</time>
</trkpt>
<trkpt lat="45.9552140" lon="10.1244390">
	<ele>1256.00</ele>
	<time>2025-08-03T06:31:05.000Z</time>
</trkpt>
<trkpt lat="45.9552080" lon="10.1244270">
	<ele>1256.00</ele>
	<time>2025-08-03T06:31:06.000Z</time>
</trkpt>
<trkpt lat="45.9552120" lon="10.1244210">
	<ele>1256.20</ele>
	<time>2025-08-03T06:31:07.000Z</time>
</trkpt>
<trkpt lat="45.9552140" lon="10.1244160">
	<ele>1256.40</ele>
	<time>2025-08-03T06:31:08.000Z</time>
</trkpt>
<trkpt lat="45.9552130" lon="10.1244080">
	<ele>1256.60</ele>
	<time>2025-08-03T06:31:09.000Z</time>
</trkpt>
<trkpt lat="45.9552060" lon="10.1244020">
	<ele>1256.80</ele>
	<time>2025-08-03T06:31:10.000Z</time>
</trkpt>
<trkpt lat="45.9552020" lon="10.1244000">
	<ele>1256.80</ele>
	<time>2025-08-03T06:31:11.000Z</time>
</trkpt>
<trkpt lat="45.9551970" lon="10.1244010">
	<ele>1256.80</ele>
	<time>2025-08-03T06:31:12.000Z</time>
</trkpt>
<trkpt lat="45.9551930" lon="10.1243940">
	<ele>1256.80</ele>
	<time>2025-08-03T06:31:13.000Z</time>
</trkpt>
<trkpt lat="45.9551880" lon="10.1243840">
	<ele>1256.80</ele>
	<time>2025-08-03T06:31:14.000Z</time>
</trkpt>
<trkpt lat="45.9551770" lon="10.1243690">
	<ele>1256.80</ele>
	<time>2025-08-03T06:31:15.000Z</time>
</trkpt>
<trkpt lat="45.9551660" lon="10.1243540">
	<ele>1256.60</ele>
	<time>2025-08-03T06:31:16.000Z</time>
</trkpt>
<trkpt lat="45.9551460" lon="10.1243370">
	<ele>1256.60</ele>
	<time>2025-08-03T06:31:17.000Z</time>
</trkpt>
<trkpt lat="45.9551350" lon="10.1243240">
	<ele>1256.60</ele>
	<time>2025-08-03T06:31:18.000Z</time>
</trkpt>
<trkpt lat="45.9551370" lon="10.1243110">
	<ele>1256.60</ele>
	<time>2025-08-03T06:31:19.000Z</time>
</trkpt>
<trkpt lat="45.9551420" lon="10.1243000">
	<ele>1256.60</ele>
	<time>2025-08-03T06:31:20.000Z</time>
</trkpt>
<trkpt lat="45.9551420" lon="10.1242920">
	<ele>1256.60</ele>
	<time>2025-08-03T06:31:21.000Z</time>
</trkpt>
<trkpt lat="45.9551270" lon="10.1242790">
	<ele>1256.60</ele>
	<time>2025-08-03T06:31:22.000Z</time>
</trkpt>
<trkpt lat="45.9551210" lon="10.1242680">
	<ele>1256.80</ele>
	<time>2025-08-03T06:31:23.000Z</time>
</trkpt>
<trkpt lat="45.9551240" lon="10.1242540">
	<ele>1256.80</ele>
	<time>2025-08-03T06:31:24.000Z</time>
</trkpt>
<trkpt lat="45.9551320" lon="10.1242440">
	<ele>1257.00</ele>
	<time>2025-08-03T06:31:25.000Z</time>
</trkpt>
<trkpt lat="45.9551360" lon="10.1242290">
	<ele>1257.00</ele>
	<time>2025-08-03T06:31:26.000Z</time>
</trkpt>
<trkpt lat="45.9551330" lon="10.1242160">
	<ele>1257.00</ele>
	<time>2025-08-03T06:31:27.000Z</time>
</trkpt>
<trkpt lat="45.9551410" lon="10.1242050">
	<ele>1257.20</ele>
	<time>2025-08-03T06:31:28.000Z</time>
</trkpt>
<trkpt lat="45.9551490" lon="10.1241910">
	<ele>1257.20</ele>
	<time>2025-08-03T06:31:29.000Z</time>
</trkpt>
<trkpt lat="45.9551530" lon="10.1241770">
	<ele>1257.20</ele>
	<time>2025-08-03T06:31:30.000Z</time>
</trkpt>
<trkpt lat="45.9551600" lon="10.1241640">
	<ele>1257.20</ele>
	<time>2025-08-03T06:31:31.000Z</time>
</trkpt>
<trkpt lat="45.9551640" lon="10.1241510">
	<ele>1257.40</ele>
	<time>2025-08-03T06:31:32.000Z</time>
</trkpt>
<trkpt lat="45.9551700" lon="10.1241400">
	<ele>1257.40</ele>
	<time>2025-08-03T06:31:33.000Z</time>
</trkpt>
<trkpt lat="45.9551800" lon="10.1241280">
	<ele>1257.60</ele>
	<time>2025-08-03T06:31:34.000Z</time>
</trkpt>
<trkpt lat="45.9551880" lon="10.1241170">
	<ele>1257.60</ele>
	<time>2025-08-03T06:31:35.000Z</time>
</trkpt>
<trkpt lat="45.9551930" lon="10.1241000">
	<ele>1257.80</ele>
	<time>2025-08-03T06:31:36.000Z</time>
</trkpt>
<trkpt lat="45.9552020" lon="10.1240850">
	<ele>1257.80</ele>
	<time>2025-08-03T06:31:37.000Z</time>
</trkpt>
<trkpt lat="45.9552040" lon="10.1240680">
	<ele>1257.80</ele>
	<time>2025-08-03T06:31:38.000Z</time>
</trkpt>
<trkpt lat="45.9552090" lon="10.1240600">
	<ele>1258.00</ele>
	<time>2025-08-03T06:31:39.000Z</time>
</trkpt>
<trkpt lat="45.9552180" lon="10.1240540">
	<ele>1258.00</ele>
	<time>2025-08-03T06:31:40.000Z</time>
</trkpt>
<trkpt lat="45.9552080" lon="10.1240380">
	<ele>1258.00</ele>
	<time>2025-08-03T06:31:41.000Z</time>
</trkpt>
<trkpt lat="45.9552130" lon="10.1240300">
	<ele>1258.20</ele>
	<time>2025-08-03T06:31:42.000Z</time>
</trkpt>
<trkpt lat="45.9552200" lon="10.1240230">
	<ele>1258.20</ele>
	<time>2025-08-03T06:31:43.000Z</time>
</trkpt>
<trkpt lat="45.9552300" lon="10.1240100">
	<ele>1258.40</ele>
	<time>2025-08-03T06:31:44.000Z</time>
</trkpt>
<trkpt lat="45.9552440" lon="10.1239940">
	<ele>1258.40</ele>
	<time>2025-08-03T06:31:45.000Z</time>
</trkpt>
<trkpt lat="45.9552590" lon="10.1239790">
	<ele>1258.60</ele>
	<time>2025-08-03T06:31:46.000Z</time>
</trkpt>
<trkpt lat="45.9552620" lon="10.1239550">
	<ele>1258.60</ele>
	<time>2025-08-03T06:31:47.000Z</time>
</trkpt>
<trkpt lat="45.9552580" lon="10.1239190">
	<ele>1258.60</ele>
	<time>2025-08-03T06:31:48.000Z</time>
</trkpt>
<trkpt lat="45.9552650" lon="10.1239060">
	<ele>1258.60</ele>
	<time>2025-08-03T06:31:49.000Z</time>
</trkpt>
<trkpt lat="45.9552810" lon="10.1238970">
	<ele>1258.80</ele>
	<time>2025-08-03T06:31:50.000Z</time>
</trkpt>
<trkpt lat="45.9552960" lon="10.1239030">
	<ele>1259.00</ele>
	<time>2025-08-03T06:31:51.000Z</time>
</trkpt>
<trkpt lat="45.9553050" lon="10.1239080">
	<ele>1259.00</ele>
	<time>2025-08-03T06:31:52.000Z</time>
</trkpt>
<trkpt lat="45.9553080" lon="10.1239090">
	<ele>1259.00</ele>
	<time>2025-08-03T06:31:53.000Z</time>
</trkpt>
<trkpt lat="45.9553140" lon="10.1238880">
	<ele>1259.00</ele>
	<time>2025-08-03T06:31:54.000Z</time>
</trkpt>
<trkpt lat="45.9553270" lon="10.1238740">
	<ele>1259.20</ele>
	<time>2025-08-03T06:31:55.000Z</time>
</trkpt>
<trkpt lat="45.9553370" lon="10.1238630">
	<ele>1259.20</ele>
	<time>2025-08-03T06:31:56.000Z</time>
</trkpt>
<trkpt lat="45.9553550" lon="10.1238480">
	<ele>1259.20</ele>
	<time>2025-08-03T06:31:57.000Z</time>
</trkpt>
<trkpt lat="45.9553760" lon="10.1238370">
	<ele>1259.40</ele>
	<time>2025-08-03T06:31:58.000Z</time>
</trkpt>
<trkpt lat="45.9553830" lon="10.1238240">
	<ele>1259.40</ele>
	<time>2025-08-03T06:31:59.000Z</time>
</trkpt>
<trkpt lat="45.9553880" lon="10.1238110">
	<ele>1259.80</ele>
	<time>2025-08-03T06:32:00.000Z</time>
</trkpt>
<trkpt lat="45.9554010" lon="10.1237990">
	<ele>1259.80</ele>
	<time>2025-08-03T06:32:01.000Z</time>
</trkpt>
<trkpt lat="45.9554080" lon="10.1237890">
	<ele>1260.00</ele>
	<time>2025-08-03T06:32:02.000Z</time>
</trkpt>
<trkpt lat="45.9554160" lon="10.1237730">
	<ele>1260.00</ele>
	<time>2025-08-03T06:32:03.000Z</time>
</trkpt>
<trkpt lat="45.9554310" lon="10.1237570">
	<ele>1260.20</ele>
	<time>2025-08-03T06:32:04.000Z</time>
</trkpt>
<trkpt lat="45.9554420" lon="10.1237420">
	<ele>1260.20</ele>
	<time>2025-08-03T06:32:05.000Z</time>
</trkpt>
<trkpt lat="45.9554600" lon="10.1237330">
	<ele>1260.40</ele>
	<time>2025-08-03T06:32:06.000Z</time>
</trkpt>
<trkpt lat="45.9554760" lon="10.1237270">
	<ele>1260.40</ele>
	<time>2025-08-03T06:32:07.000Z</time>
</trkpt>
<trkpt lat="45.9554920" lon="10.1237270">
	<ele>1260.60</ele>
	<time>2025-08-03T06:32:08.000Z</time>
</trkpt>
<trkpt lat="45.9555050" lon="10.1237140">
	<ele>1260.60</ele>
	<time>2025-08-03T06:32:09.000Z</time>
</trkpt>
<trkpt lat="45.9555030" lon="10.1237010">
	<ele>1260.80</ele>
	<time>2025-08-03T06:32:10.000Z</time>
</trkpt>
<trkpt lat="45.9554950" lon="10.1236930">
	<ele>1261.00</ele>
	<time>2025-08-03T06:32:11.000Z</time>
</trkpt>
<trkpt lat="45.9554970" lon="10.1236930">
	<ele>1261.20</ele>
	<time>2025-08-03T06:32:12.000Z</time>
</trkpt>
<trkpt lat="45.9554710" lon="10.1236920">
	<ele>1261.20</ele>
	<time>2025-08-03T06:32:13.000Z</time>
</trkpt>
<trkpt lat="45.9554670" lon="10.1236890">
	<ele>1261.40</ele>
	<time>2025-08-03T06:32:14.000Z</time>
</trkpt>
<trkpt lat="45.9554690" lon="10.1236900">
	<ele>1261.40</ele>
	<time>2025-08-03T06:32:15.000Z</time>
</trkpt>
<trkpt lat="45.9554700" lon="10.1236930">
	<ele>1261.40</ele>
	<time>2025-08-03T06:32:16.000Z</time>
</trkpt>
<trkpt lat="45.9554690" lon="10.1236920">
	<ele>1261.60</ele>
	<time>2025-08-03T06:32:17.000Z</time>
</trkpt>
<trkpt lat="45.9554760" lon="10.1236840">
	<ele>1261.60</ele>
	<time>2025-08-03T06:32:18.000Z</time>
</trkpt>
<trkpt lat="45.9554900" lon="10.1236720">
	<ele>1261.60</ele>
	<time>2025-08-03T06:32:19.000Z</time>
</trkpt>
<trkpt lat="45.9554990" lon="10.1236590">
	<ele>1261.60</ele>
	<time>2025-08-03T06:32:20.000Z</time>
</trkpt>
<trkpt lat="45.9555210" lon="10.1236590">
	<ele>1261.40</ele>
	<time>2025-08-03T06:32:21.000Z</time>
</trkpt>
<trkpt lat="45.9555060" lon="10.1236520">
	<ele>1261.40</ele>
	<time>2025-08-03T06:32:22.000Z</time>
</trkpt>
<trkpt lat="45.9555000" lon="10.1236410">
	<ele>1261.40</ele>
	<time>2025-08-03T06:32:23.000Z</time>
</trkpt>
<trkpt lat="45.9555040" lon="10.1236310">
	<ele>1261.40</ele>
	<time>2025-08-03T06:32:24.000Z</time>
</trkpt>
<trkpt lat="45.9555150" lon="10.1236270">
	<ele>1261.40</ele>
	<time>2025-08-03T06:32:25.000Z</time>
</trkpt>
<trkpt lat="45.9555240" lon="10.1236150">
	<ele>1261.40</ele>
	<time>2025-08-03T06:32:26.000Z</time>
</trkpt>
<trkpt lat="45.9555350" lon="10.1236020">
	<ele>1261.60</ele>
	<time>2025-08-03T06:32:27.000Z</time>
</trkpt>
<trkpt lat="45.9555470" lon="10.1235990">
	<ele>1261.80</ele>
	<time>2025-08-03T06:32:28.000Z</time>
</trkpt>
<trkpt lat="45.9555580" lon="10.1236060">
	<ele>1262.00</ele>
	<time>2025-08-03T06:32:29.000Z</time>
</trkpt>
<trkpt lat="45.9555710" lon="10.1236110">
	<ele>1262.00</ele>
	<time>2025-08-03T06:32:30.000Z</time>
</trkpt>
<trkpt lat="45.9555780" lon="10.1236110">
	<ele>1262.20</ele>
	<time>2025-08-03T06:32:31.000Z</time>
</trkpt>
<trkpt lat="45.9555910" lon="10.1236090">
	<ele>1262.40</ele>
	<time>2025-08-03T06:32:32.000Z</time>
</trkpt>
<trkpt lat="45.9555930" lon="10.1236000">
	<ele>1262.60</ele>
	<time>2025-08-03T06:32:33.000Z</time>
</trkpt>
<trkpt lat="45.9555980" lon="10.1235980">
	<ele>1262.80</ele>
	<time>2025-08-03T06:32:34.000Z</time>
</trkpt>
<trkpt lat="45.9556040" lon="10.1235890">
	<ele>1262.80</ele>
	<time>2025-08-03T06:32:35.000Z</time>
</trkpt>
<trkpt lat="45.9556090" lon="10.1235810">
	<ele>1263.00</ele>
	<time>2025-08-03T06:32:36.000Z</time>
</trkpt>
<trkpt lat="45.9556140" lon="10.1235780">
	<ele>1263.00</ele>
	<time>2025-08-03T06:32:37.000Z</time>
</trkpt>
<trkpt lat="45.9556220" lon="10.1235750">
	<ele>1262.80</ele>
	<time>2025-08-03T06:32:38.000Z</time>
</trkpt>
<trkpt lat="45.9556270" lon="10.1235680">
	<ele>1262.80</ele>
	<time>2025-08-03T06:32:39.000Z</time>
</trkpt>
<trkpt lat="45.9556360" lon="10.1235650">
	<ele>1262.80</ele>
	<time>2025-08-03T06:32:40.000Z</time>
</trkpt>
<trkpt lat="45.9556380" lon="10.1235610">
	<ele>1262.80</ele>
	<time>2025-08-03T06:32:41.000Z</time>
</trkpt>
<trkpt lat="45.9556330" lon="10.1235570">
	<ele>1262.80</ele>
	<time>2025-08-03T06:32:42.000Z</time>
</trkpt>
<trkpt lat="45.9556260" lon="10.1235520">
	<ele>1262.80</ele>
	<time>2025-08-03T06:32:43.000Z</time>
</trkpt>
<trkpt lat="45.9556270" lon="10.1235500">
	<ele>1262.80</ele>
	<time>2025-08-03T06:32:44.000Z</time>
</trkpt>
<trkpt lat="45.9556280" lon="10.1235500">
	<ele>1262.80</ele>
	<time>2025-08-03T06:32:45.000Z</time>
</trkpt>
<trkpt lat="45.9556330" lon="10.1235530">
	<ele>1263.00</ele>
	<time>2025-08-03T06:32:46.000Z</time>
</trkpt>
<trkpt lat="45.9556300" lon="10.1235470">
	<ele>1263.00</ele>
	<time>2025-08-03T06:32:47.000Z</time>
</trkpt>
<trkpt lat="45.9556330" lon="10.1235390">
	<ele>1263.00</ele>
	<time>2025-08-03T06:32:48.000Z</time>
</trkpt>
<trkpt lat="45.9556370" lon="10.1235350">
	<ele>1262.80</ele>
	<time>2025-08-03T06:32:49.000Z</time>
</trkpt>
<trkpt lat="45.9556400" lon="10.1235330">
	<ele>1262.80</ele>
	<time>2025-08-03T06:32:50.000Z</time>
</trkpt>
<trkpt lat="45.9556410" lon="10.1235310">
	<ele>1262.80</ele>
	<time>2025-08-03T06:32:51.000Z</time>
</trkpt>
<trkpt lat="45.9556460" lon="10.1235390">
	<ele>1262.80</ele>
	<time>2025-08-03T06:32:52.000Z</time>
</trkpt>
<trkpt lat="45.9556460" lon="10.1235420">
	<ele>1262.80</ele>
	<time>2025-08-03T06:32:53.000Z</time>
</trkpt>
<trkpt lat="45.9556480" lon="10.1235450">
	<ele>1262.80</ele>
	<time>2025-08-03T06:32:54.000Z</time>
</trkpt>
<trkpt lat="45.9556450" lon="10.1235460">
	<ele>1262.80</ele>
	<time>2025-08-03T06:32:55.000Z</time>
</trkpt>
<trkpt lat="45.9556410" lon="10.1235410">
	<ele>1262.80</ele>
	<time>2025-08-03T06:32:56.000Z</time>
</trkpt>
<trkpt lat="45.9556370" lon="10.1235370">
	<ele>1262.80</ele>
	<time>2025-08-03T06:32:57.000Z</time>
</trkpt>
<trkpt lat="45.9556400" lon="10.1235280">
	<ele>1262.60</ele>
	<time>2025-08-03T06:32:58.000Z</time>
</trkpt>
<trkpt lat="45.9556480" lon="10.1235200">
	<ele>1262.60</ele>
	<time>2025-08-03T06:32:59.000Z</time>
</trkpt>
<trkpt lat="45.9556580" lon="10.1235070">
	<ele>1262.60</ele>
	<time>2025-08-03T06:33:00.000Z</time>
</trkpt>
<trkpt lat="45.9556580" lon="10.1235010">
	<ele>1262.40</ele>
	<time>2025-08-03T06:33:01.000Z</time>
</trkpt>
<trkpt lat="45.9556660" lon="10.1234980">
	<ele>1262.40</ele>
	<time>2025-08-03T06:33:02.000Z</time>
</trkpt>
<trkpt lat="45.9556810" lon="10.1234900">
	<ele>1262.40</ele>
	<time>2025-08-03T06:33:03.000Z</time>
</trkpt>
<trkpt lat="45.9556800" lon="10.1234690">
	<ele>1262.40</ele>
	<time>2025-08-03T06:33:04.000Z</time>
</trkpt>
<trkpt lat="45.9556950" lon="10.1234580">
	<ele>1262.20</ele>
	<time>2025-08-03T06:33:05.000Z</time>
</trkpt>
<trkpt lat="45.9557090" lon="10.1234470">
	<ele>1262.20</ele>
	<time>2025-08-03T06:33:06.000Z</time>
</trkpt>
<trkpt lat="45.9557160" lon="10.1234380">
	<ele>1262.20</ele>
	<time>2025-08-03T06:33:07.000Z</time>
</trkpt>
<trkpt lat="45.9557270" lon="10.1234310">
	<ele>1262.40</ele>
	<time>2025-08-03T06:33:08.000Z</time>
</trkpt>
<trkpt lat="45.9557390" lon="10.1234280">
	<ele>1262.40</ele>
	<time>2025-08-03T06:33:09.000Z</time>
</trkpt>
<trkpt lat="45.9557470" lon="10.1234260">
	<ele>1262.60</ele>
	<time>2025-08-03T06:33:10.000Z</time>
</trkpt>
<trkpt lat="45.9557500" lon="10.1234240">
	<ele>1262.60</ele>
	<time>2025-08-03T06:33:11.000Z</time>
</trkpt>
<trkpt lat="45.9557420" lon="10.1234140">
	<ele>1262.80</ele>
	<time>2025-08-03T06:33:12.000Z</time>
</trkpt>
<trkpt lat="45.9557530" lon="10.1234130">
	<ele>1262.80</ele>
	<time>2025-08-03T06:33:13.000Z</time>
</trkpt>
<trkpt lat="45.9557540" lon="10.1234070">
	<ele>1262.80</ele>
	<time>2025-08-03T06:33:14.000Z</time>
</trkpt>
<trkpt lat="45.9557560" lon="10.1233960">
	<ele>1262.80</ele>
	<time>2025-08-03T06:33:15.000Z</time>
</trkpt>
<trkpt lat="45.9557520" lon="10.1233740">
	<ele>1262.80</ele>
	<time>2025-08-03T06:33:16.000Z</time>
</trkpt>
<trkpt lat="45.9557500" lon="10.1233720">
	<ele>1262.80</ele>
	<time>2025-08-03T06:33:17.000Z</time>
</trkpt>
<trkpt lat="45.9557520" lon="10.1233490">
	<ele>1262.80</ele>
	<time>2025-08-03T06:33:18.000Z</time>
</trkpt>
<trkpt lat="45.9557540" lon="10.1233500">
	<ele>1262.80</ele>
	<time>2025-08-03T06:33:19.000Z</time>
</trkpt>
<trkpt lat="45.9557570" lon="10.1233500">
	<ele>1263.00</ele>
	<time>2025-08-03T06:33:20.000Z</time>
</trkpt>
<trkpt lat="45.9557580" lon="10.1233500">
	<ele>1263.00</ele>
	<time>2025-08-03T06:33:21.000Z</time>
</trkpt>
<trkpt lat="45.9557560" lon="10.1233490">
	<ele>1263.00</ele>
	<time>2025-08-03T06:33:22.000Z</time>
</trkpt>
<trkpt lat="45.9557690" lon="10.1233600">
	<ele>1263.00</ele>
	<time>2025-08-03T06:33:23.000Z</time>
</trkpt>
<trkpt lat="45.9557690" lon="10.1233590">
	<ele>1263.00</ele>
	<time>2025-08-03T06:33:24.000Z</time>
</trkpt>
<trkpt lat="45.9557750" lon="10.1233520">
	<ele>1263.00</ele>
	<time>2025-08-03T06:33:25.000Z</time>
</trkpt>
<trkpt lat="45.9557780" lon="10.1233200">
	<ele>1263.00</ele>
	<time>2025-08-03T06:33:26.000Z</time>
</trkpt>
<trkpt lat="45.9557860" lon="10.1232910">
	<ele>1263.00</ele>
	<time>2025-08-03T06:33:27.000Z</time>
</trkpt>
<trkpt lat="45.9557940" lon="10.1232760">
	<ele>1263.00</ele>
	<time>2025-08-03T06:33:28.000Z</time>
</trkpt>
<trkpt lat="45.9557940" lon="10.1232640">
	<ele>1263.00</ele>
	<time>2025-08-03T06:33:29.000Z</time>
</trkpt>
<trkpt lat="45.9558110" lon="10.1232650">
	<ele>1263.00</ele>
	<time>2025-08-03T06:33:30.000Z</time>
</trkpt>
<trkpt lat="45.9558200" lon="10.1232630">
	<ele>1263.00</ele>
	<time>2025-08-03T06:33:31.000Z</time>
</trkpt>
<trkpt lat="45.9558220" lon="10.1232590">
	<ele>1263.20</ele>
	<time>2025-08-03T06:33:32.000Z</time>
</trkpt>
<trkpt lat="45.9558370" lon="10.1232580">
	<ele>1263.20</ele>
	<time>2025-08-03T06:33:33.000Z</time>
</trkpt>
<trkpt lat="45.9558530" lon="10.1232490">
	<ele>1263.20</ele>
	<time>2025-08-03T06:33:34.000Z</time>
</trkpt>
<trkpt lat="45.9558690" lon="10.1232370">
	<ele>1263.40</ele>
	<time>2025-08-03T06:33:35.000Z</time>
</trkpt>
<trkpt lat="45.9558740" lon="10.1232310">
	<ele>1263.40</ele>
	<time>2025-08-03T06:33:36.000Z</time>
</trkpt>
<trkpt lat="45.9558850" lon="10.1232290">
	<ele>1263.40</ele>
	<time>2025-08-03T06:33:37.000Z</time>
</trkpt>
<trkpt lat="45.9558980" lon="10.1232290">
	<ele>1263.60</ele>
	<time>2025-08-03T06:33:38.000Z</time>
</trkpt>
<trkpt lat="45.9559110" lon="10.1232170">
	<ele>1263.60</ele>
	<time>2025-08-03T06:33:39.000Z</time>
</trkpt>
<trkpt lat="45.9559150" lon="10.1232150">
	<ele>1263.60</ele>
	<time>2025-08-03T06:33:40.000Z</time>
</trkpt>
<trkpt lat="45.9559140" lon="10.1231990">
	<ele>1263.60</ele>
	<time>2025-08-03T06:33:41.000Z</time>
</trkpt>
<trkpt lat="45.9559290" lon="10.1231860">
	<ele>1263.60</ele>
	<time>2025-08-03T06:33:42.000Z</time>
</trkpt>
<trkpt lat="45.9559330" lon="10.1231720">
	<ele>1263.80</ele>
	<time>2025-08-03T06:33:43.000Z</time>
</trkpt>
<trkpt lat="45.9559350" lon="10.1231610">
	<ele>1263.80</ele>
	<time>2025-08-03T06:33:44.000Z</time>
</trkpt>
<trkpt lat="45.9559310" lon="10.1231440">
	<ele>1263.80</ele>
	<time>2025-08-03T06:33:45.000Z</time>
</trkpt>
<trkpt lat="45.9559360" lon="10.1231280">
	<ele>1263.80</ele>
	<time>2025-08-03T06:33:46.000Z</time>
</trkpt>
<trkpt lat="45.9559460" lon="10.1231120">
	<ele>1264.00</ele>
	<time>2025-08-03T06:33:47.000Z</time>
</trkpt>
<trkpt lat="45.9559620" lon="10.1231020">
	<ele>1264.00</ele>
	<time>2025-08-03T06:33:48.000Z</time>
</trkpt>
<trkpt lat="45.9559650" lon="10.1230890">
	<ele>1264.00</ele>
	<time>2025-08-03T06:33:49.000Z</time>
</trkpt>
<trkpt lat="45.9559700" lon="10.1230740">
	<ele>1264.00</ele>
	<time>2025-08-03T06:33:50.000Z</time>
</trkpt>
<trkpt lat="45.9559780" lon="10.1230570">
	<ele>1264.20</ele>
	<time>2025-08-03T06:33:51.000Z</time>
</trkpt>
<trkpt lat="45.9559820" lon="10.1230550">
	<ele>1264.20</ele>
	<time>2025-08-03T06:33:52.000Z</time>
</trkpt>
<trkpt lat="45.9559860" lon="10.1230400">
	<ele>1264.20</ele>
	<time>2025-08-03T06:33:53.000Z</time>
</trkpt>
<trkpt lat="45.9559830" lon="10.1230350">
	<ele>1264.20</ele>
	<time>2025-08-03T06:33:54.000Z</time>
</trkpt>
<trkpt lat="45.9559910" lon="10.1230150">
	<ele>1264.40</ele>
	<time>2025-08-03T06:33:55.000Z</time>
</trkpt>
<trkpt lat="45.9559950" lon="10.1230060">
	<ele>1264.60</ele>
	<time>2025-08-03T06:33:56.000Z</time>
</trkpt>
<trkpt lat="45.9559910" lon="10.1229960">
	<ele>1264.60</ele>
	<time>2025-08-03T06:33:57.000Z</time>
</trkpt>
<trkpt lat="45.9559810" lon="10.1229790">
	<ele>1264.80</ele>
	<time>2025-08-03T06:33:58.000Z</time>
</trkpt>
<trkpt lat="45.9559760" lon="10.1229620">
	<ele>1264.80</ele>
	<time>2025-08-03T06:33:59.000Z</time>
</trkpt>
<trkpt lat="45.9559890" lon="10.1229590">
	<ele>1265.00</ele>
	<time>2025-08-03T06:34:00.000Z</time>
</trkpt>
<trkpt lat="45.9559920" lon="10.1229450">
	<ele>1265.20</ele>
	<time>2025-08-03T06:34:01.000Z</time>
</trkpt>
<trkpt lat="45.9559960" lon="10.1229320">
	<ele>1265.20</ele>
	<time>2025-08-03T06:34:02.000Z</time>
</trkpt>
<trkpt lat="45.9559950" lon="10.1229240">
	<ele>1265.40</ele>
	<time>2025-08-03T06:34:03.000Z</time>
</trkpt>
<trkpt lat="45.9559980" lon="10.1229100">
	<ele>1265.40</ele>
	<time>2025-08-03T06:34:04.000Z</time>
</trkpt>
<trkpt lat="45.9559960" lon="10.1229010">
	<ele>1265.40</ele>
	<time>2025-08-03T06:34:05.000Z</time>
</trkpt>
<trkpt lat="45.9560030" lon="10.1228920">
	<ele>1265.60</ele>
	<time>2025-08-03T06:34:06.000Z</time>
</trkpt>
<trkpt lat="45.9560090" lon="10.1228830">
	<ele>1265.80</ele>
	<time>2025-08-03T06:34:07.000Z</time>
</trkpt>
<trkpt lat="45.9559870" lon="10.1228670">
	<ele>1266.00</ele>
	<time>2025-08-03T06:34:08.000Z</time>
</trkpt>
<trkpt lat="45.9559540" lon="10.1228440">
	<ele>1266.00</ele>
	<time>2025-08-03T06:34:09.000Z</time>
</trkpt>
<trkpt lat="45.9559350" lon="10.1228190">
	<ele>1266.40</ele>
	<time>2025-08-03T06:34:10.000Z</time>
</trkpt>
<trkpt lat="45.9559450" lon="10.1228130">
	<ele>1266.60</ele>
	<time>2025-08-03T06:34:11.000Z</time>
</trkpt>
<trkpt lat="45.9559820" lon="10.1228330">
	<ele>1266.60</ele>
	<time>2025-08-03T06:34:12.000Z</time>
</trkpt>
<trkpt lat="45.9559840" lon="10.1228390">
	<ele>1266.80</ele>
	<time>2025-08-03T06:34:13.000Z</time>
</trkpt>
<trkpt lat="45.9559870" lon="10.1228390">
	<ele>1266.80</ele>
	<time>2025-08-03T06:34:14.000Z</time>
</trkpt>
<trkpt lat="45.9559790" lon="10.1228270">
	<ele>1266.60</ele>
	<time>2025-08-03T06:34:15.000Z</time>
</trkpt>
<trkpt lat="45.9559770" lon="10.1228190">
	<ele>1266.60</ele>
	<time>2025-08-03T06:34:16.000Z</time>
</trkpt>
<trkpt lat="45.9559750" lon="10.1228180">
	<ele>1266.60</ele>
	<time>2025-08-03T06:34:17.000Z</time>
</trkpt>
<trkpt lat="45.9559770" lon="10.1228140">
	<ele>1266.60</ele>
	<time>2025-08-03T06:34:18.000Z</time>
</trkpt>
<trkpt lat="45.9559780" lon="10.1228120">
	<ele>1266.60</ele>
	<time>2025-08-03T06:34:19.000Z</time>
</trkpt>
<trkpt lat="45.9559810" lon="10.1228160">
	<ele>1266.60</ele>
	<time>2025-08-03T06:34:20.000Z</time>
</trkpt>
<trkpt lat="45.9559740" lon="10.1228050">
	<ele>1266.80</ele>
	<time>2025-08-03T06:34:21.000Z</time>
</trkpt>
<trkpt lat="45.9559540" lon="10.1227890">
	<ele>1267.00</ele>
	<time>2025-08-03T06:34:22.000Z</time>
</trkpt>
<trkpt lat="45.9559350" lon="10.1227880">
	<ele>1267.00</ele>
	<time>2025-08-03T06:34:23.000Z</time>
</trkpt>
<trkpt lat="45.9559240" lon="10.1227810">
	<ele>1267.20</ele>
	<time>2025-08-03T06:34:24.000Z</time>
</trkpt>
<trkpt lat="45.9559370" lon="10.1227730">
	<ele>1267.40</ele>
	<time>2025-08-03T06:34:25.000Z</time>
</trkpt>
<trkpt lat="45.9559490" lon="10.1227610">
	<ele>1267.40</ele>
	<time>2025-08-03T06:34:26.000Z</time>
</trkpt>
<trkpt lat="45.9559570" lon="10.1227520">
	<ele>1267.60</ele>
	<time>2025-08-03T06:34:27.000Z</time>
</trkpt>
<trkpt lat="45.9559900" lon="10.1227560">
	<ele>1267.80</ele>
	<time>2025-08-03T06:34:28.000Z</time>
</trkpt>
<trkpt lat="45.9560020" lon="10.1227560">
	<ele>1267.80</ele>
	<time>2025-08-03T06:34:29.000Z</time>
</trkpt>
<trkpt lat="45.9560200" lon="10.1227500">
	<ele>1268.00</ele>
	<time>2025-08-03T06:34:30.000Z</time>
</trkpt>
<trkpt lat="45.9560400" lon="10.1227360">
	<ele>1268.40</ele>
	<time>2025-08-03T06:34:31.000Z</time>
</trkpt>
<trkpt lat="45.9560640" lon="10.1227220">
	<ele>1268.60</ele>
	<time>2025-08-03T06:34:32.000Z</time>
</trkpt>
<trkpt lat="45.9560910" lon="10.1227100">
	<ele>1268.60</ele>
	<time>2025-08-03T06:34:33.000Z</time>
</trkpt>
<trkpt lat="45.9561100" lon="10.1226970">
	<ele>1268.80</ele>
	<time>2025-08-03T06:34:34.000Z</time>
</trkpt>
<trkpt lat="45.9561490" lon="10.1226770">
	<ele>1269.00</ele>
	<time>2025-08-03T06:34:35.000Z</time>
</trkpt>
<trkpt lat="45.9561790" lon="10.1226640">
	<ele>1269.20</ele>
	<time>2025-08-03T06:34:36.000Z</time>
</trkpt>
<trkpt lat="45.9562000" lon="10.1226490">
	<ele>1269.20</ele>
	<time>2025-08-03T06:34:37.000Z</time>
</trkpt>
<trkpt lat="45.9562170" lon="10.1226360">
	<ele>1269.60</ele>
	<time>2025-08-03T06:34:38.000Z</time>
</trkpt>
<trkpt lat="45.9562230" lon="10.1226290">
	<ele>1269.80</ele>
	<time>2025-08-03T06:34:39.000Z</time>
</trkpt>
<trkpt lat="45.9562420" lon="10.1226250">
	<ele>1270.00</ele>
	<time>2025-08-03T06:34:40.000Z</time>
</trkpt>
<trkpt lat="45.9562580" lon="10.1226170">
	<ele>1270.00</ele>
	<time>2025-08-03T06:34:41.000Z</time>
</trkpt>
<trkpt lat="45.9562660" lon="10.1226040">
	<ele>1270.20</ele>
	<time>2025-08-03T06:34:42.000Z</time>
</trkpt>
<trkpt lat="45.9562840" lon="10.1225870">
	<ele>1270.40</ele>
	<time>2025-08-03T06:34:43.000Z</time>
</trkpt>
<trkpt lat="45.9562990" lon="10.1225780">
	<ele>1270.60</ele>
	<time>2025-08-03T06:34:44.000Z</time>
</trkpt>
<trkpt lat="45.9562960" lon="10.1225660">
	<ele>1270.60</ele>
	<time>2025-08-03T06:34:45.000Z</time>
</trkpt>
<trkpt lat="45.9562890" lon="10.1225530">
	<ele>1270.80</ele>
	<time>2025-08-03T06:34:46.000Z</time>
</trkpt>
<trkpt lat="45.9562890" lon="10.1225440">
	<ele>1271.00</ele>
	<time>2025-08-03T06:34:47.000Z</time>
</trkpt>
<trkpt lat="45.9562880" lon="10.1225400">
	<ele>1271.20</ele>
	<time>2025-08-03T06:34:48.000Z</time>
</trkpt>
<trkpt lat="45.9563040" lon="10.1225350">
	<ele>1271.40</ele>
	<time>2025-08-03T06:34:49.000Z</time>
</trkpt>
<trkpt lat="45.9563050" lon="10.1225300">
	<ele>1271.60</ele>
	<time>2025-08-03T06:34:50.000Z</time>
</trkpt>
<trkpt lat="45.9563070" lon="10.1225240">
	<ele>1272.00</ele>
	<time>2025-08-03T06:34:51.000Z</time>
</trkpt>
<trkpt lat="45.9563120" lon="10.1225170">
	<ele>1272.20</ele>
	<time>2025-08-03T06:34:52.000Z</time>
</trkpt>
<trkpt lat="45.9563120" lon="10.1225120">
	<ele>1272.40</ele>
	<time>2025-08-03T06:34:53.000Z</time>
</trkpt>
<trkpt lat="45.9563200" lon="10.1225020">
	<ele>1272.60</ele>
	<time>2025-08-03T06:34:54.000Z</time>
</trkpt>
<trkpt lat="45.9563220" lon="10.1224890">
	<ele>1272.80</ele>
	<time>2025-08-03T06:34:55.000Z</time>
</trkpt>
<trkpt lat="45.9563400" lon="10.1224740">
	<ele>1273.00</ele>
	<time>2025-08-03T06:34:56.000Z</time>
</trkpt>
<trkpt lat="45.9563530" lon="10.1224600">
	<ele>1273.20</ele>
	<time>2025-08-03T06:34:57.000Z</time>
</trkpt>
<trkpt lat="45.9563730" lon="10.1224590">
	<ele>1273.60</ele>
	<time>2025-08-03T06:34:58.000Z</time>
</trkpt>
<trkpt lat="45.9563880" lon="10.1224460">
	<ele>1273.80</ele>
	<time>2025-08-03T06:34:59.000Z</time>
</trkpt>
<trkpt lat="45.9563920" lon="10.1224420">
	<ele>1274.00</ele>
	<time>2025-08-03T06:35:00.000Z</time>
</trkpt>
<trkpt lat="45.9563920" lon="10.1224390">
	<ele>1274.20</ele>
	<time>2025-08-03T06:35:01.000Z</time>
</trkpt>
<trkpt lat="45.9563910" lon="10.1224240">
	<ele>1274.40</ele>
	<time>2025-08-03T06:35:02.000Z</time>
</trkpt>
<trkpt lat="45.9563770" lon="10.1224010">
	<ele>1274.60</ele>
	<time>2025-08-03T06:35:03.000Z</time>
</trkpt>
<trkpt lat="45.9563740" lon="10.1223810">
	<ele>1274.60</ele>
	<time>2025-08-03T06:35:04.000Z</time>
</trkpt>
<trkpt lat="45.9563580" lon="10.1223310">
	<ele>1275.00</ele>
	<time>2025-08-03T06:35:05.000Z</time>
</trkpt>
<trkpt lat="45.9563620" lon="10.1223080">
	<ele>1275.20</ele>
	<time>2025-08-03T06:35:06.000Z</time>
</trkpt>
<trkpt lat="45.9563700" lon="10.1222940">
	<ele>1275.40</ele>
	<time>2025-08-03T06:35:07.000Z</time>
</trkpt>
<trkpt lat="45.9563770" lon="10.1222830">
	<ele>1275.80</ele>
	<time>2025-08-03T06:35:08.000Z</time>
</trkpt>
<trkpt lat="45.9563900" lon="10.1222710">
	<ele>1275.80</ele>
	<time>2025-08-03T06:35:09.000Z</time>
</trkpt>
<trkpt lat="45.9563980" lon="10.1222550">
	<ele>1276.00</ele>
	<time>2025-08-03T06:35:10.000Z</time>
</trkpt>
<trkpt lat="45.9563950" lon="10.1222270">
	<ele>1276.00</ele>
	<time>2025-08-03T06:35:11.000Z</time>
</trkpt>
<trkpt lat="45.9563960" lon="10.1222140">
	<ele>1276.40</ele>
	<time>2025-08-03T06:35:12.000Z</time>
</trkpt>
<trkpt lat="45.9564040" lon="10.1222100">
	<ele>1276.60</ele>
	<time>2025-08-03T06:35:13.000Z</time>
</trkpt>
<trkpt lat="45.9563930" lon="10.1221800">
	<ele>1276.80</ele>
	<time>2025-08-03T06:35:14.000Z</time>
</trkpt>
<trkpt lat="45.9563800" lon="10.1221570">
	<ele>1277.00</ele>
	<time>2025-08-03T06:35:15.000Z</time>
</trkpt>
<trkpt lat="45.9563670" lon="10.1221400">
	<ele>1277.20</ele>
	<time>2025-08-03T06:35:16.000Z</time>
</trkpt>
<trkpt lat="45.9563560" lon="10.1221300">
	<ele>1277.40</ele>
	<time>2025-08-03T06:35:17.000Z</time>
</trkpt>
<trkpt lat="45.9563570" lon="10.1221230">
	<ele>1277.60</ele>
	<time>2025-08-03T06:35:18.000Z</time>
</trkpt>
<trkpt lat="45.9563540" lon="10.1221190">
	<ele>1277.60</ele>
	<time>2025-08-03T06:35:19.000Z</time>
</trkpt>
<trkpt lat="45.9563380" lon="10.1221280">
	<ele>1278.00</ele>
	<time>2025-08-03T06:35:20.000Z</time>
</trkpt>
<trkpt lat="45.9563200" lon="10.1221330">
	<ele>1278.20</ele>
	<time>2025-08-03T06:35:21.000Z</time>
</trkpt>
<trkpt lat="45.9563070" lon="10.1221300">
	<ele>1278.40</ele>
	<time>2025-08-03T06:35:22.000Z</time>
</trkpt>
<trkpt lat="45.9563010" lon="10.1221290">
	<ele>1278.60</ele>
	<time>2025-08-03T06:35:23.000Z</time>
</trkpt>
<trkpt lat="45.9562870" lon="10.1221290">
	<ele>1278.80</ele>
	<time>2025-08-03T06:35:24.000Z</time>
</trkpt>
<trkpt lat="45.9562920" lon="10.1221150">
	<ele>1278.80</ele>
	<time>2025-08-03T06:35:25.000Z</time>
</trkpt>
<trkpt lat="45.9563020" lon="10.1220910">
	<ele>1279.20</ele>
	<time>2025-08-03T06:35:26.000Z</time>
</trkpt>
<trkpt lat="45.9563110" lon="10.1220690">
	<ele>1279.40</ele>
	<time>2025-08-03T06:35:27.000Z</time>
</trkpt>
<trkpt lat="45.9563120" lon="10.1220550">
	<ele>1279.40</ele>
	<time>2025-08-03T06:35:28.000Z</time>
</trkpt>
<trkpt lat="45.9563130" lon="10.1220220">
	<ele>1279.60</ele>
	<time>2025-08-03T06:35:29.000Z</time>
</trkpt>
<trkpt lat="45.9563110" lon="10.1220170">
	<ele>1279.60</ele>
	<time>2025-08-03T06:35:30.000Z</time>
</trkpt>
<trkpt lat="45.9563090" lon="10.1220130">
	<ele>1279.80</ele>
	<time>2025-08-03T06:35:31.000Z</time>
</trkpt>
<trkpt lat="45.9563100" lon="10.1220040">
	<ele>1279.80</ele>
	<time>2025-08-03T06:35:32.000Z</time>
</trkpt>
<trkpt lat="45.9563070" lon="10.1219920">
	<ele>1279.80</ele>
	<time>2025-08-03T06:35:33.000Z</time>
</trkpt>
<trkpt lat="45.9563030" lon="10.1219930">
	<ele>1280.00</ele>
	<time>2025-08-03T06:35:34.000Z</time>
</trkpt>
<trkpt lat="45.9563030" lon="10.1219960">
	<ele>1280.00</ele>
	<time>2025-08-03T06:35:35.000Z</time>
</trkpt>
<trkpt lat="45.9562950" lon="10.1219980">
	<ele>1280.40</ele>
	<time>2025-08-03T06:35:36.000Z</time>
</trkpt>
<trkpt lat="45.9562910" lon="10.1219960">
	<ele>1280.40</ele>
	<time>2025-08-03T06:35:37.000Z</time>
</trkpt>
<trkpt lat="45.9562860" lon="10.1219940">
	<ele>1280.60</ele>
	<time>2025-08-03T06:35:38.000Z</time>
</trkpt>
<trkpt lat="45.9562800" lon="10.1220040">
	<ele>1280.60</ele>
	<time>2025-08-03T06:35:39.000Z</time>
</trkpt>
<trkpt lat="45.9562660" lon="10.1220170">
	<ele>1280.60</ele>
	<time>2025-08-03T06:35:40.000Z</time>
</trkpt>
<trkpt lat="45.9562530" lon="10.1220310">
	<ele>1280.40</ele>
	<time>2025-08-03T06:35:41.000Z</time>
</trkpt>
<trkpt lat="45.9562490" lon="10.1220440">
	<ele>1280.40</ele>
	<time>2025-08-03T06:35:42.000Z</time>
</trkpt>
<trkpt lat="45.9562470" lon="10.1220530">
	<ele>1280.40</ele>
	<time>2025-08-03T06:35:43.000Z</time>
</trkpt>
<trkpt lat="45.9562130" lon="10.1220600">
	<ele>1280.40</ele>
	<time>2025-08-03T06:35:44.000Z</time>
</trkpt>
<trkpt lat="45.9561820" lon="10.1220660">
	<ele>1280.40</ele>
	<time>2025-08-03T06:35:45.000Z</time>
</trkpt>
<trkpt lat="45.9561560" lon="10.1220700">
	<ele>1280.40</ele>
	<time>2025-08-03T06:35:46.000Z</time>
</trkpt>
<trkpt lat="45.9561380" lon="10.1220740">
	<ele>1280.40</ele>
	<time>2025-08-03T06:35:47.000Z</time>
</trkpt>
<trkpt lat="45.9561230" lon="10.1220750">
	<ele>1280.40</ele>
	<time>2025-08-03T06:35:48.000Z</time>
</trkpt>
<trkpt lat="45.9561140" lon="10.1220890">
	<ele>1280.40</ele>
	<time>2025-08-03T06:35:49.000Z</time>
</trkpt>
<trkpt lat="45.9561040" lon="10.1221060">
	<ele>1280.40</ele>
	<time>2025-08-03T06:35:50.000Z</time>
</trkpt>
<trkpt lat="45.9560850" lon="10.1221320">
	<ele>1280.40</ele>
	<time>2025-08-03T06:35:51.000Z</time>
</trkpt>
<trkpt lat="45.9560590" lon="10.1221640">
	<ele>1280.40</ele>
	<time>2025-08-03T06:35:52.000Z</time>
</trkpt>
<trkpt lat="45.9560370" lon="10.1221980">
	<ele>1280.20</ele>
	<time>2025-08-03T06:35:53.000Z</time>
</trkpt>
<trkpt lat="45.9560340" lon="10.1222080">
	<ele>1280.20</ele>
	<time>2025-08-03T06:35:54.000Z</time>
</trkpt>
<trkpt lat="45.9560310" lon="10.1222300">
	<ele>1280.20</ele>
	<time>2025-08-03T06:35:55.000Z</time>
</trkpt>
<trkpt lat="45.9560310" lon="10.1222500">
	<ele>1280.20</ele>
	<time>2025-08-03T06:35:56.000Z</time>
</trkpt>
<trkpt lat="45.9560300" lon="10.1222690">
	<ele>1280.20</ele>
	<time>2025-08-03T06:35:57.000Z</time>
</trkpt>
<trkpt lat="45.9560330" lon="10.1222720">
	<ele>1280.20</ele>
	<time>2025-08-03T06:35:58.000Z</time>
</trkpt>
<trkpt lat="45.9560390" lon="10.1222740">
	<ele>1280.20</ele>
	<time>2025-08-03T06:35:59.000Z</time>
</trkpt>
<trkpt lat="45.9560460" lon="10.1222790">
	<ele>1280.20</ele>
	<time>2025-08-03T06:36:00.000Z</time>
</trkpt>
<trkpt lat="45.9560560" lon="10.1222810">
	<ele>1280.20</ele>
	<time>2025-08-03T06:36:01.000Z</time>
</trkpt>
<trkpt lat="45.9560630" lon="10.1222790">
	<ele>1280.20</ele>
	<time>2025-08-03T06:36:02.000Z</time>
</trkpt>
<trkpt lat="45.9560680" lon="10.1222740">
	<ele>1280.20</ele>
	<time>2025-08-03T06:36:03.000Z</time>
</trkpt>
<trkpt lat="45.9560780" lon="10.1222680">
	<ele>1280.20</ele>
	<time>2025-08-03T06:36:04.000Z</time>
</trkpt>
<trkpt lat="45.9560860" lon="10.1222620">
	<ele>1280.20</ele>
	<time>2025-08-03T06:36:05.000Z</time>
</trkpt>
<trkpt lat="45.9560990" lon="10.1222570">
	<ele>1280.20</ele>
	<time>2025-08-03T06:36:06.000Z</time>
</trkpt>
<trkpt lat="45.9561020" lon="10.1222580">
	<ele>1280.20</ele>
	<time>2025-08-03T06:36:07.000Z</time>
</trkpt>
<trkpt lat="45.9561150" lon="10.1222490">
	<ele>1280.20</ele>
	<time>2025-08-03T06:36:08.000Z</time>
</trkpt>
<trkpt lat="45.9561250" lon="10.1222540">
	<ele>1280.40</ele>
	<time>2025-08-03T06:36:09.000Z</time>
</trkpt>
<trkpt lat="45.9561470" lon="10.1222110">
	<ele>1280.40</ele>
	<time>2025-08-03T06:36:10.000Z</time>
</trkpt>
<trkpt lat="45.9561330" lon="10.1221970">
	<ele>1280.60</ele>
	<time>2025-08-03T06:36:11.000Z</time>
</trkpt>
<trkpt lat="45.9561280" lon="10.1221950">
	<ele>1280.60</ele>
	<time>2025-08-03T06:36:12.000Z</time>
</trkpt>
<trkpt lat="45.9561330" lon="10.1221890">
	<ele>1280.60</ele>
	<time>2025-08-03T06:36:13.000Z</time>
</trkpt>
<trkpt lat="45.9561400" lon="10.1221840">
	<ele>1280.60</ele>
	<time>2025-08-03T06:36:14.000Z</time>
</trkpt>
<trkpt lat="45.9561390" lon="10.1221860">
	<ele>1280.60</ele>
	<time>2025-08-03T06:36:15.000Z</time>
</trkpt>
<trkpt lat="45.9561310" lon="10.1221910">
	<ele>1280.60</ele>
	<time>2025-08-03T06:36:16.000Z</time>
</trkpt>
<trkpt lat="45.9561280" lon="10.1221950">
	<ele>1280.60</ele>
	<time>2025-08-03T06:36:17.000Z</time>
</trkpt>
<trkpt lat="45.9561330" lon="10.1222130">
	<ele>1280.60</ele>
	<time>2025-08-03T06:36:18.000Z</time>
</trkpt>
<trkpt lat="45.9561400" lon="10.1222240">
	<ele>1280.60</ele>
	<time>2025-08-03T06:36:19.000Z</time>
</trkpt>
<trkpt lat="45.9561490" lon="10.1222360">
	<ele>1280.60</ele>
	<time>2025-08-03T06:36:20.000Z</time>
</trkpt>
<trkpt lat="45.9561590" lon="10.1222490">
	<ele>1280.40</ele>
	<time>2025-08-03T06:36:21.000Z</time>
</trkpt>
<trkpt lat="45.9561730" lon="10.1222510">
	<ele>1280.20</ele>
	<time>2025-08-03T06:36:22.000Z</time>
</trkpt>
<trkpt lat="45.9561870" lon="10.1222560">
	<ele>1280.00</ele>
	<time>2025-08-03T06:36:23.000Z</time>
</trkpt>
<trkpt lat="45.9561960" lon="10.1222540">
	<ele>1280.00</ele>
	<time>2025-08-03T06:36:24.000Z</time>
</trkpt>
<trkpt lat="45.9562040" lon="10.1222520">
	<ele>1280.00</ele>
	<time>2025-08-03T06:36:25.000Z</time>
</trkpt>
<trkpt lat="45.9562090" lon="10.1222530">
	<ele>1279.80</ele>
	<time>2025-08-03T06:36:26.000Z</time>
</trkpt>
<trkpt lat="45.9562140" lon="10.1222680">
	<ele>1280.00</ele>
	<time>2025-08-03T06:36:27.000Z</time>
</trkpt>
<trkpt lat="45.9562250" lon="10.1222790">
	<ele>1280.00</ele>
	<time>2025-08-03T06:36:28.000Z</time>
</trkpt>
<trkpt lat="45.9562300" lon="10.1222820">
	<ele>1280.00</ele>
	<time>2025-08-03T06:36:29.000Z</time>
</trkpt>
<trkpt lat="45.9562270" lon="10.1222840">
	<ele>1279.80</ele>
	<time>2025-08-03T06:36:30.000Z</time>
</trkpt>
<trkpt lat="45.9562280" lon="10.1222900">
	<ele>1279.80</ele>
	<time>2025-08-03T06:36:31.000Z</time>
</trkpt>
<trkpt lat="45.9562300" lon="10.1222970">
	<ele>1279.80</ele>
	<time>2025-08-03T06:36:32.000Z</time>
</trkpt>
<trkpt lat="45.9562420" lon="10.1222800">
	<ele>1279.80</ele>
	<time>2025-08-03T06:36:33.000Z</time>
</trkpt>
<trkpt lat="45.9562480" lon="10.1222850">
	<ele>1279.60</ele>
	<time>2025-08-03T06:36:34.000Z</time>
</trkpt>
<trkpt lat="45.9562550" lon="10.1223090">
	<ele>1279.40</ele>
	<time>2025-08-03T06:36:35.000Z</time>
</trkpt>
<trkpt lat="45.9562610" lon="10.1223240">
	<ele>1279.00</ele>
	<time>2025-08-03T06:36:36.000Z</time>
</trkpt>
<trkpt lat="45.9562710" lon="10.1223360">
	<ele>1279.00</ele>
	<time>2025-08-03T06:36:37.000Z</time>
</trkpt>
<trkpt lat="45.9562780" lon="10.1223450">
	<ele>1279.00</ele>
	<time>2025-08-03T06:36:38.000Z</time>
</trkpt>
<trkpt lat="45.9562780" lon="10.1223520">
	<ele>1278.80</ele>
	<time>2025-08-03T06:36:39.000Z</time>
</trkpt>
<trkpt lat="45.9562790" lon="10.1223550">
	<ele>1278.80</ele>
	<time>2025-08-03T06:36:40.000Z</time>
</trkpt>
<trkpt lat="45.9562790" lon="10.1223630">
	<ele>1278.80</ele>
	<time>2025-08-03T06:36:41.000Z</time>
</trkpt>
<trkpt lat="45.9562920" lon="10.1223740">
	<ele>1278.80</ele>
	<time>2025-08-03T06:36:42.000Z</time>
</trkpt>
<trkpt lat="45.9563090" lon="10.1223750">
	<ele>1278.80</ele>
	<time>2025-08-03T06:36:43.000Z</time>
</trkpt>
<trkpt lat="45.9563290" lon="10.1223790">
	<ele>1278.80</ele>
	<time>2025-08-03T06:36:44.000Z</time>
</trkpt>
<trkpt lat="45.9563430" lon="10.1223800">
	<ele>1278.80</ele>
	<time>2025-08-03T06:36:45.000Z</time>
</trkpt>
<trkpt lat="45.9563580" lon="10.1223840">
	<ele>1279.00</ele>
	<time>2025-08-03T06:36:46.000Z</time>
</trkpt>
<trkpt lat="45.9563660" lon="10.1223880">
	<ele>1279.00</ele>
	<time>2025-08-03T06:36:47.000Z</time>
</trkpt>
<trkpt lat="45.9563610" lon="10.1224020">
	<ele>1279.00</ele>
	<time>2025-08-03T06:36:48.000Z</time>
</trkpt>
<trkpt lat="45.9563620" lon="10.1223970">
	<ele>1279.00</ele>
	<time>2025-08-03T06:36:49.000Z</time>
</trkpt>
<trkpt lat="45.9563690" lon="10.1224000">
	<ele>1279.00</ele>
	<time>2025-08-03T06:36:50.000Z</time>
</trkpt>
<trkpt lat="45.9563780" lon="10.1224050">
	<ele>1279.00</ele>
	<time>2025-08-03T06:36:51.000Z</time>
</trkpt>
<trkpt lat="45.9563830" lon="10.1224030">
	<ele>1279.20</ele>
	<time>2025-08-03T06:36:52.000Z</time>
</trkpt>
<trkpt lat="45.9563930" lon="10.1224070">
	<ele>1279.20</ele>
	<time>2025-08-03T06:36:53.000Z</time>
</trkpt>
<trkpt lat="45.9564060" lon="10.1224180">
	<ele>1279.20</ele>
	<time>2025-08-03T06:36:54.000Z</time>
</trkpt>
<trkpt lat="45.9564110" lon="10.1224210">
	<ele>1279.40</ele>
	<time>2025-08-03T06:36:55.000Z</time>
</trkpt>
<trkpt lat="45.9564150" lon="10.1224290">
	<ele>1279.40</ele>
	<time>2025-08-03T06:36:56.000Z</time>
</trkpt>
<trkpt lat="45.9564210" lon="10.1224370">
	<ele>1279.40</ele>
	<time>2025-08-03T06:36:57.000Z</time>
</trkpt>
<trkpt lat="45.9564360" lon="10.1224360">
	<ele>1279.60</ele>
	<time>2025-08-03T06:36:58.000Z</time>
</trkpt>
<trkpt lat="45.9564540" lon="10.1224300">
	<ele>1279.80</ele>
	<time>2025-08-03T06:36:59.000Z</time>
</trkpt>
<trkpt lat="45.9564620" lon="10.1224250">
	<ele>1279.80</ele>
	<time>2025-08-03T06:37:00.000Z</time>
</trkpt>
<trkpt lat="45.9564720" lon="10.1224230">
	<ele>1279.80</ele>
	<time>2025-08-03T06:37:01.000Z</time>
</trkpt>
<trkpt lat="45.9564850" lon="10.1224250">
	<ele>1280.00</ele>
	<time>2025-08-03T06:37:02.000Z</time>
</trkpt>
<trkpt lat="45.9565000" lon="10.1224340">
	<ele>1280.20</ele>
	<time>2025-08-03T06:37:03.000Z</time>
</trkpt>
<trkpt lat="45.9565110" lon="10.1224390">
	<ele>1280.40</ele>
	<time>2025-08-03T06:37:04.000Z</time>
</trkpt>
<trkpt lat="45.9565230" lon="10.1224480">
	<ele>1280.60</ele>
	<time>2025-08-03T06:37:05.000Z</time>
</trkpt>
<trkpt lat="45.9565360" lon="10.1224560">
	<ele>1280.60</ele>
	<time>2025-08-03T06:37:06.000Z</time>
</trkpt>
<trkpt lat="45.9565460" lon="10.1224560">
	<ele>1280.80</ele>
	<time>2025-08-03T06:37:07.000Z</time>
</trkpt>
<trkpt lat="45.9565440" lon="10.1224520">
	<ele>1281.00</ele>
	<time>2025-08-03T06:37:08.000Z</time>
</trkpt>
<trkpt lat="45.9565510" lon="10.1224530">
	<ele>1281.20</ele>
	<time>2025-08-03T06:37:09.000Z</time>
</trkpt>
<trkpt lat="45.9565590" lon="10.1224600">
	<ele>1281.40</ele>
	<time>2025-08-03T06:37:10.000Z</time>
</trkpt>
<trkpt lat="45.9565610" lon="10.1224750">
	<ele>1281.60</ele>
	<time>2025-08-03T06:37:11.000Z</time>
</trkpt>
<trkpt lat="45.9565600" lon="10.1224810">
	<ele>1282.00</ele>
	<time>2025-08-03T06:37:12.000Z</time>
</trkpt>
<trkpt lat="45.9565620" lon="10.1224820">
	<ele>1282.20</ele>
	<time>2025-08-03T06:37:13.000Z</time>
</trkpt>
<trkpt lat="45.9565670" lon="10.1224870">
	<ele>1282.40</ele>
	<time>2025-08-03T06:37:14.000Z</time>
</trkpt>
<trkpt lat="45.9565730" lon="10.1224970">
	<ele>1282.60</ele>
	<time>2025-08-03T06:37:15.000Z</time>
</trkpt>
<trkpt lat="45.9565800" lon="10.1225040">
	<ele>1282.60</ele>
	<time>2025-08-03T06:37:16.000Z</time>
</trkpt>
<trkpt lat="45.9565890" lon="10.1225050">
	<ele>1282.80</ele>
	<time>2025-08-03T06:37:17.000Z</time>
</trkpt>
<trkpt lat="45.9566000" lon="10.1224910">
	<ele>1283.00</ele>
	<time>2025-08-03T06:37:18.000Z</time>
</trkpt>
<trkpt lat="45.9566110" lon="10.1224780">
	<ele>1283.20</ele>
	<time>2025-08-03T06:37:19.000Z</time>
</trkpt>
<trkpt lat="45.9566250" lon="10.1224690">
	<ele>1283.40</ele>
	<time>2025-08-03T06:37:20.000Z</time>
</trkpt>
<trkpt lat="45.9566390" lon="10.1224570">
	<ele>1283.80</ele>
	<time>2025-08-03T06:37:21.000Z</time>
</trkpt>
<trkpt lat="45.9566400" lon="10.1224500">
	<ele>1284.00</ele>
	<time>2025-08-03T06:37:22.000Z</time>
</trkpt>
<trkpt lat="45.9566390" lon="10.1224460">
	<ele>1284.20</ele>
	<time>2025-08-03T06:37:23.000Z</time>
</trkpt>
<trkpt lat="45.9566400" lon="10.1224510">
	<ele>1284.40</ele>
	<time>2025-08-03T06:37:24.000Z</time>
</trkpt>
<trkpt lat="45.9566400" lon="10.1224560">
	<ele>1284.60</ele>
	<time>2025-08-03T06:37:25.000Z</time>
</trkpt>
<trkpt lat="45.9566450" lon="10.1224590">
	<ele>1284.60</ele>
	<time>2025-08-03T06:37:26.000Z</time>
</trkpt>
<trkpt lat="45.9566560" lon="10.1224690">
	<ele>1284.80</ele>
	<time>2025-08-03T06:37:27.000Z</time>
</trkpt>
<trkpt lat="45.9566750" lon="10.1224750">
	<ele>1285.00</ele>
	<time>2025-08-03T06:37:28.000Z</time>
</trkpt>
<trkpt lat="45.9566920" lon="10.1224780">
	<ele>1285.20</ele>
	<time>2025-08-03T06:37:29.000Z</time>
</trkpt>
<trkpt lat="45.9567020" lon="10.1224840">
	<ele>1285.20</ele>
	<time>2025-08-03T06:37:30.000Z</time>
</trkpt>
<trkpt lat="45.9567020" lon="10.1224940">
	<ele>1285.40</ele>
	<time>2025-08-03T06:37:31.000Z</time>
</trkpt>
<trkpt lat="45.9567090" lon="10.1225080">
	<ele>1285.40</ele>
	<time>2025-08-03T06:37:32.000Z</time>
</trkpt>
<trkpt lat="45.9567150" lon="10.1225170">
	<ele>1285.60</ele>
	<time>2025-08-03T06:37:33.000Z</time>
</trkpt>
<trkpt lat="45.9567200" lon="10.1225250">
	<ele>1285.80</ele>
	<time>2025-08-03T06:37:34.000Z</time>
</trkpt>
<trkpt lat="45.9567230" lon="10.1225260">
	<ele>1286.20</ele>
	<time>2025-08-03T06:37:35.000Z</time>
</trkpt>
<trkpt lat="45.9567260" lon="10.1225210">
	<ele>1286.40</ele>
	<time>2025-08-03T06:37:36.000Z</time>
</trkpt>
<trkpt lat="45.9567290" lon="10.1225150">
	<ele>1286.40</ele>
	<time>2025-08-03T06:37:37.000Z</time>
</trkpt>
<trkpt lat="45.9567280" lon="10.1225010">
	<ele>1286.60</ele>
	<time>2025-08-03T06:37:38.000Z</time>
</trkpt>
<trkpt lat="45.9567360" lon="10.1224870">
	<ele>1286.80</ele>
	<time>2025-08-03T06:37:39.000Z</time>
</trkpt>
<trkpt lat="45.9567460" lon="10.1224830">
	<ele>1286.80</ele>
	<time>2025-08-03T06:37:40.000Z</time>
</trkpt>
<trkpt lat="45.9567580" lon="10.1224820">
	<ele>1287.20</ele>
	<time>2025-08-03T06:37:41.000Z</time>
</trkpt>
<trkpt lat="45.9567660" lon="10.1224770">
	<ele>1287.40</ele>
	<time>2025-08-03T06:37:42.000Z</time>
</trkpt>
<trkpt lat="45.9567710" lon="10.1224660">
	<ele>1287.80</ele>
	<time>2025-08-03T06:37:43.000Z</time>
</trkpt>
<trkpt lat="45.9567690" lon="10.1224550">
	<ele>1288.00</ele>
	<time>2025-08-03T06:37:44.000Z</time>
</trkpt>
<trkpt lat="45.9567750" lon="10.1224580">
	<ele>1288.20</ele>
	<time>2025-08-03T06:37:45.000Z</time>
</trkpt>
<trkpt lat="45.9567740" lon="10.1224520">
	<ele>1288.40</ele>
	<time>2025-08-03T06:37:46.000Z</time>
</trkpt>
<trkpt lat="45.9567740" lon="10.1224490">
	<ele>1288.60</ele>
	<time>2025-08-03T06:37:47.000Z</time>
</trkpt>
<trkpt lat="45.9567860" lon="10.1224480">
	<ele>1288.60</ele>
	<time>2025-08-03T06:37:48.000Z</time>
</trkpt>
<trkpt lat="45.9567840" lon="10.1224370">
	<ele>1288.80</ele>
	<time>2025-08-03T06:37:49.000Z</time>
</trkpt>
<trkpt lat="45.9567910" lon="10.1224370">
	<ele>1288.80</ele>
	<time>2025-08-03T06:37:50.000Z</time>
</trkpt>
<trkpt lat="45.9567870" lon="10.1224330">
	<ele>1289.00</ele>
	<time>2025-08-03T06:37:51.000Z</time>
</trkpt>
<trkpt lat="45.9567830" lon="10.1224220">
	<ele>1289.20</ele>
	<time>2025-08-03T06:37:52.000Z</time>
</trkpt>
<trkpt lat="45.9567890" lon="10.1224220">
	<ele>1289.40</ele>
	<time>2025-08-03T06:37:53.000Z</time>
</trkpt>
<trkpt lat="45.9567870" lon="10.1224160">
	<ele>1289.60</ele>
	<time>2025-08-03T06:37:54.000Z</time>
</trkpt>
<trkpt lat="45.9567860" lon="10.1224130">
	<ele>1289.80</ele>
	<time>2025-08-03T06:37:55.000Z</time>
</trkpt>
<trkpt lat="45.9567890" lon="10.1224130">
	<ele>1290.00</ele>
	<time>2025-08-03T06:37:56.000Z</time>
</trkpt>
<trkpt lat="45.9567820" lon="10.1224040">
	<ele>1290.20</ele>
	<time>2025-08-03T06:37:57.000Z</time>
</trkpt>
<trkpt lat="45.9567820" lon="10.1223960">
	<ele>1290.20</ele>
	<time>2025-08-03T06:37:58.000Z</time>
</trkpt>
<trkpt lat="45.9567830" lon="10.1223850">
	<ele>1290.40</ele>
	<time>2025-08-03T06:37:59.000Z</time>
</trkpt>
<trkpt lat="45.9567850" lon="10.1223690">
	<ele>1290.40</ele>
	<time>2025-08-03T06:38:00.000Z</time>
</trkpt>
<trkpt lat="45.9567800" lon="10.1223540">
	<ele>1290.80</ele>
	<time>2025-08-03T06:38:01.000Z</time>
</trkpt>
<trkpt lat="45.9567840" lon="10.1223510">
	<ele>1291.00</ele>
	<time>2025-08-03T06:38:02.000Z</time>
</trkpt>
<trkpt lat="45.9567910" lon="10.1223550">
	<ele>1291.20</ele>
	<time>2025-08-03T06:38:03.000Z</time>
</trkpt>
<trkpt lat="45.9567940" lon="10.1223490">
	<ele>1291.40</ele>
	<time>2025-08-03T06:38:04.000Z</time>
</trkpt>
<trkpt lat="45.9567980" lon="10.1223470">
	<ele>1291.80</ele>
	<time>2025-08-03T06:38:05.000Z</time>
</trkpt>
<trkpt lat="45.9568010" lon="10.1223450">
	<ele>1292.00</ele>
	<time>2025-08-03T06:38:06.000Z</time>
</trkpt>
<trkpt lat="45.9568080" lon="10.1223440">
	<ele>1292.20</ele>
	<time>2025-08-03T06:38:07.000Z</time>
</trkpt>
<trkpt lat="45.9568110" lon="10.1223390">
	<ele>1292.40</ele>
	<time>2025-08-03T06:38:08.000Z</time>
</trkpt>
<trkpt lat="45.9568170" lon="10.1223350">
	<ele>1292.60</ele>
	<time>2025-08-03T06:38:09.000Z</time>
</trkpt>
<trkpt lat="45.9568240" lon="10.1223420">
	<ele>1292.80</ele>
	<time>2025-08-03T06:38:10.000Z</time>
</trkpt>
<trkpt lat="45.9568210" lon="10.1223460">
	<ele>1293.00</ele>
	<time>2025-08-03T06:38:11.000Z</time>
</trkpt>
<trkpt lat="45.9568280" lon="10.1223450">
	<ele>1293.20</ele>
	<time>2025-08-03T06:38:12.000Z</time>
</trkpt>
<trkpt lat="45.9568250" lon="10.1223500">
	<ele>1293.20</ele>
	<time>2025-08-03T06:38:13.000Z</time>
</trkpt>
<trkpt lat="45.9568270" lon="10.1223540">
	<ele>1293.40</ele>
	<time>2025-08-03T06:38:14.000Z</time>
</trkpt>
<trkpt lat="45.9568360" lon="10.1223540">
	<ele>1293.60</ele>
	<time>2025-08-03T06:38:15.000Z</time>
</trkpt>
<trkpt lat="45.9568450" lon="10.1223560">
	<ele>1293.80</ele>
	<time>2025-08-03T06:38:16.000Z</time>
</trkpt>
<trkpt lat="45.9568540" lon="10.1223430">
	<ele>1294.00</ele>
	<time>2025-08-03T06:38:17.000Z</time>
</trkpt>
<trkpt lat="45.9568500" lon="10.1223410">
	<ele>1294.00</ele>
	<time>2025-08-03T06:38:18.000Z</time>
</trkpt>
<trkpt lat="45.9568550" lon="10.1223470">
	<ele>1294.00</ele>
	<time>2025-08-03T06:38:19.000Z</time>
</trkpt>
<trkpt lat="45.9568630" lon="10.1223520">
	<ele>1294.20</ele>
	<time>2025-08-03T06:38:20.000Z</time>
</trkpt>
<trkpt lat="45.9568630" lon="10.1223690">
	<ele>1294.40</ele>
	<time>2025-08-03T06:38:21.000Z</time>
</trkpt>
<trkpt lat="45.9568750" lon="10.1223730">
	<ele>1294.40</ele>
	<time>2025-08-03T06:38:22.000Z</time>
</trkpt>
<trkpt lat="45.9568740" lon="10.1223710">
	<ele>1294.60</ele>
	<time>2025-08-03T06:38:23.000Z</time>
</trkpt>
<trkpt lat="45.9568720" lon="10.1223660">
	<ele>1295.00</ele>
	<time>2025-08-03T06:38:24.000Z</time>
</trkpt>
<trkpt lat="45.9568670" lon="10.1223640">
	<ele>1295.40</ele>
	<time>2025-08-03T06:38:25.000Z</time>
</trkpt>
<trkpt lat="45.9568620" lon="10.1223620">
	<ele>1295.60</ele>
	<time>2025-08-03T06:38:26.000Z</time>
</trkpt>
<trkpt lat="45.9568590" lon="10.1223550">
	<ele>1295.60</ele>
	<time>2025-08-03T06:38:27.000Z</time>
</trkpt>
<trkpt lat="45.9568690" lon="10.1223470">
	<ele>1295.80</ele>
	<time>2025-08-03T06:38:28.000Z</time>
</trkpt>
<trkpt lat="45.9568760" lon="10.1223360">
	<ele>1295.80</ele>
	<time>2025-08-03T06:38:29.000Z</time>
</trkpt>
<trkpt lat="45.9568840" lon="10.1223320">
	<ele>1295.80</ele>
	<time>2025-08-03T06:38:30.000Z</time>
</trkpt>
<trkpt lat="45.9568960" lon="10.1223270">
	<ele>1295.80</ele>
	<time>2025-08-03T06:38:31.000Z</time>
</trkpt>
<trkpt lat="45.9569070" lon="10.1223200">
	<ele>1295.80</ele>
	<time>2025-08-03T06:38:32.000Z</time>
</trkpt>
<trkpt lat="45.9569200" lon="10.1223120">
	<ele>1295.80</ele>
	<time>2025-08-03T06:38:33.000Z</time>
</trkpt>
<trkpt lat="45.9569190" lon="10.1223080">
	<ele>1296.00</ele>
	<time>2025-08-03T06:38:34.000Z</time>
</trkpt>
<trkpt lat="45.9569370" lon="10.1223000">
	<ele>1296.20</ele>
	<time>2025-08-03T06:38:35.000Z</time>
</trkpt>
<trkpt lat="45.9569450" lon="10.1222950">
	<ele>1296.40</ele>
	<time>2025-08-03T06:38:36.000Z</time>
</trkpt>
<trkpt lat="45.9569480" lon="10.1222840">
	<ele>1296.60</ele>
	<time>2025-08-03T06:38:37.000Z</time>
</trkpt>
<trkpt lat="45.9569580" lon="10.1222810">
	<ele>1296.80</ele>
	<time>2025-08-03T06:38:38.000Z</time>
</trkpt>
<trkpt lat="45.9569740" lon="10.1222850">
	<ele>1297.00</ele>
	<time>2025-08-03T06:38:39.000Z</time>
</trkpt>
<trkpt lat="45.9569730" lon="10.1222740">
	<ele>1297.20</ele>
	<time>2025-08-03T06:38:40.000Z</time>
</trkpt>
<trkpt lat="45.9569820" lon="10.1222650">
	<ele>1297.20</ele>
	<time>2025-08-03T06:38:41.000Z</time>
</trkpt>
<trkpt lat="45.9569980" lon="10.1222550">
	<ele>1297.20</ele>
	<time>2025-08-03T06:38:42.000Z</time>
</trkpt>
<trkpt lat="45.9570050" lon="10.1222350">
	<ele>1297.40</ele>
	<time>2025-08-03T06:38:43.000Z</time>
</trkpt>
<trkpt lat="45.9569950" lon="10.1222120">
	<ele>1297.60</ele>
	<time>2025-08-03T06:38:44.000Z</time>
</trkpt>
<trkpt lat="45.9570000" lon="10.1221920">
	<ele>1297.80</ele>
	<time>2025-08-03T06:38:45.000Z</time>
</trkpt>
<trkpt lat="45.9570040" lon="10.1221710">
	<ele>1298.00</ele>
	<time>2025-08-03T06:38:46.000Z</time>
</trkpt>
<trkpt lat="45.9570070" lon="10.1221680">
	<ele>1298.00</ele>
	<time>2025-08-03T06:38:47.000Z</time>
</trkpt>
<trkpt lat="45.9570230" lon="10.1221700">
	<ele>1298.20</ele>
	<time>2025-08-03T06:38:48.000Z</time>
</trkpt>
<trkpt lat="45.9570390" lon="10.1221590">
	<ele>1298.40</ele>
	<time>2025-08-03T06:38:49.000Z</time>
</trkpt>
<trkpt lat="45.9570500" lon="10.1221410">
	<ele>1298.40</ele>
	<time>2025-08-03T06:38:50.000Z</time>
</trkpt>
<trkpt lat="45.9570540" lon="10.1221310">
	<ele>1298.60</ele>
	<time>2025-08-03T06:38:51.000Z</time>
</trkpt>
<trkpt lat="45.9570580" lon="10.1221220">
	<ele>1298.60</ele>
	<time>2025-08-03T06:38:52.000Z</time>
</trkpt>
<trkpt lat="45.9570620" lon="10.1221070">
	<ele>1298.80</ele>
	<time>2025-08-03T06:38:53.000Z</time>
</trkpt>
<trkpt lat="45.9570600" lon="10.1220910">
	<ele>1299.00</ele>
	<time>2025-08-03T06:38:54.000Z</time>
</trkpt>
<trkpt lat="45.9570570" lon="10.1220810">
	<ele>1299.20</ele>
	<time>2025-08-03T06:38:55.000Z</time>
</trkpt>
<trkpt lat="45.9570620" lon="10.1220830">
	<ele>1299.40</ele>
	<time>2025-08-03T06:38:56.000Z</time>
</trkpt>
<trkpt lat="45.9570650" lon="10.1220810">
	<ele>1299.80</ele>
	<time>2025-08-03T06:38:57.000Z</time>
</trkpt>
<trkpt lat="45.9570700" lon="10.1220760">
	<ele>1299.80</ele>
	<time>2025-08-03T06:38:58.000Z</time>
</trkpt>
<trkpt lat="45.9570780" lon="10.1220760">
	<ele>1300.00</ele>
	<time>2025-08-03T06:38:59.000Z</time>
</trkpt>
<trkpt lat="45.9570850" lon="10.1220710">
	<ele>1300.20</ele>
	<time>2025-08-03T06:39:00.000Z</time>
</trkpt>
<trkpt lat="45.9570910" lon="10.1220580">
	<ele>1300.60</ele>
	<time>2025-08-03T06:39:01.000Z</time>
</trkpt>
<trkpt lat="45.9571040" lon="10.1220520">
	<ele>1300.80</ele>
	<time>2025-08-03T06:39:02.000Z</time>
</trkpt>
<trkpt lat="45.9571230" lon="10.1220570">
	<ele>1301.20</ele>
	<time>2025-08-03T06:39:03.000Z</time>
</trkpt>
<trkpt lat="45.9571420" lon="10.1220630">
	<ele>1301.60</ele>
	<time>2025-08-03T06:39:04.000Z</time>
</trkpt>
<trkpt lat="45.9571550" lon="10.1220620">
	<ele>1301.80</ele>
	<time>2025-08-03T06:39:05.000Z</time>
</trkpt>
<trkpt lat="45.9571180" lon="10.1220330">
	<ele>1301.80</ele>
	<time>2025-08-03T06:39:06.000Z</time>
</trkpt>
<trkpt lat="45.9571280" lon="10.1220200">
	<ele>1302.00</ele>
	<time>2025-08-03T06:39:07.000Z</time>
</trkpt>
<trkpt lat="45.9571260" lon="10.1220220">
	<ele>1302.00</ele>
	<time>2025-08-03T06:39:08.000Z</time>
</trkpt>
<trkpt lat="45.9571220" lon="10.1220190">
	<ele>1302.20</ele>
	<time>2025-08-03T06:39:09.000Z</time>
</trkpt>
<trkpt lat="45.9571180" lon="10.1220150">
	<ele>1302.20</ele>
	<time>2025-08-03T06:39:10.000Z</time>
</trkpt>
<trkpt lat="45.9571130" lon="10.1219940">
	<ele>1302.40</ele>
	<time>2025-08-03T06:39:11.000Z</time>
</trkpt>
<trkpt lat="45.9571130" lon="10.1219730">
	<ele>1302.60</ele>
	<time>2025-08-03T06:39:12.000Z</time>
</trkpt>
<trkpt lat="45.9571200" lon="10.1219580">
	<ele>1302.60</ele>
	<time>2025-08-03T06:39:13.000Z</time>
</trkpt>
<trkpt lat="45.9571270" lon="10.1219360">
	<ele>1302.80</ele>
	<time>2025-08-03T06:39:14.000Z</time>
</trkpt>
<trkpt lat="45.9571510" lon="10.1219280">
	<ele>1302.80</ele>
	<time>2025-08-03T06:39:15.000Z</time>
</trkpt>
<trkpt lat="45.9571740" lon="10.1219310">
	<ele>1303.00</ele>
	<time>2025-08-03T06:39:16.000Z</time>
</trkpt>
<trkpt lat="45.9571890" lon="10.1219380">
	<ele>1303.00</ele>
	<time>2025-08-03T06:39:17.000Z</time>
</trkpt>
<trkpt lat="45.9571980" lon="10.1219500">
	<ele>1303.20</ele>
	<time>2025-08-03T06:39:18.000Z</time>
</trkpt>
<trkpt lat="45.9571990" lon="10.1219480">
	<ele>1303.20</ele>
	<time>2025-08-03T06:39:19.000Z</time>
</trkpt>
<trkpt lat="45.9572040" lon="10.1219440">
	<ele>1303.20</ele>
	<time>2025-08-03T06:39:20.000Z</time>
</trkpt>
<trkpt lat="45.9572070" lon="10.1219340">
	<ele>1303.40</ele>
	<time>2025-08-03T06:39:21.000Z</time>
</trkpt>
<trkpt lat="45.9572100" lon="10.1219200">
	<ele>1303.60</ele>
	<time>2025-08-03T06:39:22.000Z</time>
</trkpt>
<trkpt lat="45.9572110" lon="10.1219060">
	<ele>1303.80</ele>
	<time>2025-08-03T06:39:23.000Z</time>
</trkpt>
<trkpt lat="45.9572170" lon="10.1218960">
	<ele>1303.80</ele>
	<time>2025-08-03T06:39:24.000Z</time>
</trkpt>
<trkpt lat="45.9572280" lon="10.1218910">
	<ele>1304.00</ele>
	<time>2025-08-03T06:39:25.000Z</time>
</trkpt>
<trkpt lat="45.9572390" lon="10.1218900">
	<ele>1304.20</ele>
	<time>2025-08-03T06:39:26.000Z</time>
</trkpt>
<trkpt lat="45.9572560" lon="10.1218990">
	<ele>1304.20</ele>
	<time>2025-08-03T06:39:27.000Z</time>
</trkpt>
<trkpt lat="45.9572680" lon="10.1219010">
	<ele>1304.40</ele>
	<time>2025-08-03T06:39:28.000Z</time>
</trkpt>
<trkpt lat="45.9572780" lon="10.1218980">
	<ele>1304.40</ele>
	<time>2025-08-03T06:39:29.000Z</time>
</trkpt>
<trkpt lat="45.9572850" lon="10.1218830">
	<ele>1304.60</ele>
	<time>2025-08-03T06:39:30.000Z</time>
</trkpt>
<trkpt lat="45.9572950" lon="10.1218690">
	<ele>1304.80</ele>
	<time>2025-08-03T06:39:31.000Z</time>
</trkpt>
<trkpt lat="45.9573110" lon="10.1218610">
	<ele>1305.20</ele>
	<time>2025-08-03T06:39:32.000Z</time>
</trkpt>
<trkpt lat="45.9573420" lon="10.1218660">
	<ele>1305.20</ele>
	<time>2025-08-03T06:39:33.000Z</time>
</trkpt>
<trkpt lat="45.9573560" lon="10.1218820">
	<ele>1305.40</ele>
	<time>2025-08-03T06:39:34.000Z</time>
</trkpt>
<trkpt lat="45.9573680" lon="10.1218840">
	<ele>1305.60</ele>
	<time>2025-08-03T06:39:35.000Z</time>
</trkpt>
<trkpt lat="45.9573820" lon="10.1218870">
	<ele>1305.60</ele>
	<time>2025-08-03T06:39:36.000Z</time>
</trkpt>
<trkpt lat="45.9574010" lon="10.1218910">
	<ele>1305.80</ele>
	<time>2025-08-03T06:39:37.000Z</time>
</trkpt>
<trkpt lat="45.9574180" lon="10.1218880">
	<ele>1305.80</ele>
	<time>2025-08-03T06:39:38.000Z</time>
</trkpt>
<trkpt lat="45.9574320" lon="10.1218880">
	<ele>1306.00</ele>
	<time>2025-08-03T06:39:39.000Z</time>
</trkpt>
<trkpt lat="45.9574420" lon="10.1218960">
	<ele>1306.20</ele>
	<time>2025-08-03T06:39:40.000Z</time>
</trkpt>
<trkpt lat="45.9574530" lon="10.1218970">
	<ele>1306.40</ele>
	<time>2025-08-03T06:39:41.000Z</time>
</trkpt>
<trkpt lat="45.9574630" lon="10.1219020">
	<ele>1306.60</ele>
	<time>2025-08-03T06:39:42.000Z</time>
</trkpt>
<trkpt lat="45.9574800" lon="10.1219130">
	<ele>1306.80</ele>
	<time>2025-08-03T06:39:43.000Z</time>
</trkpt>
<trkpt lat="45.9574940" lon="10.1219190">
	<ele>1306.80</ele>
	<time>2025-08-03T06:39:44.000Z</time>
</trkpt>
<trkpt lat="45.9575020" lon="10.1219180">
	<ele>1307.00</ele>
	<time>2025-08-03T06:39:45.000Z</time>
</trkpt>
<trkpt lat="45.9575100" lon="10.1219210">
	<ele>1307.00</ele>
	<time>2025-08-03T06:39:46.000Z</time>
</trkpt>
<trkpt lat="45.9575220" lon="10.1219220">
	<ele>1307.20</ele>
	<time>2025-08-03T06:39:47.000Z</time>
</trkpt>
<trkpt lat="45.9575310" lon="10.1219230">
	<ele>1307.40</ele>
	<time>2025-08-03T06:39:48.000Z</time>
</trkpt>
<trkpt lat="45.9575390" lon="10.1219270">
	<ele>1307.60</ele>
	<time>2025-08-03T06:39:49.000Z</time>
</trkpt>
<trkpt lat="45.9575470" lon="10.1219300">
	<ele>1307.60</ele>
	<time>2025-08-03T06:39:50.000Z</time>
</trkpt>
<trkpt lat="45.9575490" lon="10.1219360">
	<ele>1307.80</ele>
	<time>2025-08-03T06:39:51.000Z</time>
</trkpt>
<trkpt lat="45.9575530" lon="10.1219420">
	<ele>1307.80</ele>
	<time>2025-08-03T06:39:52.000Z</time>
</trkpt>
<trkpt lat="45.9575630" lon="10.1219500">
	<ele>1307.80</ele>
	<time>2025-08-03T06:39:53.000Z</time>
</trkpt>
<trkpt lat="45.9575690" lon="10.1219590">
	<ele>1307.80</ele>
	<time>2025-08-03T06:39:54.000Z</time>
</trkpt>
<trkpt lat="45.9575730" lon="10.1219640">
	<ele>1308.00</ele>
	<time>2025-08-03T06:39:55.000Z</time>
</trkpt>
<trkpt lat="45.9575910" lon="10.1219760">
	<ele>1308.20</ele>
	<time>2025-08-03T06:39:56.000Z</time>
</trkpt>
<trkpt lat="45.9575920" lon="10.1219790">
	<ele>1308.20</ele>
	<time>2025-08-03T06:39:57.000Z</time>
</trkpt>
<trkpt lat="45.9576030" lon="10.1219840">
	<ele>1308.40</ele>
	<time>2025-08-03T06:39:58.000Z</time>
</trkpt>
<trkpt lat="45.9576130" lon="10.1219940">
	<ele>1308.40</ele>
	<time>2025-08-03T06:39:59.000Z</time>
</trkpt>
<trkpt lat="45.9576190" lon="10.1220040">
	<ele>1308.60</ele>
	<time>2025-08-03T06:40:00.000Z</time>
</trkpt>
<trkpt lat="45.9576260" lon="10.1220090">
	<ele>1308.80</ele>
	<time>2025-08-03T06:40:01.000Z</time>
</trkpt>
<trkpt lat="45.9576260" lon="10.1220030">
	<ele>1309.00</ele>
	<time>2025-08-03T06:40:02.000Z</time>
</trkpt>
<trkpt lat="45.9576300" lon="10.1220070">
	<ele>1309.00</ele>
	<time>2025-08-03T06:40:03.000Z</time>
</trkpt>
<trkpt lat="45.9576600" lon="10.1220090">
	<ele>1309.20</ele>
	<time>2025-08-03T06:40:04.000Z</time>
</trkpt>
<trkpt lat="45.9576840" lon="10.1220190">
	<ele>1309.20</ele>
	<time>2025-08-03T06:40:05.000Z</time>
</trkpt>
<trkpt lat="45.9576930" lon="10.1220210">
	<ele>1309.40</ele>
	<time>2025-08-03T06:40:06.000Z</time>
</trkpt>
<trkpt lat="45.9577000" lon="10.1220280">
	<ele>1309.40</ele>
	<time>2025-08-03T06:40:07.000Z</time>
</trkpt>
<trkpt lat="45.9577010" lon="10.1220420">
	<ele>1309.60</ele>
	<time>2025-08-03T06:40:08.000Z</time>
</trkpt>
<trkpt lat="45.9577090" lon="10.1220590">
	<ele>1309.60</ele>
	<time>2025-08-03T06:40:09.000Z</time>
</trkpt>
<trkpt lat="45.9577100" lon="10.1220630">
	<ele>1309.80</ele>
	<time>2025-08-03T06:40:10.000Z</time>
</trkpt>
<trkpt lat="45.9577320" lon="10.1220740">
	<ele>1310.00</ele>
	<time>2025-08-03T06:40:11.000Z</time>
</trkpt>
<trkpt lat="45.9577610" lon="10.1220700">
	<ele>1310.00</ele>
	<time>2025-08-03T06:40:12.000Z</time>
</trkpt>
<trkpt lat="45.9577890" lon="10.1220790">
	<ele>1310.20</ele>
	<time>2025-08-03T06:40:13.000Z</time>
</trkpt>
<trkpt lat="45.9577970" lon="10.1220810">
	<ele>1310.20</ele>
	<time>2025-08-03T06:40:14.000Z</time>
</trkpt>
<trkpt lat="45.9578030" lon="10.1220800">
	<ele>1310.20</ele>
	<time>2025-08-03T06:40:15.000Z</time>
</trkpt>
<trkpt lat="45.9578140" lon="10.1220790">
	<ele>1310.40</ele>
	<time>2025-08-03T06:40:16.000Z</time>
</trkpt>
<trkpt lat="45.9578300" lon="10.1220870">
	<ele>1310.60</ele>
	<time>2025-08-03T06:40:17.000Z</time>
</trkpt>
<trkpt lat="45.9578460" lon="10.1220900">
	<ele>1310.60</ele>
	<time>2025-08-03T06:40:18.000Z</time>
</trkpt>
<trkpt lat="45.9578590" lon="10.1220910">
	<ele>1310.80</ele>
	<time>2025-08-03T06:40:19.000Z</time>
</trkpt>
<trkpt lat="45.9578690" lon="10.1220920">
	<ele>1311.00</ele>
	<time>2025-08-03T06:40:20.000Z</time>
</trkpt>
<trkpt lat="45.9578780" lon="10.1220850">
	<ele>1311.00</ele>
	<time>2025-08-03T06:40:21.000Z</time>
</trkpt>
<trkpt lat="45.9578890" lon="10.1220900">
	<ele>1311.20</ele>
	<time>2025-08-03T06:40:22.000Z</time>
</trkpt>
<trkpt lat="45.9578990" lon="10.1220910">
	<ele>1311.20</ele>
	<time>2025-08-03T06:40:23.000Z</time>
</trkpt>
<trkpt lat="45.9579010" lon="10.1220900">
	<ele>1311.40</ele>
	<time>2025-08-03T06:40:24.000Z</time>
</trkpt>
<trkpt lat="45.9579040" lon="10.1220900">
	<ele>1311.40</ele>
	<time>2025-08-03T06:40:25.000Z</time>
</trkpt>
<trkpt lat="45.9579070" lon="10.1220980">
	<ele>1311.60</ele>
	<time>2025-08-03T06:40:26.000Z</time>
</trkpt>
<trkpt lat="45.9578940" lon="10.1221070">
	<ele>1311.80</ele>
	<time>2025-08-03T06:40:27.000Z</time>
</trkpt>
<trkpt lat="45.9578880" lon="10.1221250">
	<ele>1311.80</ele>
	<time>2025-08-03T06:40:28.000Z</time>
</trkpt>
<trkpt lat="45.9578920" lon="10.1221360">
	<ele>1312.00</ele>
	<time>2025-08-03T06:40:29.000Z</time>
</trkpt>
<trkpt lat="45.9579030" lon="10.1221440">
	<ele>1312.20</ele>
	<time>2025-08-03T06:40:30.000Z</time>
</trkpt>
<trkpt lat="45.9579080" lon="10.1221460">
	<ele>1312.20</ele>
	<time>2025-08-03T06:40:31.000Z</time>
</trkpt>
<trkpt lat="45.9579110" lon="10.1221410">
	<ele>1312.20</ele>
	<time>2025-08-03T06:40:32.000Z</time>
</trkpt>
<trkpt lat="45.9579120" lon="10.1221440">
	<ele>1312.40</ele>
	<time>2025-08-03T06:40:33.000Z</time>
</trkpt>
<trkpt lat="45.9579360" lon="10.1221590">
	<ele>1312.40</ele>
	<time>2025-08-03T06:40:34.000Z</time>
</trkpt>
<trkpt lat="45.9579400" lon="10.1221590">
	<ele>1312.60</ele>
	<time>2025-08-03T06:40:35.000Z</time>
</trkpt>
<trkpt lat="45.9579760" lon="10.1221720">
	<ele>1312.80</ele>
	<time>2025-08-03T06:40:36.000Z</time>
</trkpt>
<trkpt lat="45.9579970" lon="10.1221800">
	<ele>1312.80</ele>
	<time>2025-08-03T06:40:37.000Z</time>
</trkpt>
<trkpt lat="45.9580060" lon="10.1221800">
	<ele>1313.00</ele>
	<time>2025-08-03T06:40:38.000Z</time>
</trkpt>
<trkpt lat="45.9580150" lon="10.1221800">
	<ele>1313.20</ele>
	<time>2025-08-03T06:40:39.000Z</time>
</trkpt>
<trkpt lat="45.9580000" lon="10.1221750">
	<ele>1313.40</ele>
	<time>2025-08-03T06:40:40.000Z</time>
</trkpt>
<trkpt lat="45.9580110" lon="10.1221790">
	<ele>1313.40</ele>
	<time>2025-08-03T06:40:41.000Z</time>
</trkpt>
<trkpt lat="45.9580240" lon="10.1221850">
	<ele>1313.60</ele>
	<time>2025-08-03T06:40:42.000Z</time>
</trkpt>
<trkpt lat="45.9580400" lon="10.1221920">
	<ele>1313.80</ele>
	<time>2025-08-03T06:40:43.000Z</time>
</trkpt>
<trkpt lat="45.9580520" lon="10.1221990">
	<ele>1314.00</ele>
	<time>2025-08-03T06:40:44.000Z</time>
</trkpt>
<trkpt lat="45.9580720" lon="10.1222010">
	<ele>1314.00</ele>
	<time>2025-08-03T06:40:45.000Z</time>
</trkpt>
<trkpt lat="45.9580840" lon="10.1222030">
	<ele>1314.20</ele>
	<time>2025-08-03T06:40:46.000Z</time>
</trkpt>
<trkpt lat="45.9580980" lon="10.1222060">
	<ele>1314.40</ele>
	<time>2025-08-03T06:40:47.000Z</time>
</trkpt>
<trkpt lat="45.9581110" lon="10.1222140">
	<ele>1314.40</ele>
	<time>2025-08-03T06:40:48.000Z</time>
</trkpt>
<trkpt lat="45.9581200" lon="10.1222320">
	<ele>1314.60</ele>
	<time>2025-08-03T06:40:49.000Z</time>
</trkpt>
<trkpt lat="45.9581180" lon="10.1222430">
	<ele>1314.80</ele>
	<time>2025-08-03T06:40:50.000Z</time>
</trkpt>
<trkpt lat="45.9581010" lon="10.1222530">
	<ele>1315.00</ele>
	<time>2025-08-03T06:40:51.000Z</time>
</trkpt>
<trkpt lat="45.9580930" lon="10.1222590">
	<ele>1315.20</ele>
	<time>2025-08-03T06:40:52.000Z</time>
</trkpt>
<trkpt lat="45.9580990" lon="10.1222640">
	<ele>1315.40</ele>
	<time>2025-08-03T06:40:53.000Z</time>
</trkpt>
<trkpt lat="45.9581090" lon="10.1222730">
	<ele>1315.60</ele>
	<time>2025-08-03T06:40:54.000Z</time>
</trkpt>
<trkpt lat="45.9581170" lon="10.1222800">
	<ele>1315.80</ele>
	<time>2025-08-03T06:40:55.000Z</time>
</trkpt>
<trkpt lat="45.9581200" lon="10.1222830">
	<ele>1316.00</ele>
	<time>2025-08-03T06:40:56.000Z</time>
</trkpt>
<trkpt lat="45.9581280" lon="10.1222870">
	<ele>1316.20</ele>
	<time>2025-08-03T06:40:57.000Z</time>
</trkpt>
<trkpt lat="45.9581260" lon="10.1222960">
	<ele>1316.20</ele>
	<time>2025-08-03T06:40:58.000Z</time>
</trkpt>
<trkpt lat="45.9581370" lon="10.1223050">
	<ele>1316.40</ele>
	<time>2025-08-03T06:40:59.000Z</time>
</trkpt>
<trkpt lat="45.9581440" lon="10.1223090">
	<ele>1316.60</ele>
	<time>2025-08-03T06:41:00.000Z</time>
</trkpt>
<trkpt lat="45.9581490" lon="10.1223130">
	<ele>1316.80</ele>
	<time>2025-08-03T06:41:01.000Z</time>
</trkpt>
<trkpt lat="45.9581520" lon="10.1223220">
	<ele>1317.00</ele>
	<time>2025-08-03T06:41:02.000Z</time>
</trkpt>
<trkpt lat="45.9581530" lon="10.1223280">
	<ele>1317.20</ele>
	<time>2025-08-03T06:41:03.000Z</time>
</trkpt>
<trkpt lat="45.9581590" lon="10.1223290">
	<ele>1317.40</ele>
	<time>2025-08-03T06:41:04.000Z</time>
</trkpt>
<trkpt lat="45.9581600" lon="10.1223350">
	<ele>1317.60</ele>
	<time>2025-08-03T06:41:05.000Z</time>
</trkpt>
<trkpt lat="45.9581560" lon="10.1223340">
	<ele>1317.60</ele>
	<time>2025-08-03T06:41:06.000Z</time>
</trkpt>
<trkpt lat="45.9581550" lon="10.1223390">
	<ele>1317.80</ele>
	<time>2025-08-03T06:41:07.000Z</time>
</trkpt>
<trkpt lat="45.9581540" lon="10.1223470">
	<ele>1318.00</ele>
	<time>2025-08-03T06:41:08.000Z</time>
</trkpt>
<trkpt lat="45.9581540" lon="10.1223530">
	<ele>1318.40</ele>
	<time>2025-08-03T06:41:09.000Z</time>
</trkpt>
<trkpt lat="45.9581580" lon="10.1223600">
	<ele>1318.60</ele>
	<time>2025-08-03T06:41:10.000Z</time>
</trkpt>
<trkpt lat="45.9581650" lon="10.1223720">
	<ele>1318.80</ele>
	<time>2025-08-03T06:41:11.000Z</time>
</trkpt>
<trkpt lat="45.9581720" lon="10.1223890">
	<ele>1319.00</ele>
	<time>2025-08-03T06:41:12.000Z</time>
</trkpt>
<trkpt lat="45.9581820" lon="10.1224070">
	<ele>1319.20</ele>
	<time>2025-08-03T06:41:13.000Z</time>
</trkpt>
<trkpt lat="45.9581840" lon="10.1224190">
	<ele>1319.40</ele>
	<time>2025-08-03T06:41:14.000Z</time>
</trkpt>
<trkpt lat="45.9581910" lon="10.1224310">
	<ele>1319.40</ele>
	<time>2025-08-03T06:41:15.000Z</time>
</trkpt>
<trkpt lat="45.9581940" lon="10.1224440">
	<ele>1319.60</ele>
	<time>2025-08-03T06:41:16.000Z</time>
</trkpt>
<trkpt lat="45.9581910" lon="10.1224460">
	<ele>1319.80</ele>
	<time>2025-08-03T06:41:17.000Z</time>
</trkpt>
<trkpt lat="45.9581870" lon="10.1224570">
	<ele>1320.00</ele>
	<time>2025-08-03T06:41:18.000Z</time>
</trkpt>
<trkpt lat="45.9581900" lon="10.1224670">
	<ele>1320.00</ele>
	<time>2025-08-03T06:41:19.000Z</time>
</trkpt>
<trkpt lat="45.9581860" lon="10.1224670">
	<ele>1320.20</ele>
	<time>2025-08-03T06:41:20.000Z</time>
</trkpt>
<trkpt lat="45.9581850" lon="10.1224700">
	<ele>1320.40</ele>
	<time>2025-08-03T06:41:21.000Z</time>
</trkpt>
<trkpt lat="45.9581940" lon="10.1224770">
	<ele>1320.60</ele>
	<time>2025-08-03T06:41:22.000Z</time>
</trkpt>
<trkpt lat="45.9581940" lon="10.1224830">
	<ele>1320.80</ele>
	<time>2025-08-03T06:41:23.000Z</time>
</trkpt>
<trkpt lat="45.9581880" lon="10.1224840">
	<ele>1320.80</ele>
	<time>2025-08-03T06:41:24.000Z</time>
</trkpt>
<trkpt lat="45.9581890" lon="10.1224840">
	<ele>1321.00</ele>
	<time>2025-08-03T06:41:25.000Z</time>
</trkpt>
<trkpt lat="45.9581920" lon="10.1224860">
	<ele>1321.00</ele>
	<time>2025-08-03T06:41:26.000Z</time>
</trkpt>
<trkpt lat="45.9582020" lon="10.1224900">
	<ele>1321.00</ele>
	<time>2025-08-03T06:41:27.000Z</time>
</trkpt>
<trkpt lat="45.9582180" lon="10.1224860">
	<ele>1321.20</ele>
	<time>2025-08-03T06:41:28.000Z</time>
</trkpt>
<trkpt lat="45.9582240" lon="10.1224830">
	<ele>1321.20</ele>
	<time>2025-08-03T06:41:29.000Z</time>
</trkpt>
<trkpt lat="45.9582230" lon="10.1224820">
	<ele>1321.20</ele>
	<time>2025-08-03T06:41:30.000Z</time>
</trkpt>
<trkpt lat="45.9582200" lon="10.1224820">
	<ele>1321.20</ele>
	<time>2025-08-03T06:41:31.000Z</time>
</trkpt>
<trkpt lat="45.9582140" lon="10.1224820">
	<ele>1321.20</ele>
	<time>2025-08-03T06:41:32.000Z</time>
</trkpt>
<trkpt lat="45.9582120" lon="10.1224860">
	<ele>1321.20</ele>
	<time>2025-08-03T06:41:33.000Z</time>
</trkpt>
<trkpt lat="45.9582020" lon="10.1224920">
	<ele>1321.20</ele>
	<time>2025-08-03T06:41:34.000Z</time>
</trkpt>
<trkpt lat="45.9581960" lon="10.1224960">
	<ele>1321.20</ele>
	<time>2025-08-03T06:41:35.000Z</time>
</trkpt>
<trkpt lat="45.9581940" lon="10.1225020">
	<ele>1321.40</ele>
	<time>2025-08-03T06:41:36.000Z</time>
</trkpt>
<trkpt lat="45.9581890" lon="10.1225060">
	<ele>1321.40</ele>
	<time>2025-08-03T06:41:37.000Z</time>
</trkpt>
<trkpt lat="45.9581810" lon="10.1225090">
	<ele>1321.40</ele>
	<time>2025-08-03T06:41:38.000Z</time>
</trkpt>
<trkpt lat="45.9581730" lon="10.1225040">
	<ele>1321.60</ele>
	<time>2025-08-03T06:41:39.000Z</time>
</trkpt>
<trkpt lat="45.9581620" lon="10.1225040">
	<ele>1321.60</ele>
	<time>2025-08-03T06:41:40.000Z</time>
</trkpt>
<trkpt lat="45.9581490" lon="10.1225110">
	<ele>1321.60</ele>
	<time>2025-08-03T06:41:41.000Z</time>
</trkpt>
<trkpt lat="45.9581360" lon="10.1225110">
	<ele>1321.60</ele>
	<time>2025-08-03T06:41:42.000Z</time>
</trkpt>
<trkpt lat="45.9581240" lon="10.1225070">
	<ele>1321.60</ele>
	<time>2025-08-03T06:41:43.000Z</time>
</trkpt>
<trkpt lat="45.9581090" lon="10.1224960">
	<ele>1321.60</ele>
	<time>2025-08-03T06:41:44.000Z</time>
</trkpt>
<trkpt lat="45.9580860" lon="10.1224850">
	<ele>1321.60</ele>
	<time>2025-08-03T06:41:45.000Z</time>
</trkpt>
<trkpt lat="45.9580550" lon="10.1224820">
	<ele>1321.60</ele>
	<time>2025-08-03T06:41:46.000Z</time>
</trkpt>
<trkpt lat="45.9580140" lon="10.1224700">
	<ele>1321.60</ele>
	<time>2025-08-03T06:41:47.000Z</time>
</trkpt>
<trkpt lat="45.9579870" lon="10.1224620">
	<ele>1321.60</ele>
	<time>2025-08-03T06:41:48.000Z</time>
</trkpt>
<trkpt lat="45.9579690" lon="10.1224610">
	<ele>1321.60</ele>
	<time>2025-08-03T06:41:49.000Z</time>
</trkpt>
<trkpt lat="45.9579550" lon="10.1224550">
	<ele>1321.60</ele>
	<time>2025-08-03T06:41:50.000Z</time>
</trkpt>
<trkpt lat="45.9579470" lon="10.1224480">
	<ele>1321.60</ele>
	<time>2025-08-03T06:41:51.000Z</time>
</trkpt>
<trkpt lat="45.9579380" lon="10.1224450">
	<ele>1321.60</ele>
	<time>2025-08-03T06:41:52.000Z</time>
</trkpt>
<trkpt lat="45.9579290" lon="10.1224460">
	<ele>1321.60</ele>
	<time>2025-08-03T06:41:53.000Z</time>
</trkpt>
<trkpt lat="45.9579180" lon="10.1224500">
	<ele>1321.60</ele>
	<time>2025-08-03T06:41:54.000Z</time>
</trkpt>
<trkpt lat="45.9579060" lon="10.1224580">
	<ele>1321.40</ele>
	<time>2025-08-03T06:41:55.000Z</time>
</trkpt>
<trkpt lat="45.9578950" lon="10.1224720">
	<ele>1321.40</ele>
	<time>2025-08-03T06:41:56.000Z</time>
</trkpt>
<trkpt lat="45.9578890" lon="10.1224790">
	<ele>1321.40</ele>
	<time>2025-08-03T06:41:57.000Z</time>
</trkpt>
<trkpt lat="45.9578810" lon="10.1224800">
	<ele>1321.40</ele>
	<time>2025-08-03T06:41:58.000Z</time>
</trkpt>
<trkpt lat="45.9578740" lon="10.1224780">
	<ele>1321.40</ele>
	<time>2025-08-03T06:41:59.000Z</time>
</trkpt>
<trkpt lat="45.9578690" lon="10.1224870">
	<ele>1321.40</ele>
	<time>2025-08-03T06:42:00.000Z</time>
</trkpt>
<trkpt lat="45.9578660" lon="10.1224870">
	<ele>1321.40</ele>
	<time>2025-08-03T06:42:01.000Z</time>
</trkpt>
<trkpt lat="45.9578590" lon="10.1224890">
	<ele>1321.60</ele>
	<time>2025-08-03T06:42:02.000Z</time>
</trkpt>
<trkpt lat="45.9578510" lon="10.1224860">
	<ele>1321.80</ele>
	<time>2025-08-03T06:42:03.000Z</time>
</trkpt>
<trkpt lat="45.9578390" lon="10.1224880">
	<ele>1321.80</ele>
	<time>2025-08-03T06:42:04.000Z</time>
</trkpt>
<trkpt lat="45.9578250" lon="10.1224870">
	<ele>1321.80</ele>
	<time>2025-08-03T06:42:05.000Z</time>
</trkpt>
<trkpt lat="45.9578080" lon="10.1224740">
	<ele>1321.80</ele>
	<time>2025-08-03T06:42:06.000Z</time>
</trkpt>
<trkpt lat="45.9577930" lon="10.1224740">
	<ele>1321.80</ele>
	<time>2025-08-03T06:42:07.000Z</time>
</trkpt>
<trkpt lat="45.9577920" lon="10.1224780">
	<ele>1321.60</ele>
	<time>2025-08-03T06:42:08.000Z</time>
</trkpt>
<trkpt lat="45.9577870" lon="10.1224800">
	<ele>1321.60</ele>
	<time>2025-08-03T06:42:09.000Z</time>
</trkpt>
<trkpt lat="45.9577920" lon="10.1225120">
	<ele>1321.40</ele>
	<time>2025-08-03T06:42:10.000Z</time>
</trkpt>
<trkpt lat="45.9577910" lon="10.1225450">
	<ele>1321.40</ele>
	<time>2025-08-03T06:42:11.000Z</time>
</trkpt>
<trkpt lat="45.9577830" lon="10.1225580">
	<ele>1321.60</ele>
	<time>2025-08-03T06:42:12.000Z</time>
</trkpt>
<trkpt lat="45.9577790" lon="10.1225790">
	<ele>1321.60</ele>
	<time>2025-08-03T06:42:13.000Z</time>
</trkpt>
<trkpt lat="45.9577700" lon="10.1225940">
	<ele>1321.60</ele>
	<time>2025-08-03T06:42:14.000Z</time>
</trkpt>
<trkpt lat="45.9577600" lon="10.1226010">
	<ele>1321.60</ele>
	<time>2025-08-03T06:42:15.000Z</time>
</trkpt>
<trkpt lat="45.9577500" lon="10.1226050">
	<ele>1321.60</ele>
	<time>2025-08-03T06:42:16.000Z</time>
</trkpt>
<trkpt lat="45.9577510" lon="10.1226140">
	<ele>1321.80</ele>
	<time>2025-08-03T06:42:17.000Z</time>
</trkpt>
<trkpt lat="45.9577660" lon="10.1226360">
	<ele>1321.80</ele>
	<time>2025-08-03T06:42:18.000Z</time>
</trkpt>
<trkpt lat="45.9577810" lon="10.1226650">
	<ele>1322.00</ele>
	<time>2025-08-03T06:42:19.000Z</time>
</trkpt>
<trkpt lat="45.9577870" lon="10.1226840">
	<ele>1322.00</ele>
	<time>2025-08-03T06:42:20.000Z</time>
</trkpt>
<trkpt lat="45.9577920" lon="10.1227100">
	<ele>1322.20</ele>
	<time>2025-08-03T06:42:21.000Z</time>
</trkpt>
<trkpt lat="45.9578000" lon="10.1227380">
	<ele>1322.60</ele>
	<time>2025-08-03T06:42:22.000Z</time>
</trkpt>
<trkpt lat="45.9577960" lon="10.1227650">
	<ele>1322.80</ele>
	<time>2025-08-03T06:42:23.000Z</time>
</trkpt>
<trkpt lat="45.9577990" lon="10.1227910">
	<ele>1323.20</ele>
	<time>2025-08-03T06:42:24.000Z</time>
</trkpt>
<trkpt lat="45.9577910" lon="10.1228100">
	<ele>1323.40</ele>
	<time>2025-08-03T06:42:25.000Z</time>
</trkpt>
<trkpt lat="45.9577760" lon="10.1228360">
	<ele>1323.60</ele>
	<time>2025-08-03T06:42:26.000Z</time>
</trkpt>
<trkpt lat="45.9577800" lon="10.1228600">
	<ele>1323.60</ele>
	<time>2025-08-03T06:42:27.000Z</time>
</trkpt>
<trkpt lat="45.9577840" lon="10.1228750">
	<ele>1323.80</ele>
	<time>2025-08-03T06:42:28.000Z</time>
</trkpt>
<trkpt lat="45.9577910" lon="10.1228880">
	<ele>1324.20</ele>
	<time>2025-08-03T06:42:29.000Z</time>
</trkpt>
<trkpt lat="45.9578050" lon="10.1229030">
	<ele>1324.40</ele>
	<time>2025-08-03T06:42:30.000Z</time>
</trkpt>
<trkpt lat="45.9578260" lon="10.1229220">
	<ele>1324.40</ele>
	<time>2025-08-03T06:42:31.000Z</time>
</trkpt>
<trkpt lat="45.9578390" lon="10.1229500">
	<ele>1324.60</ele>
	<time>2025-08-03T06:42:32.000Z</time>
</trkpt>
<trkpt lat="45.9578460" lon="10.1229810">
	<ele>1324.60</ele>
	<time>2025-08-03T06:42:33.000Z</time>
</trkpt>
<trkpt lat="45.9578600" lon="10.1230020">
	<ele>1324.60</ele>
	<time>2025-08-03T06:42:34.000Z</time>
</trkpt>
<trkpt lat="45.9578830" lon="10.1230150">
	<ele>1324.80</ele>
	<time>2025-08-03T06:42:35.000Z</time>
</trkpt>
<trkpt lat="45.9578880" lon="10.1230200">
	<ele>1325.00</ele>
	<time>2025-08-03T06:42:36.000Z</time>
</trkpt>
<trkpt lat="45.9578880" lon="10.1230230">
	<ele>1325.20</ele>
	<time>2025-08-03T06:42:37.000Z</time>
</trkpt>
<trkpt lat="45.9578750" lon="10.1230120">
	<ele>1325.40</ele>
	<time>2025-08-03T06:42:38.000Z</time>
</trkpt>
<trkpt lat="45.9578640" lon="10.1230090">
	<ele>1325.40</ele>
	<time>2025-08-03T06:42:39.000Z</time>
</trkpt>
<trkpt lat="45.9578510" lon="10.1230030">
	<ele>1325.40</ele>
	<time>2025-08-03T06:42:40.000Z</time>
</trkpt>
<trkpt lat="45.9578460" lon="10.1230010">
	<ele>1325.60</ele>
	<time>2025-08-03T06:42:41.000Z</time>
</trkpt>
<trkpt lat="45.9578440" lon="10.1230030">
	<ele>1325.80</ele>
	<time>2025-08-03T06:42:42.000Z</time>
</trkpt>
<trkpt lat="45.9578550" lon="10.1230020">
	<ele>1326.00</ele>
	<time>2025-08-03T06:42:43.000Z</time>
</trkpt>
<trkpt lat="45.9578660" lon="10.1230110">
	<ele>1326.00</ele>
	<time>2025-08-03T06:42:44.000Z</time>
</trkpt>
<trkpt lat="45.9578720" lon="10.1230210">
	<ele>1326.40</ele>
	<time>2025-08-03T06:42:45.000Z</time>
</trkpt>
<trkpt lat="45.9578740" lon="10.1230330">
	<ele>1326.40</ele>
	<time>2025-08-03T06:42:46.000Z</time>
</trkpt>
<trkpt lat="45.9578790" lon="10.1230490">
	<ele>1326.80</ele>
	<time>2025-08-03T06:42:47.000Z</time>
</trkpt>
<trkpt lat="45.9578850" lon="10.1230630">
	<ele>1327.00</ele>
	<time>2025-08-03T06:42:48.000Z</time>
</trkpt>
<trkpt lat="45.9578860" lon="10.1230750">
	<ele>1327.00</ele>
	<time>2025-08-03T06:42:49.000Z</time>
</trkpt>
<trkpt lat="45.9578880" lon="10.1230750">
	<ele>1327.20</ele>
	<time>2025-08-03T06:42:50.000Z</time>
</trkpt>
<trkpt lat="45.9578960" lon="10.1230840">
	<ele>1327.20</ele>
	<time>2025-08-03T06:42:51.000Z</time>
</trkpt>
<trkpt lat="45.9579060" lon="10.1230970">
	<ele>1327.40</ele>
	<time>2025-08-03T06:42:52.000Z</time>
</trkpt>
<trkpt lat="45.9579200" lon="10.1231040">
	<ele>1327.80</ele>
	<time>2025-08-03T06:42:53.000Z</time>
</trkpt>
<trkpt lat="45.9579310" lon="10.1231100">
	<ele>1327.80</ele>
	<time>2025-08-03T06:42:54.000Z</time>
</trkpt>
<trkpt lat="45.9579380" lon="10.1231210">
	<ele>1328.00</ele>
	<time>2025-08-03T06:42:55.000Z</time>
</trkpt>
<trkpt lat="45.9579430" lon="10.1231300">
	<ele>1328.20</ele>
	<time>2025-08-03T06:42:56.000Z</time>
</trkpt>
<trkpt lat="45.9579520" lon="10.1231310">
	<ele>1328.40</ele>
	<time>2025-08-03T06:42:57.000Z</time>
</trkpt>
<trkpt lat="45.9579600" lon="10.1231420">
	<ele>1328.60</ele>
	<time>2025-08-03T06:42:58.000Z</time>
</trkpt>
<trkpt lat="45.9579880" lon="10.1231520">
	<ele>1328.80</ele>
	<time>2025-08-03T06:42:59.000Z</time>
</trkpt>
<trkpt lat="45.9580100" lon="10.1231660">
	<ele>1329.00</ele>
	<time>2025-08-03T06:43:00.000Z</time>
</trkpt>
<trkpt lat="45.9580180" lon="10.1231660">
	<ele>1329.20</ele>
	<time>2025-08-03T06:43:01.000Z</time>
</trkpt>
<trkpt lat="45.9580280" lon="10.1231830">
	<ele>1329.40</ele>
	<time>2025-08-03T06:43:02.000Z</time>
</trkpt>
<trkpt lat="45.9580340" lon="10.1232010">
	<ele>1329.40</ele>
	<time>2025-08-03T06:43:03.000Z</time>
</trkpt>
<trkpt lat="45.9580430" lon="10.1232050">
	<ele>1329.60</ele>
	<time>2025-08-03T06:43:04.000Z</time>
</trkpt>
<trkpt lat="45.9580510" lon="10.1231990">
	<ele>1329.80</ele>
	<time>2025-08-03T06:43:05.000Z</time>
</trkpt>
<trkpt lat="45.9580590" lon="10.1231980">
	<ele>1330.00</ele>
	<time>2025-08-03T06:43:06.000Z</time>
</trkpt>
<trkpt lat="45.9580640" lon="10.1232000">
	<ele>1330.20</ele>
	<time>2025-08-03T06:43:07.000Z</time>
</trkpt>
<trkpt lat="45.9580690" lon="10.1232280">
	<ele>1330.20</ele>
	<time>2025-08-03T06:43:08.000Z</time>
</trkpt>
<trkpt lat="45.9580710" lon="10.1232330">
	<ele>1330.40</ele>
	<time>2025-08-03T06:43:09.000Z</time>
</trkpt>
<trkpt lat="45.9580760" lon="10.1232470">
	<ele>1330.60</ele>
	<time>2025-08-03T06:43:10.000Z</time>
</trkpt>
<trkpt lat="45.9580800" lon="10.1232480">
	<ele>1331.00</ele>
	<time>2025-08-03T06:43:11.000Z</time>
</trkpt>
<trkpt lat="45.9581010" lon="10.1232500">
	<ele>1331.20</ele>
	<time>2025-08-03T06:43:12.000Z</time>
</trkpt>
<trkpt lat="45.9581050" lon="10.1232500">
	<ele>1331.40</ele>
	<time>2025-08-03T06:43:13.000Z</time>
</trkpt>
<trkpt lat="45.9581290" lon="10.1232420">
	<ele>1331.60</ele>
	<time>2025-08-03T06:43:14.000Z</time>
</trkpt>
<trkpt lat="45.9581340" lon="10.1232380">
	<ele>1332.00</ele>
	<time>2025-08-03T06:43:15.000Z</time>
</trkpt>
<trkpt lat="45.9581450" lon="10.1232320">
	<ele>1332.20</ele>
	<time>2025-08-03T06:43:16.000Z</time>
</trkpt>
<trkpt lat="45.9581540" lon="10.1232350">
	<ele>1332.20</ele>
	<time>2025-08-03T06:43:17.000Z</time>
</trkpt>
<trkpt lat="45.9581510" lon="10.1232440">
	<ele>1332.40</ele>
	<time>2025-08-03T06:43:18.000Z</time>
</trkpt>
<trkpt lat="45.9581530" lon="10.1232580">
	<ele>1332.60</ele>
	<time>2025-08-03T06:43:19.000Z</time>
</trkpt>
<trkpt lat="45.9581610" lon="10.1232710">
	<ele>1332.80</ele>
	<time>2025-08-03T06:43:20.000Z</time>
</trkpt>
<trkpt lat="45.9581680" lon="10.1232910">
	<ele>1333.00</ele>
	<time>2025-08-03T06:43:21.000Z</time>
</trkpt>
<trkpt lat="45.9581810" lon="10.1233000">
	<ele>1333.20</ele>
	<time>2025-08-03T06:43:22.000Z</time>
</trkpt>
<trkpt lat="45.9581850" lon="10.1233030">
	<ele>1333.40</ele>
	<time>2025-08-03T06:43:23.000Z</time>
</trkpt>
<trkpt lat="45.9581930" lon="10.1233150">
	<ele>1333.60</ele>
	<time>2025-08-03T06:43:24.000Z</time>
</trkpt>
<trkpt lat="45.9581890" lon="10.1233220">
	<ele>1333.80</ele>
	<time>2025-08-03T06:43:25.000Z</time>
</trkpt>
<trkpt lat="45.9581890" lon="10.1233400">
	<ele>1334.20</ele>
	<time>2025-08-03T06:43:26.000Z</time>
</trkpt>
<trkpt lat="45.9581900" lon="10.1233510">
	<ele>1334.40</ele>
	<time>2025-08-03T06:43:27.000Z</time>
</trkpt>
<trkpt lat="45.9581970" lon="10.1233630">
	<ele>1334.40</ele>
	<time>2025-08-03T06:43:28.000Z</time>
</trkpt>
<trkpt lat="45.9582020" lon="10.1233780">
	<ele>1334.60</ele>
	<time>2025-08-03T06:43:29.000Z</time>
</trkpt>
<trkpt lat="45.9581980" lon="10.1233880">
	<ele>1334.60</ele>
	<time>2025-08-03T06:43:30.000Z</time>
</trkpt>
<trkpt lat="45.9581960" lon="10.1233910">
	<ele>1334.80</ele>
	<time>2025-08-03T06:43:31.000Z</time>
</trkpt>
<trkpt lat="45.9581980" lon="10.1233920">
	<ele>1335.00</ele>
	<time>2025-08-03T06:43:32.000Z</time>
</trkpt>
<trkpt lat="45.9581980" lon="10.1233960">
	<ele>1335.20</ele>
	<time>2025-08-03T06:43:33.000Z</time>
</trkpt>
<trkpt lat="45.9581970" lon="10.1233970">
	<ele>1335.40</ele>
	<time>2025-08-03T06:43:34.000Z</time>
</trkpt>
<trkpt lat="45.9582040" lon="10.1233950">
	<ele>1335.60</ele>
	<time>2025-08-03T06:43:35.000Z</time>
</trkpt>
<trkpt lat="45.9582060" lon="10.1234010">
	<ele>1336.00</ele>
	<time>2025-08-03T06:43:36.000Z</time>
</trkpt>
<trkpt lat="45.9582140" lon="10.1234200">
	<ele>1336.00</ele>
	<time>2025-08-03T06:43:37.000Z</time>
</trkpt>
<trkpt lat="45.9582140" lon="10.1234370">
	<ele>1336.20</ele>
	<time>2025-08-03T06:43:38.000Z</time>
</trkpt>
<trkpt lat="45.9582180" lon="10.1234420">
	<ele>1336.40</ele>
	<time>2025-08-03T06:43:39.000Z</time>
</trkpt>
<trkpt lat="45.9582180" lon="10.1234480">
	<ele>1336.60</ele>
	<time>2025-08-03T06:43:40.000Z</time>
</trkpt>
<trkpt lat="45.9582050" lon="10.1234420">
	<ele>1336.80</ele>
	<time>2025-08-03T06:43:41.000Z</time>
</trkpt>
<trkpt lat="45.9582000" lon="10.1234390">
	<ele>1337.00</ele>
	<time>2025-08-03T06:43:42.000Z</time>
</trkpt>
<trkpt lat="45.9582030" lon="10.1234420">
	<ele>1337.20</ele>
	<time>2025-08-03T06:43:43.000Z</time>
</trkpt>
<trkpt lat="45.9582030" lon="10.1234420">
	<ele>1337.40</ele>
	<time>2025-08-03T06:43:44.000Z</time>
</trkpt>
<trkpt lat="45.9581960" lon="10.1234510">
	<ele>1337.60</ele>
	<time>2025-08-03T06:43:45.000Z</time>
</trkpt>
<trkpt lat="45.9581930" lon="10.1234550">
	<ele>1337.60</ele>
	<time>2025-08-03T06:43:46.000Z</time>
</trkpt>
<trkpt lat="45.9581940" lon="10.1234600">
	<ele>1337.80</ele>
	<time>2025-08-03T06:43:47.000Z</time>
</trkpt>
<trkpt lat="45.9582030" lon="10.1234730">
	<ele>1337.80</ele>
	<time>2025-08-03T06:43:48.000Z</time>
</trkpt>
<trkpt lat="45.9582030" lon="10.1234720">
	<ele>1338.00</ele>
	<time>2025-08-03T06:43:49.000Z</time>
</trkpt>
<trkpt lat="45.9582100" lon="10.1234750">
	<ele>1338.20</ele>
	<time>2025-08-03T06:43:50.000Z</time>
</trkpt>
<trkpt lat="45.9582250" lon="10.1234860">
	<ele>1338.40</ele>
	<time>2025-08-03T06:43:51.000Z</time>
</trkpt>
<trkpt lat="45.9582370" lon="10.1234990">
	<ele>1338.60</ele>
	<time>2025-08-03T06:43:52.000Z</time>
</trkpt>
<trkpt lat="45.9582410" lon="10.1235210">
	<ele>1338.60</ele>
	<time>2025-08-03T06:43:53.000Z</time>
</trkpt>
<trkpt lat="45.9582490" lon="10.1235350">
	<ele>1338.80</ele>
	<time>2025-08-03T06:43:54.000Z</time>
</trkpt>
<trkpt lat="45.9582620" lon="10.1235420">
	<ele>1339.00</ele>
	<time>2025-08-03T06:43:55.000Z</time>
</trkpt>
<trkpt lat="45.9582690" lon="10.1235460">
	<ele>1339.20</ele>
	<time>2025-08-03T06:43:56.000Z</time>
</trkpt>
<trkpt lat="45.9582710" lon="10.1235500">
	<ele>1339.40</ele>
	<time>2025-08-03T06:43:57.000Z</time>
</trkpt>
<trkpt lat="45.9582700" lon="10.1235510">
	<ele>1339.60</ele>
	<time>2025-08-03T06:43:58.000Z</time>
</trkpt>
<trkpt lat="45.9582680" lon="10.1235520">
	<ele>1339.80</ele>
	<time>2025-08-03T06:43:59.000Z</time>
</trkpt>
<trkpt lat="45.9582700" lon="10.1235600">
	<ele>1340.00</ele>
	<time>2025-08-03T06:44:00.000Z</time>
</trkpt>
<trkpt lat="45.9582700" lon="10.1235620">
	<ele>1340.40</ele>
	<time>2025-08-03T06:44:01.000Z</time>
</trkpt>
<trkpt lat="45.9582560" lon="10.1235700">
	<ele>1340.60</ele>
	<time>2025-08-03T06:44:02.000Z</time>
</trkpt>
<trkpt lat="45.9582580" lon="10.1235780">
	<ele>1341.00</ele>
	<time>2025-08-03T06:44:03.000Z</time>
</trkpt>
<trkpt lat="45.9582640" lon="10.1235800">
	<ele>1341.20</ele>
	<time>2025-08-03T06:44:04.000Z</time>
</trkpt>
<trkpt lat="45.9582630" lon="10.1235780">
	<ele>1341.20</ele>
	<time>2025-08-03T06:44:05.000Z</time>
</trkpt>
<trkpt lat="45.9582580" lon="10.1235750">
	<ele>1341.40</ele>
	<time>2025-08-03T06:44:06.000Z</time>
</trkpt>
<trkpt lat="45.9582540" lon="10.1235770">
	<ele>1341.60</ele>
	<time>2025-08-03T06:44:07.000Z</time>
</trkpt>
<trkpt lat="45.9582490" lon="10.1235770">
	<ele>1341.60</ele>
	<time>2025-08-03T06:44:08.000Z</time>
</trkpt>
<trkpt lat="45.9582470" lon="10.1235860">
	<ele>1341.80</ele>
	<time>2025-08-03T06:44:09.000Z</time>
</trkpt>
<trkpt lat="45.9582390" lon="10.1235890">
	<ele>1342.00</ele>
	<time>2025-08-03T06:44:10.000Z</time>
</trkpt>
<trkpt lat="45.9582350" lon="10.1235940">
	<ele>1342.20</ele>
	<time>2025-08-03T06:44:11.000Z</time>
</trkpt>
<trkpt lat="45.9582410" lon="10.1235990">
	<ele>1342.40</ele>
	<time>2025-08-03T06:44:12.000Z</time>
</trkpt>
<trkpt lat="45.9582450" lon="10.1236060">
	<ele>1342.60</ele>
	<time>2025-08-03T06:44:13.000Z</time>
</trkpt>
<trkpt lat="45.9582400" lon="10.1236070">
	<ele>1342.80</ele>
	<time>2025-08-03T06:44:14.000Z</time>
</trkpt>
<trkpt lat="45.9582330" lon="10.1236040">
	<ele>1342.80</ele>
	<time>2025-08-03T06:44:15.000Z</time>
</trkpt>
<trkpt lat="45.9582290" lon="10.1236040">
	<ele>1343.00</ele>
	<time>2025-08-03T06:44:16.000Z</time>
</trkpt>
<trkpt lat="45.9582230" lon="10.1236040">
	<ele>1343.40</ele>
	<time>2025-08-03T06:44:17.000Z</time>
</trkpt>
<trkpt lat="45.9582130" lon="10.1235980">
	<ele>1343.40</ele>
	<time>2025-08-03T06:44:18.000Z</time>
</trkpt>
<trkpt lat="45.9581910" lon="10.1235850">
	<ele>1343.60</ele>
	<time>2025-08-03T06:44:19.000Z</time>
</trkpt>
<trkpt lat="45.9581800" lon="10.1235790">
	<ele>1343.80</ele>
	<time>2025-08-03T06:44:20.000Z</time>
</trkpt>
<trkpt lat="45.9581770" lon="10.1235730">
	<ele>1344.20</ele>
	<time>2025-08-03T06:44:21.000Z</time>
</trkpt>
<trkpt lat="45.9581730" lon="10.1235730">
	<ele>1344.20</ele>
	<time>2025-08-03T06:44:22.000Z</time>
</trkpt>
<trkpt lat="45.9581700" lon="10.1235830">
	<ele>1344.40</ele>
	<time>2025-08-03T06:44:23.000Z</time>
</trkpt>
<trkpt lat="45.9581660" lon="10.1235960">
	<ele>1344.80</ele>
	<time>2025-08-03T06:44:24.000Z</time>
</trkpt>
<trkpt lat="45.9581580" lon="10.1236120">
	<ele>1345.00</ele>
	<time>2025-08-03T06:44:25.000Z</time>
</trkpt>
<trkpt lat="45.9581420" lon="10.1236200">
	<ele>1345.20</ele>
	<time>2025-08-03T06:44:26.000Z</time>
</trkpt>
<trkpt lat="45.9581210" lon="10.1236270">
	<ele>1345.40</ele>
	<time>2025-08-03T06:44:27.000Z</time>
</trkpt>
<trkpt lat="45.9581080" lon="10.1236290">
	<ele>1345.60</ele>
	<time>2025-08-03T06:44:28.000Z</time>
</trkpt>
<trkpt lat="45.9581130" lon="10.1236440">
	<ele>1345.80</ele>
	<time>2025-08-03T06:44:29.000Z</time>
</trkpt>
<trkpt lat="45.9581320" lon="10.1236630">
	<ele>1345.80</ele>
	<time>2025-08-03T06:44:30.000Z</time>
</trkpt>
<trkpt lat="45.9581420" lon="10.1236770">
	<ele>1346.00</ele>
	<time>2025-08-03T06:44:31.000Z</time>
</trkpt>
<trkpt lat="45.9581410" lon="10.1236920">
	<ele>1346.20</ele>
	<time>2025-08-03T06:44:32.000Z</time>
</trkpt>
<trkpt lat="45.9581370" lon="10.1236960">
	<ele>1346.40</ele>
	<time>2025-08-03T06:44:33.000Z</time>
</trkpt>
<trkpt lat="45.9581210" lon="10.1236910">
	<ele>1346.40</ele>
	<time>2025-08-03T06:44:34.000Z</time>
</trkpt>
<trkpt lat="45.9581100" lon="10.1236930">
	<ele>1346.60</ele>
	<time>2025-08-03T06:44:35.000Z</time>
</trkpt>
<trkpt lat="45.9580990" lon="10.1236980">
	<ele>1346.80</ele>
	<time>2025-08-03T06:44:36.000Z</time>
</trkpt>
<trkpt lat="45.9580930" lon="10.1237130">
	<ele>1346.80</ele>
	<time>2025-08-03T06:44:37.000Z</time>
</trkpt>
<trkpt lat="45.9580640" lon="10.1237320">
	<ele>1346.80</ele>
	<time>2025-08-03T06:44:38.000Z</time>
</trkpt>
<trkpt lat="45.9580500" lon="10.1237450">
	<ele>1347.00</ele>
	<time>2025-08-03T06:44:39.000Z</time>
</trkpt>
<trkpt lat="45.9580430" lon="10.1237500">
	<ele>1347.00</ele>
	<time>2025-08-03T06:44:40.000Z</time>
</trkpt>
<trkpt lat="45.9580410" lon="10.1237610">
	<ele>1347.20</ele>
	<time>2025-08-03T06:44:41.000Z</time>
</trkpt>
<trkpt lat="45.9580350" lon="10.1237730">
	<ele>1347.20</ele>
	<time>2025-08-03T06:44:42.000Z</time>
</trkpt>
<trkpt lat="45.9580270" lon="10.1237780">
	<ele>1347.40</ele>
	<time>2025-08-03T06:44:43.000Z</time>
</trkpt>
<trkpt lat="45.9580210" lon="10.1237830">
	<ele>1347.60</ele>
	<time>2025-08-03T06:44:44.000Z</time>
</trkpt>
<trkpt lat="45.9580350" lon="10.1237990">
	<ele>1347.60</ele>
	<time>2025-08-03T06:44:45.000Z</time>
</trkpt>
<trkpt lat="45.9580460" lon="10.1238160">
	<ele>1347.80</ele>
	<time>2025-08-03T06:44:46.000Z</time>
</trkpt>
<trkpt lat="45.9580490" lon="10.1238290">
	<ele>1347.80</ele>
	<time>2025-08-03T06:44:47.000Z</time>
</trkpt>
<trkpt lat="45.9580420" lon="10.1238330">
	<ele>1348.00</ele>
	<time>2025-08-03T06:44:48.000Z</time>
</trkpt>
<trkpt lat="45.9580340" lon="10.1238330">
	<ele>1348.00</ele>
	<time>2025-08-03T06:44:49.000Z</time>
</trkpt>
<trkpt lat="45.9580250" lon="10.1238330">
	<ele>1348.20</ele>
	<time>2025-08-03T06:44:50.000Z</time>
</trkpt>
<trkpt lat="45.9580140" lon="10.1238300">
	<ele>1348.40</ele>
	<time>2025-08-03T06:44:51.000Z</time>
</trkpt>
<trkpt lat="45.9580070" lon="10.1238260">
	<ele>1348.60</ele>
	<time>2025-08-03T06:44:52.000Z</time>
</trkpt>
<trkpt lat="45.9580000" lon="10.1238280">
	<ele>1348.60</ele>
	<time>2025-08-03T06:44:53.000Z</time>
</trkpt>
<trkpt lat="45.9579850" lon="10.1238250">
	<ele>1348.80</ele>
	<time>2025-08-03T06:44:54.000Z</time>
</trkpt>
<trkpt lat="45.9579740" lon="10.1238250">
	<ele>1348.80</ele>
	<time>2025-08-03T06:44:55.000Z</time>
</trkpt>
<trkpt lat="45.9579640" lon="10.1238270">
	<ele>1349.00</ele>
	<time>2025-08-03T06:44:56.000Z</time>
</trkpt>
<trkpt lat="45.9579590" lon="10.1238280">
	<ele>1349.00</ele>
	<time>2025-08-03T06:44:57.000Z</time>
</trkpt>
<trkpt lat="45.9579470" lon="10.1238340">
	<ele>1349.40</ele>
	<time>2025-08-03T06:44:58.000Z</time>
</trkpt>
<trkpt lat="45.9579360" lon="10.1238430">
	<ele>1349.60</ele>
	<time>2025-08-03T06:44:59.000Z</time>
</trkpt>
<trkpt lat="45.9579220" lon="10.1238500">
	<ele>1349.80</ele>
	<time>2025-08-03T06:45:00.000Z</time>
</trkpt>
<trkpt lat="45.9579200" lon="10.1238690">
	<ele>1350.00</ele>
	<time>2025-08-03T06:45:01.000Z</time>
</trkpt>
<trkpt lat="45.9579130" lon="10.1238820">
	<ele>1350.20</ele>
	<time>2025-08-03T06:45:02.000Z</time>
</trkpt>
<trkpt lat="45.9579080" lon="10.1238910">
	<ele>1350.20</ele>
	<time>2025-08-03T06:45:03.000Z</time>
</trkpt>
<trkpt lat="45.9579040" lon="10.1239100">
	<ele>1350.40</ele>
	<time>2025-08-03T06:45:04.000Z</time>
</trkpt>
<trkpt lat="45.9578930" lon="10.1239110">
	<ele>1350.40</ele>
	<time>2025-08-03T06:45:05.000Z</time>
</trkpt>
<trkpt lat="45.9578740" lon="10.1239110">
	<ele>1350.40</ele>
	<time>2025-08-03T06:45:06.000Z</time>
</trkpt>
<trkpt lat="45.9578590" lon="10.1239150">
	<ele>1350.80</ele>
	<time>2025-08-03T06:45:07.000Z</time>
</trkpt>
<trkpt lat="45.9578460" lon="10.1239190">
	<ele>1351.00</ele>
	<time>2025-08-03T06:45:08.000Z</time>
</trkpt>
<trkpt lat="45.9578340" lon="10.1239290">
	<ele>1351.00</ele>
	<time>2025-08-03T06:45:09.000Z</time>
</trkpt>
<trkpt lat="45.9578310" lon="10.1239420">
	<ele>1351.20</ele>
	<time>2025-08-03T06:45:10.000Z</time>
</trkpt>
<trkpt lat="45.9578280" lon="10.1239530">
	<ele>1351.20</ele>
	<time>2025-08-03T06:45:11.000Z</time>
</trkpt>
<trkpt lat="45.9578300" lon="10.1239660">
	<ele>1351.20</ele>
	<time>2025-08-03T06:45:12.000Z</time>
</trkpt>
<trkpt lat="45.9578250" lon="10.1239720">
	<ele>1351.40</ele>
	<time>2025-08-03T06:45:13.000Z</time>
</trkpt>
<trkpt lat="45.9578090" lon="10.1239750">
	<ele>1351.60</ele>
	<time>2025-08-03T06:45:14.000Z</time>
</trkpt>
<trkpt lat="45.9577970" lon="10.1239840">
	<ele>1351.60</ele>
	<time>2025-08-03T06:45:15.000Z</time>
</trkpt>
<trkpt lat="45.9577870" lon="10.1239910">
	<ele>1351.80</ele>
	<time>2025-08-03T06:45:16.000Z</time>
</trkpt>
<trkpt lat="45.9577730" lon="10.1239990">
	<ele>1352.00</ele>
	<time>2025-08-03T06:45:17.000Z</time>
</trkpt>
<trkpt lat="45.9577690" lon="10.1240090">
	<ele>1352.20</ele>
	<time>2025-08-03T06:45:18.000Z</time>
</trkpt>
<trkpt lat="45.9577670" lon="10.1240220">
	<ele>1352.20</ele>
	<time>2025-08-03T06:45:19.000Z</time>
</trkpt>
<trkpt lat="45.9577640" lon="10.1240350">
	<ele>1352.40</ele>
	<time>2025-08-03T06:45:20.000Z</time>
</trkpt>
<trkpt lat="45.9577570" lon="10.1240470">
	<ele>1352.60</ele>
	<time>2025-08-03T06:45:21.000Z</time>
</trkpt>
<trkpt lat="45.9577520" lon="10.1240570">
	<ele>1352.60</ele>
	<time>2025-08-03T06:45:22.000Z</time>
</trkpt>
<trkpt lat="45.9577490" lon="10.1240710">
	<ele>1352.60</ele>
	<time>2025-08-03T06:45:23.000Z</time>
</trkpt>
<trkpt lat="45.9577400" lon="10.1240810">
	<ele>1352.80</ele>
	<time>2025-08-03T06:45:24.000Z</time>
</trkpt>
<trkpt lat="45.9577320" lon="10.1240930">
	<ele>1353.00</ele>
	<time>2025-08-03T06:45:25.000Z</time>
</trkpt>
<trkpt lat="45.9577310" lon="10.1241100">
	<ele>1353.00</ele>
	<time>2025-08-03T06:45:26.000Z</time>
</trkpt>
<trkpt lat="45.9577330" lon="10.1241320">
	<ele>1353.20</ele>
	<time>2025-08-03T06:45:27.000Z</time>
</trkpt>
<trkpt lat="45.9577230" lon="10.1241420">
	<ele>1353.40</ele>
	<time>2025-08-03T06:45:28.000Z</time>
</trkpt>
<trkpt lat="45.9577050" lon="10.1241480">
	<ele>1353.60</ele>
	<time>2025-08-03T06:45:29.000Z</time>
</trkpt>
<trkpt lat="45.9576860" lon="10.1241610">
	<ele>1353.80</ele>
	<time>2025-08-03T06:45:30.000Z</time>
</trkpt>
<trkpt lat="45.9576730" lon="10.1241820">
	<ele>1354.40</ele>
	<time>2025-08-03T06:45:31.000Z</time>
</trkpt>
<trkpt lat="45.9576730" lon="10.1242030">
	<ele>1354.60</ele>
	<time>2025-08-03T06:45:32.000Z</time>
</trkpt>
<trkpt lat="45.9576670" lon="10.1242080">
	<ele>1354.80</ele>
	<time>2025-08-03T06:45:33.000Z</time>
</trkpt>
<trkpt lat="45.9576740" lon="10.1242240">
	<ele>1355.00</ele>
	<time>2025-08-03T06:45:34.000Z</time>
</trkpt>
<trkpt lat="45.9576750" lon="10.1242350">
	<ele>1355.00</ele>
	<time>2025-08-03T06:45:35.000Z</time>
</trkpt>
<trkpt lat="45.9576680" lon="10.1242440">
	<ele>1355.00</ele>
	<time>2025-08-03T06:45:36.000Z</time>
</trkpt>
<trkpt lat="45.9576590" lon="10.1242500">
	<ele>1355.20</ele>
	<time>2025-08-03T06:45:37.000Z</time>
</trkpt>
<trkpt lat="45.9576580" lon="10.1242610">
	<ele>1355.20</ele>
	<time>2025-08-03T06:45:38.000Z</time>
</trkpt>
<trkpt lat="45.9576570" lon="10.1242760">
	<ele>1355.40</ele>
	<time>2025-08-03T06:45:39.000Z</time>
</trkpt>
<trkpt lat="45.9576580" lon="10.1242910">
	<ele>1355.60</ele>
	<time>2025-08-03T06:45:40.000Z</time>
</trkpt>
<trkpt lat="45.9576540" lon="10.1243030">
	<ele>1355.60</ele>
	<time>2025-08-03T06:45:41.000Z</time>
</trkpt>
<trkpt lat="45.9576460" lon="10.1243140">
	<ele>1355.80</ele>
	<time>2025-08-03T06:45:42.000Z</time>
</trkpt>
<trkpt lat="45.9576440" lon="10.1243220">
	<ele>1356.00</ele>
	<time>2025-08-03T06:45:43.000Z</time>
</trkpt>
<trkpt lat="45.9576450" lon="10.1243290">
	<ele>1356.20</ele>
	<time>2025-08-03T06:45:44.000Z</time>
</trkpt>
<trkpt lat="45.9576440" lon="10.1243310">
	<ele>1356.20</ele>
	<time>2025-08-03T06:45:45.000Z</time>
</trkpt>
<trkpt lat="45.9576400" lon="10.1243400">
	<ele>1356.60</ele>
	<time>2025-08-03T06:45:46.000Z</time>
</trkpt>
<trkpt lat="45.9576260" lon="10.1243440">
	<ele>1356.80</ele>
	<time>2025-08-03T06:45:47.000Z</time>
</trkpt>
<trkpt lat="45.9576170" lon="10.1243540">
	<ele>1357.00</ele>
	<time>2025-08-03T06:45:48.000Z</time>
</trkpt>
<trkpt lat="45.9576230" lon="10.1243730">
	<ele>1357.20</ele>
	<time>2025-08-03T06:45:49.000Z</time>
</trkpt>
<trkpt lat="45.9576250" lon="10.1243820">
	<ele>1357.40</ele>
	<time>2025-08-03T06:45:50.000Z</time>
</trkpt>
<trkpt lat="45.9576310" lon="10.1243970">
	<ele>1357.40</ele>
	<time>2025-08-03T06:45:51.000Z</time>
</trkpt>
<trkpt lat="45.9576200" lon="10.1244050">
	<ele>1357.60</ele>
	<time>2025-08-03T06:45:52.000Z</time>
</trkpt>
<trkpt lat="45.9576220" lon="10.1244160">
	<ele>1357.80</ele>
	<time>2025-08-03T06:45:53.000Z</time>
</trkpt>
<trkpt lat="45.9576270" lon="10.1244350">
	<ele>1358.00</ele>
	<time>2025-08-03T06:45:54.000Z</time>
</trkpt>
<trkpt lat="45.9576350" lon="10.1244580">
	<ele>1358.20</ele>
	<time>2025-08-03T06:45:55.000Z</time>
</trkpt>
<trkpt lat="45.9576330" lon="10.1244780">
	<ele>1358.40</ele>
	<time>2025-08-03T06:45:56.000Z</time>
</trkpt>
<trkpt lat="45.9576190" lon="10.1244910">
	<ele>1358.60</ele>
	<time>2025-08-03T06:45:57.000Z</time>
</trkpt>
<trkpt lat="45.9576170" lon="10.1245010">
	<ele>1358.80</ele>
	<time>2025-08-03T06:45:58.000Z</time>
</trkpt>
<trkpt lat="45.9576120" lon="10.1245160">
	<ele>1358.80</ele>
	<time>2025-08-03T06:45:59.000Z</time>
</trkpt>
<trkpt lat="45.9576280" lon="10.1245500">
	<ele>1359.00</ele>
	<time>2025-08-03T06:46:00.000Z</time>
</trkpt>
<trkpt lat="45.9576330" lon="10.1245740">
	<ele>1359.20</ele>
	<time>2025-08-03T06:46:01.000Z</time>
</trkpt>
<trkpt lat="45.9576410" lon="10.1245960">
	<ele>1359.40</ele>
	<time>2025-08-03T06:46:02.000Z</time>
</trkpt>
<trkpt lat="45.9576410" lon="10.1246140">
	<ele>1359.40</ele>
	<time>2025-08-03T06:46:03.000Z</time>
</trkpt>
<trkpt lat="45.9576550" lon="10.1246410">
	<ele>1359.60</ele>
	<time>2025-08-03T06:46:04.000Z</time>
</trkpt>
<trkpt lat="45.9576710" lon="10.1246560">
	<ele>1359.80</ele>
	<time>2025-08-03T06:46:05.000Z</time>
</trkpt>
<trkpt lat="45.9576830" lon="10.1246840">
	<ele>1360.00</ele>
	<time>2025-08-03T06:46:06.000Z</time>
</trkpt>
<trkpt lat="45.9576770" lon="10.1247030">
	<ele>1360.20</ele>
	<time>2025-08-03T06:46:07.000Z</time>
</trkpt>
<trkpt lat="45.9576680" lon="10.1247120">
	<ele>1360.40</ele>
	<time>2025-08-03T06:46:08.000Z</time>
</trkpt>
<trkpt lat="45.9576550" lon="10.1247180">
	<ele>1360.40</ele>
	<time>2025-08-03T06:46:09.000Z</time>
</trkpt>
<trkpt lat="45.9576360" lon="10.1247270">
	<ele>1360.60</ele>
	<time>2025-08-03T06:46:10.000Z</time>
</trkpt>
<trkpt lat="45.9576120" lon="10.1247300">
	<ele>1360.80</ele>
	<time>2025-08-03T06:46:11.000Z</time>
</trkpt>
<trkpt lat="45.9576060" lon="10.1247490">
	<ele>1360.80</ele>
	<time>2025-08-03T06:46:12.000Z</time>
</trkpt>
<trkpt lat="45.9576010" lon="10.1247580">
	<ele>1361.00</ele>
	<time>2025-08-03T06:46:13.000Z</time>
</trkpt>
<trkpt lat="45.9576060" lon="10.1247710">
	<ele>1361.00</ele>
	<time>2025-08-03T06:46:14.000Z</time>
</trkpt>
<trkpt lat="45.9576130" lon="10.1247860">
	<ele>1361.20</ele>
	<time>2025-08-03T06:46:15.000Z</time>
</trkpt>
<trkpt lat="45.9576120" lon="10.1248010">
	<ele>1361.40</ele>
	<time>2025-08-03T06:46:16.000Z</time>
</trkpt>
<trkpt lat="45.9576190" lon="10.1248160">
	<ele>1361.40</ele>
	<time>2025-08-03T06:46:17.000Z</time>
</trkpt>
<trkpt lat="45.9576240" lon="10.1248400">
	<ele>1361.60</ele>
	<time>2025-08-03T06:46:18.000Z</time>
</trkpt>
<trkpt lat="45.9576250" lon="10.1248610">
	<ele>1361.60</ele>
	<time>2025-08-03T06:46:19.000Z</time>
</trkpt>
<trkpt lat="45.9576320" lon="10.1248850">
	<ele>1361.60</ele>
	<time>2025-08-03T06:46:20.000Z</time>
</trkpt>
<trkpt lat="45.9576300" lon="10.1249000">
	<ele>1361.80</ele>
	<time>2025-08-03T06:46:21.000Z</time>
</trkpt>
<trkpt lat="45.9576340" lon="10.1249080">
	<ele>1362.00</ele>
	<time>2025-08-03T06:46:22.000Z</time>
</trkpt>
<trkpt lat="45.9576260" lon="10.1249140">
	<ele>1362.20</ele>
	<time>2025-08-03T06:46:23.000Z</time>
</trkpt>
<trkpt lat="45.9576160" lon="10.1249270">
	<ele>1362.40</ele>
	<time>2025-08-03T06:46:24.000Z</time>
</trkpt>
<trkpt lat="45.9576140" lon="10.1249390">
	<ele>1362.60</ele>
	<time>2025-08-03T06:46:25.000Z</time>
</trkpt>
<trkpt lat="45.9576100" lon="10.1249550">
	<ele>1362.80</ele>
	<time>2025-08-03T06:46:26.000Z</time>
</trkpt>
<trkpt lat="45.9576040" lon="10.1249720">
	<ele>1363.00</ele>
	<time>2025-08-03T06:46:27.000Z</time>
</trkpt>
<trkpt lat="45.9575930" lon="10.1249880">
	<ele>1363.20</ele>
	<time>2025-08-03T06:46:28.000Z</time>
</trkpt>
<trkpt lat="45.9575950" lon="10.1249940">
	<ele>1363.20</ele>
	<time>2025-08-03T06:46:29.000Z</time>
</trkpt>
<trkpt lat="45.9575910" lon="10.1250070">
	<ele>1363.20</ele>
	<time>2025-08-03T06:46:30.000Z</time>
</trkpt>
<trkpt lat="45.9575890" lon="10.1250240">
	<ele>1363.20</ele>
	<time>2025-08-03T06:46:31.000Z</time>
</trkpt>
<trkpt lat="45.9575860" lon="10.1250420">
	<ele>1363.40</ele>
	<time>2025-08-03T06:46:32.000Z</time>
</trkpt>
<trkpt lat="45.9575760" lon="10.1250550">
	<ele>1363.40</ele>
	<time>2025-08-03T06:46:33.000Z</time>
</trkpt>
<trkpt lat="45.9575680" lon="10.1250660">
	<ele>1363.40</ele>
	<time>2025-08-03T06:46:34.000Z</time>
</trkpt>
<trkpt lat="45.9575560" lon="10.1250780">
	<ele>1363.60</ele>
	<time>2025-08-03T06:46:35.000Z</time>
</trkpt>
<trkpt lat="45.9575440" lon="10.1250870">
	<ele>1363.60</ele>
	<time>2025-08-03T06:46:36.000Z</time>
</trkpt>
<trkpt lat="45.9575330" lon="10.1250990">
	<ele>1363.60</ele>
	<time>2025-08-03T06:46:37.000Z</time>
</trkpt>
<trkpt lat="45.9575160" lon="10.1251070">
	<ele>1363.60</ele>
	<time>2025-08-03T06:46:38.000Z</time>
</trkpt>
<trkpt lat="45.9575060" lon="10.1251170">
	<ele>1363.60</ele>
	<time>2025-08-03T06:46:39.000Z</time>
</trkpt>
<trkpt lat="45.9574990" lon="10.1251300">
	<ele>1363.80</ele>
	<time>2025-08-03T06:46:40.000Z</time>
</trkpt>
<trkpt lat="45.9574940" lon="10.1251440">
	<ele>1364.00</ele>
	<time>2025-08-03T06:46:41.000Z</time>
</trkpt>
<trkpt lat="45.9574930" lon="10.1251600">
	<ele>1364.00</ele>
	<time>2025-08-03T06:46:42.000Z</time>
</trkpt>
<trkpt lat="45.9574900" lon="10.1251750">
	<ele>1364.20</ele>
	<time>2025-08-03T06:46:43.000Z</time>
</trkpt>
<trkpt lat="45.9574840" lon="10.1251880">
	<ele>1364.20</ele>
	<time>2025-08-03T06:46:44.000Z</time>
</trkpt>
<trkpt lat="45.9574760" lon="10.1251970">
	<ele>1364.60</ele>
	<time>2025-08-03T06:46:45.000Z</time>
</trkpt>
<trkpt lat="45.9574670" lon="10.1252070">
	<ele>1364.60</ele>
	<time>2025-08-03T06:46:46.000Z</time>
</trkpt>
<trkpt lat="45.9574600" lon="10.1252200">
	<ele>1364.80</ele>
	<time>2025-08-03T06:46:47.000Z</time>
</trkpt>
<trkpt lat="45.9574620" lon="10.1252410">
	<ele>1364.80</ele>
	<time>2025-08-03T06:46:48.000Z</time>
</trkpt>
<trkpt lat="45.9574580" lon="10.1252590">
	<ele>1365.00</ele>
	<time>2025-08-03T06:46:49.000Z</time>
</trkpt>
<trkpt lat="45.9574520" lon="10.1252710">
	<ele>1365.20</ele>
	<time>2025-08-03T06:46:50.000Z</time>
</trkpt>
<trkpt lat="45.9574450" lon="10.1252830">
	<ele>1365.20</ele>
	<time>2025-08-03T06:46:51.000Z</time>
</trkpt>
<trkpt lat="45.9574470" lon="10.1253000">
	<ele>1365.40</ele>
	<time>2025-08-03T06:46:52.000Z</time>
</trkpt>
<trkpt lat="45.9574430" lon="10.1253140">
	<ele>1365.60</ele>
	<time>2025-08-03T06:46:53.000Z</time>
</trkpt>
<trkpt lat="45.9574400" lon="10.1253170">
	<ele>1365.80</ele>
	<time>2025-08-03T06:46:54.000Z</time>
</trkpt>
<trkpt lat="45.9574390" lon="10.1253330">
	<ele>1366.00</ele>
	<time>2025-08-03T06:46:55.000Z</time>
</trkpt>
<trkpt lat="45.9574390" lon="10.1253500">
	<ele>1366.20</ele>
	<time>2025-08-03T06:46:56.000Z</time>
</trkpt>
<trkpt lat="45.9574420" lon="10.1253620">
	<ele>1366.40</ele>
	<time>2025-08-03T06:46:57.000Z</time>
</trkpt>
<trkpt lat="45.9574440" lon="10.1253760">
	<ele>1366.60</ele>
	<time>2025-08-03T06:46:58.000Z</time>
</trkpt>
<trkpt lat="45.9574450" lon="10.1253930">
	<ele>1366.60</ele>
	<time>2025-08-03T06:46:59.000Z</time>
</trkpt>
<trkpt lat="45.9574510" lon="10.1254100">
	<ele>1366.80</ele>
	<time>2025-08-03T06:47:00.000Z</time>
</trkpt>
<trkpt lat="45.9574550" lon="10.1254270">
	<ele>1367.00</ele>
	<time>2025-08-03T06:47:01.000Z</time>
</trkpt>
<trkpt lat="45.9574570" lon="10.1254420">
	<ele>1367.20</ele>
	<time>2025-08-03T06:47:02.000Z</time>
</trkpt>
<trkpt lat="45.9574620" lon="10.1254600">
	<ele>1367.40</ele>
	<time>2025-08-03T06:47:03.000Z</time>
</trkpt>
<trkpt lat="45.9574670" lon="10.1254780">
	<ele>1367.80</ele>
	<time>2025-08-03T06:47:04.000Z</time>
</trkpt>
<trkpt lat="45.9574700" lon="10.1254930">
	<ele>1367.80</ele>
	<time>2025-08-03T06:47:05.000Z</time>
</trkpt>
<trkpt lat="45.9574720" lon="10.1255080">
	<ele>1368.00</ele>
	<time>2025-08-03T06:47:06.000Z</time>
</trkpt>
<trkpt lat="45.9574770" lon="10.1255220">
	<ele>1368.20</ele>
	<time>2025-08-03T06:47:07.000Z</time>
</trkpt>
<trkpt lat="45.9574790" lon="10.1255330">
	<ele>1368.20</ele>
	<time>2025-08-03T06:47:08.000Z</time>
</trkpt>
<trkpt lat="45.9574730" lon="10.1255410">
	<ele>1368.40</ele>
	<time>2025-08-03T06:47:09.000Z</time>
</trkpt>
<trkpt lat="45.9574720" lon="10.1255440">
	<ele>1368.40</ele>
	<time>2025-08-03T06:47:10.000Z</time>
</trkpt>
<trkpt lat="45.9574770" lon="10.1255490">
	<ele>1368.60</ele>
	<time>2025-08-03T06:47:11.000Z</time>
</trkpt>
<trkpt lat="45.9574790" lon="10.1255540">
	<ele>1368.80</ele>
	<time>2025-08-03T06:47:12.000Z</time>
</trkpt>
<trkpt lat="45.9574840" lon="10.1255630">
	<ele>1368.80</ele>
	<time>2025-08-03T06:47:13.000Z</time>
</trkpt>
<trkpt lat="45.9574840" lon="10.1255680">
	<ele>1369.00</ele>
	<time>2025-08-03T06:47:14.000Z</time>
</trkpt>
<trkpt lat="45.9574940" lon="10.1255660">
	<ele>1369.20</ele>
	<time>2025-08-03T06:47:15.000Z</time>
</trkpt>
<trkpt lat="45.9575110" lon="10.1255640">
	<ele>1369.60</ele>
	<time>2025-08-03T06:47:16.000Z</time>
</trkpt>
<trkpt lat="45.9575310" lon="10.1255640">
	<ele>1369.80</ele>
	<time>2025-08-03T06:47:17.000Z</time>
</trkpt>
<trkpt lat="45.9575410" lon="10.1255580">
	<ele>1370.20</ele>
	<time>2025-08-03T06:47:18.000Z</time>
</trkpt>
<trkpt lat="45.9575320" lon="10.1255550">
	<ele>1370.40</ele>
	<time>2025-08-03T06:47:19.000Z</time>
</trkpt>
<trkpt lat="45.9575150" lon="10.1255500">
	<ele>1370.40</ele>
	<time>2025-08-03T06:47:20.000Z</time>
</trkpt>
<trkpt lat="45.9575100" lon="10.1255510">
	<ele>1370.60</ele>
	<time>2025-08-03T06:47:21.000Z</time>
</trkpt>
<trkpt lat="45.9575050" lon="10.1255510">
	<ele>1370.60</ele>
	<time>2025-08-03T06:47:22.000Z</time>
</trkpt>
<trkpt lat="45.9575050" lon="10.1255540">
	<ele>1370.60</ele>
	<time>2025-08-03T06:47:23.000Z</time>
</trkpt>
<trkpt lat="45.9575020" lon="10.1255520">
	<ele>1370.60</ele>
	<time>2025-08-03T06:47:24.000Z</time>
</trkpt>
<trkpt lat="45.9575000" lon="10.1255520">
	<ele>1370.40</ele>
	<time>2025-08-03T06:47:25.000Z</time>
</trkpt>
<trkpt lat="45.9574980" lon="10.1255520">
	<ele>1370.20</ele>
	<time>2025-08-03T06:47:26.000Z</time>
</trkpt>
<trkpt lat="45.9574980" lon="10.1255500">
	<ele>1370.00</ele>
	<time>2025-08-03T06:47:27.000Z</time>
</trkpt>
<trkpt lat="45.9574860" lon="10.1255430">
	<ele>1369.80</ele>
	<time>2025-08-03T06:47:28.000Z</time>
</trkpt>
<trkpt lat="45.9574760" lon="10.1255390">
	<ele>1369.80</ele>
	<time>2025-08-03T06:47:29.000Z</time>
</trkpt>
<trkpt lat="45.9574640" lon="10.1255330">
	<ele>1369.80</ele>
	<time>2025-08-03T06:47:30.000Z</time>
</trkpt>
<trkpt lat="45.9574640" lon="10.1255330">
	<ele>1369.80</ele>
	<time>2025-08-03T06:47:31.000Z</time>
</trkpt>
<trkpt lat="45.9574620" lon="10.1255290">
	<ele>1369.80</ele>
	<time>2025-08-03T06:47:32.000Z</time>
</trkpt>
<trkpt lat="45.9574580" lon="10.1255270">
	<ele>1369.80</ele>
	<time>2025-08-03T06:47:33.000Z</time>
</trkpt>
<trkpt lat="45.9574550" lon="10.1255240">
	<ele>1369.80</ele>
	<time>2025-08-03T06:47:34.000Z</time>
</trkpt>
<trkpt lat="45.9574510" lon="10.1255200">
	<ele>1369.80</ele>
	<time>2025-08-03T06:47:35.000Z</time>
</trkpt>
<trkpt lat="45.9574520" lon="10.1255170">
	<ele>1369.80</ele>
	<time>2025-08-03T06:47:36.000Z</time>
</trkpt>
<trkpt lat="45.9574600" lon="10.1255180">
	<ele>1369.80</ele>
	<time>2025-08-03T06:47:37.000Z</time>
</trkpt>
<trkpt lat="45.9574640" lon="10.1255230">
	<ele>1369.80</ele>
	<time>2025-08-03T06:47:38.000Z</time>
</trkpt>
<trkpt lat="45.9574660" lon="10.1255270">
	<ele>1369.80</ele>
	<time>2025-08-03T06:47:39.000Z</time>
</trkpt>
<trkpt lat="45.9574680" lon="10.1255300">
	<ele>1369.80</ele>
	<time>2025-08-03T06:47:40.000Z</time>
</trkpt>
<trkpt lat="45.9574710" lon="10.1255320">
	<ele>1369.60</ele>
	<time>2025-08-03T06:47:41.000Z</time>
</trkpt>
<trkpt lat="45.9574750" lon="10.1255340">
	<ele>1369.60</ele>
	<time>2025-08-03T06:47:42.000Z</time>
</trkpt>
<trkpt lat="45.9574770" lon="10.1255360">
	<ele>1369.60</ele>
	<time>2025-08-03T06:47:43.000Z</time>
</trkpt>
<trkpt lat="45.9574760" lon="10.1255350">
	<ele>1369.60</ele>
	<time>2025-08-03T06:47:44.000Z</time>
</trkpt>
<trkpt lat="45.9574740" lon="10.1255320">
	<ele>1369.60</ele>
	<time>2025-08-03T06:47:45.000Z</time>
</trkpt>
<trkpt lat="45.9574670" lon="10.1255280">
	<ele>1369.60</ele>
	<time>2025-08-03T06:47:46.000Z</time>
</trkpt>
<trkpt lat="45.9574640" lon="10.1255240">
	<ele>1369.60</ele>
	<time>2025-08-03T06:47:47.000Z</time>
</trkpt>
<trkpt lat="45.9574500" lon="10.1255210">
	<ele>1369.80</ele>
	<time>2025-08-03T06:47:48.000Z</time>
</trkpt>
<trkpt lat="45.9574440" lon="10.1255200">
	<ele>1369.80</ele>
	<time>2025-08-03T06:47:49.000Z</time>
</trkpt>
<trkpt lat="45.9574330" lon="10.1255220">
	<ele>1369.80</ele>
	<time>2025-08-03T06:47:50.000Z</time>
</trkpt>
<trkpt lat="45.9574330" lon="10.1255210">
	<ele>1369.80</ele>
	<time>2025-08-03T06:47:51.000Z</time>
</trkpt>
<trkpt lat="45.9574330" lon="10.1255230">
	<ele>1369.80</ele>
	<time>2025-08-03T06:47:52.000Z</time>
</trkpt>
<trkpt lat="45.9574330" lon="10.1255230">
	<ele>1369.80</ele>
	<time>2025-08-03T06:47:53.000Z</time>
</trkpt>
<trkpt lat="45.9574330" lon="10.1255230">
	<ele>1369.80</ele>
	<time>2025-08-03T06:47:54.000Z</time>
</trkpt>
<trkpt lat="45.9574330" lon="10.1255230">
	<ele>1369.60</ele>
	<time>2025-08-03T06:47:55.000Z</time>
</trkpt>
<trkpt lat="45.9574330" lon="10.1255230">
	<ele>1369.60</ele>
	<time>2025-08-03T06:47:56.000Z</time>
</trkpt>
<trkpt lat="45.9574330" lon="10.1255230">
	<ele>1369.60</ele>
	<time>2025-08-03T06:47:57.000Z</time>
</trkpt>
<trkpt lat="45.9574330" lon="10.1255230">
	<ele>1369.60</ele>
	<time>2025-08-03T06:47:58.000Z</time>
</trkpt>
<trkpt lat="45.9574330" lon="10.1255230">
	<ele>1369.40</ele>
	<time>2025-08-03T06:47:59.000Z</time>
</trkpt>
<trkpt lat="45.9574330" lon="10.1255230">
	<ele>1369.40</ele>
	<time>2025-08-03T06:48:00.000Z</time>
</trkpt>
<trkpt lat="45.9574330" lon="10.1255230">
	<ele>1369.40</ele>
	<time>2025-08-03T06:48:01.000Z</time>
</trkpt>
<trkpt lat="45.9574330" lon="10.1255230">
	<ele>1369.40</ele>
	<time>2025-08-03T06:48:02.000Z</time>
</trkpt>
<trkpt lat="45.9574330" lon="10.1255230">
	<ele>1369.40</ele>
	<time>2025-08-03T06:48:03.000Z</time>
</trkpt>
<trkpt lat="45.9574330" lon="10.1255230">
	<ele>1369.40</ele>
	<time>2025-08-03T06:48:04.000Z</time>
</trkpt>
<trkpt lat="45.9574330" lon="10.1255230">
	<ele>1369.40</ele>
	<time>2025-08-03T06:48:05.000Z</time>
</trkpt>
<trkpt lat="45.9574330" lon="10.1255230">
	<ele>1369.40</ele>
	<time>2025-08-03T06:48:06.000Z</time>
</trkpt>
<trkpt lat="45.9574350" lon="10.1255250">
	<ele>1369.40</ele>
	<time>2025-08-03T06:48:07.000Z</time>
</trkpt>
<trkpt lat="45.9574380" lon="10.1255340">
	<ele>1369.40</ele>
	<time>2025-08-03T06:48:08.000Z</time>
</trkpt>
<trkpt lat="45.9574160" lon="10.1255300">
	<ele>1369.40</ele>
	<time>2025-08-03T06:48:09.000Z</time>
</trkpt>
<trkpt lat="45.9573780" lon="10.1255180">
	<ele>1369.40</ele>
	<time>2025-08-03T06:48:10.000Z</time>
</trkpt>
<trkpt lat="45.9573900" lon="10.1255170">
	<ele>1369.40</ele>
	<time>2025-08-03T06:48:11.000Z</time>
</trkpt>
<trkpt lat="45.9573900" lon="10.1255180">
	<ele>1369.40</ele>
	<time>2025-08-03T06:48:12.000Z</time>
</trkpt>
<trkpt lat="45.9573900" lon="10.1255180">
	<ele>1369.40</ele>
	<time>2025-08-03T06:48:13.000Z</time>
</trkpt>
<trkpt lat="45.9573900" lon="10.1255180">
	<ele>1369.60</ele>
	<time>2025-08-03T06:48:14.000Z</time>
</trkpt>
<trkpt lat="45.9573940" lon="10.1255200">
	<ele>1369.60</ele>
	<time>2025-08-03T06:48:15.000Z</time>
</trkpt>
<trkpt lat="45.9574000" lon="10.1255340">
	<ele>1369.60</ele>
	<time>2025-08-03T06:48:16.000Z</time>
</trkpt>
<trkpt lat="45.9574010" lon="10.1255470">
	<ele>1369.60</ele>
	<time>2025-08-03T06:48:17.000Z</time>
</trkpt>
<trkpt lat="45.9574050" lon="10.1255630">
	<ele>1369.80</ele>
	<time>2025-08-03T06:48:18.000Z</time>
</trkpt>
<trkpt lat="45.9574100" lon="10.1255830">
	<ele>1370.00</ele>
	<time>2025-08-03T06:48:19.000Z</time>
</trkpt>
<trkpt lat="45.9574200" lon="10.1256030">
	<ele>1370.00</ele>
	<time>2025-08-03T06:48:20.000Z</time>
</trkpt>
<trkpt lat="45.9574260" lon="10.1256220">
	<ele>1370.00</ele>
	<time>2025-08-03T06:48:21.000Z</time>
</trkpt>
<trkpt lat="45.9574290" lon="10.1256410">
	<ele>1370.20</ele>
	<time>2025-08-03T06:48:22.000Z</time>
</trkpt>
<trkpt lat="45.9574350" lon="10.1256530">
	<ele>1370.40</ele>
	<time>2025-08-03T06:48:23.000Z</time>
</trkpt>
<trkpt lat="45.9574450" lon="10.1256670">
	<ele>1370.60</ele>
	<time>2025-08-03T06:48:24.000Z</time>
</trkpt>
<trkpt lat="45.9574440" lon="10.1256800">
	<ele>1370.80</ele>
	<time>2025-08-03T06:48:25.000Z</time>
</trkpt>
<trkpt lat="45.9574480" lon="10.1256950">
	<ele>1371.20</ele>
	<time>2025-08-03T06:48:26.000Z</time>
</trkpt>
<trkpt lat="45.9574610" lon="10.1257070">
	<ele>1371.20</ele>
	<time>2025-08-03T06:48:27.000Z</time>
</trkpt>
<trkpt lat="45.9574650" lon="10.1257120">
	<ele>1371.40</ele>
	<time>2025-08-03T06:48:28.000Z</time>
</trkpt>
<trkpt lat="45.9574650" lon="10.1257200">
	<ele>1371.60</ele>
	<time>2025-08-03T06:48:29.000Z</time>
</trkpt>
<trkpt lat="45.9574780" lon="10.1257250">
	<ele>1371.80</ele>
	<time>2025-08-03T06:48:30.000Z</time>
</trkpt>
<trkpt lat="45.9574910" lon="10.1257380">
	<ele>1372.00</ele>
	<time>2025-08-03T06:48:31.000Z</time>
</trkpt>
<trkpt lat="45.9574980" lon="10.1257520">
	<ele>1372.40</ele>
	<time>2025-08-03T06:48:32.000Z</time>
</trkpt>
<trkpt lat="45.9575070" lon="10.1257580">
	<ele>1372.60</ele>
	<time>2025-08-03T06:48:33.000Z</time>
</trkpt>
<trkpt lat="45.9575230" lon="10.1257720">
	<ele>1372.80</ele>
	<time>2025-08-03T06:48:34.000Z</time>
</trkpt>
<trkpt lat="45.9575320" lon="10.1257940">
	<ele>1373.00</ele>
	<time>2025-08-03T06:48:35.000Z</time>
</trkpt>
<trkpt lat="45.9575380" lon="10.1258140">
	<ele>1373.20</ele>
	<time>2025-08-03T06:48:36.000Z</time>
</trkpt>
<trkpt lat="45.9575400" lon="10.1258380">
	<ele>1373.20</ele>
	<time>2025-08-03T06:48:37.000Z</time>
</trkpt>
<trkpt lat="45.9575230" lon="10.1258550">
	<ele>1373.20</ele>
	<time>2025-08-03T06:48:38.000Z</time>
</trkpt>
<trkpt lat="45.9575350" lon="10.1258890">
	<ele>1373.20</ele>
	<time>2025-08-03T06:48:39.000Z</time>
</trkpt>
<trkpt lat="45.9575440" lon="10.1259120">
	<ele>1373.40</ele>
	<time>2025-08-03T06:48:40.000Z</time>
</trkpt>
<trkpt lat="45.9575430" lon="10.1259200">
	<ele>1373.60</ele>
	<time>2025-08-03T06:48:41.000Z</time>
</trkpt>
<trkpt lat="45.9575530" lon="10.1259320">
	<ele>1373.80</ele>
	<time>2025-08-03T06:48:42.000Z</time>
</trkpt>
<trkpt lat="45.9575550" lon="10.1259450">
	<ele>1374.20</ele>
	<time>2025-08-03T06:48:43.000Z</time>
</trkpt>
<trkpt lat="45.9575550" lon="10.1259570">
	<ele>1374.40</ele>
	<time>2025-08-03T06:48:44.000Z</time>
</trkpt>
<trkpt lat="45.9575570" lon="10.1259610">
	<ele>1374.60</ele>
	<time>2025-08-03T06:48:45.000Z</time>
</trkpt>
<trkpt lat="45.9575710" lon="10.1259660">
	<ele>1374.80</ele>
	<time>2025-08-03T06:48:46.000Z</time>
</trkpt>
<trkpt lat="45.9575790" lon="10.1259730">
	<ele>1374.80</ele>
	<time>2025-08-03T06:48:47.000Z</time>
</trkpt>
<trkpt lat="45.9575810" lon="10.1259790">
	<ele>1374.80</ele>
	<time>2025-08-03T06:48:48.000Z</time>
</trkpt>
<trkpt lat="45.9575920" lon="10.1259790">
	<ele>1375.00</ele>
	<time>2025-08-03T06:48:49.000Z</time>
</trkpt>
<trkpt lat="45.9575940" lon="10.1259790">
	<ele>1375.20</ele>
	<time>2025-08-03T06:48:50.000Z</time>
</trkpt>
<trkpt lat="45.9575940" lon="10.1259850">
	<ele>1375.20</ele>
	<time>2025-08-03T06:48:51.000Z</time>
</trkpt>
<trkpt lat="45.9575900" lon="10.1259900">
	<ele>1375.40</ele>
	<time>2025-08-03T06:48:52.000Z</time>
</trkpt>
<trkpt lat="45.9576000" lon="10.1260010">
	<ele>1375.60</ele>
	<time>2025-08-03T06:48:53.000Z</time>
</trkpt>
<trkpt lat="45.9576110" lon="10.1260140">
	<ele>1375.80</ele>
	<time>2025-08-03T06:48:54.000Z</time>
</trkpt>
<trkpt lat="45.9576130" lon="10.1260280">
	<ele>1376.00</ele>
	<time>2025-08-03T06:48:55.000Z</time>
</trkpt>
<trkpt lat="45.9576150" lon="10.1260430">
	<ele>1376.20</ele>
	<time>2025-08-03T06:48:56.000Z</time>
</trkpt>
<trkpt lat="45.9576190" lon="10.1260560">
	<ele>1376.20</ele>
	<time>2025-08-03T06:48:57.000Z</time>
</trkpt>
<trkpt lat="45.9576270" lon="10.1260600">
	<ele>1376.40</ele>
	<time>2025-08-03T06:48:58.000Z</time>
</trkpt>
<trkpt lat="45.9576330" lon="10.1260680">
	<ele>1376.40</ele>
	<time>2025-08-03T06:48:59.000Z</time>
</trkpt>
<trkpt lat="45.9576380" lon="10.1260800">
	<ele>1376.60</ele>
	<time>2025-08-03T06:49:00.000Z</time>
</trkpt>
<trkpt lat="45.9576420" lon="10.1261010">
	<ele>1376.60</ele>
	<time>2025-08-03T06:49:01.000Z</time>
</trkpt>
<trkpt lat="45.9576430" lon="10.1261090">
	<ele>1376.80</ele>
	<time>2025-08-03T06:49:02.000Z</time>
</trkpt>
<trkpt lat="45.9576460" lon="10.1261180">
	<ele>1376.80</ele>
	<time>2025-08-03T06:49:03.000Z</time>
</trkpt>
<trkpt lat="45.9576530" lon="10.1261330">
	<ele>1377.00</ele>
	<time>2025-08-03T06:49:04.000Z</time>
</trkpt>
<trkpt lat="45.9576630" lon="10.1261460">
	<ele>1377.20</ele>
	<time>2025-08-03T06:49:05.000Z</time>
</trkpt>
<trkpt lat="45.9576700" lon="10.1261600">
	<ele>1377.40</ele>
	<time>2025-08-03T06:49:06.000Z</time>
</trkpt>
<trkpt lat="45.9576780" lon="10.1261810">
	<ele>1377.40</ele>
	<time>2025-08-03T06:49:07.000Z</time>
</trkpt>
<trkpt lat="45.9576760" lon="10.1261940">
	<ele>1377.60</ele>
	<time>2025-08-03T06:49:08.000Z</time>
</trkpt>
<trkpt lat="45.9576750" lon="10.1262110">
	<ele>1377.60</ele>
	<time>2025-08-03T06:49:09.000Z</time>
</trkpt>
<trkpt lat="45.9576780" lon="10.1262240">
	<ele>1377.80</ele>
	<time>2025-08-03T06:49:10.000Z</time>
</trkpt>
<trkpt lat="45.9576810" lon="10.1262370">
	<ele>1378.00</ele>
	<time>2025-08-03T06:49:11.000Z</time>
</trkpt>
<trkpt lat="45.9576960" lon="10.1262500">
	<ele>1378.20</ele>
	<time>2025-08-03T06:49:12.000Z</time>
</trkpt>
<trkpt lat="45.9577110" lon="10.1262740">
	<ele>1378.40</ele>
	<time>2025-08-03T06:49:13.000Z</time>
</trkpt>
<trkpt lat="45.9577200" lon="10.1262870">
	<ele>1378.40</ele>
	<time>2025-08-03T06:49:14.000Z</time>
</trkpt>
<trkpt lat="45.9577360" lon="10.1262970">
	<ele>1378.40</ele>
	<time>2025-08-03T06:49:15.000Z</time>
</trkpt>
<trkpt lat="45.9577390" lon="10.1263080">
	<ele>1378.60</ele>
	<time>2025-08-03T06:49:16.000Z</time>
</trkpt>
<trkpt lat="45.9577420" lon="10.1263250">
	<ele>1378.60</ele>
	<time>2025-08-03T06:49:17.000Z</time>
</trkpt>
<trkpt lat="45.9577460" lon="10.1263430">
	<ele>1378.80</ele>
	<time>2025-08-03T06:49:18.000Z</time>
</trkpt>
<trkpt lat="45.9577480" lon="10.1263600">
	<ele>1379.00</ele>
	<time>2025-08-03T06:49:19.000Z</time>
</trkpt>
<trkpt lat="45.9577410" lon="10.1263710">
	<ele>1379.00</ele>
	<time>2025-08-03T06:49:20.000Z</time>
</trkpt>
<trkpt lat="45.9577370" lon="10.1263760">
	<ele>1379.00</ele>
	<time>2025-08-03T06:49:21.000Z</time>
</trkpt>
<trkpt lat="45.9577320" lon="10.1263810">
	<ele>1379.00</ele>
	<time>2025-08-03T06:49:22.000Z</time>
</trkpt>
<trkpt lat="45.9577340" lon="10.1263940">
	<ele>1379.20</ele>
	<time>2025-08-03T06:49:23.000Z</time>
</trkpt>
<trkpt lat="45.9577390" lon="10.1264050">
	<ele>1379.20</ele>
	<time>2025-08-03T06:49:24.000Z</time>
</trkpt>
<trkpt lat="45.9577490" lon="10.1264130">
	<ele>1379.40</ele>
	<time>2025-08-03T06:49:25.000Z</time>
</trkpt>
<trkpt lat="45.9577590" lon="10.1264210">
	<ele>1379.60</ele>
	<time>2025-08-03T06:49:26.000Z</time>
</trkpt>
<trkpt lat="45.9577690" lon="10.1264300">
	<ele>1379.80</ele>
	<time>2025-08-03T06:49:27.000Z</time>
</trkpt>
<trkpt lat="45.9577760" lon="10.1264410">
	<ele>1379.80</ele>
	<time>2025-08-03T06:49:28.000Z</time>
</trkpt>
<trkpt lat="45.9577830" lon="10.1264520">
	<ele>1380.00</ele>
	<time>2025-08-03T06:49:29.000Z</time>
</trkpt>
<trkpt lat="45.9577960" lon="10.1264640">
	<ele>1380.00</ele>
	<time>2025-08-03T06:49:30.000Z</time>
</trkpt>
<trkpt lat="45.9578080" lon="10.1264760">
	<ele>1380.20</ele>
	<time>2025-08-03T06:49:31.000Z</time>
</trkpt>
<trkpt lat="45.9578130" lon="10.1264810">
	<ele>1380.20</ele>
	<time>2025-08-03T06:49:32.000Z</time>
</trkpt>
<trkpt lat="45.9578200" lon="10.1264890">
	<ele>1380.40</ele>
	<time>2025-08-03T06:49:33.000Z</time>
</trkpt>
<trkpt lat="45.9578230" lon="10.1264970">
	<ele>1380.40</ele>
	<time>2025-08-03T06:49:34.000Z</time>
</trkpt>
<trkpt lat="45.9578290" lon="10.1265070">
	<ele>1380.60</ele>
	<time>2025-08-03T06:49:35.000Z</time>
</trkpt>
<trkpt lat="45.9578460" lon="10.1265190">
	<ele>1380.60</ele>
	<time>2025-08-03T06:49:36.000Z</time>
</trkpt>
<trkpt lat="45.9578610" lon="10.1265320">
	<ele>1380.80</ele>
	<time>2025-08-03T06:49:37.000Z</time>
</trkpt>
<trkpt lat="45.9578710" lon="10.1265450">
	<ele>1380.80</ele>
	<time>2025-08-03T06:49:38.000Z</time>
</trkpt>
<trkpt lat="45.9578750" lon="10.1265620">
	<ele>1381.00</ele>
	<time>2025-08-03T06:49:39.000Z</time>
</trkpt>
<trkpt lat="45.9578710" lon="10.1265790">
	<ele>1381.00</ele>
	<time>2025-08-03T06:49:40.000Z</time>
</trkpt>
<trkpt lat="45.9578690" lon="10.1265930">
	<ele>1381.20</ele>
	<time>2025-08-03T06:49:41.000Z</time>
</trkpt>
<trkpt lat="45.9578760" lon="10.1266100">
	<ele>1381.40</ele>
	<time>2025-08-03T06:49:42.000Z</time>
</trkpt>
<trkpt lat="45.9578780" lon="10.1266280">
	<ele>1381.40</ele>
	<time>2025-08-03T06:49:43.000Z</time>
</trkpt>
<trkpt lat="45.9578850" lon="10.1266360">
	<ele>1381.40</ele>
	<time>2025-08-03T06:49:44.000Z</time>
</trkpt>
<trkpt lat="45.9579050" lon="10.1266390">
	<ele>1381.60</ele>
	<time>2025-08-03T06:49:45.000Z</time>
</trkpt>
<trkpt lat="45.9579200" lon="10.1266360">
	<ele>1381.80</ele>
	<time>2025-08-03T06:49:46.000Z</time>
</trkpt>
<trkpt lat="45.9579310" lon="10.1266420">
	<ele>1382.00</ele>
	<time>2025-08-03T06:49:47.000Z</time>
</trkpt>
<trkpt lat="45.9579410" lon="10.1266510">
	<ele>1382.20</ele>
	<time>2025-08-03T06:49:48.000Z</time>
</trkpt>
<trkpt lat="45.9579470" lon="10.1266530">
	<ele>1382.20</ele>
	<time>2025-08-03T06:49:49.000Z</time>
</trkpt>
<trkpt lat="45.9579490" lon="10.1266630">
	<ele>1382.40</ele>
	<time>2025-08-03T06:49:50.000Z</time>
</trkpt>
<trkpt lat="45.9579500" lon="10.1266700">
	<ele>1382.40</ele>
	<time>2025-08-03T06:49:51.000Z</time>
</trkpt>
<trkpt lat="45.9579470" lon="10.1266700">
	<ele>1382.60</ele>
	<time>2025-08-03T06:49:52.000Z</time>
</trkpt>
<trkpt lat="45.9579480" lon="10.1266730">
	<ele>1382.80</ele>
	<time>2025-08-03T06:49:53.000Z</time>
</trkpt>
<trkpt lat="45.9579480" lon="10.1266760">
	<ele>1383.00</ele>
	<time>2025-08-03T06:49:54.000Z</time>
</trkpt>
<trkpt lat="45.9579480" lon="10.1266770">
	<ele>1383.20</ele>
	<time>2025-08-03T06:49:55.000Z</time>
</trkpt>
<trkpt lat="45.9579460" lon="10.1266890">
	<ele>1383.20</ele>
	<time>2025-08-03T06:49:56.000Z</time>
</trkpt>
<trkpt lat="45.9579470" lon="10.1267020">
	<ele>1383.20</ele>
	<time>2025-08-03T06:49:57.000Z</time>
</trkpt>
<trkpt lat="45.9579420" lon="10.1267090">
	<ele>1383.40</ele>
	<time>2025-08-03T06:49:58.000Z</time>
</trkpt>
<trkpt lat="45.9579350" lon="10.1267280">
	<ele>1383.60</ele>
	<time>2025-08-03T06:49:59.000Z</time>
</trkpt>
<trkpt lat="45.9579340" lon="10.1267400">
	<ele>1383.80</ele>
	<time>2025-08-03T06:50:00.000Z</time>
</trkpt>
<trkpt lat="45.9579340" lon="10.1267520">
	<ele>1383.80</ele>
	<time>2025-08-03T06:50:01.000Z</time>
</trkpt>
<trkpt lat="45.9579410" lon="10.1267660">
	<ele>1384.20</ele>
	<time>2025-08-03T06:50:02.000Z</time>
</trkpt>
<trkpt lat="45.9579460" lon="10.1267780">
	<ele>1384.20</ele>
	<time>2025-08-03T06:50:03.000Z</time>
</trkpt>
<trkpt lat="45.9579450" lon="10.1267810">
	<ele>1384.40</ele>
	<time>2025-08-03T06:50:04.000Z</time>
</trkpt>
<trkpt lat="45.9579490" lon="10.1267880">
	<ele>1384.40</ele>
	<time>2025-08-03T06:50:05.000Z</time>
</trkpt>
<trkpt lat="45.9579740" lon="10.1267920">
	<ele>1384.80</ele>
	<time>2025-08-03T06:50:06.000Z</time>
</trkpt>
<trkpt lat="45.9579790" lon="10.1268020">
	<ele>1385.00</ele>
	<time>2025-08-03T06:50:07.000Z</time>
</trkpt>
<trkpt lat="45.9579830" lon="10.1268060">
	<ele>1385.20</ele>
	<time>2025-08-03T06:50:08.000Z</time>
</trkpt>
<trkpt lat="45.9579890" lon="10.1268140">
	<ele>1385.20</ele>
	<time>2025-08-03T06:50:09.000Z</time>
</trkpt>
<trkpt lat="45.9579890" lon="10.1268230">
	<ele>1385.40</ele>
	<time>2025-08-03T06:50:10.000Z</time>
</trkpt>
<trkpt lat="45.9579900" lon="10.1268370">
	<ele>1385.40</ele>
	<time>2025-08-03T06:50:11.000Z</time>
</trkpt>
<trkpt lat="45.9579920" lon="10.1268480">
	<ele>1385.80</ele>
	<time>2025-08-03T06:50:12.000Z</time>
</trkpt>
<trkpt lat="45.9579990" lon="10.1268630">
	<ele>1386.00</ele>
	<time>2025-08-03T06:50:13.000Z</time>
</trkpt>
<trkpt lat="45.9580030" lon="10.1268810">
	<ele>1386.00</ele>
	<time>2025-08-03T06:50:14.000Z</time>
</trkpt>
<trkpt lat="45.9580130" lon="10.1268820">
	<ele>1386.20</ele>
	<time>2025-08-03T06:50:15.000Z</time>
</trkpt>
<trkpt lat="45.9580290" lon="10.1268790">
	<ele>1386.40</ele>
	<time>2025-08-03T06:50:16.000Z</time>
</trkpt>
<trkpt lat="45.9580390" lon="10.1268870">
	<ele>1386.60</ele>
	<time>2025-08-03T06:50:17.000Z</time>
</trkpt>
<trkpt lat="45.9580480" lon="10.1268950">
	<ele>1387.00</ele>
	<time>2025-08-03T06:50:18.000Z</time>
</trkpt>
<trkpt lat="45.9580590" lon="10.1269030">
	<ele>1387.00</ele>
	<time>2025-08-03T06:50:19.000Z</time>
</trkpt>
<trkpt lat="45.9580640" lon="10.1269180">
	<ele>1387.20</ele>
	<time>2025-08-03T06:50:20.000Z</time>
</trkpt>
<trkpt lat="45.9580630" lon="10.1269360">
	<ele>1387.40</ele>
	<time>2025-08-03T06:50:21.000Z</time>
</trkpt>
<trkpt lat="45.9580640" lon="10.1269640">
	<ele>1387.80</ele>
	<time>2025-08-03T06:50:22.000Z</time>
</trkpt>
<trkpt lat="45.9580690" lon="10.1269930">
	<ele>1388.00</ele>
	<time>2025-08-03T06:50:23.000Z</time>
</trkpt>
<trkpt lat="45.9580700" lon="10.1270140">
	<ele>1388.20</ele>
	<time>2025-08-03T06:50:24.000Z</time>
</trkpt>
<trkpt lat="45.9580780" lon="10.1270270">
	<ele>1388.40</ele>
	<time>2025-08-03T06:50:25.000Z</time>
</trkpt>
<trkpt lat="45.9580990" lon="10.1270410">
	<ele>1388.60</ele>
	<time>2025-08-03T06:50:26.000Z</time>
</trkpt>
<trkpt lat="45.9581120" lon="10.1270550">
	<ele>1388.80</ele>
	<time>2025-08-03T06:50:27.000Z</time>
</trkpt>
<trkpt lat="45.9581260" lon="10.1270680">
	<ele>1388.80</ele>
	<time>2025-08-03T06:50:28.000Z</time>
</trkpt>
<trkpt lat="45.9581360" lon="10.1270810">
	<ele>1389.00</ele>
	<time>2025-08-03T06:50:29.000Z</time>
</trkpt>
<trkpt lat="45.9581460" lon="10.1270920">
	<ele>1389.40</ele>
	<time>2025-08-03T06:50:30.000Z</time>
</trkpt>
<trkpt lat="45.9581520" lon="10.1271030">
	<ele>1389.40</ele>
	<time>2025-08-03T06:50:31.000Z</time>
</trkpt>
<trkpt lat="45.9581540" lon="10.1271140">
	<ele>1389.60</ele>
	<time>2025-08-03T06:50:32.000Z</time>
</trkpt>
<trkpt lat="45.9581600" lon="10.1271230">
	<ele>1389.80</ele>
	<time>2025-08-03T06:50:33.000Z</time>
</trkpt>
<trkpt lat="45.9581690" lon="10.1271400">
	<ele>1390.00</ele>
	<time>2025-08-03T06:50:34.000Z</time>
</trkpt>
<trkpt lat="45.9581810" lon="10.1271590">
	<ele>1390.20</ele>
	<time>2025-08-03T06:50:35.000Z</time>
</trkpt>
<trkpt lat="45.9581910" lon="10.1271680">
	<ele>1390.20</ele>
	<time>2025-08-03T06:50:36.000Z</time>
</trkpt>
<trkpt lat="45.9582020" lon="10.1271680">
	<ele>1390.40</ele>
	<time>2025-08-03T06:50:37.000Z</time>
</trkpt>
<trkpt lat="45.9582100" lon="10.1271770">
	<ele>1390.60</ele>
	<time>2025-08-03T06:50:38.000Z</time>
</trkpt>
<trkpt lat="45.9582230" lon="10.1271920">
	<ele>1390.60</ele>
	<time>2025-08-03T06:50:39.000Z</time>
</trkpt>
<trkpt lat="45.9582440" lon="10.1272010">
	<ele>1390.80</ele>
	<time>2025-08-03T06:50:40.000Z</time>
</trkpt>
<trkpt lat="45.9582630" lon="10.1271980">
	<ele>1391.00</ele>
	<time>2025-08-03T06:50:41.000Z</time>
</trkpt>
<trkpt lat="45.9582860" lon="10.1272000">
	<ele>1391.20</ele>
	<time>2025-08-03T06:50:42.000Z</time>
</trkpt>
<trkpt lat="45.9582900" lon="10.1272120">
	<ele>1391.20</ele>
	<time>2025-08-03T06:50:43.000Z</time>
</trkpt>
<trkpt lat="45.9582950" lon="10.1272260">
	<ele>1391.40</ele>
	<time>2025-08-03T06:50:44.000Z</time>
</trkpt>
<trkpt lat="45.9583010" lon="10.1272370">
	<ele>1391.60</ele>
	<time>2025-08-03T06:50:45.000Z</time>
</trkpt>
<trkpt lat="45.9583010" lon="10.1272490">
	<ele>1391.80</ele>
	<time>2025-08-03T06:50:46.000Z</time>
</trkpt>
<trkpt lat="45.9582930" lon="10.1272650">
	<ele>1391.80</ele>
	<time>2025-08-03T06:50:47.000Z</time>
</trkpt>
<trkpt lat="45.9582970" lon="10.1272840">
	<ele>1392.00</ele>
	<time>2025-08-03T06:50:48.000Z</time>
</trkpt>
<trkpt lat="45.9582950" lon="10.1273030">
	<ele>1392.20</ele>
	<time>2025-08-03T06:50:49.000Z</time>
</trkpt>
<trkpt lat="45.9582920" lon="10.1273230">
	<ele>1392.20</ele>
	<time>2025-08-03T06:50:50.000Z</time>
</trkpt>
<trkpt lat="45.9582960" lon="10.1273470">
	<ele>1392.40</ele>
	<time>2025-08-03T06:50:51.000Z</time>
</trkpt>
<trkpt lat="45.9583030" lon="10.1273590">
	<ele>1392.60</ele>
	<time>2025-08-03T06:50:52.000Z</time>
</trkpt>
<trkpt lat="45.9583080" lon="10.1273550">
	<ele>1392.80</ele>
	<time>2025-08-03T06:50:53.000Z</time>
</trkpt>
<trkpt lat="45.9583220" lon="10.1273520">
	<ele>1393.00</ele>
	<time>2025-08-03T06:50:54.000Z</time>
</trkpt>
<trkpt lat="45.9583280" lon="10.1273540">
	<ele>1393.20</ele>
	<time>2025-08-03T06:50:55.000Z</time>
</trkpt>
<trkpt lat="45.9583320" lon="10.1273680">
	<ele>1393.40</ele>
	<time>2025-08-03T06:50:56.000Z</time>
</trkpt>
<trkpt lat="45.9583340" lon="10.1273830">
	<ele>1393.80</ele>
	<time>2025-08-03T06:50:57.000Z</time>
</trkpt>
<trkpt lat="45.9583410" lon="10.1273940">
	<ele>1393.80</ele>
	<time>2025-08-03T06:50:58.000Z</time>
</trkpt>
<trkpt lat="45.9583520" lon="10.1273940">
	<ele>1394.00</ele>
	<time>2025-08-03T06:50:59.000Z</time>
</trkpt>
<trkpt lat="45.9583710" lon="10.1273890">
	<ele>1394.40</ele>
	<time>2025-08-03T06:51:00.000Z</time>
</trkpt>
<trkpt lat="45.9583800" lon="10.1273960">
	<ele>1394.40</ele>
	<time>2025-08-03T06:51:01.000Z</time>
</trkpt>
<trkpt lat="45.9583840" lon="10.1274160">
	<ele>1394.80</ele>
	<time>2025-08-03T06:51:02.000Z</time>
</trkpt>
<trkpt lat="45.9583920" lon="10.1274240">
	<ele>1395.00</ele>
	<time>2025-08-03T06:51:03.000Z</time>
</trkpt>
<trkpt lat="45.9583940" lon="10.1274400">
	<ele>1395.00</ele>
	<time>2025-08-03T06:51:04.000Z</time>
</trkpt>
<trkpt lat="45.9583930" lon="10.1274600">
	<ele>1395.20</ele>
	<time>2025-08-03T06:51:05.000Z</time>
</trkpt>
<trkpt lat="45.9583940" lon="10.1274630">
	<ele>1395.40</ele>
	<time>2025-08-03T06:51:06.000Z</time>
</trkpt>
<trkpt lat="45.9584050" lon="10.1274370">
	<ele>1395.40</ele>
	<time>2025-08-03T06:51:07.000Z</time>
</trkpt>
<trkpt lat="45.9584150" lon="10.1274440">
	<ele>1395.60</ele>
	<time>2025-08-03T06:51:08.000Z</time>
</trkpt>
<trkpt lat="45.9584240" lon="10.1274530">
	<ele>1395.80</ele>
	<time>2025-08-03T06:51:09.000Z</time>
</trkpt>
<trkpt lat="45.9584230" lon="10.1274640">
	<ele>1396.00</ele>
	<time>2025-08-03T06:51:10.000Z</time>
</trkpt>
<trkpt lat="45.9584080" lon="10.1274670">
	<ele>1396.20</ele>
	<time>2025-08-03T06:51:11.000Z</time>
</trkpt>
<trkpt lat="45.9583960" lon="10.1274720">
	<ele>1396.40</ele>
	<time>2025-08-03T06:51:12.000Z</time>
</trkpt>
<trkpt lat="45.9583880" lon="10.1274750">
	<ele>1396.60</ele>
	<time>2025-08-03T06:51:13.000Z</time>
</trkpt>
<trkpt lat="45.9583830" lon="10.1274760">
	<ele>1396.80</ele>
	<time>2025-08-03T06:51:14.000Z</time>
</trkpt>
<trkpt lat="45.9583840" lon="10.1274810">
	<ele>1396.80</ele>
	<time>2025-08-03T06:51:15.000Z</time>
</trkpt>
<trkpt lat="45.9583920" lon="10.1274940">
	<ele>1396.80</ele>
	<time>2025-08-03T06:51:16.000Z</time>
</trkpt>
<trkpt lat="45.9583950" lon="10.1275070">
	<ele>1397.20</ele>
	<time>2025-08-03T06:51:17.000Z</time>
</trkpt>
<trkpt lat="45.9583860" lon="10.1275160">
	<ele>1397.20</ele>
	<time>2025-08-03T06:51:18.000Z</time>
</trkpt>
<trkpt lat="45.9583820" lon="10.1275230">
	<ele>1397.60</ele>
	<time>2025-08-03T06:51:19.000Z</time>
</trkpt>
<trkpt lat="45.9583770" lon="10.1275300">
	<ele>1397.80</ele>
	<time>2025-08-03T06:51:20.000Z</time>
</trkpt>
<trkpt lat="45.9583760" lon="10.1275360">
	<ele>1397.80</ele>
	<time>2025-08-03T06:51:21.000Z</time>
</trkpt>
<trkpt lat="45.9583760" lon="10.1275410">
	<ele>1398.00</ele>
	<time>2025-08-03T06:51:22.000Z</time>
</trkpt>
<trkpt lat="45.9583810" lon="10.1275520">
	<ele>1398.20</ele>
	<time>2025-08-03T06:51:23.000Z</time>
</trkpt>
<trkpt lat="45.9583700" lon="10.1275600">
	<ele>1398.40</ele>
	<time>2025-08-03T06:51:24.000Z</time>
</trkpt>
<trkpt lat="45.9583640" lon="10.1275690">
	<ele>1398.80</ele>
	<time>2025-08-03T06:51:25.000Z</time>
</trkpt>
<trkpt lat="45.9583620" lon="10.1275800">
	<ele>1399.00</ele>
	<time>2025-08-03T06:51:26.000Z</time>
</trkpt>
<trkpt lat="45.9583620" lon="10.1275870">
	<ele>1399.20</ele>
	<time>2025-08-03T06:51:27.000Z</time>
</trkpt>
<trkpt lat="45.9583590" lon="10.1275990">
	<ele>1399.20</ele>
	<time>2025-08-03T06:51:28.000Z</time>
</trkpt>
<trkpt lat="45.9583550" lon="10.1276140">
	<ele>1399.40</ele>
	<time>2025-08-03T06:51:29.000Z</time>
</trkpt>
<trkpt lat="45.9583540" lon="10.1276290">
	<ele>1399.40</ele>
	<time>2025-08-03T06:51:30.000Z</time>
</trkpt>
<trkpt lat="45.9583570" lon="10.1276490">
	<ele>1399.60</ele>
	<time>2025-08-03T06:51:31.000Z</time>
</trkpt>
<trkpt lat="45.9583630" lon="10.1276600">
	<ele>1399.80</ele>
	<time>2025-08-03T06:51:32.000Z</time>
</trkpt>
<trkpt lat="45.9583680" lon="10.1276750">
	<ele>1400.00</ele>
	<time>2025-08-03T06:51:33.000Z</time>
</trkpt>
<trkpt lat="45.9583730" lon="10.1276900">
	<ele>1400.00</ele>
	<time>2025-08-03T06:51:34.000Z</time>
</trkpt>
<trkpt lat="45.9583780" lon="10.1277040">
	<ele>1400.20</ele>
	<time>2025-08-03T06:51:35.000Z</time>
</trkpt>
<trkpt lat="45.9583770" lon="10.1277130">
	<ele>1400.40</ele>
	<time>2025-08-03T06:51:36.000Z</time>
</trkpt>
<trkpt lat="45.9583740" lon="10.1277190">
	<ele>1400.40</ele>
	<time>2025-08-03T06:51:37.000Z</time>
</trkpt>
<trkpt lat="45.9583730" lon="10.1277340">
	<ele>1400.60</ele>
	<time>2025-08-03T06:51:38.000Z</time>
</trkpt>
<trkpt lat="45.9583700" lon="10.1277430">
	<ele>1400.80</ele>
	<time>2025-08-03T06:51:39.000Z</time>
</trkpt>
<trkpt lat="45.9583650" lon="10.1277530">
	<ele>1400.80</ele>
	<time>2025-08-03T06:51:40.000Z</time>
</trkpt>
<trkpt lat="45.9583530" lon="10.1277580">
	<ele>1401.00</ele>
	<time>2025-08-03T06:51:41.000Z</time>
</trkpt>
<trkpt lat="45.9583480" lon="10.1277640">
	<ele>1401.20</ele>
	<time>2025-08-03T06:51:42.000Z</time>
</trkpt>
<trkpt lat="45.9583400" lon="10.1277740">
	<ele>1401.40</ele>
	<time>2025-08-03T06:51:43.000Z</time>
</trkpt>
<trkpt lat="45.9583250" lon="10.1277820">
	<ele>1401.60</ele>
	<time>2025-08-03T06:51:44.000Z</time>
</trkpt>
<trkpt lat="45.9583120" lon="10.1277890">
	<ele>1401.60</ele>
	<time>2025-08-03T06:51:45.000Z</time>
</trkpt>
<trkpt lat="45.9583110" lon="10.1278000">
	<ele>1401.80</ele>
	<time>2025-08-03T06:51:46.000Z</time>
</trkpt>
<trkpt lat="45.9583220" lon="10.1278190">
	<ele>1402.00</ele>
	<time>2025-08-03T06:51:47.000Z</time>
</trkpt>
<trkpt lat="45.9583310" lon="10.1278410">
	<ele>1402.20</ele>
	<time>2025-08-03T06:51:48.000Z</time>
</trkpt>
<trkpt lat="45.9583280" lon="10.1278570">
	<ele>1402.20</ele>
	<time>2025-08-03T06:51:49.000Z</time>
</trkpt>
<trkpt lat="45.9583370" lon="10.1278790">
	<ele>1402.40</ele>
	<time>2025-08-03T06:51:50.000Z</time>
</trkpt>
<trkpt lat="45.9583330" lon="10.1278910">
	<ele>1402.60</ele>
	<time>2025-08-03T06:51:51.000Z</time>
</trkpt>
<trkpt lat="45.9583280" lon="10.1279080">
	<ele>1402.80</ele>
	<time>2025-08-03T06:51:52.000Z</time>
</trkpt>
<trkpt lat="45.9583280" lon="10.1279240">
	<ele>1403.00</ele>
	<time>2025-08-03T06:51:53.000Z</time>
</trkpt>
<trkpt lat="45.9583260" lon="10.1279360">
	<ele>1403.20</ele>
	<time>2025-08-03T06:51:54.000Z</time>
</trkpt>
<trkpt lat="45.9583190" lon="10.1279430">
	<ele>1403.20</ele>
	<time>2025-08-03T06:51:55.000Z</time>
</trkpt>
<trkpt lat="45.9583080" lon="10.1279500">
	<ele>1403.40</ele>
	<time>2025-08-03T06:51:56.000Z</time>
</trkpt>
<trkpt lat="45.9582980" lon="10.1279580">
	<ele>1403.60</ele>
	<time>2025-08-03T06:51:57.000Z</time>
</trkpt>
<trkpt lat="45.9582940" lon="10.1279710">
	<ele>1404.00</ele>
	<time>2025-08-03T06:51:58.000Z</time>
</trkpt>
<trkpt lat="45.9582940" lon="10.1279830">
	<ele>1404.20</ele>
	<time>2025-08-03T06:51:59.000Z</time>
</trkpt>
<trkpt lat="45.9582850" lon="10.1279890">
	<ele>1404.40</ele>
	<time>2025-08-03T06:52:00.000Z</time>
</trkpt>
<trkpt lat="45.9582800" lon="10.1279970">
	<ele>1404.60</ele>
	<time>2025-08-03T06:52:01.000Z</time>
</trkpt>
<trkpt lat="45.9582740" lon="10.1280030">
	<ele>1404.80</ele>
	<time>2025-08-03T06:52:02.000Z</time>
</trkpt>
<trkpt lat="45.9582690" lon="10.1280080">
	<ele>1405.00</ele>
	<time>2025-08-03T06:52:03.000Z</time>
</trkpt>
<trkpt lat="45.9582720" lon="10.1280220">
	<ele>1405.20</ele>
	<time>2025-08-03T06:52:04.000Z</time>
</trkpt>
<trkpt lat="45.9582850" lon="10.1280430">
	<ele>1405.40</ele>
	<time>2025-08-03T06:52:05.000Z</time>
</trkpt>
<trkpt lat="45.9582930" lon="10.1280610">
	<ele>1405.80</ele>
	<time>2025-08-03T06:52:06.000Z</time>
</trkpt>
<trkpt lat="45.9582950" lon="10.1280770">
	<ele>1406.00</ele>
	<time>2025-08-03T06:52:07.000Z</time>
</trkpt>
<trkpt lat="45.9582960" lon="10.1280960">
	<ele>1406.20</ele>
	<time>2025-08-03T06:52:08.000Z</time>
</trkpt>
<trkpt lat="45.9582940" lon="10.1281080">
	<ele>1406.40</ele>
	<time>2025-08-03T06:52:09.000Z</time>
</trkpt>
<trkpt lat="45.9582940" lon="10.1281200">
	<ele>1406.60</ele>
	<time>2025-08-03T06:52:10.000Z</time>
</trkpt>
<trkpt lat="45.9582930" lon="10.1281280">
	<ele>1406.80</ele>
	<time>2025-08-03T06:52:11.000Z</time>
</trkpt>
<trkpt lat="45.9582880" lon="10.1281330">
	<ele>1407.00</ele>
	<time>2025-08-03T06:52:12.000Z</time>
</trkpt>
<trkpt lat="45.9582810" lon="10.1281460">
	<ele>1407.20</ele>
	<time>2025-08-03T06:52:13.000Z</time>
</trkpt>
<trkpt lat="45.9582780" lon="10.1281610">
	<ele>1407.40</ele>
	<time>2025-08-03T06:52:14.000Z</time>
</trkpt>
<trkpt lat="45.9582770" lon="10.1281720">
	<ele>1407.60</ele>
	<time>2025-08-03T06:52:15.000Z</time>
</trkpt>
<trkpt lat="45.9582760" lon="10.1281780">
	<ele>1408.00</ele>
	<time>2025-08-03T06:52:16.000Z</time>
</trkpt>
<trkpt lat="45.9582750" lon="10.1281830">
	<ele>1408.20</ele>
	<time>2025-08-03T06:52:17.000Z</time>
</trkpt>
<trkpt lat="45.9582740" lon="10.1281860">
	<ele>1408.40</ele>
	<time>2025-08-03T06:52:18.000Z</time>
</trkpt>
<trkpt lat="45.9582740" lon="10.1281940">
	<ele>1408.60</ele>
	<time>2025-08-03T06:52:19.000Z</time>
</trkpt>
<trkpt lat="45.9582770" lon="10.1282060">
	<ele>1408.60</ele>
	<time>2025-08-03T06:52:20.000Z</time>
</trkpt>
<trkpt lat="45.9582680" lon="10.1282220">
	<ele>1408.80</ele>
	<time>2025-08-03T06:52:21.000Z</time>
</trkpt>
<trkpt lat="45.9582540" lon="10.1282340">
	<ele>1409.00</ele>
	<time>2025-08-03T06:52:22.000Z</time>
</trkpt>
<trkpt lat="45.9582520" lon="10.1282430">
	<ele>1409.00</ele>
	<time>2025-08-03T06:52:23.000Z</time>
</trkpt>
<trkpt lat="45.9582550" lon="10.1282550">
	<ele>1409.20</ele>
	<time>2025-08-03T06:52:24.000Z</time>
</trkpt>
<trkpt lat="45.9582690" lon="10.1282730">
	<ele>1409.40</ele>
	<time>2025-08-03T06:52:25.000Z</time>
</trkpt>
<trkpt lat="45.9582620" lon="10.1282820">
	<ele>1409.60</ele>
	<time>2025-08-03T06:52:26.000Z</time>
</trkpt>
<trkpt lat="45.9582530" lon="10.1282840">
	<ele>1409.80</ele>
	<time>2025-08-03T06:52:27.000Z</time>
</trkpt>
<trkpt lat="45.9582350" lon="10.1282840">
	<ele>1409.80</ele>
	<time>2025-08-03T06:52:28.000Z</time>
</trkpt>
<trkpt lat="45.9582240" lon="10.1282860">
	<ele>1410.00</ele>
	<time>2025-08-03T06:52:29.000Z</time>
</trkpt>
<trkpt lat="45.9582140" lon="10.1282920">
	<ele>1410.00</ele>
	<time>2025-08-03T06:52:30.000Z</time>
</trkpt>
<trkpt lat="45.9582050" lon="10.1283020">
	<ele>1410.20</ele>
	<time>2025-08-03T06:52:31.000Z</time>
</trkpt>
<trkpt lat="45.9581940" lon="10.1283120">
	<ele>1410.40</ele>
	<time>2025-08-03T06:52:32.000Z</time>
</trkpt>
<trkpt lat="45.9581860" lon="10.1283210">
	<ele>1410.40</ele>
	<time>2025-08-03T06:52:33.000Z</time>
</trkpt>
<trkpt lat="45.9581800" lon="10.1283310">
	<ele>1410.40</ele>
	<time>2025-08-03T06:52:34.000Z</time>
</trkpt>
<trkpt lat="45.9581770" lon="10.1283470">
	<ele>1410.60</ele>
	<time>2025-08-03T06:52:35.000Z</time>
</trkpt>
<trkpt lat="45.9581750" lon="10.1283650">
	<ele>1410.80</ele>
	<time>2025-08-03T06:52:36.000Z</time>
</trkpt>
<trkpt lat="45.9581700" lon="10.1283830">
	<ele>1410.80</ele>
	<time>2025-08-03T06:52:37.000Z</time>
</trkpt>
<trkpt lat="45.9581650" lon="10.1284010">
	<ele>1411.00</ele>
	<time>2025-08-03T06:52:38.000Z</time>
</trkpt>
<trkpt lat="45.9581580" lon="10.1284140">
	<ele>1411.00</ele>
	<time>2025-08-03T06:52:39.000Z</time>
</trkpt>
<trkpt lat="45.9581570" lon="10.1284260">
	<ele>1411.00</ele>
	<time>2025-08-03T06:52:40.000Z</time>
</trkpt>
<trkpt lat="45.9581490" lon="10.1284390">
	<ele>1411.00</ele>
	<time>2025-08-03T06:52:41.000Z</time>
</trkpt>
<trkpt lat="45.9581360" lon="10.1284510">
	<ele>1411.20</ele>
	<time>2025-08-03T06:52:42.000Z</time>
</trkpt>
<trkpt lat="45.9581240" lon="10.1284620">
	<ele>1411.20</ele>
	<time>2025-08-03T06:52:43.000Z</time>
</trkpt>
<trkpt lat="45.9581060" lon="10.1284670">
	<ele>1411.20</ele>
	<time>2025-08-03T06:52:44.000Z</time>
</trkpt>
<trkpt lat="45.9580920" lon="10.1284750">
	<ele>1411.20</ele>
	<time>2025-08-03T06:52:45.000Z</time>
</trkpt>
<trkpt lat="45.9580900" lon="10.1284910">
	<ele>1411.20</ele>
	<time>2025-08-03T06:52:46.000Z</time>
</trkpt>
<trkpt lat="45.9580880" lon="10.1285070">
	<ele>1411.40</ele>
	<time>2025-08-03T06:52:47.000Z</time>
</trkpt>
<trkpt lat="45.9580780" lon="10.1285180">
	<ele>1411.40</ele>
	<time>2025-08-03T06:52:48.000Z</time>
</trkpt>
<trkpt lat="45.9580650" lon="10.1285310">
	<ele>1411.40</ele>
	<time>2025-08-03T06:52:49.000Z</time>
</trkpt>
<trkpt lat="45.9580540" lon="10.1285420">
	<ele>1411.60</ele>
	<time>2025-08-03T06:52:50.000Z</time>
</trkpt>
<trkpt lat="45.9580460" lon="10.1285580">
	<ele>1411.60</ele>
	<time>2025-08-03T06:52:51.000Z</time>
</trkpt>
<trkpt lat="45.9580510" lon="10.1285790">
	<ele>1411.80</ele>
	<time>2025-08-03T06:52:52.000Z</time>
</trkpt>
<trkpt lat="45.9580460" lon="10.1285940">
	<ele>1411.80</ele>
	<time>2025-08-03T06:52:53.000Z</time>
</trkpt>
<trkpt lat="45.9580470" lon="10.1286090">
	<ele>1412.00</ele>
	<time>2025-08-03T06:52:54.000Z</time>
</trkpt>
<trkpt lat="45.9580440" lon="10.1286150">
	<ele>1412.00</ele>
	<time>2025-08-03T06:52:55.000Z</time>
</trkpt>
<trkpt lat="45.9580380" lon="10.1286260">
	<ele>1412.00</ele>
	<time>2025-08-03T06:52:56.000Z</time>
</trkpt>
<trkpt lat="45.9580290" lon="10.1286290">
	<ele>1412.20</ele>
	<time>2025-08-03T06:52:57.000Z</time>
</trkpt>
<trkpt lat="45.9580130" lon="10.1286390">
	<ele>1412.20</ele>
	<time>2025-08-03T06:52:58.000Z</time>
</trkpt>
<trkpt lat="45.9579910" lon="10.1286430">
	<ele>1412.40</ele>
	<time>2025-08-03T06:52:59.000Z</time>
</trkpt>
<trkpt lat="45.9579690" lon="10.1286400">
	<ele>1412.40</ele>
	<time>2025-08-03T06:53:00.000Z</time>
</trkpt>
<trkpt lat="45.9579490" lon="10.1286390">
	<ele>1412.60</ele>
	<time>2025-08-03T06:53:01.000Z</time>
</trkpt>
<trkpt lat="45.9579390" lon="10.1286490">
	<ele>1412.80</ele>
	<time>2025-08-03T06:53:02.000Z</time>
</trkpt>
<trkpt lat="45.9579260" lon="10.1286490">
	<ele>1413.00</ele>
	<time>2025-08-03T06:53:03.000Z</time>
</trkpt>
<trkpt lat="45.9579150" lon="10.1286550">
	<ele>1413.20</ele>
	<time>2025-08-03T06:53:04.000Z</time>
</trkpt>
<trkpt lat="45.9579050" lon="10.1286650">
	<ele>1413.20</ele>
	<time>2025-08-03T06:53:05.000Z</time>
</trkpt>
<trkpt lat="45.9579050" lon="10.1286790">
	<ele>1413.40</ele>
	<time>2025-08-03T06:53:06.000Z</time>
</trkpt>
<trkpt lat="45.9579050" lon="10.1286930">
	<ele>1413.40</ele>
	<time>2025-08-03T06:53:07.000Z</time>
</trkpt>
<trkpt lat="45.9579050" lon="10.1287090">
	<ele>1413.60</ele>
	<time>2025-08-03T06:53:08.000Z</time>
</trkpt>
<trkpt lat="45.9579020" lon="10.1287220">
	<ele>1413.80</ele>
	<time>2025-08-03T06:53:09.000Z</time>
</trkpt>
<trkpt lat="45.9578970" lon="10.1287350">
	<ele>1414.00</ele>
	<time>2025-08-03T06:53:10.000Z</time>
</trkpt>
<trkpt lat="45.9578950" lon="10.1287470">
	<ele>1414.00</ele>
	<time>2025-08-03T06:53:11.000Z</time>
</trkpt>
<trkpt lat="45.9578900" lon="10.1287560">
	<ele>1414.20</ele>
	<time>2025-08-03T06:53:12.000Z</time>
</trkpt>
<trkpt lat="45.9578850" lon="10.1287700">
	<ele>1414.20</ele>
	<time>2025-08-03T06:53:13.000Z</time>
</trkpt>
<trkpt lat="45.9578850" lon="10.1287860">
	<ele>1414.40</ele>
	<time>2025-08-03T06:53:14.000Z</time>
</trkpt>
<trkpt lat="45.9578900" lon="10.1287990">
	<ele>1414.60</ele>
	<time>2025-08-03T06:53:15.000Z</time>
</trkpt>
<trkpt lat="45.9578940" lon="10.1288130">
	<ele>1414.60</ele>
	<time>2025-08-03T06:53:16.000Z</time>
</trkpt>
<trkpt lat="45.9578910" lon="10.1288270">
	<ele>1414.80</ele>
	<time>2025-08-03T06:53:17.000Z</time>
</trkpt>
<trkpt lat="45.9578820" lon="10.1288400">
	<ele>1415.00</ele>
	<time>2025-08-03T06:53:18.000Z</time>
</trkpt>
<trkpt lat="45.9578800" lon="10.1288520">
	<ele>1415.20</ele>
	<time>2025-08-03T06:53:19.000Z</time>
</trkpt>
<trkpt lat="45.9578790" lon="10.1288680">
	<ele>1415.40</ele>
	<time>2025-08-03T06:53:20.000Z</time>
</trkpt>
<trkpt lat="45.9578780" lon="10.1288770">
	<ele>1415.60</ele>
	<time>2025-08-03T06:53:21.000Z</time>
</trkpt>
<trkpt lat="45.9578790" lon="10.1288940">
	<ele>1415.80</ele>
	<time>2025-08-03T06:53:22.000Z</time>
</trkpt>
<trkpt lat="45.9578830" lon="10.1289120">
	<ele>1416.00</ele>
	<time>2025-08-03T06:53:23.000Z</time>
</trkpt>
<trkpt lat="45.9578790" lon="10.1289210">
	<ele>1416.20</ele>
	<time>2025-08-03T06:53:24.000Z</time>
</trkpt>
<trkpt lat="45.9578650" lon="10.1289360">
	<ele>1416.40</ele>
	<time>2025-08-03T06:53:25.000Z</time>
</trkpt>
<trkpt lat="45.9578650" lon="10.1289590">
	<ele>1416.40</ele>
	<time>2025-08-03T06:53:26.000Z</time>
</trkpt>
<trkpt lat="45.9578790" lon="10.1289860">
	<ele>1416.60</ele>
	<time>2025-08-03T06:53:27.000Z</time>
</trkpt>
<trkpt lat="45.9578780" lon="10.1289960">
	<ele>1416.80</ele>
	<time>2025-08-03T06:53:28.000Z</time>
</trkpt>
<trkpt lat="45.9578700" lon="10.1290050">
	<ele>1417.00</ele>
	<time>2025-08-03T06:53:29.000Z</time>
</trkpt>
<trkpt lat="45.9578700" lon="10.1290170">
	<ele>1417.00</ele>
	<time>2025-08-03T06:53:30.000Z</time>
</trkpt>
<trkpt lat="45.9578670" lon="10.1290310">
	<ele>1417.20</ele>
	<time>2025-08-03T06:53:31.000Z</time>
</trkpt>
<trkpt lat="45.9578750" lon="10.1290420">
	<ele>1417.40</ele>
	<time>2025-08-03T06:53:32.000Z</time>
</trkpt>
<trkpt lat="45.9578920" lon="10.1290580">
	<ele>1417.60</ele>
	<time>2025-08-03T06:53:33.000Z</time>
</trkpt>
<trkpt lat="45.9579110" lon="10.1290810">
	<ele>1417.80</ele>
	<time>2025-08-03T06:53:34.000Z</time>
</trkpt>
<trkpt lat="45.9579230" lon="10.1291040">
	<ele>1418.00</ele>
	<time>2025-08-03T06:53:35.000Z</time>
</trkpt>
<trkpt lat="45.9579550" lon="10.1291440">
	<ele>1418.20</ele>
	<time>2025-08-03T06:53:36.000Z</time>
</trkpt>
<trkpt lat="45.9579760" lon="10.1291900">
	<ele>1418.40</ele>
	<time>2025-08-03T06:53:37.000Z</time>
</trkpt>
<trkpt lat="45.9579890" lon="10.1292390">
	<ele>1418.60</ele>
	<time>2025-08-03T06:53:38.000Z</time>
</trkpt>
<trkpt lat="45.9579940" lon="10.1292790">
	<ele>1418.80</ele>
	<time>2025-08-03T06:53:39.000Z</time>
</trkpt>
<trkpt lat="45.9579980" lon="10.1292880">
	<ele>1419.00</ele>
	<time>2025-08-03T06:53:40.000Z</time>
</trkpt>
<trkpt lat="45.9580030" lon="10.1292880">
	<ele>1419.20</ele>
	<time>2025-08-03T06:53:41.000Z</time>
</trkpt>
<trkpt lat="45.9580060" lon="10.1293020">
	<ele>1419.20</ele>
	<time>2025-08-03T06:53:42.000Z</time>
</trkpt>
<trkpt lat="45.9580050" lon="10.1293170">
	<ele>1419.40</ele>
	<time>2025-08-03T06:53:43.000Z</time>
</trkpt>
<trkpt lat="45.9580070" lon="10.1293400">
	<ele>1419.60</ele>
	<time>2025-08-03T06:53:44.000Z</time>
</trkpt>
<trkpt lat="45.9579980" lon="10.1293590">
	<ele>1419.60</ele>
	<time>2025-08-03T06:53:45.000Z</time>
</trkpt>
<trkpt lat="45.9579810" lon="10.1293730">
	<ele>1419.80</ele>
	<time>2025-08-03T06:53:46.000Z</time>
</trkpt>
<trkpt lat="45.9579780" lon="10.1293940">
	<ele>1419.80</ele>
	<time>2025-08-03T06:53:47.000Z</time>
</trkpt>
<trkpt lat="45.9579730" lon="10.1294160">
	<ele>1419.80</ele>
	<time>2025-08-03T06:53:48.000Z</time>
</trkpt>
<trkpt lat="45.9579630" lon="10.1294450">
	<ele>1420.00</ele>
	<time>2025-08-03T06:53:49.000Z</time>
</trkpt>
<trkpt lat="45.9579540" lon="10.1294700">
	<ele>1420.00</ele>
	<time>2025-08-03T06:53:50.000Z</time>
</trkpt>
<trkpt lat="45.9579550" lon="10.1294930">
	<ele>1420.20</ele>
	<time>2025-08-03T06:53:51.000Z</time>
</trkpt>
<trkpt lat="45.9579630" lon="10.1295170">
	<ele>1420.20</ele>
	<time>2025-08-03T06:53:52.000Z</time>
</trkpt>
<trkpt lat="45.9579740" lon="10.1295310">
	<ele>1420.40</ele>
	<time>2025-08-03T06:53:53.000Z</time>
</trkpt>
<trkpt lat="45.9579750" lon="10.1295530">
	<ele>1420.40</ele>
	<time>2025-08-03T06:53:54.000Z</time>
</trkpt>
<trkpt lat="45.9579730" lon="10.1295770">
	<ele>1420.60</ele>
	<time>2025-08-03T06:53:55.000Z</time>
</trkpt>
<trkpt lat="45.9579630" lon="10.1295920">
	<ele>1420.80</ele>
	<time>2025-08-03T06:53:56.000Z</time>
</trkpt>
<trkpt lat="45.9579530" lon="10.1296080">
	<ele>1420.80</ele>
	<time>2025-08-03T06:53:57.000Z</time>
</trkpt>
<trkpt lat="45.9579470" lon="10.1296240">
	<ele>1421.00</ele>
	<time>2025-08-03T06:53:58.000Z</time>
</trkpt>
<trkpt lat="45.9579270" lon="10.1296390">
	<ele>1421.00</ele>
	<time>2025-08-03T06:53:59.000Z</time>
</trkpt>
<trkpt lat="45.9578990" lon="10.1296470">
	<ele>1421.00</ele>
	<time>2025-08-03T06:54:00.000Z</time>
</trkpt>
<trkpt lat="45.9578730" lon="10.1296560">
	<ele>1421.00</ele>
	<time>2025-08-03T06:54:01.000Z</time>
</trkpt>
<trkpt lat="45.9578680" lon="10.1296650">
	<ele>1421.00</ele>
	<time>2025-08-03T06:54:02.000Z</time>
</trkpt>
<trkpt lat="45.9578620" lon="10.1296700">
	<ele>1421.20</ele>
	<time>2025-08-03T06:54:03.000Z</time>
</trkpt>
<trkpt lat="45.9578660" lon="10.1296730">
	<ele>1421.20</ele>
	<time>2025-08-03T06:54:04.000Z</time>
</trkpt>
<trkpt lat="45.9578660" lon="10.1296720">
	<ele>1421.40</ele>
	<time>2025-08-03T06:54:05.000Z</time>
</trkpt>
<trkpt lat="45.9578510" lon="10.1296620">
	<ele>1421.40</ele>
	<time>2025-08-03T06:54:06.000Z</time>
</trkpt>
<trkpt lat="45.9578400" lon="10.1296680">
	<ele>1421.40</ele>
	<time>2025-08-03T06:54:07.000Z</time>
</trkpt>
<trkpt lat="45.9578260" lon="10.1296810">
	<ele>1421.40</ele>
	<time>2025-08-03T06:54:08.000Z</time>
</trkpt>
<trkpt lat="45.9578250" lon="10.1297030">
	<ele>1421.20</ele>
	<time>2025-08-03T06:54:09.000Z</time>
</trkpt>
<trkpt lat="45.9578360" lon="10.1297250">
	<ele>1421.20</ele>
	<time>2025-08-03T06:54:10.000Z</time>
</trkpt>
<trkpt lat="45.9578300" lon="10.1297330">
	<ele>1421.20</ele>
	<time>2025-08-03T06:54:11.000Z</time>
</trkpt>
<trkpt lat="45.9578200" lon="10.1297480">
	<ele>1421.20</ele>
	<time>2025-08-03T06:54:12.000Z</time>
</trkpt>
<trkpt lat="45.9578180" lon="10.1297590">
	<ele>1421.20</ele>
	<time>2025-08-03T06:54:13.000Z</time>
</trkpt>
<trkpt lat="45.9578190" lon="10.1297770">
	<ele>1421.20</ele>
	<time>2025-08-03T06:54:14.000Z</time>
</trkpt>
<trkpt lat="45.9578170" lon="10.1297920">
	<ele>1421.40</ele>
	<time>2025-08-03T06:54:15.000Z</time>
</trkpt>
<trkpt lat="45.9578100" lon="10.1298060">
	<ele>1421.40</ele>
	<time>2025-08-03T06:54:16.000Z</time>
</trkpt>
<trkpt lat="45.9577970" lon="10.1298180">
	<ele>1421.60</ele>
	<time>2025-08-03T06:54:17.000Z</time>
</trkpt>
<trkpt lat="45.9577880" lon="10.1298340">
	<ele>1421.60</ele>
	<time>2025-08-03T06:54:18.000Z</time>
</trkpt>
<trkpt lat="45.9577790" lon="10.1298500">
	<ele>1421.80</ele>
	<time>2025-08-03T06:54:19.000Z</time>
</trkpt>
<trkpt lat="45.9577750" lon="10.1298650">
	<ele>1421.80</ele>
	<time>2025-08-03T06:54:20.000Z</time>
</trkpt>
<trkpt lat="45.9577650" lon="10.1298780">
	<ele>1421.80</ele>
	<time>2025-08-03T06:54:21.000Z</time>
</trkpt>
<trkpt lat="45.9577550" lon="10.1298930">
	<ele>1421.80</ele>
	<time>2025-08-03T06:54:22.000Z</time>
</trkpt>
<trkpt lat="45.9577530" lon="10.1299070">
	<ele>1422.00</ele>
	<time>2025-08-03T06:54:23.000Z</time>
</trkpt>
<trkpt lat="45.9577550" lon="10.1299200">
	<ele>1422.00</ele>
	<time>2025-08-03T06:54:24.000Z</time>
</trkpt>
<trkpt lat="45.9577550" lon="10.1299360">
	<ele>1422.00</ele>
	<time>2025-08-03T06:54:25.000Z</time>
</trkpt>
<trkpt lat="45.9577520" lon="10.1299500">
	<ele>1422.00</ele>
	<time>2025-08-03T06:54:26.000Z</time>
</trkpt>
<trkpt lat="45.9577510" lon="10.1299690">
	<ele>1422.00</ele>
	<time>2025-08-03T06:54:27.000Z</time>
</trkpt>
<trkpt lat="45.9577560" lon="10.1299910">
	<ele>1422.00</ele>
	<time>2025-08-03T06:54:28.000Z</time>
</trkpt>
<trkpt lat="45.9577620" lon="10.1300170">
	<ele>1422.00</ele>
	<time>2025-08-03T06:54:29.000Z</time>
</trkpt>
<trkpt lat="45.9577720" lon="10.1300450">
	<ele>1422.20</ele>
	<time>2025-08-03T06:54:30.000Z</time>
</trkpt>
<trkpt lat="45.9577790" lon="10.1300690">
	<ele>1422.40</ele>
	<time>2025-08-03T06:54:31.000Z</time>
</trkpt>
<trkpt lat="45.9577870" lon="10.1300920">
	<ele>1422.60</ele>
	<time>2025-08-03T06:54:32.000Z</time>
</trkpt>
<trkpt lat="45.9577830" lon="10.1301130">
	<ele>1422.60</ele>
	<time>2025-08-03T06:54:33.000Z</time>
</trkpt>
<trkpt lat="45.9577840" lon="10.1301280">
	<ele>1422.80</ele>
	<time>2025-08-03T06:54:34.000Z</time>
</trkpt>
<trkpt lat="45.9577860" lon="10.1301420">
	<ele>1422.80</ele>
	<time>2025-08-03T06:54:35.000Z</time>
</trkpt>
<trkpt lat="45.9577860" lon="10.1301550">
	<ele>1422.80</ele>
	<time>2025-08-03T06:54:36.000Z</time>
</trkpt>
<trkpt lat="45.9577880" lon="10.1301690">
	<ele>1423.00</ele>
	<time>2025-08-03T06:54:37.000Z</time>
</trkpt>
<trkpt lat="45.9577880" lon="10.1301820">
	<ele>1423.20</ele>
	<time>2025-08-03T06:54:38.000Z</time>
</trkpt>
<trkpt lat="45.9577890" lon="10.1301950">
	<ele>1423.40</ele>
	<time>2025-08-03T06:54:39.000Z</time>
</trkpt>
<trkpt lat="45.9577910" lon="10.1302050">
	<ele>1423.60</ele>
	<time>2025-08-03T06:54:40.000Z</time>
</trkpt>
<trkpt lat="45.9577940" lon="10.1302200">
	<ele>1423.80</ele>
	<time>2025-08-03T06:54:41.000Z</time>
</trkpt>
<trkpt lat="45.9578120" lon="10.1302400">
	<ele>1424.00</ele>
	<time>2025-08-03T06:54:42.000Z</time>
</trkpt>
<trkpt lat="45.9578080" lon="10.1302500">
	<ele>1424.20</ele>
	<time>2025-08-03T06:54:43.000Z</time>
</trkpt>
<trkpt lat="45.9578020" lon="10.1302540">
	<ele>1424.40</ele>
	<time>2025-08-03T06:54:44.000Z</time>
</trkpt>
<trkpt lat="45.9578050" lon="10.1302650">
	<ele>1424.60</ele>
	<time>2025-08-03T06:54:45.000Z</time>
</trkpt>
<trkpt lat="45.9578060" lon="10.1302750">
	<ele>1424.80</ele>
	<time>2025-08-03T06:54:46.000Z</time>
</trkpt>
<trkpt lat="45.9578120" lon="10.1302900">
	<ele>1425.00</ele>
	<time>2025-08-03T06:54:47.000Z</time>
</trkpt>
<trkpt lat="45.9578140" lon="10.1302970">
	<ele>1425.20</ele>
	<time>2025-08-03T06:54:48.000Z</time>
</trkpt>
<trkpt lat="45.9578100" lon="10.1303170">
	<ele>1425.60</ele>
	<time>2025-08-03T06:54:49.000Z</time>
</trkpt>
<trkpt lat="45.9577990" lon="10.1303330">
	<ele>1426.00</ele>
	<time>2025-08-03T06:54:50.000Z</time>
</trkpt>
<trkpt lat="45.9577920" lon="10.1303450">
	<ele>1426.40</ele>
	<time>2025-08-03T06:54:51.000Z</time>
</trkpt>
<trkpt lat="45.9577810" lon="10.1303520">
	<ele>1426.80</ele>
	<time>2025-08-03T06:54:52.000Z</time>
</trkpt>
<trkpt lat="45.9577690" lon="10.1303560">
	<ele>1427.00</ele>
	<time>2025-08-03T06:54:53.000Z</time>
</trkpt>
<trkpt lat="45.9577600" lon="10.1303630">
	<ele>1427.20</ele>
	<time>2025-08-03T06:54:54.000Z</time>
</trkpt>
<trkpt lat="45.9577490" lon="10.1303700">
	<ele>1427.40</ele>
	<time>2025-08-03T06:54:55.000Z</time>
</trkpt>
<trkpt lat="45.9577430" lon="10.1303770">
	<ele>1427.40</ele>
	<time>2025-08-03T06:54:56.000Z</time>
</trkpt>
<trkpt lat="45.9577440" lon="10.1303970">
	<ele>1427.40</ele>
	<time>2025-08-03T06:54:57.000Z</time>
</trkpt>
<trkpt lat="45.9577430" lon="10.1304190">
	<ele>1427.60</ele>
	<time>2025-08-03T06:54:58.000Z</time>
</trkpt>
<trkpt lat="45.9577390" lon="10.1304450">
	<ele>1427.60</ele>
	<time>2025-08-03T06:54:59.000Z</time>
</trkpt>
<trkpt lat="45.9577320" lon="10.1304640">
	<ele>1427.60</ele>
	<time>2025-08-03T06:55:00.000Z</time>
</trkpt>
<trkpt lat="45.9577230" lon="10.1304760">
	<ele>1427.60</ele>
	<time>2025-08-03T06:55:01.000Z</time>
</trkpt>
<trkpt lat="45.9577090" lon="10.1304920">
	<ele>1427.80</ele>
	<time>2025-08-03T06:55:02.000Z</time>
</trkpt>
<trkpt lat="45.9576940" lon="10.1305050">
	<ele>1427.80</ele>
	<time>2025-08-03T06:55:03.000Z</time>
</trkpt>
<trkpt lat="45.9576770" lon="10.1305040">
	<ele>1427.80</ele>
	<time>2025-08-03T06:55:04.000Z</time>
</trkpt>
<trkpt lat="45.9576590" lon="10.1305040">
	<ele>1427.80</ele>
	<time>2025-08-03T06:55:05.000Z</time>
</trkpt>
<trkpt lat="45.9576500" lon="10.1305170">
	<ele>1427.80</ele>
	<time>2025-08-03T06:55:06.000Z</time>
</trkpt>
<trkpt lat="45.9576540" lon="10.1305400">
	<ele>1427.80</ele>
	<time>2025-08-03T06:55:07.000Z</time>
</trkpt>
<trkpt lat="45.9576420" lon="10.1305580">
	<ele>1428.00</ele>
	<time>2025-08-03T06:55:08.000Z</time>
</trkpt>
<trkpt lat="45.9576190" lon="10.1305640">
	<ele>1428.00</ele>
	<time>2025-08-03T06:55:09.000Z</time>
</trkpt>
<trkpt lat="45.9576050" lon="10.1305630">
	<ele>1428.00</ele>
	<time>2025-08-03T06:55:10.000Z</time>
</trkpt>
<trkpt lat="45.9575900" lon="10.1305560">
	<ele>1428.20</ele>
	<time>2025-08-03T06:55:11.000Z</time>
</trkpt>
<trkpt lat="45.9575900" lon="10.1305710">
	<ele>1428.40</ele>
	<time>2025-08-03T06:55:12.000Z</time>
</trkpt>
<trkpt lat="45.9575900" lon="10.1305890">
	<ele>1428.60</ele>
	<time>2025-08-03T06:55:13.000Z</time>
</trkpt>
<trkpt lat="45.9575730" lon="10.1306110">
	<ele>1428.80</ele>
	<time>2025-08-03T06:55:14.000Z</time>
</trkpt>
<trkpt lat="45.9575750" lon="10.1306380">
	<ele>1429.00</ele>
	<time>2025-08-03T06:55:15.000Z</time>
</trkpt>
<trkpt lat="45.9575760" lon="10.1306620">
	<ele>1429.00</ele>
	<time>2025-08-03T06:55:16.000Z</time>
</trkpt>
<trkpt lat="45.9575700" lon="10.1306880">
	<ele>1429.20</ele>
	<time>2025-08-03T06:55:17.000Z</time>
</trkpt>
<trkpt lat="45.9575670" lon="10.1307130">
	<ele>1429.20</ele>
	<time>2025-08-03T06:55:18.000Z</time>
</trkpt>
<trkpt lat="45.9575560" lon="10.1307240">
	<ele>1429.40</ele>
	<time>2025-08-03T06:55:19.000Z</time>
</trkpt>
<trkpt lat="45.9575550" lon="10.1307310">
	<ele>1429.60</ele>
	<time>2025-08-03T06:55:20.000Z</time>
</trkpt>
<trkpt lat="45.9575440" lon="10.1307320">
	<ele>1429.80</ele>
	<time>2025-08-03T06:55:21.000Z</time>
</trkpt>
<trkpt lat="45.9575340" lon="10.1307410">
	<ele>1430.00</ele>
	<time>2025-08-03T06:55:22.000Z</time>
</trkpt>
<trkpt lat="45.9575210" lon="10.1307570">
	<ele>1430.00</ele>
	<time>2025-08-03T06:55:23.000Z</time>
</trkpt>
<trkpt lat="45.9574960" lon="10.1307720">
	<ele>1430.20</ele>
	<time>2025-08-03T06:55:24.000Z</time>
</trkpt>
<trkpt lat="45.9574850" lon="10.1307810">
	<ele>1430.40</ele>
	<time>2025-08-03T06:55:25.000Z</time>
</trkpt>
<trkpt lat="45.9574860" lon="10.1308100">
	<ele>1430.60</ele>
	<time>2025-08-03T06:55:26.000Z</time>
</trkpt>
<trkpt lat="45.9574960" lon="10.1308330">
	<ele>1430.80</ele>
	<time>2025-08-03T06:55:27.000Z</time>
</trkpt>
<trkpt lat="45.9575010" lon="10.1308470">
	<ele>1431.00</ele>
	<time>2025-08-03T06:55:28.000Z</time>
</trkpt>
<trkpt lat="45.9574900" lon="10.1308500">
	<ele>1431.00</ele>
	<time>2025-08-03T06:55:29.000Z</time>
</trkpt>
<trkpt lat="45.9574940" lon="10.1308530">
	<ele>1431.20</ele>
	<time>2025-08-03T06:55:30.000Z</time>
</trkpt>
<trkpt lat="45.9575020" lon="10.1308630">
	<ele>1431.40</ele>
	<time>2025-08-03T06:55:31.000Z</time>
</trkpt>
<trkpt lat="45.9575070" lon="10.1308750">
	<ele>1431.60</ele>
	<time>2025-08-03T06:55:32.000Z</time>
</trkpt>
<trkpt lat="45.9575090" lon="10.1308950">
	<ele>1431.80</ele>
	<time>2025-08-03T06:55:33.000Z</time>
</trkpt>
<trkpt lat="45.9575220" lon="10.1309150">
	<ele>1432.00</ele>
	<time>2025-08-03T06:55:34.000Z</time>
</trkpt>
<trkpt lat="45.9575340" lon="10.1309330">
	<ele>1432.00</ele>
	<time>2025-08-03T06:55:35.000Z</time>
</trkpt>
<trkpt lat="45.9575340" lon="10.1309470">
	<ele>1432.40</ele>
	<time>2025-08-03T06:55:36.000Z</time>
</trkpt>
<trkpt lat="45.9575310" lon="10.1309620">
	<ele>1432.60</ele>
	<time>2025-08-03T06:55:37.000Z</time>
</trkpt>
<trkpt lat="45.9575350" lon="10.1309730">
	<ele>1432.60</ele>
	<time>2025-08-03T06:55:38.000Z</time>
</trkpt>
<trkpt lat="45.9575440" lon="10.1309810">
	<ele>1432.80</ele>
	<time>2025-08-03T06:55:39.000Z</time>
</trkpt>
<trkpt lat="45.9575520" lon="10.1309970">
	<ele>1433.00</ele>
	<time>2025-08-03T06:55:40.000Z</time>
</trkpt>
<trkpt lat="45.9575570" lon="10.1310120">
	<ele>1433.20</ele>
	<time>2025-08-03T06:55:41.000Z</time>
</trkpt>
<trkpt lat="45.9575640" lon="10.1310240">
	<ele>1433.20</ele>
	<time>2025-08-03T06:55:42.000Z</time>
</trkpt>
<trkpt lat="45.9575630" lon="10.1310320">
	<ele>1433.40</ele>
	<time>2025-08-03T06:55:43.000Z</time>
</trkpt>
<trkpt lat="45.9575580" lon="10.1310450">
	<ele>1433.60</ele>
	<time>2025-08-03T06:55:44.000Z</time>
</trkpt>
<trkpt lat="45.9575510" lon="10.1310600">
	<ele>1433.80</ele>
	<time>2025-08-03T06:55:45.000Z</time>
</trkpt>
<trkpt lat="45.9575430" lon="10.1310730">
	<ele>1433.80</ele>
	<time>2025-08-03T06:55:46.000Z</time>
</trkpt>
<trkpt lat="45.9575400" lon="10.1310800">
	<ele>1434.00</ele>
	<time>2025-08-03T06:55:47.000Z</time>
</trkpt>
<trkpt lat="45.9575390" lon="10.1310830">
	<ele>1434.20</ele>
	<time>2025-08-03T06:55:48.000Z</time>
</trkpt>
<trkpt lat="45.9575370" lon="10.1310850">
	<ele>1434.20</ele>
	<time>2025-08-03T06:55:49.000Z</time>
</trkpt>
<trkpt lat="45.9575430" lon="10.1310850">
	<ele>1434.20</ele>
	<time>2025-08-03T06:55:50.000Z</time>
</trkpt>
<trkpt lat="45.9575500" lon="10.1310890">
	<ele>1434.20</ele>
	<time>2025-08-03T06:55:51.000Z</time>
</trkpt>
<trkpt lat="45.9575560" lon="10.1310980">
	<ele>1434.40</ele>
	<time>2025-08-03T06:55:52.000Z</time>
</trkpt>
<trkpt lat="45.9575610" lon="10.1311030">
	<ele>1434.40</ele>
	<time>2025-08-03T06:55:53.000Z</time>
</trkpt>
<trkpt lat="45.9575620" lon="10.1311100">
	<ele>1434.40</ele>
	<time>2025-08-03T06:55:54.000Z</time>
</trkpt>
<trkpt lat="45.9575600" lon="10.1311200">
	<ele>1434.40</ele>
	<time>2025-08-03T06:55:55.000Z</time>
</trkpt>
<trkpt lat="45.9575590" lon="10.1311300">
	<ele>1434.40</ele>
	<time>2025-08-03T06:55:56.000Z</time>
</trkpt>
<trkpt lat="45.9575580" lon="10.1311400">
	<ele>1434.60</ele>
	<time>2025-08-03T06:55:57.000Z</time>
</trkpt>
<trkpt lat="45.9575570" lon="10.1311500">
	<ele>1434.80</ele>
	<time>2025-08-03T06:55:58.000Z</time>
</trkpt>
<trkpt lat="45.9575590" lon="10.1311590">
	<ele>1434.80</ele>
	<time>2025-08-03T06:55:59.000Z</time>
</trkpt>
<trkpt lat="45.9575560" lon="10.1311680">
	<ele>1435.00</ele>
	<time>2025-08-03T06:56:00.000Z</time>
</trkpt>
<trkpt lat="45.9575500" lon="10.1311820">
	<ele>1435.00</ele>
	<time>2025-08-03T06:56:01.000Z</time>
</trkpt>
<trkpt lat="45.9575460" lon="10.1311980">
	<ele>1435.00</ele>
	<time>2025-08-03T06:56:02.000Z</time>
</trkpt>
<trkpt lat="45.9575440" lon="10.1312070">
	<ele>1435.20</ele>
	<time>2025-08-03T06:56:03.000Z</time>
</trkpt>
<trkpt lat="45.9575420" lon="10.1312130">
	<ele>1435.40</ele>
	<time>2025-08-03T06:56:04.000Z</time>
</trkpt>
<trkpt lat="45.9575360" lon="10.1312210">
	<ele>1435.40</ele>
	<time>2025-08-03T06:56:05.000Z</time>
</trkpt>
<trkpt lat="45.9575300" lon="10.1312290">
	<ele>1435.40</ele>
	<time>2025-08-03T06:56:06.000Z</time>
</trkpt>
<trkpt lat="45.9575250" lon="10.1312410">
	<ele>1435.60</ele>
	<time>2025-08-03T06:56:07.000Z</time>
</trkpt>
<trkpt lat="45.9575240" lon="10.1312590">
	<ele>1435.80</ele>
	<time>2025-08-03T06:56:08.000Z</time>
</trkpt>
<trkpt lat="45.9575140" lon="10.1312750">
	<ele>1436.00</ele>
	<time>2025-08-03T06:56:09.000Z</time>
</trkpt>
<trkpt lat="45.9575100" lon="10.1312900">
	<ele>1436.00</ele>
	<time>2025-08-03T06:56:10.000Z</time>
</trkpt>
<trkpt lat="45.9575040" lon="10.1313030">
	<ele>1436.20</ele>
	<time>2025-08-03T06:56:11.000Z</time>
</trkpt>
<trkpt lat="45.9575010" lon="10.1313180">
	<ele>1436.20</ele>
	<time>2025-08-03T06:56:12.000Z</time>
</trkpt>
<trkpt lat="45.9574970" lon="10.1313330">
	<ele>1436.40</ele>
	<time>2025-08-03T06:56:13.000Z</time>
</trkpt>
<trkpt lat="45.9574900" lon="10.1313510">
	<ele>1436.60</ele>
	<time>2025-08-03T06:56:14.000Z</time>
</trkpt>
<trkpt lat="45.9574860" lon="10.1313640">
	<ele>1436.60</ele>
	<time>2025-08-03T06:56:15.000Z</time>
</trkpt>
<trkpt lat="45.9574810" lon="10.1313840">
	<ele>1436.80</ele>
	<time>2025-08-03T06:56:16.000Z</time>
</trkpt>
<trkpt lat="45.9574720" lon="10.1314050">
	<ele>1437.00</ele>
	<time>2025-08-03T06:56:17.000Z</time>
</trkpt>
<trkpt lat="45.9574650" lon="10.1314220">
	<ele>1437.00</ele>
	<time>2025-08-03T06:56:18.000Z</time>
</trkpt>
<trkpt lat="45.9574560" lon="10.1314370">
	<ele>1437.20</ele>
	<time>2025-08-03T06:56:19.000Z</time>
</trkpt>
<trkpt lat="45.9574490" lon="10.1314550">
	<ele>1437.20</ele>
	<time>2025-08-03T06:56:20.000Z</time>
</trkpt>
<trkpt lat="45.9574450" lon="10.1314710">
	<ele>1437.40</ele>
	<time>2025-08-03T06:56:21.000Z</time>
</trkpt>
<trkpt lat="45.9574410" lon="10.1314870">
	<ele>1437.40</ele>
	<time>2025-08-03T06:56:22.000Z</time>
</trkpt>
<trkpt lat="45.9574330" lon="10.1315000">
	<ele>1437.40</ele>
	<time>2025-08-03T06:56:23.000Z</time>
</trkpt>
<trkpt lat="45.9574260" lon="10.1315140">
	<ele>1437.80</ele>
	<time>2025-08-03T06:56:24.000Z</time>
</trkpt>
<trkpt lat="45.9574230" lon="10.1315320">
	<ele>1437.80</ele>
	<time>2025-08-03T06:56:25.000Z</time>
</trkpt>
<trkpt lat="45.9574230" lon="10.1315500">
	<ele>1438.00</ele>
	<time>2025-08-03T06:56:26.000Z</time>
</trkpt>
<trkpt lat="45.9574210" lon="10.1315630">
	<ele>1438.20</ele>
	<time>2025-08-03T06:56:27.000Z</time>
</trkpt>
<trkpt lat="45.9574220" lon="10.1315790">
	<ele>1438.20</ele>
	<time>2025-08-03T06:56:28.000Z</time>
</trkpt>
<trkpt lat="45.9574220" lon="10.1315950">
	<ele>1438.40</ele>
	<time>2025-08-03T06:56:29.000Z</time>
</trkpt>
<trkpt lat="45.9574180" lon="10.1316110">
	<ele>1438.40</ele>
	<time>2025-08-03T06:56:30.000Z</time>
</trkpt>
<trkpt lat="45.9574160" lon="10.1316250">
	<ele>1438.60</ele>
	<time>2025-08-03T06:56:31.000Z</time>
</trkpt>
<trkpt lat="45.9574170" lon="10.1316400">
	<ele>1438.80</ele>
	<time>2025-08-03T06:56:32.000Z</time>
</trkpt>
<trkpt lat="45.9574180" lon="10.1316570">
	<ele>1438.80</ele>
	<time>2025-08-03T06:56:33.000Z</time>
</trkpt>
<trkpt lat="45.9574200" lon="10.1316720">
	<ele>1439.00</ele>
	<time>2025-08-03T06:56:34.000Z</time>
</trkpt>
<trkpt lat="45.9574220" lon="10.1316880">
	<ele>1439.00</ele>
	<time>2025-08-03T06:56:35.000Z</time>
</trkpt>
<trkpt lat="45.9574240" lon="10.1317040">
	<ele>1439.20</ele>
	<time>2025-08-03T06:56:36.000Z</time>
</trkpt>
<trkpt lat="45.9574230" lon="10.1317200">
	<ele>1439.40</ele>
	<time>2025-08-03T06:56:37.000Z</time>
</trkpt>
<trkpt lat="45.9574270" lon="10.1317360">
	<ele>1439.40</ele>
	<time>2025-08-03T06:56:38.000Z</time>
</trkpt>
<trkpt lat="45.9574330" lon="10.1317500">
	<ele>1439.80</ele>
	<time>2025-08-03T06:56:39.000Z</time>
</trkpt>
<trkpt lat="45.9574370" lon="10.1317660">
	<ele>1440.00</ele>
	<time>2025-08-03T06:56:40.000Z</time>
</trkpt>
<trkpt lat="45.9574400" lon="10.1317830">
	<ele>1440.40</ele>
	<time>2025-08-03T06:56:41.000Z</time>
</trkpt>
<trkpt lat="45.9574440" lon="10.1317960">
	<ele>1440.60</ele>
	<time>2025-08-03T06:56:42.000Z</time>
</trkpt>
<trkpt lat="45.9574450" lon="10.1318020">
	<ele>1440.80</ele>
	<time>2025-08-03T06:56:43.000Z</time>
</trkpt>
<trkpt lat="45.9574450" lon="10.1318120">
	<ele>1440.80</ele>
	<time>2025-08-03T06:56:44.000Z</time>
</trkpt>
<trkpt lat="45.9574460" lon="10.1318240">
	<ele>1441.00</ele>
	<time>2025-08-03T06:56:45.000Z</time>
</trkpt>
<trkpt lat="45.9574500" lon="10.1318370">
	<ele>1441.20</ele>
	<time>2025-08-03T06:56:46.000Z</time>
</trkpt>
<trkpt lat="45.9574590" lon="10.1318520">
	<ele>1441.40</ele>
	<time>2025-08-03T06:56:47.000Z</time>
</trkpt>
<trkpt lat="45.9574560" lon="10.1318650">
	<ele>1441.40</ele>
	<time>2025-08-03T06:56:48.000Z</time>
</trkpt>
<trkpt lat="45.9574610" lon="10.1318770">
	<ele>1441.60</ele>
	<time>2025-08-03T06:56:49.000Z</time>
</trkpt>
<trkpt lat="45.9574710" lon="10.1318950">
	<ele>1442.00</ele>
	<time>2025-08-03T06:56:50.000Z</time>
</trkpt>
<trkpt lat="45.9574800" lon="10.1319140">
	<ele>1442.00</ele>
	<time>2025-08-03T06:56:51.000Z</time>
</trkpt>
<trkpt lat="45.9574830" lon="10.1319220">
	<ele>1442.20</ele>
	<time>2025-08-03T06:56:52.000Z</time>
</trkpt>
<trkpt lat="45.9574830" lon="10.1319370">
	<ele>1442.40</ele>
	<time>2025-08-03T06:56:53.000Z</time>
</trkpt>
<trkpt lat="45.9574790" lon="10.1319540">
	<ele>1442.40</ele>
	<time>2025-08-03T06:56:54.000Z</time>
</trkpt>
<trkpt lat="45.9574830" lon="10.1319690">
	<ele>1442.80</ele>
	<time>2025-08-03T06:56:55.000Z</time>
</trkpt>
<trkpt lat="45.9574890" lon="10.1319880">
	<ele>1443.00</ele>
	<time>2025-08-03T06:56:56.000Z</time>
</trkpt>
<trkpt lat="45.9574880" lon="10.1320010">
	<ele>1443.00</ele>
	<time>2025-08-03T06:56:57.000Z</time>
</trkpt>
<trkpt lat="45.9574840" lon="10.1320140">
	<ele>1443.20</ele>
	<time>2025-08-03T06:56:58.000Z</time>
</trkpt>
<trkpt lat="45.9574810" lon="10.1320310">
	<ele>1443.20</ele>
	<time>2025-08-03T06:56:59.000Z</time>
</trkpt>
<trkpt lat="45.9574800" lon="10.1320440">
	<ele>1443.40</ele>
	<time>2025-08-03T06:57:00.000Z</time>
</trkpt>
<trkpt lat="45.9574780" lon="10.1320570">
	<ele>1443.40</ele>
	<time>2025-08-03T06:57:01.000Z</time>
</trkpt>
<trkpt lat="45.9574790" lon="10.1320730">
	<ele>1443.60</ele>
	<time>2025-08-03T06:57:02.000Z</time>
</trkpt>
<trkpt lat="45.9574780" lon="10.1320870">
	<ele>1443.80</ele>
	<time>2025-08-03T06:57:03.000Z</time>
</trkpt>
<trkpt lat="45.9574780" lon="10.1321000">
	<ele>1444.00</ele>
	<time>2025-08-03T06:57:04.000Z</time>
</trkpt>
<trkpt lat="45.9574750" lon="10.1321120">
	<ele>1444.00</ele>
	<time>2025-08-03T06:57:05.000Z</time>
</trkpt>
<trkpt lat="45.9574730" lon="10.1321280">
	<ele>1444.20</ele>
	<time>2025-08-03T06:57:06.000Z</time>
</trkpt>
<trkpt lat="45.9574740" lon="10.1321440">
	<ele>1444.40</ele>
	<time>2025-08-03T06:57:07.000Z</time>
</trkpt>
<trkpt lat="45.9574790" lon="10.1321590">
	<ele>1444.60</ele>
	<time>2025-08-03T06:57:08.000Z</time>
</trkpt>
<trkpt lat="45.9574820" lon="10.1321760">
	<ele>1444.80</ele>
	<time>2025-08-03T06:57:09.000Z</time>
</trkpt>
<trkpt lat="45.9574830" lon="10.1321960">
	<ele>1444.80</ele>
	<time>2025-08-03T06:57:10.000Z</time>
</trkpt>
<trkpt lat="45.9574880" lon="10.1322120">
	<ele>1445.00</ele>
	<time>2025-08-03T06:57:11.000Z</time>
</trkpt>
<trkpt lat="45.9574910" lon="10.1322270">
	<ele>1445.00</ele>
	<time>2025-08-03T06:57:12.000Z</time>
</trkpt>
<trkpt lat="45.9574940" lon="10.1322420">
	<ele>1445.20</ele>
	<time>2025-08-03T06:57:13.000Z</time>
</trkpt>
<trkpt lat="45.9574950" lon="10.1322600">
	<ele>1445.20</ele>
	<time>2025-08-03T06:57:14.000Z</time>
</trkpt>
<trkpt lat="45.9575000" lon="10.1322770">
	<ele>1445.40</ele>
	<time>2025-08-03T06:57:15.000Z</time>
</trkpt>
<trkpt lat="45.9575030" lon="10.1322900">
	<ele>1445.40</ele>
	<time>2025-08-03T06:57:16.000Z</time>
</trkpt>
<trkpt lat="45.9575080" lon="10.1323040">
	<ele>1445.60</ele>
	<time>2025-08-03T06:57:17.000Z</time>
</trkpt>
<trkpt lat="45.9575120" lon="10.1323190">
	<ele>1445.80</ele>
	<time>2025-08-03T06:57:18.000Z</time>
</trkpt>
<trkpt lat="45.9575130" lon="10.1323310">
	<ele>1445.80</ele>
	<time>2025-08-03T06:57:19.000Z</time>
</trkpt>
<trkpt lat="45.9575170" lon="10.1323450">
	<ele>1446.00</ele>
	<time>2025-08-03T06:57:20.000Z</time>
</trkpt>
<trkpt lat="45.9575260" lon="10.1323590">
	<ele>1446.20</ele>
	<time>2025-08-03T06:57:21.000Z</time>
</trkpt>
<trkpt lat="45.9575320" lon="10.1323730">
	<ele>1446.40</ele>
	<time>2025-08-03T06:57:22.000Z</time>
</trkpt>
<trkpt lat="45.9575350" lon="10.1323860">
	<ele>1446.60</ele>
	<time>2025-08-03T06:57:23.000Z</time>
</trkpt>
<trkpt lat="45.9575400" lon="10.1324030">
	<ele>1446.60</ele>
	<time>2025-08-03T06:57:24.000Z</time>
</trkpt>
<trkpt lat="45.9575460" lon="10.1324180">
	<ele>1446.80</ele>
	<time>2025-08-03T06:57:25.000Z</time>
</trkpt>
<trkpt lat="45.9575540" lon="10.1324310">
	<ele>1446.80</ele>
	<time>2025-08-03T06:57:26.000Z</time>
</trkpt>
<trkpt lat="45.9575610" lon="10.1324410">
	<ele>1447.00</ele>
	<time>2025-08-03T06:57:27.000Z</time>
</trkpt>
<trkpt lat="45.9575690" lon="10.1324530">
	<ele>1447.40</ele>
	<time>2025-08-03T06:57:28.000Z</time>
</trkpt>
<trkpt lat="45.9575760" lon="10.1324630">
	<ele>1447.40</ele>
	<time>2025-08-03T06:57:29.000Z</time>
</trkpt>
<trkpt lat="45.9575850" lon="10.1324750">
	<ele>1447.60</ele>
	<time>2025-08-03T06:57:30.000Z</time>
</trkpt>
<trkpt lat="45.9575920" lon="10.1324880">
	<ele>1447.80</ele>
	<time>2025-08-03T06:57:31.000Z</time>
</trkpt>
<trkpt lat="45.9575960" lon="10.1324990">
	<ele>1448.00</ele>
	<time>2025-08-03T06:57:32.000Z</time>
</trkpt>
<trkpt lat="45.9576000" lon="10.1325110">
	<ele>1448.20</ele>
	<time>2025-08-03T06:57:33.000Z</time>
</trkpt>
<trkpt lat="45.9576050" lon="10.1325200">
	<ele>1448.20</ele>
	<time>2025-08-03T06:57:34.000Z</time>
</trkpt>
<trkpt lat="45.9576160" lon="10.1325290">
	<ele>1448.20</ele>
	<time>2025-08-03T06:57:35.000Z</time>
</trkpt>
<trkpt lat="45.9576240" lon="10.1325390">
	<ele>1448.40</ele>
	<time>2025-08-03T06:57:36.000Z</time>
</trkpt>
<trkpt lat="45.9576360" lon="10.1325500">
	<ele>1448.80</ele>
	<time>2025-08-03T06:57:37.000Z</time>
</trkpt>
<trkpt lat="45.9576430" lon="10.1325600">
	<ele>1448.80</ele>
	<time>2025-08-03T06:57:38.000Z</time>
</trkpt>
<trkpt lat="45.9576520" lon="10.1325700">
	<ele>1449.00</ele>
	<time>2025-08-03T06:57:39.000Z</time>
</trkpt>
<trkpt lat="45.9576620" lon="10.1325780">
	<ele>1449.20</ele>
	<time>2025-08-03T06:57:40.000Z</time>
</trkpt>
<trkpt lat="45.9576710" lon="10.1325850">
	<ele>1449.40</ele>
	<time>2025-08-03T06:57:41.000Z</time>
</trkpt>
<trkpt lat="45.9576840" lon="10.1325920">
	<ele>1449.60</ele>
	<time>2025-08-03T06:57:42.000Z</time>
</trkpt>
<trkpt lat="45.9576910" lon="10.1325970">
	<ele>1449.60</ele>
	<time>2025-08-03T06:57:43.000Z</time>
</trkpt>
<trkpt lat="45.9576930" lon="10.1326060">
	<ele>1449.80</ele>
	<time>2025-08-03T06:57:44.000Z</time>
</trkpt>
<trkpt lat="45.9577020" lon="10.1326200">
	<ele>1450.00</ele>
	<time>2025-08-03T06:57:45.000Z</time>
</trkpt>
<trkpt lat="45.9577070" lon="10.1326290">
	<ele>1450.40</ele>
	<time>2025-08-03T06:57:46.000Z</time>
</trkpt>
<trkpt lat="45.9577150" lon="10.1326370">
	<ele>1450.60</ele>
	<time>2025-08-03T06:57:47.000Z</time>
</trkpt>
<trkpt lat="45.9577280" lon="10.1326450">
	<ele>1450.60</ele>
	<time>2025-08-03T06:57:48.000Z</time>
</trkpt>
<trkpt lat="45.9577400" lon="10.1326520">
	<ele>1450.80</ele>
	<time>2025-08-03T06:57:49.000Z</time>
</trkpt>
<trkpt lat="45.9577500" lon="10.1326610">
	<ele>1451.00</ele>
	<time>2025-08-03T06:57:50.000Z</time>
</trkpt>
<trkpt lat="45.9577560" lon="10.1326690">
	<ele>1451.40</ele>
	<time>2025-08-03T06:57:51.000Z</time>
</trkpt>
<trkpt lat="45.9577630" lon="10.1326740">
	<ele>1451.60</ele>
	<time>2025-08-03T06:57:52.000Z</time>
</trkpt>
<trkpt lat="45.9577700" lon="10.1326820">
	<ele>1451.80</ele>
	<time>2025-08-03T06:57:53.000Z</time>
</trkpt>
<trkpt lat="45.9577730" lon="10.1326880">
	<ele>1452.00</ele>
	<time>2025-08-03T06:57:54.000Z</time>
</trkpt>
<trkpt lat="45.9577770" lon="10.1326940">
	<ele>1452.40</ele>
	<time>2025-08-03T06:57:55.000Z</time>
</trkpt>
<trkpt lat="45.9577810" lon="10.1327010">
	<ele>1452.60</ele>
	<time>2025-08-03T06:57:56.000Z</time>
</trkpt>
<trkpt lat="45.9577880" lon="10.1327060">
	<ele>1453.00</ele>
	<time>2025-08-03T06:57:57.000Z</time>
</trkpt>
<trkpt lat="45.9577940" lon="10.1327140">
	<ele>1453.40</ele>
	<time>2025-08-03T06:57:58.000Z</time>
</trkpt>
<trkpt lat="45.9577990" lon="10.1327240">
	<ele>1453.80</ele>
	<time>2025-08-03T06:57:59.000Z</time>
</trkpt>
<trkpt lat="45.9578080" lon="10.1327360">
	<ele>1454.00</ele>
	<time>2025-08-03T06:58:00.000Z</time>
</trkpt>
<trkpt lat="45.9578140" lon="10.1327420">
	<ele>1454.20</ele>
	<time>2025-08-03T06:58:01.000Z</time>
</trkpt>
<trkpt lat="45.9578220" lon="10.1327430">
	<ele>1454.40</ele>
	<time>2025-08-03T06:58:02.000Z</time>
</trkpt>
<trkpt lat="45.9578310" lon="10.1327450">
	<ele>1454.60</ele>
	<time>2025-08-03T06:58:03.000Z</time>
</trkpt>
<trkpt lat="45.9578440" lon="10.1327470">
	<ele>1454.60</ele>
	<time>2025-08-03T06:58:04.000Z</time>
</trkpt>
<trkpt lat="45.9578550" lon="10.1327480">
	<ele>1454.60</ele>
	<time>2025-08-03T06:58:05.000Z</time>
</trkpt>
<trkpt lat="45.9578640" lon="10.1327470">
	<ele>1454.80</ele>
	<time>2025-08-03T06:58:06.000Z</time>
</trkpt>
<trkpt lat="45.9578730" lon="10.1327420">
	<ele>1454.80</ele>
	<time>2025-08-03T06:58:07.000Z</time>
</trkpt>
<trkpt lat="45.9578830" lon="10.1327370">
	<ele>1455.00</ele>
	<time>2025-08-03T06:58:08.000Z</time>
</trkpt>
<trkpt lat="45.9578930" lon="10.1327280">
	<ele>1455.20</ele>
	<time>2025-08-03T06:58:09.000Z</time>
</trkpt>
<trkpt lat="45.9579030" lon="10.1327200">
	<ele>1455.40</ele>
	<time>2025-08-03T06:58:10.000Z</time>
</trkpt>
<trkpt lat="45.9579090" lon="10.1327110">
	<ele>1455.60</ele>
	<time>2025-08-03T06:58:11.000Z</time>
</trkpt>
<trkpt lat="45.9579130" lon="10.1326980">
	<ele>1455.80</ele>
	<time>2025-08-03T06:58:12.000Z</time>
</trkpt>
<trkpt lat="45.9579160" lon="10.1326800">
	<ele>1455.80</ele>
	<time>2025-08-03T06:58:13.000Z</time>
</trkpt>
<trkpt lat="45.9579180" lon="10.1326630">
	<ele>1456.20</ele>
	<time>2025-08-03T06:58:14.000Z</time>
</trkpt>
<trkpt lat="45.9579210" lon="10.1326470">
	<ele>1456.20</ele>
	<time>2025-08-03T06:58:15.000Z</time>
</trkpt>
<trkpt lat="45.9579260" lon="10.1326340">
	<ele>1456.40</ele>
	<time>2025-08-03T06:58:16.000Z</time>
</trkpt>
<trkpt lat="45.9579290" lon="10.1326170">
	<ele>1456.60</ele>
	<time>2025-08-03T06:58:17.000Z</time>
</trkpt>
<trkpt lat="45.9579350" lon="10.1326030">
	<ele>1456.60</ele>
	<time>2025-08-03T06:58:18.000Z</time>
</trkpt>
<trkpt lat="45.9579380" lon="10.1325890">
	<ele>1456.80</ele>
	<time>2025-08-03T06:58:19.000Z</time>
</trkpt>
<trkpt lat="45.9579420" lon="10.1325770">
	<ele>1457.00</ele>
	<time>2025-08-03T06:58:20.000Z</time>
</trkpt>
<trkpt lat="45.9579450" lon="10.1325620">
	<ele>1457.20</ele>
	<time>2025-08-03T06:58:21.000Z</time>
</trkpt>
<trkpt lat="45.9579510" lon="10.1325460">
	<ele>1457.20</ele>
	<time>2025-08-03T06:58:22.000Z</time>
</trkpt>
<trkpt lat="45.9579560" lon="10.1325310">
	<ele>1457.60</ele>
	<time>2025-08-03T06:58:23.000Z</time>
</trkpt>
<trkpt lat="45.9579570" lon="10.1325190">
	<ele>1457.80</ele>
	<time>2025-08-03T06:58:24.000Z</time>
</trkpt>
<trkpt lat="45.9579630" lon="10.1325060">
	<ele>1457.80</ele>
	<time>2025-08-03T06:58:25.000Z</time>
</trkpt>
<trkpt lat="45.9579650" lon="10.1324900">
	<ele>1458.00</ele>
	<time>2025-08-03T06:58:26.000Z</time>
</trkpt>
<trkpt lat="45.9579650" lon="10.1324820">
	<ele>1458.20</ele>
	<time>2025-08-03T06:58:27.000Z</time>
</trkpt>
<trkpt lat="45.9579640" lon="10.1324760">
	<ele>1458.20</ele>
	<time>2025-08-03T06:58:28.000Z</time>
</trkpt>
<trkpt lat="45.9579660" lon="10.1324670">
	<ele>1458.20</ele>
	<time>2025-08-03T06:58:29.000Z</time>
</trkpt>
<trkpt lat="45.9579680" lon="10.1324580">
	<ele>1458.20</ele>
	<time>2025-08-03T06:58:30.000Z</time>
</trkpt>
<trkpt lat="45.9579690" lon="10.1324510">
	<ele>1458.40</ele>
	<time>2025-08-03T06:58:31.000Z</time>
</trkpt>
<trkpt lat="45.9579690" lon="10.1324490">
	<ele>1458.60</ele>
	<time>2025-08-03T06:58:32.000Z</time>
</trkpt>
<trkpt lat="45.9579690" lon="10.1324470">
	<ele>1459.00</ele>
	<time>2025-08-03T06:58:33.000Z</time>
</trkpt>
<trkpt lat="45.9579660" lon="10.1324470">
	<ele>1459.40</ele>
	<time>2025-08-03T06:58:34.000Z</time>
</trkpt>
<trkpt lat="45.9579630" lon="10.1324490">
	<ele>1459.60</ele>
	<time>2025-08-03T06:58:35.000Z</time>
</trkpt>
<trkpt lat="45.9579620" lon="10.1324500">
	<ele>1459.60</ele>
	<time>2025-08-03T06:58:36.000Z</time>
</trkpt>
<trkpt lat="45.9579600" lon="10.1324460">
	<ele>1459.60</ele>
	<time>2025-08-03T06:58:37.000Z</time>
</trkpt>
<trkpt lat="45.9579590" lon="10.1324430">
	<ele>1459.60</ele>
	<time>2025-08-03T06:58:38.000Z</time>
</trkpt>
<trkpt lat="45.9579720" lon="10.1324380">
	<ele>1459.60</ele>
	<time>2025-08-03T06:58:39.000Z</time>
</trkpt>
<trkpt lat="45.9579770" lon="10.1324270">
	<ele>1459.40</ele>
	<time>2025-08-03T06:58:40.000Z</time>
</trkpt>
<trkpt lat="45.9579890" lon="10.1324180">
	<ele>1459.20</ele>
	<time>2025-08-03T06:58:41.000Z</time>
</trkpt>
<trkpt lat="45.9579980" lon="10.1324130">
	<ele>1459.00</ele>
	<time>2025-08-03T06:58:42.000Z</time>
</trkpt>
<trkpt lat="45.9580100" lon="10.1324170">
	<ele>1459.00</ele>
	<time>2025-08-03T06:58:43.000Z</time>
</trkpt>
<trkpt lat="45.9580220" lon="10.1324220">
	<ele>1459.00</ele>
	<time>2025-08-03T06:58:44.000Z</time>
</trkpt>
<trkpt lat="45.9580270" lon="10.1324250">
	<ele>1459.20</ele>
	<time>2025-08-03T06:58:45.000Z</time>
</trkpt>
<trkpt lat="45.9580270" lon="10.1324310">
	<ele>1459.20</ele>
	<time>2025-08-03T06:58:46.000Z</time>
</trkpt>
<trkpt lat="45.9580280" lon="10.1324420">
	<ele>1459.20</ele>
	<time>2025-08-03T06:58:47.000Z</time>
</trkpt>
<trkpt lat="45.9580240" lon="10.1324610">
	<ele>1459.40</ele>
	<time>2025-08-03T06:58:48.000Z</time>
</trkpt>
<trkpt lat="45.9580200" lon="10.1324800">
	<ele>1459.80</ele>
	<time>2025-08-03T06:58:49.000Z</time>
</trkpt>
<trkpt lat="45.9580270" lon="10.1324950">
	<ele>1459.80</ele>
	<time>2025-08-03T06:58:50.000Z</time>
</trkpt>
<trkpt lat="45.9580330" lon="10.1325050">
	<ele>1460.00</ele>
	<time>2025-08-03T06:58:51.000Z</time>
</trkpt>
<trkpt lat="45.9580370" lon="10.1325140">
	<ele>1460.20</ele>
	<time>2025-08-03T06:58:52.000Z</time>
</trkpt>
<trkpt lat="45.9580410" lon="10.1325270">
	<ele>1460.20</ele>
	<time>2025-08-03T06:58:53.000Z</time>
</trkpt>
<trkpt lat="45.9580480" lon="10.1325400">
	<ele>1460.40</ele>
	<time>2025-08-03T06:58:54.000Z</time>
</trkpt>
<trkpt lat="45.9580520" lon="10.1325520">
	<ele>1460.40</ele>
	<time>2025-08-03T06:58:55.000Z</time>
</trkpt>
<trkpt lat="45.9580560" lon="10.1325650">
	<ele>1460.60</ele>
	<time>2025-08-03T06:58:56.000Z</time>
</trkpt>
<trkpt lat="45.9580630" lon="10.1325780">
	<ele>1460.80</ele>
	<time>2025-08-03T06:58:57.000Z</time>
</trkpt>
<trkpt lat="45.9580740" lon="10.1325880">
	<ele>1461.00</ele>
	<time>2025-08-03T06:58:58.000Z</time>
</trkpt>
<trkpt lat="45.9580850" lon="10.1325950">
	<ele>1461.20</ele>
	<time>2025-08-03T06:58:59.000Z</time>
</trkpt>
<trkpt lat="45.9580900" lon="10.1325970">
	<ele>1461.60</ele>
	<time>2025-08-03T06:59:00.000Z</time>
</trkpt>
<trkpt lat="45.9580920" lon="10.1325980">
	<ele>1461.60</ele>
	<time>2025-08-03T06:59:01.000Z</time>
</trkpt>
<trkpt lat="45.9580910" lon="10.1326000">
	<ele>1461.80</ele>
	<time>2025-08-03T06:59:02.000Z</time>
</trkpt>
<trkpt lat="45.9580840" lon="10.1326080">
	<ele>1461.80</ele>
	<time>2025-08-03T06:59:03.000Z</time>
</trkpt>
<trkpt lat="45.9580820" lon="10.1326110">
	<ele>1461.80</ele>
	<time>2025-08-03T06:59:04.000Z</time>
</trkpt>
<trkpt lat="45.9580810" lon="10.1326130">
	<ele>1461.80</ele>
	<time>2025-08-03T06:59:05.000Z</time>
</trkpt>
<trkpt lat="45.9580810" lon="10.1326140">
	<ele>1461.60</ele>
	<time>2025-08-03T06:59:06.000Z</time>
</trkpt>
<trkpt lat="45.9580800" lon="10.1326140">
	<ele>1461.60</ele>
	<time>2025-08-03T06:59:07.000Z</time>
</trkpt>
<trkpt lat="45.9580810" lon="10.1326120">
	<ele>1461.60</ele>
	<time>2025-08-03T06:59:08.000Z</time>
</trkpt>
<trkpt lat="45.9580790" lon="10.1326100">
	<ele>1461.60</ele>
	<time>2025-08-03T06:59:09.000Z</time>
</trkpt>
<trkpt lat="45.9580800" lon="10.1326100">
	<ele>1461.60</ele>
	<time>2025-08-03T06:59:10.000Z</time>
</trkpt>
<trkpt lat="45.9580820" lon="10.1326110">
	<ele>1461.60</ele>
	<time>2025-08-03T06:59:11.000Z</time>
</trkpt>
<trkpt lat="45.9580820" lon="10.1326120">
	<ele>1461.60</ele>
	<time>2025-08-03T06:59:12.000Z</time>
</trkpt>
<trkpt lat="45.9580820" lon="10.1326120">
	<ele>1461.60</ele>
	<time>2025-08-03T06:59:13.000Z</time>
</trkpt>
<trkpt lat="45.9580820" lon="10.1326120">
	<ele>1461.60</ele>
	<time>2025-08-03T06:59:14.000Z</time>
</trkpt>
<trkpt lat="45.9580820" lon="10.1326120">
	<ele>1461.80</ele>
	<time>2025-08-03T06:59:15.000Z</time>
</trkpt>
<trkpt lat="45.9580820" lon="10.1326120">
	<ele>1461.80</ele>
	<time>2025-08-03T06:59:16.000Z</time>
</trkpt>
<trkpt lat="45.9580820" lon="10.1326120">
	<ele>1461.80</ele>
	<time>2025-08-03T06:59:17.000Z</time>
</trkpt>
<trkpt lat="45.9580820" lon="10.1326120">
	<ele>1461.80</ele>
	<time>2025-08-03T06:59:18.000Z</time>
</trkpt>
<trkpt lat="45.9580820" lon="10.1326120">
	<ele>1461.80</ele>
	<time>2025-08-03T06:59:19.000Z</time>
</trkpt>
<trkpt lat="45.9580820" lon="10.1326120">
	<ele>1461.80</ele>
	<time>2025-08-03T06:59:20.000Z</time>
</trkpt>
<trkpt lat="45.9580820" lon="10.1326120">
	<ele>1461.80</ele>
	<time>2025-08-03T06:59:21.000Z</time>
</trkpt>
<trkpt lat="45.9580820" lon="10.1326120">
	<ele>1461.80</ele>
	<time>2025-08-03T06:59:22.000Z</time>
</trkpt>
<trkpt lat="45.9580810" lon="10.1326120">
	<ele>1461.80</ele>
	<time>2025-08-03T06:59:23.000Z</time>
</trkpt>
<trkpt lat="45.9580810" lon="10.1326120">
	<ele>1461.60</ele>
	<time>2025-08-03T06:59:24.000Z</time>
</trkpt>
<trkpt lat="45.9580810" lon="10.1326130">
	<ele>1461.60</ele>
	<time>2025-08-03T06:59:25.000Z</time>
</trkpt>
<trkpt lat="45.9580810" lon="10.1326130">
	<ele>1461.60</ele>
	<time>2025-08-03T06:59:26.000Z</time>
</trkpt>
<trkpt lat="45.9580810" lon="10.1326130">
	<ele>1461.60</ele>
	<time>2025-08-03T06:59:27.000Z</time>
</trkpt>
<trkpt lat="45.9580810" lon="10.1326130">
	<ele>1461.60</ele>
	<time>2025-08-03T06:59:28.000Z</time>
</trkpt>
<trkpt lat="45.9580810" lon="10.1326140">
	<ele>1461.60</ele>
	<time>2025-08-03T06:59:29.000Z</time>
</trkpt>
<trkpt lat="45.9580810" lon="10.1326140">
	<ele>1461.60</ele>
	<time>2025-08-03T06:59:30.000Z</time>
</trkpt>
<trkpt lat="45.9580810" lon="10.1326140">
	<ele>1461.80</ele>
	<time>2025-08-03T06:59:31.000Z</time>
</trkpt>
<trkpt lat="45.9580810" lon="10.1326140">
	<ele>1461.80</ele>
	<time>2025-08-03T06:59:32.000Z</time>
</trkpt>
<trkpt lat="45.9580810" lon="10.1326140">
	<ele>1461.80</ele>
	<time>2025-08-03T06:59:33.000Z</time>
</trkpt>
<trkpt lat="45.9580810" lon="10.1326140">
	<ele>1461.80</ele>
	<time>2025-08-03T06:59:34.000Z</time>
</trkpt>
<trkpt lat="45.9580810" lon="10.1326140">
	<ele>1461.80</ele>
	<time>2025-08-03T06:59:35.000Z</time>
</trkpt>
<trkpt lat="45.9580810" lon="10.1326130">
	<ele>1461.80</ele>
	<time>2025-08-03T06:59:36.000Z</time>
</trkpt>
<trkpt lat="45.9580810" lon="10.1326130">
	<ele>1461.80</ele>
	<time>2025-08-03T06:59:37.000Z</time>
</trkpt>
<trkpt lat="45.9580810" lon="10.1326130">
	<ele>1461.80</ele>
	<time>2025-08-03T06:59:38.000Z</time>
</trkpt>
<trkpt lat="45.9580820" lon="10.1326130">
	<ele>1461.60</ele>
	<time>2025-08-03T06:59:39.000Z</time>
</trkpt>
<trkpt lat="45.9580820" lon="10.1326130">
	<ele>1461.60</ele>
	<time>2025-08-03T06:59:40.000Z</time>
</trkpt>
<trkpt lat="45.9580820" lon="10.1326130">
	<ele>1461.60</ele>
	<time>2025-08-03T06:59:41.000Z</time>
</trkpt>
<trkpt lat="45.9580840" lon="10.1326130">
	<ele>1461.60</ele>
	<time>2025-08-03T06:59:42.000Z</time>
</trkpt>
<trkpt lat="45.9580840" lon="10.1326130">
	<ele>1461.40</ele>
	<time>2025-08-03T06:59:43.000Z</time>
</trkpt>
<trkpt lat="45.9580840" lon="10.1326120">
	<ele>1461.40</ele>
	<time>2025-08-03T06:59:44.000Z</time>
</trkpt>
<trkpt lat="45.9580840" lon="10.1326110">
	<ele>1461.20</ele>
	<time>2025-08-03T06:59:45.000Z</time>
</trkpt>
<trkpt lat="45.9580840" lon="10.1326110">
	<ele>1461.00</ele>
	<time>2025-08-03T06:59:46.000Z</time>
</trkpt>
<trkpt lat="45.9580840" lon="10.1326110">
	<ele>1461.00</ele>
	<time>2025-08-03T06:59:47.000Z</time>
</trkpt>
<trkpt lat="45.9580840" lon="10.1326110">
	<ele>1461.00</ele>
	<time>2025-08-03T06:59:48.000Z</time>
</trkpt>
<trkpt lat="45.9580840" lon="10.1326110">
	<ele>1461.20</ele>
	<time>2025-08-03T06:59:49.000Z</time>
</trkpt>
<trkpt lat="45.9580840" lon="10.1326100">
	<ele>1461.40</ele>
	<time>2025-08-03T06:59:50.000Z</time>
</trkpt>
<trkpt lat="45.9580840" lon="10.1326100">
	<ele>1461.40</ele>
	<time>2025-08-03T06:59:51.000Z</time>
</trkpt>
<trkpt lat="45.9580840" lon="10.1326090">
	<ele>1461.40</ele>
	<time>2025-08-03T06:59:52.000Z</time>
</trkpt>
<trkpt lat="45.9580840" lon="10.1326090">
	<ele>1461.60</ele>
	<time>2025-08-03T06:59:53.000Z</time>
</trkpt>
<trkpt lat="45.9580840" lon="10.1326080">
	<ele>1461.60</ele>
	<time>2025-08-03T06:59:54.000Z</time>
</trkpt>
<trkpt lat="45.9580840" lon="10.1326080">
	<ele>1461.40</ele>
	<time>2025-08-03T06:59:55.000Z</time>
</trkpt>
<trkpt lat="45.9580840" lon="10.1326070">
	<ele>1461.40</ele>
	<time>2025-08-03T06:59:56.000Z</time>
</trkpt>
<trkpt lat="45.9580840" lon="10.1326060">
	<ele>1461.20</ele>
	<time>2025-08-03T06:59:57.000Z</time>
</trkpt>
<trkpt lat="45.9580830" lon="10.1326050">
	<ele>1461.20</ele>
	<time>2025-08-03T06:59:58.000Z</time>
</trkpt>
<trkpt lat="45.9580830" lon="10.1326040">
	<ele>1461.20</ele>
	<time>2025-08-03T06:59:59.000Z</time>
</trkpt>
<trkpt lat="45.9580830" lon="10.1326040">
	<ele>1461.20</ele>
	<time>2025-08-03T07:00:00.000Z</time>
</trkpt>
<trkpt lat="45.9580820" lon="10.1326030">
	<ele>1461.20</ele>
	<time>2025-08-03T07:00:01.000Z</time>
</trkpt>
<trkpt lat="45.9580820" lon="10.1326030">
	<ele>1461.20</ele>
	<time>2025-08-03T07:00:02.000Z</time>
</trkpt>
<trkpt lat="45.9580810" lon="10.1326020">
	<ele>1461.40</ele>
	<time>2025-08-03T07:00:03.000Z</time>
</trkpt>
<trkpt lat="45.9580810" lon="10.1326020">
	<ele>1461.40</ele>
	<time>2025-08-03T07:00:04.000Z</time>
</trkpt>
<trkpt lat="45.9580800" lon="10.1326020">
	<ele>1461.60</ele>
	<time>2025-08-03T07:00:05.000Z</time>
</trkpt>
<trkpt lat="45.9580790" lon="10.1326020">
	<ele>1461.60</ele>
	<time>2025-08-03T07:00:06.000Z</time>
</trkpt>
<trkpt lat="45.9580780" lon="10.1326010">
	<ele>1461.80</ele>
	<time>2025-08-03T07:00:07.000Z</time>
</trkpt>
<trkpt lat="45.9580770" lon="10.1325990">
	<ele>1461.80</ele>
	<time>2025-08-03T07:00:08.000Z</time>
</trkpt>
<trkpt lat="45.9580760" lon="10.1325980">
	<ele>1461.80</ele>
	<time>2025-08-03T07:00:09.000Z</time>
</trkpt>
<trkpt lat="45.9580760" lon="10.1325980">
	<ele>1461.60</ele>
	<time>2025-08-03T07:00:10.000Z</time>
</trkpt>
<trkpt lat="45.9580750" lon="10.1325980">
	<ele>1461.60</ele>
	<time>2025-08-03T07:00:11.000Z</time>
</trkpt>
<trkpt lat="45.9580740" lon="10.1325980">
	<ele>1461.60</ele>
	<time>2025-08-03T07:00:12.000Z</time>
</trkpt>
<trkpt lat="45.9580720" lon="10.1325980">
	<ele>1461.60</ele>
	<time>2025-08-03T07:00:13.000Z</time>
</trkpt>
<trkpt lat="45.9580720" lon="10.1325980">
	<ele>1461.60</ele>
	<time>2025-08-03T07:00:14.000Z</time>
</trkpt>
<trkpt lat="45.9580720" lon="10.1325980">
	<ele>1461.60</ele>
	<time>2025-08-03T07:00:15.000Z</time>
</trkpt>
<trkpt lat="45.9580720" lon="10.1325980">
	<ele>1461.60</ele>
	<time>2025-08-03T07:00:16.000Z</time>
</trkpt>
<trkpt lat="45.9580720" lon="10.1325980">
	<ele>1461.80</ele>
	<time>2025-08-03T07:00:17.000Z</time>
</trkpt>
<trkpt lat="45.9580720" lon="10.1325980">
	<ele>1461.80</ele>
	<time>2025-08-03T07:00:18.000Z</time>
</trkpt>
<trkpt lat="45.9580720" lon="10.1325980">
	<ele>1462.00</ele>
	<time>2025-08-03T07:00:19.000Z</time>
</trkpt>
<trkpt lat="45.9580720" lon="10.1325980">
	<ele>1462.00</ele>
	<time>2025-08-03T07:00:20.000Z</time>
</trkpt>
<trkpt lat="45.9580720" lon="10.1325980">
	<ele>1462.00</ele>
	<time>2025-08-03T07:00:21.000Z</time>
</trkpt>
<trkpt lat="45.9580720" lon="10.1325980">
	<ele>1462.20</ele>
	<time>2025-08-03T07:00:22.000Z</time>
</trkpt>
<trkpt lat="45.9580720" lon="10.1325980">
	<ele>1462.40</ele>
	<time>2025-08-03T07:00:23.000Z</time>
</trkpt>
<trkpt lat="45.9580720" lon="10.1325980">
	<ele>1462.40</ele>
	<time>2025-08-03T07:00:24.000Z</time>
</trkpt>
<trkpt lat="45.9580720" lon="10.1325990">
	<ele>1462.60</ele>
	<time>2025-08-03T07:00:25.000Z</time>
</trkpt>
<trkpt lat="45.9580720" lon="10.1326000">
	<ele>1462.60</ele>
	<time>2025-08-03T07:00:26.000Z</time>
</trkpt>
<trkpt lat="45.9580720" lon="10.1326010">
	<ele>1462.60</ele>
	<time>2025-08-03T07:00:27.000Z</time>
</trkpt>
<trkpt lat="45.9580720" lon="10.1326020">
	<ele>1462.40</ele>
	<time>2025-08-03T07:00:28.000Z</time>
</trkpt>
<trkpt lat="45.9580720" lon="10.1326030">
	<ele>1462.40</ele>
	<time>2025-08-03T07:00:29.000Z</time>
</trkpt>
<trkpt lat="45.9580730" lon="10.1326030">
	<ele>1462.40</ele>
	<time>2025-08-03T07:00:30.000Z</time>
</trkpt>
<trkpt lat="45.9580740" lon="10.1326030">
	<ele>1462.40</ele>
	<time>2025-08-03T07:00:31.000Z</time>
</trkpt>
<trkpt lat="45.9580760" lon="10.1326030">
	<ele>1462.40</ele>
	<time>2025-08-03T07:00:32.000Z</time>
</trkpt>
<trkpt lat="45.9580770" lon="10.1326030">
	<ele>1462.60</ele>
	<time>2025-08-03T07:00:33.000Z</time>
</trkpt>
<trkpt lat="45.9580780" lon="10.1326040">
	<ele>1462.60</ele>
	<time>2025-08-03T07:00:34.000Z</time>
</trkpt>
<trkpt lat="45.9580780" lon="10.1326040">
	<ele>1462.40</ele>
	<time>2025-08-03T07:00:35.000Z</time>
</trkpt>
<trkpt lat="45.9580790" lon="10.1326040">
	<ele>1462.40</ele>
	<time>2025-08-03T07:00:36.000Z</time>
</trkpt>
<trkpt lat="45.9580790" lon="10.1326050">
	<ele>1462.40</ele>
	<time>2025-08-03T07:00:37.000Z</time>
</trkpt>
<trkpt lat="45.9580790" lon="10.1326050">
	<ele>1462.40</ele>
	<time>2025-08-03T07:00:38.000Z</time>
</trkpt>
<trkpt lat="45.9580800" lon="10.1326060">
	<ele>1462.40</ele>
	<time>2025-08-03T07:00:39.000Z</time>
</trkpt>
<trkpt lat="45.9580830" lon="10.1326060">
	<ele>1462.40</ele>
	<time>2025-08-03T07:00:40.000Z</time>
</trkpt>
<trkpt lat="45.9580870" lon="10.1326070">
	<ele>1462.40</ele>
	<time>2025-08-03T07:00:41.000Z</time>
</trkpt>
<trkpt lat="45.9580900" lon="10.1326080">
	<ele>1462.40</ele>
	<time>2025-08-03T07:00:42.000Z</time>
</trkpt>
<trkpt lat="45.9580910" lon="10.1326090">
	<ele>1462.40</ele>
	<time>2025-08-03T07:00:43.000Z</time>
</trkpt>
<trkpt lat="45.9580910" lon="10.1326100">
	<ele>1462.40</ele>
	<time>2025-08-03T07:00:44.000Z</time>
</trkpt>
<trkpt lat="45.9580920" lon="10.1326110">
	<ele>1462.40</ele>
	<time>2025-08-03T07:00:45.000Z</time>
</trkpt>
<trkpt lat="45.9580920" lon="10.1326120">
	<ele>1462.40</ele>
	<time>2025-08-03T07:00:46.000Z</time>
</trkpt>
<trkpt lat="45.9580920" lon="10.1326130">
	<ele>1462.40</ele>
	<time>2025-08-03T07:00:47.000Z</time>
</trkpt>
<trkpt lat="45.9580920" lon="10.1326130">
	<ele>1462.40</ele>
	<time>2025-08-03T07:00:48.000Z</time>
</trkpt>
<trkpt lat="45.9580920" lon="10.1326140">
	<ele>1462.40</ele>
	<time>2025-08-03T07:00:49.000Z</time>
</trkpt>
<trkpt lat="45.9580920" lon="10.1326140">
	<ele>1462.60</ele>
	<time>2025-08-03T07:00:50.000Z</time>
</trkpt>
<trkpt lat="45.9580920" lon="10.1326140">
	<ele>1462.60</ele>
	<time>2025-08-03T07:00:51.000Z</time>
</trkpt>
<trkpt lat="45.9580920" lon="10.1326140">
	<ele>1462.60</ele>
	<time>2025-08-03T07:00:52.000Z</time>
</trkpt>
<trkpt lat="45.9580920" lon="10.1326140">
	<ele>1462.60</ele>
	<time>2025-08-03T07:00:53.000Z</time>
</trkpt>
<trkpt lat="45.9580920" lon="10.1326140">
	<ele>1462.60</ele>
	<time>2025-08-03T07:00:54.000Z</time>
</trkpt>
<trkpt lat="45.9580920" lon="10.1326140">
	<ele>1462.40</ele>
	<time>2025-08-03T07:00:55.000Z</time>
</trkpt>
<trkpt lat="45.9580920" lon="10.1326140">
	<ele>1462.40</ele>
	<time>2025-08-03T07:00:56.000Z</time>
</trkpt>
<trkpt lat="45.9580920" lon="10.1326140">
	<ele>1462.20</ele>
	<time>2025-08-03T07:00:57.000Z</time>
</trkpt>
<trkpt lat="45.9580910" lon="10.1326140">
	<ele>1462.20</ele>
	<time>2025-08-03T07:00:58.000Z</time>
</trkpt>
<trkpt lat="45.9580890" lon="10.1326140">
	<ele>1462.20</ele>
	<time>2025-08-03T07:00:59.000Z</time>
</trkpt>
<trkpt lat="45.9580870" lon="10.1326140">
	<ele>1462.20</ele>
	<time>2025-08-03T07:01:00.000Z</time>
</trkpt>
<trkpt lat="45.9580850" lon="10.1326140">
	<ele>1462.20</ele>
	<time>2025-08-03T07:01:01.000Z</time>
</trkpt>
<trkpt lat="45.9580830" lon="10.1326140">
	<ele>1462.20</ele>
	<time>2025-08-03T07:01:02.000Z</time>
</trkpt>
<trkpt lat="45.9580800" lon="10.1326120">
	<ele>1462.20</ele>
	<time>2025-08-03T07:01:03.000Z</time>
</trkpt>
<trkpt lat="45.9580770" lon="10.1326100">
	<ele>1462.20</ele>
	<time>2025-08-03T07:01:04.000Z</time>
</trkpt>
<trkpt lat="45.9580730" lon="10.1326080">
	<ele>1462.20</ele>
	<time>2025-08-03T07:01:05.000Z</time>
</trkpt>
<trkpt lat="45.9580670" lon="10.1326060">
	<ele>1462.20</ele>
	<time>2025-08-03T07:01:06.000Z</time>
</trkpt>
<trkpt lat="45.9580620" lon="10.1326010">
	<ele>1462.20</ele>
	<time>2025-08-03T07:01:07.000Z</time>
</trkpt>
<trkpt lat="45.9580570" lon="10.1325970">
	<ele>1462.20</ele>
	<time>2025-08-03T07:01:08.000Z</time>
</trkpt>
<trkpt lat="45.9580520" lon="10.1325950">
	<ele>1462.20</ele>
	<time>2025-08-03T07:01:09.000Z</time>
</trkpt>
<trkpt lat="45.9580480" lon="10.1325930">
	<ele>1462.20</ele>
	<time>2025-08-03T07:01:10.000Z</time>
</trkpt>
<trkpt lat="45.9580440" lon="10.1325910">
	<ele>1462.20</ele>
	<time>2025-08-03T07:01:11.000Z</time>
</trkpt>
<trkpt lat="45.9580400" lon="10.1325890">
	<ele>1462.20</ele>
	<time>2025-08-03T07:01:12.000Z</time>
</trkpt>
<trkpt lat="45.9580370" lon="10.1325880">
	<ele>1462.20</ele>
	<time>2025-08-03T07:01:13.000Z</time>
</trkpt>
<trkpt lat="45.9580360" lon="10.1325870">
	<ele>1462.20</ele>
	<time>2025-08-03T07:01:14.000Z</time>
</trkpt>
<trkpt lat="45.9580340" lon="10.1325860">
	<ele>1462.00</ele>
	<time>2025-08-03T07:01:15.000Z</time>
</trkpt>
<trkpt lat="45.9580330" lon="10.1325840">
	<ele>1462.00</ele>
	<time>2025-08-03T07:01:16.000Z</time>
</trkpt>
<trkpt lat="45.9580320" lon="10.1325810">
	<ele>1462.20</ele>
	<time>2025-08-03T07:01:17.000Z</time>
</trkpt>
<trkpt lat="45.9580310" lon="10.1325800">
	<ele>1462.40</ele>
	<time>2025-08-03T07:01:18.000Z</time>
</trkpt>
<trkpt lat="45.9580300" lon="10.1325790">
	<ele>1462.60</ele>
	<time>2025-08-03T07:01:19.000Z</time>
</trkpt>
<trkpt lat="45.9580300" lon="10.1325780">
	<ele>1462.40</ele>
	<time>2025-08-03T07:01:20.000Z</time>
</trkpt>
<trkpt lat="45.9580300" lon="10.1325780">
	<ele>1462.40</ele>
	<time>2025-08-03T07:01:21.000Z</time>
</trkpt>
<trkpt lat="45.9580300" lon="10.1325780">
	<ele>1462.40</ele>
	<time>2025-08-03T07:01:22.000Z</time>
</trkpt>
<trkpt lat="45.9580340" lon="10.1325790">
	<ele>1462.40</ele>
	<time>2025-08-03T07:01:23.000Z</time>
</trkpt>
<trkpt lat="45.9580460" lon="10.1325820">
	<ele>1462.40</ele>
	<time>2025-08-03T07:01:24.000Z</time>
</trkpt>
<trkpt lat="45.9580600" lon="10.1325900">
	<ele>1462.40</ele>
	<time>2025-08-03T07:01:25.000Z</time>
</trkpt>
<trkpt lat="45.9580720" lon="10.1325970">
	<ele>1462.40</ele>
	<time>2025-08-03T07:01:26.000Z</time>
</trkpt>
<trkpt lat="45.9580850" lon="10.1326030">
	<ele>1462.40</ele>
	<time>2025-08-03T07:01:27.000Z</time>
</trkpt>
<trkpt lat="45.9580940" lon="10.1326030">
	<ele>1462.40</ele>
	<time>2025-08-03T07:01:28.000Z</time>
</trkpt>
<trkpt lat="45.9581070" lon="10.1326050">
	<ele>1462.40</ele>
	<time>2025-08-03T07:01:29.000Z</time>
</trkpt>
<trkpt lat="45.9581170" lon="10.1326080">
	<ele>1462.40</ele>
	<time>2025-08-03T07:01:30.000Z</time>
</trkpt>
<trkpt lat="45.9581270" lon="10.1326100">
	<ele>1462.40</ele>
	<time>2025-08-03T07:01:31.000Z</time>
</trkpt>
<trkpt lat="45.9581380" lon="10.1326150">
	<ele>1462.40</ele>
	<time>2025-08-03T07:01:32.000Z</time>
</trkpt>
<trkpt lat="45.9581470" lon="10.1326150">
	<ele>1462.40</ele>
	<time>2025-08-03T07:01:33.000Z</time>
</trkpt>
<trkpt lat="45.9581550" lon="10.1326160">
	<ele>1462.40</ele>
	<time>2025-08-03T07:01:34.000Z</time>
</trkpt>
<trkpt lat="45.9581660" lon="10.1326200">
	<ele>1462.40</ele>
	<time>2025-08-03T07:01:35.000Z</time>
</trkpt>
<trkpt lat="45.9581770" lon="10.1326230">
	<ele>1462.40</ele>
	<time>2025-08-03T07:01:36.000Z</time>
</trkpt>
<trkpt lat="45.9581840" lon="10.1326240">
	<ele>1462.40</ele>
	<time>2025-08-03T07:01:37.000Z</time>
</trkpt>
<trkpt lat="45.9581970" lon="10.1326200">
	<ele>1462.40</ele>
	<time>2025-08-03T07:01:38.000Z</time>
</trkpt>
<trkpt lat="45.9582090" lon="10.1326220">
	<ele>1462.40</ele>
	<time>2025-08-03T07:01:39.000Z</time>
</trkpt>
<trkpt lat="45.9582190" lon="10.1326230">
	<ele>1462.40</ele>
	<time>2025-08-03T07:01:40.000Z</time>
</trkpt>
<trkpt lat="45.9582300" lon="10.1326250">
	<ele>1462.40</ele>
	<time>2025-08-03T07:01:41.000Z</time>
</trkpt>
<trkpt lat="45.9582350" lon="10.1326250">
	<ele>1462.40</ele>
	<time>2025-08-03T07:01:42.000Z</time>
</trkpt>
<trkpt lat="45.9582410" lon="10.1326290">
	<ele>1462.40</ele>
	<time>2025-08-03T07:01:43.000Z</time>
</trkpt>
<trkpt lat="45.9582410" lon="10.1326320">
	<ele>1462.40</ele>
	<time>2025-08-03T07:01:44.000Z</time>
</trkpt>
<trkpt lat="45.9582410" lon="10.1326410">
	<ele>1462.40</ele>
	<time>2025-08-03T07:01:45.000Z</time>
</trkpt>
<trkpt lat="45.9582450" lon="10.1326510">
	<ele>1462.40</ele>
	<time>2025-08-03T07:01:46.000Z</time>
</trkpt>
<trkpt lat="45.9582450" lon="10.1326600">
	<ele>1462.40</ele>
	<time>2025-08-03T07:01:47.000Z</time>
</trkpt>
<trkpt lat="45.9582460" lon="10.1326650">
	<ele>1464.20</ele>
	<time>2025-08-03T07:01:48.000Z</time>
</trkpt>
<trkpt lat="45.9582440" lon="10.1326760">
	<ele>1465.20</ele>
	<time>2025-08-03T07:01:49.000Z</time>
</trkpt>
<trkpt lat="45.9582450" lon="10.1326800">
	<ele>1465.60</ele>
	<time>2025-08-03T07:01:50.000Z</time>
</trkpt>
<trkpt lat="45.9582470" lon="10.1326840">
	<ele>1466.00</ele>
	<time>2025-08-03T07:01:51.000Z</time>
</trkpt>
<trkpt lat="45.9582480" lon="10.1326890">
	<ele>1466.40</ele>
	<time>2025-08-03T07:01:52.000Z</time>
</trkpt>
<trkpt lat="45.9582510" lon="10.1326940">
	<ele>1466.40</ele>
	<time>2025-08-03T07:01:53.000Z</time>
</trkpt>
<trkpt lat="45.9582630" lon="10.1327070">
	<ele>1466.80</ele>
	<time>2025-08-03T07:01:54.000Z</time>
</trkpt>
<trkpt lat="45.9582680" lon="10.1327200">
	<ele>1467.00</ele>
	<time>2025-08-03T07:01:55.000Z</time>
</trkpt>
<trkpt lat="45.9582740" lon="10.1327310">
	<ele>1467.20</ele>
	<time>2025-08-03T07:01:56.000Z</time>
</trkpt>
<trkpt lat="45.9582780" lon="10.1327340">
	<ele>1467.40</ele>
	<time>2025-08-03T07:01:57.000Z</time>
</trkpt>
<trkpt lat="45.9582800" lon="10.1327370">
	<ele>1467.60</ele>
	<time>2025-08-03T07:01:58.000Z</time>
</trkpt>
<trkpt lat="45.9582810" lon="10.1327420">
	<ele>1467.80</ele>
	<time>2025-08-03T07:01:59.000Z</time>
</trkpt>
<trkpt lat="45.9582760" lon="10.1327440">
	<ele>1468.20</ele>
	<time>2025-08-03T07:02:00.000Z</time>
</trkpt>
<trkpt lat="45.9582710" lon="10.1327550">
	<ele>1468.40</ele>
	<time>2025-08-03T07:02:01.000Z</time>
</trkpt>
<trkpt lat="45.9582810" lon="10.1327680">
	<ele>1468.40</ele>
	<time>2025-08-03T07:02:02.000Z</time>
</trkpt>
<trkpt lat="45.9582900" lon="10.1327790">
	<ele>1468.40</ele>
	<time>2025-08-03T07:02:03.000Z</time>
</trkpt>
<trkpt lat="45.9583000" lon="10.1327890">
	<ele>1468.60</ele>
	<time>2025-08-03T07:02:04.000Z</time>
</trkpt>
<trkpt lat="45.9583070" lon="10.1327980">
	<ele>1468.80</ele>
	<time>2025-08-03T07:02:05.000Z</time>
</trkpt>
<trkpt lat="45.9583150" lon="10.1328030">
	<ele>1468.80</ele>
	<time>2025-08-03T07:02:06.000Z</time>
</trkpt>
<trkpt lat="45.9583130" lon="10.1328030">
	<ele>1468.80</ele>
	<time>2025-08-03T07:02:07.000Z</time>
</trkpt>
<trkpt lat="45.9583140" lon="10.1328070">
	<ele>1468.80</ele>
	<time>2025-08-03T07:02:08.000Z</time>
</trkpt>
<trkpt lat="45.9583200" lon="10.1328130">
	<ele>1469.00</ele>
	<time>2025-08-03T07:02:09.000Z</time>
</trkpt>
<trkpt lat="45.9583250" lon="10.1328180">
	<ele>1469.20</ele>
	<time>2025-08-03T07:02:10.000Z</time>
</trkpt>
<trkpt lat="45.9583370" lon="10.1328210">
	<ele>1469.40</ele>
	<time>2025-08-03T07:02:11.000Z</time>
</trkpt>
<trkpt lat="45.9583390" lon="10.1328300">
	<ele>1469.60</ele>
	<time>2025-08-03T07:02:12.000Z</time>
</trkpt>
<trkpt lat="45.9583460" lon="10.1328450">
	<ele>1469.80</ele>
	<time>2025-08-03T07:02:13.000Z</time>
</trkpt>
<trkpt lat="45.9583590" lon="10.1328500">
	<ele>1470.00</ele>
	<time>2025-08-03T07:02:14.000Z</time>
</trkpt>
<trkpt lat="45.9583620" lon="10.1328560">
	<ele>1470.20</ele>
	<time>2025-08-03T07:02:15.000Z</time>
</trkpt>
<trkpt lat="45.9583660" lon="10.1328600">
	<ele>1470.40</ele>
	<time>2025-08-03T07:02:16.000Z</time>
</trkpt>
<trkpt lat="45.9583700" lon="10.1328650">
	<ele>1470.80</ele>
	<time>2025-08-03T07:02:17.000Z</time>
</trkpt>
<trkpt lat="45.9583730" lon="10.1328640">
	<ele>1471.00</ele>
	<time>2025-08-03T07:02:18.000Z</time>
</trkpt>
<trkpt lat="45.9583800" lon="10.1328640">
	<ele>1471.20</ele>
	<time>2025-08-03T07:02:19.000Z</time>
</trkpt>
<trkpt lat="45.9583840" lon="10.1328640">
	<ele>1471.60</ele>
	<time>2025-08-03T07:02:20.000Z</time>
</trkpt>
<trkpt lat="45.9583890" lon="10.1328680">
	<ele>1471.80</ele>
	<time>2025-08-03T07:02:21.000Z</time>
</trkpt>
<trkpt lat="45.9583960" lon="10.1328710">
	<ele>1472.00</ele>
	<time>2025-08-03T07:02:22.000Z</time>
</trkpt>
<trkpt lat="45.9584020" lon="10.1328760">
	<ele>1472.00</ele>
	<time>2025-08-03T07:02:23.000Z</time>
</trkpt>
<trkpt lat="45.9584060" lon="10.1328820">
	<ele>1472.40</ele>
	<time>2025-08-03T07:02:24.000Z</time>
</trkpt>
<trkpt lat="45.9584060" lon="10.1328860">
	<ele>1472.40</ele>
	<time>2025-08-03T07:02:25.000Z</time>
</trkpt>
<trkpt lat="45.9584100" lon="10.1328890">
	<ele>1472.80</ele>
	<time>2025-08-03T07:02:26.000Z</time>
</trkpt>
<trkpt lat="45.9584110" lon="10.1328930">
	<ele>1472.80</ele>
	<time>2025-08-03T07:02:27.000Z</time>
</trkpt>
<trkpt lat="45.9584160" lon="10.1328960">
	<ele>1473.00</ele>
	<time>2025-08-03T07:02:28.000Z</time>
</trkpt>
<trkpt lat="45.9584250" lon="10.1329020">
	<ele>1473.40</ele>
	<time>2025-08-03T07:02:29.000Z</time>
</trkpt>
<trkpt lat="45.9584290" lon="10.1329070">
	<ele>1473.60</ele>
	<time>2025-08-03T07:02:30.000Z</time>
</trkpt>
<trkpt lat="45.9584370" lon="10.1329120">
	<ele>1473.80</ele>
	<time>2025-08-03T07:02:31.000Z</time>
</trkpt>
<trkpt lat="45.9584470" lon="10.1329110">
	<ele>1474.00</ele>
	<time>2025-08-03T07:02:32.000Z</time>
</trkpt>
<trkpt lat="45.9584560" lon="10.1329090">
	<ele>1474.20</ele>
	<time>2025-08-03T07:02:33.000Z</time>
</trkpt>
<trkpt lat="45.9584650" lon="10.1329090">
	<ele>1474.20</ele>
	<time>2025-08-03T07:02:34.000Z</time>
</trkpt>
<trkpt lat="45.9584710" lon="10.1329150">
	<ele>1474.40</ele>
	<time>2025-08-03T07:02:35.000Z</time>
</trkpt>
<trkpt lat="45.9584780" lon="10.1329180">
	<ele>1474.60</ele>
	<time>2025-08-03T07:02:36.000Z</time>
</trkpt>
<trkpt lat="45.9584860" lon="10.1329210">
	<ele>1474.80</ele>
	<time>2025-08-03T07:02:37.000Z</time>
</trkpt>
<trkpt lat="45.9584920" lon="10.1329250">
	<ele>1475.00</ele>
	<time>2025-08-03T07:02:38.000Z</time>
</trkpt>
<trkpt lat="45.9584980" lon="10.1329300">
	<ele>1475.00</ele>
	<time>2025-08-03T07:02:39.000Z</time>
</trkpt>
<trkpt lat="45.9585000" lon="10.1329420">
	<ele>1475.20</ele>
	<time>2025-08-03T07:02:40.000Z</time>
</trkpt>
<trkpt lat="45.9585040" lon="10.1329500">
	<ele>1475.40</ele>
	<time>2025-08-03T07:02:41.000Z</time>
</trkpt>
<trkpt lat="45.9585080" lon="10.1329550">
	<ele>1475.60</ele>
	<time>2025-08-03T07:02:42.000Z</time>
</trkpt>
<trkpt lat="45.9585120" lon="10.1329580">
	<ele>1475.80</ele>
	<time>2025-08-03T07:02:43.000Z</time>
</trkpt>
<trkpt lat="45.9585150" lon="10.1329640">
	<ele>1476.00</ele>
	<time>2025-08-03T07:02:44.000Z</time>
</trkpt>
<trkpt lat="45.9585190" lon="10.1329660">
	<ele>1476.20</ele>
	<time>2025-08-03T07:02:45.000Z</time>
</trkpt>
<trkpt lat="45.9585210" lon="10.1329760">
	<ele>1476.40</ele>
	<time>2025-08-03T07:02:46.000Z</time>
</trkpt>
<trkpt lat="45.9585240" lon="10.1329820">
	<ele>1476.60</ele>
	<time>2025-08-03T07:02:47.000Z</time>
</trkpt>
<trkpt lat="45.9585270" lon="10.1329860">
	<ele>1476.80</ele>
	<time>2025-08-03T07:02:48.000Z</time>
</trkpt>
<trkpt lat="45.9585290" lon="10.1329900">
	<ele>1477.20</ele>
	<time>2025-08-03T07:02:49.000Z</time>
</trkpt>
<trkpt lat="45.9585260" lon="10.1330000">
	<ele>1477.40</ele>
	<time>2025-08-03T07:02:50.000Z</time>
</trkpt>
<trkpt lat="45.9585240" lon="10.1330070">
	<ele>1477.60</ele>
	<time>2025-08-03T07:02:51.000Z</time>
</trkpt>
<trkpt lat="45.9585220" lon="10.1330160">
	<ele>1477.80</ele>
	<time>2025-08-03T07:02:52.000Z</time>
</trkpt>
<trkpt lat="45.9585260" lon="10.1330240">
	<ele>1478.20</ele>
	<time>2025-08-03T07:02:53.000Z</time>
</trkpt>
<trkpt lat="45.9585280" lon="10.1330300">
	<ele>1478.40</ele>
	<time>2025-08-03T07:02:54.000Z</time>
</trkpt>
<trkpt lat="45.9585310" lon="10.1330300">
	<ele>1478.60</ele>
	<time>2025-08-03T07:02:55.000Z</time>
</trkpt>
<trkpt lat="45.9585330" lon="10.1330260">
	<ele>1479.00</ele>
	<time>2025-08-03T07:02:56.000Z</time>
</trkpt>
<trkpt lat="45.9585390" lon="10.1330200">
	<ele>1479.00</ele>
	<time>2025-08-03T07:02:57.000Z</time>
</trkpt>
<trkpt lat="45.9585470" lon="10.1330210">
	<ele>1479.20</ele>
	<time>2025-08-03T07:02:58.000Z</time>
</trkpt>
<trkpt lat="45.9585530" lon="10.1330260">
	<ele>1479.20</ele>
	<time>2025-08-03T07:02:59.000Z</time>
</trkpt>
<trkpt lat="45.9585530" lon="10.1330320">
	<ele>1479.20</ele>
	<time>2025-08-03T07:03:00.000Z</time>
</trkpt>
<trkpt lat="45.9585530" lon="10.1330400">
	<ele>1479.40</ele>
	<time>2025-08-03T07:03:01.000Z</time>
</trkpt>
<trkpt lat="45.9585600" lon="10.1330390">
	<ele>1479.60</ele>
	<time>2025-08-03T07:03:02.000Z</time>
</trkpt>
<trkpt lat="45.9585660" lon="10.1330400">
	<ele>1479.80</ele>
	<time>2025-08-03T07:03:03.000Z</time>
</trkpt>
<trkpt lat="45.9585740" lon="10.1330410">
	<ele>1479.80</ele>
	<time>2025-08-03T07:03:04.000Z</time>
</trkpt>
<trkpt lat="45.9585780" lon="10.1330440">
	<ele>1480.00</ele>
	<time>2025-08-03T07:03:05.000Z</time>
</trkpt>
<trkpt lat="45.9585840" lon="10.1330480">
	<ele>1480.20</ele>
	<time>2025-08-03T07:03:06.000Z</time>
</trkpt>
<trkpt lat="45.9585900" lon="10.1330480">
	<ele>1480.40</ele>
	<time>2025-08-03T07:03:07.000Z</time>
</trkpt>
<trkpt lat="45.9585950" lon="10.1330400">
	<ele>1480.40</ele>
	<time>2025-08-03T07:03:08.000Z</time>
</trkpt>
<trkpt lat="45.9585990" lon="10.1330410">
	<ele>1480.60</ele>
	<time>2025-08-03T07:03:09.000Z</time>
</trkpt>
<trkpt lat="45.9586020" lon="10.1330420">
	<ele>1480.80</ele>
	<time>2025-08-03T07:03:10.000Z</time>
</trkpt>
<trkpt lat="45.9586050" lon="10.1330450">
	<ele>1480.80</ele>
	<time>2025-08-03T07:03:11.000Z</time>
</trkpt>
<trkpt lat="45.9586130" lon="10.1330480">
	<ele>1481.00</ele>
	<time>2025-08-03T07:03:12.000Z</time>
</trkpt>
<trkpt lat="45.9586190" lon="10.1330550">
	<ele>1481.40</ele>
	<time>2025-08-03T07:03:13.000Z</time>
</trkpt>
<trkpt lat="45.9586250" lon="10.1330570">
	<ele>1481.60</ele>
	<time>2025-08-03T07:03:14.000Z</time>
</trkpt>
<trkpt lat="45.9586330" lon="10.1330570">
	<ele>1481.80</ele>
	<time>2025-08-03T07:03:15.000Z</time>
</trkpt>
<trkpt lat="45.9586400" lon="10.1330540">
	<ele>1481.80</ele>
	<time>2025-08-03T07:03:16.000Z</time>
</trkpt>
<trkpt lat="45.9586460" lon="10.1330530">
	<ele>1482.00</ele>
	<time>2025-08-03T07:03:17.000Z</time>
</trkpt>
<trkpt lat="45.9586520" lon="10.1330520">
	<ele>1482.00</ele>
	<time>2025-08-03T07:03:18.000Z</time>
</trkpt>
<trkpt lat="45.9586540" lon="10.1330530">
	<ele>1482.40</ele>
	<time>2025-08-03T07:03:19.000Z</time>
</trkpt>
<trkpt lat="45.9586570" lon="10.1330540">
	<ele>1482.60</ele>
	<time>2025-08-03T07:03:20.000Z</time>
</trkpt>
<trkpt lat="45.9586610" lon="10.1330580">
	<ele>1482.80</ele>
	<time>2025-08-03T07:03:21.000Z</time>
</trkpt>
<trkpt lat="45.9586680" lon="10.1330630">
	<ele>1482.80</ele>
	<time>2025-08-03T07:03:22.000Z</time>
</trkpt>
<trkpt lat="45.9586750" lon="10.1330670">
	<ele>1483.00</ele>
	<time>2025-08-03T07:03:23.000Z</time>
</trkpt>
<trkpt lat="45.9586800" lon="10.1330750">
	<ele>1483.40</ele>
	<time>2025-08-03T07:03:24.000Z</time>
</trkpt>
<trkpt lat="45.9586860" lon="10.1330810">
	<ele>1483.60</ele>
	<time>2025-08-03T07:03:25.000Z</time>
</trkpt>
<trkpt lat="45.9586940" lon="10.1330860">
	<ele>1483.80</ele>
	<time>2025-08-03T07:03:26.000Z</time>
</trkpt>
<trkpt lat="45.9586980" lon="10.1330950">
	<ele>1483.80</ele>
	<time>2025-08-03T07:03:27.000Z</time>
</trkpt>
<trkpt lat="45.9587050" lon="10.1331040">
	<ele>1484.00</ele>
	<time>2025-08-03T07:03:28.000Z</time>
</trkpt>
<trkpt lat="45.9587090" lon="10.1331050">
	<ele>1484.00</ele>
	<time>2025-08-03T07:03:29.000Z</time>
</trkpt>
<trkpt lat="45.9587160" lon="10.1331120">
	<ele>1484.40</ele>
	<time>2025-08-03T07:03:30.000Z</time>
</trkpt>
<trkpt lat="45.9587230" lon="10.1331150">
	<ele>1484.60</ele>
	<time>2025-08-03T07:03:31.000Z</time>
</trkpt>
<trkpt lat="45.9587280" lon="10.1331150">
	<ele>1485.00</ele>
	<time>2025-08-03T07:03:32.000Z</time>
</trkpt>
<trkpt lat="45.9587360" lon="10.1331150">
	<ele>1485.40</ele>
	<time>2025-08-03T07:03:33.000Z</time>
</trkpt>
<trkpt lat="45.9587440" lon="10.1331140">
	<ele>1485.60</ele>
	<time>2025-08-03T07:03:34.000Z</time>
</trkpt>
<trkpt lat="45.9587520" lon="10.1331140">
	<ele>1485.60</ele>
	<time>2025-08-03T07:03:35.000Z</time>
</trkpt>
<trkpt lat="45.9587590" lon="10.1331160">
	<ele>1485.80</ele>
	<time>2025-08-03T07:03:36.000Z</time>
</trkpt>
<trkpt lat="45.9587630" lon="10.1331150">
	<ele>1485.80</ele>
	<time>2025-08-03T07:03:37.000Z</time>
</trkpt>
<trkpt lat="45.9587650" lon="10.1331210">
	<ele>1486.00</ele>
	<time>2025-08-03T07:03:38.000Z</time>
</trkpt>
<trkpt lat="45.9587710" lon="10.1331250">
	<ele>1486.20</ele>
	<time>2025-08-03T07:03:39.000Z</time>
</trkpt>
<trkpt lat="45.9587780" lon="10.1331290">
	<ele>1486.40</ele>
	<time>2025-08-03T07:03:40.000Z</time>
</trkpt>
<trkpt lat="45.9587840" lon="10.1331290">
	<ele>1486.60</ele>
	<time>2025-08-03T07:03:41.000Z</time>
</trkpt>
<trkpt lat="45.9587900" lon="10.1331350">
	<ele>1486.60</ele>
	<time>2025-08-03T07:03:42.000Z</time>
</trkpt>
<trkpt lat="45.9587950" lon="10.1331340">
	<ele>1486.80</ele>
	<time>2025-08-03T07:03:43.000Z</time>
</trkpt>
<trkpt lat="45.9587990" lon="10.1331370">
	<ele>1487.00</ele>
	<time>2025-08-03T07:03:44.000Z</time>
</trkpt>
<trkpt lat="45.9588070" lon="10.1331370">
	<ele>1487.20</ele>
	<time>2025-08-03T07:03:45.000Z</time>
</trkpt>
<trkpt lat="45.9588180" lon="10.1331360">
	<ele>1487.40</ele>
	<time>2025-08-03T07:03:46.000Z</time>
</trkpt>
<trkpt lat="45.9588200" lon="10.1331360">
	<ele>1487.60</ele>
	<time>2025-08-03T07:03:47.000Z</time>
</trkpt>
<trkpt lat="45.9588270" lon="10.1331340">
	<ele>1487.60</ele>
	<time>2025-08-03T07:03:48.000Z</time>
</trkpt>
<trkpt lat="45.9588340" lon="10.1331380">
	<ele>1487.80</ele>
	<time>2025-08-03T07:03:49.000Z</time>
</trkpt>
<trkpt lat="45.9588410" lon="10.1331440">
	<ele>1488.00</ele>
	<time>2025-08-03T07:03:50.000Z</time>
</trkpt>
<trkpt lat="45.9588450" lon="10.1331460">
	<ele>1488.40</ele>
	<time>2025-08-03T07:03:51.000Z</time>
</trkpt>
<trkpt lat="45.9588490" lon="10.1331480">
	<ele>1488.60</ele>
	<time>2025-08-03T07:03:52.000Z</time>
</trkpt>
<trkpt lat="45.9588540" lon="10.1331480">
	<ele>1488.60</ele>
	<time>2025-08-03T07:03:53.000Z</time>
</trkpt>
<trkpt lat="45.9588580" lon="10.1331460">
	<ele>1488.80</ele>
	<time>2025-08-03T07:03:54.000Z</time>
</trkpt>
<trkpt lat="45.9588620" lon="10.1331460">
	<ele>1489.00</ele>
	<time>2025-08-03T07:03:55.000Z</time>
</trkpt>
<trkpt lat="45.9588670" lon="10.1331440">
	<ele>1489.20</ele>
	<time>2025-08-03T07:03:56.000Z</time>
</trkpt>
<trkpt lat="45.9588710" lon="10.1331460">
	<ele>1489.40</ele>
	<time>2025-08-03T07:03:57.000Z</time>
</trkpt>
<trkpt lat="45.9588760" lon="10.1331470">
	<ele>1489.60</ele>
	<time>2025-08-03T07:03:58.000Z</time>
</trkpt>
<trkpt lat="45.9588790" lon="10.1331470">
	<ele>1490.00</ele>
	<time>2025-08-03T07:03:59.000Z</time>
</trkpt>
<trkpt lat="45.9588830" lon="10.1331490">
	<ele>1490.20</ele>
	<time>2025-08-03T07:04:00.000Z</time>
</trkpt>
<trkpt lat="45.9588870" lon="10.1331520">
	<ele>1490.20</ele>
	<time>2025-08-03T07:04:01.000Z</time>
</trkpt>
<trkpt lat="45.9588890" lon="10.1331560">
	<ele>1490.40</ele>
	<time>2025-08-03T07:04:02.000Z</time>
</trkpt>
<trkpt lat="45.9588910" lon="10.1331590">
	<ele>1490.60</ele>
	<time>2025-08-03T07:04:03.000Z</time>
</trkpt>
<trkpt lat="45.9588950" lon="10.1331660">
	<ele>1490.80</ele>
	<time>2025-08-03T07:04:04.000Z</time>
</trkpt>
<trkpt lat="45.9588970" lon="10.1331690">
	<ele>1491.00</ele>
	<time>2025-08-03T07:04:05.000Z</time>
</trkpt>
<trkpt lat="45.9588980" lon="10.1331730">
	<ele>1491.20</ele>
	<time>2025-08-03T07:04:06.000Z</time>
</trkpt>
<trkpt lat="45.9589060" lon="10.1331760">
	<ele>1491.40</ele>
	<time>2025-08-03T07:04:07.000Z</time>
</trkpt>
<trkpt lat="45.9589160" lon="10.1331740">
	<ele>1491.60</ele>
	<time>2025-08-03T07:04:08.000Z</time>
</trkpt>
<trkpt lat="45.9589240" lon="10.1331740">
	<ele>1491.60</ele>
	<time>2025-08-03T07:04:09.000Z</time>
</trkpt>
<trkpt lat="45.9589300" lon="10.1331770">
	<ele>1491.80</ele>
	<time>2025-08-03T07:04:10.000Z</time>
</trkpt>
<trkpt lat="45.9589360" lon="10.1331800">
	<ele>1492.00</ele>
	<time>2025-08-03T07:04:11.000Z</time>
</trkpt>
<trkpt lat="45.9589380" lon="10.1331880">
	<ele>1492.20</ele>
	<time>2025-08-03T07:04:12.000Z</time>
</trkpt>
<trkpt lat="45.9589430" lon="10.1331940">
	<ele>1492.40</ele>
	<time>2025-08-03T07:04:13.000Z</time>
</trkpt>
<trkpt lat="45.9589490" lon="10.1331940">
	<ele>1492.40</ele>
	<time>2025-08-03T07:04:14.000Z</time>
</trkpt>
<trkpt lat="45.9589550" lon="10.1332000">
	<ele>1492.60</ele>
	<time>2025-08-03T07:04:15.000Z</time>
</trkpt>
<trkpt lat="45.9589560" lon="10.1332050">
	<ele>1492.80</ele>
	<time>2025-08-03T07:04:16.000Z</time>
</trkpt>
<trkpt lat="45.9589620" lon="10.1332130">
	<ele>1493.00</ele>
	<time>2025-08-03T07:04:17.000Z</time>
</trkpt>
<trkpt lat="45.9589640" lon="10.1332180">
	<ele>1493.40</ele>
	<time>2025-08-03T07:04:18.000Z</time>
</trkpt>
<trkpt lat="45.9589660" lon="10.1332280">
	<ele>1493.80</ele>
	<time>2025-08-03T07:04:19.000Z</time>
</trkpt>
<trkpt lat="45.9589710" lon="10.1332330">
	<ele>1494.00</ele>
	<time>2025-08-03T07:04:20.000Z</time>
</trkpt>
<trkpt lat="45.9589790" lon="10.1332330">
	<ele>1494.20</ele>
	<time>2025-08-03T07:04:21.000Z</time>
</trkpt>
<trkpt lat="45.9589830" lon="10.1332350">
	<ele>1494.20</ele>
	<time>2025-08-03T07:04:22.000Z</time>
</trkpt>
<trkpt lat="45.9589880" lon="10.1332380">
	<ele>1494.40</ele>
	<time>2025-08-03T07:04:23.000Z</time>
</trkpt>
<trkpt lat="45.9589930" lon="10.1332410">
	<ele>1494.60</ele>
	<time>2025-08-03T07:04:24.000Z</time>
</trkpt>
<trkpt lat="45.9590000" lon="10.1332400">
	<ele>1494.80</ele>
	<time>2025-08-03T07:04:25.000Z</time>
</trkpt>
<trkpt lat="45.9590060" lon="10.1332450">
	<ele>1495.00</ele>
	<time>2025-08-03T07:04:26.000Z</time>
</trkpt>
<trkpt lat="45.9590130" lon="10.1332460">
	<ele>1495.20</ele>
	<time>2025-08-03T07:04:27.000Z</time>
</trkpt>
<trkpt lat="45.9590210" lon="10.1332440">
	<ele>1495.40</ele>
	<time>2025-08-03T07:04:28.000Z</time>
</trkpt>
<trkpt lat="45.9590290" lon="10.1332420">
	<ele>1495.60</ele>
	<time>2025-08-03T07:04:29.000Z</time>
</trkpt>
<trkpt lat="45.9590340" lon="10.1332470">
	<ele>1495.80</ele>
	<time>2025-08-03T07:04:30.000Z</time>
</trkpt>
<trkpt lat="45.9590370" lon="10.1332560">
	<ele>1496.00</ele>
	<time>2025-08-03T07:04:31.000Z</time>
</trkpt>
<trkpt lat="45.9590390" lon="10.1332570">
	<ele>1496.20</ele>
	<time>2025-08-03T07:04:32.000Z</time>
</trkpt>
<trkpt lat="45.9590440" lon="10.1332580">
	<ele>1496.20</ele>
	<time>2025-08-03T07:04:33.000Z</time>
</trkpt>
<trkpt lat="45.9590500" lon="10.1332550">
	<ele>1496.60</ele>
	<time>2025-08-03T07:04:34.000Z</time>
</trkpt>
<trkpt lat="45.9590580" lon="10.1332570">
	<ele>1496.80</ele>
	<time>2025-08-03T07:04:35.000Z</time>
</trkpt>
<trkpt lat="45.9590660" lon="10.1332570">
	<ele>1496.80</ele>
	<time>2025-08-03T07:04:36.000Z</time>
</trkpt>
<trkpt lat="45.9590760" lon="10.1332610">
	<ele>1497.00</ele>
	<time>2025-08-03T07:04:37.000Z</time>
</trkpt>
<trkpt lat="45.9590830" lon="10.1332710">
	<ele>1497.20</ele>
	<time>2025-08-03T07:04:38.000Z</time>
</trkpt>
<trkpt lat="45.9590880" lon="10.1332720">
	<ele>1497.40</ele>
	<time>2025-08-03T07:04:39.000Z</time>
</trkpt>
<trkpt lat="45.9590900" lon="10.1332750">
	<ele>1497.80</ele>
	<time>2025-08-03T07:04:40.000Z</time>
</trkpt>
<trkpt lat="45.9590830" lon="10.1332870">
	<ele>1497.80</ele>
	<time>2025-08-03T07:04:41.000Z</time>
</trkpt>
<trkpt lat="45.9590860" lon="10.1333050">
	<ele>1498.00</ele>
	<time>2025-08-03T07:04:42.000Z</time>
</trkpt>
<trkpt lat="45.9590930" lon="10.1333200">
	<ele>1498.40</ele>
	<time>2025-08-03T07:04:43.000Z</time>
</trkpt>
<trkpt lat="45.9591020" lon="10.1333350">
	<ele>1498.60</ele>
	<time>2025-08-03T07:04:44.000Z</time>
</trkpt>
<trkpt lat="45.9591080" lon="10.1333340">
	<ele>1498.80</ele>
	<time>2025-08-03T07:04:45.000Z</time>
</trkpt>
<trkpt lat="45.9591190" lon="10.1333220">
	<ele>1499.00</ele>
	<time>2025-08-03T07:04:46.000Z</time>
</trkpt>
<trkpt lat="45.9591310" lon="10.1333260">
	<ele>1499.00</ele>
	<time>2025-08-03T07:04:47.000Z</time>
</trkpt>
<trkpt lat="45.9591330" lon="10.1333300">
	<ele>1499.20</ele>
	<time>2025-08-03T07:04:48.000Z</time>
</trkpt>
<trkpt lat="45.9591330" lon="10.1333300">
	<ele>1499.20</ele>
	<time>2025-08-03T07:04:49.000Z</time>
</trkpt>
<trkpt lat="45.9591330" lon="10.1333260">
	<ele>1499.40</ele>
	<time>2025-08-03T07:04:50.000Z</time>
</trkpt>
<trkpt lat="45.9591340" lon="10.1333230">
	<ele>1499.40</ele>
	<time>2025-08-03T07:04:51.000Z</time>
</trkpt>
<trkpt lat="45.9591310" lon="10.1333250">
	<ele>1499.60</ele>
	<time>2025-08-03T07:04:52.000Z</time>
</trkpt>
<trkpt lat="45.9591280" lon="10.1333340">
	<ele>1499.80</ele>
	<time>2025-08-03T07:04:53.000Z</time>
</trkpt>
<trkpt lat="45.9591280" lon="10.1333330">
	<ele>1499.80</ele>
	<time>2025-08-03T07:04:54.000Z</time>
</trkpt>
<trkpt lat="45.9591280" lon="10.1333360">
	<ele>1499.80</ele>
	<time>2025-08-03T07:04:55.000Z</time>
</trkpt>
<trkpt lat="45.9591290" lon="10.1333460">
	<ele>1499.80</ele>
	<time>2025-08-03T07:04:56.000Z</time>
</trkpt>
<trkpt lat="45.9591300" lon="10.1333460">
	<ele>1499.60</ele>
	<time>2025-08-03T07:04:57.000Z</time>
</trkpt>
<trkpt lat="45.9591320" lon="10.1333520">
	<ele>1499.60</ele>
	<time>2025-08-03T07:04:58.000Z</time>
</trkpt>
<trkpt lat="45.9591350" lon="10.1333560">
	<ele>1499.60</ele>
	<time>2025-08-03T07:04:59.000Z</time>
</trkpt>
<trkpt lat="45.9591390" lon="10.1333600">
	<ele>1499.60</ele>
	<time>2025-08-03T07:05:00.000Z</time>
</trkpt>
<trkpt lat="45.9591440" lon="10.1333600">
	<ele>1499.60</ele>
	<time>2025-08-03T07:05:01.000Z</time>
</trkpt>
<trkpt lat="45.9591510" lon="10.1333550">
	<ele>1499.80</ele>
	<time>2025-08-03T07:05:02.000Z</time>
</trkpt>
<trkpt lat="45.9591570" lon="10.1333460">
	<ele>1500.00</ele>
	<time>2025-08-03T07:05:03.000Z</time>
</trkpt>
<trkpt lat="45.9591590" lon="10.1333350">
	<ele>1500.20</ele>
	<time>2025-08-03T07:05:04.000Z</time>
</trkpt>
<trkpt lat="45.9591590" lon="10.1333150">
	<ele>1500.40</ele>
	<time>2025-08-03T07:05:05.000Z</time>
</trkpt>
<trkpt lat="45.9591600" lon="10.1332990">
	<ele>1500.40</ele>
	<time>2025-08-03T07:05:06.000Z</time>
</trkpt>
<trkpt lat="45.9591560" lon="10.1332840">
	<ele>1500.60</ele>
	<time>2025-08-03T07:05:07.000Z</time>
</trkpt>
<trkpt lat="45.9591640" lon="10.1332770">
	<ele>1500.80</ele>
	<time>2025-08-03T07:05:08.000Z</time>
</trkpt>
<trkpt lat="45.9591740" lon="10.1332670">
	<ele>1501.00</ele>
	<time>2025-08-03T07:05:09.000Z</time>
</trkpt>
<trkpt lat="45.9591790" lon="10.1332570">
	<ele>1501.20</ele>
	<time>2025-08-03T07:05:10.000Z</time>
</trkpt>
<trkpt lat="45.9591800" lon="10.1332460">
	<ele>1501.20</ele>
	<time>2025-08-03T07:05:11.000Z</time>
</trkpt>
<trkpt lat="45.9591800" lon="10.1332410">
	<ele>1501.40</ele>
	<time>2025-08-03T07:05:12.000Z</time>
</trkpt>
<trkpt lat="45.9591770" lon="10.1332350">
	<ele>1501.40</ele>
	<time>2025-08-03T07:05:13.000Z</time>
</trkpt>
<trkpt lat="45.9591760" lon="10.1332340">
	<ele>1501.60</ele>
	<time>2025-08-03T07:05:14.000Z</time>
</trkpt>
<trkpt lat="45.9591750" lon="10.1332270">
	<ele>1501.80</ele>
	<time>2025-08-03T07:05:15.000Z</time>
</trkpt>
<trkpt lat="45.9591780" lon="10.1332220">
	<ele>1502.00</ele>
	<time>2025-08-03T07:05:16.000Z</time>
</trkpt>
<trkpt lat="45.9591790" lon="10.1332150">
	<ele>1502.20</ele>
	<time>2025-08-03T07:05:17.000Z</time>
</trkpt>
<trkpt lat="45.9591730" lon="10.1332050">
	<ele>1502.80</ele>
	<time>2025-08-03T07:05:18.000Z</time>
</trkpt>
<trkpt lat="45.9591640" lon="10.1331980">
	<ele>1503.00</ele>
	<time>2025-08-03T07:05:19.000Z</time>
</trkpt>
<trkpt lat="45.9591610" lon="10.1331860">
	<ele>1503.40</ele>
	<time>2025-08-03T07:05:20.000Z</time>
</trkpt>
<trkpt lat="45.9591580" lon="10.1331700">
	<ele>1503.40</ele>
	<time>2025-08-03T07:05:21.000Z</time>
</trkpt>
<trkpt lat="45.9591670" lon="10.1331600">
	<ele>1503.60</ele>
	<time>2025-08-03T07:05:22.000Z</time>
</trkpt>
<trkpt lat="45.9591720" lon="10.1331550">
	<ele>1503.60</ele>
	<time>2025-08-03T07:05:23.000Z</time>
</trkpt>
<trkpt lat="45.9591730" lon="10.1331430">
	<ele>1503.80</ele>
	<time>2025-08-03T07:05:24.000Z</time>
</trkpt>
<trkpt lat="45.9591760" lon="10.1331380">
	<ele>1504.00</ele>
	<time>2025-08-03T07:05:25.000Z</time>
</trkpt>
<trkpt lat="45.9591750" lon="10.1331330">
	<ele>1504.00</ele>
	<time>2025-08-03T07:05:26.000Z</time>
</trkpt>
<trkpt lat="45.9591730" lon="10.1331290">
	<ele>1504.40</ele>
	<time>2025-08-03T07:05:27.000Z</time>
</trkpt>
<trkpt lat="45.9591730" lon="10.1331280">
	<ele>1504.60</ele>
	<time>2025-08-03T07:05:28.000Z</time>
</trkpt>
<trkpt lat="45.9591750" lon="10.1331260">
	<ele>1505.00</ele>
	<time>2025-08-03T07:05:29.000Z</time>
</trkpt>
<trkpt lat="45.9591800" lon="10.1331140">
	<ele>1505.20</ele>
	<time>2025-08-03T07:05:30.000Z</time>
</trkpt>
<trkpt lat="45.9591820" lon="10.1331020">
	<ele>1505.20</ele>
	<time>2025-08-03T07:05:31.000Z</time>
</trkpt>
<trkpt lat="45.9591920" lon="10.1330910">
	<ele>1505.40</ele>
	<time>2025-08-03T07:05:32.000Z</time>
</trkpt>
<trkpt lat="45.9592070" lon="10.1330880">
	<ele>1505.60</ele>
	<time>2025-08-03T07:05:33.000Z</time>
</trkpt>
<trkpt lat="45.9592210" lon="10.1330770">
	<ele>1505.60</ele>
	<time>2025-08-03T07:05:34.000Z</time>
</trkpt>
<trkpt lat="45.9592290" lon="10.1330640">
	<ele>1505.80</ele>
	<time>2025-08-03T07:05:35.000Z</time>
</trkpt>
<trkpt lat="45.9592360" lon="10.1330450">
	<ele>1506.00</ele>
	<time>2025-08-03T07:05:36.000Z</time>
</trkpt>
<trkpt lat="45.9592360" lon="10.1330380">
	<ele>1506.20</ele>
	<time>2025-08-03T07:05:37.000Z</time>
</trkpt>
<trkpt lat="45.9592300" lon="10.1330130">
	<ele>1506.60</ele>
	<time>2025-08-03T07:05:38.000Z</time>
</trkpt>
<trkpt lat="45.9592370" lon="10.1329960">
	<ele>1506.60</ele>
	<time>2025-08-03T07:05:39.000Z</time>
</trkpt>
<trkpt lat="45.9592390" lon="10.1329720">
	<ele>1506.80</ele>
	<time>2025-08-03T07:05:40.000Z</time>
</trkpt>
<trkpt lat="45.9592500" lon="10.1329430">
	<ele>1507.00</ele>
	<time>2025-08-03T07:05:41.000Z</time>
</trkpt>
<trkpt lat="45.9592520" lon="10.1329300">
	<ele>1507.00</ele>
	<time>2025-08-03T07:05:42.000Z</time>
</trkpt>
<trkpt lat="45.9592540" lon="10.1329150">
	<ele>1507.00</ele>
	<time>2025-08-03T07:05:43.000Z</time>
</trkpt>
<trkpt lat="45.9592550" lon="10.1328970">
	<ele>1507.20</ele>
	<time>2025-08-03T07:05:44.000Z</time>
</trkpt>
<trkpt lat="45.9592680" lon="10.1328830">
	<ele>1507.20</ele>
	<time>2025-08-03T07:05:45.000Z</time>
</trkpt>
<trkpt lat="45.9592850" lon="10.1328790">
	<ele>1507.40</ele>
	<time>2025-08-03T07:05:46.000Z</time>
</trkpt>
<trkpt lat="45.9592940" lon="10.1328690">
	<ele>1507.40</ele>
	<time>2025-08-03T07:05:47.000Z</time>
</trkpt>
<trkpt lat="45.9592920" lon="10.1328550">
	<ele>1507.80</ele>
	<time>2025-08-03T07:05:48.000Z</time>
</trkpt>
<trkpt lat="45.9592910" lon="10.1328420">
	<ele>1508.00</ele>
	<time>2025-08-03T07:05:49.000Z</time>
</trkpt>
<trkpt lat="45.9592940" lon="10.1328310">
	<ele>1508.20</ele>
	<time>2025-08-03T07:05:50.000Z</time>
</trkpt>
<trkpt lat="45.9593070" lon="10.1328170">
	<ele>1508.40</ele>
	<time>2025-08-03T07:05:51.000Z</time>
</trkpt>
<trkpt lat="45.9593190" lon="10.1328020">
	<ele>1508.60</ele>
	<time>2025-08-03T07:05:52.000Z</time>
</trkpt>
<trkpt lat="45.9593250" lon="10.1327960">
	<ele>1508.60</ele>
	<time>2025-08-03T07:05:53.000Z</time>
</trkpt>
<trkpt lat="45.9593240" lon="10.1327970">
	<ele>1509.00</ele>
	<time>2025-08-03T07:05:54.000Z</time>
</trkpt>
<trkpt lat="45.9593250" lon="10.1327910">
	<ele>1509.00</ele>
	<time>2025-08-03T07:05:55.000Z</time>
</trkpt>
<trkpt lat="45.9593250" lon="10.1327880">
	<ele>1509.20</ele>
	<time>2025-08-03T07:05:56.000Z</time>
</trkpt>
<trkpt lat="45.9593290" lon="10.1327830">
	<ele>1509.40</ele>
	<time>2025-08-03T07:05:57.000Z</time>
</trkpt>
<trkpt lat="45.9593290" lon="10.1327810">
	<ele>1509.40</ele>
	<time>2025-08-03T07:05:58.000Z</time>
</trkpt>
<trkpt lat="45.9593280" lon="10.1327810">
	<ele>1509.60</ele>
	<time>2025-08-03T07:05:59.000Z</time>
</trkpt>
<trkpt lat="45.9593260" lon="10.1327790">
	<ele>1509.60</ele>
	<time>2025-08-03T07:06:00.000Z</time>
</trkpt>
<trkpt lat="45.9593330" lon="10.1327770">
	<ele>1509.60</ele>
	<time>2025-08-03T07:06:01.000Z</time>
</trkpt>
<trkpt lat="45.9593360" lon="10.1327730">
	<ele>1509.80</ele>
	<time>2025-08-03T07:06:02.000Z</time>
</trkpt>
<trkpt lat="45.9593360" lon="10.1327690">
	<ele>1510.00</ele>
	<time>2025-08-03T07:06:03.000Z</time>
</trkpt>
<trkpt lat="45.9593380" lon="10.1327660">
	<ele>1510.00</ele>
	<time>2025-08-03T07:06:04.000Z</time>
</trkpt>
<trkpt lat="45.9593370" lon="10.1327610">
	<ele>1510.00</ele>
	<time>2025-08-03T07:06:05.000Z</time>
</trkpt>
<trkpt lat="45.9593390" lon="10.1327570">
	<ele>1510.00</ele>
	<time>2025-08-03T07:06:06.000Z</time>
</trkpt>
<trkpt lat="45.9593400" lon="10.1327540">
	<ele>1510.00</ele>
	<time>2025-08-03T07:06:07.000Z</time>
</trkpt>
<trkpt lat="45.9593430" lon="10.1327460">
	<ele>1510.00</ele>
	<time>2025-08-03T07:06:08.000Z</time>
</trkpt>
<trkpt lat="45.9593440" lon="10.1327360">
	<ele>1510.00</ele>
	<time>2025-08-03T07:06:09.000Z</time>
</trkpt>
<trkpt lat="45.9593470" lon="10.1327310">
	<ele>1510.00</ele>
	<time>2025-08-03T07:06:10.000Z</time>
</trkpt>
<trkpt lat="45.9593490" lon="10.1327270">
	<ele>1510.00</ele>
	<time>2025-08-03T07:06:11.000Z</time>
</trkpt>
<trkpt lat="45.9593490" lon="10.1327250">
	<ele>1510.00</ele>
	<time>2025-08-03T07:06:12.000Z</time>
</trkpt>
<trkpt lat="45.9593510" lon="10.1327230">
	<ele>1510.00</ele>
	<time>2025-08-03T07:06:13.000Z</time>
</trkpt>
<trkpt lat="45.9593530" lon="10.1327220">
	<ele>1510.00</ele>
	<time>2025-08-03T07:06:14.000Z</time>
</trkpt>
<trkpt lat="45.9593540" lon="10.1327210">
	<ele>1510.00</ele>
	<time>2025-08-03T07:06:15.000Z</time>
</trkpt>
<trkpt lat="45.9593550" lon="10.1327210">
	<ele>1510.20</ele>
	<time>2025-08-03T07:06:16.000Z</time>
</trkpt>
<trkpt lat="45.9593560" lon="10.1327200">
	<ele>1510.20</ele>
	<time>2025-08-03T07:06:17.000Z</time>
</trkpt>
<trkpt lat="45.9593590" lon="10.1327160">
	<ele>1510.20</ele>
	<time>2025-08-03T07:06:18.000Z</time>
</trkpt>
<trkpt lat="45.9593670" lon="10.1327120">
	<ele>1510.20</ele>
	<time>2025-08-03T07:06:19.000Z</time>
</trkpt>
<trkpt lat="45.9593760" lon="10.1327090">
	<ele>1510.20</ele>
	<time>2025-08-03T07:06:20.000Z</time>
</trkpt>
<trkpt lat="45.9593800" lon="10.1327090">
	<ele>1510.20</ele>
	<time>2025-08-03T07:06:21.000Z</time>
</trkpt>
<trkpt lat="45.9593840" lon="10.1327020">
	<ele>1510.20</ele>
	<time>2025-08-03T07:06:22.000Z</time>
</trkpt>
<trkpt lat="45.9593870" lon="10.1326970">
	<ele>1510.20</ele>
	<time>2025-08-03T07:06:23.000Z</time>
</trkpt>
<trkpt lat="45.9593890" lon="10.1326950">
	<ele>1510.20</ele>
	<time>2025-08-03T07:06:24.000Z</time>
</trkpt>
<trkpt lat="45.9593920" lon="10.1326920">
	<ele>1510.20</ele>
	<time>2025-08-03T07:06:25.000Z</time>
</trkpt>
<trkpt lat="45.9593920" lon="10.1326890">
	<ele>1510.20</ele>
	<time>2025-08-03T07:06:26.000Z</time>
</trkpt>
<trkpt lat="45.9593950" lon="10.1326810">
	<ele>1510.20</ele>
	<time>2025-08-03T07:06:27.000Z</time>
</trkpt>
<trkpt lat="45.9593960" lon="10.1326700">
	<ele>1510.40</ele>
	<time>2025-08-03T07:06:28.000Z</time>
</trkpt>
<trkpt lat="45.9594010" lon="10.1326590">
	<ele>1510.40</ele>
	<time>2025-08-03T07:06:29.000Z</time>
</trkpt>
<trkpt lat="45.9594060" lon="10.1326510">
	<ele>1510.60</ele>
	<time>2025-08-03T07:06:30.000Z</time>
</trkpt>
<trkpt lat="45.9594110" lon="10.1326360">
	<ele>1510.80</ele>
	<time>2025-08-03T07:06:31.000Z</time>
</trkpt>
<trkpt lat="45.9594120" lon="10.1326260">
	<ele>1511.00</ele>
	<time>2025-08-03T07:06:32.000Z</time>
</trkpt>
<trkpt lat="45.9594140" lon="10.1326090">
	<ele>1511.00</ele>
	<time>2025-08-03T07:06:33.000Z</time>
</trkpt>
<trkpt lat="45.9594110" lon="10.1325950">
	<ele>1511.40</ele>
	<time>2025-08-03T07:06:34.000Z</time>
</trkpt>
<trkpt lat="45.9594130" lon="10.1325910">
	<ele>1511.60</ele>
	<time>2025-08-03T07:06:35.000Z</time>
</trkpt>
<trkpt lat="45.9594150" lon="10.1325870">
	<ele>1511.80</ele>
	<time>2025-08-03T07:06:36.000Z</time>
</trkpt>
<trkpt lat="45.9594190" lon="10.1325710">
	<ele>1512.00</ele>
	<time>2025-08-03T07:06:37.000Z</time>
</trkpt>
<trkpt lat="45.9594220" lon="10.1325650">
	<ele>1512.20</ele>
	<time>2025-08-03T07:06:38.000Z</time>
</trkpt>
<trkpt lat="45.9594240" lon="10.1325580">
	<ele>1512.60</ele>
	<time>2025-08-03T07:06:39.000Z</time>
</trkpt>
<trkpt lat="45.9594310" lon="10.1325490">
	<ele>1512.60</ele>
	<time>2025-08-03T07:06:40.000Z</time>
</trkpt>
<trkpt lat="45.9594360" lon="10.1325390">
	<ele>1513.00</ele>
	<time>2025-08-03T07:06:41.000Z</time>
</trkpt>
<trkpt lat="45.9594420" lon="10.1325330">
	<ele>1513.20</ele>
	<time>2025-08-03T07:06:42.000Z</time>
</trkpt>
<trkpt lat="45.9594430" lon="10.1325280">
	<ele>1513.40</ele>
	<time>2025-08-03T07:06:43.000Z</time>
</trkpt>
<trkpt lat="45.9594450" lon="10.1325130">
	<ele>1513.60</ele>
	<time>2025-08-03T07:06:44.000Z</time>
</trkpt>
<trkpt lat="45.9594440" lon="10.1325090">
	<ele>1513.80</ele>
	<time>2025-08-03T07:06:45.000Z</time>
</trkpt>
<trkpt lat="45.9594500" lon="10.1324990">
	<ele>1513.80</ele>
	<time>2025-08-03T07:06:46.000Z</time>
</trkpt>
<trkpt lat="45.9594510" lon="10.1324920">
	<ele>1514.00</ele>
	<time>2025-08-03T07:06:47.000Z</time>
</trkpt>
<trkpt lat="45.9594500" lon="10.1324750">
	<ele>1514.20</ele>
	<time>2025-08-03T07:06:48.000Z</time>
</trkpt>
<trkpt lat="45.9594470" lon="10.1324550">
	<ele>1514.60</ele>
	<time>2025-08-03T07:06:49.000Z</time>
</trkpt>
<trkpt lat="45.9594480" lon="10.1324410">
	<ele>1514.60</ele>
	<time>2025-08-03T07:06:50.000Z</time>
</trkpt>
<trkpt lat="45.9594480" lon="10.1324300">
	<ele>1514.80</ele>
	<time>2025-08-03T07:06:51.000Z</time>
</trkpt>
<trkpt lat="45.9594470" lon="10.1324170">
	<ele>1514.80</ele>
	<time>2025-08-03T07:06:52.000Z</time>
</trkpt>
<trkpt lat="45.9594450" lon="10.1324050">
	<ele>1514.80</ele>
	<time>2025-08-03T07:06:53.000Z</time>
</trkpt>
<trkpt lat="45.9594450" lon="10.1323920">
	<ele>1515.00</ele>
	<time>2025-08-03T07:06:54.000Z</time>
</trkpt>
<trkpt lat="45.9594490" lon="10.1323820">
	<ele>1515.00</ele>
	<time>2025-08-03T07:06:55.000Z</time>
</trkpt>
<trkpt lat="45.9594540" lon="10.1323730">
	<ele>1515.20</ele>
	<time>2025-08-03T07:06:56.000Z</time>
</trkpt>
<trkpt lat="45.9594600" lon="10.1323670">
	<ele>1515.20</ele>
	<time>2025-08-03T07:06:57.000Z</time>
</trkpt>
<trkpt lat="45.9594680" lon="10.1323570">
	<ele>1515.40</ele>
	<time>2025-08-03T07:06:58.000Z</time>
</trkpt>
<trkpt lat="45.9594770" lon="10.1323470">
	<ele>1515.60</ele>
	<time>2025-08-03T07:06:59.000Z</time>
</trkpt>
<trkpt lat="45.9594900" lon="10.1323300">
	<ele>1515.80</ele>
	<time>2025-08-03T07:07:00.000Z</time>
</trkpt>
<trkpt lat="45.9594920" lon="10.1323130">
	<ele>1516.00</ele>
	<time>2025-08-03T07:07:01.000Z</time>
</trkpt>
<trkpt lat="45.9594920" lon="10.1323010">
	<ele>1516.20</ele>
	<time>2025-08-03T07:07:02.000Z</time>
</trkpt>
<trkpt lat="45.9594930" lon="10.1322850">
	<ele>1516.20</ele>
	<time>2025-08-03T07:07:03.000Z</time>
</trkpt>
<trkpt lat="45.9594890" lon="10.1322660">
	<ele>1516.20</ele>
	<time>2025-08-03T07:07:04.000Z</time>
</trkpt>
<trkpt lat="45.9594960" lon="10.1322540">
	<ele>1516.40</ele>
	<time>2025-08-03T07:07:05.000Z</time>
</trkpt>
<trkpt lat="45.9595050" lon="10.1322430">
	<ele>1516.60</ele>
	<time>2025-08-03T07:07:06.000Z</time>
</trkpt>
<trkpt lat="45.9595120" lon="10.1322310">
	<ele>1516.60</ele>
	<time>2025-08-03T07:07:07.000Z</time>
</trkpt>
<trkpt lat="45.9595210" lon="10.1322200">
	<ele>1516.60</ele>
	<time>2025-08-03T07:07:08.000Z</time>
</trkpt>
<trkpt lat="45.9595270" lon="10.1322100">
	<ele>1516.80</ele>
	<time>2025-08-03T07:07:09.000Z</time>
</trkpt>
<trkpt lat="45.9595350" lon="10.1321980">
	<ele>1516.80</ele>
	<time>2025-08-03T07:07:10.000Z</time>
</trkpt>
<trkpt lat="45.9595410" lon="10.1321860">
	<ele>1516.80</ele>
	<time>2025-08-03T07:07:11.000Z</time>
</trkpt>
<trkpt lat="45.9595460" lon="10.1321730">
	<ele>1516.80</ele>
	<time>2025-08-03T07:07:12.000Z</time>
</trkpt>
<trkpt lat="45.9595470" lon="10.1321590">
	<ele>1517.00</ele>
	<time>2025-08-03T07:07:13.000Z</time>
</trkpt>
<trkpt lat="45.9595430" lon="10.1321440">
	<ele>1517.00</ele>
	<time>2025-08-03T07:07:14.000Z</time>
</trkpt>
<trkpt lat="45.9595400" lon="10.1321280">
	<ele>1517.20</ele>
	<time>2025-08-03T07:07:15.000Z</time>
</trkpt>
<trkpt lat="45.9595390" lon="10.1321120">
	<ele>1517.40</ele>
	<time>2025-08-03T07:07:16.000Z</time>
</trkpt>
<trkpt lat="45.9595390" lon="10.1320940">
	<ele>1517.60</ele>
	<time>2025-08-03T07:07:17.000Z</time>
</trkpt>
<trkpt lat="45.9595360" lon="10.1320780">
	<ele>1517.60</ele>
	<time>2025-08-03T07:07:18.000Z</time>
</trkpt>
<trkpt lat="45.9595360" lon="10.1320590">
	<ele>1517.80</ele>
	<time>2025-08-03T07:07:19.000Z</time>
</trkpt>
<trkpt lat="45.9595430" lon="10.1320480">
	<ele>1517.80</ele>
	<time>2025-08-03T07:07:20.000Z</time>
</trkpt>
<trkpt lat="45.9595480" lon="10.1320380">
	<ele>1517.80</ele>
	<time>2025-08-03T07:07:21.000Z</time>
</trkpt>
<trkpt lat="45.9595500" lon="10.1320260">
	<ele>1518.00</ele>
	<time>2025-08-03T07:07:22.000Z</time>
</trkpt>
<trkpt lat="45.9595600" lon="10.1320160">
	<ele>1518.20</ele>
	<time>2025-08-03T07:07:23.000Z</time>
</trkpt>
<trkpt lat="45.9595660" lon="10.1320020">
	<ele>1518.20</ele>
	<time>2025-08-03T07:07:24.000Z</time>
</trkpt>
<trkpt lat="45.9595690" lon="10.1319930">
	<ele>1518.40</ele>
	<time>2025-08-03T07:07:25.000Z</time>
</trkpt>
<trkpt lat="45.9595680" lon="10.1319840">
	<ele>1518.60</ele>
	<time>2025-08-03T07:07:26.000Z</time>
</trkpt>
<trkpt lat="45.9595660" lon="10.1319730">
	<ele>1518.60</ele>
	<time>2025-08-03T07:07:27.000Z</time>
</trkpt>
<trkpt lat="45.9595670" lon="10.1319670">
	<ele>1518.80</ele>
	<time>2025-08-03T07:07:28.000Z</time>
</trkpt>
<trkpt lat="45.9595710" lon="10.1319550">
	<ele>1519.00</ele>
	<time>2025-08-03T07:07:29.000Z</time>
</trkpt>
<trkpt lat="45.9595700" lon="10.1319420">
	<ele>1519.20</ele>
	<time>2025-08-03T07:07:30.000Z</time>
</trkpt>
<trkpt lat="45.9595790" lon="10.1319350">
	<ele>1519.20</ele>
	<time>2025-08-03T07:07:31.000Z</time>
</trkpt>
<trkpt lat="45.9595810" lon="10.1319190">
	<ele>1519.40</ele>
	<time>2025-08-03T07:07:32.000Z</time>
</trkpt>
<trkpt lat="45.9595820" lon="10.1319050">
	<ele>1519.60</ele>
	<time>2025-08-03T07:07:33.000Z</time>
</trkpt>
<trkpt lat="45.9595800" lon="10.1318910">
	<ele>1519.60</ele>
	<time>2025-08-03T07:07:34.000Z</time>
</trkpt>
<trkpt lat="45.9595850" lon="10.1318820">
	<ele>1519.80</ele>
	<time>2025-08-03T07:07:35.000Z</time>
</trkpt>
<trkpt lat="45.9595840" lon="10.1318730">
	<ele>1520.00</ele>
	<time>2025-08-03T07:07:36.000Z</time>
</trkpt>
<trkpt lat="45.9595850" lon="10.1318630">
	<ele>1520.20</ele>
	<time>2025-08-03T07:07:37.000Z</time>
</trkpt>
<trkpt lat="45.9595880" lon="10.1318510">
	<ele>1520.60</ele>
	<time>2025-08-03T07:07:38.000Z</time>
</trkpt>
<trkpt lat="45.9595950" lon="10.1318410">
	<ele>1520.80</ele>
	<time>2025-08-03T07:07:39.000Z</time>
</trkpt>
<trkpt lat="45.9596030" lon="10.1318320">
	<ele>1521.20</ele>
	<time>2025-08-03T07:07:40.000Z</time>
</trkpt>
<trkpt lat="45.9596050" lon="10.1318210">
	<ele>1521.20</ele>
	<time>2025-08-03T07:07:41.000Z</time>
</trkpt>
<trkpt lat="45.9596050" lon="10.1318100">
	<ele>1521.40</ele>
	<time>2025-08-03T07:07:42.000Z</time>
</trkpt>
<trkpt lat="45.9596040" lon="10.1317980">
	<ele>1521.40</ele>
	<time>2025-08-03T07:07:43.000Z</time>
</trkpt>
<trkpt lat="45.9596040" lon="10.1317830">
	<ele>1521.60</ele>
	<time>2025-08-03T07:07:44.000Z</time>
</trkpt>
<trkpt lat="45.9596110" lon="10.1317680">
	<ele>1522.00</ele>
	<time>2025-08-03T07:07:45.000Z</time>
</trkpt>
<trkpt lat="45.9596150" lon="10.1317510">
	<ele>1522.00</ele>
	<time>2025-08-03T07:07:46.000Z</time>
</trkpt>
<trkpt lat="45.9596190" lon="10.1317430">
	<ele>1522.20</ele>
	<time>2025-08-03T07:07:47.000Z</time>
</trkpt>
<trkpt lat="45.9596270" lon="10.1317350">
	<ele>1522.40</ele>
	<time>2025-08-03T07:07:48.000Z</time>
</trkpt>
<trkpt lat="45.9596350" lon="10.1317290">
	<ele>1522.40</ele>
	<time>2025-08-03T07:07:49.000Z</time>
</trkpt>
<trkpt lat="45.9596460" lon="10.1317220">
	<ele>1522.60</ele>
	<time>2025-08-03T07:07:50.000Z</time>
</trkpt>
<trkpt lat="45.9596530" lon="10.1317100">
	<ele>1522.80</ele>
	<time>2025-08-03T07:07:51.000Z</time>
</trkpt>
<trkpt lat="45.9596530" lon="10.1316990">
	<ele>1523.00</ele>
	<time>2025-08-03T07:07:52.000Z</time>
</trkpt>
<trkpt lat="45.9596450" lon="10.1316780">
	<ele>1523.20</ele>
	<time>2025-08-03T07:07:53.000Z</time>
</trkpt>
<trkpt lat="45.9596450" lon="10.1316580">
	<ele>1523.40</ele>
	<time>2025-08-03T07:07:54.000Z</time>
</trkpt>
<trkpt lat="45.9596450" lon="10.1316410">
	<ele>1523.40</ele>
	<time>2025-08-03T07:07:55.000Z</time>
</trkpt>
<trkpt lat="45.9596540" lon="10.1316240">
	<ele>1523.60</ele>
	<time>2025-08-03T07:07:56.000Z</time>
</trkpt>
<trkpt lat="45.9596610" lon="10.1316070">
	<ele>1523.80</ele>
	<time>2025-08-03T07:07:57.000Z</time>
</trkpt>
<trkpt lat="45.9596670" lon="10.1315910">
	<ele>1524.00</ele>
	<time>2025-08-03T07:07:58.000Z</time>
</trkpt>
<trkpt lat="45.9596730" lon="10.1315810">
	<ele>1524.20</ele>
	<time>2025-08-03T07:07:59.000Z</time>
</trkpt>
<trkpt lat="45.9596770" lon="10.1315750">
	<ele>1524.40</ele>
	<time>2025-08-03T07:08:00.000Z</time>
</trkpt>
<trkpt lat="45.9596800" lon="10.1315690">
	<ele>1524.40</ele>
	<time>2025-08-03T07:08:01.000Z</time>
</trkpt>
<trkpt lat="45.9596820" lon="10.1315630">
	<ele>1524.60</ele>
	<time>2025-08-03T07:08:02.000Z</time>
</trkpt>
<trkpt lat="45.9596880" lon="10.1315560">
	<ele>1524.80</ele>
	<time>2025-08-03T07:08:03.000Z</time>
</trkpt>
<trkpt lat="45.9596870" lon="10.1315500">
	<ele>1525.00</ele>
	<time>2025-08-03T07:08:04.000Z</time>
</trkpt>
<trkpt lat="45.9596840" lon="10.1315370">
	<ele>1525.20</ele>
	<time>2025-08-03T07:08:05.000Z</time>
</trkpt>
<trkpt lat="45.9596850" lon="10.1315280">
	<ele>1525.60</ele>
	<time>2025-08-03T07:08:06.000Z</time>
</trkpt>
<trkpt lat="45.9596840" lon="10.1315170">
	<ele>1525.80</ele>
	<time>2025-08-03T07:08:07.000Z</time>
</trkpt>
<trkpt lat="45.9596830" lon="10.1315070">
	<ele>1525.80</ele>
	<time>2025-08-03T07:08:08.000Z</time>
</trkpt>
<trkpt lat="45.9596900" lon="10.1315030">
	<ele>1526.00</ele>
	<time>2025-08-03T07:08:09.000Z</time>
</trkpt>
<trkpt lat="45.9597000" lon="10.1315010">
	<ele>1526.20</ele>
	<time>2025-08-03T07:08:10.000Z</time>
</trkpt>
<trkpt lat="45.9597140" lon="10.1315120">
	<ele>1526.40</ele>
	<time>2025-08-03T07:08:11.000Z</time>
</trkpt>
<trkpt lat="45.9597260" lon="10.1315230">
	<ele>1526.80</ele>
	<time>2025-08-03T07:08:12.000Z</time>
</trkpt>
<trkpt lat="45.9597300" lon="10.1315230">
	<ele>1527.00</ele>
	<time>2025-08-03T07:08:13.000Z</time>
</trkpt>
<trkpt lat="45.9597370" lon="10.1315170">
	<ele>1527.20</ele>
	<time>2025-08-03T07:08:14.000Z</time>
</trkpt>
<trkpt lat="45.9597530" lon="10.1315110">
	<ele>1527.40</ele>
	<time>2025-08-03T07:08:15.000Z</time>
</trkpt>
<trkpt lat="45.9597620" lon="10.1315060">
	<ele>1527.80</ele>
	<time>2025-08-03T07:08:16.000Z</time>
</trkpt>
<trkpt lat="45.9597670" lon="10.1315030">
	<ele>1528.00</ele>
	<time>2025-08-03T07:08:17.000Z</time>
</trkpt>
<trkpt lat="45.9597670" lon="10.1315010">
	<ele>1528.20</ele>
	<time>2025-08-03T07:08:18.000Z</time>
</trkpt>
<trkpt lat="45.9597640" lon="10.1315070">
	<ele>1528.40</ele>
	<time>2025-08-03T07:08:19.000Z</time>
</trkpt>
<trkpt lat="45.9597610" lon="10.1314970">
	<ele>1528.40</ele>
	<time>2025-08-03T07:08:20.000Z</time>
</trkpt>
<trkpt lat="45.9597630" lon="10.1314820">
	<ele>1528.60</ele>
	<time>2025-08-03T07:08:21.000Z</time>
</trkpt>
<trkpt lat="45.9597620" lon="10.1314640">
	<ele>1528.80</ele>
	<time>2025-08-03T07:08:22.000Z</time>
</trkpt>
<trkpt lat="45.9597710" lon="10.1314440">
	<ele>1529.20</ele>
	<time>2025-08-03T07:08:23.000Z</time>
</trkpt>
<trkpt lat="45.9597750" lon="10.1314300">
	<ele>1529.40</ele>
	<time>2025-08-03T07:08:24.000Z</time>
</trkpt>
<trkpt lat="45.9597730" lon="10.1314170">
	<ele>1529.60</ele>
	<time>2025-08-03T07:08:25.000Z</time>
</trkpt>
<trkpt lat="45.9597690" lon="10.1313990">
	<ele>1529.80</ele>
	<time>2025-08-03T07:08:26.000Z</time>
</trkpt>
<trkpt lat="45.9597630" lon="10.1313830">
	<ele>1529.80</ele>
	<time>2025-08-03T07:08:27.000Z</time>
</trkpt>
<trkpt lat="45.9597550" lon="10.1313680">
	<ele>1530.00</ele>
	<time>2025-08-03T07:08:28.000Z</time>
</trkpt>
<trkpt lat="45.9597520" lon="10.1313570">
	<ele>1530.00</ele>
	<time>2025-08-03T07:08:29.000Z</time>
</trkpt>
<trkpt lat="45.9597420" lon="10.1313450">
	<ele>1530.00</ele>
	<time>2025-08-03T07:08:30.000Z</time>
</trkpt>
<trkpt lat="45.9597330" lon="10.1313390">
	<ele>1530.20</ele>
	<time>2025-08-03T07:08:31.000Z</time>
</trkpt>
<trkpt lat="45.9597270" lon="10.1313330">
	<ele>1530.20</ele>
	<time>2025-08-03T07:08:32.000Z</time>
</trkpt>
<trkpt lat="45.9597220" lon="10.1313270">
	<ele>1530.20</ele>
	<time>2025-08-03T07:08:33.000Z</time>
</trkpt>
<trkpt lat="45.9597220" lon="10.1313200">
	<ele>1530.20</ele>
	<time>2025-08-03T07:08:34.000Z</time>
</trkpt>
<trkpt lat="45.9597190" lon="10.1313050">
	<ele>1530.40</ele>
	<time>2025-08-03T07:08:35.000Z</time>
</trkpt>
<trkpt lat="45.9597190" lon="10.1312970">
	<ele>1530.40</ele>
	<time>2025-08-03T07:08:36.000Z</time>
</trkpt>
<trkpt lat="45.9597210" lon="10.1312860">
	<ele>1530.40</ele>
	<time>2025-08-03T07:08:37.000Z</time>
</trkpt>
<trkpt lat="45.9597200" lon="10.1312720">
	<ele>1530.40</ele>
	<time>2025-08-03T07:08:38.000Z</time>
</trkpt>
<trkpt lat="45.9597200" lon="10.1312640">
	<ele>1530.60</ele>
	<time>2025-08-03T07:08:39.000Z</time>
</trkpt>
<trkpt lat="45.9597170" lon="10.1312600">
	<ele>1530.60</ele>
	<time>2025-08-03T07:08:40.000Z</time>
</trkpt>
<trkpt lat="45.9597180" lon="10.1312540">
	<ele>1530.80</ele>
	<time>2025-08-03T07:08:41.000Z</time>
</trkpt>
<trkpt lat="45.9597200" lon="10.1312500">
	<ele>1530.80</ele>
	<time>2025-08-03T07:08:42.000Z</time>
</trkpt>
<trkpt lat="45.9597210" lon="10.1312430">
	<ele>1530.80</ele>
	<time>2025-08-03T07:08:43.000Z</time>
</trkpt>
<trkpt lat="45.9597250" lon="10.1312350">
	<ele>1530.80</ele>
	<time>2025-08-03T07:08:44.000Z</time>
</trkpt>
<trkpt lat="45.9597310" lon="10.1312290">
	<ele>1531.00</ele>
	<time>2025-08-03T07:08:45.000Z</time>
</trkpt>
<trkpt lat="45.9597360" lon="10.1312210">
	<ele>1531.20</ele>
	<time>2025-08-03T07:08:46.000Z</time>
</trkpt>
<trkpt lat="45.9597400" lon="10.1312180">
	<ele>1531.40</ele>
	<time>2025-08-03T07:08:47.000Z</time>
</trkpt>
<trkpt lat="45.9597460" lon="10.1312070">
	<ele>1531.60</ele>
	<time>2025-08-03T07:08:48.000Z</time>
</trkpt>
<trkpt lat="45.9597470" lon="10.1311970">
	<ele>1531.80</ele>
	<time>2025-08-03T07:08:49.000Z</time>
</trkpt>
<trkpt lat="45.9597400" lon="10.1311860">
	<ele>1532.00</ele>
	<time>2025-08-03T07:08:50.000Z</time>
</trkpt>
<trkpt lat="45.9597390" lon="10.1311810">
	<ele>1532.20</ele>
	<time>2025-08-03T07:08:51.000Z</time>
</trkpt>
<trkpt lat="45.9597290" lon="10.1311590">
	<ele>1532.40</ele>
	<time>2025-08-03T07:08:52.000Z</time>
</trkpt>
<trkpt lat="45.9597280" lon="10.1311550">
	<ele>1532.60</ele>
	<time>2025-08-03T07:08:53.000Z</time>
</trkpt>
<trkpt lat="45.9597290" lon="10.1311530">
	<ele>1532.60</ele>
	<time>2025-08-03T07:08:54.000Z</time>
</trkpt>
<trkpt lat="45.9597240" lon="10.1311550">
	<ele>1532.60</ele>
	<time>2025-08-03T07:08:55.000Z</time>
</trkpt>
<trkpt lat="45.9597250" lon="10.1311520">
	<ele>1532.60</ele>
	<time>2025-08-03T07:08:56.000Z</time>
</trkpt>
<trkpt lat="45.9597270" lon="10.1311490">
	<ele>1532.80</ele>
	<time>2025-08-03T07:08:57.000Z</time>
</trkpt>
<trkpt lat="45.9597320" lon="10.1311320">
	<ele>1533.20</ele>
	<time>2025-08-03T07:08:58.000Z</time>
</trkpt>
<trkpt lat="45.9597280" lon="10.1311180">
	<ele>1533.40</ele>
	<time>2025-08-03T07:08:59.000Z</time>
</trkpt>
<trkpt lat="45.9597310" lon="10.1311050">
	<ele>1533.40</ele>
	<time>2025-08-03T07:09:00.000Z</time>
</trkpt>
<trkpt lat="45.9597460" lon="10.1310990">
	<ele>1533.60</ele>
	<time>2025-08-03T07:09:01.000Z</time>
</trkpt>
<trkpt lat="45.9597490" lon="10.1310860">
	<ele>1533.80</ele>
	<time>2025-08-03T07:09:02.000Z</time>
</trkpt>
<trkpt lat="45.9597550" lon="10.1310780">
	<ele>1534.20</ele>
	<time>2025-08-03T07:09:03.000Z</time>
</trkpt>
<trkpt lat="45.9597530" lon="10.1310700">
	<ele>1534.40</ele>
	<time>2025-08-03T07:09:04.000Z</time>
</trkpt>
<trkpt lat="45.9597500" lon="10.1310700">
	<ele>1534.60</ele>
	<time>2025-08-03T07:09:05.000Z</time>
</trkpt>
<trkpt lat="45.9597470" lon="10.1310630">
	<ele>1534.80</ele>
	<time>2025-08-03T07:09:06.000Z</time>
</trkpt>
<trkpt lat="45.9597440" lon="10.1310520">
	<ele>1535.00</ele>
	<time>2025-08-03T07:09:07.000Z</time>
</trkpt>
<trkpt lat="45.9597450" lon="10.1310460">
	<ele>1535.20</ele>
	<time>2025-08-03T07:09:08.000Z</time>
</trkpt>
<trkpt lat="45.9597590" lon="10.1310410">
	<ele>1535.40</ele>
	<time>2025-08-03T07:09:09.000Z</time>
</trkpt>
<trkpt lat="45.9597610" lon="10.1310360">
	<ele>1535.40</ele>
	<time>2025-08-03T07:09:10.000Z</time>
</trkpt>
<trkpt lat="45.9597720" lon="10.1310320">
	<ele>1535.60</ele>
	<time>2025-08-03T07:09:11.000Z</time>
</trkpt>
<trkpt lat="45.9597780" lon="10.1310280">
	<ele>1535.80</ele>
	<time>2025-08-03T07:09:12.000Z</time>
</trkpt>
<trkpt lat="45.9597820" lon="10.1310260">
	<ele>1536.00</ele>
	<time>2025-08-03T07:09:13.000Z</time>
</trkpt>
<trkpt lat="45.9597880" lon="10.1310180">
	<ele>1536.00</ele>
	<time>2025-08-03T07:09:14.000Z</time>
</trkpt>
<trkpt lat="45.9597890" lon="10.1310100">
	<ele>1536.40</ele>
	<time>2025-08-03T07:09:15.000Z</time>
</trkpt>
<trkpt lat="45.9597880" lon="10.1310030">
	<ele>1536.60</ele>
	<time>2025-08-03T07:09:16.000Z</time>
</trkpt>
<trkpt lat="45.9597880" lon="10.1309930">
	<ele>1536.60</ele>
	<time>2025-08-03T07:09:17.000Z</time>
</trkpt>
<trkpt lat="45.9597940" lon="10.1309820">
	<ele>1537.00</ele>
	<time>2025-08-03T07:09:18.000Z</time>
</trkpt>
<trkpt lat="45.9598100" lon="10.1309720">
	<ele>1537.00</ele>
	<time>2025-08-03T07:09:19.000Z</time>
</trkpt>
<trkpt lat="45.9598200" lon="10.1309520">
	<ele>1537.20</ele>
	<time>2025-08-03T07:09:20.000Z</time>
</trkpt>
<trkpt lat="45.9598250" lon="10.1309380">
	<ele>1537.40</ele>
	<time>2025-08-03T07:09:21.000Z</time>
</trkpt>
<trkpt lat="45.9598330" lon="10.1309280">
	<ele>1537.40</ele>
	<time>2025-08-03T07:09:22.000Z</time>
</trkpt>
<trkpt lat="45.9598360" lon="10.1309170">
	<ele>1537.60</ele>
	<time>2025-08-03T07:09:23.000Z</time>
</trkpt>
<trkpt lat="45.9598400" lon="10.1309100">
	<ele>1537.80</ele>
	<time>2025-08-03T07:09:24.000Z</time>
</trkpt>
<trkpt lat="45.9598480" lon="10.1309000">
	<ele>1538.00</ele>
	<time>2025-08-03T07:09:25.000Z</time>
</trkpt>
<trkpt lat="45.9598580" lon="10.1308900">
	<ele>1538.00</ele>
	<time>2025-08-03T07:09:26.000Z</time>
</trkpt>
<trkpt lat="45.9598610" lon="10.1308780">
	<ele>1538.40</ele>
	<time>2025-08-03T07:09:27.000Z</time>
</trkpt>
<trkpt lat="45.9598630" lon="10.1308610">
	<ele>1538.60</ele>
	<time>2025-08-03T07:09:28.000Z</time>
</trkpt>
<trkpt lat="45.9598590" lon="10.1308440">
	<ele>1538.60</ele>
	<time>2025-08-03T07:09:29.000Z</time>
</trkpt>
<trkpt lat="45.9598550" lon="10.1308320">
	<ele>1538.80</ele>
	<time>2025-08-03T07:09:30.000Z</time>
</trkpt>
<trkpt lat="45.9598540" lon="10.1308190">
	<ele>1538.80</ele>
	<time>2025-08-03T07:09:31.000Z</time>
</trkpt>
<trkpt lat="45.9598580" lon="10.1308040">
	<ele>1539.20</ele>
	<time>2025-08-03T07:09:32.000Z</time>
</trkpt>
<trkpt lat="45.9598700" lon="10.1307930">
	<ele>1539.20</ele>
	<time>2025-08-03T07:09:33.000Z</time>
</trkpt>
<trkpt lat="45.9598760" lon="10.1307840">
	<ele>1539.40</ele>
	<time>2025-08-03T07:09:34.000Z</time>
</trkpt>
<trkpt lat="45.9598860" lon="10.1307700">
	<ele>1539.40</ele>
	<time>2025-08-03T07:09:35.000Z</time>
</trkpt>
<trkpt lat="45.9598930" lon="10.1307490">
	<ele>1539.40</ele>
	<time>2025-08-03T07:09:36.000Z</time>
</trkpt>
<trkpt lat="45.9598930" lon="10.1307350">
	<ele>1539.40</ele>
	<time>2025-08-03T07:09:37.000Z</time>
</trkpt>
<trkpt lat="45.9598960" lon="10.1307220">
	<ele>1539.40</ele>
	<time>2025-08-03T07:09:38.000Z</time>
</trkpt>
<trkpt lat="45.9599040" lon="10.1307090">
	<ele>1539.60</ele>
	<time>2025-08-03T07:09:39.000Z</time>
</trkpt>
<trkpt lat="45.9599130" lon="10.1307060">
	<ele>1539.60</ele>
	<time>2025-08-03T07:09:40.000Z</time>
</trkpt>
<trkpt lat="45.9599220" lon="10.1306970">
	<ele>1539.80</ele>
	<time>2025-08-03T07:09:41.000Z</time>
</trkpt>
<trkpt lat="45.9599260" lon="10.1306930">
	<ele>1539.80</ele>
	<time>2025-08-03T07:09:42.000Z</time>
</trkpt>
<trkpt lat="45.9599310" lon="10.1306880">
	<ele>1540.20</ele>
	<time>2025-08-03T07:09:43.000Z</time>
</trkpt>
<trkpt lat="45.9599340" lon="10.1306860">
	<ele>1540.40</ele>
	<time>2025-08-03T07:09:44.000Z</time>
</trkpt>
<trkpt lat="45.9599400" lon="10.1306750">
	<ele>1540.40</ele>
	<time>2025-08-03T07:09:45.000Z</time>
</trkpt>
<trkpt lat="45.9599540" lon="10.1306640">
	<ele>1540.80</ele>
	<time>2025-08-03T07:09:46.000Z</time>
</trkpt>
<trkpt lat="45.9599600" lon="10.1306460">
	<ele>1541.00</ele>
	<time>2025-08-03T07:09:47.000Z</time>
</trkpt>
<trkpt lat="45.9599630" lon="10.1306370">
	<ele>1541.20</ele>
	<time>2025-08-03T07:09:48.000Z</time>
</trkpt>
<trkpt lat="45.9599700" lon="10.1306340">
	<ele>1541.40</ele>
	<time>2025-08-03T07:09:49.000Z</time>
</trkpt>
<trkpt lat="45.9599760" lon="10.1306330">
	<ele>1541.60</ele>
	<time>2025-08-03T07:09:50.000Z</time>
</trkpt>
<trkpt lat="45.9599830" lon="10.1306240">
	<ele>1541.80</ele>
	<time>2025-08-03T07:09:51.000Z</time>
</trkpt>
<trkpt lat="45.9599860" lon="10.1306100">
	<ele>1541.80</ele>
	<time>2025-08-03T07:09:52.000Z</time>
</trkpt>
<trkpt lat="45.9599820" lon="10.1305910">
	<ele>1542.00</ele>
	<time>2025-08-03T07:09:53.000Z</time>
</trkpt>
<trkpt lat="45.9599830" lon="10.1305710">
	<ele>1542.20</ele>
	<time>2025-08-03T07:09:54.000Z</time>
</trkpt>
<trkpt lat="45.9599900" lon="10.1305570">
	<ele>1542.40</ele>
	<time>2025-08-03T07:09:55.000Z</time>
</trkpt>
<trkpt lat="45.9599920" lon="10.1305490">
	<ele>1542.60</ele>
	<time>2025-08-03T07:09:56.000Z</time>
</trkpt>
<trkpt lat="45.9599950" lon="10.1305410">
	<ele>1542.80</ele>
	<time>2025-08-03T07:09:57.000Z</time>
</trkpt>
<trkpt lat="45.9599990" lon="10.1305360">
	<ele>1542.80</ele>
	<time>2025-08-03T07:09:58.000Z</time>
</trkpt>
<trkpt lat="45.9600110" lon="10.1305310">
	<ele>1543.00</ele>
	<time>2025-08-03T07:09:59.000Z</time>
</trkpt>
<trkpt lat="45.9600260" lon="10.1305290">
	<ele>1543.00</ele>
	<time>2025-08-03T07:10:00.000Z</time>
</trkpt>
<trkpt lat="45.9600370" lon="10.1305240">
	<ele>1543.20</ele>
	<time>2025-08-03T07:10:01.000Z</time>
</trkpt>
<trkpt lat="45.9600350" lon="10.1305130">
	<ele>1543.20</ele>
	<time>2025-08-03T07:10:02.000Z</time>
</trkpt>
<trkpt lat="45.9600320" lon="10.1304910">
	<ele>1543.60</ele>
	<time>2025-08-03T07:10:03.000Z</time>
</trkpt>
<trkpt lat="45.9600310" lon="10.1304790">
	<ele>1543.80</ele>
	<time>2025-08-03T07:10:04.000Z</time>
</trkpt>
<trkpt lat="45.9600340" lon="10.1304730">
	<ele>1544.00</ele>
	<time>2025-08-03T07:10:05.000Z</time>
</trkpt>
<trkpt lat="45.9600420" lon="10.1304640">
	<ele>1544.20</ele>
	<time>2025-08-03T07:10:06.000Z</time>
</trkpt>
<trkpt lat="45.9600550" lon="10.1304550">
	<ele>1544.40</ele>
	<time>2025-08-03T07:10:07.000Z</time>
</trkpt>
<trkpt lat="45.9600720" lon="10.1304480">
	<ele>1544.60</ele>
	<time>2025-08-03T07:10:08.000Z</time>
</trkpt>
<trkpt lat="45.9600870" lon="10.1304410">
	<ele>1544.80</ele>
	<time>2025-08-03T07:10:09.000Z</time>
</trkpt>
<trkpt lat="45.9600860" lon="10.1304370">
	<ele>1545.00</ele>
	<time>2025-08-03T07:10:10.000Z</time>
</trkpt>
<trkpt lat="45.9600920" lon="10.1304360">
	<ele>1545.00</ele>
	<time>2025-08-03T07:10:11.000Z</time>
</trkpt>
<trkpt lat="45.9601060" lon="10.1304390">
	<ele>1545.20</ele>
	<time>2025-08-03T07:10:12.000Z</time>
</trkpt>
<trkpt lat="45.9601220" lon="10.1304410">
	<ele>1545.40</ele>
	<time>2025-08-03T07:10:13.000Z</time>
</trkpt>
<trkpt lat="45.9601370" lon="10.1304380">
	<ele>1545.80</ele>
	<time>2025-08-03T07:10:14.000Z</time>
</trkpt>
<trkpt lat="45.9601460" lon="10.1304290">
	<ele>1546.00</ele>
	<time>2025-08-03T07:10:15.000Z</time>
</trkpt>
<trkpt lat="45.9601440" lon="10.1304180">
	<ele>1546.20</ele>
	<time>2025-08-03T07:10:16.000Z</time>
</trkpt>
<trkpt lat="45.9601380" lon="10.1304060">
	<ele>1546.40</ele>
	<time>2025-08-03T07:10:17.000Z</time>
</trkpt>
<trkpt lat="45.9601350" lon="10.1303970">
	<ele>1546.40</ele>
	<time>2025-08-03T07:10:18.000Z</time>
</trkpt>
<trkpt lat="45.9601380" lon="10.1303960">
	<ele>1546.60</ele>
	<time>2025-08-03T07:10:19.000Z</time>
</trkpt>
<trkpt lat="45.9601480" lon="10.1303960">
	<ele>1546.80</ele>
	<time>2025-08-03T07:10:20.000Z</time>
</trkpt>
<trkpt lat="45.9601580" lon="10.1303970">
	<ele>1547.00</ele>
	<time>2025-08-03T07:10:21.000Z</time>
</trkpt>
<trkpt lat="45.9601600" lon="10.1303900">
	<ele>1547.40</ele>
	<time>2025-08-03T07:10:22.000Z</time>
</trkpt>
<trkpt lat="45.9601560" lon="10.1303790">
	<ele>1547.80</ele>
	<time>2025-08-03T07:10:23.000Z</time>
</trkpt>
<trkpt lat="45.9601570" lon="10.1303760">
	<ele>1548.00</ele>
	<time>2025-08-03T07:10:24.000Z</time>
</trkpt>
<trkpt lat="45.9601740" lon="10.1303870">
	<ele>1548.00</ele>
	<time>2025-08-03T07:10:25.000Z</time>
</trkpt>
<trkpt lat="45.9601870" lon="10.1303870">
	<ele>1548.20</ele>
	<time>2025-08-03T07:10:26.000Z</time>
</trkpt>
<trkpt lat="45.9601950" lon="10.1303820">
	<ele>1548.40</ele>
	<time>2025-08-03T07:10:27.000Z</time>
</trkpt>
<trkpt lat="45.9602000" lon="10.1303660">
	<ele>1548.40</ele>
	<time>2025-08-03T07:10:28.000Z</time>
</trkpt>
<trkpt lat="45.9602110" lon="10.1303540">
	<ele>1548.60</ele>
	<time>2025-08-03T07:10:29.000Z</time>
</trkpt>
<trkpt lat="45.9602190" lon="10.1303440">
	<ele>1548.60</ele>
	<time>2025-08-03T07:10:30.000Z</time>
</trkpt>
<trkpt lat="45.9602310" lon="10.1303340">
	<ele>1548.80</ele>
	<time>2025-08-03T07:10:31.000Z</time>
</trkpt>
<trkpt lat="45.9602310" lon="10.1303190">
	<ele>1549.00</ele>
	<time>2025-08-03T07:10:32.000Z</time>
</trkpt>
<trkpt lat="45.9602300" lon="10.1303060">
	<ele>1549.20</ele>
	<time>2025-08-03T07:10:33.000Z</time>
</trkpt>
<trkpt lat="45.9602270" lon="10.1303030">
	<ele>1549.40</ele>
	<time>2025-08-03T07:10:34.000Z</time>
</trkpt>
<trkpt lat="45.9602230" lon="10.1303010">
	<ele>1549.60</ele>
	<time>2025-08-03T07:10:35.000Z</time>
</trkpt>
<trkpt lat="45.9602240" lon="10.1302820">
	<ele>1549.80</ele>
	<time>2025-08-03T07:10:36.000Z</time>
</trkpt>
<trkpt lat="45.9602240" lon="10.1302600">
	<ele>1550.00</ele>
	<time>2025-08-03T07:10:37.000Z</time>
</trkpt>
<trkpt lat="45.9602240" lon="10.1302510">
	<ele>1550.20</ele>
	<time>2025-08-03T07:10:38.000Z</time>
</trkpt>
<trkpt lat="45.9602250" lon="10.1302510">
	<ele>1550.40</ele>
	<time>2025-08-03T07:10:39.000Z</time>
</trkpt>
<trkpt lat="45.9602280" lon="10.1302500">
	<ele>1550.60</ele>
	<time>2025-08-03T07:10:40.000Z</time>
</trkpt>
<trkpt lat="45.9602280" lon="10.1302520">
	<ele>1550.80</ele>
	<time>2025-08-03T07:10:41.000Z</time>
</trkpt>
<trkpt lat="45.9602360" lon="10.1302420">
	<ele>1551.00</ele>
	<time>2025-08-03T07:10:42.000Z</time>
</trkpt>
<trkpt lat="45.9602310" lon="10.1302220">
	<ele>1551.20</ele>
	<time>2025-08-03T07:10:43.000Z</time>
</trkpt>
<trkpt lat="45.9602190" lon="10.1302030">
	<ele>1551.40</ele>
	<time>2025-08-03T07:10:44.000Z</time>
</trkpt>
<trkpt lat="45.9602180" lon="10.1301980">
	<ele>1551.60</ele>
	<time>2025-08-03T07:10:45.000Z</time>
</trkpt>
<trkpt lat="45.9602100" lon="10.1301820">
	<ele>1551.80</ele>
	<time>2025-08-03T07:10:46.000Z</time>
</trkpt>
<trkpt lat="45.9602130" lon="10.1301760">
	<ele>1552.00</ele>
	<time>2025-08-03T07:10:47.000Z</time>
</trkpt>
<trkpt lat="45.9602180" lon="10.1301640">
	<ele>1552.20</ele>
	<time>2025-08-03T07:10:48.000Z</time>
</trkpt>
<trkpt lat="45.9602240" lon="10.1301570">
	<ele>1552.40</ele>
	<time>2025-08-03T07:10:49.000Z</time>
</trkpt>
<trkpt lat="45.9602310" lon="10.1301490">
	<ele>1552.60</ele>
	<time>2025-08-03T07:10:50.000Z</time>
</trkpt>
<trkpt lat="45.9602360" lon="10.1301380">
	<ele>1553.00</ele>
	<time>2025-08-03T07:10:51.000Z</time>
</trkpt>
<trkpt lat="45.9602400" lon="10.1301250">
	<ele>1553.20</ele>
	<time>2025-08-03T07:10:52.000Z</time>
</trkpt>
<trkpt lat="45.9602510" lon="10.1301240">
	<ele>1553.20</ele>
	<time>2025-08-03T07:10:53.000Z</time>
</trkpt>
<trkpt lat="45.9602680" lon="10.1301290">
	<ele>1553.40</ele>
	<time>2025-08-03T07:10:54.000Z</time>
</trkpt>
<trkpt lat="45.9602800" lon="10.1301240">
	<ele>1553.60</ele>
	<time>2025-08-03T07:10:55.000Z</time>
</trkpt>
<trkpt lat="45.9602850" lon="10.1301150">
	<ele>1553.80</ele>
	<time>2025-08-03T07:10:56.000Z</time>
</trkpt>
<trkpt lat="45.9602890" lon="10.1301020">
	<ele>1554.00</ele>
	<time>2025-08-03T07:10:57.000Z</time>
</trkpt>
<trkpt lat="45.9602940" lon="10.1300920">
	<ele>1554.20</ele>
	<time>2025-08-03T07:10:58.000Z</time>
</trkpt>
<trkpt lat="45.9603070" lon="10.1300880">
	<ele>1554.40</ele>
	<time>2025-08-03T07:10:59.000Z</time>
</trkpt>
<trkpt lat="45.9603260" lon="10.1300810">
	<ele>1554.60</ele>
	<time>2025-08-03T07:11:00.000Z</time>
</trkpt>
<trkpt lat="45.9603400" lon="10.1300730">
	<ele>1554.80</ele>
	<time>2025-08-03T07:11:01.000Z</time>
</trkpt>
<trkpt lat="45.9603570" lon="10.1300670">
	<ele>1554.80</ele>
	<time>2025-08-03T07:11:02.000Z</time>
</trkpt>
<trkpt lat="45.9603670" lon="10.1300670">
	<ele>1555.00</ele>
	<time>2025-08-03T07:11:03.000Z</time>
</trkpt>
<trkpt lat="45.9603700" lon="10.1300670">
	<ele>1555.00</ele>
	<time>2025-08-03T07:11:04.000Z</time>
</trkpt>
<trkpt lat="45.9603910" lon="10.1300560">
	<ele>1555.20</ele>
	<time>2025-08-03T07:11:05.000Z</time>
</trkpt>
<trkpt lat="45.9604080" lon="10.1300390">
	<ele>1555.60</ele>
	<time>2025-08-03T07:11:06.000Z</time>
</trkpt>
<trkpt lat="45.9604220" lon="10.1300340">
	<ele>1555.80</ele>
	<time>2025-08-03T07:11:07.000Z</time>
</trkpt>
<trkpt lat="45.9604260" lon="10.1300310">
	<ele>1556.00</ele>
	<time>2025-08-03T07:11:08.000Z</time>
</trkpt>
<trkpt lat="45.9604380" lon="10.1300260">
	<ele>1556.20</ele>
	<time>2025-08-03T07:11:09.000Z</time>
</trkpt>
<trkpt lat="45.9604500" lon="10.1300150">
	<ele>1556.20</ele>
	<time>2025-08-03T07:11:10.000Z</time>
</trkpt>
<trkpt lat="45.9604520" lon="10.1300110">
	<ele>1556.40</ele>
	<time>2025-08-03T07:11:11.000Z</time>
</trkpt>
<trkpt lat="45.9604550" lon="10.1300150">
	<ele>1556.40</ele>
	<time>2025-08-03T07:11:12.000Z</time>
</trkpt>
<trkpt lat="45.9604580" lon="10.1300160">
	<ele>1556.40</ele>
	<time>2025-08-03T07:11:13.000Z</time>
</trkpt>
<trkpt lat="45.9604580" lon="10.1300210">
	<ele>1556.40</ele>
	<time>2025-08-03T07:11:14.000Z</time>
</trkpt>
<trkpt lat="45.9604590" lon="10.1300230">
	<ele>1556.60</ele>
	<time>2025-08-03T07:11:15.000Z</time>
</trkpt>
<trkpt lat="45.9604600" lon="10.1300200">
	<ele>1556.60</ele>
	<time>2025-08-03T07:11:16.000Z</time>
</trkpt>
<trkpt lat="45.9604620" lon="10.1300170">
	<ele>1557.00</ele>
	<time>2025-08-03T07:11:17.000Z</time>
</trkpt>
<trkpt lat="45.9604610" lon="10.1300140">
	<ele>1557.20</ele>
	<time>2025-08-03T07:11:18.000Z</time>
</trkpt>
<trkpt lat="45.9604640" lon="10.1300150">
	<ele>1557.20</ele>
	<time>2025-08-03T07:11:19.000Z</time>
</trkpt>
<trkpt lat="45.9604650" lon="10.1300200">
	<ele>1557.20</ele>
	<time>2025-08-03T07:11:20.000Z</time>
</trkpt>
<trkpt lat="45.9604670" lon="10.1300240">
	<ele>1557.20</ele>
	<time>2025-08-03T07:11:21.000Z</time>
</trkpt>
<trkpt lat="45.9604630" lon="10.1300300">
	<ele>1557.00</ele>
	<time>2025-08-03T07:11:22.000Z</time>
</trkpt>
<trkpt lat="45.9604600" lon="10.1300300">
	<ele>1556.80</ele>
	<time>2025-08-03T07:11:23.000Z</time>
</trkpt>
<trkpt lat="45.9604550" lon="10.1300480">
	<ele>1556.60</ele>
	<time>2025-08-03T07:11:24.000Z</time>
</trkpt>
<trkpt lat="45.9604510" lon="10.1300510">
	<ele>1556.60</ele>
	<time>2025-08-03T07:11:25.000Z</time>
</trkpt>
<trkpt lat="45.9604530" lon="10.1300510">
	<ele>1556.40</ele>
	<time>2025-08-03T07:11:26.000Z</time>
</trkpt>
<trkpt lat="45.9604530" lon="10.1300510">
	<ele>1556.40</ele>
	<time>2025-08-03T07:11:27.000Z</time>
</trkpt>
<trkpt lat="45.9604530" lon="10.1300510">
	<ele>1556.40</ele>
	<time>2025-08-03T07:11:28.000Z</time>
</trkpt>
<trkpt lat="45.9604530" lon="10.1300510">
	<ele>1556.40</ele>
	<time>2025-08-03T07:11:29.000Z</time>
</trkpt>
<trkpt lat="45.9604530" lon="10.1300510">
	<ele>1556.40</ele>
	<time>2025-08-03T07:11:30.000Z</time>
</trkpt>
<trkpt lat="45.9604530" lon="10.1300510">
	<ele>1556.40</ele>
	<time>2025-08-03T07:11:31.000Z</time>
</trkpt>
<trkpt lat="45.9604530" lon="10.1300510">
	<ele>1556.40</ele>
	<time>2025-08-03T07:11:32.000Z</time>
</trkpt>
<trkpt lat="45.9604530" lon="10.1300510">
	<ele>1556.60</ele>
	<time>2025-08-03T07:11:33.000Z</time>
</trkpt>
<trkpt lat="45.9604530" lon="10.1300510">
	<ele>1556.60</ele>
	<time>2025-08-03T07:11:34.000Z</time>
</trkpt>
<trkpt lat="45.9604530" lon="10.1300510">
	<ele>1556.80</ele>
	<time>2025-08-03T07:11:35.000Z</time>
</trkpt>
<trkpt lat="45.9604540" lon="10.1300510">
	<ele>1556.80</ele>
	<time>2025-08-03T07:11:36.000Z</time>
</trkpt>
<trkpt lat="45.9604550" lon="10.1300510">
	<ele>1556.80</ele>
	<time>2025-08-03T07:11:37.000Z</time>
</trkpt>
<trkpt lat="45.9604550" lon="10.1300510">
	<ele>1557.00</ele>
	<time>2025-08-03T07:11:38.000Z</time>
</trkpt>
<trkpt lat="45.9604550" lon="10.1300510">
	<ele>1557.20</ele>
	<time>2025-08-03T07:11:39.000Z</time>
</trkpt>
<trkpt lat="45.9604550" lon="10.1300510">
	<ele>1557.60</ele>
	<time>2025-08-03T07:11:40.000Z</time>
</trkpt>
<trkpt lat="45.9604550" lon="10.1300510">
	<ele>1557.80</ele>
	<time>2025-08-03T07:11:41.000Z</time>
</trkpt>
<trkpt lat="45.9604550" lon="10.1300570">
	<ele>1557.80</ele>
	<time>2025-08-03T07:11:42.000Z</time>
</trkpt>
<trkpt lat="45.9604550" lon="10.1300660">
	<ele>1558.00</ele>
	<time>2025-08-03T07:11:43.000Z</time>
</trkpt>
<trkpt lat="45.9604550" lon="10.1300690">
	<ele>1558.20</ele>
	<time>2025-08-03T07:11:44.000Z</time>
</trkpt>
<trkpt lat="45.9604550" lon="10.1300690">
	<ele>1558.40</ele>
	<time>2025-08-03T07:11:45.000Z</time>
</trkpt>
<trkpt lat="45.9604550" lon="10.1300710">
	<ele>1558.60</ele>
	<time>2025-08-03T07:11:46.000Z</time>
</trkpt>
<trkpt lat="45.9604550" lon="10.1300720">
	<ele>1558.60</ele>
	<time>2025-08-03T07:11:47.000Z</time>
</trkpt>
<trkpt lat="45.9604550" lon="10.1300720">
	<ele>1558.80</ele>
	<time>2025-08-03T07:11:48.000Z</time>
</trkpt>
<trkpt lat="45.9604540" lon="10.1300720">
	<ele>1559.00</ele>
	<time>2025-08-03T07:11:49.000Z</time>
</trkpt>
<trkpt lat="45.9604530" lon="10.1300730">
	<ele>1559.20</ele>
	<time>2025-08-03T07:11:50.000Z</time>
</trkpt>
<trkpt lat="45.9604520" lon="10.1300760">
	<ele>1559.40</ele>
	<time>2025-08-03T07:11:51.000Z</time>
</trkpt>
<trkpt lat="45.9604510" lon="10.1300780">
	<ele>1559.60</ele>
	<time>2025-08-03T07:11:52.000Z</time>
</trkpt>
<trkpt lat="45.9604510" lon="10.1300790">
	<ele>1560.00</ele>
	<time>2025-08-03T07:11:53.000Z</time>
</trkpt>
<trkpt lat="45.9604520" lon="10.1300810">
	<ele>1560.00</ele>
	<time>2025-08-03T07:11:54.000Z</time>
</trkpt>
<trkpt lat="45.9604520" lon="10.1300920">
	<ele>1560.20</ele>
	<time>2025-08-03T07:11:55.000Z</time>
</trkpt>
<trkpt lat="45.9604530" lon="10.1301050">
	<ele>1560.20</ele>
	<time>2025-08-03T07:11:56.000Z</time>
</trkpt>
<trkpt lat="45.9604540" lon="10.1301150">
	<ele>1560.60</ele>
	<time>2025-08-03T07:11:57.000Z</time>
</trkpt>
<trkpt lat="45.9604650" lon="10.1301270">
	<ele>1561.00</ele>
	<time>2025-08-03T07:11:58.000Z</time>
</trkpt>
<trkpt lat="45.9604860" lon="10.1301300">
	<ele>1561.20</ele>
	<time>2025-08-03T07:11:59.000Z</time>
</trkpt>
<trkpt lat="45.9605050" lon="10.1301410">
	<ele>1561.40</ele>
	<time>2025-08-03T07:12:00.000Z</time>
</trkpt>
<trkpt lat="45.9605210" lon="10.1301480">
	<ele>1561.40</ele>
	<time>2025-08-03T07:12:01.000Z</time>
</trkpt>
<trkpt lat="45.9605350" lon="10.1301520">
	<ele>1561.60</ele>
	<time>2025-08-03T07:12:02.000Z</time>
</trkpt>
<trkpt lat="45.9605490" lon="10.1301600">
	<ele>1561.80</ele>
	<time>2025-08-03T07:12:03.000Z</time>
</trkpt>
<trkpt lat="45.9605590" lon="10.1301650">
	<ele>1562.00</ele>
	<time>2025-08-03T07:12:04.000Z</time>
</trkpt>
<trkpt lat="45.9605660" lon="10.1301740">
	<ele>1562.20</ele>
	<time>2025-08-03T07:12:05.000Z</time>
</trkpt>
<trkpt lat="45.9605660" lon="10.1301850">
	<ele>1562.20</ele>
	<time>2025-08-03T07:12:06.000Z</time>
</trkpt>
<trkpt lat="45.9605680" lon="10.1301930">
	<ele>1562.40</ele>
	<time>2025-08-03T07:12:07.000Z</time>
</trkpt>
<trkpt lat="45.9605750" lon="10.1301990">
	<ele>1562.60</ele>
	<time>2025-08-03T07:12:08.000Z</time>
</trkpt>
<trkpt lat="45.9605780" lon="10.1302110">
	<ele>1562.80</ele>
	<time>2025-08-03T07:12:09.000Z</time>
</trkpt>
<trkpt lat="45.9605790" lon="10.1302200">
	<ele>1562.80</ele>
	<time>2025-08-03T07:12:10.000Z</time>
</trkpt>
<trkpt lat="45.9605770" lon="10.1302200">
	<ele>1563.40</ele>
	<time>2025-08-03T07:12:11.000Z</time>
</trkpt>
<trkpt lat="45.9605800" lon="10.1302170">
	<ele>1563.60</ele>
	<time>2025-08-03T07:12:12.000Z</time>
</trkpt>
<trkpt lat="45.9605820" lon="10.1302190">
	<ele>1563.80</ele>
	<time>2025-08-03T07:12:13.000Z</time>
</trkpt>
<trkpt lat="45.9605880" lon="10.1302220">
	<ele>1564.00</ele>
	<time>2025-08-03T07:12:14.000Z</time>
</trkpt>
<trkpt lat="45.9605930" lon="10.1302230">
	<ele>1564.00</ele>
	<time>2025-08-03T07:12:15.000Z</time>
</trkpt>
<trkpt lat="45.9606020" lon="10.1302240">
	<ele>1564.20</ele>
	<time>2025-08-03T07:12:16.000Z</time>
</trkpt>
<trkpt lat="45.9606040" lon="10.1302240">
	<ele>1564.40</ele>
	<time>2025-08-03T07:12:17.000Z</time>
</trkpt>
<trkpt lat="45.9606060" lon="10.1302260">
	<ele>1564.60</ele>
	<time>2025-08-03T07:12:18.000Z</time>
</trkpt>
<trkpt lat="45.9606080" lon="10.1302280">
	<ele>1564.80</ele>
	<time>2025-08-03T07:12:19.000Z</time>
</trkpt>
<trkpt lat="45.9606410" lon="10.1302430">
	<ele>1565.00</ele>
	<time>2025-08-03T07:12:20.000Z</time>
</trkpt>
<trkpt lat="45.9606500" lon="10.1302410">
	<ele>1565.40</ele>
	<time>2025-08-03T07:12:21.000Z</time>
</trkpt>
<trkpt lat="45.9606590" lon="10.1302510">
	<ele>1565.80</ele>
	<time>2025-08-03T07:12:22.000Z</time>
</trkpt>
<trkpt lat="45.9606610" lon="10.1302540">
	<ele>1566.00</ele>
	<time>2025-08-03T07:12:23.000Z</time>
</trkpt>
<trkpt lat="45.9606580" lon="10.1302580">
	<ele>1566.00</ele>
	<time>2025-08-03T07:12:24.000Z</time>
</trkpt>
<trkpt lat="45.9606630" lon="10.1302550">
	<ele>1566.20</ele>
	<time>2025-08-03T07:12:25.000Z</time>
</trkpt>
<trkpt lat="45.9606660" lon="10.1302540">
	<ele>1566.40</ele>
	<time>2025-08-03T07:12:26.000Z</time>
</trkpt>
<trkpt lat="45.9606670" lon="10.1302510">
	<ele>1566.60</ele>
	<time>2025-08-03T07:12:27.000Z</time>
</trkpt>
<trkpt lat="45.9606640" lon="10.1302610">
	<ele>1566.60</ele>
	<time>2025-08-03T07:12:28.000Z</time>
</trkpt>
<trkpt lat="45.9606650" lon="10.1302620">
	<ele>1567.00</ele>
	<time>2025-08-03T07:12:29.000Z</time>
</trkpt>
<trkpt lat="45.9606710" lon="10.1302770">
	<ele>1567.20</ele>
	<time>2025-08-03T07:12:30.000Z</time>
</trkpt>
<trkpt lat="45.9606840" lon="10.1302830">
	<ele>1567.40</ele>
	<time>2025-08-03T07:12:31.000Z</time>
</trkpt>
<trkpt lat="45.9607020" lon="10.1302800">
	<ele>1567.60</ele>
	<time>2025-08-03T07:12:32.000Z</time>
</trkpt>
<trkpt lat="45.9607110" lon="10.1302800">
	<ele>1567.80</ele>
	<time>2025-08-03T07:12:33.000Z</time>
</trkpt>
<trkpt lat="45.9607230" lon="10.1302820">
	<ele>1567.80</ele>
	<time>2025-08-03T07:12:34.000Z</time>
</trkpt>
<trkpt lat="45.9607380" lon="10.1302830">
	<ele>1568.00</ele>
	<time>2025-08-03T07:12:35.000Z</time>
</trkpt>
<trkpt lat="45.9607420" lon="10.1302830">
	<ele>1568.00</ele>
	<time>2025-08-03T07:12:36.000Z</time>
</trkpt>
<trkpt lat="45.9607500" lon="10.1302880">
	<ele>1568.20</ele>
	<time>2025-08-03T07:12:37.000Z</time>
</trkpt>
<trkpt lat="45.9607550" lon="10.1302980">
	<ele>1568.40</ele>
	<time>2025-08-03T07:12:38.000Z</time>
</trkpt>
<trkpt lat="45.9607590" lon="10.1303120">
	<ele>1568.60</ele>
	<time>2025-08-03T07:12:39.000Z</time>
</trkpt>
<trkpt lat="45.9607620" lon="10.1303260">
	<ele>1568.60</ele>
	<time>2025-08-03T07:12:40.000Z</time>
</trkpt>
<trkpt lat="45.9607660" lon="10.1303420">
	<ele>1568.80</ele>
	<time>2025-08-03T07:12:41.000Z</time>
</trkpt>
<trkpt lat="45.9607700" lon="10.1303570">
	<ele>1569.00</ele>
	<time>2025-08-03T07:12:42.000Z</time>
</trkpt>
<trkpt lat="45.9607730" lon="10.1303760">
	<ele>1569.20</ele>
	<time>2025-08-03T07:12:43.000Z</time>
</trkpt>
<trkpt lat="45.9607690" lon="10.1303880">
	<ele>1569.40</ele>
	<time>2025-08-03T07:12:44.000Z</time>
</trkpt>
<trkpt lat="45.9607690" lon="10.1303980">
	<ele>1569.60</ele>
	<time>2025-08-03T07:12:45.000Z</time>
</trkpt>
<trkpt lat="45.9607610" lon="10.1304080">
	<ele>1569.80</ele>
	<time>2025-08-03T07:12:46.000Z</time>
</trkpt>
<trkpt lat="45.9607570" lon="10.1304220">
	<ele>1570.00</ele>
	<time>2025-08-03T07:12:47.000Z</time>
</trkpt>
<trkpt lat="45.9607510" lon="10.1304280">
	<ele>1570.20</ele>
	<time>2025-08-03T07:12:48.000Z</time>
</trkpt>
<trkpt lat="45.9607370" lon="10.1304300">
	<ele>1570.40</ele>
	<time>2025-08-03T07:12:49.000Z</time>
</trkpt>
<trkpt lat="45.9607200" lon="10.1304300">
	<ele>1570.60</ele>
	<time>2025-08-03T07:12:50.000Z</time>
</trkpt>
<trkpt lat="45.9607190" lon="10.1304300">
	<ele>1570.80</ele>
	<time>2025-08-03T07:12:51.000Z</time>
</trkpt>
<trkpt lat="45.9607200" lon="10.1304280">
	<ele>1571.00</ele>
	<time>2025-08-03T07:12:52.000Z</time>
</trkpt>
<trkpt lat="45.9607170" lon="10.1304260">
	<ele>1571.00</ele>
	<time>2025-08-03T07:12:53.000Z</time>
</trkpt>
<trkpt lat="45.9607180" lon="10.1304260">
	<ele>1571.20</ele>
	<time>2025-08-03T07:12:54.000Z</time>
</trkpt>
<trkpt lat="45.9607160" lon="10.1304270">
	<ele>1571.20</ele>
	<time>2025-08-03T07:12:55.000Z</time>
</trkpt>
<trkpt lat="45.9607130" lon="10.1304300">
	<ele>1571.40</ele>
	<time>2025-08-03T07:12:56.000Z</time>
</trkpt>
<trkpt lat="45.9607050" lon="10.1304280">
	<ele>1571.60</ele>
	<time>2025-08-03T07:12:57.000Z</time>
</trkpt>
<trkpt lat="45.9606980" lon="10.1304280">
	<ele>1571.60</ele>
	<time>2025-08-03T07:12:58.000Z</time>
</trkpt>
<trkpt lat="45.9607010" lon="10.1304330">
	<ele>1571.80</ele>
	<time>2025-08-03T07:12:59.000Z</time>
</trkpt>
<trkpt lat="45.9607040" lon="10.1304380">
	<ele>1571.80</ele>
	<time>2025-08-03T07:13:00.000Z</time>
</trkpt>
<trkpt lat="45.9607040" lon="10.1304400">
	<ele>1572.00</ele>
	<time>2025-08-03T07:13:01.000Z</time>
</trkpt>
<trkpt lat="45.9607040" lon="10.1304400">
	<ele>1572.20</ele>
	<time>2025-08-03T07:13:02.000Z</time>
</trkpt>
<trkpt lat="45.9606960" lon="10.1304460">
	<ele>1572.40</ele>
	<time>2025-08-03T07:13:03.000Z</time>
</trkpt>
<trkpt lat="45.9606970" lon="10.1304490">
	<ele>1572.60</ele>
	<time>2025-08-03T07:13:04.000Z</time>
</trkpt>
<trkpt lat="45.9606960" lon="10.1304520">
	<ele>1572.80</ele>
	<time>2025-08-03T07:13:05.000Z</time>
</trkpt>
<trkpt lat="45.9606900" lon="10.1304540">
	<ele>1573.00</ele>
	<time>2025-08-03T07:13:06.000Z</time>
</trkpt>
<trkpt lat="45.9606870" lon="10.1304570">
	<ele>1573.00</ele>
	<time>2025-08-03T07:13:07.000Z</time>
</trkpt>
<trkpt lat="45.9606820" lon="10.1304610">
	<ele>1573.20</ele>
	<time>2025-08-03T07:13:08.000Z</time>
</trkpt>
<trkpt lat="45.9606790" lon="10.1304680">
	<ele>1573.40</ele>
	<time>2025-08-03T07:13:09.000Z</time>
</trkpt>
<trkpt lat="45.9606730" lon="10.1304740">
	<ele>1573.60</ele>
	<time>2025-08-03T07:13:10.000Z</time>
</trkpt>
<trkpt lat="45.9606720" lon="10.1304770">
	<ele>1574.00</ele>
	<time>2025-08-03T07:13:11.000Z</time>
</trkpt>
<trkpt lat="45.9606740" lon="10.1304880">
	<ele>1574.20</ele>
	<time>2025-08-03T07:13:12.000Z</time>
</trkpt>
<trkpt lat="45.9606750" lon="10.1304890">
	<ele>1574.40</ele>
	<time>2025-08-03T07:13:13.000Z</time>
</trkpt>
<trkpt lat="45.9606790" lon="10.1305030">
	<ele>1574.60</ele>
	<time>2025-08-03T07:13:14.000Z</time>
</trkpt>
<trkpt lat="45.9606730" lon="10.1305120">
	<ele>1574.80</ele>
	<time>2025-08-03T07:13:15.000Z</time>
</trkpt>
<trkpt lat="45.9606630" lon="10.1305140">
	<ele>1574.80</ele>
	<time>2025-08-03T07:13:16.000Z</time>
</trkpt>
<trkpt lat="45.9606530" lon="10.1305160">
	<ele>1575.00</ele>
	<time>2025-08-03T07:13:17.000Z</time>
</trkpt>
<trkpt lat="45.9606510" lon="10.1305180">
	<ele>1575.20</ele>
	<time>2025-08-03T07:13:18.000Z</time>
</trkpt>
<trkpt lat="45.9606380" lon="10.1305220">
	<ele>1575.20</ele>
	<time>2025-08-03T07:13:19.000Z</time>
</trkpt>
<trkpt lat="45.9606290" lon="10.1305300">
	<ele>1575.60</ele>
	<time>2025-08-03T07:13:20.000Z</time>
</trkpt>
<trkpt lat="45.9606240" lon="10.1305390">
	<ele>1575.80</ele>
	<time>2025-08-03T07:13:21.000Z</time>
</trkpt>
<trkpt lat="45.9606160" lon="10.1305510">
	<ele>1576.00</ele>
	<time>2025-08-03T07:13:22.000Z</time>
</trkpt>
<trkpt lat="45.9606060" lon="10.1305610">
	<ele>1576.20</ele>
	<time>2025-08-03T07:13:23.000Z</time>
</trkpt>
<trkpt lat="45.9606030" lon="10.1305710">
	<ele>1576.40</ele>
	<time>2025-08-03T07:13:24.000Z</time>
</trkpt>
<trkpt lat="45.9606060" lon="10.1305850">
	<ele>1576.40</ele>
	<time>2025-08-03T07:13:25.000Z</time>
</trkpt>
<trkpt lat="45.9606100" lon="10.1306040">
	<ele>1576.60</ele>
	<time>2025-08-03T07:13:26.000Z</time>
</trkpt>
<trkpt lat="45.9606070" lon="10.1306170">
	<ele>1576.80</ele>
	<time>2025-08-03T07:13:27.000Z</time>
</trkpt>
<trkpt lat="45.9605980" lon="10.1306260">
	<ele>1577.20</ele>
	<time>2025-08-03T07:13:28.000Z</time>
</trkpt>
<trkpt lat="45.9605940" lon="10.1306360">
	<ele>1577.20</ele>
	<time>2025-08-03T07:13:29.000Z</time>
</trkpt>
<trkpt lat="45.9605870" lon="10.1306430">
	<ele>1577.40</ele>
	<time>2025-08-03T07:13:30.000Z</time>
</trkpt>
<trkpt lat="45.9605850" lon="10.1306470">
	<ele>1577.60</ele>
	<time>2025-08-03T07:13:31.000Z</time>
</trkpt>
<trkpt lat="45.9605870" lon="10.1306470">
	<ele>1577.80</ele>
	<time>2025-08-03T07:13:32.000Z</time>
</trkpt>
<trkpt lat="45.9605810" lon="10.1306520">
	<ele>1578.00</ele>
	<time>2025-08-03T07:13:33.000Z</time>
</trkpt>
<trkpt lat="45.9605770" lon="10.1306550">
	<ele>1578.20</ele>
	<time>2025-08-03T07:13:34.000Z</time>
</trkpt>
<trkpt lat="45.9605730" lon="10.1306590">
	<ele>1578.40</ele>
	<time>2025-08-03T07:13:35.000Z</time>
</trkpt>
<trkpt lat="45.9605760" lon="10.1306620">
	<ele>1578.60</ele>
	<time>2025-08-03T07:13:36.000Z</time>
</trkpt>
<trkpt lat="45.9605790" lon="10.1306700">
	<ele>1578.80</ele>
	<time>2025-08-03T07:13:37.000Z</time>
</trkpt>
<trkpt lat="45.9605790" lon="10.1306770">
	<ele>1578.80</ele>
	<time>2025-08-03T07:13:38.000Z</time>
</trkpt>
<trkpt lat="45.9605830" lon="10.1306840">
	<ele>1579.00</ele>
	<time>2025-08-03T07:13:39.000Z</time>
</trkpt>
<trkpt lat="45.9605820" lon="10.1306920">
	<ele>1579.20</ele>
	<time>2025-08-03T07:13:40.000Z</time>
</trkpt>
<trkpt lat="45.9605860" lon="10.1307020">
	<ele>1579.40</ele>
	<time>2025-08-03T07:13:41.000Z</time>
</trkpt>
<trkpt lat="45.9605880" lon="10.1307190">
	<ele>1579.60</ele>
	<time>2025-08-03T07:13:42.000Z</time>
</trkpt>
<trkpt lat="45.9605920" lon="10.1307330">
	<ele>1579.80</ele>
	<time>2025-08-03T07:13:43.000Z</time>
</trkpt>
<trkpt lat="45.9605960" lon="10.1307550">
	<ele>1580.00</ele>
	<time>2025-08-03T07:13:44.000Z</time>
</trkpt>
<trkpt lat="45.9605950" lon="10.1307640">
	<ele>1580.20</ele>
	<time>2025-08-03T07:13:45.000Z</time>
</trkpt>
<trkpt lat="45.9605930" lon="10.1307680">
	<ele>1580.40</ele>
	<time>2025-08-03T07:13:46.000Z</time>
</trkpt>
<trkpt lat="45.9605930" lon="10.1307720">
	<ele>1580.60</ele>
	<time>2025-08-03T07:13:47.000Z</time>
</trkpt>
<trkpt lat="45.9606000" lon="10.1307740">
	<ele>1580.80</ele>
	<time>2025-08-03T07:13:48.000Z</time>
</trkpt>
<trkpt lat="45.9605990" lon="10.1307750">
	<ele>1581.00</ele>
	<time>2025-08-03T07:13:49.000Z</time>
</trkpt>
<trkpt lat="45.9606070" lon="10.1307680">
	<ele>1581.20</ele>
	<time>2025-08-03T07:13:50.000Z</time>
</trkpt>
<trkpt lat="45.9606080" lon="10.1307640">
	<ele>1581.20</ele>
	<time>2025-08-03T07:13:51.000Z</time>
</trkpt>
<trkpt lat="45.9606120" lon="10.1307720">
	<ele>1581.40</ele>
	<time>2025-08-03T07:13:52.000Z</time>
</trkpt>
<trkpt lat="45.9606220" lon="10.1307740">
	<ele>1581.40</ele>
	<time>2025-08-03T07:13:53.000Z</time>
</trkpt>
<trkpt lat="45.9606230" lon="10.1307750">
	<ele>1581.40</ele>
	<time>2025-08-03T07:13:54.000Z</time>
</trkpt>
<trkpt lat="45.9606280" lon="10.1307860">
	<ele>1581.40</ele>
	<time>2025-08-03T07:13:55.000Z</time>
</trkpt>
<trkpt lat="45.9606400" lon="10.1307930">
	<ele>1581.60</ele>
	<time>2025-08-03T07:13:56.000Z</time>
</trkpt>
<trkpt lat="45.9606570" lon="10.1308040">
	<ele>1581.80</ele>
	<time>2025-08-03T07:13:57.000Z</time>
</trkpt>
<trkpt lat="45.9606680" lon="10.1308020">
	<ele>1581.80</ele>
	<time>2025-08-03T07:13:58.000Z</time>
</trkpt>
<trkpt lat="45.9606730" lon="10.1308000">
	<ele>1581.80</ele>
	<time>2025-08-03T07:13:59.000Z</time>
</trkpt>
<trkpt lat="45.9606780" lon="10.1308080">
	<ele>1582.00</ele>
	<time>2025-08-03T07:14:00.000Z</time>
</trkpt>
<trkpt lat="45.9606810" lon="10.1308090">
	<ele>1582.00</ele>
	<time>2025-08-03T07:14:01.000Z</time>
</trkpt>
<trkpt lat="45.9606700" lon="10.1308520">
	<ele>1582.20</ele>
	<time>2025-08-03T07:14:02.000Z</time>
</trkpt>
<trkpt lat="45.9606730" lon="10.1308550">
	<ele>1582.60</ele>
	<time>2025-08-03T07:14:03.000Z</time>
</trkpt>
<trkpt lat="45.9606690" lon="10.1308710">
	<ele>1582.80</ele>
	<time>2025-08-03T07:14:04.000Z</time>
</trkpt>
<trkpt lat="45.9606660" lon="10.1308810">
	<ele>1583.00</ele>
	<time>2025-08-03T07:14:05.000Z</time>
</trkpt>
<trkpt lat="45.9606680" lon="10.1308830">
	<ele>1583.20</ele>
	<time>2025-08-03T07:14:06.000Z</time>
</trkpt>
<trkpt lat="45.9606750" lon="10.1308850">
	<ele>1583.20</ele>
	<time>2025-08-03T07:14:07.000Z</time>
</trkpt>
<trkpt lat="45.9606770" lon="10.1308870">
	<ele>1583.40</ele>
	<time>2025-08-03T07:14:08.000Z</time>
</trkpt>
<trkpt lat="45.9606740" lon="10.1308870">
	<ele>1583.40</ele>
	<time>2025-08-03T07:14:09.000Z</time>
</trkpt>
<trkpt lat="45.9606780" lon="10.1308840">
	<ele>1583.60</ele>
	<time>2025-08-03T07:14:10.000Z</time>
</trkpt>
<trkpt lat="45.9606780" lon="10.1308910">
	<ele>1583.80</ele>
	<time>2025-08-03T07:14:11.000Z</time>
</trkpt>
<trkpt lat="45.9606790" lon="10.1309050">
	<ele>1584.00</ele>
	<time>2025-08-03T07:14:12.000Z</time>
</trkpt>
<trkpt lat="45.9606850" lon="10.1309190">
	<ele>1584.20</ele>
	<time>2025-08-03T07:14:13.000Z</time>
</trkpt>
<trkpt lat="45.9606890" lon="10.1309320">
	<ele>1584.20</ele>
	<time>2025-08-03T07:14:14.000Z</time>
</trkpt>
<trkpt lat="45.9606990" lon="10.1309400">
	<ele>1584.40</ele>
	<time>2025-08-03T07:14:15.000Z</time>
</trkpt>
<trkpt lat="45.9607070" lon="10.1309430">
	<ele>1584.60</ele>
	<time>2025-08-03T07:14:16.000Z</time>
</trkpt>
<trkpt lat="45.9607120" lon="10.1309460">
	<ele>1584.80</ele>
	<time>2025-08-03T07:14:17.000Z</time>
</trkpt>
<trkpt lat="45.9607170" lon="10.1309490">
	<ele>1585.00</ele>
	<time>2025-08-03T07:14:18.000Z</time>
</trkpt>
<trkpt lat="45.9607200" lon="10.1309540">
	<ele>1585.20</ele>
	<time>2025-08-03T07:14:19.000Z</time>
</trkpt>
<trkpt lat="45.9607200" lon="10.1309590">
	<ele>1585.40</ele>
	<time>2025-08-03T07:14:20.000Z</time>
</trkpt>
<trkpt lat="45.9607200" lon="10.1309640">
	<ele>1585.60</ele>
	<time>2025-08-03T07:14:21.000Z</time>
</trkpt>
<trkpt lat="45.9607190" lon="10.1309710">
	<ele>1585.60</ele>
	<time>2025-08-03T07:14:22.000Z</time>
</trkpt>
<trkpt lat="45.9607190" lon="10.1309720">
	<ele>1585.80</ele>
	<time>2025-08-03T07:14:23.000Z</time>
</trkpt>
<trkpt lat="45.9607230" lon="10.1309810">
	<ele>1586.00</ele>
	<time>2025-08-03T07:14:24.000Z</time>
</trkpt>
<trkpt lat="45.9607220" lon="10.1309860">
	<ele>1586.20</ele>
	<time>2025-08-03T07:14:25.000Z</time>
</trkpt>
<trkpt lat="45.9607220" lon="10.1309910">
	<ele>1586.60</ele>
	<time>2025-08-03T07:14:26.000Z</time>
</trkpt>
<trkpt lat="45.9607210" lon="10.1309970">
	<ele>1586.80</ele>
	<time>2025-08-03T07:14:27.000Z</time>
</trkpt>
<trkpt lat="45.9607300" lon="10.1310000">
	<ele>1586.80</ele>
	<time>2025-08-03T07:14:28.000Z</time>
</trkpt>
<trkpt lat="45.9607330" lon="10.1310060">
	<ele>1587.00</ele>
	<time>2025-08-03T07:14:29.000Z</time>
</trkpt>
<trkpt lat="45.9607320" lon="10.1310080">
	<ele>1587.20</ele>
	<time>2025-08-03T07:14:30.000Z</time>
</trkpt>
<trkpt lat="45.9607260" lon="10.1310120">
	<ele>1587.40</ele>
	<time>2025-08-03T07:14:31.000Z</time>
</trkpt>
<trkpt lat="45.9607280" lon="10.1310150">
	<ele>1587.60</ele>
	<time>2025-08-03T07:14:32.000Z</time>
</trkpt>
<trkpt lat="45.9607310" lon="10.1310190">
	<ele>1588.00</ele>
	<time>2025-08-03T07:14:33.000Z</time>
</trkpt>
<trkpt lat="45.9607310" lon="10.1310220">
	<ele>1588.20</ele>
	<time>2025-08-03T07:14:34.000Z</time>
</trkpt>
<trkpt lat="45.9607390" lon="10.1310290">
	<ele>1588.40</ele>
	<time>2025-08-03T07:14:35.000Z</time>
</trkpt>
<trkpt lat="45.9607440" lon="10.1310240">
	<ele>1588.60</ele>
	<time>2025-08-03T07:14:36.000Z</time>
</trkpt>
<trkpt lat="45.9607410" lon="10.1310130">
	<ele>1588.80</ele>
	<time>2025-08-03T07:14:37.000Z</time>
</trkpt>
<trkpt lat="45.9607400" lon="10.1310010">
	<ele>1589.00</ele>
	<time>2025-08-03T07:14:38.000Z</time>
</trkpt>
<trkpt lat="45.9607320" lon="10.1309900">
	<ele>1589.20</ele>
	<time>2025-08-03T07:14:39.000Z</time>
</trkpt>
<trkpt lat="45.9607370" lon="10.1309900">
	<ele>1589.40</ele>
	<time>2025-08-03T07:14:40.000Z</time>
</trkpt>
<trkpt lat="45.9607400" lon="10.1310020">
	<ele>1589.60</ele>
	<time>2025-08-03T07:14:41.000Z</time>
</trkpt>
<trkpt lat="45.9607440" lon="10.1310040">
	<ele>1589.60</ele>
	<time>2025-08-03T07:14:42.000Z</time>
</trkpt>
<trkpt lat="45.9607390" lon="10.1309940">
	<ele>1589.80</ele>
	<time>2025-08-03T07:14:43.000Z</time>
</trkpt>
<trkpt lat="45.9607370" lon="10.1309890">
	<ele>1590.00</ele>
	<time>2025-08-03T07:14:44.000Z</time>
</trkpt>
<trkpt lat="45.9607330" lon="10.1309880">
	<ele>1590.20</ele>
	<time>2025-08-03T07:14:45.000Z</time>
</trkpt>
<trkpt lat="45.9607320" lon="10.1309870">
	<ele>1590.20</ele>
	<time>2025-08-03T07:14:46.000Z</time>
</trkpt>
<trkpt lat="45.9607350" lon="10.1309860">
	<ele>1590.40</ele>
	<time>2025-08-03T07:14:47.000Z</time>
</trkpt>
<trkpt lat="45.9607430" lon="10.1309850">
	<ele>1590.60</ele>
	<time>2025-08-03T07:14:48.000Z</time>
</trkpt>
<trkpt lat="45.9607450" lon="10.1309840">
	<ele>1590.80</ele>
	<time>2025-08-03T07:14:49.000Z</time>
</trkpt>
<trkpt lat="45.9607560" lon="10.1309910">
	<ele>1591.00</ele>
	<time>2025-08-03T07:14:50.000Z</time>
</trkpt>
<trkpt lat="45.9607590" lon="10.1309920">
	<ele>1591.00</ele>
	<time>2025-08-03T07:14:51.000Z</time>
</trkpt>
<trkpt lat="45.9607690" lon="10.1310110">
	<ele>1591.20</ele>
	<time>2025-08-03T07:14:52.000Z</time>
</trkpt>
<trkpt lat="45.9607840" lon="10.1310180">
	<ele>1591.40</ele>
	<time>2025-08-03T07:14:53.000Z</time>
</trkpt>
<trkpt lat="45.9607940" lon="10.1310340">
	<ele>1591.60</ele>
	<time>2025-08-03T07:14:54.000Z</time>
</trkpt>
<trkpt lat="45.9607940" lon="10.1310510">
	<ele>1591.60</ele>
	<time>2025-08-03T07:14:55.000Z</time>
</trkpt>
<trkpt lat="45.9607910" lon="10.1310950">
	<ele>1591.80</ele>
	<time>2025-08-03T07:14:56.000Z</time>
</trkpt>
<trkpt lat="45.9607930" lon="10.1311180">
	<ele>1592.00</ele>
	<time>2025-08-03T07:14:57.000Z</time>
</trkpt>
<trkpt lat="45.9607950" lon="10.1311200">
	<ele>1592.20</ele>
	<time>2025-08-03T07:14:58.000Z</time>
</trkpt>
<trkpt lat="45.9608010" lon="10.1311320">
	<ele>1592.60</ele>
	<time>2025-08-03T07:14:59.000Z</time>
</trkpt>
<trkpt lat="45.9608170" lon="10.1311360">
	<ele>1592.80</ele>
	<time>2025-08-03T07:15:00.000Z</time>
</trkpt>
<trkpt lat="45.9608430" lon="10.1311300">
	<ele>1593.00</ele>
	<time>2025-08-03T07:15:01.000Z</time>
</trkpt>
<trkpt lat="45.9608730" lon="10.1311190">
	<ele>1593.20</ele>
	<time>2025-08-03T07:15:02.000Z</time>
</trkpt>
<trkpt lat="45.9608880" lon="10.1311180">
	<ele>1593.20</ele>
	<time>2025-08-03T07:15:03.000Z</time>
</trkpt>
<trkpt lat="45.9608970" lon="10.1311220">
	<ele>1593.40</ele>
	<time>2025-08-03T07:15:04.000Z</time>
</trkpt>
<trkpt lat="45.9609030" lon="10.1311310">
	<ele>1593.60</ele>
	<time>2025-08-03T07:15:05.000Z</time>
</trkpt>
<trkpt lat="45.9609050" lon="10.1311280">
	<ele>1593.80</ele>
	<time>2025-08-03T07:15:06.000Z</time>
</trkpt>
<trkpt lat="45.9608960" lon="10.1311190">
	<ele>1594.00</ele>
	<time>2025-08-03T07:15:07.000Z</time>
</trkpt>
<trkpt lat="45.9608910" lon="10.1311120">
	<ele>1594.20</ele>
	<time>2025-08-03T07:15:08.000Z</time>
</trkpt>
<trkpt lat="45.9608860" lon="10.1311030">
	<ele>1594.20</ele>
	<time>2025-08-03T07:15:09.000Z</time>
</trkpt>
<trkpt lat="45.9608840" lon="10.1310990">
	<ele>1594.40</ele>
	<time>2025-08-03T07:15:10.000Z</time>
</trkpt>
<trkpt lat="45.9608780" lon="10.1310910">
	<ele>1594.60</ele>
	<time>2025-08-03T07:15:11.000Z</time>
</trkpt>
<trkpt lat="45.9608710" lon="10.1310920">
	<ele>1594.80</ele>
	<time>2025-08-03T07:15:12.000Z</time>
</trkpt>
<trkpt lat="45.9608670" lon="10.1310940">
	<ele>1595.00</ele>
	<time>2025-08-03T07:15:13.000Z</time>
</trkpt>
<trkpt lat="45.9608590" lon="10.1310910">
	<ele>1595.40</ele>
	<time>2025-08-03T07:15:14.000Z</time>
</trkpt>
<trkpt lat="45.9608600" lon="10.1310880">
	<ele>1595.60</ele>
	<time>2025-08-03T07:15:15.000Z</time>
</trkpt>
<trkpt lat="45.9608730" lon="10.1310900">
	<ele>1595.60</ele>
	<time>2025-08-03T07:15:16.000Z</time>
</trkpt>
<trkpt lat="45.9608690" lon="10.1310830">
	<ele>1595.80</ele>
	<time>2025-08-03T07:15:17.000Z</time>
</trkpt>
<trkpt lat="45.9608740" lon="10.1310850">
	<ele>1595.80</ele>
	<time>2025-08-03T07:15:18.000Z</time>
</trkpt>
<trkpt lat="45.9608710" lon="10.1310780">
	<ele>1596.00</ele>
	<time>2025-08-03T07:15:19.000Z</time>
</trkpt>
<trkpt lat="45.9608770" lon="10.1310780">
	<ele>1596.20</ele>
	<time>2025-08-03T07:15:20.000Z</time>
</trkpt>
<trkpt lat="45.9608800" lon="10.1310800">
	<ele>1596.40</ele>
	<time>2025-08-03T07:15:21.000Z</time>
</trkpt>
<trkpt lat="45.9608830" lon="10.1310870">
	<ele>1596.60</ele>
	<time>2025-08-03T07:15:22.000Z</time>
</trkpt>
<trkpt lat="45.9608800" lon="10.1310900">
	<ele>1596.60</ele>
	<time>2025-08-03T07:15:23.000Z</time>
</trkpt>
<trkpt lat="45.9608740" lon="10.1310970">
	<ele>1597.00</ele>
	<time>2025-08-03T07:15:24.000Z</time>
</trkpt>
<trkpt lat="45.9608680" lon="10.1311040">
	<ele>1597.20</ele>
	<time>2025-08-03T07:15:25.000Z</time>
</trkpt>
<trkpt lat="45.9608590" lon="10.1311080">
	<ele>1597.40</ele>
	<time>2025-08-03T07:15:26.000Z</time>
</trkpt>
<trkpt lat="45.9608620" lon="10.1311090">
	<ele>1597.60</ele>
	<time>2025-08-03T07:15:27.000Z</time>
</trkpt>
<trkpt lat="45.9608630" lon="10.1311120">
	<ele>1597.80</ele>
	<time>2025-08-03T07:15:28.000Z</time>
</trkpt>
<trkpt lat="45.9608770" lon="10.1311130">
	<ele>1598.00</ele>
	<time>2025-08-03T07:15:29.000Z</time>
</trkpt>
<trkpt lat="45.9608870" lon="10.1311200">
	<ele>1598.20</ele>
	<time>2025-08-03T07:15:30.000Z</time>
</trkpt>
<trkpt lat="45.9608940" lon="10.1311320">
	<ele>1598.60</ele>
	<time>2025-08-03T07:15:31.000Z</time>
</trkpt>
<trkpt lat="45.9608930" lon="10.1311410">
	<ele>1598.80</ele>
	<time>2025-08-03T07:15:32.000Z</time>
</trkpt>
<trkpt lat="45.9608840" lon="10.1311280">
	<ele>1598.80</ele>
	<time>2025-08-03T07:15:33.000Z</time>
</trkpt>
<trkpt lat="45.9608790" lon="10.1311200">
	<ele>1599.00</ele>
	<time>2025-08-03T07:15:34.000Z</time>
</trkpt>
<trkpt lat="45.9608760" lon="10.1311170">
	<ele>1599.20</ele>
	<time>2025-08-03T07:15:35.000Z</time>
</trkpt>
<trkpt lat="45.9608770" lon="10.1311160">
	<ele>1599.20</ele>
	<time>2025-08-03T07:15:36.000Z</time>
</trkpt>
<trkpt lat="45.9608740" lon="10.1311130">
	<ele>1599.40</ele>
	<time>2025-08-03T07:15:37.000Z</time>
</trkpt>
<trkpt lat="45.9608790" lon="10.1311120">
	<ele>1599.60</ele>
	<time>2025-08-03T07:15:38.000Z</time>
</trkpt>
<trkpt lat="45.9608840" lon="10.1311150">
	<ele>1600.00</ele>
	<time>2025-08-03T07:15:39.000Z</time>
</trkpt>
<trkpt lat="45.9608860" lon="10.1311180">
	<ele>1600.20</ele>
	<time>2025-08-03T07:15:40.000Z</time>
</trkpt>
<trkpt lat="45.9608920" lon="10.1311270">
	<ele>1600.40</ele>
	<time>2025-08-03T07:15:41.000Z</time>
</trkpt>
<trkpt lat="45.9609010" lon="10.1311330">
	<ele>1600.80</ele>
	<time>2025-08-03T07:15:42.000Z</time>
</trkpt>
<trkpt lat="45.9609110" lon="10.1311420">
	<ele>1601.00</ele>
	<time>2025-08-03T07:15:43.000Z</time>
</trkpt>
<trkpt lat="45.9609190" lon="10.1311440">
	<ele>1601.20</ele>
	<time>2025-08-03T07:15:44.000Z</time>
</trkpt>
<trkpt lat="45.9609260" lon="10.1311450">
	<ele>1601.40</ele>
	<time>2025-08-03T07:15:45.000Z</time>
</trkpt>
<trkpt lat="45.9609320" lon="10.1311480">
	<ele>1601.40</ele>
	<time>2025-08-03T07:15:46.000Z</time>
</trkpt>
<trkpt lat="45.9609400" lon="10.1311490">
	<ele>1601.60</ele>
	<time>2025-08-03T07:15:47.000Z</time>
</trkpt>
<trkpt lat="45.9609390" lon="10.1311470">
	<ele>1601.60</ele>
	<time>2025-08-03T07:15:48.000Z</time>
</trkpt>
<trkpt lat="45.9609460" lon="10.1311490">
	<ele>1601.60</ele>
	<time>2025-08-03T07:15:49.000Z</time>
</trkpt>
<trkpt lat="45.9609500" lon="10.1311530">
	<ele>1602.00</ele>
	<time>2025-08-03T07:15:50.000Z</time>
</trkpt>
<trkpt lat="45.9609550" lon="10.1311630">
	<ele>1602.20</ele>
	<time>2025-08-03T07:15:51.000Z</time>
</trkpt>
<trkpt lat="45.9609520" lon="10.1311680">
	<ele>1602.40</ele>
	<time>2025-08-03T07:15:52.000Z</time>
</trkpt>
<trkpt lat="45.9609580" lon="10.1311850">
	<ele>1602.80</ele>
	<time>2025-08-03T07:15:53.000Z</time>
</trkpt>
<trkpt lat="45.9609690" lon="10.1312050">
	<ele>1603.00</ele>
	<time>2025-08-03T07:15:54.000Z</time>
</trkpt>
<trkpt lat="45.9609710" lon="10.1312190">
	<ele>1603.00</ele>
	<time>2025-08-03T07:15:55.000Z</time>
</trkpt>
<trkpt lat="45.9609630" lon="10.1312210">
	<ele>1603.20</ele>
	<time>2025-08-03T07:15:56.000Z</time>
</trkpt>
<trkpt lat="45.9609570" lon="10.1312200">
	<ele>1603.20</ele>
	<time>2025-08-03T07:15:57.000Z</time>
</trkpt>
<trkpt lat="45.9609510" lon="10.1312180">
	<ele>1603.20</ele>
	<time>2025-08-03T07:15:58.000Z</time>
</trkpt>
<trkpt lat="45.9609500" lon="10.1312180">
	<ele>1603.40</ele>
	<time>2025-08-03T07:15:59.000Z</time>
</trkpt>
<trkpt lat="45.9609470" lon="10.1312220">
	<ele>1603.60</ele>
	<time>2025-08-03T07:16:00.000Z</time>
</trkpt>
<trkpt lat="45.9609500" lon="10.1312380">
	<ele>1603.60</ele>
	<time>2025-08-03T07:16:01.000Z</time>
</trkpt>
<trkpt lat="45.9609530" lon="10.1312580">
	<ele>1603.80</ele>
	<time>2025-08-03T07:16:02.000Z</time>
</trkpt>
<trkpt lat="45.9609570" lon="10.1312870">
	<ele>1603.80</ele>
	<time>2025-08-03T07:16:03.000Z</time>
</trkpt>
<trkpt lat="45.9609580" lon="10.1312900">
	<ele>1604.00</ele>
	<time>2025-08-03T07:16:04.000Z</time>
</trkpt>
<trkpt lat="45.9609580" lon="10.1312910">
	<ele>1604.60</ele>
	<time>2025-08-03T07:16:05.000Z</time>
</trkpt>
<trkpt lat="45.9609590" lon="10.1312920">
	<ele>1604.80</ele>
	<time>2025-08-03T07:16:06.000Z</time>
</trkpt>
<trkpt lat="45.9609650" lon="10.1312950">
	<ele>1605.00</ele>
	<time>2025-08-03T07:16:07.000Z</time>
</trkpt>
<trkpt lat="45.9609720" lon="10.1313040">
	<ele>1605.20</ele>
	<time>2025-08-03T07:16:08.000Z</time>
</trkpt>
<trkpt lat="45.9609740" lon="10.1313050">
	<ele>1605.40</ele>
	<time>2025-08-03T07:16:09.000Z</time>
</trkpt>
<trkpt lat="45.9609720" lon="10.1313160">
	<ele>1605.40</ele>
	<time>2025-08-03T07:16:10.000Z</time>
</trkpt>
<trkpt lat="45.9609720" lon="10.1313230">
	<ele>1605.60</ele>
	<time>2025-08-03T07:16:11.000Z</time>
</trkpt>
<trkpt lat="45.9609720" lon="10.1313340">
	<ele>1605.80</ele>
	<time>2025-08-03T07:16:12.000Z</time>
</trkpt>
<trkpt lat="45.9609750" lon="10.1313480">
	<ele>1606.00</ele>
	<time>2025-08-03T07:16:13.000Z</time>
</trkpt>
<trkpt lat="45.9609740" lon="10.1313540">
	<ele>1606.20</ele>
	<time>2025-08-03T07:16:14.000Z</time>
</trkpt>
<trkpt lat="45.9609770" lon="10.1313620">
	<ele>1606.40</ele>
	<time>2025-08-03T07:16:15.000Z</time>
</trkpt>
<trkpt lat="45.9609850" lon="10.1313680">
	<ele>1606.60</ele>
	<time>2025-08-03T07:16:16.000Z</time>
</trkpt>
<trkpt lat="45.9609960" lon="10.1313800">
	<ele>1606.80</ele>
	<time>2025-08-03T07:16:17.000Z</time>
</trkpt>
<trkpt lat="45.9610070" lon="10.1313910">
	<ele>1607.00</ele>
	<time>2025-08-03T07:16:18.000Z</time>
</trkpt>
<trkpt lat="45.9610200" lon="10.1314040">
	<ele>1607.20</ele>
	<time>2025-08-03T07:16:19.000Z</time>
</trkpt>
<trkpt lat="45.9610370" lon="10.1314140">
	<ele>1607.40</ele>
	<time>2025-08-03T07:16:20.000Z</time>
</trkpt>
<trkpt lat="45.9610400" lon="10.1314140">
	<ele>1607.40</ele>
	<time>2025-08-03T07:16:21.000Z</time>
</trkpt>
<trkpt lat="45.9610510" lon="10.1314160">
	<ele>1607.60</ele>
	<time>2025-08-03T07:16:22.000Z</time>
</trkpt>
<trkpt lat="45.9610610" lon="10.1314270">
	<ele>1607.80</ele>
	<time>2025-08-03T07:16:23.000Z</time>
</trkpt>
<trkpt lat="45.9610680" lon="10.1314340">
	<ele>1608.00</ele>
	<time>2025-08-03T07:16:24.000Z</time>
</trkpt>
<trkpt lat="45.9610740" lon="10.1314470">
	<ele>1608.20</ele>
	<time>2025-08-03T07:16:25.000Z</time>
</trkpt>
<trkpt lat="45.9610800" lon="10.1314620">
	<ele>1608.40</ele>
	<time>2025-08-03T07:16:26.000Z</time>
</trkpt>
<trkpt lat="45.9610870" lon="10.1314690">
	<ele>1608.80</ele>
	<time>2025-08-03T07:16:27.000Z</time>
</trkpt>
<trkpt lat="45.9610940" lon="10.1314850">
	<ele>1608.80</ele>
	<time>2025-08-03T07:16:28.000Z</time>
</trkpt>
<trkpt lat="45.9611000" lon="10.1314930">
	<ele>1609.20</ele>
	<time>2025-08-03T07:16:29.000Z</time>
</trkpt>
<trkpt lat="45.9611090" lon="10.1314860">
	<ele>1609.40</ele>
	<time>2025-08-03T07:16:30.000Z</time>
</trkpt>
<trkpt lat="45.9611140" lon="10.1314890">
	<ele>1609.40</ele>
	<time>2025-08-03T07:16:31.000Z</time>
</trkpt>
<trkpt lat="45.9611170" lon="10.1314920">
	<ele>1609.60</ele>
	<time>2025-08-03T07:16:32.000Z</time>
</trkpt>
<trkpt lat="45.9611170" lon="10.1314890">
	<ele>1609.60</ele>
	<time>2025-08-03T07:16:33.000Z</time>
</trkpt>
<trkpt lat="45.9611170" lon="10.1314850">
	<ele>1609.80</ele>
	<time>2025-08-03T07:16:34.000Z</time>
</trkpt>
<trkpt lat="45.9611170" lon="10.1314750">
	<ele>1610.00</ele>
	<time>2025-08-03T07:16:35.000Z</time>
</trkpt>
<trkpt lat="45.9611220" lon="10.1314650">
	<ele>1610.20</ele>
	<time>2025-08-03T07:16:36.000Z</time>
</trkpt>
<trkpt lat="45.9611220" lon="10.1314650">
	<ele>1610.40</ele>
	<time>2025-08-03T07:16:37.000Z</time>
</trkpt>
<trkpt lat="45.9611110" lon="10.1314610">
	<ele>1610.40</ele>
	<time>2025-08-03T07:16:38.000Z</time>
</trkpt>
<trkpt lat="45.9610980" lon="10.1314580">
	<ele>1610.60</ele>
	<time>2025-08-03T07:16:39.000Z</time>
</trkpt>
<trkpt lat="45.9610960" lon="10.1314520">
	<ele>1610.80</ele>
	<time>2025-08-03T07:16:40.000Z</time>
</trkpt>
<trkpt lat="45.9611100" lon="10.1314490">
	<ele>1611.00</ele>
	<time>2025-08-03T07:16:41.000Z</time>
</trkpt>
<trkpt lat="45.9611210" lon="10.1314520">
	<ele>1611.40</ele>
	<time>2025-08-03T07:16:42.000Z</time>
</trkpt>
<trkpt lat="45.9611120" lon="10.1314370">
	<ele>1611.60</ele>
	<time>2025-08-03T07:16:43.000Z</time>
</trkpt>
<trkpt lat="45.9611070" lon="10.1314370">
	<ele>1611.80</ele>
	<time>2025-08-03T07:16:44.000Z</time>
</trkpt>
<trkpt lat="45.9611060" lon="10.1314320">
	<ele>1612.00</ele>
	<time>2025-08-03T07:16:45.000Z</time>
</trkpt>
<trkpt lat="45.9611070" lon="10.1314340">
	<ele>1612.00</ele>
	<time>2025-08-03T07:16:46.000Z</time>
</trkpt>
<trkpt lat="45.9611070" lon="10.1314360">
	<ele>1612.20</ele>
	<time>2025-08-03T07:16:47.000Z</time>
</trkpt>
<trkpt lat="45.9611070" lon="10.1314360">
	<ele>1612.40</ele>
	<time>2025-08-03T07:16:48.000Z</time>
</trkpt>
<trkpt lat="45.9611070" lon="10.1314360">
	<ele>1612.60</ele>
	<time>2025-08-03T07:16:49.000Z</time>
</trkpt>
<trkpt lat="45.9611070" lon="10.1314360">
	<ele>1612.80</ele>
	<time>2025-08-03T07:16:50.000Z</time>
</trkpt>
<trkpt lat="45.9611070" lon="10.1314360">
	<ele>1612.80</ele>
	<time>2025-08-03T07:16:51.000Z</time>
</trkpt>
<trkpt lat="45.9611070" lon="10.1314360">
	<ele>1613.20</ele>
	<time>2025-08-03T07:16:52.000Z</time>
</trkpt>
<trkpt lat="45.9611070" lon="10.1314360">
	<ele>1613.40</ele>
	<time>2025-08-03T07:16:53.000Z</time>
</trkpt>
<trkpt lat="45.9611070" lon="10.1314360">
	<ele>1613.60</ele>
	<time>2025-08-03T07:16:54.000Z</time>
</trkpt>
<trkpt lat="45.9611070" lon="10.1314360">
	<ele>1613.80</ele>
	<time>2025-08-03T07:16:55.000Z</time>
</trkpt>
<trkpt lat="45.9611070" lon="10.1314360">
	<ele>1614.00</ele>
	<time>2025-08-03T07:16:56.000Z</time>
</trkpt>
<trkpt lat="45.9611070" lon="10.1314370">
	<ele>1614.20</ele>
	<time>2025-08-03T07:16:57.000Z</time>
</trkpt>
<trkpt lat="45.9611070" lon="10.1314370">
	<ele>1614.40</ele>
	<time>2025-08-03T07:16:58.000Z</time>
</trkpt>
<trkpt lat="45.9611070" lon="10.1314380">
	<ele>1614.60</ele>
	<time>2025-08-03T07:16:59.000Z</time>
</trkpt>
<trkpt lat="45.9611070" lon="10.1314460">
	<ele>1614.80</ele>
	<time>2025-08-03T07:17:00.000Z</time>
</trkpt>
<trkpt lat="45.9611090" lon="10.1314490">
	<ele>1615.20</ele>
	<time>2025-08-03T07:17:01.000Z</time>
</trkpt>
<trkpt lat="45.9611120" lon="10.1314510">
	<ele>1615.20</ele>
	<time>2025-08-03T07:17:02.000Z</time>
</trkpt>
<trkpt lat="45.9611160" lon="10.1314510">
	<ele>1615.60</ele>
	<time>2025-08-03T07:17:03.000Z</time>
</trkpt>
<trkpt lat="45.9611210" lon="10.1314620">
	<ele>1615.80</ele>
	<time>2025-08-03T07:17:04.000Z</time>
</trkpt>
<trkpt lat="45.9611270" lon="10.1314790">
	<ele>1616.00</ele>
	<time>2025-08-03T07:17:05.000Z</time>
</trkpt>
<trkpt lat="45.9611270" lon="10.1314980">
	<ele>1616.00</ele>
	<time>2025-08-03T07:17:06.000Z</time>
</trkpt>
<trkpt lat="45.9611290" lon="10.1315110">
	<ele>1616.40</ele>
	<time>2025-08-03T07:17:07.000Z</time>
</trkpt>
<trkpt lat="45.9611350" lon="10.1315200">
	<ele>1616.60</ele>
	<time>2025-08-03T07:17:08.000Z</time>
</trkpt>
<trkpt lat="45.9611380" lon="10.1315250">
	<ele>1616.80</ele>
	<time>2025-08-03T07:17:09.000Z</time>
</trkpt>
<trkpt lat="45.9611400" lon="10.1315320">
	<ele>1617.00</ele>
	<time>2025-08-03T07:17:10.000Z</time>
</trkpt>
<trkpt lat="45.9611430" lon="10.1315420">
	<ele>1617.20</ele>
	<time>2025-08-03T07:17:11.000Z</time>
</trkpt>
<trkpt lat="45.9611480" lon="10.1315530">
	<ele>1617.20</ele>
	<time>2025-08-03T07:17:12.000Z</time>
</trkpt>
<trkpt lat="45.9611650" lon="10.1315710">
	<ele>1617.20</ele>
	<time>2025-08-03T07:17:13.000Z</time>
</trkpt>
<trkpt lat="45.9611750" lon="10.1315780">
	<ele>1617.40</ele>
	<time>2025-08-03T07:17:14.000Z</time>
</trkpt>
<trkpt lat="45.9611810" lon="10.1315850">
	<ele>1617.60</ele>
	<time>2025-08-03T07:17:15.000Z</time>
</trkpt>
<trkpt lat="45.9611820" lon="10.1315890">
	<ele>1618.00</ele>
	<time>2025-08-03T07:17:16.000Z</time>
</trkpt>
<trkpt lat="45.9611910" lon="10.1315920">
	<ele>1618.20</ele>
	<time>2025-08-03T07:17:17.000Z</time>
</trkpt>
<trkpt lat="45.9612000" lon="10.1315980">
	<ele>1618.40</ele>
	<time>2025-08-03T07:17:18.000Z</time>
</trkpt>
<trkpt lat="45.9612060" lon="10.1315990">
	<ele>1618.60</ele>
	<time>2025-08-03T07:17:19.000Z</time>
</trkpt>
<trkpt lat="45.9612120" lon="10.1315950">
	<ele>1618.80</ele>
	<time>2025-08-03T07:17:20.000Z</time>
</trkpt>
<trkpt lat="45.9612020" lon="10.1315930">
	<ele>1618.80</ele>
	<time>2025-08-03T07:17:21.000Z</time>
</trkpt>
<trkpt lat="45.9611850" lon="10.1315840">
	<ele>1619.00</ele>
	<time>2025-08-03T07:17:22.000Z</time>
</trkpt>
<trkpt lat="45.9611720" lon="10.1315780">
	<ele>1619.20</ele>
	<time>2025-08-03T07:17:23.000Z</time>
</trkpt>
<trkpt lat="45.9611680" lon="10.1315810">
	<ele>1619.20</ele>
	<time>2025-08-03T07:17:24.000Z</time>
</trkpt>
<trkpt lat="45.9611650" lon="10.1315810">
	<ele>1619.40</ele>
	<time>2025-08-03T07:17:25.000Z</time>
</trkpt>
<trkpt lat="45.9611600" lon="10.1315810">
	<ele>1619.60</ele>
	<time>2025-08-03T07:17:26.000Z</time>
</trkpt>
<trkpt lat="45.9611560" lon="10.1315880">
	<ele>1619.80</ele>
	<time>2025-08-03T07:17:27.000Z</time>
</trkpt>
<trkpt lat="45.9611520" lon="10.1315900">
	<ele>1619.80</ele>
	<time>2025-08-03T07:17:28.000Z</time>
</trkpt>
<trkpt lat="45.9611620" lon="10.1316080">
	<ele>1619.80</ele>
	<time>2025-08-03T07:17:29.000Z</time>
</trkpt>
<trkpt lat="45.9611620" lon="10.1316110">
	<ele>1620.00</ele>
	<time>2025-08-03T07:17:30.000Z</time>
</trkpt>
<trkpt lat="45.9611630" lon="10.1316130">
	<ele>1620.00</ele>
	<time>2025-08-03T07:17:31.000Z</time>
</trkpt>
<trkpt lat="45.9611620" lon="10.1316130">
	<ele>1620.20</ele>
	<time>2025-08-03T07:17:32.000Z</time>
</trkpt>
<trkpt lat="45.9611720" lon="10.1316160">
	<ele>1620.40</ele>
	<time>2025-08-03T07:17:33.000Z</time>
</trkpt>
<trkpt lat="45.9611720" lon="10.1316170">
	<ele>1620.80</ele>
	<time>2025-08-03T07:17:34.000Z</time>
</trkpt>
<trkpt lat="45.9611720" lon="10.1316170">
	<ele>1620.80</ele>
	<time>2025-08-03T07:17:35.000Z</time>
</trkpt>
<trkpt lat="45.9611720" lon="10.1316170">
	<ele>1621.00</ele>
	<time>2025-08-03T07:17:36.000Z</time>
</trkpt>
<trkpt lat="45.9611720" lon="10.1316170">
	<ele>1620.80</ele>
	<time>2025-08-03T07:17:37.000Z</time>
</trkpt>
<trkpt lat="45.9611720" lon="10.1316170">
	<ele>1620.80</ele>
	<time>2025-08-03T07:17:38.000Z</time>
</trkpt>
<trkpt lat="45.9611720" lon="10.1316170">
	<ele>1620.80</ele>
	<time>2025-08-03T07:17:39.000Z</time>
</trkpt>
<trkpt lat="45.9611720" lon="10.1316170">
	<ele>1620.80</ele>
	<time>2025-08-03T07:17:40.000Z</time>
</trkpt>
<trkpt lat="45.9611720" lon="10.1316170">
	<ele>1620.80</ele>
	<time>2025-08-03T07:17:41.000Z</time>
</trkpt>
<trkpt lat="45.9611720" lon="10.1316170">
	<ele>1620.80</ele>
	<time>2025-08-03T07:17:42.000Z</time>
</trkpt>
<trkpt lat="45.9611720" lon="10.1316170">
	<ele>1621.00</ele>
	<time>2025-08-03T07:17:43.000Z</time>
</trkpt>
<trkpt lat="45.9611720" lon="10.1316170">
	<ele>1621.20</ele>
	<time>2025-08-03T07:17:44.000Z</time>
</trkpt>
<trkpt lat="45.9611720" lon="10.1316170">
	<ele>1621.40</ele>
	<time>2025-08-03T07:17:45.000Z</time>
</trkpt>
<trkpt lat="45.9611720" lon="10.1316170">
	<ele>1621.60</ele>
	<time>2025-08-03T07:17:46.000Z</time>
</trkpt>
<trkpt lat="45.9611720" lon="10.1316170">
	<ele>1622.00</ele>
	<time>2025-08-03T07:17:47.000Z</time>
</trkpt>
<trkpt lat="45.9611720" lon="10.1316170">
	<ele>1622.20</ele>
	<time>2025-08-03T07:17:48.000Z</time>
</trkpt>
<trkpt lat="45.9611720" lon="10.1316170">
	<ele>1622.40</ele>
	<time>2025-08-03T07:17:49.000Z</time>
</trkpt>
<trkpt lat="45.9611720" lon="10.1316170">
	<ele>1622.40</ele>
	<time>2025-08-03T07:17:50.000Z</time>
</trkpt>
<trkpt lat="45.9611720" lon="10.1316170">
	<ele>1622.60</ele>
	<time>2025-08-03T07:17:51.000Z</time>
</trkpt>
<trkpt lat="45.9611720" lon="10.1316170">
	<ele>1622.80</ele>
	<time>2025-08-03T07:17:52.000Z</time>
</trkpt>
<trkpt lat="45.9611720" lon="10.1316170">
	<ele>1623.00</ele>
	<time>2025-08-03T07:17:53.000Z</time>
</trkpt>
<trkpt lat="45.9611720" lon="10.1316240">
	<ele>1623.00</ele>
	<time>2025-08-03T07:17:54.000Z</time>
</trkpt>
<trkpt lat="45.9611730" lon="10.1316300">
	<ele>1623.20</ele>
	<time>2025-08-03T07:17:55.000Z</time>
</trkpt>
<trkpt lat="45.9611730" lon="10.1316310">
	<ele>1623.20</ele>
	<time>2025-08-03T07:17:56.000Z</time>
</trkpt>
<trkpt lat="45.9611780" lon="10.1316420">
	<ele>1623.40</ele>
	<time>2025-08-03T07:17:57.000Z</time>
</trkpt>
<trkpt lat="45.9611820" lon="10.1316590">
	<ele>1623.60</ele>
	<time>2025-08-03T07:17:58.000Z</time>
</trkpt>
<trkpt lat="45.9611870" lon="10.1316680">
	<ele>1623.60</ele>
	<time>2025-08-03T07:17:59.000Z</time>
</trkpt>
<trkpt lat="45.9611930" lon="10.1316890">
	<ele>1623.80</ele>
	<time>2025-08-03T07:18:00.000Z</time>
</trkpt>
<trkpt lat="45.9612010" lon="10.1317180">
	<ele>1624.00</ele>
	<time>2025-08-03T07:18:01.000Z</time>
</trkpt>
<trkpt lat="45.9612050" lon="10.1317380">
	<ele>1624.20</ele>
	<time>2025-08-03T07:18:02.000Z</time>
</trkpt>
<trkpt lat="45.9612050" lon="10.1317630">
	<ele>1624.40</ele>
	<time>2025-08-03T07:18:03.000Z</time>
</trkpt>
<trkpt lat="45.9612070" lon="10.1317940">
	<ele>1624.60</ele>
	<time>2025-08-03T07:18:04.000Z</time>
</trkpt>
<trkpt lat="45.9612120" lon="10.1318200">
	<ele>1624.60</ele>
	<time>2025-08-03T07:18:05.000Z</time>
</trkpt>
<trkpt lat="45.9612160" lon="10.1318420">
	<ele>1624.80</ele>
	<time>2025-08-03T07:18:06.000Z</time>
</trkpt>
<trkpt lat="45.9612180" lon="10.1318590">
	<ele>1625.00</ele>
	<time>2025-08-03T07:18:07.000Z</time>
</trkpt>
<trkpt lat="45.9612240" lon="10.1318690">
	<ele>1625.20</ele>
	<time>2025-08-03T07:18:08.000Z</time>
</trkpt>
<trkpt lat="45.9612270" lon="10.1318720">
	<ele>1625.60</ele>
	<time>2025-08-03T07:18:09.000Z</time>
</trkpt>
<trkpt lat="45.9612290" lon="10.1318710">
	<ele>1625.80</ele>
	<time>2025-08-03T07:18:10.000Z</time>
</trkpt>
<trkpt lat="45.9612420" lon="10.1318770">
	<ele>1626.00</ele>
	<time>2025-08-03T07:18:11.000Z</time>
</trkpt>
<trkpt lat="45.9612500" lon="10.1318850">
	<ele>1626.20</ele>
	<time>2025-08-03T07:18:12.000Z</time>
</trkpt>
<trkpt lat="45.9612570" lon="10.1318860">
	<ele>1626.20</ele>
	<time>2025-08-03T07:18:13.000Z</time>
</trkpt>
<trkpt lat="45.9612670" lon="10.1318950">
	<ele>1626.60</ele>
	<time>2025-08-03T07:18:14.000Z</time>
</trkpt>
<trkpt lat="45.9612670" lon="10.1318990">
	<ele>1626.80</ele>
	<time>2025-08-03T07:18:15.000Z</time>
</trkpt>
<trkpt lat="45.9612680" lon="10.1319090">
	<ele>1627.00</ele>
	<time>2025-08-03T07:18:16.000Z</time>
</trkpt>
<trkpt lat="45.9612670" lon="10.1319110">
	<ele>1627.00</ele>
	<time>2025-08-03T07:18:17.000Z</time>
</trkpt>
<trkpt lat="45.9612710" lon="10.1319130">
	<ele>1627.20</ele>
	<time>2025-08-03T07:18:18.000Z</time>
</trkpt>
<trkpt lat="45.9612760" lon="10.1319130">
	<ele>1627.40</ele>
	<time>2025-08-03T07:18:19.000Z</time>
</trkpt>
<trkpt lat="45.9612760" lon="10.1319130">
	<ele>1627.40</ele>
	<time>2025-08-03T07:18:20.000Z</time>
</trkpt>
<trkpt lat="45.9612770" lon="10.1319120">
	<ele>1627.60</ele>
	<time>2025-08-03T07:18:21.000Z</time>
</trkpt>
<trkpt lat="45.9612830" lon="10.1319120">
	<ele>1628.00</ele>
	<time>2025-08-03T07:18:22.000Z</time>
</trkpt>
<trkpt lat="45.9612830" lon="10.1319120">
	<ele>1628.40</ele>
	<time>2025-08-03T07:18:23.000Z</time>
</trkpt>
<trkpt lat="45.9612830" lon="10.1319120">
	<ele>1628.60</ele>
	<time>2025-08-03T07:18:24.000Z</time>
</trkpt>
<trkpt lat="45.9612970" lon="10.1319270">
	<ele>1628.80</ele>
	<time>2025-08-03T07:18:25.000Z</time>
</trkpt>
<trkpt lat="45.9612990" lon="10.1319290">
	<ele>1629.00</ele>
	<time>2025-08-03T07:18:26.000Z</time>
</trkpt>
<trkpt lat="45.9612900" lon="10.1319160">
	<ele>1629.20</ele>
	<time>2025-08-03T07:18:27.000Z</time>
</trkpt>
<trkpt lat="45.9612920" lon="10.1319160">
	<ele>1629.40</ele>
	<time>2025-08-03T07:18:28.000Z</time>
</trkpt>
<trkpt lat="45.9612980" lon="10.1319260">
	<ele>1629.60</ele>
	<time>2025-08-03T07:18:29.000Z</time>
</trkpt>
<trkpt lat="45.9612980" lon="10.1319330">
	<ele>1629.80</ele>
	<time>2025-08-03T07:18:30.000Z</time>
</trkpt>
<trkpt lat="45.9612940" lon="10.1319420">
	<ele>1629.80</ele>
	<time>2025-08-03T07:18:31.000Z</time>
</trkpt>
<trkpt lat="45.9612920" lon="10.1319490">
	<ele>1630.00</ele>
	<time>2025-08-03T07:18:32.000Z</time>
</trkpt>
<trkpt lat="45.9612920" lon="10.1319590">
	<ele>1630.20</ele>
	<time>2025-08-03T07:18:33.000Z</time>
</trkpt>
<trkpt lat="45.9612890" lon="10.1319690">
	<ele>1630.40</ele>
	<time>2025-08-03T07:18:34.000Z</time>
</trkpt>
<trkpt lat="45.9612820" lon="10.1319760">
	<ele>1630.40</ele>
	<time>2025-08-03T07:18:35.000Z</time>
</trkpt>
<trkpt lat="45.9612730" lon="10.1319850">
	<ele>1630.60</ele>
	<time>2025-08-03T07:18:36.000Z</time>
</trkpt>
<trkpt lat="45.9612650" lon="10.1319940">
	<ele>1630.80</ele>
	<time>2025-08-03T07:18:37.000Z</time>
</trkpt>
<trkpt lat="45.9612690" lon="10.1320030">
	<ele>1631.00</ele>
	<time>2025-08-03T07:18:38.000Z</time>
</trkpt>
<trkpt lat="45.9612730" lon="10.1320120">
	<ele>1631.20</ele>
	<time>2025-08-03T07:18:39.000Z</time>
</trkpt>
<trkpt lat="45.9612760" lon="10.1320140">
	<ele>1631.20</ele>
	<time>2025-08-03T07:18:40.000Z</time>
</trkpt>
<trkpt lat="45.9612720" lon="10.1320140">
	<ele>1631.40</ele>
	<time>2025-08-03T07:18:41.000Z</time>
</trkpt>
<trkpt lat="45.9612680" lon="10.1320190">
	<ele>1631.40</ele>
	<time>2025-08-03T07:18:42.000Z</time>
</trkpt>
<trkpt lat="45.9612670" lon="10.1320230">
	<ele>1632.00</ele>
	<time>2025-08-03T07:18:43.000Z</time>
</trkpt>
<trkpt lat="45.9612670" lon="10.1320260">
	<ele>1632.20</ele>
	<time>2025-08-03T07:18:44.000Z</time>
</trkpt>
<trkpt lat="45.9612670" lon="10.1320290">
	<ele>1632.40</ele>
	<time>2025-08-03T07:18:45.000Z</time>
</trkpt>
<trkpt lat="45.9612700" lon="10.1320300">
	<ele>1632.40</ele>
	<time>2025-08-03T07:18:46.000Z</time>
</trkpt>
<trkpt lat="45.9612700" lon="10.1320310">
	<ele>1632.80</ele>
	<time>2025-08-03T07:18:47.000Z</time>
</trkpt>
<trkpt lat="45.9612660" lon="10.1320290">
	<ele>1633.00</ele>
	<time>2025-08-03T07:18:48.000Z</time>
</trkpt>
<trkpt lat="45.9612640" lon="10.1320320">
	<ele>1633.20</ele>
	<time>2025-08-03T07:18:49.000Z</time>
</trkpt>
<trkpt lat="45.9612610" lon="10.1320400">
	<ele>1633.40</ele>
	<time>2025-08-03T07:18:50.000Z</time>
</trkpt>
<trkpt lat="45.9612620" lon="10.1320440">
	<ele>1633.60</ele>
	<time>2025-08-03T07:18:51.000Z</time>
</trkpt>
<trkpt lat="45.9612590" lon="10.1320450">
	<ele>1633.80</ele>
	<time>2025-08-03T07:18:52.000Z</time>
</trkpt>
<trkpt lat="45.9612600" lon="10.1320500">
	<ele>1634.00</ele>
	<time>2025-08-03T07:18:53.000Z</time>
</trkpt>
<trkpt lat="45.9612640" lon="10.1320560">
	<ele>1634.20</ele>
	<time>2025-08-03T07:18:54.000Z</time>
</trkpt>
<trkpt lat="45.9612650" lon="10.1320590">
	<ele>1634.40</ele>
	<time>2025-08-03T07:18:55.000Z</time>
</trkpt>
<trkpt lat="45.9612560" lon="10.1320560">
	<ele>1634.60</ele>
	<time>2025-08-03T07:18:56.000Z</time>
</trkpt>
<trkpt lat="45.9612470" lon="10.1320540">
	<ele>1634.80</ele>
	<time>2025-08-03T07:18:57.000Z</time>
</trkpt>
<trkpt lat="45.9612390" lon="10.1320480">
	<ele>1635.00</ele>
	<time>2025-08-03T07:18:58.000Z</time>
</trkpt>
<trkpt lat="45.9612350" lon="10.1320510">
	<ele>1635.40</ele>
	<time>2025-08-03T07:18:59.000Z</time>
</trkpt>
<trkpt lat="45.9612330" lon="10.1320560">
	<ele>1635.60</ele>
	<time>2025-08-03T07:19:00.000Z</time>
</trkpt>
<trkpt lat="45.9612210" lon="10.1320630">
	<ele>1635.60</ele>
	<time>2025-08-03T07:19:01.000Z</time>
</trkpt>
<trkpt lat="45.9612170" lon="10.1320690">
	<ele>1635.80</ele>
	<time>2025-08-03T07:19:02.000Z</time>
</trkpt>
<trkpt lat="45.9612160" lon="10.1320750">
	<ele>1636.20</ele>
	<time>2025-08-03T07:19:03.000Z</time>
</trkpt>
<trkpt lat="45.9612170" lon="10.1320830">
	<ele>1636.40</ele>
	<time>2025-08-03T07:19:04.000Z</time>
</trkpt>
<trkpt lat="45.9612170" lon="10.1320870">
	<ele>1636.60</ele>
	<time>2025-08-03T07:19:05.000Z</time>
</trkpt>
<trkpt lat="45.9612150" lon="10.1320850">
	<ele>1636.80</ele>
	<time>2025-08-03T07:19:06.000Z</time>
</trkpt>
<trkpt lat="45.9612160" lon="10.1320860">
	<ele>1636.80</ele>
	<time>2025-08-03T07:19:07.000Z</time>
</trkpt>
<trkpt lat="45.9612170" lon="10.1320890">
	<ele>1636.80</ele>
	<time>2025-08-03T07:19:08.000Z</time>
</trkpt>
<trkpt lat="45.9612210" lon="10.1321020">
	<ele>1637.00</ele>
	<time>2025-08-03T07:19:09.000Z</time>
</trkpt>
<trkpt lat="45.9612270" lon="10.1321090">
	<ele>1637.00</ele>
	<time>2025-08-03T07:19:10.000Z</time>
</trkpt>
<trkpt lat="45.9612310" lon="10.1321100">
	<ele>1637.20</ele>
	<time>2025-08-03T07:19:11.000Z</time>
</trkpt>
<trkpt lat="45.9612380" lon="10.1321160">
	<ele>1637.40</ele>
	<time>2025-08-03T07:19:12.000Z</time>
</trkpt>
<trkpt lat="45.9612410" lon="10.1321210">
	<ele>1637.80</ele>
	<time>2025-08-03T07:19:13.000Z</time>
</trkpt>
<trkpt lat="45.9612410" lon="10.1321230">
	<ele>1638.00</ele>
	<time>2025-08-03T07:19:14.000Z</time>
</trkpt>
<trkpt lat="45.9612420" lon="10.1321250">
	<ele>1638.20</ele>
	<time>2025-08-03T07:19:15.000Z</time>
</trkpt>
<trkpt lat="45.9612380" lon="10.1321380">
	<ele>1638.40</ele>
	<time>2025-08-03T07:19:16.000Z</time>
</trkpt>
<trkpt lat="45.9612370" lon="10.1321260">
	<ele>1638.60</ele>
	<time>2025-08-03T07:19:17.000Z</time>
</trkpt>
<trkpt lat="45.9612380" lon="10.1321300">
	<ele>1638.60</ele>
	<time>2025-08-03T07:19:18.000Z</time>
</trkpt>
<trkpt lat="45.9612370" lon="10.1321240">
	<ele>1638.80</ele>
	<time>2025-08-03T07:19:19.000Z</time>
</trkpt>
<trkpt lat="45.9612370" lon="10.1321230">
	<ele>1639.00</ele>
	<time>2025-08-03T07:19:20.000Z</time>
</trkpt>
<trkpt lat="45.9612340" lon="10.1321150">
	<ele>1639.00</ele>
	<time>2025-08-03T07:19:21.000Z</time>
</trkpt>
<trkpt lat="45.9612290" lon="10.1321110">
	<ele>1639.20</ele>
	<time>2025-08-03T07:19:22.000Z</time>
</trkpt>
<trkpt lat="45.9612280" lon="10.1321180">
	<ele>1639.20</ele>
	<time>2025-08-03T07:19:23.000Z</time>
</trkpt>
<trkpt lat="45.9612300" lon="10.1321230">
	<ele>1639.20</ele>
	<time>2025-08-03T07:19:24.000Z</time>
</trkpt>
<trkpt lat="45.9612290" lon="10.1321240">
	<ele>1639.60</ele>
	<time>2025-08-03T07:19:25.000Z</time>
</trkpt>
<trkpt lat="45.9612290" lon="10.1321270">
	<ele>1639.80</ele>
	<time>2025-08-03T07:19:26.000Z</time>
</trkpt>
<trkpt lat="45.9612320" lon="10.1321240">
	<ele>1640.20</ele>
	<time>2025-08-03T07:19:27.000Z</time>
</trkpt>
<trkpt lat="45.9612320" lon="10.1321140">
	<ele>1640.20</ele>
	<time>2025-08-03T07:19:28.000Z</time>
</trkpt>
<trkpt lat="45.9612190" lon="10.1320920">
	<ele>1640.40</ele>
	<time>2025-08-03T07:19:29.000Z</time>
</trkpt>
<trkpt lat="45.9612350" lon="10.1321030">
	<ele>1640.60</ele>
	<time>2025-08-03T07:19:30.000Z</time>
</trkpt>
<trkpt lat="45.9612420" lon="10.1321300">
	<ele>1640.80</ele>
	<time>2025-08-03T07:19:31.000Z</time>
</trkpt>
<trkpt lat="45.9612470" lon="10.1321490">
	<ele>1641.00</ele>
	<time>2025-08-03T07:19:32.000Z</time>
</trkpt>
<trkpt lat="45.9612520" lon="10.1321720">
	<ele>1641.20</ele>
	<time>2025-08-03T07:19:33.000Z</time>
</trkpt>
<trkpt lat="45.9612810" lon="10.1321940">
	<ele>1641.40</ele>
	<time>2025-08-03T07:19:34.000Z</time>
</trkpt>
<trkpt lat="45.9612910" lon="10.1322000">
	<ele>1641.60</ele>
	<time>2025-08-03T07:19:35.000Z</time>
</trkpt>
<trkpt lat="45.9612950" lon="10.1322010">
	<ele>1641.80</ele>
	<time>2025-08-03T07:19:36.000Z</time>
</trkpt>
<trkpt lat="45.9613090" lon="10.1322070">
	<ele>1642.00</ele>
	<time>2025-08-03T07:19:37.000Z</time>
</trkpt>
<trkpt lat="45.9613240" lon="10.1322140">
	<ele>1642.20</ele>
	<time>2025-08-03T07:19:38.000Z</time>
</trkpt>
<trkpt lat="45.9613330" lon="10.1322300">
	<ele>1642.40</ele>
	<time>2025-08-03T07:19:39.000Z</time>
</trkpt>
<trkpt lat="45.9613450" lon="10.1322380">
	<ele>1642.60</ele>
	<time>2025-08-03T07:19:40.000Z</time>
</trkpt>
<trkpt lat="45.9613600" lon="10.1322430">
	<ele>1642.60</ele>
	<time>2025-08-03T07:19:41.000Z</time>
</trkpt>
<trkpt lat="45.9613780" lon="10.1322500">
	<ele>1642.80</ele>
	<time>2025-08-03T07:19:42.000Z</time>
</trkpt>
<trkpt lat="45.9613930" lon="10.1322670">
	<ele>1643.00</ele>
	<time>2025-08-03T07:19:43.000Z</time>
</trkpt>
<trkpt lat="45.9613960" lon="10.1322810">
	<ele>1643.00</ele>
	<time>2025-08-03T07:19:44.000Z</time>
</trkpt>
<trkpt lat="45.9614020" lon="10.1322960">
	<ele>1643.20</ele>
	<time>2025-08-03T07:19:45.000Z</time>
</trkpt>
<trkpt lat="45.9614000" lon="10.1323000">
	<ele>1643.40</ele>
	<time>2025-08-03T07:19:46.000Z</time>
</trkpt>
<trkpt lat="45.9613940" lon="10.1323010">
	<ele>1643.40</ele>
	<time>2025-08-03T07:19:47.000Z</time>
</trkpt>
<trkpt lat="45.9613990" lon="10.1322940">
	<ele>1643.40</ele>
	<time>2025-08-03T07:19:48.000Z</time>
</trkpt>
<trkpt lat="45.9614100" lon="10.1322910">
	<ele>1643.60</ele>
	<time>2025-08-03T07:19:49.000Z</time>
</trkpt>
<trkpt lat="45.9614230" lon="10.1322910">
	<ele>1643.80</ele>
	<time>2025-08-03T07:19:50.000Z</time>
</trkpt>
<trkpt lat="45.9614250" lon="10.1322930">
	<ele>1643.80</ele>
	<time>2025-08-03T07:19:51.000Z</time>
</trkpt>
<trkpt lat="45.9614250" lon="10.1322950">
	<ele>1644.20</ele>
	<time>2025-08-03T07:19:52.000Z</time>
</trkpt>
<trkpt lat="45.9614390" lon="10.1322920">
	<ele>1644.20</ele>
	<time>2025-08-03T07:19:53.000Z</time>
</trkpt>
<trkpt lat="45.9614540" lon="10.1322970">
	<ele>1644.40</ele>
	<time>2025-08-03T07:19:54.000Z</time>
</trkpt>
<trkpt lat="45.9614610" lon="10.1323010">
	<ele>1644.40</ele>
	<time>2025-08-03T07:19:55.000Z</time>
</trkpt>
<trkpt lat="45.9614590" lon="10.1323010">
	<ele>1644.60</ele>
	<time>2025-08-03T07:19:56.000Z</time>
</trkpt>
<trkpt lat="45.9614690" lon="10.1323050">
	<ele>1644.80</ele>
	<time>2025-08-03T07:19:57.000Z</time>
</trkpt>
<trkpt lat="45.9614700" lon="10.1323050">
	<ele>1644.80</ele>
	<time>2025-08-03T07:19:58.000Z</time>
</trkpt>
<trkpt lat="45.9614720" lon="10.1323060">
	<ele>1645.00</ele>
	<time>2025-08-03T07:19:59.000Z</time>
</trkpt>
<trkpt lat="45.9614750" lon="10.1322930">
	<ele>1645.40</ele>
	<time>2025-08-03T07:20:00.000Z</time>
</trkpt>
<trkpt lat="45.9614760" lon="10.1322930">
	<ele>1645.60</ele>
	<time>2025-08-03T07:20:01.000Z</time>
</trkpt>
<trkpt lat="45.9614730" lon="10.1322940">
	<ele>1645.60</ele>
	<time>2025-08-03T07:20:02.000Z</time>
</trkpt>
<trkpt lat="45.9614740" lon="10.1322850">
	<ele>1645.80</ele>
	<time>2025-08-03T07:20:03.000Z</time>
</trkpt>
<trkpt lat="45.9614640" lon="10.1322840">
	<ele>1645.80</ele>
	<time>2025-08-03T07:20:04.000Z</time>
</trkpt>
<trkpt lat="45.9614640" lon="10.1322950">
	<ele>1646.00</ele>
	<time>2025-08-03T07:20:05.000Z</time>
</trkpt>
<trkpt lat="45.9614700" lon="10.1323130">
	<ele>1646.20</ele>
	<time>2025-08-03T07:20:06.000Z</time>
</trkpt>
<trkpt lat="45.9614990" lon="10.1323380">
	<ele>1646.40</ele>
	<time>2025-08-03T07:20:07.000Z</time>
</trkpt>
<trkpt lat="45.9615160" lon="10.1323500">
	<ele>1646.40</ele>
	<time>2025-08-03T07:20:08.000Z</time>
</trkpt>
<trkpt lat="45.9615200" lon="10.1323620">
	<ele>1646.40</ele>
	<time>2025-08-03T07:20:09.000Z</time>
</trkpt>
<trkpt lat="45.9615180" lon="10.1323600">
	<ele>1646.60</ele>
	<time>2025-08-03T07:20:10.000Z</time>
</trkpt>
<trkpt lat="45.9615170" lon="10.1323530">
	<ele>1646.80</ele>
	<time>2025-08-03T07:20:11.000Z</time>
</trkpt>
<trkpt lat="45.9615180" lon="10.1323560">
	<ele>1647.00</ele>
	<time>2025-08-03T07:20:12.000Z</time>
</trkpt>
<trkpt lat="45.9615240" lon="10.1323570">
	<ele>1647.20</ele>
	<time>2025-08-03T07:20:13.000Z</time>
</trkpt>
<trkpt lat="45.9615310" lon="10.1323560">
	<ele>1647.60</ele>
	<time>2025-08-03T07:20:14.000Z</time>
</trkpt>
<trkpt lat="45.9615400" lon="10.1323640">
	<ele>1647.80</ele>
	<time>2025-08-03T07:20:15.000Z</time>
</trkpt>
<trkpt lat="45.9615530" lon="10.1323730">
	<ele>1648.00</ele>
	<time>2025-08-03T07:20:16.000Z</time>
</trkpt>
<trkpt lat="45.9615590" lon="10.1323810">
	<ele>1648.20</ele>
	<time>2025-08-03T07:20:17.000Z</time>
</trkpt>
<trkpt lat="45.9615670" lon="10.1323850">
	<ele>1648.20</ele>
	<time>2025-08-03T07:20:18.000Z</time>
</trkpt>
<trkpt lat="45.9615690" lon="10.1323800">
	<ele>1648.40</ele>
	<time>2025-08-03T07:20:19.000Z</time>
</trkpt>
<trkpt lat="45.9615710" lon="10.1323770">
	<ele>1648.40</ele>
	<time>2025-08-03T07:20:20.000Z</time>
</trkpt>
<trkpt lat="45.9615720" lon="10.1323770">
	<ele>1648.60</ele>
	<time>2025-08-03T07:20:21.000Z</time>
</trkpt>
<trkpt lat="45.9615730" lon="10.1323790">
	<ele>1649.00</ele>
	<time>2025-08-03T07:20:22.000Z</time>
</trkpt>
<trkpt lat="45.9615760" lon="10.1323790">
	<ele>1649.20</ele>
	<time>2025-08-03T07:20:23.000Z</time>
</trkpt>
<trkpt lat="45.9615720" lon="10.1323760">
	<ele>1649.40</ele>
	<time>2025-08-03T07:20:24.000Z</time>
</trkpt>
<trkpt lat="45.9615730" lon="10.1323720">
	<ele>1649.60</ele>
	<time>2025-08-03T07:20:25.000Z</time>
</trkpt>
<trkpt lat="45.9615730" lon="10.1323690">
	<ele>1649.80</ele>
	<time>2025-08-03T07:20:26.000Z</time>
</trkpt>
<trkpt lat="45.9615730" lon="10.1323650">
	<ele>1650.00</ele>
	<time>2025-08-03T07:20:27.000Z</time>
</trkpt>
<trkpt lat="45.9615730" lon="10.1323710">
	<ele>1650.20</ele>
	<time>2025-08-03T07:20:28.000Z</time>
</trkpt>
<trkpt lat="45.9615670" lon="10.1323740">
	<ele>1650.20</ele>
	<time>2025-08-03T07:20:29.000Z</time>
</trkpt>
<trkpt lat="45.9615520" lon="10.1323730">
	<ele>1650.40</ele>
	<time>2025-08-03T07:20:30.000Z</time>
</trkpt>
<trkpt lat="45.9615370" lon="10.1323740">
	<ele>1650.60</ele>
	<time>2025-08-03T07:20:31.000Z</time>
</trkpt>
<trkpt lat="45.9615280" lon="10.1323790">
	<ele>1650.60</ele>
	<time>2025-08-03T07:20:32.000Z</time>
</trkpt>
<trkpt lat="45.9615220" lon="10.1323850">
	<ele>1650.60</ele>
	<time>2025-08-03T07:20:33.000Z</time>
</trkpt>
<trkpt lat="45.9615210" lon="10.1323880">
	<ele>1650.80</ele>
	<time>2025-08-03T07:20:34.000Z</time>
</trkpt>
<trkpt lat="45.9615170" lon="10.1323940">
	<ele>1651.00</ele>
	<time>2025-08-03T07:20:35.000Z</time>
</trkpt>
<trkpt lat="45.9615040" lon="10.1323910">
	<ele>1651.20</ele>
	<time>2025-08-03T07:20:36.000Z</time>
</trkpt>
<trkpt lat="45.9614960" lon="10.1323960">
	<ele>1651.40</ele>
	<time>2025-08-03T07:20:37.000Z</time>
</trkpt>
<trkpt lat="45.9614930" lon="10.1323990">
	<ele>1651.60</ele>
	<time>2025-08-03T07:20:38.000Z</time>
</trkpt>
<trkpt lat="45.9614940" lon="10.1324000">
	<ele>1651.80</ele>
	<time>2025-08-03T07:20:39.000Z</time>
</trkpt>
<trkpt lat="45.9614990" lon="10.1324060">
	<ele>1652.20</ele>
	<time>2025-08-03T07:20:40.000Z</time>
</trkpt>
<trkpt lat="45.9615110" lon="10.1324140">
	<ele>1652.40</ele>
	<time>2025-08-03T07:20:41.000Z</time>
</trkpt>
<trkpt lat="45.9615170" lon="10.1324070">
	<ele>1652.80</ele>
	<time>2025-08-03T07:20:42.000Z</time>
</trkpt>
<trkpt lat="45.9615170" lon="10.1324050">
	<ele>1653.00</ele>
	<time>2025-08-03T07:20:43.000Z</time>
</trkpt>
<trkpt lat="45.9615190" lon="10.1323990">
	<ele>1653.20</ele>
	<time>2025-08-03T07:20:44.000Z</time>
</trkpt>
<trkpt lat="45.9615190" lon="10.1323970">
	<ele>1653.40</ele>
	<time>2025-08-03T07:20:45.000Z</time>
</trkpt>
<trkpt lat="45.9615210" lon="10.1323960">
	<ele>1653.40</ele>
	<time>2025-08-03T07:20:46.000Z</time>
</trkpt>
<trkpt lat="45.9615230" lon="10.1324000">
	<ele>1653.40</ele>
	<time>2025-08-03T07:20:47.000Z</time>
</trkpt>
<trkpt lat="45.9615370" lon="10.1324030">
	<ele>1653.60</ele>
	<time>2025-08-03T07:20:48.000Z</time>
</trkpt>
<trkpt lat="45.9615410" lon="10.1324140">
	<ele>1653.60</ele>
	<time>2025-08-03T07:20:49.000Z</time>
</trkpt>
<trkpt lat="45.9615420" lon="10.1324220">
	<ele>1653.60</ele>
	<time>2025-08-03T07:20:50.000Z</time>
</trkpt>
<trkpt lat="45.9615470" lon="10.1324240">
	<ele>1653.60</ele>
	<time>2025-08-03T07:20:51.000Z</time>
</trkpt>
<trkpt lat="45.9615640" lon="10.1324230">
	<ele>1653.80</ele>
	<time>2025-08-03T07:20:52.000Z</time>
</trkpt>
<trkpt lat="45.9615670" lon="10.1324180">
	<ele>1653.80</ele>
	<time>2025-08-03T07:20:53.000Z</time>
</trkpt>
<trkpt lat="45.9615650" lon="10.1324140">
	<ele>1653.80</ele>
	<time>2025-08-03T07:20:54.000Z</time>
</trkpt>
<trkpt lat="45.9615720" lon="10.1324210">
	<ele>1653.80</ele>
	<time>2025-08-03T07:20:55.000Z</time>
</trkpt>
<trkpt lat="45.9615700" lon="10.1324200">
	<ele>1653.80</ele>
	<time>2025-08-03T07:20:56.000Z</time>
</trkpt>
<trkpt lat="45.9615880" lon="10.1324450">
	<ele>1654.00</ele>
	<time>2025-08-03T07:20:57.000Z</time>
</trkpt>
<trkpt lat="45.9616000" lon="10.1324560">
	<ele>1654.20</ele>
	<time>2025-08-03T07:20:58.000Z</time>
</trkpt>
<trkpt lat="45.9616030" lon="10.1324590">
	<ele>1654.40</ele>
	<time>2025-08-03T07:20:59.000Z</time>
</trkpt>
<trkpt lat="45.9616100" lon="10.1324620">
	<ele>1654.60</ele>
	<time>2025-08-03T07:21:00.000Z</time>
</trkpt>
<trkpt lat="45.9616090" lon="10.1324600">
	<ele>1654.80</ele>
	<time>2025-08-03T07:21:01.000Z</time>
</trkpt>
<trkpt lat="45.9615860" lon="10.1324480">
	<ele>1655.00</ele>
	<time>2025-08-03T07:21:02.000Z</time>
</trkpt>
<trkpt lat="45.9615640" lon="10.1324450">
	<ele>1655.00</ele>
	<time>2025-08-03T07:21:03.000Z</time>
</trkpt>
<trkpt lat="45.9615430" lon="10.1324380">
	<ele>1655.20</ele>
	<time>2025-08-03T07:21:04.000Z</time>
</trkpt>
<trkpt lat="45.9615380" lon="10.1324410">
	<ele>1655.20</ele>
	<time>2025-08-03T07:21:05.000Z</time>
</trkpt>
<trkpt lat="45.9615380" lon="10.1324530">
	<ele>1655.40</ele>
	<time>2025-08-03T07:21:06.000Z</time>
</trkpt>
<trkpt lat="45.9615370" lon="10.1324630">
	<ele>1655.40</ele>
	<time>2025-08-03T07:21:07.000Z</time>
</trkpt>
<trkpt lat="45.9615360" lon="10.1324730">
	<ele>1655.80</ele>
	<time>2025-08-03T07:21:08.000Z</time>
</trkpt>
<trkpt lat="45.9615370" lon="10.1324820">
	<ele>1655.80</ele>
	<time>2025-08-03T07:21:09.000Z</time>
</trkpt>
<trkpt lat="45.9615430" lon="10.1324950">
	<ele>1656.20</ele>
	<time>2025-08-03T07:21:10.000Z</time>
</trkpt>
<trkpt lat="45.9615430" lon="10.1324990">
	<ele>1656.40</ele>
	<time>2025-08-03T07:21:11.000Z</time>
</trkpt>
<trkpt lat="45.9615500" lon="10.1325030">
	<ele>1656.60</ele>
	<time>2025-08-03T07:21:12.000Z</time>
</trkpt>
<trkpt lat="45.9615530" lon="10.1325080">
	<ele>1656.80</ele>
	<time>2025-08-03T07:21:13.000Z</time>
</trkpt>
<trkpt lat="45.9615480" lon="10.1325130">
	<ele>1656.80</ele>
	<time>2025-08-03T07:21:14.000Z</time>
</trkpt>
<trkpt lat="45.9615490" lon="10.1325210">
	<ele>1657.00</ele>
	<time>2025-08-03T07:21:15.000Z</time>
</trkpt>
<trkpt lat="45.9615460" lon="10.1325230">
	<ele>1657.20</ele>
	<time>2025-08-03T07:21:16.000Z</time>
</trkpt>
<trkpt lat="45.9615430" lon="10.1325280">
	<ele>1657.60</ele>
	<time>2025-08-03T07:21:17.000Z</time>
</trkpt>
<trkpt lat="45.9615520" lon="10.1325460">
	<ele>1657.80</ele>
	<time>2025-08-03T07:21:18.000Z</time>
</trkpt>
<trkpt lat="45.9615550" lon="10.1325690">
	<ele>1658.00</ele>
	<time>2025-08-03T07:21:19.000Z</time>
</trkpt>
<trkpt lat="45.9615600" lon="10.1325780">
	<ele>1658.00</ele>
	<time>2025-08-03T07:21:20.000Z</time>
</trkpt>
<trkpt lat="45.9615500" lon="10.1325840">
	<ele>1658.20</ele>
	<time>2025-08-03T07:21:21.000Z</time>
</trkpt>
<trkpt lat="45.9615400" lon="10.1325860">
	<ele>1658.40</ele>
	<time>2025-08-03T07:21:22.000Z</time>
</trkpt>
<trkpt lat="45.9615300" lon="10.1325860">
	<ele>1658.60</ele>
	<time>2025-08-03T07:21:23.000Z</time>
</trkpt>
<trkpt lat="45.9615180" lon="10.1325790">
	<ele>1658.60</ele>
	<time>2025-08-03T07:21:24.000Z</time>
</trkpt>
<trkpt lat="45.9615160" lon="10.1325790">
	<ele>1658.60</ele>
	<time>2025-08-03T07:21:25.000Z</time>
</trkpt>
<trkpt lat="45.9615250" lon="10.1325880">
	<ele>1659.00</ele>
	<time>2025-08-03T07:21:26.000Z</time>
</trkpt>
<trkpt lat="45.9615360" lon="10.1326050">
	<ele>1659.00</ele>
	<time>2025-08-03T07:21:27.000Z</time>
</trkpt>
<trkpt lat="45.9615370" lon="10.1326110">
	<ele>1659.40</ele>
	<time>2025-08-03T07:21:28.000Z</time>
</trkpt>
<trkpt lat="45.9615410" lon="10.1326130">
	<ele>1659.80</ele>
	<time>2025-08-03T07:21:29.000Z</time>
</trkpt>
<trkpt lat="45.9615420" lon="10.1326110">
	<ele>1660.00</ele>
	<time>2025-08-03T07:21:30.000Z</time>
</trkpt>
<trkpt lat="45.9615420" lon="10.1326130">
	<ele>1660.00</ele>
	<time>2025-08-03T07:21:31.000Z</time>
</trkpt>
<trkpt lat="45.9615450" lon="10.1326250">
	<ele>1660.20</ele>
	<time>2025-08-03T07:21:32.000Z</time>
</trkpt>
<trkpt lat="45.9615460" lon="10.1326320">
	<ele>1660.40</ele>
	<time>2025-08-03T07:21:33.000Z</time>
</trkpt>
<trkpt lat="45.9615510" lon="10.1326420">
	<ele>1660.40</ele>
	<time>2025-08-03T07:21:34.000Z</time>
</trkpt>
<trkpt lat="45.9615510" lon="10.1326460">
	<ele>1660.60</ele>
	<time>2025-08-03T07:21:35.000Z</time>
</trkpt>
<trkpt lat="45.9615500" lon="10.1326480">
	<ele>1660.60</ele>
	<time>2025-08-03T07:21:36.000Z</time>
</trkpt>
<trkpt lat="45.9615500" lon="10.1326520">
	<ele>1661.00</ele>
	<time>2025-08-03T07:21:37.000Z</time>
</trkpt>
<trkpt lat="45.9615550" lon="10.1326530">
	<ele>1661.20</ele>
	<time>2025-08-03T07:21:38.000Z</time>
</trkpt>
<trkpt lat="45.9615570" lon="10.1326630">
	<ele>1661.20</ele>
	<time>2025-08-03T07:21:39.000Z</time>
</trkpt>
<trkpt lat="45.9615580" lon="10.1326640">
	<ele>1661.40</ele>
	<time>2025-08-03T07:21:40.000Z</time>
</trkpt>
<trkpt lat="45.9615710" lon="10.1326910">
	<ele>1661.60</ele>
	<time>2025-08-03T07:21:41.000Z</time>
</trkpt>
<trkpt lat="45.9615740" lon="10.1326950">
	<ele>1661.80</ele>
	<time>2025-08-03T07:21:42.000Z</time>
</trkpt>
<trkpt lat="45.9615870" lon="10.1327160">
	<ele>1662.00</ele>
	<time>2025-08-03T07:21:43.000Z</time>
</trkpt>
<trkpt lat="45.9615950" lon="10.1327350">
	<ele>1662.20</ele>
	<time>2025-08-03T07:21:44.000Z</time>
</trkpt>
<trkpt lat="45.9615970" lon="10.1327340">
	<ele>1662.40</ele>
	<time>2025-08-03T07:21:45.000Z</time>
</trkpt>
<trkpt lat="45.9616010" lon="10.1327340">
	<ele>1662.60</ele>
	<time>2025-08-03T07:21:46.000Z</time>
</trkpt>
<trkpt lat="45.9616010" lon="10.1327360">
	<ele>1662.80</ele>
	<time>2025-08-03T07:21:47.000Z</time>
</trkpt>
<trkpt lat="45.9616000" lon="10.1327410">
	<ele>1663.00</ele>
	<time>2025-08-03T07:21:48.000Z</time>
</trkpt>
<trkpt lat="45.9616010" lon="10.1327450">
	<ele>1663.20</ele>
	<time>2025-08-03T07:21:49.000Z</time>
</trkpt>
<trkpt lat="45.9615960" lon="10.1327480">
	<ele>1663.40</ele>
	<time>2025-08-03T07:21:50.000Z</time>
</trkpt>
<trkpt lat="45.9615930" lon="10.1327520">
	<ele>1663.60</ele>
	<time>2025-08-03T07:21:51.000Z</time>
</trkpt>
<trkpt lat="45.9615900" lon="10.1327540">
	<ele>1663.80</ele>
	<time>2025-08-03T07:21:52.000Z</time>
</trkpt>
<trkpt lat="45.9615950" lon="10.1327590">
	<ele>1664.00</ele>
	<time>2025-08-03T07:21:53.000Z</time>
</trkpt>
<trkpt lat="45.9616020" lon="10.1327780">
	<ele>1664.00</ele>
	<time>2025-08-03T07:21:54.000Z</time>
</trkpt>
<trkpt lat="45.9616090" lon="10.1327980">
	<ele>1664.20</ele>
	<time>2025-08-03T07:21:55.000Z</time>
</trkpt>
<trkpt lat="45.9616110" lon="10.1328060">
	<ele>1664.40</ele>
	<time>2025-08-03T07:21:56.000Z</time>
</trkpt>
<trkpt lat="45.9616100" lon="10.1328140">
	<ele>1664.40</ele>
	<time>2025-08-03T07:21:57.000Z</time>
</trkpt>
<trkpt lat="45.9616220" lon="10.1328210">
	<ele>1664.60</ele>
	<time>2025-08-03T07:21:58.000Z</time>
</trkpt>
<trkpt lat="45.9616280" lon="10.1328300">
	<ele>1664.80</ele>
	<time>2025-08-03T07:21:59.000Z</time>
</trkpt>
<trkpt lat="45.9616300" lon="10.1328320">
	<ele>1665.00</ele>
	<time>2025-08-03T07:22:00.000Z</time>
</trkpt>
<trkpt lat="45.9616320" lon="10.1328390">
	<ele>1665.20</ele>
	<time>2025-08-03T07:22:01.000Z</time>
</trkpt>
<trkpt lat="45.9616370" lon="10.1328490">
	<ele>1665.20</ele>
	<time>2025-08-03T07:22:02.000Z</time>
</trkpt>
<trkpt lat="45.9616400" lon="10.1328550">
	<ele>1665.60</ele>
	<time>2025-08-03T07:22:03.000Z</time>
</trkpt>
<trkpt lat="45.9616480" lon="10.1328620">
	<ele>1666.00</ele>
	<time>2025-08-03T07:22:04.000Z</time>
</trkpt>
<trkpt lat="45.9616490" lon="10.1328690">
	<ele>1666.20</ele>
	<time>2025-08-03T07:22:05.000Z</time>
</trkpt>
<trkpt lat="45.9616520" lon="10.1328740">
	<ele>1666.40</ele>
	<time>2025-08-03T07:22:06.000Z</time>
</trkpt>
<trkpt lat="45.9616560" lon="10.1328790">
	<ele>1666.60</ele>
	<time>2025-08-03T07:22:07.000Z</time>
</trkpt>
<trkpt lat="45.9616570" lon="10.1328840">
	<ele>1666.80</ele>
	<time>2025-08-03T07:22:08.000Z</time>
</trkpt>
<trkpt lat="45.9616580" lon="10.1328920">
	<ele>1666.80</ele>
	<time>2025-08-03T07:22:09.000Z</time>
</trkpt>
<trkpt lat="45.9616610" lon="10.1328930">
	<ele>1667.00</ele>
	<time>2025-08-03T07:22:10.000Z</time>
</trkpt>
<trkpt lat="45.9616690" lon="10.1329120">
	<ele>1667.40</ele>
	<time>2025-08-03T07:22:11.000Z</time>
</trkpt>
<trkpt lat="45.9616750" lon="10.1329220">
	<ele>1667.40</ele>
	<time>2025-08-03T07:22:12.000Z</time>
</trkpt>
<trkpt lat="45.9616760" lon="10.1329220">
	<ele>1667.60</ele>
	<time>2025-08-03T07:22:13.000Z</time>
</trkpt>
<trkpt lat="45.9616820" lon="10.1329290">
	<ele>1667.80</ele>
	<time>2025-08-03T07:22:14.000Z</time>
</trkpt>
<trkpt lat="45.9616850" lon="10.1329330">
	<ele>1668.20</ele>
	<time>2025-08-03T07:22:15.000Z</time>
</trkpt>
<trkpt lat="45.9616880" lon="10.1329340">
	<ele>1668.20</ele>
	<time>2025-08-03T07:22:16.000Z</time>
</trkpt>
<trkpt lat="45.9616890" lon="10.1329340">
	<ele>1668.40</ele>
	<time>2025-08-03T07:22:17.000Z</time>
</trkpt>
<trkpt lat="45.9616920" lon="10.1329470">
	<ele>1668.60</ele>
	<time>2025-08-03T07:22:18.000Z</time>
</trkpt>
<trkpt lat="45.9616930" lon="10.1329520">
	<ele>1668.80</ele>
	<time>2025-08-03T07:22:19.000Z</time>
</trkpt>
<trkpt lat="45.9616950" lon="10.1329580">
	<ele>1669.00</ele>
	<time>2025-08-03T07:22:20.000Z</time>
</trkpt>
<trkpt lat="45.9616940" lon="10.1329660">
	<ele>1669.20</ele>
	<time>2025-08-03T07:22:21.000Z</time>
</trkpt>
<trkpt lat="45.9616900" lon="10.1329750">
	<ele>1669.20</ele>
	<time>2025-08-03T07:22:22.000Z</time>
</trkpt>
<trkpt lat="45.9616950" lon="10.1329840">
	<ele>1669.40</ele>
	<time>2025-08-03T07:22:23.000Z</time>
</trkpt>
<trkpt lat="45.9616950" lon="10.1329870">
	<ele>1669.40</ele>
	<time>2025-08-03T07:22:24.000Z</time>
</trkpt>
<trkpt lat="45.9616950" lon="10.1329910">
	<ele>1669.40</ele>
	<time>2025-08-03T07:22:25.000Z</time>
</trkpt>
<trkpt lat="45.9616970" lon="10.1329910">
	<ele>1669.60</ele>
	<time>2025-08-03T07:22:26.000Z</time>
</trkpt>
<trkpt lat="45.9616980" lon="10.1329760">
	<ele>1669.60</ele>
	<time>2025-08-03T07:22:27.000Z</time>
</trkpt>
<trkpt lat="45.9617010" lon="10.1329710">
	<ele>1669.60</ele>
	<time>2025-08-03T07:22:28.000Z</time>
</trkpt>
<trkpt lat="45.9617080" lon="10.1329800">
	<ele>1669.60</ele>
	<time>2025-08-03T07:22:29.000Z</time>
</trkpt>
<trkpt lat="45.9617170" lon="10.1329840">
	<ele>1669.80</ele>
	<time>2025-08-03T07:22:30.000Z</time>
</trkpt>
<trkpt lat="45.9617300" lon="10.1329870">
	<ele>1669.80</ele>
	<time>2025-08-03T07:22:31.000Z</time>
</trkpt>
<trkpt lat="45.9617400" lon="10.1329900">
	<ele>1669.80</ele>
	<time>2025-08-03T07:22:32.000Z</time>
</trkpt>
<trkpt lat="45.9617540" lon="10.1329870">
	<ele>1669.80</ele>
	<time>2025-08-03T07:22:33.000Z</time>
</trkpt>
<trkpt lat="45.9617620" lon="10.1329940">
	<ele>1670.00</ele>
	<time>2025-08-03T07:22:34.000Z</time>
</trkpt>
<trkpt lat="45.9617640" lon="10.1329960">
	<ele>1670.20</ele>
	<time>2025-08-03T07:22:35.000Z</time>
</trkpt>
<trkpt lat="45.9617650" lon="10.1329950">
	<ele>1670.40</ele>
	<time>2025-08-03T07:22:36.000Z</time>
</trkpt>
<trkpt lat="45.9617650" lon="10.1330020">
	<ele>1670.60</ele>
	<time>2025-08-03T07:22:37.000Z</time>
</trkpt>
<trkpt lat="45.9617640" lon="10.1330050">
	<ele>1670.80</ele>
	<time>2025-08-03T07:22:38.000Z</time>
</trkpt>
<trkpt lat="45.9617650" lon="10.1330070">
	<ele>1670.80</ele>
	<time>2025-08-03T07:22:39.000Z</time>
</trkpt>
<trkpt lat="45.9617650" lon="10.1330090">
	<ele>1671.00</ele>
	<time>2025-08-03T07:22:40.000Z</time>
</trkpt>
<trkpt lat="45.9617660" lon="10.1330190">
	<ele>1671.20</ele>
	<time>2025-08-03T07:22:41.000Z</time>
</trkpt>
<trkpt lat="45.9617670" lon="10.1330290">
	<ele>1671.20</ele>
	<time>2025-08-03T07:22:42.000Z</time>
</trkpt>
<trkpt lat="45.9617640" lon="10.1330350">
	<ele>1671.40</ele>
	<time>2025-08-03T07:22:43.000Z</time>
</trkpt>
<trkpt lat="45.9617590" lon="10.1330360">
	<ele>1671.40</ele>
	<time>2025-08-03T07:22:44.000Z</time>
</trkpt>
<trkpt lat="45.9617580" lon="10.1330420">
	<ele>1671.60</ele>
	<time>2025-08-03T07:22:45.000Z</time>
</trkpt>
<trkpt lat="45.9617600" lon="10.1330440">
	<ele>1672.00</ele>
	<time>2025-08-03T07:22:46.000Z</time>
</trkpt>
<trkpt lat="45.9617590" lon="10.1330480">
	<ele>1672.20</ele>
	<time>2025-08-03T07:22:47.000Z</time>
</trkpt>
<trkpt lat="45.9617610" lon="10.1330550">
	<ele>1672.40</ele>
	<time>2025-08-03T07:22:48.000Z</time>
</trkpt>
<trkpt lat="45.9617640" lon="10.1330630">
	<ele>1672.60</ele>
	<time>2025-08-03T07:22:49.000Z</time>
</trkpt>
<trkpt lat="45.9617680" lon="10.1330700">
	<ele>1673.00</ele>
	<time>2025-08-03T07:22:50.000Z</time>
</trkpt>
<trkpt lat="45.9617750" lon="10.1330730">
	<ele>1673.20</ele>
	<time>2025-08-03T07:22:51.000Z</time>
</trkpt>
<trkpt lat="45.9617800" lon="10.1330800">
	<ele>1673.20</ele>
	<time>2025-08-03T07:22:52.000Z</time>
</trkpt>
<trkpt lat="45.9617820" lon="10.1330810">
	<ele>1673.60</ele>
	<time>2025-08-03T07:22:53.000Z</time>
</trkpt>
<trkpt lat="45.9617820" lon="10.1330850">
	<ele>1673.80</ele>
	<time>2025-08-03T07:22:54.000Z</time>
</trkpt>
<trkpt lat="45.9617810" lon="10.1330850">
	<ele>1673.80</ele>
	<time>2025-08-03T07:22:55.000Z</time>
</trkpt>
<trkpt lat="45.9617800" lon="10.1330870">
	<ele>1674.00</ele>
	<time>2025-08-03T07:22:56.000Z</time>
</trkpt>
<trkpt lat="45.9617780" lon="10.1330960">
	<ele>1674.00</ele>
	<time>2025-08-03T07:22:57.000Z</time>
</trkpt>
<trkpt lat="45.9617780" lon="10.1331120">
	<ele>1674.20</ele>
	<time>2025-08-03T07:22:58.000Z</time>
</trkpt>
<trkpt lat="45.9617790" lon="10.1331140">
	<ele>1674.40</ele>
	<time>2025-08-03T07:22:59.000Z</time>
</trkpt>
<trkpt lat="45.9617790" lon="10.1331110">
	<ele>1674.60</ele>
	<time>2025-08-03T07:23:00.000Z</time>
</trkpt>
<trkpt lat="45.9617830" lon="10.1331120">
	<ele>1674.80</ele>
	<time>2025-08-03T07:23:01.000Z</time>
</trkpt>
<trkpt lat="45.9617800" lon="10.1331120">
	<ele>1675.20</ele>
	<time>2025-08-03T07:23:02.000Z</time>
</trkpt>
<trkpt lat="45.9617750" lon="10.1331100">
	<ele>1675.40</ele>
	<time>2025-08-03T07:23:03.000Z</time>
</trkpt>
<trkpt lat="45.9617740" lon="10.1331110">
	<ele>1675.60</ele>
	<time>2025-08-03T07:23:04.000Z</time>
</trkpt>
<trkpt lat="45.9617640" lon="10.1331040">
	<ele>1675.80</ele>
	<time>2025-08-03T07:23:05.000Z</time>
</trkpt>
<trkpt lat="45.9617610" lon="10.1331000">
	<ele>1675.80</ele>
	<time>2025-08-03T07:23:06.000Z</time>
</trkpt>
<trkpt lat="45.9617420" lon="10.1331060">
	<ele>1676.00</ele>
	<time>2025-08-03T07:23:07.000Z</time>
</trkpt>
<trkpt lat="45.9617430" lon="10.1331150">
	<ele>1676.40</ele>
	<time>2025-08-03T07:23:08.000Z</time>
</trkpt>
<trkpt lat="45.9617450" lon="10.1331150">
	<ele>1676.60</ele>
	<time>2025-08-03T07:23:09.000Z</time>
</trkpt>
<trkpt lat="45.9617530" lon="10.1331100">
	<ele>1676.80</ele>
	<time>2025-08-03T07:23:10.000Z</time>
</trkpt>
<trkpt lat="45.9617520" lon="10.1331110">
	<ele>1676.80</ele>
	<time>2025-08-03T07:23:11.000Z</time>
</trkpt>
<trkpt lat="45.9617510" lon="10.1331110">
	<ele>1677.00</ele>
	<time>2025-08-03T07:23:12.000Z</time>
</trkpt>
<trkpt lat="45.9617490" lon="10.1331140">
	<ele>1677.20</ele>
	<time>2025-08-03T07:23:13.000Z</time>
</trkpt>
<trkpt lat="45.9617680" lon="10.1331340">
	<ele>1677.40</ele>
	<time>2025-08-03T07:23:14.000Z</time>
</trkpt>
<trkpt lat="45.9617830" lon="10.1331510">
	<ele>1677.60</ele>
	<time>2025-08-03T07:23:15.000Z</time>
</trkpt>
<trkpt lat="45.9617950" lon="10.1331640">
	<ele>1677.80</ele>
	<time>2025-08-03T07:23:16.000Z</time>
</trkpt>
<trkpt lat="45.9618050" lon="10.1331750">
	<ele>1678.00</ele>
	<time>2025-08-03T07:23:17.000Z</time>
</trkpt>
<trkpt lat="45.9618070" lon="10.1331780">
	<ele>1678.20</ele>
	<time>2025-08-03T07:23:18.000Z</time>
</trkpt>
<trkpt lat="45.9618070" lon="10.1331800">
	<ele>1678.40</ele>
	<time>2025-08-03T07:23:19.000Z</time>
</trkpt>
<trkpt lat="45.9618090" lon="10.1331830">
	<ele>1678.40</ele>
	<time>2025-08-03T07:23:20.000Z</time>
</trkpt>
<trkpt lat="45.9618160" lon="10.1331880">
	<ele>1678.60</ele>
	<time>2025-08-03T07:23:21.000Z</time>
</trkpt>
<trkpt lat="45.9618290" lon="10.1331980">
	<ele>1678.80</ele>
	<time>2025-08-03T07:23:22.000Z</time>
</trkpt>
<trkpt lat="45.9618360" lon="10.1332070">
	<ele>1679.20</ele>
	<time>2025-08-03T07:23:23.000Z</time>
</trkpt>
<trkpt lat="45.9618450" lon="10.1332180">
	<ele>1679.40</ele>
	<time>2025-08-03T07:23:24.000Z</time>
</trkpt>
<trkpt lat="45.9618550" lon="10.1332300">
	<ele>1679.60</ele>
	<time>2025-08-03T07:23:25.000Z</time>
</trkpt>
<trkpt lat="45.9618610" lon="10.1332410">
	<ele>1679.80</ele>
	<time>2025-08-03T07:23:26.000Z</time>
</trkpt>
<trkpt lat="45.9618640" lon="10.1332440">
	<ele>1680.00</ele>
	<time>2025-08-03T07:23:27.000Z</time>
</trkpt>
<trkpt lat="45.9618720" lon="10.1332530">
	<ele>1680.20</ele>
	<time>2025-08-03T07:23:28.000Z</time>
</trkpt>
<trkpt lat="45.9618860" lon="10.1332620">
	<ele>1680.60</ele>
	<time>2025-08-03T07:23:29.000Z</time>
</trkpt>
<trkpt lat="45.9618960" lon="10.1332680">
	<ele>1680.80</ele>
	<time>2025-08-03T07:23:30.000Z</time>
</trkpt>
<trkpt lat="45.9619050" lon="10.1332730">
	<ele>1681.00</ele>
	<time>2025-08-03T07:23:31.000Z</time>
</trkpt>
<trkpt lat="45.9619100" lon="10.1332730">
	<ele>1681.00</ele>
	<time>2025-08-03T07:23:32.000Z</time>
</trkpt>
<trkpt lat="45.9619140" lon="10.1332710">
	<ele>1681.20</ele>
	<time>2025-08-03T07:23:33.000Z</time>
</trkpt>
<trkpt lat="45.9619220" lon="10.1332690">
	<ele>1681.40</ele>
	<time>2025-08-03T07:23:34.000Z</time>
</trkpt>
<trkpt lat="45.9619240" lon="10.1332710">
	<ele>1681.40</ele>
	<time>2025-08-03T07:23:35.000Z</time>
</trkpt>
<trkpt lat="45.9619200" lon="10.1332710">
	<ele>1681.60</ele>
	<time>2025-08-03T07:23:36.000Z</time>
</trkpt>
<trkpt lat="45.9619170" lon="10.1332820">
	<ele>1681.80</ele>
	<time>2025-08-03T07:23:37.000Z</time>
</trkpt>
<trkpt lat="45.9619170" lon="10.1332980">
	<ele>1681.80</ele>
	<time>2025-08-03T07:23:38.000Z</time>
</trkpt>
<trkpt lat="45.9619240" lon="10.1333030">
	<ele>1682.00</ele>
	<time>2025-08-03T07:23:39.000Z</time>
</trkpt>
<trkpt lat="45.9619270" lon="10.1333060">
	<ele>1682.00</ele>
	<time>2025-08-03T07:23:40.000Z</time>
</trkpt>
<trkpt lat="45.9619300" lon="10.1333100">
	<ele>1682.20</ele>
	<time>2025-08-03T07:23:41.000Z</time>
</trkpt>
<trkpt lat="45.9619400" lon="10.1333180">
	<ele>1682.40</ele>
	<time>2025-08-03T07:23:42.000Z</time>
</trkpt>
<trkpt lat="45.9619490" lon="10.1333220">
	<ele>1682.60</ele>
	<time>2025-08-03T07:23:43.000Z</time>
</trkpt>
<trkpt lat="45.9619450" lon="10.1333330">
	<ele>1683.00</ele>
	<time>2025-08-03T07:23:44.000Z</time>
</trkpt>
<trkpt lat="45.9619470" lon="10.1333360">
	<ele>1683.20</ele>
	<time>2025-08-03T07:23:45.000Z</time>
</trkpt>
<trkpt lat="45.9619490" lon="10.1333340">
	<ele>1683.20</ele>
	<time>2025-08-03T07:23:46.000Z</time>
</trkpt>
<trkpt lat="45.9619540" lon="10.1333330">
	<ele>1683.40</ele>
	<time>2025-08-03T07:23:47.000Z</time>
</trkpt>
<trkpt lat="45.9619590" lon="10.1333380">
	<ele>1683.60</ele>
	<time>2025-08-03T07:23:48.000Z</time>
</trkpt>
<trkpt lat="45.9619610" lon="10.1333460">
	<ele>1683.60</ele>
	<time>2025-08-03T07:23:49.000Z</time>
</trkpt>
<trkpt lat="45.9619630" lon="10.1333530">
	<ele>1683.80</ele>
	<time>2025-08-03T07:23:50.000Z</time>
</trkpt>
<trkpt lat="45.9619660" lon="10.1333580">
	<ele>1683.80</ele>
	<time>2025-08-03T07:23:51.000Z</time>
</trkpt>
<trkpt lat="45.9619690" lon="10.1333670">
	<ele>1684.20</ele>
	<time>2025-08-03T07:23:52.000Z</time>
</trkpt>
<trkpt lat="45.9619710" lon="10.1333730">
	<ele>1684.40</ele>
	<time>2025-08-03T07:23:53.000Z</time>
</trkpt>
<trkpt lat="45.9619670" lon="10.1333810">
	<ele>1684.40</ele>
	<time>2025-08-03T07:23:54.000Z</time>
</trkpt>
<trkpt lat="45.9619630" lon="10.1333910">
	<ele>1684.80</ele>
	<time>2025-08-03T07:23:55.000Z</time>
</trkpt>
<trkpt lat="45.9619640" lon="10.1333960">
	<ele>1685.00</ele>
	<time>2025-08-03T07:23:56.000Z</time>
</trkpt>
<trkpt lat="45.9619710" lon="10.1334080">
	<ele>1685.20</ele>
	<time>2025-08-03T07:23:57.000Z</time>
</trkpt>
<trkpt lat="45.9619730" lon="10.1334060">
	<ele>1685.20</ele>
	<time>2025-08-03T07:23:58.000Z</time>
</trkpt>
<trkpt lat="45.9619750" lon="10.1334130">
	<ele>1685.60</ele>
	<time>2025-08-03T07:23:59.000Z</time>
</trkpt>
<trkpt lat="45.9619790" lon="10.1334110">
	<ele>1685.80</ele>
	<time>2025-08-03T07:24:00.000Z</time>
</trkpt>
<trkpt lat="45.9619850" lon="10.1334060">
	<ele>1685.80</ele>
	<time>2025-08-03T07:24:01.000Z</time>
</trkpt>
<trkpt lat="45.9619870" lon="10.1334050">
	<ele>1686.00</ele>
	<time>2025-08-03T07:24:02.000Z</time>
</trkpt>
<trkpt lat="45.9619890" lon="10.1334040">
	<ele>1686.20</ele>
	<time>2025-08-03T07:24:03.000Z</time>
</trkpt>
<trkpt lat="45.9619920" lon="10.1334070">
	<ele>1686.40</ele>
	<time>2025-08-03T07:24:04.000Z</time>
</trkpt>
<trkpt lat="45.9619990" lon="10.1334130">
	<ele>1686.60</ele>
	<time>2025-08-03T07:24:05.000Z</time>
</trkpt>
<trkpt lat="45.9620000" lon="10.1334200">
	<ele>1686.80</ele>
	<time>2025-08-03T07:24:06.000Z</time>
</trkpt>
<trkpt lat="45.9620000" lon="10.1334230">
	<ele>1687.20</ele>
	<time>2025-08-03T07:24:07.000Z</time>
</trkpt>
<trkpt lat="45.9619980" lon="10.1334260">
	<ele>1687.40</ele>
	<time>2025-08-03T07:24:08.000Z</time>
</trkpt>
<trkpt lat="45.9620000" lon="10.1334310">
	<ele>1687.40</ele>
	<time>2025-08-03T07:24:09.000Z</time>
</trkpt>
<trkpt lat="45.9620050" lon="10.1334370">
	<ele>1687.80</ele>
	<time>2025-08-03T07:24:10.000Z</time>
</trkpt>
<trkpt lat="45.9620070" lon="10.1334490">
	<ele>1688.00</ele>
	<time>2025-08-03T07:24:11.000Z</time>
</trkpt>
<trkpt lat="45.9620160" lon="10.1334600">
	<ele>1688.20</ele>
	<time>2025-08-03T07:24:12.000Z</time>
</trkpt>
<trkpt lat="45.9620110" lon="10.1334660">
	<ele>1688.40</ele>
	<time>2025-08-03T07:24:13.000Z</time>
</trkpt>
<trkpt lat="45.9620080" lon="10.1334680">
	<ele>1688.60</ele>
	<time>2025-08-03T07:24:14.000Z</time>
</trkpt>
<trkpt lat="45.9620160" lon="10.1334730">
	<ele>1688.80</ele>
	<time>2025-08-03T07:24:15.000Z</time>
</trkpt>
<trkpt lat="45.9620230" lon="10.1334920">
	<ele>1689.00</ele>
	<time>2025-08-03T07:24:16.000Z</time>
</trkpt>
<trkpt lat="45.9620310" lon="10.1334980">
	<ele>1689.20</ele>
	<time>2025-08-03T07:24:17.000Z</time>
</trkpt>
<trkpt lat="45.9620390" lon="10.1335040">
	<ele>1689.40</ele>
	<time>2025-08-03T07:24:18.000Z</time>
</trkpt>
<trkpt lat="45.9620490" lon="10.1335040">
	<ele>1689.60</ele>
	<time>2025-08-03T07:24:19.000Z</time>
</trkpt>
<trkpt lat="45.9620540" lon="10.1335070">
	<ele>1689.80</ele>
	<time>2025-08-03T07:24:20.000Z</time>
</trkpt>
<trkpt lat="45.9620670" lon="10.1335200">
	<ele>1689.80</ele>
	<time>2025-08-03T07:24:21.000Z</time>
</trkpt>
<trkpt lat="45.9620770" lon="10.1335450">
	<ele>1690.00</ele>
	<time>2025-08-03T07:24:22.000Z</time>
</trkpt>
<trkpt lat="45.9620890" lon="10.1335600">
	<ele>1690.00</ele>
	<time>2025-08-03T07:24:23.000Z</time>
</trkpt>
<trkpt lat="45.9621040" lon="10.1335640">
	<ele>1690.20</ele>
	<time>2025-08-03T07:24:24.000Z</time>
</trkpt>
<trkpt lat="45.9621130" lon="10.1335700">
	<ele>1690.40</ele>
	<time>2025-08-03T07:24:25.000Z</time>
</trkpt>
<trkpt lat="45.9621200" lon="10.1335690">
	<ele>1690.40</ele>
	<time>2025-08-03T07:24:26.000Z</time>
</trkpt>
<trkpt lat="45.9621220" lon="10.1335700">
	<ele>1690.60</ele>
	<time>2025-08-03T07:24:27.000Z</time>
</trkpt>
<trkpt lat="45.9621260" lon="10.1335720">
	<ele>1690.80</ele>
	<time>2025-08-03T07:24:28.000Z</time>
</trkpt>
<trkpt lat="45.9621300" lon="10.1335740">
	<ele>1690.80</ele>
	<time>2025-08-03T07:24:29.000Z</time>
</trkpt>
<trkpt lat="45.9621320" lon="10.1335760">
	<ele>1691.00</ele>
	<time>2025-08-03T07:24:30.000Z</time>
</trkpt>
<trkpt lat="45.9621330" lon="10.1335780">
	<ele>1691.40</ele>
	<time>2025-08-03T07:24:31.000Z</time>
</trkpt>
<trkpt lat="45.9621330" lon="10.1335810">
	<ele>1691.60</ele>
	<time>2025-08-03T07:24:32.000Z</time>
</trkpt>
<trkpt lat="45.9621340" lon="10.1335840">
	<ele>1691.80</ele>
	<time>2025-08-03T07:24:33.000Z</time>
</trkpt>
<trkpt lat="45.9621350" lon="10.1335890">
	<ele>1692.00</ele>
	<time>2025-08-03T07:24:34.000Z</time>
</trkpt>
<trkpt lat="45.9621370" lon="10.1335910">
	<ele>1692.20</ele>
	<time>2025-08-03T07:24:35.000Z</time>
</trkpt>
<trkpt lat="45.9621510" lon="10.1335960">
	<ele>1692.60</ele>
	<time>2025-08-03T07:24:36.000Z</time>
</trkpt>
<trkpt lat="45.9621530" lon="10.1335960">
	<ele>1692.80</ele>
	<time>2025-08-03T07:24:37.000Z</time>
</trkpt>
<trkpt lat="45.9621540" lon="10.1335970">
	<ele>1693.00</ele>
	<time>2025-08-03T07:24:38.000Z</time>
</trkpt>
<trkpt lat="45.9621550" lon="10.1336060">
	<ele>1693.20</ele>
	<time>2025-08-03T07:24:39.000Z</time>
</trkpt>
<trkpt lat="45.9621520" lon="10.1336080">
	<ele>1693.40</ele>
	<time>2025-08-03T07:24:40.000Z</time>
</trkpt>
<trkpt lat="45.9621560" lon="10.1336110">
	<ele>1693.60</ele>
	<time>2025-08-03T07:24:41.000Z</time>
</trkpt>
<trkpt lat="45.9621570" lon="10.1336140">
	<ele>1693.60</ele>
	<time>2025-08-03T07:24:42.000Z</time>
</trkpt>
<trkpt lat="45.9621600" lon="10.1336210">
	<ele>1694.00</ele>
	<time>2025-08-03T07:24:43.000Z</time>
</trkpt>
<trkpt lat="45.9621630" lon="10.1336280">
	<ele>1694.20</ele>
	<time>2025-08-03T07:24:44.000Z</time>
</trkpt>
<trkpt lat="45.9621680" lon="10.1336340">
	<ele>1694.20</ele>
	<time>2025-08-03T07:24:45.000Z</time>
</trkpt>
<trkpt lat="45.9621710" lon="10.1336410">
	<ele>1694.60</ele>
	<time>2025-08-03T07:24:46.000Z</time>
</trkpt>
<trkpt lat="45.9621740" lon="10.1336420">
	<ele>1694.80</ele>
	<time>2025-08-03T07:24:47.000Z</time>
</trkpt>
<trkpt lat="45.9621760" lon="10.1336430">
	<ele>1695.20</ele>
	<time>2025-08-03T07:24:48.000Z</time>
</trkpt>
<trkpt lat="45.9621760" lon="10.1336440">
	<ele>1695.20</ele>
	<time>2025-08-03T07:24:49.000Z</time>
</trkpt>
<trkpt lat="45.9621830" lon="10.1336430">
	<ele>1695.40</ele>
	<time>2025-08-03T07:24:50.000Z</time>
</trkpt>
<trkpt lat="45.9621860" lon="10.1336430">
	<ele>1695.40</ele>
	<time>2025-08-03T07:24:51.000Z</time>
</trkpt>
<trkpt lat="45.9621920" lon="10.1336420">
	<ele>1695.60</ele>
	<time>2025-08-03T07:24:52.000Z</time>
</trkpt>
<trkpt lat="45.9622020" lon="10.1336440">
	<ele>1695.60</ele>
	<time>2025-08-03T07:24:53.000Z</time>
</trkpt>
<trkpt lat="45.9622100" lon="10.1336490">
	<ele>1695.60</ele>
	<time>2025-08-03T07:24:54.000Z</time>
</trkpt>
<trkpt lat="45.9622150" lon="10.1336510">
	<ele>1695.60</ele>
	<time>2025-08-03T07:24:55.000Z</time>
</trkpt>
<trkpt lat="45.9622180" lon="10.1336560">
	<ele>1695.80</ele>
	<time>2025-08-03T07:24:56.000Z</time>
</trkpt>
<trkpt lat="45.9622170" lon="10.1336640">
	<ele>1696.00</ele>
	<time>2025-08-03T07:24:57.000Z</time>
</trkpt>
<trkpt lat="45.9622180" lon="10.1336720">
	<ele>1696.00</ele>
	<time>2025-08-03T07:24:58.000Z</time>
</trkpt>
<trkpt lat="45.9622140" lon="10.1336790">
	<ele>1696.20</ele>
	<time>2025-08-03T07:24:59.000Z</time>
</trkpt>
<trkpt lat="45.9622110" lon="10.1336880">
	<ele>1696.40</ele>
	<time>2025-08-03T07:25:00.000Z</time>
</trkpt>
<trkpt lat="45.9621990" lon="10.1336940">
	<ele>1696.60</ele>
	<time>2025-08-03T07:25:01.000Z</time>
</trkpt>
<trkpt lat="45.9622400" lon="10.1337160">
	<ele>1697.80</ele>
	<time>2025-08-03T07:37:56.000Z</time>
</trkpt>
<trkpt lat="45.9622320" lon="10.1336960">
	<ele>1697.80</ele>
	<time>2025-08-03T07:37:57.000Z</time>
</trkpt>
<trkpt lat="45.9622340" lon="10.1336790">
	<ele>1698.00</ele>
	<time>2025-08-03T07:37:58.000Z</time>
</trkpt>
<trkpt lat="45.9622290" lon="10.1336610">
	<ele>1698.00</ele>
	<time>2025-08-03T07:37:59.000Z</time>
</trkpt>
<trkpt lat="45.9622290" lon="10.1336490">
	<ele>1698.20</ele>
	<time>2025-08-03T07:38:00.000Z</time>
</trkpt>
<trkpt lat="45.9622320" lon="10.1336520">
	<ele>1698.20</ele>
	<time>2025-08-03T07:38:01.000Z</time>
</trkpt>
<trkpt lat="45.9622290" lon="10.1336560">
	<ele>1698.40</ele>
	<time>2025-08-03T07:38:02.000Z</time>
</trkpt>
<trkpt lat="45.9622260" lon="10.1336640">
	<ele>1698.20</ele>
	<time>2025-08-03T07:38:03.000Z</time>
</trkpt>
<trkpt lat="45.9622220" lon="10.1336740">
	<ele>1698.20</ele>
	<time>2025-08-03T07:38:04.000Z</time>
</trkpt>
<trkpt lat="45.9622190" lon="10.1336790">
	<ele>1698.20</ele>
	<time>2025-08-03T07:38:05.000Z</time>
</trkpt>
<trkpt lat="45.9622130" lon="10.1336760">
	<ele>1698.20</ele>
	<time>2025-08-03T07:38:06.000Z</time>
</trkpt>
<trkpt lat="45.9622110" lon="10.1336720">
	<ele>1698.20</ele>
	<time>2025-08-03T07:38:07.000Z</time>
</trkpt>
<trkpt lat="45.9622070" lon="10.1336600">
	<ele>1698.20</ele>
	<time>2025-08-03T07:38:08.000Z</time>
</trkpt>
<trkpt lat="45.9622170" lon="10.1336540">
	<ele>1698.40</ele>
	<time>2025-08-03T07:38:09.000Z</time>
</trkpt>
<trkpt lat="45.9622220" lon="10.1336440">
	<ele>1698.40</ele>
	<time>2025-08-03T07:38:10.000Z</time>
</trkpt>
<trkpt lat="45.9622370" lon="10.1336350">
	<ele>1698.40</ele>
	<time>2025-08-03T07:38:11.000Z</time>
</trkpt>
<trkpt lat="45.9622550" lon="10.1336340">
	<ele>1698.40</ele>
	<time>2025-08-03T07:38:12.000Z</time>
</trkpt>
<trkpt lat="45.9622580" lon="10.1336330">
	<ele>1698.40</ele>
	<time>2025-08-03T07:38:13.000Z</time>
</trkpt>
<trkpt lat="45.9622670" lon="10.1336460">
	<ele>1698.40</ele>
	<time>2025-08-03T07:38:14.000Z</time>
</trkpt>
<trkpt lat="45.9622740" lon="10.1336610">
	<ele>1698.40</ele>
	<time>2025-08-03T07:38:15.000Z</time>
</trkpt>
<trkpt lat="45.9622790" lon="10.1336770">
	<ele>1698.40</ele>
	<time>2025-08-03T07:38:16.000Z</time>
</trkpt>
<trkpt lat="45.9622870" lon="10.1336930">
	<ele>1698.60</ele>
	<time>2025-08-03T07:38:17.000Z</time>
</trkpt>
<trkpt lat="45.9622920" lon="10.1336970">
	<ele>1698.80</ele>
	<time>2025-08-03T07:38:18.000Z</time>
</trkpt>
<trkpt lat="45.9623120" lon="10.1337010">
	<ele>1699.00</ele>
	<time>2025-08-03T07:38:19.000Z</time>
</trkpt>
<trkpt lat="45.9623320" lon="10.1337090">
	<ele>1699.40</ele>
	<time>2025-08-03T07:38:20.000Z</time>
</trkpt>
<trkpt lat="45.9623440" lon="10.1337170">
	<ele>1699.60</ele>
	<time>2025-08-03T07:38:21.000Z</time>
</trkpt>
<trkpt lat="45.9623480" lon="10.1337230">
	<ele>1699.80</ele>
	<time>2025-08-03T07:38:22.000Z</time>
</trkpt>
<trkpt lat="45.9623550" lon="10.1337330">
	<ele>1700.00</ele>
	<time>2025-08-03T07:38:23.000Z</time>
</trkpt>
<trkpt lat="45.9623640" lon="10.1337450">
	<ele>1700.20</ele>
	<time>2025-08-03T07:38:24.000Z</time>
</trkpt>
<trkpt lat="45.9623780" lon="10.1337570">
	<ele>1700.40</ele>
	<time>2025-08-03T07:38:25.000Z</time>
</trkpt>
<trkpt lat="45.9623920" lon="10.1337630">
	<ele>1700.60</ele>
	<time>2025-08-03T07:38:26.000Z</time>
</trkpt>
<trkpt lat="45.9623950" lon="10.1337650">
	<ele>1701.00</ele>
	<time>2025-08-03T07:38:27.000Z</time>
</trkpt>
<trkpt lat="45.9623950" lon="10.1337670">
	<ele>1701.20</ele>
	<time>2025-08-03T07:38:28.000Z</time>
</trkpt>
<trkpt lat="45.9623980" lon="10.1337790">
	<ele>1701.60</ele>
	<time>2025-08-03T07:38:29.000Z</time>
</trkpt>
<trkpt lat="45.9624000" lon="10.1337810">
	<ele>1701.80</ele>
	<time>2025-08-03T07:38:30.000Z</time>
</trkpt>
<trkpt lat="45.9624110" lon="10.1337840">
	<ele>1702.00</ele>
	<time>2025-08-03T07:38:31.000Z</time>
</trkpt>
<trkpt lat="45.9624180" lon="10.1337800">
	<ele>1702.20</ele>
	<time>2025-08-03T07:38:32.000Z</time>
</trkpt>
<trkpt lat="45.9624200" lon="10.1337810">
	<ele>1702.60</ele>
	<time>2025-08-03T07:38:33.000Z</time>
</trkpt>
<trkpt lat="45.9624210" lon="10.1337810">
	<ele>1703.00</ele>
	<time>2025-08-03T07:38:34.000Z</time>
</trkpt>
<trkpt lat="45.9624220" lon="10.1337830">
	<ele>1703.40</ele>
	<time>2025-08-03T07:38:35.000Z</time>
</trkpt>
<trkpt lat="45.9624250" lon="10.1337850">
	<ele>1703.60</ele>
	<time>2025-08-03T07:38:36.000Z</time>
</trkpt>
<trkpt lat="45.9624330" lon="10.1338030">
	<ele>1703.60</ele>
	<time>2025-08-03T07:38:37.000Z</time>
</trkpt>
<trkpt lat="45.9624480" lon="10.1338190">
	<ele>1703.60</ele>
	<time>2025-08-03T07:38:38.000Z</time>
</trkpt>
<trkpt lat="45.9624630" lon="10.1338240">
	<ele>1703.40</ele>
	<time>2025-08-03T07:38:39.000Z</time>
</trkpt>
<trkpt lat="45.9624760" lon="10.1338230">
	<ele>1703.40</ele>
	<time>2025-08-03T07:38:40.000Z</time>
</trkpt>
<trkpt lat="45.9624810" lon="10.1338130">
	<ele>1703.40</ele>
	<time>2025-08-03T07:38:41.000Z</time>
</trkpt>
<trkpt lat="45.9624890" lon="10.1338180">
	<ele>1703.40</ele>
	<time>2025-08-03T07:38:42.000Z</time>
</trkpt>
<trkpt lat="45.9624960" lon="10.1338150">
	<ele>1703.60</ele>
	<time>2025-08-03T07:38:43.000Z</time>
</trkpt>
<trkpt lat="45.9625000" lon="10.1338130">
	<ele>1703.80</ele>
	<time>2025-08-03T07:38:44.000Z</time>
</trkpt>
<trkpt lat="45.9625030" lon="10.1338160">
	<ele>1704.60</ele>
	<time>2025-08-03T07:38:45.000Z</time>
</trkpt>
<trkpt lat="45.9625070" lon="10.1338260">
	<ele>1704.60</ele>
	<time>2025-08-03T07:38:46.000Z</time>
</trkpt>
<trkpt lat="45.9625080" lon="10.1338390">
	<ele>1704.60</ele>
	<time>2025-08-03T07:38:47.000Z</time>
</trkpt>
<trkpt lat="45.9625070" lon="10.1338530">
	<ele>1704.60</ele>
	<time>2025-08-03T07:38:48.000Z</time>
</trkpt>
<trkpt lat="45.9625100" lon="10.1338570">
	<ele>1704.60</ele>
	<time>2025-08-03T07:38:49.000Z</time>
</trkpt>
<trkpt lat="45.9625110" lon="10.1338600">
	<ele>1704.60</ele>
	<time>2025-08-03T07:38:50.000Z</time>
</trkpt>
<trkpt lat="45.9625140" lon="10.1338630">
	<ele>1704.60</ele>
	<time>2025-08-03T07:38:51.000Z</time>
</trkpt>
<trkpt lat="45.9625190" lon="10.1338700">
	<ele>1704.60</ele>
	<time>2025-08-03T07:38:52.000Z</time>
</trkpt>
<trkpt lat="45.9625220" lon="10.1338790">
	<ele>1704.60</ele>
	<time>2025-08-03T07:38:53.000Z</time>
</trkpt>
<trkpt lat="45.9625290" lon="10.1338920">
	<ele>1704.60</ele>
	<time>2025-08-03T07:38:54.000Z</time>
</trkpt>
<trkpt lat="45.9625380" lon="10.1339030">
	<ele>1704.60</ele>
	<time>2025-08-03T07:38:55.000Z</time>
</trkpt>
<trkpt lat="45.9625450" lon="10.1339130">
	<ele>1704.60</ele>
	<time>2025-08-03T07:38:56.000Z</time>
</trkpt>
<trkpt lat="45.9625480" lon="10.1339250">
	<ele>1704.60</ele>
	<time>2025-08-03T07:38:57.000Z</time>
</trkpt>
<trkpt lat="45.9625510" lon="10.1339400">
	<ele>1704.60</ele>
	<time>2025-08-03T07:38:58.000Z</time>
</trkpt>
<trkpt lat="45.9625550" lon="10.1339520">
	<ele>1704.60</ele>
	<time>2025-08-03T07:38:59.000Z</time>
</trkpt>
<trkpt lat="45.9625560" lon="10.1339640">
	<ele>1704.60</ele>
	<time>2025-08-03T07:39:00.000Z</time>
</trkpt>
<trkpt lat="45.9625590" lon="10.1339690">
	<ele>1704.60</ele>
	<time>2025-08-03T07:39:01.000Z</time>
</trkpt>
<trkpt lat="45.9625600" lon="10.1339720">
	<ele>1705.60</ele>
	<time>2025-08-03T07:39:02.000Z</time>
</trkpt>
<trkpt lat="45.9625600" lon="10.1339730">
	<ele>1706.20</ele>
	<time>2025-08-03T07:39:03.000Z</time>
</trkpt>
<trkpt lat="45.9625620" lon="10.1339740">
	<ele>1706.60</ele>
	<time>2025-08-03T07:39:04.000Z</time>
</trkpt>
<trkpt lat="45.9625630" lon="10.1339720">
	<ele>1706.80</ele>
	<time>2025-08-03T07:39:05.000Z</time>
</trkpt>
<trkpt lat="45.9625650" lon="10.1339690">
	<ele>1707.00</ele>
	<time>2025-08-03T07:39:06.000Z</time>
</trkpt>
<trkpt lat="45.9625670" lon="10.1339680">
	<ele>1707.20</ele>
	<time>2025-08-03T07:39:07.000Z</time>
</trkpt>
<trkpt lat="45.9625680" lon="10.1339690">
	<ele>1707.20</ele>
	<time>2025-08-03T07:39:08.000Z</time>
</trkpt>
<trkpt lat="45.9625690" lon="10.1339690">
	<ele>1707.20</ele>
	<time>2025-08-03T07:39:09.000Z</time>
</trkpt>
<trkpt lat="45.9625550" lon="10.1339520">
	<ele>1707.40</ele>
	<time>2025-08-03T07:39:10.000Z</time>
</trkpt>
<trkpt lat="45.9625530" lon="10.1339520">
	<ele>1707.40</ele>
	<time>2025-08-03T07:39:11.000Z</time>
</trkpt>
<trkpt lat="45.9625480" lon="10.1339540">
	<ele>1707.40</ele>
	<time>2025-08-03T07:39:12.000Z</time>
</trkpt>
<trkpt lat="45.9625480" lon="10.1339570">
	<ele>1707.20</ele>
	<time>2025-08-03T07:39:13.000Z</time>
</trkpt>
<trkpt lat="45.9625420" lon="10.1339550">
	<ele>1707.20</ele>
	<time>2025-08-03T07:39:14.000Z</time>
</trkpt>
<trkpt lat="45.9625400" lon="10.1339560">
	<ele>1707.20</ele>
	<time>2025-08-03T07:39:15.000Z</time>
</trkpt>
<trkpt lat="45.9625380" lon="10.1339580">
	<ele>1707.20</ele>
	<time>2025-08-03T07:39:16.000Z</time>
</trkpt>
<trkpt lat="45.9625360" lon="10.1339570">
	<ele>1707.00</ele>
	<time>2025-08-03T07:39:17.000Z</time>
</trkpt>
<trkpt lat="45.9625350" lon="10.1339570">
	<ele>1707.00</ele>
	<time>2025-08-03T07:39:18.000Z</time>
</trkpt>
<trkpt lat="45.9625380" lon="10.1339540">
	<ele>1707.00</ele>
	<time>2025-08-03T07:39:19.000Z</time>
</trkpt>
<trkpt lat="45.9625450" lon="10.1339470">
	<ele>1707.00</ele>
	<time>2025-08-03T07:39:20.000Z</time>
</trkpt>
<trkpt lat="45.9625480" lon="10.1339470">
	<ele>1707.00</ele>
	<time>2025-08-03T07:39:21.000Z</time>
</trkpt>
<trkpt lat="45.9625480" lon="10.1339520">
	<ele>1707.00</ele>
	<time>2025-08-03T07:39:22.000Z</time>
</trkpt>
<trkpt lat="45.9625600" lon="10.1339700">
	<ele>1707.00</ele>
	<time>2025-08-03T07:39:23.000Z</time>
</trkpt>
<trkpt lat="45.9625650" lon="10.1339790">
	<ele>1706.80</ele>
	<time>2025-08-03T07:39:24.000Z</time>
</trkpt>
<trkpt lat="45.9625700" lon="10.1339790">
	<ele>1706.80</ele>
	<time>2025-08-03T07:39:25.000Z</time>
</trkpt>
<trkpt lat="45.9625710" lon="10.1339800">
	<ele>1706.80</ele>
	<time>2025-08-03T07:39:26.000Z</time>
</trkpt>
<trkpt lat="45.9625710" lon="10.1339810">
	<ele>1707.00</ele>
	<time>2025-08-03T07:39:27.000Z</time>
</trkpt>
<trkpt lat="45.9625690" lon="10.1339810">
	<ele>1707.00</ele>
	<time>2025-08-03T07:39:28.000Z</time>
</trkpt>
<trkpt lat="45.9625630" lon="10.1339750">
	<ele>1707.00</ele>
	<time>2025-08-03T07:39:29.000Z</time>
</trkpt>
<trkpt lat="45.9625600" lon="10.1339740">
	<ele>1707.00</ele>
	<time>2025-08-03T07:39:30.000Z</time>
</trkpt>
<trkpt lat="45.9625590" lon="10.1339750">
	<ele>1707.00</ele>
	<time>2025-08-03T07:39:31.000Z</time>
</trkpt>
<trkpt lat="45.9625590" lon="10.1339750">
	<ele>1707.00</ele>
	<time>2025-08-03T07:39:32.000Z</time>
</trkpt>
<trkpt lat="45.9625590" lon="10.1339750">
	<ele>1707.00</ele>
	<time>2025-08-03T07:39:33.000Z</time>
</trkpt>
<trkpt lat="45.9625590" lon="10.1339750">
	<ele>1707.00</ele>
	<time>2025-08-03T07:39:34.000Z</time>
</trkpt>
<trkpt lat="45.9625590" lon="10.1339750">
	<ele>1707.00</ele>
	<time>2025-08-03T07:39:35.000Z</time>
</trkpt>
<trkpt lat="45.9625590" lon="10.1339750">
	<ele>1707.00</ele>
	<time>2025-08-03T07:39:36.000Z</time>
</trkpt>
<trkpt lat="45.9625590" lon="10.1339750">
	<ele>1707.00</ele>
	<time>2025-08-03T07:39:37.000Z</time>
</trkpt>
<trkpt lat="45.9625590" lon="10.1339750">
	<ele>1707.20</ele>
	<time>2025-08-03T07:39:38.000Z</time>
</trkpt>
<trkpt lat="45.9625590" lon="10.1339750">
	<ele>1707.40</ele>
	<time>2025-08-03T07:39:39.000Z</time>
</trkpt>
<trkpt lat="45.9625590" lon="10.1339750">
	<ele>1707.60</ele>
	<time>2025-08-03T07:39:40.000Z</time>
</trkpt>
<trkpt lat="45.9625590" lon="10.1339750">
	<ele>1707.60</ele>
	<time>2025-08-03T07:39:41.000Z</time>
</trkpt>
<trkpt lat="45.9625590" lon="10.1339750">
	<ele>1707.60</ele>
	<time>2025-08-03T07:39:42.000Z</time>
</trkpt>
<trkpt lat="45.9625590" lon="10.1339750">
	<ele>1707.60</ele>
	<time>2025-08-03T07:39:43.000Z</time>
</trkpt>
<trkpt lat="45.9625590" lon="10.1339750">
	<ele>1707.60</ele>
	<time>2025-08-03T07:39:44.000Z</time>
</trkpt>
<trkpt lat="45.9625590" lon="10.1339740">
	<ele>1707.60</ele>
	<time>2025-08-03T07:39:45.000Z</time>
</trkpt>
<trkpt lat="45.9625590" lon="10.1339740">
	<ele>1707.60</ele>
	<time>2025-08-03T07:39:46.000Z</time>
</trkpt>
<trkpt lat="45.9625590" lon="10.1339730">
	<ele>1707.40</ele>
	<time>2025-08-03T07:39:47.000Z</time>
</trkpt>
<trkpt lat="45.9625590" lon="10.1339720">
	<ele>1707.40</ele>
	<time>2025-08-03T07:39:48.000Z</time>
</trkpt>
<trkpt lat="45.9625590" lon="10.1339710">
	<ele>1707.40</ele>
	<time>2025-08-03T07:39:49.000Z</time>
</trkpt>
<trkpt lat="45.9625550" lon="10.1339700">
	<ele>1707.40</ele>
	<time>2025-08-03T07:39:50.000Z</time>
</trkpt>
<trkpt lat="45.9625460" lon="10.1339690">
	<ele>1707.40</ele>
	<time>2025-08-03T07:39:51.000Z</time>
</trkpt>
<trkpt lat="45.9625420" lon="10.1339730">
	<ele>1707.40</ele>
	<time>2025-08-03T07:39:52.000Z</time>
</trkpt>
<trkpt lat="45.9625380" lon="10.1339750">
	<ele>1707.40</ele>
	<time>2025-08-03T07:39:53.000Z</time>
</trkpt>
<trkpt lat="45.9625270" lon="10.1339740">
	<ele>1707.60</ele>
	<time>2025-08-03T07:39:54.000Z</time>
</trkpt>
<trkpt lat="45.9625130" lon="10.1339710">
	<ele>1707.60</ele>
	<time>2025-08-03T07:39:55.000Z</time>
</trkpt>
<trkpt lat="45.9625040" lon="10.1339700">
	<ele>1707.80</ele>
	<time>2025-08-03T07:39:56.000Z</time>
</trkpt>
<trkpt lat="45.9624920" lon="10.1339710">
	<ele>1707.80</ele>
	<time>2025-08-03T07:39:57.000Z</time>
</trkpt>
<trkpt lat="45.9624830" lon="10.1339750">
	<ele>1708.00</ele>
	<time>2025-08-03T07:39:58.000Z</time>
</trkpt>
<trkpt lat="45.9624780" lon="10.1339800">
	<ele>1708.00</ele>
	<time>2025-08-03T07:39:59.000Z</time>
</trkpt>
<trkpt lat="45.9624780" lon="10.1339870">
	<ele>1708.20</ele>
	<time>2025-08-03T07:40:00.000Z</time>
</trkpt>
<trkpt lat="45.9624830" lon="10.1340020">
	<ele>1708.20</ele>
	<time>2025-08-03T07:40:01.000Z</time>
</trkpt>
<trkpt lat="45.9624840" lon="10.1340110">
	<ele>1708.40</ele>
	<time>2025-08-03T07:40:02.000Z</time>
</trkpt>
<trkpt lat="45.9624830" lon="10.1340200">
	<ele>1708.60</ele>
	<time>2025-08-03T07:40:03.000Z</time>
</trkpt>
<trkpt lat="45.9624830" lon="10.1340290">
	<ele>1708.60</ele>
	<time>2025-08-03T07:40:04.000Z</time>
</trkpt>
<trkpt lat="45.9624820" lon="10.1340360">
	<ele>1708.60</ele>
	<time>2025-08-03T07:40:05.000Z</time>
</trkpt>
<trkpt lat="45.9624830" lon="10.1340490">
	<ele>1709.00</ele>
	<time>2025-08-03T07:40:06.000Z</time>
</trkpt>
<trkpt lat="45.9624840" lon="10.1340650">
	<ele>1709.20</ele>
	<time>2025-08-03T07:40:07.000Z</time>
</trkpt>
<trkpt lat="45.9624900" lon="10.1340700">
	<ele>1709.40</ele>
	<time>2025-08-03T07:40:08.000Z</time>
</trkpt>
<trkpt lat="45.9624950" lon="10.1340780">
	<ele>1709.80</ele>
	<time>2025-08-03T07:40:09.000Z</time>
</trkpt>
<trkpt lat="45.9625000" lon="10.1340890">
	<ele>1710.00</ele>
	<time>2025-08-03T07:40:10.000Z</time>
</trkpt>
<trkpt lat="45.9625040" lon="10.1341010">
	<ele>1710.40</ele>
	<time>2025-08-03T07:40:11.000Z</time>
</trkpt>
<trkpt lat="45.9625090" lon="10.1341110">
	<ele>1710.60</ele>
	<time>2025-08-03T07:40:12.000Z</time>
</trkpt>
<trkpt lat="45.9625160" lon="10.1341260">
	<ele>1710.80</ele>
	<time>2025-08-03T07:40:13.000Z</time>
</trkpt>
<trkpt lat="45.9625190" lon="10.1341430">
	<ele>1710.80</ele>
	<time>2025-08-03T07:40:14.000Z</time>
</trkpt>
<trkpt lat="45.9625230" lon="10.1341620">
	<ele>1711.00</ele>
	<time>2025-08-03T07:40:15.000Z</time>
</trkpt>
<trkpt lat="45.9625300" lon="10.1341810">
	<ele>1711.20</ele>
	<time>2025-08-03T07:40:16.000Z</time>
</trkpt>
<trkpt lat="45.9625380" lon="10.1341970">
	<ele>1711.40</ele>
	<time>2025-08-03T07:40:17.000Z</time>
</trkpt>
<trkpt lat="45.9625470" lon="10.1342130">
	<ele>1711.40</ele>
	<time>2025-08-03T07:40:18.000Z</time>
</trkpt>
<trkpt lat="45.9625540" lon="10.1342240">
	<ele>1711.60</ele>
	<time>2025-08-03T07:40:19.000Z</time>
</trkpt>
<trkpt lat="45.9625560" lon="10.1342390">
	<ele>1711.80</ele>
	<time>2025-08-03T07:40:20.000Z</time>
</trkpt>
<trkpt lat="45.9625560" lon="10.1342570">
	<ele>1712.00</ele>
	<time>2025-08-03T07:40:21.000Z</time>
</trkpt>
<trkpt lat="45.9625520" lon="10.1342670">
	<ele>1712.40</ele>
	<time>2025-08-03T07:40:22.000Z</time>
</trkpt>
<trkpt lat="45.9625530" lon="10.1342750">
	<ele>1712.60</ele>
	<time>2025-08-03T07:40:23.000Z</time>
</trkpt>
<trkpt lat="45.9625540" lon="10.1342820">
	<ele>1712.80</ele>
	<time>2025-08-03T07:40:24.000Z</time>
</trkpt>
<trkpt lat="45.9625530" lon="10.1342930">
	<ele>1713.00</ele>
	<time>2025-08-03T07:40:25.000Z</time>
</trkpt>
<trkpt lat="45.9625570" lon="10.1343060">
	<ele>1713.20</ele>
	<time>2025-08-03T07:40:26.000Z</time>
</trkpt>
<trkpt lat="45.9625590" lon="10.1343190">
	<ele>1713.40</ele>
	<time>2025-08-03T07:40:27.000Z</time>
</trkpt>
<trkpt lat="45.9625590" lon="10.1343330">
	<ele>1713.40</ele>
	<time>2025-08-03T07:40:28.000Z</time>
</trkpt>
<trkpt lat="45.9625550" lon="10.1343440">
	<ele>1713.60</ele>
	<time>2025-08-03T07:40:29.000Z</time>
</trkpt>
<trkpt lat="45.9625530" lon="10.1343560">
	<ele>1713.80</ele>
	<time>2025-08-03T07:40:30.000Z</time>
</trkpt>
<trkpt lat="45.9625430" lon="10.1343630">
	<ele>1714.00</ele>
	<time>2025-08-03T07:40:31.000Z</time>
</trkpt>
<trkpt lat="45.9625360" lon="10.1343680">
	<ele>1714.20</ele>
	<time>2025-08-03T07:40:32.000Z</time>
</trkpt>
<trkpt lat="45.9625390" lon="10.1343730">
	<ele>1714.40</ele>
	<time>2025-08-03T07:40:33.000Z</time>
</trkpt>
<trkpt lat="45.9625430" lon="10.1343800">
	<ele>1714.60</ele>
	<time>2025-08-03T07:40:34.000Z</time>
</trkpt>
<trkpt lat="45.9625460" lon="10.1343930">
	<ele>1714.80</ele>
	<time>2025-08-03T07:40:35.000Z</time>
</trkpt>
<trkpt lat="45.9625450" lon="10.1344010">
	<ele>1714.80</ele>
	<time>2025-08-03T07:40:36.000Z</time>
</trkpt>
<trkpt lat="45.9625420" lon="10.1344040">
	<ele>1715.00</ele>
	<time>2025-08-03T07:40:37.000Z</time>
</trkpt>
<trkpt lat="45.9625400" lon="10.1344150">
	<ele>1715.20</ele>
	<time>2025-08-03T07:40:38.000Z</time>
</trkpt>
<trkpt lat="45.9625370" lon="10.1344150">
	<ele>1715.20</ele>
	<time>2025-08-03T07:40:39.000Z</time>
</trkpt>
<trkpt lat="45.9625430" lon="10.1344280">
	<ele>1715.40</ele>
	<time>2025-08-03T07:40:40.000Z</time>
</trkpt>
<trkpt lat="45.9625500" lon="10.1344370">
	<ele>1715.80</ele>
	<time>2025-08-03T07:40:41.000Z</time>
</trkpt>
<trkpt lat="45.9625520" lon="10.1344430">
	<ele>1715.80</ele>
	<time>2025-08-03T07:40:42.000Z</time>
</trkpt>
<trkpt lat="45.9625560" lon="10.1344500">
	<ele>1716.00</ele>
	<time>2025-08-03T07:40:43.000Z</time>
</trkpt>
<trkpt lat="45.9625600" lon="10.1344560">
	<ele>1716.20</ele>
	<time>2025-08-03T07:40:44.000Z</time>
</trkpt>
<trkpt lat="45.9625630" lon="10.1344640">
	<ele>1716.40</ele>
	<time>2025-08-03T07:40:45.000Z</time>
</trkpt>
<trkpt lat="45.9625680" lon="10.1344740">
	<ele>1716.40</ele>
	<time>2025-08-03T07:40:46.000Z</time>
</trkpt>
<trkpt lat="45.9625710" lon="10.1344830">
	<ele>1716.60</ele>
	<time>2025-08-03T07:40:47.000Z</time>
</trkpt>
<trkpt lat="45.9625770" lon="10.1344950">
	<ele>1716.80</ele>
	<time>2025-08-03T07:40:48.000Z</time>
</trkpt>
<trkpt lat="45.9625790" lon="10.1345010">
	<ele>1716.80</ele>
	<time>2025-08-03T07:40:49.000Z</time>
</trkpt>
<trkpt lat="45.9625830" lon="10.1345110">
	<ele>1716.80</ele>
	<time>2025-08-03T07:40:50.000Z</time>
</trkpt>
<trkpt lat="45.9625890" lon="10.1345250">
	<ele>1717.00</ele>
	<time>2025-08-03T07:40:51.000Z</time>
</trkpt>
<trkpt lat="45.9625930" lon="10.1345370">
	<ele>1717.20</ele>
	<time>2025-08-03T07:40:52.000Z</time>
</trkpt>
<trkpt lat="45.9625940" lon="10.1345490">
	<ele>1717.60</ele>
	<time>2025-08-03T07:40:53.000Z</time>
</trkpt>
<trkpt lat="45.9625940" lon="10.1345630">
	<ele>1718.00</ele>
	<time>2025-08-03T07:40:54.000Z</time>
</trkpt>
<trkpt lat="45.9625940" lon="10.1345790">
	<ele>1718.20</ele>
	<time>2025-08-03T07:40:55.000Z</time>
</trkpt>
<trkpt lat="45.9625940" lon="10.1345840">
	<ele>1718.20</ele>
	<time>2025-08-03T07:40:56.000Z</time>
</trkpt>
<trkpt lat="45.9625940" lon="10.1346010">
	<ele>1718.20</ele>
	<time>2025-08-03T07:40:57.000Z</time>
</trkpt>
<trkpt lat="45.9625960" lon="10.1346010">
	<ele>1718.20</ele>
	<time>2025-08-03T07:40:58.000Z</time>
</trkpt>
<trkpt lat="45.9625980" lon="10.1346010">
	<ele>1718.20</ele>
	<time>2025-08-03T07:40:59.000Z</time>
</trkpt>
<trkpt lat="45.9625980" lon="10.1346040">
	<ele>1718.00</ele>
	<time>2025-08-03T07:41:00.000Z</time>
</trkpt>
<trkpt lat="45.9625960" lon="10.1346060">
	<ele>1718.00</ele>
	<time>2025-08-03T07:41:01.000Z</time>
</trkpt>
<trkpt lat="45.9625950" lon="10.1346100">
	<ele>1718.00</ele>
	<time>2025-08-03T07:41:02.000Z</time>
</trkpt>
<trkpt lat="45.9626090" lon="10.1346120">
	<ele>1718.00</ele>
	<time>2025-08-03T07:41:03.000Z</time>
</trkpt>
<trkpt lat="45.9626180" lon="10.1346210">
	<ele>1718.00</ele>
	<time>2025-08-03T07:41:04.000Z</time>
</trkpt>
<trkpt lat="45.9626200" lon="10.1346190">
	<ele>1718.00</ele>
	<time>2025-08-03T07:41:05.000Z</time>
</trkpt>
<trkpt lat="45.9626130" lon="10.1346270">
	<ele>1718.20</ele>
	<time>2025-08-03T07:41:06.000Z</time>
</trkpt>
<trkpt lat="45.9626140" lon="10.1346280">
	<ele>1718.00</ele>
	<time>2025-08-03T07:41:07.000Z</time>
</trkpt>
<trkpt lat="45.9626160" lon="10.1346280">
	<ele>1718.00</ele>
	<time>2025-08-03T07:41:08.000Z</time>
</trkpt>
<trkpt lat="45.9626160" lon="10.1346280">
	<ele>1718.00</ele>
	<time>2025-08-03T07:41:09.000Z</time>
</trkpt>
<trkpt lat="45.9626160" lon="10.1346290">
	<ele>1718.20</ele>
	<time>2025-08-03T07:41:10.000Z</time>
</trkpt>
<trkpt lat="45.9626150" lon="10.1346290">
	<ele>1718.20</ele>
	<time>2025-08-03T07:41:11.000Z</time>
</trkpt>
<trkpt lat="45.9626150" lon="10.1346290">
	<ele>1718.00</ele>
	<time>2025-08-03T07:41:12.000Z</time>
</trkpt>
<trkpt lat="45.9626150" lon="10.1346290">
	<ele>1718.00</ele>
	<time>2025-08-03T07:41:13.000Z</time>
</trkpt>
<trkpt lat="45.9626150" lon="10.1346290">
	<ele>1718.00</ele>
	<time>2025-08-03T07:41:14.000Z</time>
</trkpt>
<trkpt lat="45.9626150" lon="10.1346290">
	<ele>1718.00</ele>
	<time>2025-08-03T07:41:15.000Z</time>
</trkpt>
<trkpt lat="45.9626150" lon="10.1346290">
	<ele>1718.00</ele>
	<time>2025-08-03T07:41:16.000Z</time>
</trkpt>
<trkpt lat="45.9626150" lon="10.1346290">
	<ele>1718.00</ele>
	<time>2025-08-03T07:41:17.000Z</time>
</trkpt>
<trkpt lat="45.9626150" lon="10.1346290">
	<ele>1718.00</ele>
	<time>2025-08-03T07:41:18.000Z</time>
</trkpt>
<trkpt lat="45.9626140" lon="10.1346360">
	<ele>1718.20</ele>
	<time>2025-08-03T07:41:19.000Z</time>
</trkpt>
<trkpt lat="45.9626170" lon="10.1346540">
	<ele>1718.20</ele>
	<time>2025-08-03T07:41:20.000Z</time>
</trkpt>
<trkpt lat="45.9626180" lon="10.1346810">
	<ele>1718.20</ele>
	<time>2025-08-03T07:41:21.000Z</time>
</trkpt>
<trkpt lat="45.9626190" lon="10.1347040">
	<ele>1718.40</ele>
	<time>2025-08-03T07:41:22.000Z</time>
</trkpt>
<trkpt lat="45.9626190" lon="10.1347290">
	<ele>1718.80</ele>
	<time>2025-08-03T07:41:23.000Z</time>
</trkpt>
<trkpt lat="45.9626180" lon="10.1347560">
	<ele>1719.00</ele>
	<time>2025-08-03T07:41:24.000Z</time>
</trkpt>
<trkpt lat="45.9626150" lon="10.1347800">
	<ele>1719.20</ele>
	<time>2025-08-03T07:41:25.000Z</time>
</trkpt>
<trkpt lat="45.9626140" lon="10.1348010">
	<ele>1719.40</ele>
	<time>2025-08-03T07:41:26.000Z</time>
</trkpt>
<trkpt lat="45.9626160" lon="10.1348240">
	<ele>1719.80</ele>
	<time>2025-08-03T07:41:27.000Z</time>
</trkpt>
<trkpt lat="45.9626200" lon="10.1348470">
	<ele>1719.80</ele>
	<time>2025-08-03T07:41:28.000Z</time>
</trkpt>
<trkpt lat="45.9626210" lon="10.1348610">
	<ele>1720.20</ele>
	<time>2025-08-03T07:41:29.000Z</time>
</trkpt>
<trkpt lat="45.9626210" lon="10.1348750">
	<ele>1720.40</ele>
	<time>2025-08-03T07:41:30.000Z</time>
</trkpt>
<trkpt lat="45.9626230" lon="10.1348890">
	<ele>1720.60</ele>
	<time>2025-08-03T07:41:31.000Z</time>
</trkpt>
<trkpt lat="45.9626240" lon="10.1349070">
	<ele>1720.80</ele>
	<time>2025-08-03T07:41:32.000Z</time>
</trkpt>
<trkpt lat="45.9626280" lon="10.1349190">
	<ele>1721.00</ele>
	<time>2025-08-03T07:41:33.000Z</time>
</trkpt>
<trkpt lat="45.9626320" lon="10.1349290">
	<ele>1721.20</ele>
	<time>2025-08-03T07:41:34.000Z</time>
</trkpt>
<trkpt lat="45.9626310" lon="10.1349410">
	<ele>1721.20</ele>
	<time>2025-08-03T07:41:35.000Z</time>
</trkpt>
<trkpt lat="45.9626320" lon="10.1349510">
	<ele>1721.40</ele>
	<time>2025-08-03T07:41:36.000Z</time>
</trkpt>
<trkpt lat="45.9626320" lon="10.1349610">
	<ele>1721.40</ele>
	<time>2025-08-03T07:41:37.000Z</time>
</trkpt>
<trkpt lat="45.9626320" lon="10.1349720">
	<ele>1721.60</ele>
	<time>2025-08-03T07:41:38.000Z</time>
</trkpt>
<trkpt lat="45.9626350" lon="10.1349800">
	<ele>1721.80</ele>
	<time>2025-08-03T07:41:39.000Z</time>
</trkpt>
<trkpt lat="45.9626430" lon="10.1349890">
	<ele>1721.80</ele>
	<time>2025-08-03T07:41:40.000Z</time>
</trkpt>
<trkpt lat="45.9626490" lon="10.1350020">
	<ele>1722.00</ele>
	<time>2025-08-03T07:41:41.000Z</time>
</trkpt>
<trkpt lat="45.9626530" lon="10.1350090">
	<ele>1722.20</ele>
	<time>2025-08-03T07:41:42.000Z</time>
</trkpt>
<trkpt lat="45.9626560" lon="10.1350090">
	<ele>1722.40</ele>
	<time>2025-08-03T07:41:43.000Z</time>
</trkpt>
<trkpt lat="45.9626590" lon="10.1350110">
	<ele>1722.40</ele>
	<time>2025-08-03T07:41:44.000Z</time>
</trkpt>
<trkpt lat="45.9626590" lon="10.1350140">
	<ele>1722.60</ele>
	<time>2025-08-03T07:41:45.000Z</time>
</trkpt>
<trkpt lat="45.9626570" lon="10.1350170">
	<ele>1722.60</ele>
	<time>2025-08-03T07:41:46.000Z</time>
</trkpt>
<trkpt lat="45.9626550" lon="10.1350210">
	<ele>1722.60</ele>
	<time>2025-08-03T07:41:47.000Z</time>
</trkpt>
<trkpt lat="45.9626530" lon="10.1350220">
	<ele>1722.60</ele>
	<time>2025-08-03T07:41:48.000Z</time>
</trkpt>
<trkpt lat="45.9626510" lon="10.1350210">
	<ele>1722.60</ele>
	<time>2025-08-03T07:41:49.000Z</time>
</trkpt>
<trkpt lat="45.9626420" lon="10.1350140">
	<ele>1722.60</ele>
	<time>2025-08-03T07:41:50.000Z</time>
</trkpt>
<trkpt lat="45.9626420" lon="10.1350130">
	<ele>1722.60</ele>
	<time>2025-08-03T07:41:51.000Z</time>
</trkpt>
<trkpt lat="45.9626400" lon="10.1350130">
	<ele>1722.60</ele>
	<time>2025-08-03T07:41:52.000Z</time>
</trkpt>
<trkpt lat="45.9626390" lon="10.1350130">
	<ele>1722.60</ele>
	<time>2025-08-03T07:41:53.000Z</time>
</trkpt>
<trkpt lat="45.9626390" lon="10.1350130">
	<ele>1722.80</ele>
	<time>2025-08-03T07:41:54.000Z</time>
</trkpt>
<trkpt lat="45.9626390" lon="10.1350130">
	<ele>1723.00</ele>
	<time>2025-08-03T07:41:55.000Z</time>
</trkpt>
<trkpt lat="45.9626390" lon="10.1350130">
	<ele>1723.00</ele>
	<time>2025-08-03T07:41:56.000Z</time>
</trkpt>
<trkpt lat="45.9626390" lon="10.1350130">
	<ele>1722.80</ele>
	<time>2025-08-03T07:41:57.000Z</time>
</trkpt>
<trkpt lat="45.9626390" lon="10.1350130">
	<ele>1722.80</ele>
	<time>2025-08-03T07:41:58.000Z</time>
</trkpt>
<trkpt lat="45.9626390" lon="10.1350130">
	<ele>1722.60</ele>
	<time>2025-08-03T07:41:59.000Z</time>
</trkpt>
<trkpt lat="45.9626390" lon="10.1350130">
	<ele>1722.60</ele>
	<time>2025-08-03T07:42:00.000Z</time>
</trkpt>
<trkpt lat="45.9626390" lon="10.1350130">
	<ele>1722.60</ele>
	<time>2025-08-03T07:42:01.000Z</time>
</trkpt>
<trkpt lat="45.9626400" lon="10.1350190">
	<ele>1722.60</ele>
	<time>2025-08-03T07:42:02.000Z</time>
</trkpt>
<trkpt lat="45.9626430" lon="10.1350370">
	<ele>1722.60</ele>
	<time>2025-08-03T07:42:03.000Z</time>
</trkpt>
<trkpt lat="45.9626470" lon="10.1350540">
	<ele>1722.60</ele>
	<time>2025-08-03T07:42:04.000Z</time>
</trkpt>
<trkpt lat="45.9626500" lon="10.1350670">
	<ele>1722.80</ele>
	<time>2025-08-03T07:42:05.000Z</time>
</trkpt>
<trkpt lat="45.9626510" lon="10.1350930">
	<ele>1722.80</ele>
	<time>2025-08-03T07:42:06.000Z</time>
</trkpt>
<trkpt lat="45.9626560" lon="10.1351090">
	<ele>1722.80</ele>
	<time>2025-08-03T07:42:07.000Z</time>
</trkpt>
<trkpt lat="45.9626600" lon="10.1351310">
	<ele>1723.00</ele>
	<time>2025-08-03T07:42:08.000Z</time>
</trkpt>
<trkpt lat="45.9626630" lon="10.1351500">
	<ele>1723.00</ele>
	<time>2025-08-03T07:42:09.000Z</time>
</trkpt>
<trkpt lat="45.9626620" lon="10.1351780">
	<ele>1723.00</ele>
	<time>2025-08-03T07:42:10.000Z</time>
</trkpt>
<trkpt lat="45.9626620" lon="10.1352040">
	<ele>1723.20</ele>
	<time>2025-08-03T07:42:11.000Z</time>
</trkpt>
<trkpt lat="45.9626610" lon="10.1352210">
	<ele>1723.40</ele>
	<time>2025-08-03T07:42:12.000Z</time>
</trkpt>
<trkpt lat="45.9626630" lon="10.1352330">
	<ele>1723.60</ele>
	<time>2025-08-03T07:42:13.000Z</time>
</trkpt>
<trkpt lat="45.9626640" lon="10.1352430">
	<ele>1723.80</ele>
	<time>2025-08-03T07:42:14.000Z</time>
</trkpt>
<trkpt lat="45.9626670" lon="10.1352590">
	<ele>1724.00</ele>
	<time>2025-08-03T07:42:15.000Z</time>
</trkpt>
<trkpt lat="45.9626730" lon="10.1352690">
	<ele>1724.40</ele>
	<time>2025-08-03T07:42:16.000Z</time>
</trkpt>
<trkpt lat="45.9626770" lon="10.1352850">
	<ele>1724.60</ele>
	<time>2025-08-03T07:42:17.000Z</time>
</trkpt>
<trkpt lat="45.9626780" lon="10.1353010">
	<ele>1724.80</ele>
	<time>2025-08-03T07:42:18.000Z</time>
</trkpt>
<trkpt lat="45.9626780" lon="10.1353210">
	<ele>1725.00</ele>
	<time>2025-08-03T07:42:19.000Z</time>
</trkpt>
<trkpt lat="45.9626780" lon="10.1353410">
	<ele>1725.00</ele>
	<time>2025-08-03T07:42:20.000Z</time>
</trkpt>
<trkpt lat="45.9626790" lon="10.1353630">
	<ele>1725.40</ele>
	<time>2025-08-03T07:42:21.000Z</time>
</trkpt>
<trkpt lat="45.9626780" lon="10.1353820">
	<ele>1725.40</ele>
	<time>2025-08-03T07:42:22.000Z</time>
</trkpt>
<trkpt lat="45.9626810" lon="10.1354000">
	<ele>1725.60</ele>
	<time>2025-08-03T07:42:23.000Z</time>
</trkpt>
<trkpt lat="45.9626830" lon="10.1354160">
	<ele>1725.60</ele>
	<time>2025-08-03T07:42:24.000Z</time>
</trkpt>
<trkpt lat="45.9626850" lon="10.1354270">
	<ele>1725.80</ele>
	<time>2025-08-03T07:42:25.000Z</time>
</trkpt>
<trkpt lat="45.9626880" lon="10.1354430">
	<ele>1725.80</ele>
	<time>2025-08-03T07:42:26.000Z</time>
</trkpt>
<trkpt lat="45.9626900" lon="10.1354600">
	<ele>1725.80</ele>
	<time>2025-08-03T07:42:27.000Z</time>
</trkpt>
<trkpt lat="45.9626890" lon="10.1354720">
	<ele>1726.00</ele>
	<time>2025-08-03T07:42:28.000Z</time>
</trkpt>
<trkpt lat="45.9626890" lon="10.1354900">
	<ele>1726.00</ele>
	<time>2025-08-03T07:42:29.000Z</time>
</trkpt>
<trkpt lat="45.9626890" lon="10.1355020">
	<ele>1726.00</ele>
	<time>2025-08-03T07:42:30.000Z</time>
</trkpt>
<trkpt lat="45.9626900" lon="10.1355230">
	<ele>1726.00</ele>
	<time>2025-08-03T07:42:31.000Z</time>
</trkpt>
<trkpt lat="45.9626910" lon="10.1355400">
	<ele>1726.20</ele>
	<time>2025-08-03T07:42:32.000Z</time>
</trkpt>
<trkpt lat="45.9626930" lon="10.1355570">
	<ele>1726.20</ele>
	<time>2025-08-03T07:42:33.000Z</time>
</trkpt>
<trkpt lat="45.9626960" lon="10.1355760">
	<ele>1726.20</ele>
	<time>2025-08-03T07:42:34.000Z</time>
</trkpt>
<trkpt lat="45.9626970" lon="10.1355930">
	<ele>1726.20</ele>
	<time>2025-08-03T07:42:35.000Z</time>
</trkpt>
<trkpt lat="45.9627000" lon="10.1356110">
	<ele>1726.40</ele>
	<time>2025-08-03T07:42:36.000Z</time>
</trkpt>
<trkpt lat="45.9627030" lon="10.1356290">
	<ele>1726.40</ele>
	<time>2025-08-03T07:42:37.000Z</time>
</trkpt>
<trkpt lat="45.9627070" lon="10.1356440">
	<ele>1726.40</ele>
	<time>2025-08-03T07:42:38.000Z</time>
</trkpt>
<trkpt lat="45.9627110" lon="10.1356610">
	<ele>1726.40</ele>
	<time>2025-08-03T07:42:39.000Z</time>
</trkpt>
<trkpt lat="45.9627140" lon="10.1356830">
	<ele>1726.40</ele>
	<time>2025-08-03T07:42:40.000Z</time>
</trkpt>
<trkpt lat="45.9627170" lon="10.1357020">
	<ele>1726.40</ele>
	<time>2025-08-03T07:42:41.000Z</time>
</trkpt>
<trkpt lat="45.9627210" lon="10.1357210">
	<ele>1726.20</ele>
	<time>2025-08-03T07:42:42.000Z</time>
</trkpt>
<trkpt lat="45.9627220" lon="10.1357390">
	<ele>1726.20</ele>
	<time>2025-08-03T07:42:43.000Z</time>
</trkpt>
<trkpt lat="45.9627250" lon="10.1357560">
	<ele>1726.20</ele>
	<time>2025-08-03T07:42:44.000Z</time>
</trkpt>
<trkpt lat="45.9627280" lon="10.1357730">
	<ele>1726.20</ele>
	<time>2025-08-03T07:42:45.000Z</time>
</trkpt>
<trkpt lat="45.9627290" lon="10.1357880">
	<ele>1726.20</ele>
	<time>2025-08-03T07:42:46.000Z</time>
</trkpt>
<trkpt lat="45.9627310" lon="10.1358100">
	<ele>1726.20</ele>
	<time>2025-08-03T07:42:47.000Z</time>
</trkpt>
<trkpt lat="45.9627330" lon="10.1358300">
	<ele>1726.20</ele>
	<time>2025-08-03T07:42:48.000Z</time>
</trkpt>
<trkpt lat="45.9627350" lon="10.1358520">
	<ele>1726.20</ele>
	<time>2025-08-03T07:42:49.000Z</time>
</trkpt>
<trkpt lat="45.9627360" lon="10.1358690">
	<ele>1726.20</ele>
	<time>2025-08-03T07:42:50.000Z</time>
</trkpt>
<trkpt lat="45.9627370" lon="10.1358960">
	<ele>1726.20</ele>
	<time>2025-08-03T07:42:51.000Z</time>
</trkpt>
<trkpt lat="45.9627370" lon="10.1359160">
	<ele>1726.20</ele>
	<time>2025-08-03T07:42:52.000Z</time>
</trkpt>
<trkpt lat="45.9627370" lon="10.1359370">
	<ele>1726.20</ele>
	<time>2025-08-03T07:42:53.000Z</time>
</trkpt>
<trkpt lat="45.9627390" lon="10.1359530">
	<ele>1726.20</ele>
	<time>2025-08-03T07:42:54.000Z</time>
</trkpt>
<trkpt lat="45.9627410" lon="10.1359710">
	<ele>1726.20</ele>
	<time>2025-08-03T07:42:55.000Z</time>
</trkpt>
<trkpt lat="45.9627420" lon="10.1359910">
	<ele>1726.20</ele>
	<time>2025-08-03T07:42:56.000Z</time>
</trkpt>
<trkpt lat="45.9627430" lon="10.1360090">
	<ele>1726.20</ele>
	<time>2025-08-03T07:42:57.000Z</time>
</trkpt>
<trkpt lat="45.9627450" lon="10.1360250">
	<ele>1726.40</ele>
	<time>2025-08-03T07:42:58.000Z</time>
</trkpt>
<trkpt lat="45.9627450" lon="10.1360430">
	<ele>1726.40</ele>
	<time>2025-08-03T07:42:59.000Z</time>
</trkpt>
<trkpt lat="45.9627460" lon="10.1360600">
	<ele>1726.40</ele>
	<time>2025-08-03T07:43:00.000Z</time>
</trkpt>
<trkpt lat="45.9627500" lon="10.1360780">
	<ele>1726.60</ele>
	<time>2025-08-03T07:43:01.000Z</time>
</trkpt>
<trkpt lat="45.9627530" lon="10.1360960">
	<ele>1726.80</ele>
	<time>2025-08-03T07:43:02.000Z</time>
</trkpt>
<trkpt lat="45.9627570" lon="10.1361140">
	<ele>1726.80</ele>
	<time>2025-08-03T07:43:03.000Z</time>
</trkpt>
<trkpt lat="45.9627560" lon="10.1361250">
	<ele>1727.00</ele>
	<time>2025-08-03T07:43:04.000Z</time>
</trkpt>
<trkpt lat="45.9627570" lon="10.1361480">
	<ele>1727.00</ele>
	<time>2025-08-03T07:43:05.000Z</time>
</trkpt>
<trkpt lat="45.9627570" lon="10.1361650">
	<ele>1727.00</ele>
	<time>2025-08-03T07:43:06.000Z</time>
</trkpt>
<trkpt lat="45.9627570" lon="10.1361850">
	<ele>1727.20</ele>
	<time>2025-08-03T07:43:07.000Z</time>
</trkpt>
<trkpt lat="45.9627590" lon="10.1362040">
	<ele>1727.20</ele>
	<time>2025-08-03T07:43:08.000Z</time>
</trkpt>
<trkpt lat="45.9627570" lon="10.1362240">
	<ele>1727.20</ele>
	<time>2025-08-03T07:43:09.000Z</time>
</trkpt>
<trkpt lat="45.9627560" lon="10.1362410">
	<ele>1727.40</ele>
	<time>2025-08-03T07:43:10.000Z</time>
</trkpt>
<trkpt lat="45.9627560" lon="10.1362590">
	<ele>1727.40</ele>
	<time>2025-08-03T07:43:11.000Z</time>
</trkpt>
<trkpt lat="45.9627570" lon="10.1362790">
	<ele>1727.60</ele>
	<time>2025-08-03T07:43:12.000Z</time>
</trkpt>
<trkpt lat="45.9627590" lon="10.1362980">
	<ele>1727.80</ele>
	<time>2025-08-03T07:43:13.000Z</time>
</trkpt>
<trkpt lat="45.9627590" lon="10.1363130">
	<ele>1727.80</ele>
	<time>2025-08-03T07:43:14.000Z</time>
</trkpt>
<trkpt lat="45.9627570" lon="10.1363310">
	<ele>1727.80</ele>
	<time>2025-08-03T07:43:15.000Z</time>
</trkpt>
<trkpt lat="45.9627580" lon="10.1363490">
	<ele>1728.00</ele>
	<time>2025-08-03T07:43:16.000Z</time>
</trkpt>
<trkpt lat="45.9627590" lon="10.1363670">
	<ele>1728.20</ele>
	<time>2025-08-03T07:43:17.000Z</time>
</trkpt>
<trkpt lat="45.9627570" lon="10.1363840">
	<ele>1728.20</ele>
	<time>2025-08-03T07:43:18.000Z</time>
</trkpt>
<trkpt lat="45.9627560" lon="10.1364010">
	<ele>1728.20</ele>
	<time>2025-08-03T07:43:19.000Z</time>
</trkpt>
<trkpt lat="45.9627540" lon="10.1364180">
	<ele>1728.40</ele>
	<time>2025-08-03T07:43:20.000Z</time>
</trkpt>
<trkpt lat="45.9627510" lon="10.1364330">
	<ele>1728.40</ele>
	<time>2025-08-03T07:43:21.000Z</time>
</trkpt>
<trkpt lat="45.9627480" lon="10.1364470">
	<ele>1728.40</ele>
	<time>2025-08-03T07:43:22.000Z</time>
</trkpt>
<trkpt lat="45.9627480" lon="10.1364620">
	<ele>1728.60</ele>
	<time>2025-08-03T07:43:23.000Z</time>
</trkpt>
<trkpt lat="45.9627480" lon="10.1364790">
	<ele>1728.60</ele>
	<time>2025-08-03T07:43:24.000Z</time>
</trkpt>
<trkpt lat="45.9627460" lon="10.1364950">
	<ele>1728.80</ele>
	<time>2025-08-03T07:43:25.000Z</time>
</trkpt>
<trkpt lat="45.9627440" lon="10.1365100">
	<ele>1728.80</ele>
	<time>2025-08-03T07:43:26.000Z</time>
</trkpt>
<trkpt lat="45.9627430" lon="10.1365270">
	<ele>1729.00</ele>
	<time>2025-08-03T07:43:27.000Z</time>
</trkpt>
<trkpt lat="45.9627430" lon="10.1365420">
	<ele>1729.20</ele>
	<time>2025-08-03T07:43:28.000Z</time>
</trkpt>
<trkpt lat="45.9627440" lon="10.1365580">
	<ele>1729.40</ele>
	<time>2025-08-03T07:43:29.000Z</time>
</trkpt>
<trkpt lat="45.9627420" lon="10.1365750">
	<ele>1729.40</ele>
	<time>2025-08-03T07:43:30.000Z</time>
</trkpt>
<trkpt lat="45.9627370" lon="10.1365920">
	<ele>1729.60</ele>
	<time>2025-08-03T07:43:31.000Z</time>
</trkpt>
<trkpt lat="45.9627370" lon="10.1366090">
	<ele>1729.60</ele>
	<time>2025-08-03T07:43:32.000Z</time>
</trkpt>
<trkpt lat="45.9627380" lon="10.1366250">
	<ele>1729.60</ele>
	<time>2025-08-03T07:43:33.000Z</time>
</trkpt>
<trkpt lat="45.9627370" lon="10.1366410">
	<ele>1729.80</ele>
	<time>2025-08-03T07:43:34.000Z</time>
</trkpt>
<trkpt lat="45.9627360" lon="10.1366570">
	<ele>1729.80</ele>
	<time>2025-08-03T07:43:35.000Z</time>
</trkpt>
<trkpt lat="45.9627340" lon="10.1366710">
	<ele>1730.00</ele>
	<time>2025-08-03T07:43:36.000Z</time>
</trkpt>
<trkpt lat="45.9627330" lon="10.1366880">
	<ele>1730.00</ele>
	<time>2025-08-03T07:43:37.000Z</time>
</trkpt>
<trkpt lat="45.9627320" lon="10.1367050">
	<ele>1730.20</ele>
	<time>2025-08-03T07:43:38.000Z</time>
</trkpt>
<trkpt lat="45.9627330" lon="10.1367220">
	<ele>1730.40</ele>
	<time>2025-08-03T07:43:39.000Z</time>
</trkpt>
<trkpt lat="45.9627300" lon="10.1367370">
	<ele>1730.60</ele>
	<time>2025-08-03T07:43:40.000Z</time>
</trkpt>
<trkpt lat="45.9627280" lon="10.1367530">
	<ele>1730.60</ele>
	<time>2025-08-03T07:43:41.000Z</time>
</trkpt>
<trkpt lat="45.9627260" lon="10.1367680">
	<ele>1730.60</ele>
	<time>2025-08-03T07:43:42.000Z</time>
</trkpt>
<trkpt lat="45.9627270" lon="10.1367830">
	<ele>1730.80</ele>
	<time>2025-08-03T07:43:43.000Z</time>
</trkpt>
<trkpt lat="45.9627300" lon="10.1367990">
	<ele>1730.80</ele>
	<time>2025-08-03T07:43:44.000Z</time>
</trkpt>
<trkpt lat="45.9627330" lon="10.1368130">
	<ele>1731.00</ele>
	<time>2025-08-03T07:43:45.000Z</time>
</trkpt>
<trkpt lat="45.9627370" lon="10.1368280">
	<ele>1731.00</ele>
	<time>2025-08-03T07:43:46.000Z</time>
</trkpt>
<trkpt lat="45.9627420" lon="10.1368440">
	<ele>1731.20</ele>
	<time>2025-08-03T07:43:47.000Z</time>
</trkpt>
<trkpt lat="45.9627440" lon="10.1368630">
	<ele>1731.20</ele>
	<time>2025-08-03T07:43:48.000Z</time>
</trkpt>
<trkpt lat="45.9627460" lon="10.1368780">
	<ele>1731.40</ele>
	<time>2025-08-03T07:43:49.000Z</time>
</trkpt>
<trkpt lat="45.9627480" lon="10.1368900">
	<ele>1731.60</ele>
	<time>2025-08-03T07:43:50.000Z</time>
</trkpt>
<trkpt lat="45.9627480" lon="10.1369010">
	<ele>1731.80</ele>
	<time>2025-08-03T07:43:51.000Z</time>
</trkpt>
<trkpt lat="45.9627510" lon="10.1369120">
	<ele>1731.80</ele>
	<time>2025-08-03T07:43:52.000Z</time>
</trkpt>
<trkpt lat="45.9627510" lon="10.1369240">
	<ele>1732.00</ele>
	<time>2025-08-03T07:43:53.000Z</time>
</trkpt>
<trkpt lat="45.9627540" lon="10.1369350">
	<ele>1732.00</ele>
	<time>2025-08-03T07:43:54.000Z</time>
</trkpt>
<trkpt lat="45.9627560" lon="10.1369510">
	<ele>1732.20</ele>
	<time>2025-08-03T07:43:55.000Z</time>
</trkpt>
<trkpt lat="45.9627610" lon="10.1369690">
	<ele>1732.40</ele>
	<time>2025-08-03T07:43:56.000Z</time>
</trkpt>
<trkpt lat="45.9627610" lon="10.1369820">
	<ele>1732.80</ele>
	<time>2025-08-03T07:43:57.000Z</time>
</trkpt>
<trkpt lat="45.9627630" lon="10.1370020">
	<ele>1733.00</ele>
	<time>2025-08-03T07:43:58.000Z</time>
</trkpt>
<trkpt lat="45.9627640" lon="10.1370180">
	<ele>1733.20</ele>
	<time>2025-08-03T07:43:59.000Z</time>
</trkpt>
<trkpt lat="45.9627670" lon="10.1370350">
	<ele>1733.20</ele>
	<time>2025-08-03T07:44:00.000Z</time>
</trkpt>
<trkpt lat="45.9627710" lon="10.1370510">
	<ele>1733.40</ele>
	<time>2025-08-03T07:44:01.000Z</time>
</trkpt>
<trkpt lat="45.9627760" lon="10.1370640">
	<ele>1733.40</ele>
	<time>2025-08-03T07:44:02.000Z</time>
</trkpt>
<trkpt lat="45.9627800" lon="10.1370790">
	<ele>1733.40</ele>
	<time>2025-08-03T07:44:03.000Z</time>
</trkpt>
<trkpt lat="45.9627850" lon="10.1371000">
	<ele>1733.40</ele>
	<time>2025-08-03T07:44:04.000Z</time>
</trkpt>
<trkpt lat="45.9627890" lon="10.1371140">
	<ele>1733.60</ele>
	<time>2025-08-03T07:44:05.000Z</time>
</trkpt>
<trkpt lat="45.9627940" lon="10.1371280">
	<ele>1733.60</ele>
	<time>2025-08-03T07:44:06.000Z</time>
</trkpt>
<trkpt lat="45.9627990" lon="10.1371420">
	<ele>1733.80</ele>
	<time>2025-08-03T07:44:07.000Z</time>
</trkpt>
<trkpt lat="45.9628040" lon="10.1371560">
	<ele>1733.80</ele>
	<time>2025-08-03T07:44:08.000Z</time>
</trkpt>
<trkpt lat="45.9628110" lon="10.1371730">
	<ele>1734.00</ele>
	<time>2025-08-03T07:44:09.000Z</time>
</trkpt>
<trkpt lat="45.9628160" lon="10.1371900">
	<ele>1734.00</ele>
	<time>2025-08-03T07:44:10.000Z</time>
</trkpt>
<trkpt lat="45.9628200" lon="10.1372050">
	<ele>1734.20</ele>
	<time>2025-08-03T07:44:11.000Z</time>
</trkpt>
<trkpt lat="45.9628240" lon="10.1372210">
	<ele>1734.20</ele>
	<time>2025-08-03T07:44:12.000Z</time>
</trkpt>
<trkpt lat="45.9628290" lon="10.1372390">
	<ele>1734.20</ele>
	<time>2025-08-03T07:44:13.000Z</time>
</trkpt>
<trkpt lat="45.9628320" lon="10.1372520">
	<ele>1734.60</ele>
	<time>2025-08-03T07:44:14.000Z</time>
</trkpt>
<trkpt lat="45.9628360" lon="10.1372620">
	<ele>1734.60</ele>
	<time>2025-08-03T07:44:15.000Z</time>
</trkpt>
<trkpt lat="45.9628390" lon="10.1372750">
	<ele>1734.80</ele>
	<time>2025-08-03T07:44:16.000Z</time>
</trkpt>
<trkpt lat="45.9628430" lon="10.1372920">
	<ele>1735.00</ele>
	<time>2025-08-03T07:44:17.000Z</time>
</trkpt>
<trkpt lat="45.9628490" lon="10.1373040">
	<ele>1735.20</ele>
	<time>2025-08-03T07:44:18.000Z</time>
</trkpt>
<trkpt lat="45.9628540" lon="10.1373180">
	<ele>1735.40</ele>
	<time>2025-08-03T07:44:19.000Z</time>
</trkpt>
<trkpt lat="45.9628580" lon="10.1373330">
	<ele>1735.40</ele>
	<time>2025-08-03T07:44:20.000Z</time>
</trkpt>
<trkpt lat="45.9628650" lon="10.1373520">
	<ele>1735.40</ele>
	<time>2025-08-03T07:44:21.000Z</time>
</trkpt>
<trkpt lat="45.9628730" lon="10.1373720">
	<ele>1735.40</ele>
	<time>2025-08-03T07:44:22.000Z</time>
</trkpt>
<trkpt lat="45.9628820" lon="10.1373870">
	<ele>1735.40</ele>
	<time>2025-08-03T07:44:23.000Z</time>
</trkpt>
<trkpt lat="45.9628900" lon="10.1374000">
	<ele>1735.60</ele>
	<time>2025-08-03T07:44:24.000Z</time>
</trkpt>
<trkpt lat="45.9628990" lon="10.1374130">
	<ele>1735.60</ele>
	<time>2025-08-03T07:44:25.000Z</time>
</trkpt>
<trkpt lat="45.9629070" lon="10.1374290">
	<ele>1735.80</ele>
	<time>2025-08-03T07:44:26.000Z</time>
</trkpt>
<trkpt lat="45.9629120" lon="10.1374420">
	<ele>1736.00</ele>
	<time>2025-08-03T07:44:27.000Z</time>
</trkpt>
<trkpt lat="45.9629150" lon="10.1374560">
	<ele>1736.20</ele>
	<time>2025-08-03T07:44:28.000Z</time>
</trkpt>
<trkpt lat="45.9629220" lon="10.1374660">
	<ele>1736.40</ele>
	<time>2025-08-03T07:44:29.000Z</time>
</trkpt>
<trkpt lat="45.9629300" lon="10.1374770">
	<ele>1736.60</ele>
	<time>2025-08-03T07:44:30.000Z</time>
</trkpt>
<trkpt lat="45.9629360" lon="10.1374890">
	<ele>1736.60</ele>
	<time>2025-08-03T07:44:31.000Z</time>
</trkpt>
<trkpt lat="45.9629430" lon="10.1375010">
	<ele>1736.80</ele>
	<time>2025-08-03T07:44:32.000Z</time>
</trkpt>
<trkpt lat="45.9629480" lon="10.1375160">
	<ele>1737.00</ele>
	<time>2025-08-03T07:44:33.000Z</time>
</trkpt>
<trkpt lat="45.9629530" lon="10.1375280">
	<ele>1737.00</ele>
	<time>2025-08-03T07:44:34.000Z</time>
</trkpt>
<trkpt lat="45.9629590" lon="10.1375460">
	<ele>1737.00</ele>
	<time>2025-08-03T07:44:35.000Z</time>
</trkpt>
<trkpt lat="45.9629620" lon="10.1375560">
	<ele>1737.20</ele>
	<time>2025-08-03T07:44:36.000Z</time>
</trkpt>
<trkpt lat="45.9629650" lon="10.1375690">
	<ele>1737.40</ele>
	<time>2025-08-03T07:44:37.000Z</time>
</trkpt>
<trkpt lat="45.9629680" lon="10.1375820">
	<ele>1737.40</ele>
	<time>2025-08-03T07:44:38.000Z</time>
</trkpt>
<trkpt lat="45.9629710" lon="10.1376010">
	<ele>1737.60</ele>
	<time>2025-08-03T07:44:39.000Z</time>
</trkpt>
<trkpt lat="45.9629780" lon="10.1376130">
	<ele>1737.80</ele>
	<time>2025-08-03T07:44:40.000Z</time>
</trkpt>
<trkpt lat="45.9629820" lon="10.1376240">
	<ele>1738.00</ele>
	<time>2025-08-03T07:44:41.000Z</time>
</trkpt>
<trkpt lat="45.9629860" lon="10.1376310">
	<ele>1738.20</ele>
	<time>2025-08-03T07:44:42.000Z</time>
</trkpt>
<trkpt lat="45.9629880" lon="10.1376340">
	<ele>1738.40</ele>
	<time>2025-08-03T07:44:43.000Z</time>
</trkpt>
<trkpt lat="45.9629900" lon="10.1376350">
	<ele>1738.40</ele>
	<time>2025-08-03T07:44:44.000Z</time>
</trkpt>
<trkpt lat="45.9629910" lon="10.1376360">
	<ele>1738.60</ele>
	<time>2025-08-03T07:44:45.000Z</time>
</trkpt>
<trkpt lat="45.9629900" lon="10.1376360">
	<ele>1738.60</ele>
	<time>2025-08-03T07:44:46.000Z</time>
</trkpt>
<trkpt lat="45.9629880" lon="10.1376360">
	<ele>1738.80</ele>
	<time>2025-08-03T07:44:47.000Z</time>
</trkpt>
<trkpt lat="45.9629880" lon="10.1376370">
	<ele>1738.80</ele>
	<time>2025-08-03T07:44:48.000Z</time>
</trkpt>
<trkpt lat="45.9629860" lon="10.1376370">
	<ele>1738.80</ele>
	<time>2025-08-03T07:44:49.000Z</time>
</trkpt>
<trkpt lat="45.9629850" lon="10.1376380">
	<ele>1738.80</ele>
	<time>2025-08-03T07:44:50.000Z</time>
</trkpt>
<trkpt lat="45.9629840" lon="10.1376380">
	<ele>1738.80</ele>
	<time>2025-08-03T07:44:51.000Z</time>
</trkpt>
<trkpt lat="45.9629810" lon="10.1376350">
	<ele>1738.80</ele>
	<time>2025-08-03T07:44:52.000Z</time>
</trkpt>
<trkpt lat="45.9629800" lon="10.1376340">
	<ele>1738.80</ele>
	<time>2025-08-03T07:44:53.000Z</time>
</trkpt>
<trkpt lat="45.9629780" lon="10.1376340">
	<ele>1738.60</ele>
	<time>2025-08-03T07:44:54.000Z</time>
</trkpt>
<trkpt lat="45.9629760" lon="10.1376330">
	<ele>1738.60</ele>
	<time>2025-08-03T07:44:55.000Z</time>
</trkpt>
<trkpt lat="45.9629770" lon="10.1376340">
	<ele>1738.60</ele>
	<time>2025-08-03T07:44:56.000Z</time>
</trkpt>
<trkpt lat="45.9629770" lon="10.1376340">
	<ele>1738.60</ele>
	<time>2025-08-03T07:44:57.000Z</time>
</trkpt>
<trkpt lat="45.9629770" lon="10.1376340">
	<ele>1738.60</ele>
	<time>2025-08-03T07:44:58.000Z</time>
</trkpt>
<trkpt lat="45.9629770" lon="10.1376340">
	<ele>1738.60</ele>
	<time>2025-08-03T07:44:59.000Z</time>
</trkpt>
<trkpt lat="45.9629770" lon="10.1376340">
	<ele>1738.60</ele>
	<time>2025-08-03T07:45:00.000Z</time>
</trkpt>
<trkpt lat="45.9629770" lon="10.1376340">
	<ele>1738.60</ele>
	<time>2025-08-03T07:45:01.000Z</time>
</trkpt>
<trkpt lat="45.9629770" lon="10.1376340">
	<ele>1738.60</ele>
	<time>2025-08-03T07:45:02.000Z</time>
</trkpt>
<trkpt lat="45.9629770" lon="10.1376340">
	<ele>1738.60</ele>
	<time>2025-08-03T07:45:03.000Z</time>
</trkpt>
<trkpt lat="45.9629770" lon="10.1376340">
	<ele>1738.60</ele>
	<time>2025-08-03T07:45:04.000Z</time>
</trkpt>
<trkpt lat="45.9629770" lon="10.1376340">
	<ele>1738.60</ele>
	<time>2025-08-03T07:45:05.000Z</time>
</trkpt>
<trkpt lat="45.9629770" lon="10.1376340">
	<ele>1738.60</ele>
	<time>2025-08-03T07:45:06.000Z</time>
</trkpt>
<trkpt lat="45.9629780" lon="10.1376390">
	<ele>1738.60</ele>
	<time>2025-08-03T07:45:07.000Z</time>
</trkpt>
<trkpt lat="45.9629850" lon="10.1376580">
	<ele>1738.60</ele>
	<time>2025-08-03T07:45:08.000Z</time>
</trkpt>
<trkpt lat="45.9629910" lon="10.1376760">
	<ele>1738.80</ele>
	<time>2025-08-03T07:45:09.000Z</time>
</trkpt>
<trkpt lat="45.9629970" lon="10.1376950">
	<ele>1739.00</ele>
	<time>2025-08-03T07:45:10.000Z</time>
</trkpt>
<trkpt lat="45.9630020" lon="10.1377120">
	<ele>1739.20</ele>
	<time>2025-08-03T07:45:11.000Z</time>
</trkpt>
<trkpt lat="45.9630090" lon="10.1377290">
	<ele>1739.40</ele>
	<time>2025-08-03T07:45:12.000Z</time>
</trkpt>
<trkpt lat="45.9630160" lon="10.1377470">
	<ele>1739.80</ele>
	<time>2025-08-03T07:45:13.000Z</time>
</trkpt>
<trkpt lat="45.9630220" lon="10.1377660">
	<ele>1740.00</ele>
	<time>2025-08-03T07:45:14.000Z</time>
</trkpt>
<trkpt lat="45.9630290" lon="10.1377850">
	<ele>1740.20</ele>
	<time>2025-08-03T07:45:15.000Z</time>
</trkpt>
<trkpt lat="45.9630370" lon="10.1378030">
	<ele>1740.40</ele>
	<time>2025-08-03T07:45:16.000Z</time>
</trkpt>
<trkpt lat="45.9630420" lon="10.1378170">
	<ele>1740.60</ele>
	<time>2025-08-03T07:45:17.000Z</time>
</trkpt>
<trkpt lat="45.9630450" lon="10.1378330">
	<ele>1740.80</ele>
	<time>2025-08-03T07:45:18.000Z</time>
</trkpt>
<trkpt lat="45.9630470" lon="10.1378410">
	<ele>1741.00</ele>
	<time>2025-08-03T07:45:19.000Z</time>
</trkpt>
<trkpt lat="45.9630500" lon="10.1378490">
	<ele>1741.20</ele>
	<time>2025-08-03T07:45:20.000Z</time>
</trkpt>
<trkpt lat="45.9630550" lon="10.1378600">
	<ele>1741.40</ele>
	<time>2025-08-03T07:45:21.000Z</time>
</trkpt>
<trkpt lat="45.9630560" lon="10.1378700">
	<ele>1741.60</ele>
	<time>2025-08-03T07:45:22.000Z</time>
</trkpt>
<trkpt lat="45.9630600" lon="10.1378810">
	<ele>1741.80</ele>
	<time>2025-08-03T07:45:23.000Z</time>
</trkpt>
<trkpt lat="45.9630660" lon="10.1378930">
	<ele>1742.00</ele>
	<time>2025-08-03T07:45:24.000Z</time>
</trkpt>
<trkpt lat="45.9630700" lon="10.1379050">
	<ele>1742.20</ele>
	<time>2025-08-03T07:45:25.000Z</time>
</trkpt>
<trkpt lat="45.9630760" lon="10.1379210">
	<ele>1742.40</ele>
	<time>2025-08-03T07:45:26.000Z</time>
</trkpt>
<trkpt lat="45.9630820" lon="10.1379320">
	<ele>1742.80</ele>
	<time>2025-08-03T07:45:27.000Z</time>
</trkpt>
<trkpt lat="45.9630880" lon="10.1379480">
	<ele>1742.80</ele>
	<time>2025-08-03T07:45:28.000Z</time>
</trkpt>
<trkpt lat="45.9630930" lon="10.1379600">
	<ele>1743.00</ele>
	<time>2025-08-03T07:45:29.000Z</time>
</trkpt>
<trkpt lat="45.9630950" lon="10.1379740">
	<ele>1743.20</ele>
	<time>2025-08-03T07:45:30.000Z</time>
</trkpt>
<trkpt lat="45.9631020" lon="10.1379860">
	<ele>1743.20</ele>
	<time>2025-08-03T07:45:31.000Z</time>
</trkpt>
<trkpt lat="45.9631080" lon="10.1379960">
	<ele>1743.20</ele>
	<time>2025-08-03T07:45:32.000Z</time>
</trkpt>
<trkpt lat="45.9631120" lon="10.1380070">
	<ele>1743.40</ele>
	<time>2025-08-03T07:45:33.000Z</time>
</trkpt>
<trkpt lat="45.9631140" lon="10.1380190">
	<ele>1743.60</ele>
	<time>2025-08-03T07:45:34.000Z</time>
</trkpt>
<trkpt lat="45.9631180" lon="10.1380280">
	<ele>1743.80</ele>
	<time>2025-08-03T07:45:35.000Z</time>
</trkpt>
<trkpt lat="45.9631250" lon="10.1380390">
	<ele>1744.00</ele>
	<time>2025-08-03T07:45:36.000Z</time>
</trkpt>
<trkpt lat="45.9631320" lon="10.1380580">
	<ele>1744.00</ele>
	<time>2025-08-03T07:45:37.000Z</time>
</trkpt>
<trkpt lat="45.9631360" lon="10.1380740">
	<ele>1744.20</ele>
	<time>2025-08-03T07:45:38.000Z</time>
</trkpt>
<trkpt lat="45.9631380" lon="10.1380870">
	<ele>1744.40</ele>
	<time>2025-08-03T07:45:39.000Z</time>
</trkpt>
<trkpt lat="45.9631410" lon="10.1381050">
	<ele>1744.60</ele>
	<time>2025-08-03T07:45:40.000Z</time>
</trkpt>
<trkpt lat="45.9631430" lon="10.1381180">
	<ele>1745.00</ele>
	<time>2025-08-03T07:45:41.000Z</time>
</trkpt>
<trkpt lat="45.9631460" lon="10.1381330">
	<ele>1745.20</ele>
	<time>2025-08-03T07:45:42.000Z</time>
</trkpt>
<trkpt lat="45.9631520" lon="10.1381460">
	<ele>1745.20</ele>
	<time>2025-08-03T07:45:43.000Z</time>
</trkpt>
<trkpt lat="45.9631550" lon="10.1381550">
	<ele>1745.40</ele>
	<time>2025-08-03T07:45:44.000Z</time>
</trkpt>
<trkpt lat="45.9631660" lon="10.1381670">
	<ele>1745.60</ele>
	<time>2025-08-03T07:45:45.000Z</time>
</trkpt>
<trkpt lat="45.9631770" lon="10.1381840">
	<ele>1745.80</ele>
	<time>2025-08-03T07:45:46.000Z</time>
</trkpt>
<trkpt lat="45.9631860" lon="10.1381960">
	<ele>1745.80</ele>
	<time>2025-08-03T07:45:47.000Z</time>
</trkpt>
<trkpt lat="45.9631900" lon="10.1382080">
	<ele>1746.00</ele>
	<time>2025-08-03T07:45:48.000Z</time>
</trkpt>
<trkpt lat="45.9631940" lon="10.1382180">
	<ele>1746.00</ele>
	<time>2025-08-03T07:45:49.000Z</time>
</trkpt>
<trkpt lat="45.9631960" lon="10.1382280">
	<ele>1746.20</ele>
	<time>2025-08-03T07:45:50.000Z</time>
</trkpt>
<trkpt lat="45.9631980" lon="10.1382350">
	<ele>1746.80</ele>
	<time>2025-08-03T07:45:51.000Z</time>
</trkpt>
<trkpt lat="45.9631980" lon="10.1382370">
	<ele>1747.20</ele>
	<time>2025-08-03T07:45:52.000Z</time>
</trkpt>
<trkpt lat="45.9631980" lon="10.1382390">
	<ele>1747.40</ele>
	<time>2025-08-03T07:45:53.000Z</time>
</trkpt>
<trkpt lat="45.9631980" lon="10.1382390">
	<ele>1747.40</ele>
	<time>2025-08-03T07:45:54.000Z</time>
</trkpt>
<trkpt lat="45.9631990" lon="10.1382370">
	<ele>1747.60</ele>
	<time>2025-08-03T07:45:55.000Z</time>
</trkpt>
<trkpt lat="45.9632000" lon="10.1382350">
	<ele>1747.60</ele>
	<time>2025-08-03T07:45:56.000Z</time>
</trkpt>
<trkpt lat="45.9632030" lon="10.1382320">
	<ele>1747.60</ele>
	<time>2025-08-03T07:45:57.000Z</time>
</trkpt>
<trkpt lat="45.9632060" lon="10.1382350">
	<ele>1747.40</ele>
	<time>2025-08-03T07:45:58.000Z</time>
</trkpt>
<trkpt lat="45.9632070" lon="10.1382410">
	<ele>1747.20</ele>
	<time>2025-08-03T07:45:59.000Z</time>
</trkpt>
<trkpt lat="45.9632060" lon="10.1382440">
	<ele>1747.20</ele>
	<time>2025-08-03T07:46:00.000Z</time>
</trkpt>
<trkpt lat="45.9632050" lon="10.1382480">
	<ele>1747.20</ele>
	<time>2025-08-03T07:46:01.000Z</time>
</trkpt>
<trkpt lat="45.9632050" lon="10.1382490">
	<ele>1747.20</ele>
	<time>2025-08-03T07:46:02.000Z</time>
</trkpt>
<trkpt lat="45.9632050" lon="10.1382490">
	<ele>1747.20</ele>
	<time>2025-08-03T07:46:03.000Z</time>
</trkpt>
<trkpt lat="45.9632050" lon="10.1382490">
	<ele>1747.40</ele>
	<time>2025-08-03T07:46:04.000Z</time>
</trkpt>
<trkpt lat="45.9632050" lon="10.1382490">
	<ele>1747.40</ele>
	<time>2025-08-03T07:46:05.000Z</time>
</trkpt>
<trkpt lat="45.9632050" lon="10.1382490">
	<ele>1747.40</ele>
	<time>2025-08-03T07:46:06.000Z</time>
</trkpt>
<trkpt lat="45.9632050" lon="10.1382490">
	<ele>1747.40</ele>
	<time>2025-08-03T07:46:07.000Z</time>
</trkpt>
<trkpt lat="45.9632050" lon="10.1382490">
	<ele>1747.40</ele>
	<time>2025-08-03T07:46:08.000Z</time>
</trkpt>
<trkpt lat="45.9632070" lon="10.1382530">
	<ele>1747.40</ele>
	<time>2025-08-03T07:46:09.000Z</time>
</trkpt>
<trkpt lat="45.9632090" lon="10.1382680">
	<ele>1747.40</ele>
	<time>2025-08-03T07:46:10.000Z</time>
</trkpt>
<trkpt lat="45.9632140" lon="10.1382890">
	<ele>1747.60</ele>
	<time>2025-08-03T07:46:11.000Z</time>
</trkpt>
<trkpt lat="45.9632190" lon="10.1383050">
	<ele>1747.80</ele>
	<time>2025-08-03T07:46:12.000Z</time>
</trkpt>
<trkpt lat="45.9632250" lon="10.1383230">
	<ele>1747.80</ele>
	<time>2025-08-03T07:46:13.000Z</time>
</trkpt>
<trkpt lat="45.9632300" lon="10.1383420">
	<ele>1747.80</ele>
	<time>2025-08-03T07:46:14.000Z</time>
</trkpt>
<trkpt lat="45.9632340" lon="10.1383640">
	<ele>1748.00</ele>
	<time>2025-08-03T07:46:15.000Z</time>
</trkpt>
<trkpt lat="45.9632390" lon="10.1383820">
	<ele>1748.20</ele>
	<time>2025-08-03T07:46:16.000Z</time>
</trkpt>
<trkpt lat="45.9632440" lon="10.1384060">
	<ele>1748.40</ele>
	<time>2025-08-03T07:46:17.000Z</time>
</trkpt>
<trkpt lat="45.9632490" lon="10.1384230">
	<ele>1748.60</ele>
	<time>2025-08-03T07:46:18.000Z</time>
</trkpt>
<trkpt lat="45.9632510" lon="10.1384360">
	<ele>1748.80</ele>
	<time>2025-08-03T07:46:19.000Z</time>
</trkpt>
<trkpt lat="45.9632510" lon="10.1384530">
	<ele>1748.80</ele>
	<time>2025-08-03T07:46:20.000Z</time>
</trkpt>
<trkpt lat="45.9632560" lon="10.1384680">
	<ele>1749.00</ele>
	<time>2025-08-03T07:46:21.000Z</time>
</trkpt>
<trkpt lat="45.9632620" lon="10.1384820">
	<ele>1749.00</ele>
	<time>2025-08-03T07:46:22.000Z</time>
</trkpt>
<trkpt lat="45.9632690" lon="10.1385010">
	<ele>1749.20</ele>
	<time>2025-08-03T07:46:23.000Z</time>
</trkpt>
<trkpt lat="45.9632740" lon="10.1385180">
	<ele>1749.20</ele>
	<time>2025-08-03T07:46:24.000Z</time>
</trkpt>
<trkpt lat="45.9632760" lon="10.1385330">
	<ele>1749.40</ele>
	<time>2025-08-03T07:46:25.000Z</time>
</trkpt>
<trkpt lat="45.9632770" lon="10.1385450">
	<ele>1749.40</ele>
	<time>2025-08-03T07:46:26.000Z</time>
</trkpt>
<trkpt lat="45.9632780" lon="10.1385580">
	<ele>1749.40</ele>
	<time>2025-08-03T07:46:27.000Z</time>
</trkpt>
<trkpt lat="45.9632860" lon="10.1385740">
	<ele>1749.60</ele>
	<time>2025-08-03T07:46:28.000Z</time>
</trkpt>
<trkpt lat="45.9632850" lon="10.1385990">
	<ele>1749.60</ele>
	<time>2025-08-03T07:46:29.000Z</time>
</trkpt>
<trkpt lat="45.9632890" lon="10.1386180">
	<ele>1749.60</ele>
	<time>2025-08-03T07:46:30.000Z</time>
</trkpt>
<trkpt lat="45.9632930" lon="10.1386360">
	<ele>1749.60</ele>
	<time>2025-08-03T07:46:31.000Z</time>
</trkpt>
<trkpt lat="45.9632930" lon="10.1386530">
	<ele>1749.60</ele>
	<time>2025-08-03T07:46:32.000Z</time>
</trkpt>
<trkpt lat="45.9632910" lon="10.1386720">
	<ele>1749.80</ele>
	<time>2025-08-03T07:46:33.000Z</time>
</trkpt>
<trkpt lat="45.9632910" lon="10.1386890">
	<ele>1749.80</ele>
	<time>2025-08-03T07:46:34.000Z</time>
</trkpt>
<trkpt lat="45.9632900" lon="10.1387020">
	<ele>1749.80</ele>
	<time>2025-08-03T07:46:35.000Z</time>
</trkpt>
<trkpt lat="45.9632910" lon="10.1387130">
	<ele>1750.00</ele>
	<time>2025-08-03T07:46:36.000Z</time>
</trkpt>
<trkpt lat="45.9632950" lon="10.1387330">
	<ele>1750.00</ele>
	<time>2025-08-03T07:46:37.000Z</time>
</trkpt>
<trkpt lat="45.9632960" lon="10.1387530">
	<ele>1750.00</ele>
	<time>2025-08-03T07:46:38.000Z</time>
</trkpt>
<trkpt lat="45.9632950" lon="10.1387680">
	<ele>1750.20</ele>
	<time>2025-08-03T07:46:39.000Z</time>
</trkpt>
<trkpt lat="45.9632920" lon="10.1387880">
	<ele>1750.20</ele>
	<time>2025-08-03T07:46:40.000Z</time>
</trkpt>
<trkpt lat="45.9632900" lon="10.1388150">
	<ele>1750.20</ele>
	<time>2025-08-03T07:46:41.000Z</time>
</trkpt>
<trkpt lat="45.9632900" lon="10.1388340">
	<ele>1750.40</ele>
	<time>2025-08-03T07:46:42.000Z</time>
</trkpt>
<trkpt lat="45.9632900" lon="10.1388540">
	<ele>1750.40</ele>
	<time>2025-08-03T07:46:43.000Z</time>
</trkpt>
<trkpt lat="45.9632940" lon="10.1388670">
	<ele>1750.60</ele>
	<time>2025-08-03T07:46:44.000Z</time>
</trkpt>
<trkpt lat="45.9632970" lon="10.1388830">
	<ele>1750.80</ele>
	<time>2025-08-03T07:46:45.000Z</time>
</trkpt>
<trkpt lat="45.9632980" lon="10.1388970">
	<ele>1751.00</ele>
	<time>2025-08-03T07:46:46.000Z</time>
</trkpt>
<trkpt lat="45.9632980" lon="10.1389190">
	<ele>1751.00</ele>
	<time>2025-08-03T07:46:47.000Z</time>
</trkpt>
<trkpt lat="45.9632960" lon="10.1389350">
	<ele>1751.20</ele>
	<time>2025-08-03T07:46:48.000Z</time>
</trkpt>
<trkpt lat="45.9632950" lon="10.1389520">
	<ele>1751.20</ele>
	<time>2025-08-03T07:46:49.000Z</time>
</trkpt>
<trkpt lat="45.9632970" lon="10.1389650">
	<ele>1751.20</ele>
	<time>2025-08-03T07:46:50.000Z</time>
</trkpt>
<trkpt lat="45.9632980" lon="10.1389820">
	<ele>1751.40</ele>
	<time>2025-08-03T07:46:51.000Z</time>
</trkpt>
<trkpt lat="45.9633010" lon="10.1390040">
	<ele>1751.60</ele>
	<time>2025-08-03T07:46:52.000Z</time>
</trkpt>
<trkpt lat="45.9633060" lon="10.1390160">
	<ele>1751.60</ele>
	<time>2025-08-03T07:46:53.000Z</time>
</trkpt>
<trkpt lat="45.9633110" lon="10.1390320">
	<ele>1751.60</ele>
	<time>2025-08-03T07:46:54.000Z</time>
</trkpt>
<trkpt lat="45.9633110" lon="10.1390460">
	<ele>1751.60</ele>
	<time>2025-08-03T07:46:55.000Z</time>
</trkpt>
<trkpt lat="45.9633110" lon="10.1390580">
	<ele>1751.60</ele>
	<time>2025-08-03T07:46:56.000Z</time>
</trkpt>
<trkpt lat="45.9633150" lon="10.1390720">
	<ele>1751.80</ele>
	<time>2025-08-03T07:46:57.000Z</time>
</trkpt>
<trkpt lat="45.9633200" lon="10.1390870">
	<ele>1752.00</ele>
	<time>2025-08-03T07:46:58.000Z</time>
</trkpt>
<trkpt lat="45.9633260" lon="10.1391090">
	<ele>1752.00</ele>
	<time>2025-08-03T07:46:59.000Z</time>
</trkpt>
<trkpt lat="45.9633330" lon="10.1391250">
	<ele>1752.00</ele>
	<time>2025-08-03T07:47:00.000Z</time>
</trkpt>
<trkpt lat="45.9633410" lon="10.1391470">
	<ele>1752.00</ele>
	<time>2025-08-03T07:47:01.000Z</time>
</trkpt>
<trkpt lat="45.9633490" lon="10.1391590">
	<ele>1752.00</ele>
	<time>2025-08-03T07:47:02.000Z</time>
</trkpt>
<trkpt lat="45.9633540" lon="10.1391710">
	<ele>1752.20</ele>
	<time>2025-08-03T07:47:03.000Z</time>
</trkpt>
<trkpt lat="45.9633640" lon="10.1391820">
	<ele>1752.20</ele>
	<time>2025-08-03T07:47:04.000Z</time>
</trkpt>
<trkpt lat="45.9633740" lon="10.1391980">
	<ele>1752.40</ele>
	<time>2025-08-03T07:47:05.000Z</time>
</trkpt>
<trkpt lat="45.9633830" lon="10.1392140">
	<ele>1752.60</ele>
	<time>2025-08-03T07:47:06.000Z</time>
</trkpt>
<trkpt lat="45.9633920" lon="10.1392260">
	<ele>1752.60</ele>
	<time>2025-08-03T07:47:07.000Z</time>
</trkpt>
<trkpt lat="45.9634000" lon="10.1392320">
	<ele>1752.80</ele>
	<time>2025-08-03T07:47:08.000Z</time>
</trkpt>
<trkpt lat="45.9634080" lon="10.1392390">
	<ele>1753.00</ele>
	<time>2025-08-03T07:47:09.000Z</time>
</trkpt>
<trkpt lat="45.9634130" lon="10.1392450">
	<ele>1753.00</ele>
	<time>2025-08-03T07:47:10.000Z</time>
</trkpt>
<trkpt lat="45.9634210" lon="10.1392520">
	<ele>1753.20</ele>
	<time>2025-08-03T07:47:11.000Z</time>
</trkpt>
<trkpt lat="45.9634250" lon="10.1392540">
	<ele>1753.60</ele>
	<time>2025-08-03T07:47:12.000Z</time>
</trkpt>
<trkpt lat="45.9634270" lon="10.1392540">
	<ele>1753.80</ele>
	<time>2025-08-03T07:47:13.000Z</time>
</trkpt>
<trkpt lat="45.9634270" lon="10.1392530">
	<ele>1754.20</ele>
	<time>2025-08-03T07:47:14.000Z</time>
</trkpt>
<trkpt lat="45.9634270" lon="10.1392520">
	<ele>1754.40</ele>
	<time>2025-08-03T07:47:15.000Z</time>
</trkpt>
<trkpt lat="45.9634270" lon="10.1392510">
	<ele>1754.60</ele>
	<time>2025-08-03T07:47:16.000Z</time>
</trkpt>
<trkpt lat="45.9634290" lon="10.1392520">
	<ele>1754.80</ele>
	<time>2025-08-03T07:47:17.000Z</time>
</trkpt>
<trkpt lat="45.9634300" lon="10.1392530">
	<ele>1754.80</ele>
	<time>2025-08-03T07:47:18.000Z</time>
</trkpt>
<trkpt lat="45.9634290" lon="10.1392530">
	<ele>1755.00</ele>
	<time>2025-08-03T07:47:19.000Z</time>
</trkpt>
<trkpt lat="45.9634300" lon="10.1392530">
	<ele>1755.00</ele>
	<time>2025-08-03T07:47:20.000Z</time>
</trkpt>
<trkpt lat="45.9634300" lon="10.1392520">
	<ele>1755.00</ele>
	<time>2025-08-03T07:47:21.000Z</time>
</trkpt>
<trkpt lat="45.9634300" lon="10.1392510">
	<ele>1755.00</ele>
	<time>2025-08-03T07:47:22.000Z</time>
</trkpt>
<trkpt lat="45.9634300" lon="10.1392490">
	<ele>1754.80</ele>
	<time>2025-08-03T07:47:23.000Z</time>
</trkpt>
<trkpt lat="45.9634300" lon="10.1392490">
	<ele>1754.80</ele>
	<time>2025-08-03T07:47:24.000Z</time>
</trkpt>
<trkpt lat="45.9634300" lon="10.1392490">
	<ele>1754.80</ele>
	<time>2025-08-03T07:47:25.000Z</time>
</trkpt>
<trkpt lat="45.9634300" lon="10.1392490">
	<ele>1754.80</ele>
	<time>2025-08-03T07:47:26.000Z</time>
</trkpt>
<trkpt lat="45.9634300" lon="10.1392490">
	<ele>1755.00</ele>
	<time>2025-08-03T07:47:27.000Z</time>
</trkpt>
<trkpt lat="45.9634300" lon="10.1392490">
	<ele>1755.00</ele>
	<time>2025-08-03T07:47:28.000Z</time>
</trkpt>
<trkpt lat="45.9634300" lon="10.1392490">
	<ele>1755.20</ele>
	<time>2025-08-03T07:47:29.000Z</time>
</trkpt>
<trkpt lat="45.9634300" lon="10.1392490">
	<ele>1755.20</ele>
	<time>2025-08-03T07:47:30.000Z</time>
</trkpt>
<trkpt lat="45.9634300" lon="10.1392500">
	<ele>1755.40</ele>
	<time>2025-08-03T07:47:31.000Z</time>
</trkpt>
<trkpt lat="45.9634300" lon="10.1392510">
	<ele>1755.40</ele>
	<time>2025-08-03T07:47:32.000Z</time>
</trkpt>
<trkpt lat="45.9634300" lon="10.1392510">
	<ele>1755.40</ele>
	<time>2025-08-03T07:47:33.000Z</time>
</trkpt>
<trkpt lat="45.9634300" lon="10.1392510">
	<ele>1755.40</ele>
	<time>2025-08-03T07:47:34.000Z</time>
</trkpt>
<trkpt lat="45.9634300" lon="10.1392520">
	<ele>1755.20</ele>
	<time>2025-08-03T07:47:35.000Z</time>
</trkpt>
<trkpt lat="45.9634300" lon="10.1392520">
	<ele>1755.00</ele>
	<time>2025-08-03T07:47:36.000Z</time>
</trkpt>
<trkpt lat="45.9634300" lon="10.1392520">
	<ele>1755.00</ele>
	<time>2025-08-03T07:47:37.000Z</time>
</trkpt>
<trkpt lat="45.9634300" lon="10.1392530">
	<ele>1754.80</ele>
	<time>2025-08-03T07:47:38.000Z</time>
</trkpt>
<trkpt lat="45.9634300" lon="10.1392530">
	<ele>1755.00</ele>
	<time>2025-08-03T07:47:39.000Z</time>
</trkpt>
<trkpt lat="45.9634300" lon="10.1392530">
	<ele>1755.00</ele>
	<time>2025-08-03T07:47:40.000Z</time>
</trkpt>
<trkpt lat="45.9634300" lon="10.1392540">
	<ele>1754.80</ele>
	<time>2025-08-03T07:47:41.000Z</time>
</trkpt>
<trkpt lat="45.9634310" lon="10.1392540">
	<ele>1754.80</ele>
	<time>2025-08-03T07:47:42.000Z</time>
</trkpt>
<trkpt lat="45.9634320" lon="10.1392540">
	<ele>1754.80</ele>
	<time>2025-08-03T07:47:43.000Z</time>
</trkpt>
<trkpt lat="45.9634320" lon="10.1392540">
	<ele>1754.80</ele>
	<time>2025-08-03T07:47:44.000Z</time>
</trkpt>
<trkpt lat="45.9634320" lon="10.1392550">
	<ele>1754.80</ele>
	<time>2025-08-03T07:47:45.000Z</time>
</trkpt>
<trkpt lat="45.9634320" lon="10.1392560">
	<ele>1754.80</ele>
	<time>2025-08-03T07:47:46.000Z</time>
</trkpt>
<trkpt lat="45.9634320" lon="10.1392560">
	<ele>1754.80</ele>
	<time>2025-08-03T07:47:47.000Z</time>
</trkpt>
<trkpt lat="45.9634320" lon="10.1392570">
	<ele>1754.80</ele>
	<time>2025-08-03T07:47:48.000Z</time>
</trkpt>
<trkpt lat="45.9634330" lon="10.1392570">
	<ele>1754.80</ele>
	<time>2025-08-03T07:47:49.000Z</time>
</trkpt>
<trkpt lat="45.9634330" lon="10.1392570">
	<ele>1754.80</ele>
	<time>2025-08-03T07:47:50.000Z</time>
</trkpt>
<trkpt lat="45.9634330" lon="10.1392580">
	<ele>1754.80</ele>
	<time>2025-08-03T07:47:51.000Z</time>
</trkpt>
<trkpt lat="45.9634330" lon="10.1392590">
	<ele>1754.80</ele>
	<time>2025-08-03T07:47:52.000Z</time>
</trkpt>
<trkpt lat="45.9634330" lon="10.1392650">
	<ele>1754.80</ele>
	<time>2025-08-03T07:47:53.000Z</time>
</trkpt>
<trkpt lat="45.9634300" lon="10.1392850">
	<ele>1754.80</ele>
	<time>2025-08-03T07:47:54.000Z</time>
</trkpt>
<trkpt lat="45.9634260" lon="10.1393040">
	<ele>1754.80</ele>
	<time>2025-08-03T07:47:55.000Z</time>
</trkpt>
<trkpt lat="45.9634240" lon="10.1393260">
	<ele>1754.80</ele>
	<time>2025-08-03T07:47:56.000Z</time>
</trkpt>
<trkpt lat="45.9634240" lon="10.1393470">
	<ele>1754.80</ele>
	<time>2025-08-03T07:47:57.000Z</time>
</trkpt>
<trkpt lat="45.9634230" lon="10.1393650">
	<ele>1755.00</ele>
	<time>2025-08-03T07:47:58.000Z</time>
</trkpt>
<trkpt lat="45.9634220" lon="10.1393840">
	<ele>1755.20</ele>
	<time>2025-08-03T07:47:59.000Z</time>
</trkpt>
<trkpt lat="45.9634230" lon="10.1394030">
	<ele>1755.40</ele>
	<time>2025-08-03T07:48:00.000Z</time>
</trkpt>
<trkpt lat="45.9634180" lon="10.1394230">
	<ele>1755.40</ele>
	<time>2025-08-03T07:48:01.000Z</time>
</trkpt>
<trkpt lat="45.9634160" lon="10.1394440">
	<ele>1755.80</ele>
	<time>2025-08-03T07:48:02.000Z</time>
</trkpt>
<trkpt lat="45.9634160" lon="10.1394580">
	<ele>1755.80</ele>
	<time>2025-08-03T07:48:03.000Z</time>
</trkpt>
<trkpt lat="45.9634170" lon="10.1394740">
	<ele>1756.00</ele>
	<time>2025-08-03T07:48:04.000Z</time>
</trkpt>
<trkpt lat="45.9634160" lon="10.1394940">
	<ele>1756.00</ele>
	<time>2025-08-03T07:48:05.000Z</time>
</trkpt>
<trkpt lat="45.9634110" lon="10.1395140">
	<ele>1756.00</ele>
	<time>2025-08-03T07:48:06.000Z</time>
</trkpt>
<trkpt lat="45.9634070" lon="10.1395360">
	<ele>1756.00</ele>
	<time>2025-08-03T07:48:07.000Z</time>
</trkpt>
<trkpt lat="45.9634030" lon="10.1395520">
	<ele>1756.00</ele>
	<time>2025-08-03T07:48:08.000Z</time>
</trkpt>
<trkpt lat="45.9634020" lon="10.1395700">
	<ele>1756.00</ele>
	<time>2025-08-03T07:48:09.000Z</time>
</trkpt>
<trkpt lat="45.9634010" lon="10.1395880">
	<ele>1756.20</ele>
	<time>2025-08-03T07:48:10.000Z</time>
</trkpt>
<trkpt lat="45.9634000" lon="10.1395980">
	<ele>1756.20</ele>
	<time>2025-08-03T07:48:11.000Z</time>
</trkpt>
<trkpt lat="45.9633980" lon="10.1396140">
	<ele>1756.40</ele>
	<time>2025-08-03T07:48:12.000Z</time>
</trkpt>
<trkpt lat="45.9633990" lon="10.1396310">
	<ele>1756.60</ele>
	<time>2025-08-03T07:48:13.000Z</time>
</trkpt>
<trkpt lat="45.9633940" lon="10.1396480">
	<ele>1756.60</ele>
	<time>2025-08-03T07:48:14.000Z</time>
</trkpt>
<trkpt lat="45.9633900" lon="10.1396650">
	<ele>1756.80</ele>
	<time>2025-08-03T07:48:15.000Z</time>
</trkpt>
<trkpt lat="45.9633890" lon="10.1396820">
	<ele>1756.80</ele>
	<time>2025-08-03T07:48:16.000Z</time>
</trkpt>
<trkpt lat="45.9633880" lon="10.1396970">
	<ele>1757.00</ele>
	<time>2025-08-03T07:48:17.000Z</time>
</trkpt>
<trkpt lat="45.9633860" lon="10.1397140">
	<ele>1757.20</ele>
	<time>2025-08-03T07:48:18.000Z</time>
</trkpt>
<trkpt lat="45.9633830" lon="10.1397350">
	<ele>1757.40</ele>
	<time>2025-08-03T07:48:19.000Z</time>
</trkpt>
<trkpt lat="45.9633820" lon="10.1397490">
	<ele>1757.60</ele>
	<time>2025-08-03T07:48:20.000Z</time>
</trkpt>
<trkpt lat="45.9633770" lon="10.1397660">
	<ele>1757.60</ele>
	<time>2025-08-03T07:48:21.000Z</time>
</trkpt>
<trkpt lat="45.9633730" lon="10.1397800">
	<ele>1757.60</ele>
	<time>2025-08-03T07:48:22.000Z</time>
</trkpt>
<trkpt lat="45.9633690" lon="10.1397940">
	<ele>1757.60</ele>
	<time>2025-08-03T07:48:23.000Z</time>
</trkpt>
<trkpt lat="45.9633660" lon="10.1398080">
	<ele>1757.80</ele>
	<time>2025-08-03T07:48:24.000Z</time>
</trkpt>
<trkpt lat="45.9633630" lon="10.1398240">
	<ele>1757.80</ele>
	<time>2025-08-03T07:48:25.000Z</time>
</trkpt>
<trkpt lat="45.9633580" lon="10.1398380">
	<ele>1758.00</ele>
	<time>2025-08-03T07:48:26.000Z</time>
</trkpt>
<trkpt lat="45.9633540" lon="10.1398540">
	<ele>1758.20</ele>
	<time>2025-08-03T07:48:27.000Z</time>
</trkpt>
<trkpt lat="45.9633510" lon="10.1398670">
	<ele>1758.40</ele>
	<time>2025-08-03T07:48:28.000Z</time>
</trkpt>
<trkpt lat="45.9633470" lon="10.1398820">
	<ele>1758.40</ele>
	<time>2025-08-03T07:48:29.000Z</time>
</trkpt>
<trkpt lat="45.9633450" lon="10.1398960">
	<ele>1758.60</ele>
	<time>2025-08-03T07:48:30.000Z</time>
</trkpt>
<trkpt lat="45.9633430" lon="10.1399110">
	<ele>1758.80</ele>
	<time>2025-08-03T07:48:31.000Z</time>
</trkpt>
<trkpt lat="45.9633380" lon="10.1399250">
	<ele>1759.00</ele>
	<time>2025-08-03T07:48:32.000Z</time>
</trkpt>
<trkpt lat="45.9633320" lon="10.1399380">
	<ele>1759.20</ele>
	<time>2025-08-03T07:48:33.000Z</time>
</trkpt>
<trkpt lat="45.9633270" lon="10.1399520">
	<ele>1759.40</ele>
	<time>2025-08-03T07:48:34.000Z</time>
</trkpt>
<trkpt lat="45.9633220" lon="10.1399640">
	<ele>1759.60</ele>
	<time>2025-08-03T07:48:35.000Z</time>
</trkpt>
<trkpt lat="45.9633200" lon="10.1399780">
	<ele>1759.80</ele>
	<time>2025-08-03T07:48:36.000Z</time>
</trkpt>
<trkpt lat="45.9633180" lon="10.1399890">
	<ele>1760.00</ele>
	<time>2025-08-03T07:48:37.000Z</time>
</trkpt>
<trkpt lat="45.9633170" lon="10.1400020">
	<ele>1760.40</ele>
	<time>2025-08-03T07:48:38.000Z</time>
</trkpt>
<trkpt lat="45.9633190" lon="10.1400180">
	<ele>1760.40</ele>
	<time>2025-08-03T07:48:39.000Z</time>
</trkpt>
<trkpt lat="45.9633190" lon="10.1400340">
	<ele>1760.60</ele>
	<time>2025-08-03T07:48:40.000Z</time>
</trkpt>
<trkpt lat="45.9633180" lon="10.1400500">
	<ele>1760.80</ele>
	<time>2025-08-03T07:48:41.000Z</time>
</trkpt>
<trkpt lat="45.9633160" lon="10.1400650">
	<ele>1761.00</ele>
	<time>2025-08-03T07:48:42.000Z</time>
</trkpt>
<trkpt lat="45.9633140" lon="10.1400780">
	<ele>1761.20</ele>
	<time>2025-08-03T07:48:43.000Z</time>
</trkpt>
<trkpt lat="45.9633140" lon="10.1400910">
	<ele>1761.40</ele>
	<time>2025-08-03T07:48:44.000Z</time>
</trkpt>
<trkpt lat="45.9633150" lon="10.1401070">
	<ele>1761.60</ele>
	<time>2025-08-03T07:48:45.000Z</time>
</trkpt>
<trkpt lat="45.9633170" lon="10.1401230">
	<ele>1761.80</ele>
	<time>2025-08-03T07:48:46.000Z</time>
</trkpt>
<trkpt lat="45.9633160" lon="10.1401390">
	<ele>1762.00</ele>
	<time>2025-08-03T07:48:47.000Z</time>
</trkpt>
<trkpt lat="45.9633130" lon="10.1401550">
	<ele>1762.20</ele>
	<time>2025-08-03T07:48:48.000Z</time>
</trkpt>
<trkpt lat="45.9633110" lon="10.1401680">
	<ele>1762.40</ele>
	<time>2025-08-03T07:48:49.000Z</time>
</trkpt>
<trkpt lat="45.9633120" lon="10.1401820">
	<ele>1762.40</ele>
	<time>2025-08-03T07:48:50.000Z</time>
</trkpt>
<trkpt lat="45.9633110" lon="10.1401970">
	<ele>1762.60</ele>
	<time>2025-08-03T07:48:51.000Z</time>
</trkpt>
<trkpt lat="45.9633110" lon="10.1402130">
	<ele>1762.80</ele>
	<time>2025-08-03T07:48:52.000Z</time>
</trkpt>
<trkpt lat="45.9633120" lon="10.1402300">
	<ele>1763.00</ele>
	<time>2025-08-03T07:48:53.000Z</time>
</trkpt>
<trkpt lat="45.9633140" lon="10.1402440">
	<ele>1763.40</ele>
	<time>2025-08-03T07:48:54.000Z</time>
</trkpt>
<trkpt lat="45.9633170" lon="10.1402610">
	<ele>1763.60</ele>
	<time>2025-08-03T07:48:55.000Z</time>
</trkpt>
<trkpt lat="45.9633190" lon="10.1402750">
	<ele>1763.80</ele>
	<time>2025-08-03T07:48:56.000Z</time>
</trkpt>
<trkpt lat="45.9633200" lon="10.1402910">
	<ele>1763.80</ele>
	<time>2025-08-03T07:48:57.000Z</time>
</trkpt>
<trkpt lat="45.9633230" lon="10.1403070">
	<ele>1764.00</ele>
	<time>2025-08-03T07:48:58.000Z</time>
</trkpt>
<trkpt lat="45.9633230" lon="10.1403200">
	<ele>1764.20</ele>
	<time>2025-08-03T07:48:59.000Z</time>
</trkpt>
<trkpt lat="45.9633230" lon="10.1403320">
	<ele>1764.40</ele>
	<time>2025-08-03T07:49:00.000Z</time>
</trkpt>
<trkpt lat="45.9633230" lon="10.1403460">
	<ele>1764.60</ele>
	<time>2025-08-03T07:49:01.000Z</time>
</trkpt>
<trkpt lat="45.9633230" lon="10.1403590">
	<ele>1764.80</ele>
	<time>2025-08-03T07:49:02.000Z</time>
</trkpt>
<trkpt lat="45.9633210" lon="10.1403780">
	<ele>1764.80</ele>
	<time>2025-08-03T07:49:03.000Z</time>
</trkpt>
<trkpt lat="45.9633190" lon="10.1403900">
	<ele>1765.00</ele>
	<time>2025-08-03T07:49:04.000Z</time>
</trkpt>
<trkpt lat="45.9633160" lon="10.1404080">
	<ele>1765.40</ele>
	<time>2025-08-03T07:49:05.000Z</time>
</trkpt>
<trkpt lat="45.9633140" lon="10.1404250">
	<ele>1765.60</ele>
	<time>2025-08-03T07:49:06.000Z</time>
</trkpt>
<trkpt lat="45.9633120" lon="10.1404380">
	<ele>1765.80</ele>
	<time>2025-08-03T07:49:07.000Z</time>
</trkpt>
<trkpt lat="45.9633120" lon="10.1404590">
	<ele>1765.80</ele>
	<time>2025-08-03T07:49:08.000Z</time>
</trkpt>
<trkpt lat="45.9633100" lon="10.1404720">
	<ele>1766.00</ele>
	<time>2025-08-03T07:49:09.000Z</time>
</trkpt>
<trkpt lat="45.9633070" lon="10.1404900">
	<ele>1766.00</ele>
	<time>2025-08-03T07:49:10.000Z</time>
</trkpt>
<trkpt lat="45.9633060" lon="10.1405120">
	<ele>1766.20</ele>
	<time>2025-08-03T07:49:11.000Z</time>
</trkpt>
<trkpt lat="45.9633030" lon="10.1405300">
	<ele>1766.60</ele>
	<time>2025-08-03T07:49:12.000Z</time>
</trkpt>
<trkpt lat="45.9633030" lon="10.1405450">
	<ele>1766.80</ele>
	<time>2025-08-03T07:49:13.000Z</time>
</trkpt>
<trkpt lat="45.9633020" lon="10.1405670">
	<ele>1767.00</ele>
	<time>2025-08-03T07:49:14.000Z</time>
</trkpt>
<trkpt lat="45.9633020" lon="10.1405800">
	<ele>1767.20</ele>
	<time>2025-08-03T07:49:15.000Z</time>
</trkpt>
<trkpt lat="45.9633040" lon="10.1405940">
	<ele>1767.20</ele>
	<time>2025-08-03T07:49:16.000Z</time>
</trkpt>
<trkpt lat="45.9633120" lon="10.1406060">
	<ele>1767.40</ele>
	<time>2025-08-03T07:49:17.000Z</time>
</trkpt>
<trkpt lat="45.9633180" lon="10.1406200">
	<ele>1767.40</ele>
	<time>2025-08-03T07:49:18.000Z</time>
</trkpt>
<trkpt lat="45.9633270" lon="10.1406330">
	<ele>1767.60</ele>
	<time>2025-08-03T07:49:19.000Z</time>
</trkpt>
<trkpt lat="45.9633290" lon="10.1406540">
	<ele>1767.80</ele>
	<time>2025-08-03T07:49:20.000Z</time>
</trkpt>
<trkpt lat="45.9633270" lon="10.1406620">
	<ele>1767.80</ele>
	<time>2025-08-03T07:49:21.000Z</time>
</trkpt>
<trkpt lat="45.9633190" lon="10.1406750">
	<ele>1768.00</ele>
	<time>2025-08-03T07:49:22.000Z</time>
</trkpt>
<trkpt lat="45.9633140" lon="10.1406990">
	<ele>1768.00</ele>
	<time>2025-08-03T07:49:23.000Z</time>
</trkpt>
<trkpt lat="45.9633140" lon="10.1407160">
	<ele>1768.00</ele>
	<time>2025-08-03T07:49:24.000Z</time>
</trkpt>
<trkpt lat="45.9633160" lon="10.1407380">
	<ele>1768.20</ele>
	<time>2025-08-03T07:49:25.000Z</time>
</trkpt>
<trkpt lat="45.9633090" lon="10.1407700">
	<ele>1768.40</ele>
	<time>2025-08-03T07:49:26.000Z</time>
</trkpt>
<trkpt lat="45.9633150" lon="10.1407950">
	<ele>1768.60</ele>
	<time>2025-08-03T07:49:27.000Z</time>
</trkpt>
<trkpt lat="45.9633160" lon="10.1408090">
	<ele>1768.60</ele>
	<time>2025-08-03T07:49:28.000Z</time>
</trkpt>
<trkpt lat="45.9633170" lon="10.1408150">
	<ele>1768.80</ele>
	<time>2025-08-03T07:49:29.000Z</time>
</trkpt>
<trkpt lat="45.9633110" lon="10.1408260">
	<ele>1769.00</ele>
	<time>2025-08-03T07:49:30.000Z</time>
</trkpt>
<trkpt lat="45.9633160" lon="10.1408400">
	<ele>1769.20</ele>
	<time>2025-08-03T07:49:31.000Z</time>
</trkpt>
<trkpt lat="45.9633130" lon="10.1408590">
	<ele>1769.40</ele>
	<time>2025-08-03T07:49:32.000Z</time>
</trkpt>
<trkpt lat="45.9633130" lon="10.1408710">
	<ele>1769.60</ele>
	<time>2025-08-03T07:49:33.000Z</time>
</trkpt>
<trkpt lat="45.9633090" lon="10.1408860">
	<ele>1769.60</ele>
	<time>2025-08-03T07:49:34.000Z</time>
</trkpt>
<trkpt lat="45.9633070" lon="10.1408980">
	<ele>1769.80</ele>
	<time>2025-08-03T07:49:35.000Z</time>
</trkpt>
<trkpt lat="45.9632960" lon="10.1409060">
	<ele>1770.00</ele>
	<time>2025-08-03T07:49:36.000Z</time>
</trkpt>
<trkpt lat="45.9632950" lon="10.1409170">
	<ele>1770.20</ele>
	<time>2025-08-03T07:49:37.000Z</time>
</trkpt>
<trkpt lat="45.9633000" lon="10.1409300">
	<ele>1770.40</ele>
	<time>2025-08-03T07:49:38.000Z</time>
</trkpt>
<trkpt lat="45.9632990" lon="10.1409430">
	<ele>1770.40</ele>
	<time>2025-08-03T07:49:39.000Z</time>
</trkpt>
<trkpt lat="45.9632940" lon="10.1409560">
	<ele>1770.60</ele>
	<time>2025-08-03T07:49:40.000Z</time>
</trkpt>
<trkpt lat="45.9632940" lon="10.1409690">
	<ele>1770.80</ele>
	<time>2025-08-03T07:49:41.000Z</time>
</trkpt>
<trkpt lat="45.9632880" lon="10.1409830">
	<ele>1771.00</ele>
	<time>2025-08-03T07:49:42.000Z</time>
</trkpt>
<trkpt lat="45.9632860" lon="10.1409990">
	<ele>1771.00</ele>
	<time>2025-08-03T07:49:43.000Z</time>
</trkpt>
<trkpt lat="45.9632810" lon="10.1410150">
	<ele>1771.40</ele>
	<time>2025-08-03T07:49:44.000Z</time>
</trkpt>
<trkpt lat="45.9632780" lon="10.1410290">
	<ele>1771.60</ele>
	<time>2025-08-03T07:49:45.000Z</time>
</trkpt>
<trkpt lat="45.9632770" lon="10.1410480">
	<ele>1771.60</ele>
	<time>2025-08-03T07:49:46.000Z</time>
</trkpt>
<trkpt lat="45.9632790" lon="10.1410680">
	<ele>1771.60</ele>
	<time>2025-08-03T07:49:47.000Z</time>
</trkpt>
<trkpt lat="45.9632810" lon="10.1410850">
	<ele>1771.80</ele>
	<time>2025-08-03T07:49:48.000Z</time>
</trkpt>
<trkpt lat="45.9632860" lon="10.1410980">
	<ele>1771.80</ele>
	<time>2025-08-03T07:49:49.000Z</time>
</trkpt>
<trkpt lat="45.9632890" lon="10.1411210">
	<ele>1771.80</ele>
	<time>2025-08-03T07:49:50.000Z</time>
</trkpt>
<trkpt lat="45.9632890" lon="10.1411350">
	<ele>1771.80</ele>
	<time>2025-08-03T07:49:51.000Z</time>
</trkpt>
<trkpt lat="45.9632920" lon="10.1411460">
	<ele>1771.80</ele>
	<time>2025-08-03T07:49:52.000Z</time>
</trkpt>
<trkpt lat="45.9632950" lon="10.1411620">
	<ele>1771.80</ele>
	<time>2025-08-03T07:49:53.000Z</time>
</trkpt>
<trkpt lat="45.9632930" lon="10.1411740">
	<ele>1771.80</ele>
	<time>2025-08-03T07:49:54.000Z</time>
</trkpt>
<trkpt lat="45.9632900" lon="10.1411890">
	<ele>1772.00</ele>
	<time>2025-08-03T07:49:55.000Z</time>
</trkpt>
<trkpt lat="45.9632850" lon="10.1412070">
	<ele>1772.00</ele>
	<time>2025-08-03T07:49:56.000Z</time>
</trkpt>
<trkpt lat="45.9632830" lon="10.1412190">
	<ele>1772.20</ele>
	<time>2025-08-03T07:49:57.000Z</time>
</trkpt>
<trkpt lat="45.9632820" lon="10.1412380">
	<ele>1772.20</ele>
	<time>2025-08-03T07:49:58.000Z</time>
</trkpt>
<trkpt lat="45.9632810" lon="10.1412600">
	<ele>1772.20</ele>
	<time>2025-08-03T07:49:59.000Z</time>
</trkpt>
<trkpt lat="45.9632770" lon="10.1412830">
	<ele>1772.40</ele>
	<time>2025-08-03T07:50:00.000Z</time>
</trkpt>
<trkpt lat="45.9632740" lon="10.1413070">
	<ele>1772.60</ele>
	<time>2025-08-03T07:50:01.000Z</time>
</trkpt>
<trkpt lat="45.9632740" lon="10.1413280">
	<ele>1772.80</ele>
	<time>2025-08-03T07:50:02.000Z</time>
</trkpt>
<trkpt lat="45.9632730" lon="10.1413440">
	<ele>1772.80</ele>
	<time>2025-08-03T07:50:03.000Z</time>
</trkpt>
<trkpt lat="45.9632720" lon="10.1413590">
	<ele>1772.80</ele>
	<time>2025-08-03T07:50:04.000Z</time>
</trkpt>
<trkpt lat="45.9632740" lon="10.1413890">
	<ele>1773.00</ele>
	<time>2025-08-03T07:50:05.000Z</time>
</trkpt>
<trkpt lat="45.9632750" lon="10.1414040">
	<ele>1773.00</ele>
	<time>2025-08-03T07:50:06.000Z</time>
</trkpt>
<trkpt lat="45.9632810" lon="10.1414210">
	<ele>1773.00</ele>
	<time>2025-08-03T07:50:07.000Z</time>
</trkpt>
<trkpt lat="45.9632840" lon="10.1414380">
	<ele>1773.00</ele>
	<time>2025-08-03T07:50:08.000Z</time>
</trkpt>
<trkpt lat="45.9632870" lon="10.1414540">
	<ele>1773.20</ele>
	<time>2025-08-03T07:50:09.000Z</time>
</trkpt>
<trkpt lat="45.9632890" lon="10.1414780">
	<ele>1773.20</ele>
	<time>2025-08-03T07:50:10.000Z</time>
</trkpt>
<trkpt lat="45.9632850" lon="10.1415070">
	<ele>1773.40</ele>
	<time>2025-08-03T07:50:11.000Z</time>
</trkpt>
<trkpt lat="45.9632830" lon="10.1415330">
	<ele>1773.60</ele>
	<time>2025-08-03T07:50:12.000Z</time>
</trkpt>
<trkpt lat="45.9632820" lon="10.1415500">
	<ele>1773.80</ele>
	<time>2025-08-03T07:50:13.000Z</time>
</trkpt>
<trkpt lat="45.9632830" lon="10.1415630">
	<ele>1774.00</ele>
	<time>2025-08-03T07:50:14.000Z</time>
</trkpt>
<trkpt lat="45.9632870" lon="10.1415740">
	<ele>1774.20</ele>
	<time>2025-08-03T07:50:15.000Z</time>
</trkpt>
<trkpt lat="45.9632890" lon="10.1415890">
	<ele>1774.40</ele>
	<time>2025-08-03T07:50:16.000Z</time>
</trkpt>
<trkpt lat="45.9632910" lon="10.1415950">
	<ele>1774.60</ele>
	<time>2025-08-03T07:50:17.000Z</time>
</trkpt>
<trkpt lat="45.9632910" lon="10.1416080">
	<ele>1774.60</ele>
	<time>2025-08-03T07:50:18.000Z</time>
</trkpt>
<trkpt lat="45.9632920" lon="10.1416210">
	<ele>1774.80</ele>
	<time>2025-08-03T07:50:19.000Z</time>
</trkpt>
<trkpt lat="45.9632890" lon="10.1416390">
	<ele>1775.00</ele>
	<time>2025-08-03T07:50:20.000Z</time>
</trkpt>
<trkpt lat="45.9632820" lon="10.1416450">
	<ele>1775.00</ele>
	<time>2025-08-03T07:50:21.000Z</time>
</trkpt>
<trkpt lat="45.9632730" lon="10.1416510">
	<ele>1775.00</ele>
	<time>2025-08-03T07:50:22.000Z</time>
</trkpt>
<trkpt lat="45.9632690" lon="10.1416600">
	<ele>1775.20</ele>
	<time>2025-08-03T07:50:23.000Z</time>
</trkpt>
<trkpt lat="45.9632660" lon="10.1416730">
	<ele>1775.40</ele>
	<time>2025-08-03T07:50:24.000Z</time>
</trkpt>
<trkpt lat="45.9632730" lon="10.1416840">
	<ele>1775.40</ele>
	<time>2025-08-03T07:50:25.000Z</time>
</trkpt>
<trkpt lat="45.9632800" lon="10.1416990">
	<ele>1775.60</ele>
	<time>2025-08-03T07:50:26.000Z</time>
</trkpt>
<trkpt lat="45.9632810" lon="10.1417130">
	<ele>1775.60</ele>
	<time>2025-08-03T07:50:27.000Z</time>
</trkpt>
<trkpt lat="45.9632690" lon="10.1417200">
	<ele>1775.80</ele>
	<time>2025-08-03T07:50:28.000Z</time>
</trkpt>
<trkpt lat="45.9632660" lon="10.1417360">
	<ele>1776.00</ele>
	<time>2025-08-03T07:50:29.000Z</time>
</trkpt>
<trkpt lat="45.9632590" lon="10.1417540">
	<ele>1776.20</ele>
	<time>2025-08-03T07:50:30.000Z</time>
</trkpt>
<trkpt lat="45.9632750" lon="10.1417800">
	<ele>1776.40</ele>
	<time>2025-08-03T07:50:31.000Z</time>
</trkpt>
<trkpt lat="45.9632920" lon="10.1418040">
	<ele>1776.40</ele>
	<time>2025-08-03T07:50:32.000Z</time>
</trkpt>
<trkpt lat="45.9633010" lon="10.1418290">
	<ele>1776.60</ele>
	<time>2025-08-03T07:50:33.000Z</time>
</trkpt>
<trkpt lat="45.9633100" lon="10.1418410">
	<ele>1776.80</ele>
	<time>2025-08-03T07:50:34.000Z</time>
</trkpt>
<trkpt lat="45.9633120" lon="10.1418410">
	<ele>1777.20</ele>
	<time>2025-08-03T07:50:35.000Z</time>
</trkpt>
<trkpt lat="45.9633140" lon="10.1418600">
	<ele>1777.40</ele>
	<time>2025-08-03T07:50:36.000Z</time>
</trkpt>
<trkpt lat="45.9633190" lon="10.1418750">
	<ele>1777.60</ele>
	<time>2025-08-03T07:50:37.000Z</time>
</trkpt>
<trkpt lat="45.9633190" lon="10.1418850">
	<ele>1777.80</ele>
	<time>2025-08-03T07:50:38.000Z</time>
</trkpt>
<trkpt lat="45.9633150" lon="10.1418970">
	<ele>1778.00</ele>
	<time>2025-08-03T07:50:39.000Z</time>
</trkpt>
<trkpt lat="45.9633150" lon="10.1419170">
	<ele>1778.40</ele>
	<time>2025-08-03T07:50:40.000Z</time>
</trkpt>
<trkpt lat="45.9633150" lon="10.1419250">
	<ele>1778.60</ele>
	<time>2025-08-03T07:50:41.000Z</time>
</trkpt>
<trkpt lat="45.9633160" lon="10.1419340">
	<ele>1778.80</ele>
	<time>2025-08-03T07:50:42.000Z</time>
</trkpt>
<trkpt lat="45.9633130" lon="10.1419420">
	<ele>1778.80</ele>
	<time>2025-08-03T07:50:43.000Z</time>
</trkpt>
<trkpt lat="45.9633050" lon="10.1419510">
	<ele>1779.00</ele>
	<time>2025-08-03T07:50:44.000Z</time>
</trkpt>
<trkpt lat="45.9633040" lon="10.1419570">
	<ele>1779.00</ele>
	<time>2025-08-03T07:50:45.000Z</time>
</trkpt>
<trkpt lat="45.9633030" lon="10.1419640">
	<ele>1779.20</ele>
	<time>2025-08-03T07:50:46.000Z</time>
</trkpt>
<trkpt lat="45.9633000" lon="10.1419740">
	<ele>1779.20</ele>
	<time>2025-08-03T07:50:47.000Z</time>
</trkpt>
<trkpt lat="45.9632950" lon="10.1419820">
	<ele>1779.40</ele>
	<time>2025-08-03T07:50:48.000Z</time>
</trkpt>
<trkpt lat="45.9632900" lon="10.1419920">
	<ele>1779.60</ele>
	<time>2025-08-03T07:50:49.000Z</time>
</trkpt>
<trkpt lat="45.9632900" lon="10.1420080">
	<ele>1779.60</ele>
	<time>2025-08-03T07:50:50.000Z</time>
</trkpt>
<trkpt lat="45.9632920" lon="10.1420290">
	<ele>1779.80</ele>
	<time>2025-08-03T07:50:51.000Z</time>
</trkpt>
<trkpt lat="45.9632930" lon="10.1420490">
	<ele>1780.00</ele>
	<time>2025-08-03T07:50:52.000Z</time>
</trkpt>
<trkpt lat="45.9632930" lon="10.1420670">
	<ele>1780.20</ele>
	<time>2025-08-03T07:50:53.000Z</time>
</trkpt>
<trkpt lat="45.9632940" lon="10.1420780">
	<ele>1780.20</ele>
	<time>2025-08-03T07:50:54.000Z</time>
</trkpt>
<trkpt lat="45.9632960" lon="10.1420920">
	<ele>1780.40</ele>
	<time>2025-08-03T07:50:55.000Z</time>
</trkpt>
<trkpt lat="45.9632940" lon="10.1421050">
	<ele>1780.60</ele>
	<time>2025-08-03T07:50:56.000Z</time>
</trkpt>
<trkpt lat="45.9632930" lon="10.1421180">
	<ele>1780.80</ele>
	<time>2025-08-03T07:50:57.000Z</time>
</trkpt>
<trkpt lat="45.9632950" lon="10.1421300">
	<ele>1780.80</ele>
	<time>2025-08-03T07:50:58.000Z</time>
</trkpt>
<trkpt lat="45.9632970" lon="10.1421410">
	<ele>1781.00</ele>
	<time>2025-08-03T07:50:59.000Z</time>
</trkpt>
<trkpt lat="45.9632920" lon="10.1421460">
	<ele>1781.20</ele>
	<time>2025-08-03T07:51:00.000Z</time>
</trkpt>
<trkpt lat="45.9632900" lon="10.1421420">
	<ele>1781.40</ele>
	<time>2025-08-03T07:51:01.000Z</time>
</trkpt>
<trkpt lat="45.9632860" lon="10.1421430">
	<ele>1781.40</ele>
	<time>2025-08-03T07:51:02.000Z</time>
</trkpt>
<trkpt lat="45.9632850" lon="10.1421440">
	<ele>1781.60</ele>
	<time>2025-08-03T07:51:03.000Z</time>
</trkpt>
<trkpt lat="45.9632870" lon="10.1421470">
	<ele>1781.80</ele>
	<time>2025-08-03T07:51:04.000Z</time>
</trkpt>
<trkpt lat="45.9632920" lon="10.1421670">
	<ele>1782.00</ele>
	<time>2025-08-03T07:51:05.000Z</time>
</trkpt>
<trkpt lat="45.9633010" lon="10.1421850">
	<ele>1782.00</ele>
	<time>2025-08-03T07:51:06.000Z</time>
</trkpt>
<trkpt lat="45.9633090" lon="10.1422100">
	<ele>1782.20</ele>
	<time>2025-08-03T07:51:07.000Z</time>
</trkpt>
<trkpt lat="45.9633120" lon="10.1422290">
	<ele>1782.60</ele>
	<time>2025-08-03T07:51:08.000Z</time>
</trkpt>
<trkpt lat="45.9633250" lon="10.1422560">
	<ele>1782.80</ele>
	<time>2025-08-03T07:51:09.000Z</time>
</trkpt>
<trkpt lat="45.9633430" lon="10.1422900">
	<ele>1783.00</ele>
	<time>2025-08-03T07:51:10.000Z</time>
</trkpt>
<trkpt lat="45.9633430" lon="10.1422990">
	<ele>1783.00</ele>
	<time>2025-08-03T07:51:11.000Z</time>
</trkpt>
<trkpt lat="45.9633520" lon="10.1423130">
	<ele>1783.20</ele>
	<time>2025-08-03T07:51:12.000Z</time>
</trkpt>
<trkpt lat="45.9633510" lon="10.1423180">
	<ele>1783.40</ele>
	<time>2025-08-03T07:51:13.000Z</time>
</trkpt>
<trkpt lat="45.9633600" lon="10.1423430">
	<ele>1783.60</ele>
	<time>2025-08-03T07:51:14.000Z</time>
</trkpt>
<trkpt lat="45.9633700" lon="10.1423660">
	<ele>1783.80</ele>
	<time>2025-08-03T07:51:15.000Z</time>
</trkpt>
<trkpt lat="45.9633790" lon="10.1423890">
	<ele>1783.80</ele>
	<time>2025-08-03T07:51:16.000Z</time>
</trkpt>
<trkpt lat="45.9633840" lon="10.1424070">
	<ele>1784.00</ele>
	<time>2025-08-03T07:51:17.000Z</time>
</trkpt>
<trkpt lat="45.9633940" lon="10.1424200">
	<ele>1784.20</ele>
	<time>2025-08-03T07:51:18.000Z</time>
</trkpt>
<trkpt lat="45.9634020" lon="10.1424360">
	<ele>1784.40</ele>
	<time>2025-08-03T07:51:19.000Z</time>
</trkpt>
<trkpt lat="45.9634060" lon="10.1424530">
	<ele>1784.60</ele>
	<time>2025-08-03T07:51:20.000Z</time>
</trkpt>
<trkpt lat="45.9634120" lon="10.1424760">
	<ele>1784.60</ele>
	<time>2025-08-03T07:51:21.000Z</time>
</trkpt>
<trkpt lat="45.9634160" lon="10.1424940">
	<ele>1784.60</ele>
	<time>2025-08-03T07:51:22.000Z</time>
</trkpt>
<trkpt lat="45.9634170" lon="10.1425020">
	<ele>1784.80</ele>
	<time>2025-08-03T07:51:23.000Z</time>
</trkpt>
<trkpt lat="45.9634220" lon="10.1425270">
	<ele>1784.80</ele>
	<time>2025-08-03T07:51:24.000Z</time>
</trkpt>
<trkpt lat="45.9634250" lon="10.1425570">
	<ele>1785.00</ele>
	<time>2025-08-03T07:51:25.000Z</time>
</trkpt>
<trkpt lat="45.9634240" lon="10.1425890">
	<ele>1785.20</ele>
	<time>2025-08-03T07:51:26.000Z</time>
</trkpt>
<trkpt lat="45.9634270" lon="10.1426210">
	<ele>1785.40</ele>
	<time>2025-08-03T07:51:27.000Z</time>
</trkpt>
<trkpt lat="45.9634280" lon="10.1426310">
	<ele>1785.40</ele>
	<time>2025-08-03T07:51:28.000Z</time>
</trkpt>
<trkpt lat="45.9634360" lon="10.1426380">
	<ele>1785.60</ele>
	<time>2025-08-03T07:51:29.000Z</time>
</trkpt>
<trkpt lat="45.9634370" lon="10.1426440">
	<ele>1785.80</ele>
	<time>2025-08-03T07:51:30.000Z</time>
</trkpt>
<trkpt lat="45.9634390" lon="10.1426420">
	<ele>1785.80</ele>
	<time>2025-08-03T07:51:31.000Z</time>
</trkpt>
<trkpt lat="45.9634420" lon="10.1426480">
	<ele>1786.00</ele>
	<time>2025-08-03T07:51:32.000Z</time>
</trkpt>
<trkpt lat="45.9634380" lon="10.1426510">
	<ele>1786.00</ele>
	<time>2025-08-03T07:51:33.000Z</time>
</trkpt>
<trkpt lat="45.9634420" lon="10.1426690">
	<ele>1786.20</ele>
	<time>2025-08-03T07:51:34.000Z</time>
</trkpt>
<trkpt lat="45.9634470" lon="10.1426790">
	<ele>1786.40</ele>
	<time>2025-08-03T07:51:35.000Z</time>
</trkpt>
<trkpt lat="45.9634610" lon="10.1426940">
	<ele>1786.60</ele>
	<time>2025-08-03T07:51:36.000Z</time>
</trkpt>
<trkpt lat="45.9634720" lon="10.1427200">
	<ele>1786.80</ele>
	<time>2025-08-03T07:51:37.000Z</time>
</trkpt>
<trkpt lat="45.9634800" lon="10.1427390">
	<ele>1787.00</ele>
	<time>2025-08-03T07:51:38.000Z</time>
</trkpt>
<trkpt lat="45.9634870" lon="10.1427500">
	<ele>1787.00</ele>
	<time>2025-08-03T07:51:39.000Z</time>
</trkpt>
<trkpt lat="45.9634860" lon="10.1427700">
	<ele>1787.00</ele>
	<time>2025-08-03T07:51:40.000Z</time>
</trkpt>
<trkpt lat="45.9634920" lon="10.1427760">
	<ele>1787.40</ele>
	<time>2025-08-03T07:51:41.000Z</time>
</trkpt>
<trkpt lat="45.9635030" lon="10.1427760">
	<ele>1787.60</ele>
	<time>2025-08-03T07:51:42.000Z</time>
</trkpt>
<trkpt lat="45.9635200" lon="10.1427750">
	<ele>1787.60</ele>
	<time>2025-08-03T07:51:43.000Z</time>
</trkpt>
<trkpt lat="45.9635200" lon="10.1427860">
	<ele>1787.80</ele>
	<time>2025-08-03T07:51:44.000Z</time>
</trkpt>
<trkpt lat="45.9635170" lon="10.1427980">
	<ele>1788.00</ele>
	<time>2025-08-03T07:51:45.000Z</time>
</trkpt>
<trkpt lat="45.9635130" lon="10.1428090">
	<ele>1788.20</ele>
	<time>2025-08-03T07:51:46.000Z</time>
</trkpt>
<trkpt lat="45.9635170" lon="10.1428260">
	<ele>1788.40</ele>
	<time>2025-08-03T07:51:47.000Z</time>
</trkpt>
<trkpt lat="45.9635190" lon="10.1428400">
	<ele>1788.60</ele>
	<time>2025-08-03T07:51:48.000Z</time>
</trkpt>
<trkpt lat="45.9635270" lon="10.1428630">
	<ele>1788.60</ele>
	<time>2025-08-03T07:51:49.000Z</time>
</trkpt>
<trkpt lat="45.9635420" lon="10.1428770">
	<ele>1788.60</ele>
	<time>2025-08-03T07:51:50.000Z</time>
</trkpt>
<trkpt lat="45.9635460" lon="10.1428840">
	<ele>1788.80</ele>
	<time>2025-08-03T07:51:51.000Z</time>
</trkpt>
<trkpt lat="45.9635570" lon="10.1429050">
	<ele>1789.00</ele>
	<time>2025-08-03T07:51:52.000Z</time>
</trkpt>
<trkpt lat="45.9635520" lon="10.1429220">
	<ele>1789.20</ele>
	<time>2025-08-03T07:51:53.000Z</time>
</trkpt>
<trkpt lat="45.9635550" lon="10.1429460">
	<ele>1789.40</ele>
	<time>2025-08-03T07:51:54.000Z</time>
</trkpt>
<trkpt lat="45.9635630" lon="10.1429680">
	<ele>1789.60</ele>
	<time>2025-08-03T07:51:55.000Z</time>
</trkpt>
<trkpt lat="45.9635660" lon="10.1429770">
	<ele>1789.60</ele>
	<time>2025-08-03T07:51:56.000Z</time>
</trkpt>
<trkpt lat="45.9635660" lon="10.1429840">
	<ele>1789.80</ele>
	<time>2025-08-03T07:51:57.000Z</time>
</trkpt>
<trkpt lat="45.9635670" lon="10.1429970">
	<ele>1789.80</ele>
	<time>2025-08-03T07:51:58.000Z</time>
</trkpt>
<trkpt lat="45.9635690" lon="10.1430140">
	<ele>1790.00</ele>
	<time>2025-08-03T07:51:59.000Z</time>
</trkpt>
<trkpt lat="45.9635720" lon="10.1430300">
	<ele>1790.20</ele>
	<time>2025-08-03T07:52:00.000Z</time>
</trkpt>
<trkpt lat="45.9635700" lon="10.1430410">
	<ele>1790.40</ele>
	<time>2025-08-03T07:52:01.000Z</time>
</trkpt>
<trkpt lat="45.9635730" lon="10.1430500">
	<ele>1790.60</ele>
	<time>2025-08-03T07:52:02.000Z</time>
</trkpt>
<trkpt lat="45.9635720" lon="10.1430600">
	<ele>1790.60</ele>
	<time>2025-08-03T07:52:03.000Z</time>
</trkpt>
<trkpt lat="45.9635760" lon="10.1430700">
	<ele>1790.80</ele>
	<time>2025-08-03T07:52:04.000Z</time>
</trkpt>
<trkpt lat="45.9635870" lon="10.1430890">
	<ele>1791.00</ele>
	<time>2025-08-03T07:52:05.000Z</time>
</trkpt>
<trkpt lat="45.9635920" lon="10.1431020">
	<ele>1791.20</ele>
	<time>2025-08-03T07:52:06.000Z</time>
</trkpt>
<trkpt lat="45.9635920" lon="10.1431070">
	<ele>1791.20</ele>
	<time>2025-08-03T07:52:07.000Z</time>
</trkpt>
<trkpt lat="45.9635860" lon="10.1430930">
	<ele>1791.40</ele>
	<time>2025-08-03T07:52:08.000Z</time>
</trkpt>
<trkpt lat="45.9635840" lon="10.1430920">
	<ele>1791.40</ele>
	<time>2025-08-03T07:52:09.000Z</time>
</trkpt>
<trkpt lat="45.9635830" lon="10.1431060">
	<ele>1791.40</ele>
	<time>2025-08-03T07:52:10.000Z</time>
</trkpt>
<trkpt lat="45.9635850" lon="10.1431160">
	<ele>1791.60</ele>
	<time>2025-08-03T07:52:11.000Z</time>
</trkpt>
<trkpt lat="45.9635900" lon="10.1431260">
	<ele>1791.60</ele>
	<time>2025-08-03T07:52:12.000Z</time>
</trkpt>
<trkpt lat="45.9635950" lon="10.1431420">
	<ele>1791.80</ele>
	<time>2025-08-03T07:52:13.000Z</time>
</trkpt>
<trkpt lat="45.9635990" lon="10.1431870">
	<ele>1792.00</ele>
	<time>2025-08-03T07:52:14.000Z</time>
</trkpt>
<trkpt lat="45.9636040" lon="10.1432170">
	<ele>1792.20</ele>
	<time>2025-08-03T07:52:15.000Z</time>
</trkpt>
<trkpt lat="45.9636090" lon="10.1432550">
	<ele>1792.40</ele>
	<time>2025-08-03T07:52:16.000Z</time>
</trkpt>
<trkpt lat="45.9636110" lon="10.1432840">
	<ele>1792.60</ele>
	<time>2025-08-03T07:52:17.000Z</time>
</trkpt>
<trkpt lat="45.9636110" lon="10.1433060">
	<ele>1792.60</ele>
	<time>2025-08-03T07:52:18.000Z</time>
</trkpt>
<trkpt lat="45.9636100" lon="10.1433240">
	<ele>1792.80</ele>
	<time>2025-08-03T07:52:19.000Z</time>
</trkpt>
<trkpt lat="45.9636150" lon="10.1433360">
	<ele>1792.80</ele>
	<time>2025-08-03T07:52:20.000Z</time>
</trkpt>
<trkpt lat="45.9636140" lon="10.1433420">
	<ele>1793.00</ele>
	<time>2025-08-03T07:52:21.000Z</time>
</trkpt>
<trkpt lat="45.9636170" lon="10.1433570">
	<ele>1793.00</ele>
	<time>2025-08-03T07:52:22.000Z</time>
</trkpt>
<trkpt lat="45.9636210" lon="10.1433870">
	<ele>1793.20</ele>
	<time>2025-08-03T07:52:23.000Z</time>
</trkpt>
<trkpt lat="45.9636280" lon="10.1434090">
	<ele>1793.40</ele>
	<time>2025-08-03T07:52:24.000Z</time>
</trkpt>
<trkpt lat="45.9636360" lon="10.1434330">
	<ele>1793.40</ele>
	<time>2025-08-03T07:52:25.000Z</time>
</trkpt>
<trkpt lat="45.9636400" lon="10.1434390">
	<ele>1793.40</ele>
	<time>2025-08-03T07:52:26.000Z</time>
</trkpt>
<trkpt lat="45.9636430" lon="10.1434430">
	<ele>1793.60</ele>
	<time>2025-08-03T07:52:27.000Z</time>
</trkpt>
<trkpt lat="45.9636470" lon="10.1434440">
	<ele>1793.60</ele>
	<time>2025-08-03T07:52:28.000Z</time>
</trkpt>
<trkpt lat="45.9636510" lon="10.1434470">
	<ele>1793.60</ele>
	<time>2025-08-03T07:52:29.000Z</time>
</trkpt>
<trkpt lat="45.9636620" lon="10.1434550">
	<ele>1793.80</ele>
	<time>2025-08-03T07:52:30.000Z</time>
</trkpt>
<trkpt lat="45.9636670" lon="10.1434800">
	<ele>1793.80</ele>
	<time>2025-08-03T07:52:31.000Z</time>
</trkpt>
<trkpt lat="45.9636740" lon="10.1434970">
	<ele>1793.80</ele>
	<time>2025-08-03T07:52:32.000Z</time>
</trkpt>
<trkpt lat="45.9636810" lon="10.1435160">
	<ele>1794.00</ele>
	<time>2025-08-03T07:52:33.000Z</time>
</trkpt>
<trkpt lat="45.9636890" lon="10.1435320">
	<ele>1794.20</ele>
	<time>2025-08-03T07:52:34.000Z</time>
</trkpt>
<trkpt lat="45.9636990" lon="10.1435460">
	<ele>1794.40</ele>
	<time>2025-08-03T07:52:35.000Z</time>
</trkpt>
<trkpt lat="45.9637020" lon="10.1435510">
	<ele>1794.40</ele>
	<time>2025-08-03T07:52:36.000Z</time>
</trkpt>
<trkpt lat="45.9637070" lon="10.1435530">
	<ele>1794.60</ele>
	<time>2025-08-03T07:52:37.000Z</time>
</trkpt>
<trkpt lat="45.9637090" lon="10.1435590">
	<ele>1794.80</ele>
	<time>2025-08-03T07:52:38.000Z</time>
</trkpt>
<trkpt lat="45.9637100" lon="10.1435650">
	<ele>1795.00</ele>
	<time>2025-08-03T07:52:39.000Z</time>
</trkpt>
<trkpt lat="45.9637120" lon="10.1435800">
	<ele>1795.20</ele>
	<time>2025-08-03T07:52:40.000Z</time>
</trkpt>
<trkpt lat="45.9637120" lon="10.1436020">
	<ele>1795.40</ele>
	<time>2025-08-03T07:52:41.000Z</time>
</trkpt>
<trkpt lat="45.9637160" lon="10.1436200">
	<ele>1795.60</ele>
	<time>2025-08-03T07:52:42.000Z</time>
</trkpt>
<trkpt lat="45.9637120" lon="10.1436360">
	<ele>1795.80</ele>
	<time>2025-08-03T07:52:43.000Z</time>
</trkpt>
<trkpt lat="45.9637100" lon="10.1436440">
	<ele>1796.00</ele>
	<time>2025-08-03T07:52:44.000Z</time>
</trkpt>
<trkpt lat="45.9637090" lon="10.1436540">
	<ele>1796.00</ele>
	<time>2025-08-03T07:52:45.000Z</time>
</trkpt>
<trkpt lat="45.9637150" lon="10.1436660">
	<ele>1796.20</ele>
	<time>2025-08-03T07:52:46.000Z</time>
</trkpt>
<trkpt lat="45.9637300" lon="10.1436750">
	<ele>1796.40</ele>
	<time>2025-08-03T07:52:47.000Z</time>
</trkpt>
<trkpt lat="45.9637420" lon="10.1436880">
	<ele>1796.60</ele>
	<time>2025-08-03T07:52:48.000Z</time>
</trkpt>
<trkpt lat="45.9637440" lon="10.1437070">
	<ele>1796.80</ele>
	<time>2025-08-03T07:52:49.000Z</time>
</trkpt>
<trkpt lat="45.9637470" lon="10.1437120">
	<ele>1796.80</ele>
	<time>2025-08-03T07:52:50.000Z</time>
</trkpt>
<trkpt lat="45.9637490" lon="10.1437150">
	<ele>1797.00</ele>
	<time>2025-08-03T07:52:51.000Z</time>
</trkpt>
<trkpt lat="45.9637510" lon="10.1437160">
	<ele>1797.20</ele>
	<time>2025-08-03T07:52:52.000Z</time>
</trkpt>
<trkpt lat="45.9637510" lon="10.1437200">
	<ele>1797.20</ele>
	<time>2025-08-03T07:52:53.000Z</time>
</trkpt>
<trkpt lat="45.9637530" lon="10.1437290">
	<ele>1797.20</ele>
	<time>2025-08-03T07:52:54.000Z</time>
</trkpt>
<trkpt lat="45.9637540" lon="10.1437340">
	<ele>1797.20</ele>
	<time>2025-08-03T07:52:55.000Z</time>
</trkpt>
<trkpt lat="45.9637580" lon="10.1437420">
	<ele>1797.20</ele>
	<time>2025-08-03T07:52:56.000Z</time>
</trkpt>
<trkpt lat="45.9637610" lon="10.1437460">
	<ele>1797.20</ele>
	<time>2025-08-03T07:52:57.000Z</time>
</trkpt>
<trkpt lat="45.9637630" lon="10.1437460">
	<ele>1797.20</ele>
	<time>2025-08-03T07:52:58.000Z</time>
</trkpt>
<trkpt lat="45.9637700" lon="10.1437460">
	<ele>1797.00</ele>
	<time>2025-08-03T07:52:59.000Z</time>
</trkpt>
<trkpt lat="45.9637720" lon="10.1437460">
	<ele>1797.20</ele>
	<time>2025-08-03T07:53:00.000Z</time>
</trkpt>
<trkpt lat="45.9637740" lon="10.1437460">
	<ele>1797.40</ele>
	<time>2025-08-03T07:53:01.000Z</time>
</trkpt>
<trkpt lat="45.9637730" lon="10.1437470">
	<ele>1797.40</ele>
	<time>2025-08-03T07:53:02.000Z</time>
</trkpt>
<trkpt lat="45.9637690" lon="10.1437560">
	<ele>1797.40</ele>
	<time>2025-08-03T07:53:03.000Z</time>
</trkpt>
<trkpt lat="45.9637710" lon="10.1437540">
	<ele>1797.40</ele>
	<time>2025-08-03T07:53:04.000Z</time>
</trkpt>
<trkpt lat="45.9637690" lon="10.1437610">
	<ele>1797.40</ele>
	<time>2025-08-03T07:53:05.000Z</time>
</trkpt>
<trkpt lat="45.9637690" lon="10.1437750">
	<ele>1797.20</ele>
	<time>2025-08-03T07:53:06.000Z</time>
</trkpt>
<trkpt lat="45.9637660" lon="10.1437920">
	<ele>1797.20</ele>
	<time>2025-08-03T07:53:07.000Z</time>
</trkpt>
<trkpt lat="45.9637630" lon="10.1438090">
	<ele>1797.00</ele>
	<time>2025-08-03T07:53:08.000Z</time>
</trkpt>
<trkpt lat="45.9637640" lon="10.1438240">
	<ele>1797.00</ele>
	<time>2025-08-03T07:53:09.000Z</time>
</trkpt>
<trkpt lat="45.9637710" lon="10.1438350">
	<ele>1797.00</ele>
	<time>2025-08-03T07:53:10.000Z</time>
</trkpt>
<trkpt lat="45.9637850" lon="10.1438430">
	<ele>1797.00</ele>
	<time>2025-08-03T07:53:11.000Z</time>
</trkpt>
<trkpt lat="45.9637940" lon="10.1438440">
	<ele>1797.00</ele>
	<time>2025-08-03T07:53:12.000Z</time>
</trkpt>
<trkpt lat="45.9638010" lon="10.1438530">
	<ele>1797.20</ele>
	<time>2025-08-03T07:53:13.000Z</time>
</trkpt>
<trkpt lat="45.9638050" lon="10.1438650">
	<ele>1797.20</ele>
	<time>2025-08-03T07:53:14.000Z</time>
</trkpt>
<trkpt lat="45.9638090" lon="10.1438780">
	<ele>1797.20</ele>
	<time>2025-08-03T07:53:15.000Z</time>
</trkpt>
<trkpt lat="45.9638130" lon="10.1438900">
	<ele>1797.20</ele>
	<time>2025-08-03T07:53:16.000Z</time>
</trkpt>
<trkpt lat="45.9638160" lon="10.1438990">
	<ele>1797.20</ele>
	<time>2025-08-03T07:53:17.000Z</time>
</trkpt>
<trkpt lat="45.9638180" lon="10.1439080">
	<ele>1797.40</ele>
	<time>2025-08-03T07:53:18.000Z</time>
</trkpt>
<trkpt lat="45.9638220" lon="10.1439220">
	<ele>1797.40</ele>
	<time>2025-08-03T07:53:19.000Z</time>
</trkpt>
<trkpt lat="45.9638270" lon="10.1439360">
	<ele>1797.60</ele>
	<time>2025-08-03T07:53:20.000Z</time>
</trkpt>
<trkpt lat="45.9638310" lon="10.1439520">
	<ele>1797.60</ele>
	<time>2025-08-03T07:53:21.000Z</time>
</trkpt>
<trkpt lat="45.9638350" lon="10.1439670">
	<ele>1797.60</ele>
	<time>2025-08-03T07:53:22.000Z</time>
</trkpt>
<trkpt lat="45.9638370" lon="10.1439820">
	<ele>1797.80</ele>
	<time>2025-08-03T07:53:23.000Z</time>
</trkpt>
<trkpt lat="45.9638400" lon="10.1439960">
	<ele>1798.00</ele>
	<time>2025-08-03T07:53:24.000Z</time>
</trkpt>
<trkpt lat="45.9638480" lon="10.1440050">
	<ele>1798.00</ele>
	<time>2025-08-03T07:53:25.000Z</time>
</trkpt>
<trkpt lat="45.9638510" lon="10.1440200">
	<ele>1798.20</ele>
	<time>2025-08-03T07:53:26.000Z</time>
</trkpt>
<trkpt lat="45.9638530" lon="10.1440330">
	<ele>1798.20</ele>
	<time>2025-08-03T07:53:27.000Z</time>
</trkpt>
<trkpt lat="45.9638540" lon="10.1440480">
	<ele>1798.40</ele>
	<time>2025-08-03T07:53:28.000Z</time>
</trkpt>
<trkpt lat="45.9638560" lon="10.1440690">
	<ele>1798.60</ele>
	<time>2025-08-03T07:53:29.000Z</time>
</trkpt>
<trkpt lat="45.9638570" lon="10.1440860">
	<ele>1798.80</ele>
	<time>2025-08-03T07:53:30.000Z</time>
</trkpt>
<trkpt lat="45.9638610" lon="10.1440950">
	<ele>1798.80</ele>
	<time>2025-08-03T07:53:31.000Z</time>
</trkpt>
<trkpt lat="45.9638640" lon="10.1441020">
	<ele>1799.00</ele>
	<time>2025-08-03T07:53:32.000Z</time>
</trkpt>
<trkpt lat="45.9638670" lon="10.1441110">
	<ele>1799.20</ele>
	<time>2025-08-03T07:53:33.000Z</time>
</trkpt>
<trkpt lat="45.9638710" lon="10.1441180">
	<ele>1799.40</ele>
	<time>2025-08-03T07:53:34.000Z</time>
</trkpt>
<trkpt lat="45.9638750" lon="10.1441290">
	<ele>1799.40</ele>
	<time>2025-08-03T07:53:35.000Z</time>
</trkpt>
<trkpt lat="45.9638820" lon="10.1441360">
	<ele>1799.60</ele>
	<time>2025-08-03T07:53:36.000Z</time>
</trkpt>
<trkpt lat="45.9638850" lon="10.1441500">
	<ele>1800.00</ele>
	<time>2025-08-03T07:53:37.000Z</time>
</trkpt>
<trkpt lat="45.9638860" lon="10.1441620">
	<ele>1800.00</ele>
	<time>2025-08-03T07:53:38.000Z</time>
</trkpt>
<trkpt lat="45.9638870" lon="10.1441740">
	<ele>1800.20</ele>
	<time>2025-08-03T07:53:39.000Z</time>
</trkpt>
<trkpt lat="45.9638870" lon="10.1441830">
	<ele>1800.40</ele>
	<time>2025-08-03T07:53:40.000Z</time>
</trkpt>
<trkpt lat="45.9638870" lon="10.1441910">
	<ele>1800.40</ele>
	<time>2025-08-03T07:53:41.000Z</time>
</trkpt>
<trkpt lat="45.9638900" lon="10.1442030">
	<ele>1801.00</ele>
	<time>2025-08-03T07:53:42.000Z</time>
</trkpt>
<trkpt lat="45.9638910" lon="10.1442150">
	<ele>1801.20</ele>
	<time>2025-08-03T07:53:43.000Z</time>
</trkpt>
<trkpt lat="45.9638870" lon="10.1442300">
	<ele>1801.40</ele>
	<time>2025-08-03T07:53:44.000Z</time>
</trkpt>
<trkpt lat="45.9638870" lon="10.1442420">
	<ele>1801.40</ele>
	<time>2025-08-03T07:53:45.000Z</time>
</trkpt>
<trkpt lat="45.9638920" lon="10.1442520">
	<ele>1801.60</ele>
	<time>2025-08-03T07:53:46.000Z</time>
</trkpt>
<trkpt lat="45.9638950" lon="10.1442640">
	<ele>1801.60</ele>
	<time>2025-08-03T07:53:47.000Z</time>
</trkpt>
<trkpt lat="45.9638990" lon="10.1442790">
	<ele>1801.80</ele>
	<time>2025-08-03T07:53:48.000Z</time>
</trkpt>
<trkpt lat="45.9639000" lon="10.1442850">
	<ele>1802.00</ele>
	<time>2025-08-03T07:53:49.000Z</time>
</trkpt>
<trkpt lat="45.9639020" lon="10.1442930">
	<ele>1802.20</ele>
	<time>2025-08-03T07:53:50.000Z</time>
</trkpt>
<trkpt lat="45.9639070" lon="10.1443050">
	<ele>1802.40</ele>
	<time>2025-08-03T07:53:51.000Z</time>
</trkpt>
<trkpt lat="45.9639100" lon="10.1443130">
	<ele>1802.40</ele>
	<time>2025-08-03T07:53:52.000Z</time>
</trkpt>
<trkpt lat="45.9639150" lon="10.1443320">
	<ele>1802.40</ele>
	<time>2025-08-03T07:53:53.000Z</time>
</trkpt>
<trkpt lat="45.9639220" lon="10.1443520">
	<ele>1802.60</ele>
	<time>2025-08-03T07:53:54.000Z</time>
</trkpt>
<trkpt lat="45.9639320" lon="10.1443620">
	<ele>1802.80</ele>
	<time>2025-08-03T07:53:55.000Z</time>
</trkpt>
<trkpt lat="45.9639380" lon="10.1443720">
	<ele>1803.00</ele>
	<time>2025-08-03T07:53:56.000Z</time>
</trkpt>
<trkpt lat="45.9639360" lon="10.1443820">
	<ele>1803.20</ele>
	<time>2025-08-03T07:53:57.000Z</time>
</trkpt>
<trkpt lat="45.9639410" lon="10.1443990">
	<ele>1803.20</ele>
	<time>2025-08-03T07:53:58.000Z</time>
</trkpt>
<trkpt lat="45.9639440" lon="10.1444170">
	<ele>1803.40</ele>
	<time>2025-08-03T07:53:59.000Z</time>
</trkpt>
<trkpt lat="45.9639490" lon="10.1444390">
	<ele>1803.40</ele>
	<time>2025-08-03T07:54:00.000Z</time>
</trkpt>
<trkpt lat="45.9639540" lon="10.1444510">
	<ele>1803.60</ele>
	<time>2025-08-03T07:54:01.000Z</time>
</trkpt>
<trkpt lat="45.9639600" lon="10.1444590">
	<ele>1803.80</ele>
	<time>2025-08-03T07:54:02.000Z</time>
</trkpt>
<trkpt lat="45.9639630" lon="10.1444740">
	<ele>1803.80</ele>
	<time>2025-08-03T07:54:03.000Z</time>
</trkpt>
<trkpt lat="45.9639680" lon="10.1444890">
	<ele>1803.80</ele>
	<time>2025-08-03T07:54:04.000Z</time>
</trkpt>
<trkpt lat="45.9639670" lon="10.1445040">
	<ele>1804.00</ele>
	<time>2025-08-03T07:54:05.000Z</time>
</trkpt>
<trkpt lat="45.9639690" lon="10.1445230">
	<ele>1804.20</ele>
	<time>2025-08-03T07:54:06.000Z</time>
</trkpt>
<trkpt lat="45.9639720" lon="10.1445420">
	<ele>1804.40</ele>
	<time>2025-08-03T07:54:07.000Z</time>
</trkpt>
<trkpt lat="45.9639760" lon="10.1445520">
	<ele>1804.60</ele>
	<time>2025-08-03T07:54:08.000Z</time>
</trkpt>
<trkpt lat="45.9639740" lon="10.1445610">
	<ele>1804.80</ele>
	<time>2025-08-03T07:54:09.000Z</time>
</trkpt>
<trkpt lat="45.9639760" lon="10.1445760">
	<ele>1805.00</ele>
	<time>2025-08-03T07:54:10.000Z</time>
</trkpt>
<trkpt lat="45.9639830" lon="10.1445930">
	<ele>1805.00</ele>
	<time>2025-08-03T07:54:11.000Z</time>
</trkpt>
<trkpt lat="45.9639860" lon="10.1446030">
	<ele>1805.00</ele>
	<time>2025-08-03T07:54:12.000Z</time>
</trkpt>
<trkpt lat="45.9639890" lon="10.1446140">
	<ele>1805.20</ele>
	<time>2025-08-03T07:54:13.000Z</time>
</trkpt>
<trkpt lat="45.9639890" lon="10.1446290">
	<ele>1805.20</ele>
	<time>2025-08-03T07:54:14.000Z</time>
</trkpt>
<trkpt lat="45.9639910" lon="10.1446460">
	<ele>1805.20</ele>
	<time>2025-08-03T07:54:15.000Z</time>
</trkpt>
<trkpt lat="45.9639940" lon="10.1446580">
	<ele>1805.40</ele>
	<time>2025-08-03T07:54:16.000Z</time>
</trkpt>
<trkpt lat="45.9639990" lon="10.1446700">
	<ele>1805.60</ele>
	<time>2025-08-03T07:54:17.000Z</time>
</trkpt>
<trkpt lat="45.9640060" lon="10.1446810">
	<ele>1805.60</ele>
	<time>2025-08-03T07:54:18.000Z</time>
</trkpt>
<trkpt lat="45.9640090" lon="10.1447000">
	<ele>1805.80</ele>
	<time>2025-08-03T07:54:19.000Z</time>
</trkpt>
<trkpt lat="45.9640110" lon="10.1447190">
	<ele>1806.00</ele>
	<time>2025-08-03T07:54:20.000Z</time>
</trkpt>
<trkpt lat="45.9640160" lon="10.1447360">
	<ele>1806.20</ele>
	<time>2025-08-03T07:54:21.000Z</time>
</trkpt>
<trkpt lat="45.9640200" lon="10.1447520">
	<ele>1806.40</ele>
	<time>2025-08-03T07:54:22.000Z</time>
</trkpt>
<trkpt lat="45.9640240" lon="10.1447620">
	<ele>1806.60</ele>
	<time>2025-08-03T07:54:23.000Z</time>
</trkpt>
<trkpt lat="45.9640280" lon="10.1447740">
	<ele>1806.60</ele>
	<time>2025-08-03T07:54:24.000Z</time>
</trkpt>
<trkpt lat="45.9640360" lon="10.1447830">
	<ele>1806.80</ele>
	<time>2025-08-03T07:54:25.000Z</time>
</trkpt>
<trkpt lat="45.9640410" lon="10.1447950">
	<ele>1807.00</ele>
	<time>2025-08-03T07:54:26.000Z</time>
</trkpt>
<trkpt lat="45.9640420" lon="10.1448080">
	<ele>1807.20</ele>
	<time>2025-08-03T07:54:27.000Z</time>
</trkpt>
<trkpt lat="45.9640470" lon="10.1448210">
	<ele>1807.60</ele>
	<time>2025-08-03T07:54:28.000Z</time>
</trkpt>
<trkpt lat="45.9640480" lon="10.1448370">
	<ele>1807.80</ele>
	<time>2025-08-03T07:54:29.000Z</time>
</trkpt>
<trkpt lat="45.9640510" lon="10.1448490">
	<ele>1808.00</ele>
	<time>2025-08-03T07:54:30.000Z</time>
</trkpt>
<trkpt lat="45.9640520" lon="10.1448580">
	<ele>1808.20</ele>
	<time>2025-08-03T07:54:31.000Z</time>
</trkpt>
<trkpt lat="45.9640520" lon="10.1448690">
	<ele>1808.40</ele>
	<time>2025-08-03T07:54:32.000Z</time>
</trkpt>
<trkpt lat="45.9640570" lon="10.1448830">
	<ele>1808.40</ele>
	<time>2025-08-03T07:54:33.000Z</time>
</trkpt>
<trkpt lat="45.9640600" lon="10.1448960">
	<ele>1808.60</ele>
	<time>2025-08-03T07:54:34.000Z</time>
</trkpt>
<trkpt lat="45.9640640" lon="10.1449120">
	<ele>1808.80</ele>
	<time>2025-08-03T07:54:35.000Z</time>
</trkpt>
<trkpt lat="45.9640710" lon="10.1449240">
	<ele>1808.80</ele>
	<time>2025-08-03T07:54:36.000Z</time>
</trkpt>
<trkpt lat="45.9640740" lon="10.1449350">
	<ele>1809.00</ele>
	<time>2025-08-03T07:54:37.000Z</time>
</trkpt>
<trkpt lat="45.9640790" lon="10.1449470">
	<ele>1809.20</ele>
	<time>2025-08-03T07:54:38.000Z</time>
</trkpt>
<trkpt lat="45.9640820" lon="10.1449590">
	<ele>1809.40</ele>
	<time>2025-08-03T07:54:39.000Z</time>
</trkpt>
<trkpt lat="45.9640850" lon="10.1449720">
	<ele>1809.60</ele>
	<time>2025-08-03T07:54:40.000Z</time>
</trkpt>
<trkpt lat="45.9640880" lon="10.1449860">
	<ele>1809.60</ele>
	<time>2025-08-03T07:54:41.000Z</time>
</trkpt>
<trkpt lat="45.9640920" lon="10.1449950">
	<ele>1809.80</ele>
	<time>2025-08-03T07:54:42.000Z</time>
</trkpt>
<trkpt lat="45.9640970" lon="10.1450060">
	<ele>1809.80</ele>
	<time>2025-08-03T07:54:43.000Z</time>
</trkpt>
<trkpt lat="45.9641010" lon="10.1450140">
	<ele>1810.20</ele>
	<time>2025-08-03T07:54:44.000Z</time>
</trkpt>
<trkpt lat="45.9641040" lon="10.1450230">
	<ele>1810.40</ele>
	<time>2025-08-03T07:54:45.000Z</time>
</trkpt>
<trkpt lat="45.9641060" lon="10.1450340">
	<ele>1810.40</ele>
	<time>2025-08-03T07:54:46.000Z</time>
</trkpt>
<trkpt lat="45.9641070" lon="10.1450490">
	<ele>1810.60</ele>
	<time>2025-08-03T07:54:47.000Z</time>
</trkpt>
<trkpt lat="45.9641030" lon="10.1450610">
	<ele>1810.80</ele>
	<time>2025-08-03T07:54:48.000Z</time>
</trkpt>
<trkpt lat="45.9641000" lon="10.1450640">
	<ele>1810.80</ele>
	<time>2025-08-03T07:54:49.000Z</time>
</trkpt>
<trkpt lat="45.9641000" lon="10.1450650">
	<ele>1810.80</ele>
	<time>2025-08-03T07:54:50.000Z</time>
</trkpt>
<trkpt lat="45.9641000" lon="10.1450660">
	<ele>1810.80</ele>
	<time>2025-08-03T07:54:51.000Z</time>
</trkpt>
<trkpt lat="45.9641020" lon="10.1450660">
	<ele>1810.80</ele>
	<time>2025-08-03T07:54:52.000Z</time>
</trkpt>
<trkpt lat="45.9641030" lon="10.1450680">
	<ele>1810.80</ele>
	<time>2025-08-03T07:54:53.000Z</time>
</trkpt>
<trkpt lat="45.9641030" lon="10.1450730">
	<ele>1810.80</ele>
	<time>2025-08-03T07:54:54.000Z</time>
</trkpt>
<trkpt lat="45.9641000" lon="10.1450840">
	<ele>1810.60</ele>
	<time>2025-08-03T07:54:55.000Z</time>
</trkpt>
<trkpt lat="45.9641010" lon="10.1450950">
	<ele>1810.40</ele>
	<time>2025-08-03T07:54:56.000Z</time>
</trkpt>
<trkpt lat="45.9641010" lon="10.1451130">
	<ele>1810.40</ele>
	<time>2025-08-03T07:54:57.000Z</time>
</trkpt>
<trkpt lat="45.9640990" lon="10.1451330">
	<ele>1810.20</ele>
	<time>2025-08-03T07:54:58.000Z</time>
</trkpt>
<trkpt lat="45.9641000" lon="10.1451530">
	<ele>1810.20</ele>
	<time>2025-08-03T07:54:59.000Z</time>
</trkpt>
<trkpt lat="45.9641010" lon="10.1451730">
	<ele>1810.00</ele>
	<time>2025-08-03T07:55:00.000Z</time>
</trkpt>
<trkpt lat="45.9641040" lon="10.1451920">
	<ele>1810.00</ele>
	<time>2025-08-03T07:55:01.000Z</time>
</trkpt>
<trkpt lat="45.9641040" lon="10.1452120">
	<ele>1810.00</ele>
	<time>2025-08-03T07:55:02.000Z</time>
</trkpt>
<trkpt lat="45.9641050" lon="10.1452350">
	<ele>1809.80</ele>
	<time>2025-08-03T07:55:03.000Z</time>
</trkpt>
<trkpt lat="45.9641060" lon="10.1452540">
	<ele>1809.60</ele>
	<time>2025-08-03T07:55:04.000Z</time>
</trkpt>
<trkpt lat="45.9641060" lon="10.1452750">
	<ele>1809.60</ele>
	<time>2025-08-03T07:55:05.000Z</time>
</trkpt>
<trkpt lat="45.9641070" lon="10.1452950">
	<ele>1809.40</ele>
	<time>2025-08-03T07:55:06.000Z</time>
</trkpt>
<trkpt lat="45.9641090" lon="10.1453100">
	<ele>1809.40</ele>
	<time>2025-08-03T07:55:07.000Z</time>
</trkpt>
<trkpt lat="45.9641110" lon="10.1453180">
	<ele>1809.40</ele>
	<time>2025-08-03T07:55:08.000Z</time>
</trkpt>
<trkpt lat="45.9641120" lon="10.1453220">
	<ele>1809.40</ele>
	<time>2025-08-03T07:55:09.000Z</time>
</trkpt>
<trkpt lat="45.9641130" lon="10.1453230">
	<ele>1809.60</ele>
	<time>2025-08-03T07:55:10.000Z</time>
</trkpt>
<trkpt lat="45.9641130" lon="10.1453250">
	<ele>1809.60</ele>
	<time>2025-08-03T07:55:11.000Z</time>
</trkpt>
<trkpt lat="45.9641120" lon="10.1453390">
	<ele>1809.80</ele>
	<time>2025-08-03T07:55:12.000Z</time>
</trkpt>
<trkpt lat="45.9641080" lon="10.1453550">
	<ele>1809.80</ele>
	<time>2025-08-03T07:55:13.000Z</time>
</trkpt>
<trkpt lat="45.9641060" lon="10.1453720">
	<ele>1809.60</ele>
	<time>2025-08-03T07:55:14.000Z</time>
</trkpt>
<trkpt lat="45.9641070" lon="10.1453880">
	<ele>1809.40</ele>
	<time>2025-08-03T07:55:15.000Z</time>
</trkpt>
<trkpt lat="45.9641080" lon="10.1454060">
	<ele>1809.40</ele>
	<time>2025-08-03T07:55:16.000Z</time>
</trkpt>
<trkpt lat="45.9641090" lon="10.1454270">
	<ele>1809.20</ele>
	<time>2025-08-03T07:55:17.000Z</time>
</trkpt>
<trkpt lat="45.9641090" lon="10.1454460">
	<ele>1809.20</ele>
	<time>2025-08-03T07:55:18.000Z</time>
</trkpt>
<trkpt lat="45.9641130" lon="10.1454600">
	<ele>1809.20</ele>
	<time>2025-08-03T07:55:19.000Z</time>
</trkpt>
<trkpt lat="45.9641180" lon="10.1454760">
	<ele>1809.20</ele>
	<time>2025-08-03T07:55:20.000Z</time>
</trkpt>
<trkpt lat="45.9641220" lon="10.1454940">
	<ele>1809.20</ele>
	<time>2025-08-03T07:55:21.000Z</time>
</trkpt>
<trkpt lat="45.9641250" lon="10.1455140">
	<ele>1809.00</ele>
	<time>2025-08-03T07:55:22.000Z</time>
</trkpt>
<trkpt lat="45.9641240" lon="10.1455320">
	<ele>1809.00</ele>
	<time>2025-08-03T07:55:23.000Z</time>
</trkpt>
<trkpt lat="45.9641250" lon="10.1455550">
	<ele>1808.80</ele>
	<time>2025-08-03T07:55:24.000Z</time>
</trkpt>
<trkpt lat="45.9641240" lon="10.1455760">
	<ele>1808.80</ele>
	<time>2025-08-03T07:55:25.000Z</time>
</trkpt>
<trkpt lat="45.9641230" lon="10.1456040">
	<ele>1808.80</ele>
	<time>2025-08-03T07:55:26.000Z</time>
</trkpt>
<trkpt lat="45.9641230" lon="10.1456250">
	<ele>1808.80</ele>
	<time>2025-08-03T07:55:27.000Z</time>
</trkpt>
<trkpt lat="45.9641220" lon="10.1456460">
	<ele>1808.60</ele>
	<time>2025-08-03T07:55:28.000Z</time>
</trkpt>
<trkpt lat="45.9641210" lon="10.1456630">
	<ele>1808.60</ele>
	<time>2025-08-03T07:55:29.000Z</time>
</trkpt>
<trkpt lat="45.9641210" lon="10.1456820">
	<ele>1808.40</ele>
	<time>2025-08-03T07:55:30.000Z</time>
</trkpt>
<trkpt lat="45.9641240" lon="10.1457020">
	<ele>1808.40</ele>
	<time>2025-08-03T07:55:31.000Z</time>
</trkpt>
<trkpt lat="45.9641280" lon="10.1457190">
	<ele>1808.40</ele>
	<time>2025-08-03T07:55:32.000Z</time>
</trkpt>
<trkpt lat="45.9641280" lon="10.1457320">
	<ele>1808.20</ele>
	<time>2025-08-03T07:55:33.000Z</time>
</trkpt>
<trkpt lat="45.9641220" lon="10.1457450">
	<ele>1808.20</ele>
	<time>2025-08-03T07:55:34.000Z</time>
</trkpt>
<trkpt lat="45.9641210" lon="10.1457650">
	<ele>1808.20</ele>
	<time>2025-08-03T07:55:35.000Z</time>
</trkpt>
<trkpt lat="45.9641230" lon="10.1457860">
	<ele>1808.20</ele>
	<time>2025-08-03T07:55:36.000Z</time>
</trkpt>
<trkpt lat="45.9641300" lon="10.1458060">
	<ele>1808.00</ele>
	<time>2025-08-03T07:55:37.000Z</time>
</trkpt>
<trkpt lat="45.9641340" lon="10.1458260">
	<ele>1808.00</ele>
	<time>2025-08-03T07:55:38.000Z</time>
</trkpt>
<trkpt lat="45.9641360" lon="10.1458500">
	<ele>1808.00</ele>
	<time>2025-08-03T07:55:39.000Z</time>
</trkpt>
<trkpt lat="45.9641350" lon="10.1458690">
	<ele>1808.00</ele>
	<time>2025-08-03T07:55:40.000Z</time>
</trkpt>
<trkpt lat="45.9641360" lon="10.1458890">
	<ele>1808.00</ele>
	<time>2025-08-03T07:55:41.000Z</time>
</trkpt>
<trkpt lat="45.9641370" lon="10.1459110">
	<ele>1808.00</ele>
	<time>2025-08-03T07:55:42.000Z</time>
</trkpt>
<trkpt lat="45.9641380" lon="10.1459310">
	<ele>1807.80</ele>
	<time>2025-08-03T07:55:43.000Z</time>
</trkpt>
<trkpt lat="45.9641400" lon="10.1459520">
	<ele>1807.80</ele>
	<time>2025-08-03T07:55:44.000Z</time>
</trkpt>
<trkpt lat="45.9641400" lon="10.1459690">
	<ele>1807.80</ele>
	<time>2025-08-03T07:55:45.000Z</time>
</trkpt>
<trkpt lat="45.9641400" lon="10.1459880">
	<ele>1807.60</ele>
	<time>2025-08-03T07:55:46.000Z</time>
</trkpt>
<trkpt lat="45.9641390" lon="10.1460090">
	<ele>1807.60</ele>
	<time>2025-08-03T07:55:47.000Z</time>
</trkpt>
<trkpt lat="45.9641380" lon="10.1460270">
	<ele>1807.60</ele>
	<time>2025-08-03T07:55:48.000Z</time>
</trkpt>
<trkpt lat="45.9641420" lon="10.1460400">
	<ele>1807.60</ele>
	<time>2025-08-03T07:55:49.000Z</time>
</trkpt>
<trkpt lat="45.9641440" lon="10.1460580">
	<ele>1807.60</ele>
	<time>2025-08-03T07:55:50.000Z</time>
</trkpt>
<trkpt lat="45.9641450" lon="10.1460790">
	<ele>1807.60</ele>
	<time>2025-08-03T07:55:51.000Z</time>
</trkpt>
<trkpt lat="45.9641460" lon="10.1460970">
	<ele>1807.60</ele>
	<time>2025-08-03T07:55:52.000Z</time>
</trkpt>
<trkpt lat="45.9641480" lon="10.1461220">
	<ele>1807.60</ele>
	<time>2025-08-03T07:55:53.000Z</time>
</trkpt>
<trkpt lat="45.9641460" lon="10.1461430">
	<ele>1807.60</ele>
	<time>2025-08-03T07:55:54.000Z</time>
</trkpt>
<trkpt lat="45.9641470" lon="10.1461590">
	<ele>1807.80</ele>
	<time>2025-08-03T07:55:55.000Z</time>
</trkpt>
<trkpt lat="45.9641480" lon="10.1461750">
	<ele>1807.80</ele>
	<time>2025-08-03T07:55:56.000Z</time>
</trkpt>
<trkpt lat="45.9641490" lon="10.1461860">
	<ele>1808.00</ele>
	<time>2025-08-03T07:55:57.000Z</time>
</trkpt>
<trkpt lat="45.9641510" lon="10.1462020">
	<ele>1808.20</ele>
	<time>2025-08-03T07:55:58.000Z</time>
</trkpt>
<trkpt lat="45.9641520" lon="10.1462150">
	<ele>1808.20</ele>
	<time>2025-08-03T07:55:59.000Z</time>
</trkpt>
<trkpt lat="45.9641560" lon="10.1462270">
	<ele>1808.40</ele>
	<time>2025-08-03T07:56:00.000Z</time>
</trkpt>
<trkpt lat="45.9641590" lon="10.1462450">
	<ele>1808.60</ele>
	<time>2025-08-03T07:56:01.000Z</time>
</trkpt>
<trkpt lat="45.9641610" lon="10.1462630">
	<ele>1808.80</ele>
	<time>2025-08-03T07:56:02.000Z</time>
</trkpt>
<trkpt lat="45.9641640" lon="10.1462810">
	<ele>1808.80</ele>
	<time>2025-08-03T07:56:03.000Z</time>
</trkpt>
<trkpt lat="45.9641660" lon="10.1463010">
	<ele>1808.80</ele>
	<time>2025-08-03T07:56:04.000Z</time>
</trkpt>
<trkpt lat="45.9641660" lon="10.1463200">
	<ele>1808.80</ele>
	<time>2025-08-03T07:56:05.000Z</time>
</trkpt>
<trkpt lat="45.9641660" lon="10.1463370">
	<ele>1808.80</ele>
	<time>2025-08-03T07:56:06.000Z</time>
</trkpt>
<trkpt lat="45.9641670" lon="10.1463570">
	<ele>1809.00</ele>
	<time>2025-08-03T07:56:07.000Z</time>
</trkpt>
<trkpt lat="45.9641700" lon="10.1463760">
	<ele>1809.00</ele>
	<time>2025-08-03T07:56:08.000Z</time>
</trkpt>
<trkpt lat="45.9641720" lon="10.1463940">
	<ele>1809.20</ele>
	<time>2025-08-03T07:56:09.000Z</time>
</trkpt>
<trkpt lat="45.9641760" lon="10.1464140">
	<ele>1809.20</ele>
	<time>2025-08-03T07:56:10.000Z</time>
</trkpt>
<trkpt lat="45.9641760" lon="10.1464350">
	<ele>1809.20</ele>
	<time>2025-08-03T07:56:11.000Z</time>
</trkpt>
<trkpt lat="45.9641790" lon="10.1464510">
	<ele>1809.20</ele>
	<time>2025-08-03T07:56:12.000Z</time>
</trkpt>
<trkpt lat="45.9641830" lon="10.1464660">
	<ele>1809.20</ele>
	<time>2025-08-03T07:56:13.000Z</time>
</trkpt>
<trkpt lat="45.9641860" lon="10.1464840">
	<ele>1809.20</ele>
	<time>2025-08-03T07:56:14.000Z</time>
</trkpt>
<trkpt lat="45.9641880" lon="10.1465020">
	<ele>1809.20</ele>
	<time>2025-08-03T07:56:15.000Z</time>
</trkpt>
<trkpt lat="45.9641890" lon="10.1465200">
	<ele>1809.40</ele>
	<time>2025-08-03T07:56:16.000Z</time>
</trkpt>
<trkpt lat="45.9641910" lon="10.1465400">
	<ele>1809.40</ele>
	<time>2025-08-03T07:56:17.000Z</time>
</trkpt>
<trkpt lat="45.9641920" lon="10.1465600">
	<ele>1809.40</ele>
	<time>2025-08-03T07:56:18.000Z</time>
</trkpt>
<trkpt lat="45.9641940" lon="10.1465790">
	<ele>1809.40</ele>
	<time>2025-08-03T07:56:19.000Z</time>
</trkpt>
<trkpt lat="45.9641950" lon="10.1465980">
	<ele>1809.40</ele>
	<time>2025-08-03T07:56:20.000Z</time>
</trkpt>
<trkpt lat="45.9641950" lon="10.1466160">
	<ele>1809.60</ele>
	<time>2025-08-03T07:56:21.000Z</time>
</trkpt>
<trkpt lat="45.9641960" lon="10.1466350">
	<ele>1809.60</ele>
	<time>2025-08-03T07:56:22.000Z</time>
</trkpt>
<trkpt lat="45.9641980" lon="10.1466560">
	<ele>1809.60</ele>
	<time>2025-08-03T07:56:23.000Z</time>
</trkpt>
<trkpt lat="45.9642000" lon="10.1466740">
	<ele>1809.80</ele>
	<time>2025-08-03T07:56:24.000Z</time>
</trkpt>
<trkpt lat="45.9642020" lon="10.1466920">
	<ele>1809.80</ele>
	<time>2025-08-03T07:56:25.000Z</time>
</trkpt>
<trkpt lat="45.9642030" lon="10.1467100">
	<ele>1809.80</ele>
	<time>2025-08-03T07:56:26.000Z</time>
</trkpt>
<trkpt lat="45.9642060" lon="10.1467260">
	<ele>1809.80</ele>
	<time>2025-08-03T07:56:27.000Z</time>
</trkpt>
<trkpt lat="45.9642060" lon="10.1467450">
	<ele>1810.00</ele>
	<time>2025-08-03T07:56:28.000Z</time>
</trkpt>
<trkpt lat="45.9642080" lon="10.1467640">
	<ele>1810.00</ele>
	<time>2025-08-03T07:56:29.000Z</time>
</trkpt>
<trkpt lat="45.9642080" lon="10.1467810">
	<ele>1810.20</ele>
	<time>2025-08-03T07:56:30.000Z</time>
</trkpt>
<trkpt lat="45.9642080" lon="10.1467970">
	<ele>1810.40</ele>
	<time>2025-08-03T07:56:31.000Z</time>
</trkpt>
<trkpt lat="45.9642110" lon="10.1468140">
	<ele>1810.40</ele>
	<time>2025-08-03T07:56:32.000Z</time>
</trkpt>
<trkpt lat="45.9642140" lon="10.1468320">
	<ele>1810.60</ele>
	<time>2025-08-03T07:56:33.000Z</time>
</trkpt>
<trkpt lat="45.9642160" lon="10.1468480">
	<ele>1810.60</ele>
	<time>2025-08-03T07:56:34.000Z</time>
</trkpt>
<trkpt lat="45.9642180" lon="10.1468660">
	<ele>1810.80</ele>
	<time>2025-08-03T07:56:35.000Z</time>
</trkpt>
<trkpt lat="45.9642170" lon="10.1468850">
	<ele>1811.00</ele>
	<time>2025-08-03T07:56:36.000Z</time>
</trkpt>
<trkpt lat="45.9642180" lon="10.1469050">
	<ele>1811.20</ele>
	<time>2025-08-03T07:56:37.000Z</time>
</trkpt>
<trkpt lat="45.9642190" lon="10.1469260">
	<ele>1811.20</ele>
	<time>2025-08-03T07:56:38.000Z</time>
</trkpt>
<trkpt lat="45.9642190" lon="10.1469420">
	<ele>1811.40</ele>
	<time>2025-08-03T07:56:39.000Z</time>
</trkpt>
<trkpt lat="45.9642210" lon="10.1469600">
	<ele>1811.60</ele>
	<time>2025-08-03T07:56:40.000Z</time>
</trkpt>
<trkpt lat="45.9642240" lon="10.1469740">
	<ele>1811.60</ele>
	<time>2025-08-03T07:56:41.000Z</time>
</trkpt>
<trkpt lat="45.9642260" lon="10.1469900">
	<ele>1811.60</ele>
	<time>2025-08-03T07:56:42.000Z</time>
</trkpt>
<trkpt lat="45.9642290" lon="10.1470050">
	<ele>1811.60</ele>
	<time>2025-08-03T07:56:43.000Z</time>
</trkpt>
<trkpt lat="45.9642330" lon="10.1470260">
	<ele>1811.60</ele>
	<time>2025-08-03T07:56:44.000Z</time>
</trkpt>
<trkpt lat="45.9642360" lon="10.1470450">
	<ele>1811.80</ele>
	<time>2025-08-03T07:56:45.000Z</time>
</trkpt>
<trkpt lat="45.9642350" lon="10.1470590">
	<ele>1811.80</ele>
	<time>2025-08-03T07:56:46.000Z</time>
</trkpt>
<trkpt lat="45.9642340" lon="10.1470800">
	<ele>1811.80</ele>
	<time>2025-08-03T07:56:47.000Z</time>
</trkpt>
<trkpt lat="45.9642350" lon="10.1470990">
	<ele>1811.80</ele>
	<time>2025-08-03T07:56:48.000Z</time>
</trkpt>
<trkpt lat="45.9642370" lon="10.1471170">
	<ele>1811.80</ele>
	<time>2025-08-03T07:56:49.000Z</time>
</trkpt>
<trkpt lat="45.9642410" lon="10.1471340">
	<ele>1811.80</ele>
	<time>2025-08-03T07:56:50.000Z</time>
</trkpt>
<trkpt lat="45.9642430" lon="10.1471540">
	<ele>1811.80</ele>
	<time>2025-08-03T07:56:51.000Z</time>
</trkpt>
<trkpt lat="45.9642480" lon="10.1471700">
	<ele>1811.80</ele>
	<time>2025-08-03T07:56:52.000Z</time>
</trkpt>
<trkpt lat="45.9642500" lon="10.1471890">
	<ele>1811.80</ele>
	<time>2025-08-03T07:56:53.000Z</time>
</trkpt>
<trkpt lat="45.9642510" lon="10.1472090">
	<ele>1811.80</ele>
	<time>2025-08-03T07:56:54.000Z</time>
</trkpt>
<trkpt lat="45.9642520" lon="10.1472310">
	<ele>1811.80</ele>
	<time>2025-08-03T07:56:55.000Z</time>
</trkpt>
<trkpt lat="45.9642530" lon="10.1472500">
	<ele>1811.80</ele>
	<time>2025-08-03T07:56:56.000Z</time>
</trkpt>
<trkpt lat="45.9642540" lon="10.1472680">
	<ele>1812.20</ele>
	<time>2025-08-03T07:56:57.000Z</time>
</trkpt>
<trkpt lat="45.9642570" lon="10.1472860">
	<ele>1812.40</ele>
	<time>2025-08-03T07:56:58.000Z</time>
</trkpt>
<trkpt lat="45.9642600" lon="10.1473050">
	<ele>1812.60</ele>
	<time>2025-08-03T07:56:59.000Z</time>
</trkpt>
<trkpt lat="45.9642590" lon="10.1473240">
	<ele>1812.80</ele>
	<time>2025-08-03T07:57:00.000Z</time>
</trkpt>
<trkpt lat="45.9642550" lon="10.1473420">
	<ele>1812.80</ele>
	<time>2025-08-03T07:57:01.000Z</time>
</trkpt>
<trkpt lat="45.9642570" lon="10.1473630">
	<ele>1813.00</ele>
	<time>2025-08-03T07:57:02.000Z</time>
</trkpt>
<trkpt lat="45.9642600" lon="10.1473850">
	<ele>1813.00</ele>
	<time>2025-08-03T07:57:03.000Z</time>
</trkpt>
<trkpt lat="45.9642640" lon="10.1474030">
	<ele>1813.00</ele>
	<time>2025-08-03T07:57:04.000Z</time>
</trkpt>
<trkpt lat="45.9642680" lon="10.1474200">
	<ele>1813.00</ele>
	<time>2025-08-03T07:57:05.000Z</time>
</trkpt>
<trkpt lat="45.9642720" lon="10.1474340">
	<ele>1813.00</ele>
	<time>2025-08-03T07:57:06.000Z</time>
</trkpt>
<trkpt lat="45.9642750" lon="10.1474490">
	<ele>1813.20</ele>
	<time>2025-08-03T07:57:07.000Z</time>
</trkpt>
<trkpt lat="45.9642770" lon="10.1474640">
	<ele>1813.20</ele>
	<time>2025-08-03T07:57:08.000Z</time>
</trkpt>
<trkpt lat="45.9642830" lon="10.1474780">
	<ele>1813.40</ele>
	<time>2025-08-03T07:57:09.000Z</time>
</trkpt>
<trkpt lat="45.9642890" lon="10.1474950">
	<ele>1813.40</ele>
	<time>2025-08-03T07:57:10.000Z</time>
</trkpt>
<trkpt lat="45.9642910" lon="10.1475070">
	<ele>1813.60</ele>
	<time>2025-08-03T07:57:11.000Z</time>
</trkpt>
<trkpt lat="45.9642960" lon="10.1475180">
	<ele>1814.00</ele>
	<time>2025-08-03T07:57:12.000Z</time>
</trkpt>
<trkpt lat="45.9643000" lon="10.1475290">
	<ele>1814.00</ele>
	<time>2025-08-03T07:57:13.000Z</time>
</trkpt>
<trkpt lat="45.9643020" lon="10.1475420">
	<ele>1814.40</ele>
	<time>2025-08-03T07:57:14.000Z</time>
</trkpt>
<trkpt lat="45.9643020" lon="10.1475570">
	<ele>1814.40</ele>
	<time>2025-08-03T07:57:15.000Z</time>
</trkpt>
<trkpt lat="45.9643040" lon="10.1475700">
	<ele>1814.60</ele>
	<time>2025-08-03T07:57:16.000Z</time>
</trkpt>
<trkpt lat="45.9643080" lon="10.1475790">
	<ele>1814.80</ele>
	<time>2025-08-03T07:57:17.000Z</time>
</trkpt>
<trkpt lat="45.9643090" lon="10.1475920">
	<ele>1815.00</ele>
	<time>2025-08-03T07:57:18.000Z</time>
</trkpt>
<trkpt lat="45.9643120" lon="10.1475990">
	<ele>1815.20</ele>
	<time>2025-08-03T07:57:19.000Z</time>
</trkpt>
<trkpt lat="45.9643150" lon="10.1476140">
	<ele>1815.40</ele>
	<time>2025-08-03T07:57:20.000Z</time>
</trkpt>
<trkpt lat="45.9643170" lon="10.1476300">
	<ele>1815.80</ele>
	<time>2025-08-03T07:57:21.000Z</time>
</trkpt>
<trkpt lat="45.9643220" lon="10.1476440">
	<ele>1816.00</ele>
	<time>2025-08-03T07:57:22.000Z</time>
</trkpt>
<trkpt lat="45.9643280" lon="10.1476610">
	<ele>1816.20</ele>
	<time>2025-08-03T07:57:23.000Z</time>
</trkpt>
<trkpt lat="45.9643320" lon="10.1476760">
	<ele>1816.40</ele>
	<time>2025-08-03T07:57:24.000Z</time>
</trkpt>
<trkpt lat="45.9643350" lon="10.1476890">
	<ele>1816.60</ele>
	<time>2025-08-03T07:57:25.000Z</time>
</trkpt>
<trkpt lat="45.9643380" lon="10.1477030">
	<ele>1816.80</ele>
	<time>2025-08-03T07:57:26.000Z</time>
</trkpt>
<trkpt lat="45.9643390" lon="10.1477140">
	<ele>1817.00</ele>
	<time>2025-08-03T07:57:27.000Z</time>
</trkpt>
<trkpt lat="45.9643410" lon="10.1477210">
	<ele>1817.20</ele>
	<time>2025-08-03T07:57:28.000Z</time>
</trkpt>
<trkpt lat="45.9643430" lon="10.1477320">
	<ele>1817.40</ele>
	<time>2025-08-03T07:57:29.000Z</time>
</trkpt>
<trkpt lat="45.9643480" lon="10.1477500">
	<ele>1817.40</ele>
	<time>2025-08-03T07:57:30.000Z</time>
</trkpt>
<trkpt lat="45.9643540" lon="10.1477650">
	<ele>1817.60</ele>
	<time>2025-08-03T07:57:31.000Z</time>
</trkpt>
<trkpt lat="45.9643560" lon="10.1477790">
	<ele>1817.60</ele>
	<time>2025-08-03T07:57:32.000Z</time>
</trkpt>
<trkpt lat="45.9643590" lon="10.1477960">
	<ele>1817.80</ele>
	<time>2025-08-03T07:57:33.000Z</time>
</trkpt>
<trkpt lat="45.9643660" lon="10.1478130">
	<ele>1817.80</ele>
	<time>2025-08-03T07:57:34.000Z</time>
</trkpt>
<trkpt lat="45.9643730" lon="10.1478270">
	<ele>1818.00</ele>
	<time>2025-08-03T07:57:35.000Z</time>
</trkpt>
<trkpt lat="45.9643790" lon="10.1478410">
	<ele>1818.20</ele>
	<time>2025-08-03T07:57:36.000Z</time>
</trkpt>
<trkpt lat="45.9643830" lon="10.1478540">
	<ele>1818.40</ele>
	<time>2025-08-03T07:57:37.000Z</time>
</trkpt>
<trkpt lat="45.9643910" lon="10.1478640">
	<ele>1818.40</ele>
	<time>2025-08-03T07:57:38.000Z</time>
</trkpt>
<trkpt lat="45.9643980" lon="10.1478740">
	<ele>1818.40</ele>
	<time>2025-08-03T07:57:39.000Z</time>
</trkpt>
<trkpt lat="45.9644000" lon="10.1478880">
	<ele>1818.60</ele>
	<time>2025-08-03T07:57:40.000Z</time>
</trkpt>
<trkpt lat="45.9643980" lon="10.1479020">
	<ele>1819.00</ele>
	<time>2025-08-03T07:57:41.000Z</time>
</trkpt>
<trkpt lat="45.9644020" lon="10.1479220">
	<ele>1819.20</ele>
	<time>2025-08-03T07:57:42.000Z</time>
</trkpt>
<trkpt lat="45.9644040" lon="10.1479380">
	<ele>1819.20</ele>
	<time>2025-08-03T07:57:43.000Z</time>
</trkpt>
<trkpt lat="45.9644100" lon="10.1479540">
	<ele>1819.20</ele>
	<time>2025-08-03T07:57:44.000Z</time>
</trkpt>
<trkpt lat="45.9644150" lon="10.1479680">
	<ele>1819.40</ele>
	<time>2025-08-03T07:57:45.000Z</time>
</trkpt>
<trkpt lat="45.9644210" lon="10.1479870">
	<ele>1819.40</ele>
	<time>2025-08-03T07:57:46.000Z</time>
</trkpt>
<trkpt lat="45.9644310" lon="10.1480000">
	<ele>1819.40</ele>
	<time>2025-08-03T07:57:47.000Z</time>
</trkpt>
<trkpt lat="45.9644340" lon="10.1480100">
	<ele>1819.40</ele>
	<time>2025-08-03T07:57:48.000Z</time>
</trkpt>
<trkpt lat="45.9644350" lon="10.1480250">
	<ele>1819.40</ele>
	<time>2025-08-03T07:57:49.000Z</time>
</trkpt>
<trkpt lat="45.9644390" lon="10.1480380">
	<ele>1819.40</ele>
	<time>2025-08-03T07:57:50.000Z</time>
</trkpt>
<trkpt lat="45.9644420" lon="10.1480530">
	<ele>1819.60</ele>
	<time>2025-08-03T07:57:51.000Z</time>
</trkpt>
<trkpt lat="45.9644450" lon="10.1480700">
	<ele>1819.80</ele>
	<time>2025-08-03T07:57:52.000Z</time>
</trkpt>
<trkpt lat="45.9644470" lon="10.1480840">
	<ele>1819.60</ele>
	<time>2025-08-03T07:57:53.000Z</time>
</trkpt>
<trkpt lat="45.9644500" lon="10.1481020">
	<ele>1819.60</ele>
	<time>2025-08-03T07:57:54.000Z</time>
</trkpt>
<trkpt lat="45.9644530" lon="10.1481220">
	<ele>1819.40</ele>
	<time>2025-08-03T07:57:55.000Z</time>
</trkpt>
<trkpt lat="45.9644560" lon="10.1481390">
	<ele>1819.40</ele>
	<time>2025-08-03T07:57:56.000Z</time>
</trkpt>
<trkpt lat="45.9644600" lon="10.1481520">
	<ele>1819.40</ele>
	<time>2025-08-03T07:57:57.000Z</time>
</trkpt>
<trkpt lat="45.9644660" lon="10.1481620">
	<ele>1819.40</ele>
	<time>2025-08-03T07:57:58.000Z</time>
</trkpt>
<trkpt lat="45.9644720" lon="10.1481760">
	<ele>1819.40</ele>
	<time>2025-08-03T07:57:59.000Z</time>
</trkpt>
<trkpt lat="45.9644750" lon="10.1481920">
	<ele>1819.60</ele>
	<time>2025-08-03T07:58:00.000Z</time>
</trkpt>
<trkpt lat="45.9644770" lon="10.1482030">
	<ele>1819.60</ele>
	<time>2025-08-03T07:58:01.000Z</time>
</trkpt>
<trkpt lat="45.9644790" lon="10.1482140">
	<ele>1819.80</ele>
	<time>2025-08-03T07:58:02.000Z</time>
</trkpt>
<trkpt lat="45.9644820" lon="10.1482280">
	<ele>1819.80</ele>
	<time>2025-08-03T07:58:03.000Z</time>
</trkpt>
<trkpt lat="45.9644850" lon="10.1482440">
	<ele>1820.00</ele>
	<time>2025-08-03T07:58:04.000Z</time>
</trkpt>
<trkpt lat="45.9644880" lon="10.1482550">
	<ele>1820.40</ele>
	<time>2025-08-03T07:58:05.000Z</time>
</trkpt>
<trkpt lat="45.9644890" lon="10.1482640">
	<ele>1820.60</ele>
	<time>2025-08-03T07:58:06.000Z</time>
</trkpt>
<trkpt lat="45.9644910" lon="10.1482770">
	<ele>1820.80</ele>
	<time>2025-08-03T07:58:07.000Z</time>
</trkpt>
<trkpt lat="45.9644940" lon="10.1482880">
	<ele>1821.00</ele>
	<time>2025-08-03T07:58:08.000Z</time>
</trkpt>
<trkpt lat="45.9644960" lon="10.1482990">
	<ele>1821.20</ele>
	<time>2025-08-03T07:58:09.000Z</time>
</trkpt>
<trkpt lat="45.9645010" lon="10.1483110">
	<ele>1821.40</ele>
	<time>2025-08-03T07:58:10.000Z</time>
</trkpt>
<trkpt lat="45.9645060" lon="10.1483210">
	<ele>1821.60</ele>
	<time>2025-08-03T07:58:11.000Z</time>
</trkpt>
<trkpt lat="45.9645110" lon="10.1483330">
	<ele>1821.80</ele>
	<time>2025-08-03T07:58:12.000Z</time>
</trkpt>
<trkpt lat="45.9645180" lon="10.1483420">
	<ele>1822.00</ele>
	<time>2025-08-03T07:58:13.000Z</time>
</trkpt>
<trkpt lat="45.9645220" lon="10.1483500">
	<ele>1822.40</ele>
	<time>2025-08-03T07:58:14.000Z</time>
</trkpt>
<trkpt lat="45.9645240" lon="10.1483630">
	<ele>1822.40</ele>
	<time>2025-08-03T07:58:15.000Z</time>
</trkpt>
<trkpt lat="45.9645270" lon="10.1483720">
	<ele>1822.60</ele>
	<time>2025-08-03T07:58:16.000Z</time>
</trkpt>
<trkpt lat="45.9645300" lon="10.1483800">
	<ele>1822.80</ele>
	<time>2025-08-03T07:58:17.000Z</time>
</trkpt>
<trkpt lat="45.9645330" lon="10.1483830">
	<ele>1823.00</ele>
	<time>2025-08-03T07:58:18.000Z</time>
</trkpt>
<trkpt lat="45.9645330" lon="10.1483920">
	<ele>1823.20</ele>
	<time>2025-08-03T07:58:19.000Z</time>
</trkpt>
<trkpt lat="45.9645340" lon="10.1484010">
	<ele>1823.40</ele>
	<time>2025-08-03T07:58:20.000Z</time>
</trkpt>
<trkpt lat="45.9645350" lon="10.1484060">
	<ele>1823.60</ele>
	<time>2025-08-03T07:58:21.000Z</time>
</trkpt>
<trkpt lat="45.9645340" lon="10.1484130">
	<ele>1824.00</ele>
	<time>2025-08-03T07:58:22.000Z</time>
</trkpt>
<trkpt lat="45.9645350" lon="10.1484230">
	<ele>1824.20</ele>
	<time>2025-08-03T07:58:23.000Z</time>
</trkpt>
<trkpt lat="45.9645380" lon="10.1484350">
	<ele>1824.60</ele>
	<time>2025-08-03T07:58:24.000Z</time>
</trkpt>
<trkpt lat="45.9645400" lon="10.1484470">
	<ele>1824.80</ele>
	<time>2025-08-03T07:58:25.000Z</time>
</trkpt>
<trkpt lat="45.9645440" lon="10.1484580">
	<ele>1824.80</ele>
	<time>2025-08-03T07:58:26.000Z</time>
</trkpt>
<trkpt lat="45.9645470" lon="10.1484750">
	<ele>1825.00</ele>
	<time>2025-08-03T07:58:27.000Z</time>
</trkpt>
<trkpt lat="45.9645480" lon="10.1484920">
	<ele>1825.00</ele>
	<time>2025-08-03T07:58:28.000Z</time>
</trkpt>
<trkpt lat="45.9645480" lon="10.1485090">
	<ele>1825.00</ele>
	<time>2025-08-03T07:58:29.000Z</time>
</trkpt>
<trkpt lat="45.9645490" lon="10.1485230">
	<ele>1825.20</ele>
	<time>2025-08-03T07:58:30.000Z</time>
</trkpt>
<trkpt lat="45.9645510" lon="10.1485340">
	<ele>1825.20</ele>
	<time>2025-08-03T07:58:31.000Z</time>
</trkpt>
<trkpt lat="45.9645530" lon="10.1485460">
	<ele>1825.20</ele>
	<time>2025-08-03T07:58:32.000Z</time>
</trkpt>
<trkpt lat="45.9645560" lon="10.1485580">
	<ele>1825.40</ele>
	<time>2025-08-03T07:58:33.000Z</time>
</trkpt>
<trkpt lat="45.9645590" lon="10.1485660">
	<ele>1825.60</ele>
	<time>2025-08-03T07:58:34.000Z</time>
</trkpt>
<trkpt lat="45.9645650" lon="10.1485760">
	<ele>1825.80</ele>
	<time>2025-08-03T07:58:35.000Z</time>
</trkpt>
<trkpt lat="45.9645710" lon="10.1485850">
	<ele>1826.20</ele>
	<time>2025-08-03T07:58:36.000Z</time>
</trkpt>
<trkpt lat="45.9645760" lon="10.1485960">
	<ele>1826.40</ele>
	<time>2025-08-03T07:58:37.000Z</time>
</trkpt>
<trkpt lat="45.9645780" lon="10.1486080">
	<ele>1826.60</ele>
	<time>2025-08-03T07:58:38.000Z</time>
</trkpt>
<trkpt lat="45.9645820" lon="10.1486170">
	<ele>1826.80</ele>
	<time>2025-08-03T07:58:39.000Z</time>
</trkpt>
<trkpt lat="45.9645850" lon="10.1486250">
	<ele>1827.00</ele>
	<time>2025-08-03T07:58:40.000Z</time>
</trkpt>
<trkpt lat="45.9645920" lon="10.1486290">
	<ele>1827.20</ele>
	<time>2025-08-03T07:58:41.000Z</time>
</trkpt>
<trkpt lat="45.9645940" lon="10.1486390">
	<ele>1827.20</ele>
	<time>2025-08-03T07:58:42.000Z</time>
</trkpt>
<trkpt lat="45.9645950" lon="10.1486520">
	<ele>1827.60</ele>
	<time>2025-08-03T07:58:43.000Z</time>
</trkpt>
<trkpt lat="45.9645940" lon="10.1486670">
	<ele>1827.80</ele>
	<time>2025-08-03T07:58:44.000Z</time>
</trkpt>
<trkpt lat="45.9645890" lon="10.1486830">
	<ele>1827.80</ele>
	<time>2025-08-03T07:58:45.000Z</time>
</trkpt>
<trkpt lat="45.9645900" lon="10.1486890">
	<ele>1828.00</ele>
	<time>2025-08-03T07:58:46.000Z</time>
</trkpt>
<trkpt lat="45.9645920" lon="10.1486980">
	<ele>1828.20</ele>
	<time>2025-08-03T07:58:47.000Z</time>
</trkpt>
<trkpt lat="45.9645940" lon="10.1487100">
	<ele>1828.40</ele>
	<time>2025-08-03T07:58:48.000Z</time>
</trkpt>
<trkpt lat="45.9645970" lon="10.1487210">
	<ele>1828.60</ele>
	<time>2025-08-03T07:58:49.000Z</time>
</trkpt>
<trkpt lat="45.9646020" lon="10.1487280">
	<ele>1828.80</ele>
	<time>2025-08-03T07:58:50.000Z</time>
</trkpt>
<trkpt lat="45.9646030" lon="10.1487400">
	<ele>1828.80</ele>
	<time>2025-08-03T07:58:51.000Z</time>
</trkpt>
<trkpt lat="45.9646050" lon="10.1487480">
	<ele>1829.00</ele>
	<time>2025-08-03T07:58:52.000Z</time>
</trkpt>
<trkpt lat="45.9646070" lon="10.1487580">
	<ele>1829.20</ele>
	<time>2025-08-03T07:58:53.000Z</time>
</trkpt>
<trkpt lat="45.9646080" lon="10.1487690">
	<ele>1829.40</ele>
	<time>2025-08-03T07:58:54.000Z</time>
</trkpt>
<trkpt lat="45.9646100" lon="10.1487840">
	<ele>1829.40</ele>
	<time>2025-08-03T07:58:55.000Z</time>
</trkpt>
<trkpt lat="45.9646100" lon="10.1487950">
	<ele>1829.60</ele>
	<time>2025-08-03T07:58:56.000Z</time>
</trkpt>
<trkpt lat="45.9646140" lon="10.1488080">
	<ele>1829.80</ele>
	<time>2025-08-03T07:58:57.000Z</time>
</trkpt>
<trkpt lat="45.9646130" lon="10.1488210">
	<ele>1829.80</ele>
	<time>2025-08-03T07:58:58.000Z</time>
</trkpt>
<trkpt lat="45.9646160" lon="10.1488330">
	<ele>1830.00</ele>
	<time>2025-08-03T07:58:59.000Z</time>
</trkpt>
<trkpt lat="45.9646170" lon="10.1488460">
	<ele>1830.00</ele>
	<time>2025-08-03T07:59:00.000Z</time>
</trkpt>
<trkpt lat="45.9646190" lon="10.1488600">
	<ele>1830.20</ele>
	<time>2025-08-03T07:59:01.000Z</time>
</trkpt>
<trkpt lat="45.9646210" lon="10.1488740">
	<ele>1830.20</ele>
	<time>2025-08-03T07:59:02.000Z</time>
</trkpt>
<trkpt lat="45.9646230" lon="10.1488870">
	<ele>1830.40</ele>
	<time>2025-08-03T07:59:03.000Z</time>
</trkpt>
<trkpt lat="45.9646250" lon="10.1489020">
	<ele>1830.40</ele>
	<time>2025-08-03T07:59:04.000Z</time>
</trkpt>
<trkpt lat="45.9646280" lon="10.1489130">
	<ele>1830.60</ele>
	<time>2025-08-03T07:59:05.000Z</time>
</trkpt>
<trkpt lat="45.9646310" lon="10.1489240">
	<ele>1830.80</ele>
	<time>2025-08-03T07:59:06.000Z</time>
</trkpt>
<trkpt lat="45.9646350" lon="10.1489360">
	<ele>1831.00</ele>
	<time>2025-08-03T07:59:07.000Z</time>
</trkpt>
<trkpt lat="45.9646370" lon="10.1489470">
	<ele>1831.20</ele>
	<time>2025-08-03T07:59:08.000Z</time>
</trkpt>
<trkpt lat="45.9646390" lon="10.1489600">
	<ele>1831.40</ele>
	<time>2025-08-03T07:59:09.000Z</time>
</trkpt>
<trkpt lat="45.9646410" lon="10.1489720">
	<ele>1831.40</ele>
	<time>2025-08-03T07:59:10.000Z</time>
</trkpt>
<trkpt lat="45.9646440" lon="10.1489840">
	<ele>1831.60</ele>
	<time>2025-08-03T07:59:11.000Z</time>
</trkpt>
<trkpt lat="45.9646480" lon="10.1489930">
	<ele>1831.60</ele>
	<time>2025-08-03T07:59:12.000Z</time>
</trkpt>
<trkpt lat="45.9646520" lon="10.1490070">
	<ele>1831.80</ele>
	<time>2025-08-03T07:59:13.000Z</time>
</trkpt>
<trkpt lat="45.9646570" lon="10.1490170">
	<ele>1832.00</ele>
	<time>2025-08-03T07:59:14.000Z</time>
</trkpt>
<trkpt lat="45.9646580" lon="10.1490250">
	<ele>1832.00</ele>
	<time>2025-08-03T07:59:15.000Z</time>
</trkpt>
<trkpt lat="45.9646600" lon="10.1490350">
	<ele>1832.20</ele>
	<time>2025-08-03T07:59:16.000Z</time>
</trkpt>
<trkpt lat="45.9646600" lon="10.1490450">
	<ele>1832.40</ele>
	<time>2025-08-03T07:59:17.000Z</time>
</trkpt>
<trkpt lat="45.9646600" lon="10.1490530">
	<ele>1832.40</ele>
	<time>2025-08-03T07:59:18.000Z</time>
</trkpt>
<trkpt lat="45.9646610" lon="10.1490630">
	<ele>1832.60</ele>
	<time>2025-08-03T07:59:19.000Z</time>
</trkpt>
<trkpt lat="45.9646620" lon="10.1490750">
	<ele>1832.80</ele>
	<time>2025-08-03T07:59:20.000Z</time>
</trkpt>
<trkpt lat="45.9646630" lon="10.1490870">
	<ele>1833.00</ele>
	<time>2025-08-03T07:59:21.000Z</time>
</trkpt>
<trkpt lat="45.9646630" lon="10.1491000">
	<ele>1833.20</ele>
	<time>2025-08-03T07:59:22.000Z</time>
</trkpt>
<trkpt lat="45.9646650" lon="10.1491110">
	<ele>1833.20</ele>
	<time>2025-08-03T07:59:23.000Z</time>
</trkpt>
<trkpt lat="45.9646670" lon="10.1491230">
	<ele>1833.40</ele>
	<time>2025-08-03T07:59:24.000Z</time>
</trkpt>
<trkpt lat="45.9646690" lon="10.1491350">
	<ele>1833.60</ele>
	<time>2025-08-03T07:59:25.000Z</time>
</trkpt>
<trkpt lat="45.9646700" lon="10.1491460">
	<ele>1833.80</ele>
	<time>2025-08-03T07:59:26.000Z</time>
</trkpt>
<trkpt lat="45.9646710" lon="10.1491560">
	<ele>1833.80</ele>
	<time>2025-08-03T07:59:27.000Z</time>
</trkpt>
<trkpt lat="45.9646690" lon="10.1491690">
	<ele>1834.00</ele>
	<time>2025-08-03T07:59:28.000Z</time>
</trkpt>
<trkpt lat="45.9646700" lon="10.1491760">
	<ele>1834.20</ele>
	<time>2025-08-03T07:59:29.000Z</time>
</trkpt>
<trkpt lat="45.9646710" lon="10.1491830">
	<ele>1834.40</ele>
	<time>2025-08-03T07:59:30.000Z</time>
</trkpt>
<trkpt lat="45.9646740" lon="10.1491890">
	<ele>1834.60</ele>
	<time>2025-08-03T07:59:31.000Z</time>
</trkpt>
<trkpt lat="45.9646740" lon="10.1491930">
	<ele>1834.80</ele>
	<time>2025-08-03T07:59:32.000Z</time>
</trkpt>
<trkpt lat="45.9646730" lon="10.1491990">
	<ele>1835.20</ele>
	<time>2025-08-03T07:59:33.000Z</time>
</trkpt>
<trkpt lat="45.9646750" lon="10.1492040">
	<ele>1835.40</ele>
	<time>2025-08-03T07:59:34.000Z</time>
</trkpt>
<trkpt lat="45.9646750" lon="10.1492110">
	<ele>1835.60</ele>
	<time>2025-08-03T07:59:35.000Z</time>
</trkpt>
<trkpt lat="45.9646750" lon="10.1492220">
	<ele>1836.00</ele>
	<time>2025-08-03T07:59:36.000Z</time>
</trkpt>
<trkpt lat="45.9646750" lon="10.1492340">
	<ele>1836.20</ele>
	<time>2025-08-03T07:59:37.000Z</time>
</trkpt>
<trkpt lat="45.9646740" lon="10.1492450">
	<ele>1836.20</ele>
	<time>2025-08-03T07:59:38.000Z</time>
</trkpt>
<trkpt lat="45.9646770" lon="10.1492570">
	<ele>1836.40</ele>
	<time>2025-08-03T07:59:39.000Z</time>
</trkpt>
<trkpt lat="45.9646790" lon="10.1492640">
	<ele>1836.60</ele>
	<time>2025-08-03T07:59:40.000Z</time>
</trkpt>
<trkpt lat="45.9646810" lon="10.1492760">
	<ele>1837.00</ele>
	<time>2025-08-03T07:59:41.000Z</time>
</trkpt>
<trkpt lat="45.9646790" lon="10.1492870">
	<ele>1837.20</ele>
	<time>2025-08-03T07:59:42.000Z</time>
</trkpt>
<trkpt lat="45.9646800" lon="10.1492950">
	<ele>1837.40</ele>
	<time>2025-08-03T07:59:43.000Z</time>
</trkpt>
<trkpt lat="45.9646800" lon="10.1493020">
	<ele>1837.60</ele>
	<time>2025-08-03T07:59:44.000Z</time>
</trkpt>
<trkpt lat="45.9646810" lon="10.1493120">
	<ele>1837.60</ele>
	<time>2025-08-03T07:59:45.000Z</time>
</trkpt>
<trkpt lat="45.9646820" lon="10.1493190">
	<ele>1837.80</ele>
	<time>2025-08-03T07:59:46.000Z</time>
</trkpt>
<trkpt lat="45.9646830" lon="10.1493290">
	<ele>1838.00</ele>
	<time>2025-08-03T07:59:47.000Z</time>
</trkpt>
<trkpt lat="45.9646840" lon="10.1493400">
	<ele>1838.20</ele>
	<time>2025-08-03T07:59:48.000Z</time>
</trkpt>
<trkpt lat="45.9646860" lon="10.1493480">
	<ele>1838.20</ele>
	<time>2025-08-03T07:59:49.000Z</time>
</trkpt>
<trkpt lat="45.9646870" lon="10.1493550">
	<ele>1838.60</ele>
	<time>2025-08-03T07:59:50.000Z</time>
</trkpt>
<trkpt lat="45.9646870" lon="10.1493570">
	<ele>1838.80</ele>
	<time>2025-08-03T07:59:51.000Z</time>
</trkpt>
<trkpt lat="45.9646870" lon="10.1493590">
	<ele>1839.20</ele>
	<time>2025-08-03T07:59:52.000Z</time>
</trkpt>
<trkpt lat="45.9646860" lon="10.1493670">
	<ele>1839.40</ele>
	<time>2025-08-03T07:59:53.000Z</time>
</trkpt>
<trkpt lat="45.9646870" lon="10.1493730">
	<ele>1839.40</ele>
	<time>2025-08-03T07:59:54.000Z</time>
</trkpt>
<trkpt lat="45.9646890" lon="10.1493770">
	<ele>1839.60</ele>
	<time>2025-08-03T07:59:55.000Z</time>
</trkpt>
<trkpt lat="45.9646960" lon="10.1493880">
	<ele>1839.80</ele>
	<time>2025-08-03T07:59:56.000Z</time>
</trkpt>
<trkpt lat="45.9647000" lon="10.1493940">
	<ele>1839.80</ele>
	<time>2025-08-03T07:59:57.000Z</time>
</trkpt>
<trkpt lat="45.9647030" lon="10.1494000">
	<ele>1840.00</ele>
	<time>2025-08-03T07:59:58.000Z</time>
</trkpt>
<trkpt lat="45.9647050" lon="10.1494060">
	<ele>1840.20</ele>
	<time>2025-08-03T07:59:59.000Z</time>
</trkpt>
<trkpt lat="45.9647060" lon="10.1494130">
	<ele>1840.40</ele>
	<time>2025-08-03T08:00:00.000Z</time>
</trkpt>
<trkpt lat="45.9647080" lon="10.1494200">
	<ele>1840.60</ele>
	<time>2025-08-03T08:00:01.000Z</time>
</trkpt>
<trkpt lat="45.9647090" lon="10.1494250">
	<ele>1841.00</ele>
	<time>2025-08-03T08:00:02.000Z</time>
</trkpt>
<trkpt lat="45.9647080" lon="10.1494300">
	<ele>1841.20</ele>
	<time>2025-08-03T08:00:03.000Z</time>
</trkpt>
<trkpt lat="45.9647050" lon="10.1494350">
	<ele>1841.40</ele>
	<time>2025-08-03T08:00:04.000Z</time>
</trkpt>
<trkpt lat="45.9647070" lon="10.1494450">
	<ele>1841.40</ele>
	<time>2025-08-03T08:00:05.000Z</time>
</trkpt>
<trkpt lat="45.9647080" lon="10.1494540">
	<ele>1841.60</ele>
	<time>2025-08-03T08:00:06.000Z</time>
</trkpt>
<trkpt lat="45.9647090" lon="10.1494590">
	<ele>1841.80</ele>
	<time>2025-08-03T08:00:07.000Z</time>
</trkpt>
<trkpt lat="45.9647120" lon="10.1494650">
	<ele>1841.80</ele>
	<time>2025-08-03T08:00:08.000Z</time>
</trkpt>
<trkpt lat="45.9647140" lon="10.1494700">
	<ele>1842.00</ele>
	<time>2025-08-03T08:00:09.000Z</time>
</trkpt>
<trkpt lat="45.9647170" lon="10.1494750">
	<ele>1842.20</ele>
	<time>2025-08-03T08:00:10.000Z</time>
</trkpt>
<trkpt lat="45.9647190" lon="10.1494820">
	<ele>1842.40</ele>
	<time>2025-08-03T08:00:11.000Z</time>
</trkpt>
<trkpt lat="45.9647210" lon="10.1494870">
	<ele>1842.40</ele>
	<time>2025-08-03T08:00:12.000Z</time>
</trkpt>
<trkpt lat="45.9647240" lon="10.1494950">
	<ele>1842.60</ele>
	<time>2025-08-03T08:00:13.000Z</time>
</trkpt>
<trkpt lat="45.9647250" lon="10.1495000">
	<ele>1843.00</ele>
	<time>2025-08-03T08:00:14.000Z</time>
</trkpt>
<trkpt lat="45.9647270" lon="10.1495090">
	<ele>1843.00</ele>
	<time>2025-08-03T08:00:15.000Z</time>
</trkpt>
<trkpt lat="45.9647290" lon="10.1495160">
	<ele>1843.20</ele>
	<time>2025-08-03T08:00:16.000Z</time>
</trkpt>
<trkpt lat="45.9647310" lon="10.1495190">
	<ele>1843.40</ele>
	<time>2025-08-03T08:00:17.000Z</time>
</trkpt>
<trkpt lat="45.9647320" lon="10.1495240">
	<ele>1843.80</ele>
	<time>2025-08-03T08:00:18.000Z</time>
</trkpt>
<trkpt lat="45.9647350" lon="10.1495300">
	<ele>1844.20</ele>
	<time>2025-08-03T08:00:19.000Z</time>
</trkpt>
<trkpt lat="45.9647340" lon="10.1495330">
	<ele>1844.40</ele>
	<time>2025-08-03T08:00:20.000Z</time>
</trkpt>
<trkpt lat="45.9647320" lon="10.1495360">
	<ele>1844.80</ele>
	<time>2025-08-03T08:00:21.000Z</time>
</trkpt>
<trkpt lat="45.9647350" lon="10.1495420">
	<ele>1844.80</ele>
	<time>2025-08-03T08:00:22.000Z</time>
</trkpt>
<trkpt lat="45.9647370" lon="10.1495510">
	<ele>1845.00</ele>
	<time>2025-08-03T08:00:23.000Z</time>
</trkpt>
<trkpt lat="45.9647380" lon="10.1495590">
	<ele>1845.20</ele>
	<time>2025-08-03T08:00:24.000Z</time>
</trkpt>
<trkpt lat="45.9647360" lon="10.1495640">
	<ele>1845.40</ele>
	<time>2025-08-03T08:00:25.000Z</time>
</trkpt>
<trkpt lat="45.9647370" lon="10.1495690">
	<ele>1845.60</ele>
	<time>2025-08-03T08:00:26.000Z</time>
</trkpt>
<trkpt lat="45.9647370" lon="10.1495790">
	<ele>1845.80</ele>
	<time>2025-08-03T08:00:27.000Z</time>
</trkpt>
<trkpt lat="45.9647390" lon="10.1495880">
	<ele>1846.00</ele>
	<time>2025-08-03T08:00:28.000Z</time>
</trkpt>
<trkpt lat="45.9647390" lon="10.1495940">
	<ele>1846.20</ele>
	<time>2025-08-03T08:00:29.000Z</time>
</trkpt>
<trkpt lat="45.9647410" lon="10.1496000">
	<ele>1846.40</ele>
	<time>2025-08-03T08:00:30.000Z</time>
</trkpt>
<trkpt lat="45.9647440" lon="10.1496040">
	<ele>1846.40</ele>
	<time>2025-08-03T08:00:31.000Z</time>
</trkpt>
<trkpt lat="45.9647460" lon="10.1496090">
	<ele>1846.60</ele>
	<time>2025-08-03T08:00:32.000Z</time>
</trkpt>
<trkpt lat="45.9647480" lon="10.1496170">
	<ele>1846.60</ele>
	<time>2025-08-03T08:00:33.000Z</time>
</trkpt>
<trkpt lat="45.9647510" lon="10.1496250">
	<ele>1846.80</ele>
	<time>2025-08-03T08:00:34.000Z</time>
</trkpt>
<trkpt lat="45.9647530" lon="10.1496300">
	<ele>1847.00</ele>
	<time>2025-08-03T08:00:35.000Z</time>
</trkpt>
<trkpt lat="45.9647520" lon="10.1496400">
	<ele>1847.20</ele>
	<time>2025-08-03T08:00:36.000Z</time>
</trkpt>
<trkpt lat="45.9647490" lon="10.1496540">
	<ele>1847.60</ele>
	<time>2025-08-03T08:00:37.000Z</time>
</trkpt>
<trkpt lat="45.9647490" lon="10.1496630">
	<ele>1847.80</ele>
	<time>2025-08-03T08:00:38.000Z</time>
</trkpt>
<trkpt lat="45.9647500" lon="10.1496720">
	<ele>1848.00</ele>
	<time>2025-08-03T08:00:39.000Z</time>
</trkpt>
<trkpt lat="45.9647540" lon="10.1496780">
	<ele>1848.20</ele>
	<time>2025-08-03T08:00:40.000Z</time>
</trkpt>
<trkpt lat="45.9647550" lon="10.1496820">
	<ele>1848.40</ele>
	<time>2025-08-03T08:00:41.000Z</time>
</trkpt>
<trkpt lat="45.9647560" lon="10.1496880">
	<ele>1848.40</ele>
	<time>2025-08-03T08:00:42.000Z</time>
</trkpt>
<trkpt lat="45.9647550" lon="10.1496930">
	<ele>1848.60</ele>
	<time>2025-08-03T08:00:43.000Z</time>
</trkpt>
<trkpt lat="45.9647540" lon="10.1497040">
	<ele>1848.60</ele>
	<time>2025-08-03T08:00:44.000Z</time>
</trkpt>
<trkpt lat="45.9647540" lon="10.1497140">
	<ele>1848.60</ele>
	<time>2025-08-03T08:00:45.000Z</time>
</trkpt>
<trkpt lat="45.9647560" lon="10.1497230">
	<ele>1848.80</ele>
	<time>2025-08-03T08:00:46.000Z</time>
</trkpt>
<trkpt lat="45.9647580" lon="10.1497290">
	<ele>1848.80</ele>
	<time>2025-08-03T08:00:47.000Z</time>
</trkpt>
<trkpt lat="45.9647590" lon="10.1497320">
	<ele>1849.00</ele>
	<time>2025-08-03T08:00:48.000Z</time>
</trkpt>
<trkpt lat="45.9647560" lon="10.1497320">
	<ele>1849.20</ele>
	<time>2025-08-03T08:00:49.000Z</time>
</trkpt>
<trkpt lat="45.9647560" lon="10.1497310">
	<ele>1849.40</ele>
	<time>2025-08-03T08:00:50.000Z</time>
</trkpt>
<trkpt lat="45.9647550" lon="10.1497320">
	<ele>1849.40</ele>
	<time>2025-08-03T08:00:51.000Z</time>
</trkpt>
<trkpt lat="45.9647540" lon="10.1497350">
	<ele>1849.60</ele>
	<time>2025-08-03T08:00:52.000Z</time>
</trkpt>
<trkpt lat="45.9647540" lon="10.1497410">
	<ele>1849.80</ele>
	<time>2025-08-03T08:00:53.000Z</time>
</trkpt>
<trkpt lat="45.9647550" lon="10.1497520">
	<ele>1849.80</ele>
	<time>2025-08-03T08:00:54.000Z</time>
</trkpt>
<trkpt lat="45.9647550" lon="10.1497570">
	<ele>1850.00</ele>
	<time>2025-08-03T08:00:55.000Z</time>
</trkpt>
<trkpt lat="45.9647570" lon="10.1497670">
	<ele>1850.20</ele>
	<time>2025-08-03T08:00:56.000Z</time>
</trkpt>
<trkpt lat="45.9647590" lon="10.1497770">
	<ele>1850.40</ele>
	<time>2025-08-03T08:00:57.000Z</time>
</trkpt>
<trkpt lat="45.9647610" lon="10.1497820">
	<ele>1850.60</ele>
	<time>2025-08-03T08:00:58.000Z</time>
</trkpt>
<trkpt lat="45.9647630" lon="10.1497840">
	<ele>1850.80</ele>
	<time>2025-08-03T08:00:59.000Z</time>
</trkpt>
<trkpt lat="45.9647650" lon="10.1497930">
	<ele>1851.00</ele>
	<time>2025-08-03T08:01:00.000Z</time>
</trkpt>
<trkpt lat="45.9647670" lon="10.1497990">
	<ele>1851.20</ele>
	<time>2025-08-03T08:01:01.000Z</time>
</trkpt>
<trkpt lat="45.9647690" lon="10.1498050">
	<ele>1851.40</ele>
	<time>2025-08-03T08:01:02.000Z</time>
</trkpt>
<trkpt lat="45.9647700" lon="10.1498130">
	<ele>1851.80</ele>
	<time>2025-08-03T08:01:03.000Z</time>
</trkpt>
<trkpt lat="45.9647700" lon="10.1498200">
	<ele>1852.00</ele>
	<time>2025-08-03T08:01:04.000Z</time>
</trkpt>
<trkpt lat="45.9647720" lon="10.1498290">
	<ele>1852.00</ele>
	<time>2025-08-03T08:01:05.000Z</time>
</trkpt>
<trkpt lat="45.9647720" lon="10.1498390">
	<ele>1852.20</ele>
	<time>2025-08-03T08:01:06.000Z</time>
</trkpt>
<trkpt lat="45.9647720" lon="10.1498460">
	<ele>1852.40</ele>
	<time>2025-08-03T08:01:07.000Z</time>
</trkpt>
<trkpt lat="45.9647740" lon="10.1498560">
	<ele>1852.40</ele>
	<time>2025-08-03T08:01:08.000Z</time>
</trkpt>
<trkpt lat="45.9647780" lon="10.1498650">
	<ele>1852.60</ele>
	<time>2025-08-03T08:01:09.000Z</time>
</trkpt>
<trkpt lat="45.9647830" lon="10.1498730">
	<ele>1852.80</ele>
	<time>2025-08-03T08:01:10.000Z</time>
</trkpt>
<trkpt lat="45.9647870" lon="10.1498790">
	<ele>1853.00</ele>
	<time>2025-08-03T08:01:11.000Z</time>
</trkpt>
<trkpt lat="45.9647910" lon="10.1498850">
	<ele>1853.20</ele>
	<time>2025-08-03T08:01:12.000Z</time>
</trkpt>
<trkpt lat="45.9647940" lon="10.1498900">
	<ele>1853.40</ele>
	<time>2025-08-03T08:01:13.000Z</time>
</trkpt>
<trkpt lat="45.9647960" lon="10.1498960">
	<ele>1853.80</ele>
	<time>2025-08-03T08:01:14.000Z</time>
</trkpt>
<trkpt lat="45.9647980" lon="10.1499010">
	<ele>1854.00</ele>
	<time>2025-08-03T08:01:15.000Z</time>
</trkpt>
<trkpt lat="45.9647970" lon="10.1499090">
	<ele>1854.20</ele>
	<time>2025-08-03T08:01:16.000Z</time>
</trkpt>
<trkpt lat="45.9647970" lon="10.1499210">
	<ele>1854.40</ele>
	<time>2025-08-03T08:01:17.000Z</time>
</trkpt>
<trkpt lat="45.9647990" lon="10.1499300">
	<ele>1854.60</ele>
	<time>2025-08-03T08:01:18.000Z</time>
</trkpt>
<trkpt lat="45.9648010" lon="10.1499360">
	<ele>1854.80</ele>
	<time>2025-08-03T08:01:19.000Z</time>
</trkpt>
<trkpt lat="45.9648010" lon="10.1499400">
	<ele>1855.00</ele>
	<time>2025-08-03T08:01:20.000Z</time>
</trkpt>
<trkpt lat="45.9648030" lon="10.1499470">
	<ele>1855.00</ele>
	<time>2025-08-03T08:01:21.000Z</time>
</trkpt>
<trkpt lat="45.9648020" lon="10.1499560">
	<ele>1855.40</ele>
	<time>2025-08-03T08:01:22.000Z</time>
</trkpt>
<trkpt lat="45.9648030" lon="10.1499620">
	<ele>1855.80</ele>
	<time>2025-08-03T08:01:23.000Z</time>
</trkpt>
<trkpt lat="45.9648030" lon="10.1499680">
	<ele>1856.00</ele>
	<time>2025-08-03T08:01:24.000Z</time>
</trkpt>
<trkpt lat="45.9648020" lon="10.1499790">
	<ele>1856.40</ele>
	<time>2025-08-03T08:01:25.000Z</time>
</trkpt>
<trkpt lat="45.9648040" lon="10.1499840">
	<ele>1856.60</ele>
	<time>2025-08-03T08:01:26.000Z</time>
</trkpt>
<trkpt lat="45.9648040" lon="10.1499890">
	<ele>1856.80</ele>
	<time>2025-08-03T08:01:27.000Z</time>
</trkpt>
<trkpt lat="45.9648060" lon="10.1499950">
	<ele>1857.00</ele>
	<time>2025-08-03T08:01:28.000Z</time>
</trkpt>
<trkpt lat="45.9648070" lon="10.1500050">
	<ele>1857.00</ele>
	<time>2025-08-03T08:01:29.000Z</time>
</trkpt>
<trkpt lat="45.9648090" lon="10.1500130">
	<ele>1857.20</ele>
	<time>2025-08-03T08:01:30.000Z</time>
</trkpt>
<trkpt lat="45.9648100" lon="10.1500210">
	<ele>1857.20</ele>
	<time>2025-08-03T08:01:31.000Z</time>
</trkpt>
<trkpt lat="45.9648110" lon="10.1500280">
	<ele>1857.20</ele>
	<time>2025-08-03T08:01:32.000Z</time>
</trkpt>
<trkpt lat="45.9648120" lon="10.1500340">
	<ele>1857.60</ele>
	<time>2025-08-03T08:01:33.000Z</time>
</trkpt>
<trkpt lat="45.9648150" lon="10.1500410">
	<ele>1857.80</ele>
	<time>2025-08-03T08:01:34.000Z</time>
</trkpt>
<trkpt lat="45.9648180" lon="10.1500460">
	<ele>1858.00</ele>
	<time>2025-08-03T08:01:35.000Z</time>
</trkpt>
<trkpt lat="45.9648230" lon="10.1500510">
	<ele>1858.20</ele>
	<time>2025-08-03T08:01:36.000Z</time>
</trkpt>
<trkpt lat="45.9648250" lon="10.1500570">
	<ele>1858.40</ele>
	<time>2025-08-03T08:01:37.000Z</time>
</trkpt>
<trkpt lat="45.9648250" lon="10.1500640">
	<ele>1858.40</ele>
	<time>2025-08-03T08:01:38.000Z</time>
</trkpt>
<trkpt lat="45.9648260" lon="10.1500710">
	<ele>1858.80</ele>
	<time>2025-08-03T08:01:39.000Z</time>
</trkpt>
<trkpt lat="45.9648280" lon="10.1500780">
	<ele>1859.00</ele>
	<time>2025-08-03T08:01:40.000Z</time>
</trkpt>
<trkpt lat="45.9648280" lon="10.1500830">
	<ele>1859.20</ele>
	<time>2025-08-03T08:01:41.000Z</time>
</trkpt>
<trkpt lat="45.9648270" lon="10.1500910">
	<ele>1859.40</ele>
	<time>2025-08-03T08:01:42.000Z</time>
</trkpt>
<trkpt lat="45.9648270" lon="10.1501040">
	<ele>1859.60</ele>
	<time>2025-08-03T08:01:43.000Z</time>
</trkpt>
<trkpt lat="45.9648270" lon="10.1501160">
	<ele>1859.60</ele>
	<time>2025-08-03T08:01:44.000Z</time>
</trkpt>
<trkpt lat="45.9648280" lon="10.1501250">
	<ele>1860.00</ele>
	<time>2025-08-03T08:01:45.000Z</time>
</trkpt>
<trkpt lat="45.9648310" lon="10.1501330">
	<ele>1860.20</ele>
	<time>2025-08-03T08:01:46.000Z</time>
</trkpt>
<trkpt lat="45.9648340" lon="10.1501420">
	<ele>1860.40</ele>
	<time>2025-08-03T08:01:47.000Z</time>
</trkpt>
<trkpt lat="45.9648360" lon="10.1501470">
	<ele>1860.60</ele>
	<time>2025-08-03T08:01:48.000Z</time>
</trkpt>
<trkpt lat="45.9648370" lon="10.1501530">
	<ele>1860.80</ele>
	<time>2025-08-03T08:01:49.000Z</time>
</trkpt>
<trkpt lat="45.9648400" lon="10.1501660">
	<ele>1860.80</ele>
	<time>2025-08-03T08:01:50.000Z</time>
</trkpt>
<trkpt lat="45.9648430" lon="10.1501760">
	<ele>1861.00</ele>
	<time>2025-08-03T08:01:51.000Z</time>
</trkpt>
<trkpt lat="45.9648460" lon="10.1501860">
	<ele>1861.00</ele>
	<time>2025-08-03T08:01:52.000Z</time>
</trkpt>
<trkpt lat="45.9648510" lon="10.1501960">
	<ele>1861.20</ele>
	<time>2025-08-03T08:01:53.000Z</time>
</trkpt>
<trkpt lat="45.9648550" lon="10.1502040">
	<ele>1861.40</ele>
	<time>2025-08-03T08:01:54.000Z</time>
</trkpt>
<trkpt lat="45.9648590" lon="10.1502130">
	<ele>1861.60</ele>
	<time>2025-08-03T08:01:55.000Z</time>
</trkpt>
<trkpt lat="45.9648610" lon="10.1502200">
	<ele>1861.80</ele>
	<time>2025-08-03T08:01:56.000Z</time>
</trkpt>
<trkpt lat="45.9648600" lon="10.1502300">
	<ele>1861.80</ele>
	<time>2025-08-03T08:01:57.000Z</time>
</trkpt>
<trkpt lat="45.9648630" lon="10.1502420">
	<ele>1862.00</ele>
	<time>2025-08-03T08:01:58.000Z</time>
</trkpt>
<trkpt lat="45.9648660" lon="10.1502510">
	<ele>1862.20</ele>
	<time>2025-08-03T08:01:59.000Z</time>
</trkpt>
<trkpt lat="45.9648680" lon="10.1502590">
	<ele>1862.40</ele>
	<time>2025-08-03T08:02:00.000Z</time>
</trkpt>
<trkpt lat="45.9648710" lon="10.1502650">
	<ele>1862.40</ele>
	<time>2025-08-03T08:02:01.000Z</time>
</trkpt>
<trkpt lat="45.9648740" lon="10.1502730">
	<ele>1862.60</ele>
	<time>2025-08-03T08:02:02.000Z</time>
</trkpt>
<trkpt lat="45.9648780" lon="10.1502840">
	<ele>1862.80</ele>
	<time>2025-08-03T08:02:03.000Z</time>
</trkpt>
<trkpt lat="45.9648800" lon="10.1502980">
	<ele>1863.00</ele>
	<time>2025-08-03T08:02:04.000Z</time>
</trkpt>
<trkpt lat="45.9648840" lon="10.1503100">
	<ele>1863.00</ele>
	<time>2025-08-03T08:02:05.000Z</time>
</trkpt>
<trkpt lat="45.9648870" lon="10.1503210">
	<ele>1863.20</ele>
	<time>2025-08-03T08:02:06.000Z</time>
</trkpt>
<trkpt lat="45.9648880" lon="10.1503330">
	<ele>1863.20</ele>
	<time>2025-08-03T08:02:07.000Z</time>
</trkpt>
<trkpt lat="45.9648920" lon="10.1503420">
	<ele>1863.40</ele>
	<time>2025-08-03T08:02:08.000Z</time>
</trkpt>
<trkpt lat="45.9648940" lon="10.1503510">
	<ele>1863.60</ele>
	<time>2025-08-03T08:02:09.000Z</time>
</trkpt>
<trkpt lat="45.9648960" lon="10.1503610">
	<ele>1863.60</ele>
	<time>2025-08-03T08:02:10.000Z</time>
</trkpt>
<trkpt lat="45.9648980" lon="10.1503730">
	<ele>1863.80</ele>
	<time>2025-08-03T08:02:11.000Z</time>
</trkpt>
<trkpt lat="45.9649010" lon="10.1503850">
	<ele>1864.00</ele>
	<time>2025-08-03T08:02:12.000Z</time>
</trkpt>
<trkpt lat="45.9649050" lon="10.1503950">
	<ele>1864.20</ele>
	<time>2025-08-03T08:02:13.000Z</time>
</trkpt>
<trkpt lat="45.9649070" lon="10.1504050">
	<ele>1864.40</ele>
	<time>2025-08-03T08:02:14.000Z</time>
</trkpt>
<trkpt lat="45.9649100" lon="10.1504180">
	<ele>1864.60</ele>
	<time>2025-08-03T08:02:15.000Z</time>
</trkpt>
<trkpt lat="45.9649140" lon="10.1504270">
	<ele>1864.80</ele>
	<time>2025-08-03T08:02:16.000Z</time>
</trkpt>
<trkpt lat="45.9649180" lon="10.1504350">
	<ele>1865.00</ele>
	<time>2025-08-03T08:02:17.000Z</time>
</trkpt>
<trkpt lat="45.9649180" lon="10.1504450">
	<ele>1865.20</ele>
	<time>2025-08-03T08:02:18.000Z</time>
</trkpt>
<trkpt lat="45.9649200" lon="10.1504570">
	<ele>1865.20</ele>
	<time>2025-08-03T08:02:19.000Z</time>
</trkpt>
<trkpt lat="45.9649200" lon="10.1504730">
	<ele>1865.20</ele>
	<time>2025-08-03T08:02:20.000Z</time>
</trkpt>
<trkpt lat="45.9649240" lon="10.1504860">
	<ele>1865.40</ele>
	<time>2025-08-03T08:02:21.000Z</time>
</trkpt>
<trkpt lat="45.9649240" lon="10.1505040">
	<ele>1865.40</ele>
	<time>2025-08-03T08:02:22.000Z</time>
</trkpt>
<trkpt lat="45.9649250" lon="10.1505200">
	<ele>1865.60</ele>
	<time>2025-08-03T08:02:23.000Z</time>
</trkpt>
<trkpt lat="45.9649280" lon="10.1505310">
	<ele>1865.80</ele>
	<time>2025-08-03T08:02:24.000Z</time>
</trkpt>
<trkpt lat="45.9649330" lon="10.1505420">
	<ele>1866.00</ele>
	<time>2025-08-03T08:02:25.000Z</time>
</trkpt>
<trkpt lat="45.9649340" lon="10.1505550">
	<ele>1866.00</ele>
	<time>2025-08-03T08:02:26.000Z</time>
</trkpt>
<trkpt lat="45.9649360" lon="10.1505670">
	<ele>1866.20</ele>
	<time>2025-08-03T08:02:27.000Z</time>
</trkpt>
<trkpt lat="45.9649390" lon="10.1505780">
	<ele>1866.20</ele>
	<time>2025-08-03T08:02:28.000Z</time>
</trkpt>
<trkpt lat="45.9649420" lon="10.1505920">
	<ele>1866.40</ele>
	<time>2025-08-03T08:02:29.000Z</time>
</trkpt>
<trkpt lat="45.9649460" lon="10.1506010">
	<ele>1866.40</ele>
	<time>2025-08-03T08:02:30.000Z</time>
</trkpt>
<trkpt lat="45.9649480" lon="10.1506080">
	<ele>1866.40</ele>
	<time>2025-08-03T08:02:31.000Z</time>
</trkpt>
<trkpt lat="45.9649520" lon="10.1506230">
	<ele>1866.60</ele>
	<time>2025-08-03T08:02:32.000Z</time>
</trkpt>
<trkpt lat="45.9649540" lon="10.1506340">
	<ele>1866.80</ele>
	<time>2025-08-03T08:02:33.000Z</time>
</trkpt>
<trkpt lat="45.9649560" lon="10.1506450">
	<ele>1866.80</ele>
	<time>2025-08-03T08:02:34.000Z</time>
</trkpt>
<trkpt lat="45.9649570" lon="10.1506560">
	<ele>1867.20</ele>
	<time>2025-08-03T08:02:35.000Z</time>
</trkpt>
<trkpt lat="45.9649610" lon="10.1506660">
	<ele>1867.40</ele>
	<time>2025-08-03T08:02:36.000Z</time>
</trkpt>
<trkpt lat="45.9649620" lon="10.1506780">
	<ele>1867.60</ele>
	<time>2025-08-03T08:02:37.000Z</time>
</trkpt>
<trkpt lat="45.9649640" lon="10.1506930">
	<ele>1867.80</ele>
	<time>2025-08-03T08:02:38.000Z</time>
</trkpt>
<trkpt lat="45.9649670" lon="10.1507070">
	<ele>1867.80</ele>
	<time>2025-08-03T08:02:39.000Z</time>
</trkpt>
<trkpt lat="45.9649700" lon="10.1507180">
	<ele>1868.00</ele>
	<time>2025-08-03T08:02:40.000Z</time>
</trkpt>
<trkpt lat="45.9649740" lon="10.1507290">
	<ele>1868.20</ele>
	<time>2025-08-03T08:02:41.000Z</time>
</trkpt>
<trkpt lat="45.9649780" lon="10.1507410">
	<ele>1868.20</ele>
	<time>2025-08-03T08:02:42.000Z</time>
</trkpt>
<trkpt lat="45.9649820" lon="10.1507530">
	<ele>1868.40</ele>
	<time>2025-08-03T08:02:43.000Z</time>
</trkpt>
<trkpt lat="45.9649830" lon="10.1507640">
	<ele>1868.60</ele>
	<time>2025-08-03T08:02:44.000Z</time>
</trkpt>
<trkpt lat="45.9649860" lon="10.1507790">
	<ele>1868.60</ele>
	<time>2025-08-03T08:02:45.000Z</time>
</trkpt>
<trkpt lat="45.9649900" lon="10.1507900">
	<ele>1868.80</ele>
	<time>2025-08-03T08:02:46.000Z</time>
</trkpt>
<trkpt lat="45.9649930" lon="10.1508010">
	<ele>1869.00</ele>
	<time>2025-08-03T08:02:47.000Z</time>
</trkpt>
<trkpt lat="45.9649950" lon="10.1508120">
	<ele>1869.00</ele>
	<time>2025-08-03T08:02:48.000Z</time>
</trkpt>
<trkpt lat="45.9649960" lon="10.1508240">
	<ele>1869.20</ele>
	<time>2025-08-03T08:02:49.000Z</time>
</trkpt>
<trkpt lat="45.9649990" lon="10.1508330">
	<ele>1869.20</ele>
	<time>2025-08-03T08:02:50.000Z</time>
</trkpt>
<trkpt lat="45.9650050" lon="10.1508450">
	<ele>1869.60</ele>
	<time>2025-08-03T08:02:51.000Z</time>
</trkpt>
<trkpt lat="45.9650110" lon="10.1508560">
	<ele>1869.80</ele>
	<time>2025-08-03T08:02:52.000Z</time>
</trkpt>
<trkpt lat="45.9650160" lon="10.1508660">
	<ele>1869.80</ele>
	<time>2025-08-03T08:02:53.000Z</time>
</trkpt>
<trkpt lat="45.9650190" lon="10.1508730">
	<ele>1870.00</ele>
	<time>2025-08-03T08:02:54.000Z</time>
</trkpt>
<trkpt lat="45.9650210" lon="10.1508860">
	<ele>1870.20</ele>
	<time>2025-08-03T08:02:55.000Z</time>
</trkpt>
<trkpt lat="45.9650220" lon="10.1508960">
	<ele>1870.40</ele>
	<time>2025-08-03T08:02:56.000Z</time>
</trkpt>
<trkpt lat="45.9650240" lon="10.1509090">
	<ele>1870.40</ele>
	<time>2025-08-03T08:02:57.000Z</time>
</trkpt>
<trkpt lat="45.9650260" lon="10.1509200">
	<ele>1870.60</ele>
	<time>2025-08-03T08:02:58.000Z</time>
</trkpt>
<trkpt lat="45.9650270" lon="10.1509310">
	<ele>1871.00</ele>
	<time>2025-08-03T08:02:59.000Z</time>
</trkpt>
<trkpt lat="45.9650260" lon="10.1509410">
	<ele>1871.20</ele>
	<time>2025-08-03T08:03:00.000Z</time>
</trkpt>
<trkpt lat="45.9650290" lon="10.1509480">
	<ele>1871.40</ele>
	<time>2025-08-03T08:03:01.000Z</time>
</trkpt>
<trkpt lat="45.9650310" lon="10.1509540">
	<ele>1871.60</ele>
	<time>2025-08-03T08:03:02.000Z</time>
</trkpt>
<trkpt lat="45.9650330" lon="10.1509600">
	<ele>1871.80</ele>
	<time>2025-08-03T08:03:03.000Z</time>
</trkpt>
<trkpt lat="45.9650340" lon="10.1509680">
	<ele>1872.20</ele>
	<time>2025-08-03T08:03:04.000Z</time>
</trkpt>
<trkpt lat="45.9650350" lon="10.1509800">
	<ele>1872.40</ele>
	<time>2025-08-03T08:03:05.000Z</time>
</trkpt>
<trkpt lat="45.9650370" lon="10.1509910">
	<ele>1872.40</ele>
	<time>2025-08-03T08:03:06.000Z</time>
</trkpt>
<trkpt lat="45.9650400" lon="10.1510020">
	<ele>1872.60</ele>
	<time>2025-08-03T08:03:07.000Z</time>
</trkpt>
<trkpt lat="45.9650410" lon="10.1510130">
	<ele>1872.80</ele>
	<time>2025-08-03T08:03:08.000Z</time>
</trkpt>
<trkpt lat="45.9650430" lon="10.1510200">
	<ele>1873.00</ele>
	<time>2025-08-03T08:03:09.000Z</time>
</trkpt>
<trkpt lat="45.9650470" lon="10.1510270">
	<ele>1873.40</ele>
	<time>2025-08-03T08:03:10.000Z</time>
</trkpt>
<trkpt lat="45.9650510" lon="10.1510350">
	<ele>1873.60</ele>
	<time>2025-08-03T08:03:11.000Z</time>
</trkpt>
<trkpt lat="45.9650530" lon="10.1510480">
	<ele>1873.60</ele>
	<time>2025-08-03T08:03:12.000Z</time>
</trkpt>
<trkpt lat="45.9650540" lon="10.1510570">
	<ele>1873.80</ele>
	<time>2025-08-03T08:03:13.000Z</time>
</trkpt>
<trkpt lat="45.9650560" lon="10.1510690">
	<ele>1874.00</ele>
	<time>2025-08-03T08:03:14.000Z</time>
</trkpt>
<trkpt lat="45.9650580" lon="10.1510780">
	<ele>1874.00</ele>
	<time>2025-08-03T08:03:15.000Z</time>
</trkpt>
<trkpt lat="45.9650610" lon="10.1510900">
	<ele>1874.00</ele>
	<time>2025-08-03T08:03:16.000Z</time>
</trkpt>
<trkpt lat="45.9650650" lon="10.1511020">
	<ele>1874.20</ele>
	<time>2025-08-03T08:03:17.000Z</time>
</trkpt>
<trkpt lat="45.9650670" lon="10.1511130">
	<ele>1874.40</ele>
	<time>2025-08-03T08:03:18.000Z</time>
</trkpt>
<trkpt lat="45.9650690" lon="10.1511220">
	<ele>1874.80</ele>
	<time>2025-08-03T08:03:19.000Z</time>
</trkpt>
<trkpt lat="45.9650750" lon="10.1511290">
	<ele>1875.00</ele>
	<time>2025-08-03T08:03:20.000Z</time>
</trkpt>
<trkpt lat="45.9650780" lon="10.1511330">
	<ele>1875.00</ele>
	<time>2025-08-03T08:03:21.000Z</time>
</trkpt>
<trkpt lat="45.9650810" lon="10.1511360">
	<ele>1875.20</ele>
	<time>2025-08-03T08:03:22.000Z</time>
</trkpt>
<trkpt lat="45.9650820" lon="10.1511370">
	<ele>1875.40</ele>
	<time>2025-08-03T08:03:23.000Z</time>
</trkpt>
<trkpt lat="45.9650830" lon="10.1511370">
	<ele>1875.80</ele>
	<time>2025-08-03T08:03:24.000Z</time>
</trkpt>
<trkpt lat="45.9650830" lon="10.1511380">
	<ele>1876.00</ele>
	<time>2025-08-03T08:03:25.000Z</time>
</trkpt>
<trkpt lat="45.9650840" lon="10.1511370">
	<ele>1876.20</ele>
	<time>2025-08-03T08:03:26.000Z</time>
</trkpt>
<trkpt lat="45.9650840" lon="10.1511370">
	<ele>1876.40</ele>
	<time>2025-08-03T08:03:27.000Z</time>
</trkpt>
<trkpt lat="45.9650830" lon="10.1511370">
	<ele>1876.40</ele>
	<time>2025-08-03T08:03:28.000Z</time>
</trkpt>
<trkpt lat="45.9650830" lon="10.1511410">
	<ele>1876.20</ele>
	<time>2025-08-03T08:03:29.000Z</time>
</trkpt>
<trkpt lat="45.9650780" lon="10.1511520">
	<ele>1876.00</ele>
	<time>2025-08-03T08:03:30.000Z</time>
</trkpt>
<trkpt lat="45.9650730" lon="10.1511670">
	<ele>1876.00</ele>
	<time>2025-08-03T08:03:31.000Z</time>
</trkpt>
<trkpt lat="45.9650710" lon="10.1511790">
	<ele>1875.80</ele>
	<time>2025-08-03T08:03:32.000Z</time>
</trkpt>
<trkpt lat="45.9650700" lon="10.1511900">
	<ele>1875.80</ele>
	<time>2025-08-03T08:03:33.000Z</time>
</trkpt>
<trkpt lat="45.9650700" lon="10.1512010">
	<ele>1876.00</ele>
	<time>2025-08-03T08:03:34.000Z</time>
</trkpt>
<trkpt lat="45.9650690" lon="10.1512130">
	<ele>1876.20</ele>
	<time>2025-08-03T08:03:35.000Z</time>
</trkpt>
<trkpt lat="45.9650660" lon="10.1512280">
	<ele>1876.40</ele>
	<time>2025-08-03T08:03:36.000Z</time>
</trkpt>
<trkpt lat="45.9650630" lon="10.1512450">
	<ele>1876.60</ele>
	<time>2025-08-03T08:03:37.000Z</time>
</trkpt>
<trkpt lat="45.9650600" lon="10.1512590">
	<ele>1876.60</ele>
	<time>2025-08-03T08:03:38.000Z</time>
</trkpt>
<trkpt lat="45.9650580" lon="10.1512710">
	<ele>1876.60</ele>
	<time>2025-08-03T08:03:39.000Z</time>
</trkpt>
<trkpt lat="45.9650580" lon="10.1512810">
	<ele>1876.80</ele>
	<time>2025-08-03T08:03:40.000Z</time>
</trkpt>
<trkpt lat="45.9650580" lon="10.1512880">
	<ele>1877.00</ele>
	<time>2025-08-03T08:03:41.000Z</time>
</trkpt>
<trkpt lat="45.9650590" lon="10.1512990">
	<ele>1877.20</ele>
	<time>2025-08-03T08:03:42.000Z</time>
</trkpt>
<trkpt lat="45.9650620" lon="10.1513100">
	<ele>1877.40</ele>
	<time>2025-08-03T08:03:43.000Z</time>
</trkpt>
<trkpt lat="45.9650630" lon="10.1513190">
	<ele>1877.60</ele>
	<time>2025-08-03T08:03:44.000Z</time>
</trkpt>
<trkpt lat="45.9650660" lon="10.1513280">
	<ele>1877.60</ele>
	<time>2025-08-03T08:03:45.000Z</time>
</trkpt>
<trkpt lat="45.9650700" lon="10.1513370">
	<ele>1877.80</ele>
	<time>2025-08-03T08:03:46.000Z</time>
</trkpt>
<trkpt lat="45.9650730" lon="10.1513430">
	<ele>1878.00</ele>
	<time>2025-08-03T08:03:47.000Z</time>
</trkpt>
<trkpt lat="45.9650760" lon="10.1513530">
	<ele>1878.20</ele>
	<time>2025-08-03T08:03:48.000Z</time>
</trkpt>
<trkpt lat="45.9650760" lon="10.1513640">
	<ele>1878.40</ele>
	<time>2025-08-03T08:03:49.000Z</time>
</trkpt>
<trkpt lat="45.9650780" lon="10.1513730">
	<ele>1878.40</ele>
	<time>2025-08-03T08:03:50.000Z</time>
</trkpt>
<trkpt lat="45.9650810" lon="10.1513880">
	<ele>1878.60</ele>
	<time>2025-08-03T08:03:51.000Z</time>
</trkpt>
<trkpt lat="45.9650830" lon="10.1513990">
	<ele>1878.80</ele>
	<time>2025-08-03T08:03:52.000Z</time>
</trkpt>
<trkpt lat="45.9650870" lon="10.1514060">
	<ele>1879.00</ele>
	<time>2025-08-03T08:03:53.000Z</time>
</trkpt>
<trkpt lat="45.9650880" lon="10.1514130">
	<ele>1879.40</ele>
	<time>2025-08-03T08:03:54.000Z</time>
</trkpt>
<trkpt lat="45.9650910" lon="10.1514220">
	<ele>1879.60</ele>
	<time>2025-08-03T08:03:55.000Z</time>
</trkpt>
<trkpt lat="45.9650980" lon="10.1514350">
	<ele>1879.60</ele>
	<time>2025-08-03T08:03:56.000Z</time>
</trkpt>
<trkpt lat="45.9650980" lon="10.1514410">
	<ele>1880.00</ele>
	<time>2025-08-03T08:03:57.000Z</time>
</trkpt>
<trkpt lat="45.9651030" lon="10.1514500">
	<ele>1880.00</ele>
	<time>2025-08-03T08:03:58.000Z</time>
</trkpt>
<trkpt lat="45.9651050" lon="10.1514600">
	<ele>1880.40</ele>
	<time>2025-08-03T08:03:59.000Z</time>
</trkpt>
<trkpt lat="45.9651090" lon="10.1514700">
	<ele>1880.60</ele>
	<time>2025-08-03T08:04:00.000Z</time>
</trkpt>
<trkpt lat="45.9651100" lon="10.1514790">
	<ele>1880.60</ele>
	<time>2025-08-03T08:04:01.000Z</time>
</trkpt>
<trkpt lat="45.9651120" lon="10.1514880">
	<ele>1880.80</ele>
	<time>2025-08-03T08:04:02.000Z</time>
</trkpt>
<trkpt lat="45.9651130" lon="10.1514970">
	<ele>1881.00</ele>
	<time>2025-08-03T08:04:03.000Z</time>
</trkpt>
<trkpt lat="45.9651160" lon="10.1515060">
	<ele>1881.40</ele>
	<time>2025-08-03T08:04:04.000Z</time>
</trkpt>
<trkpt lat="45.9651220" lon="10.1515160">
	<ele>1881.60</ele>
	<time>2025-08-03T08:04:05.000Z</time>
</trkpt>
<trkpt lat="45.9651250" lon="10.1515300">
	<ele>1881.60</ele>
	<time>2025-08-03T08:04:06.000Z</time>
</trkpt>
<trkpt lat="45.9651300" lon="10.1515390">
	<ele>1881.80</ele>
	<time>2025-08-03T08:04:07.000Z</time>
</trkpt>
<trkpt lat="45.9651330" lon="10.1515430">
	<ele>1882.00</ele>
	<time>2025-08-03T08:04:08.000Z</time>
</trkpt>
<trkpt lat="45.9651340" lon="10.1515510">
	<ele>1882.40</ele>
	<time>2025-08-03T08:04:09.000Z</time>
</trkpt>
<trkpt lat="45.9651350" lon="10.1515640">
	<ele>1882.60</ele>
	<time>2025-08-03T08:04:10.000Z</time>
</trkpt>
<trkpt lat="45.9651360" lon="10.1515720">
	<ele>1882.80</ele>
	<time>2025-08-03T08:04:11.000Z</time>
</trkpt>
<trkpt lat="45.9651360" lon="10.1515850">
	<ele>1882.80</ele>
	<time>2025-08-03T08:04:12.000Z</time>
</trkpt>
<trkpt lat="45.9651380" lon="10.1515960">
	<ele>1883.00</ele>
	<time>2025-08-03T08:04:13.000Z</time>
</trkpt>
<trkpt lat="45.9651400" lon="10.1516030">
	<ele>1883.20</ele>
	<time>2025-08-03T08:04:14.000Z</time>
</trkpt>
<trkpt lat="45.9651430" lon="10.1516120">
	<ele>1883.40</ele>
	<time>2025-08-03T08:04:15.000Z</time>
</trkpt>
<trkpt lat="45.9651460" lon="10.1516180">
	<ele>1883.60</ele>
	<time>2025-08-03T08:04:16.000Z</time>
</trkpt>
<trkpt lat="45.9651530" lon="10.1516220">
	<ele>1883.80</ele>
	<time>2025-08-03T08:04:17.000Z</time>
</trkpt>
<trkpt lat="45.9651560" lon="10.1516270">
	<ele>1884.00</ele>
	<time>2025-08-03T08:04:18.000Z</time>
</trkpt>
<trkpt lat="45.9651590" lon="10.1516310">
	<ele>1884.40</ele>
	<time>2025-08-03T08:04:19.000Z</time>
</trkpt>
<trkpt lat="45.9651600" lon="10.1516380">
	<ele>1884.60</ele>
	<time>2025-08-03T08:04:20.000Z</time>
</trkpt>
<trkpt lat="45.9651580" lon="10.1516420">
	<ele>1884.80</ele>
	<time>2025-08-03T08:04:21.000Z</time>
</trkpt>
<trkpt lat="45.9651560" lon="10.1516470">
	<ele>1884.80</ele>
	<time>2025-08-03T08:04:22.000Z</time>
</trkpt>
<trkpt lat="45.9651550" lon="10.1516520">
	<ele>1885.20</ele>
	<time>2025-08-03T08:04:23.000Z</time>
</trkpt>
<trkpt lat="45.9651570" lon="10.1516590">
	<ele>1885.40</ele>
	<time>2025-08-03T08:04:24.000Z</time>
</trkpt>
<trkpt lat="45.9651610" lon="10.1516710">
	<ele>1885.60</ele>
	<time>2025-08-03T08:04:25.000Z</time>
</trkpt>
<trkpt lat="45.9651600" lon="10.1516830">
	<ele>1885.60</ele>
	<time>2025-08-03T08:04:26.000Z</time>
</trkpt>
<trkpt lat="45.9651620" lon="10.1516930">
	<ele>1885.80</ele>
	<time>2025-08-03T08:04:27.000Z</time>
</trkpt>
<trkpt lat="45.9651640" lon="10.1517040">
	<ele>1886.20</ele>
	<time>2025-08-03T08:04:28.000Z</time>
</trkpt>
<trkpt lat="45.9651650" lon="10.1517120">
	<ele>1886.20</ele>
	<time>2025-08-03T08:04:29.000Z</time>
</trkpt>
<trkpt lat="45.9651700" lon="10.1517220">
	<ele>1886.40</ele>
	<time>2025-08-03T08:04:30.000Z</time>
</trkpt>
<trkpt lat="45.9651730" lon="10.1517340">
	<ele>1886.40</ele>
	<time>2025-08-03T08:04:31.000Z</time>
</trkpt>
<trkpt lat="45.9651740" lon="10.1517430">
	<ele>1886.60</ele>
	<time>2025-08-03T08:04:32.000Z</time>
</trkpt>
<trkpt lat="45.9651730" lon="10.1517490">
	<ele>1886.60</ele>
	<time>2025-08-03T08:04:33.000Z</time>
</trkpt>
<trkpt lat="45.9651720" lon="10.1517560">
	<ele>1886.80</ele>
	<time>2025-08-03T08:04:34.000Z</time>
</trkpt>
<trkpt lat="45.9651730" lon="10.1517610">
	<ele>1887.00</ele>
	<time>2025-08-03T08:04:35.000Z</time>
</trkpt>
<trkpt lat="45.9651740" lon="10.1517710">
	<ele>1887.40</ele>
	<time>2025-08-03T08:04:36.000Z</time>
</trkpt>
<trkpt lat="45.9651780" lon="10.1517770">
	<ele>1887.60</ele>
	<time>2025-08-03T08:04:37.000Z</time>
</trkpt>
<trkpt lat="45.9651800" lon="10.1517820">
	<ele>1887.80</ele>
	<time>2025-08-03T08:04:38.000Z</time>
</trkpt>
<trkpt lat="45.9651820" lon="10.1517910">
	<ele>1887.80</ele>
	<time>2025-08-03T08:04:39.000Z</time>
</trkpt>
<trkpt lat="45.9651840" lon="10.1518000">
	<ele>1888.00</ele>
	<time>2025-08-03T08:04:40.000Z</time>
</trkpt>
<trkpt lat="45.9651850" lon="10.1518050">
	<ele>1888.20</ele>
	<time>2025-08-03T08:04:41.000Z</time>
</trkpt>
<trkpt lat="45.9651860" lon="10.1518130">
	<ele>1888.20</ele>
	<time>2025-08-03T08:04:42.000Z</time>
</trkpt>
<trkpt lat="45.9651890" lon="10.1518230">
	<ele>1888.40</ele>
	<time>2025-08-03T08:04:43.000Z</time>
</trkpt>
<trkpt lat="45.9651940" lon="10.1518270">
	<ele>1888.40</ele>
	<time>2025-08-03T08:04:44.000Z</time>
</trkpt>
<trkpt lat="45.9651970" lon="10.1518340">
	<ele>1889.00</ele>
	<time>2025-08-03T08:04:45.000Z</time>
</trkpt>
<trkpt lat="45.9651990" lon="10.1518390">
	<ele>1889.40</ele>
	<time>2025-08-03T08:04:46.000Z</time>
</trkpt>
<trkpt lat="45.9652020" lon="10.1518510">
	<ele>1889.60</ele>
	<time>2025-08-03T08:04:47.000Z</time>
</trkpt>
<trkpt lat="45.9652010" lon="10.1518580">
	<ele>1889.80</ele>
	<time>2025-08-03T08:04:48.000Z</time>
</trkpt>
<trkpt lat="45.9652010" lon="10.1518680">
	<ele>1889.80</ele>
	<time>2025-08-03T08:04:49.000Z</time>
</trkpt>
<trkpt lat="45.9652010" lon="10.1518760">
	<ele>1890.00</ele>
	<time>2025-08-03T08:04:50.000Z</time>
</trkpt>
<trkpt lat="45.9652020" lon="10.1518840">
	<ele>1890.20</ele>
	<time>2025-08-03T08:04:51.000Z</time>
</trkpt>
<trkpt lat="45.9652040" lon="10.1518930">
	<ele>1890.40</ele>
	<time>2025-08-03T08:04:52.000Z</time>
</trkpt>
<trkpt lat="45.9652030" lon="10.1519050">
	<ele>1890.40</ele>
	<time>2025-08-03T08:04:53.000Z</time>
</trkpt>
<trkpt lat="45.9652020" lon="10.1519160">
	<ele>1890.60</ele>
	<time>2025-08-03T08:04:54.000Z</time>
</trkpt>
<trkpt lat="45.9652020" lon="10.1519300">
	<ele>1890.60</ele>
	<time>2025-08-03T08:04:55.000Z</time>
</trkpt>
<trkpt lat="45.9652040" lon="10.1519400">
	<ele>1890.80</ele>
	<time>2025-08-03T08:04:56.000Z</time>
</trkpt>
<trkpt lat="45.9652040" lon="10.1519510">
	<ele>1891.00</ele>
	<time>2025-08-03T08:04:57.000Z</time>
</trkpt>
<trkpt lat="45.9652040" lon="10.1519610">
	<ele>1891.20</ele>
	<time>2025-08-03T08:04:58.000Z</time>
</trkpt>
<trkpt lat="45.9652030" lon="10.1519740">
	<ele>1891.40</ele>
	<time>2025-08-03T08:04:59.000Z</time>
</trkpt>
<trkpt lat="45.9652040" lon="10.1519820">
	<ele>1891.60</ele>
	<time>2025-08-03T08:05:00.000Z</time>
</trkpt>
<trkpt lat="45.9652040" lon="10.1519910">
	<ele>1891.80</ele>
	<time>2025-08-03T08:05:01.000Z</time>
</trkpt>
<trkpt lat="45.9652050" lon="10.1519970">
	<ele>1892.00</ele>
	<time>2025-08-03T08:05:02.000Z</time>
</trkpt>
<trkpt lat="45.9652060" lon="10.1520040">
	<ele>1892.00</ele>
	<time>2025-08-03T08:05:03.000Z</time>
</trkpt>
<trkpt lat="45.9652060" lon="10.1520130">
	<ele>1892.20</ele>
	<time>2025-08-03T08:05:04.000Z</time>
</trkpt>
<trkpt lat="45.9652040" lon="10.1520220">
	<ele>1892.40</ele>
	<time>2025-08-03T08:05:05.000Z</time>
</trkpt>
<trkpt lat="45.9652020" lon="10.1520310">
	<ele>1892.60</ele>
	<time>2025-08-03T08:05:06.000Z</time>
</trkpt>
<trkpt lat="45.9652030" lon="10.1520380">
	<ele>1892.80</ele>
	<time>2025-08-03T08:05:07.000Z</time>
</trkpt>
<trkpt lat="45.9652020" lon="10.1520460">
	<ele>1892.80</ele>
	<time>2025-08-03T08:05:08.000Z</time>
</trkpt>
<trkpt lat="45.9652030" lon="10.1520560">
	<ele>1893.00</ele>
	<time>2025-08-03T08:05:09.000Z</time>
</trkpt>
<trkpt lat="45.9652050" lon="10.1520630">
	<ele>1893.20</ele>
	<time>2025-08-03T08:05:10.000Z</time>
</trkpt>
<trkpt lat="45.9652080" lon="10.1520720">
	<ele>1893.40</ele>
	<time>2025-08-03T08:05:11.000Z</time>
</trkpt>
<trkpt lat="45.9652110" lon="10.1520800">
	<ele>1893.60</ele>
	<time>2025-08-03T08:05:12.000Z</time>
</trkpt>
<trkpt lat="45.9652130" lon="10.1520890">
	<ele>1893.60</ele>
	<time>2025-08-03T08:05:13.000Z</time>
</trkpt>
<trkpt lat="45.9652130" lon="10.1521010">
	<ele>1893.80</ele>
	<time>2025-08-03T08:05:14.000Z</time>
</trkpt>
<trkpt lat="45.9652130" lon="10.1521080">
	<ele>1894.00</ele>
	<time>2025-08-03T08:05:15.000Z</time>
</trkpt>
<trkpt lat="45.9652130" lon="10.1521190">
	<ele>1894.20</ele>
	<time>2025-08-03T08:05:16.000Z</time>
</trkpt>
<trkpt lat="45.9652110" lon="10.1521340">
	<ele>1894.40</ele>
	<time>2025-08-03T08:05:17.000Z</time>
</trkpt>
<trkpt lat="45.9652120" lon="10.1521470">
	<ele>1894.40</ele>
	<time>2025-08-03T08:05:18.000Z</time>
</trkpt>
<trkpt lat="45.9652150" lon="10.1521560">
	<ele>1894.60</ele>
	<time>2025-08-03T08:05:19.000Z</time>
</trkpt>
<trkpt lat="45.9652200" lon="10.1521600">
	<ele>1894.80</ele>
	<time>2025-08-03T08:05:20.000Z</time>
</trkpt>
<trkpt lat="45.9652230" lon="10.1521680">
	<ele>1895.00</ele>
	<time>2025-08-03T08:05:21.000Z</time>
</trkpt>
<trkpt lat="45.9652240" lon="10.1521720">
	<ele>1895.40</ele>
	<time>2025-08-03T08:05:22.000Z</time>
</trkpt>
<trkpt lat="45.9652240" lon="10.1521740">
	<ele>1895.60</ele>
	<time>2025-08-03T08:05:23.000Z</time>
</trkpt>
<trkpt lat="45.9652220" lon="10.1521750">
	<ele>1895.80</ele>
	<time>2025-08-03T08:05:24.000Z</time>
</trkpt>
<trkpt lat="45.9652200" lon="10.1521800">
	<ele>1896.00</ele>
	<time>2025-08-03T08:05:25.000Z</time>
</trkpt>
<trkpt lat="45.9652170" lon="10.1521870">
	<ele>1896.20</ele>
	<time>2025-08-03T08:05:26.000Z</time>
</trkpt>
<trkpt lat="45.9652150" lon="10.1521970">
	<ele>1896.20</ele>
	<time>2025-08-03T08:05:27.000Z</time>
</trkpt>
<trkpt lat="45.9652140" lon="10.1522050">
	<ele>1896.20</ele>
	<time>2025-08-03T08:05:28.000Z</time>
</trkpt>
<trkpt lat="45.9652130" lon="10.1522130">
	<ele>1896.20</ele>
	<time>2025-08-03T08:05:29.000Z</time>
</trkpt>
<trkpt lat="45.9652130" lon="10.1522200">
	<ele>1896.40</ele>
	<time>2025-08-03T08:05:30.000Z</time>
</trkpt>
<trkpt lat="45.9652130" lon="10.1522270">
	<ele>1896.60</ele>
	<time>2025-08-03T08:05:31.000Z</time>
</trkpt>
<trkpt lat="45.9652130" lon="10.1522370">
	<ele>1896.80</ele>
	<time>2025-08-03T08:05:32.000Z</time>
</trkpt>
<trkpt lat="45.9652150" lon="10.1522430">
	<ele>1897.00</ele>
	<time>2025-08-03T08:05:33.000Z</time>
</trkpt>
<trkpt lat="45.9652160" lon="10.1522530">
	<ele>1897.20</ele>
	<time>2025-08-03T08:05:34.000Z</time>
</trkpt>
<trkpt lat="45.9652160" lon="10.1522640">
	<ele>1897.40</ele>
	<time>2025-08-03T08:05:35.000Z</time>
</trkpt>
<trkpt lat="45.9652160" lon="10.1522720">
	<ele>1897.40</ele>
	<time>2025-08-03T08:05:36.000Z</time>
</trkpt>
<trkpt lat="45.9652160" lon="10.1522780">
	<ele>1897.60</ele>
	<time>2025-08-03T08:05:37.000Z</time>
</trkpt>
<trkpt lat="45.9652180" lon="10.1522870">
	<ele>1897.80</ele>
	<time>2025-08-03T08:05:38.000Z</time>
</trkpt>
<trkpt lat="45.9652210" lon="10.1522970">
	<ele>1897.80</ele>
	<time>2025-08-03T08:05:39.000Z</time>
</trkpt>
<trkpt lat="45.9652210" lon="10.1523020">
	<ele>1898.00</ele>
	<time>2025-08-03T08:05:40.000Z</time>
</trkpt>
<trkpt lat="45.9652220" lon="10.1523130">
	<ele>1898.20</ele>
	<time>2025-08-03T08:05:41.000Z</time>
</trkpt>
<trkpt lat="45.9652230" lon="10.1523210">
	<ele>1898.40</ele>
	<time>2025-08-03T08:05:42.000Z</time>
</trkpt>
<trkpt lat="45.9652260" lon="10.1523330">
	<ele>1898.60</ele>
	<time>2025-08-03T08:05:43.000Z</time>
</trkpt>
<trkpt lat="45.9652320" lon="10.1523400">
	<ele>1898.80</ele>
	<time>2025-08-03T08:05:44.000Z</time>
</trkpt>
<trkpt lat="45.9652310" lon="10.1523440">
	<ele>1899.00</ele>
	<time>2025-08-03T08:05:45.000Z</time>
</trkpt>
<trkpt lat="45.9652310" lon="10.1523500">
	<ele>1899.20</ele>
	<time>2025-08-03T08:05:46.000Z</time>
</trkpt>
<trkpt lat="45.9652330" lon="10.1523500">
	<ele>1899.20</ele>
	<time>2025-08-03T08:05:47.000Z</time>
</trkpt>
<trkpt lat="45.9652340" lon="10.1523560">
	<ele>1899.40</ele>
	<time>2025-08-03T08:05:48.000Z</time>
</trkpt>
<trkpt lat="45.9652350" lon="10.1523590">
	<ele>1899.40</ele>
	<time>2025-08-03T08:05:49.000Z</time>
</trkpt>
<trkpt lat="45.9652370" lon="10.1523650">
	<ele>1899.60</ele>
	<time>2025-08-03T08:05:50.000Z</time>
</trkpt>
<trkpt lat="45.9652390" lon="10.1523660">
	<ele>1899.80</ele>
	<time>2025-08-03T08:05:51.000Z</time>
</trkpt>
<trkpt lat="45.9652400" lon="10.1523680">
	<ele>1899.80</ele>
	<time>2025-08-03T08:05:52.000Z</time>
</trkpt>
<trkpt lat="45.9652410" lon="10.1523680">
	<ele>1900.00</ele>
	<time>2025-08-03T08:05:53.000Z</time>
</trkpt>
<trkpt lat="45.9652360" lon="10.1523710">
	<ele>1900.00</ele>
	<time>2025-08-03T08:05:54.000Z</time>
</trkpt>
<trkpt lat="45.9652350" lon="10.1523720">
	<ele>1900.00</ele>
	<time>2025-08-03T08:05:55.000Z</time>
</trkpt>
<trkpt lat="45.9652320" lon="10.1523750">
	<ele>1900.00</ele>
	<time>2025-08-03T08:05:56.000Z</time>
</trkpt>
<trkpt lat="45.9652320" lon="10.1523750">
	<ele>1900.00</ele>
	<time>2025-08-03T08:05:57.000Z</time>
</trkpt>
<trkpt lat="45.9652320" lon="10.1523750">
	<ele>1899.80</ele>
	<time>2025-08-03T08:05:58.000Z</time>
</trkpt>
<trkpt lat="45.9652320" lon="10.1523750">
	<ele>1899.80</ele>
	<time>2025-08-03T08:05:59.000Z</time>
</trkpt>
<trkpt lat="45.9652320" lon="10.1523750">
	<ele>1900.00</ele>
	<time>2025-08-03T08:06:00.000Z</time>
</trkpt>
<trkpt lat="45.9652320" lon="10.1523750">
	<ele>1900.00</ele>
	<time>2025-08-03T08:06:01.000Z</time>
</trkpt>
<trkpt lat="45.9652320" lon="10.1523750">
	<ele>1900.00</ele>
	<time>2025-08-03T08:06:02.000Z</time>
</trkpt>
<trkpt lat="45.9652320" lon="10.1523750">
	<ele>1900.00</ele>
	<time>2025-08-03T08:06:03.000Z</time>
</trkpt>
<trkpt lat="45.9652320" lon="10.1523750">
	<ele>1900.20</ele>
	<time>2025-08-03T08:06:04.000Z</time>
</trkpt>
<trkpt lat="45.9652320" lon="10.1523750">
	<ele>1900.20</ele>
	<time>2025-08-03T08:06:05.000Z</time>
</trkpt>
<trkpt lat="45.9652320" lon="10.1523750">
	<ele>1900.20</ele>
	<time>2025-08-03T08:06:06.000Z</time>
</trkpt>
<trkpt lat="45.9652320" lon="10.1523750">
	<ele>1900.40</ele>
	<time>2025-08-03T08:06:07.000Z</time>
</trkpt>
<trkpt lat="45.9652320" lon="10.1523750">
	<ele>1900.60</ele>
	<time>2025-08-03T08:06:08.000Z</time>
</trkpt>
<trkpt lat="45.9652320" lon="10.1523750">
	<ele>1900.80</ele>
	<time>2025-08-03T08:06:09.000Z</time>
</trkpt>
<trkpt lat="45.9652320" lon="10.1523750">
	<ele>1900.80</ele>
	<time>2025-08-03T08:06:10.000Z</time>
</trkpt>
<trkpt lat="45.9652320" lon="10.1523750">
	<ele>1900.80</ele>
	<time>2025-08-03T08:06:11.000Z</time>
</trkpt>
<trkpt lat="45.9652320" lon="10.1523750">
	<ele>1900.80</ele>
	<time>2025-08-03T08:06:12.000Z</time>
</trkpt>
<trkpt lat="45.9652320" lon="10.1523750">
	<ele>1900.80</ele>
	<time>2025-08-03T08:06:13.000Z</time>
</trkpt>
<trkpt lat="45.9652320" lon="10.1523750">
	<ele>1900.60</ele>
	<time>2025-08-03T08:06:14.000Z</time>
</trkpt>
<trkpt lat="45.9652320" lon="10.1523750">
	<ele>1900.40</ele>
	<time>2025-08-03T08:06:15.000Z</time>
</trkpt>
<trkpt lat="45.9652320" lon="10.1523770">
	<ele>1900.40</ele>
	<time>2025-08-03T08:06:16.000Z</time>
</trkpt>
<trkpt lat="45.9652320" lon="10.1523800">
	<ele>1900.20</ele>
	<time>2025-08-03T08:06:17.000Z</time>
</trkpt>
<trkpt lat="45.9652320" lon="10.1523850">
	<ele>1900.20</ele>
	<time>2025-08-03T08:06:18.000Z</time>
</trkpt>
<trkpt lat="45.9652320" lon="10.1523880">
	<ele>1900.20</ele>
	<time>2025-08-03T08:06:19.000Z</time>
</trkpt>
<trkpt lat="45.9652310" lon="10.1523930">
	<ele>1900.40</ele>
	<time>2025-08-03T08:06:20.000Z</time>
</trkpt>
<trkpt lat="45.9652300" lon="10.1523960">
	<ele>1900.40</ele>
	<time>2025-08-03T08:06:21.000Z</time>
</trkpt>
<trkpt lat="45.9652270" lon="10.1523980">
	<ele>1900.60</ele>
	<time>2025-08-03T08:06:22.000Z</time>
</trkpt>
<trkpt lat="45.9652250" lon="10.1524040">
	<ele>1900.60</ele>
	<time>2025-08-03T08:06:23.000Z</time>
</trkpt>
<trkpt lat="45.9652250" lon="10.1524080">
	<ele>1900.60</ele>
	<time>2025-08-03T08:06:24.000Z</time>
</trkpt>
<trkpt lat="45.9652230" lon="10.1524110">
	<ele>1900.40</ele>
	<time>2025-08-03T08:06:25.000Z</time>
</trkpt>
<trkpt lat="45.9652230" lon="10.1524130">
	<ele>1900.40</ele>
	<time>2025-08-03T08:06:26.000Z</time>
</trkpt>
<trkpt lat="45.9652220" lon="10.1524130">
	<ele>1900.40</ele>
	<time>2025-08-03T08:06:27.000Z</time>
</trkpt>
<trkpt lat="45.9652220" lon="10.1524170">
	<ele>1900.40</ele>
	<time>2025-08-03T08:06:28.000Z</time>
</trkpt>
<trkpt lat="45.9652220" lon="10.1524190">
	<ele>1900.40</ele>
	<time>2025-08-03T08:06:29.000Z</time>
</trkpt>
<trkpt lat="45.9652220" lon="10.1524210">
	<ele>1900.20</ele>
	<time>2025-08-03T08:06:30.000Z</time>
</trkpt>
<trkpt lat="45.9652210" lon="10.1524220">
	<ele>1900.20</ele>
	<time>2025-08-03T08:06:31.000Z</time>
</trkpt>
<trkpt lat="45.9652200" lon="10.1524220">
	<ele>1900.20</ele>
	<time>2025-08-03T08:06:32.000Z</time>
</trkpt>
<trkpt lat="45.9652200" lon="10.1524230">
	<ele>1900.20</ele>
	<time>2025-08-03T08:06:33.000Z</time>
</trkpt>
<trkpt lat="45.9652200" lon="10.1524230">
	<ele>1900.20</ele>
	<time>2025-08-03T08:06:34.000Z</time>
</trkpt>
<trkpt lat="45.9652200" lon="10.1524240">
	<ele>1900.20</ele>
	<time>2025-08-03T08:06:35.000Z</time>
</trkpt>
<trkpt lat="45.9652200" lon="10.1524240">
	<ele>1900.20</ele>
	<time>2025-08-03T08:06:36.000Z</time>
</trkpt>
<trkpt lat="45.9652200" lon="10.1524250">
	<ele>1900.20</ele>
	<time>2025-08-03T08:06:37.000Z</time>
</trkpt>
<trkpt lat="45.9652200" lon="10.1524260">
	<ele>1900.20</ele>
	<time>2025-08-03T08:06:38.000Z</time>
</trkpt>
<trkpt lat="45.9652200" lon="10.1524260">
	<ele>1900.20</ele>
	<time>2025-08-03T08:06:39.000Z</time>
</trkpt>
<trkpt lat="45.9652200" lon="10.1524260">
	<ele>1900.20</ele>
	<time>2025-08-03T08:06:40.000Z</time>
</trkpt>
<trkpt lat="45.9652200" lon="10.1524270">
	<ele>1900.00</ele>
	<time>2025-08-03T08:06:41.000Z</time>
</trkpt>
<trkpt lat="45.9652200" lon="10.1524270">
	<ele>1900.00</ele>
	<time>2025-08-03T08:06:42.000Z</time>
</trkpt>
<trkpt lat="45.9652200" lon="10.1524280">
	<ele>1900.00</ele>
	<time>2025-08-03T08:06:43.000Z</time>
</trkpt>
<trkpt lat="45.9652200" lon="10.1524280">
	<ele>1900.00</ele>
	<time>2025-08-03T08:06:44.000Z</time>
</trkpt>
<trkpt lat="45.9652200" lon="10.1524280">
	<ele>1900.00</ele>
	<time>2025-08-03T08:06:45.000Z</time>
</trkpt>
<trkpt lat="45.9652190" lon="10.1524280">
	<ele>1899.80</ele>
	<time>2025-08-03T08:06:46.000Z</time>
</trkpt>
<trkpt lat="45.9652190" lon="10.1524290">
	<ele>1899.80</ele>
	<time>2025-08-03T08:06:47.000Z</time>
</trkpt>
<trkpt lat="45.9652190" lon="10.1524290">
	<ele>1899.80</ele>
	<time>2025-08-03T08:06:48.000Z</time>
</trkpt>
<trkpt lat="45.9652190" lon="10.1524310">
	<ele>1899.80</ele>
	<time>2025-08-03T08:06:49.000Z</time>
</trkpt>
<trkpt lat="45.9652180" lon="10.1524340">
	<ele>1899.80</ele>
	<time>2025-08-03T08:06:50.000Z</time>
</trkpt>
<trkpt lat="45.9652180" lon="10.1524360">
	<ele>1900.00</ele>
	<time>2025-08-03T08:06:51.000Z</time>
</trkpt>
<trkpt lat="45.9652180" lon="10.1524370">
	<ele>1900.00</ele>
	<time>2025-08-03T08:06:52.000Z</time>
</trkpt>
<trkpt lat="45.9652180" lon="10.1524370">
	<ele>1900.00</ele>
	<time>2025-08-03T08:06:53.000Z</time>
</trkpt>
<trkpt lat="45.9652180" lon="10.1524370">
	<ele>1900.00</ele>
	<time>2025-08-03T08:06:54.000Z</time>
</trkpt>
<trkpt lat="45.9652180" lon="10.1524370">
	<ele>1900.00</ele>
	<time>2025-08-03T08:06:55.000Z</time>
</trkpt>
<trkpt lat="45.9652180" lon="10.1524380">
	<ele>1900.00</ele>
	<time>2025-08-03T08:06:56.000Z</time>
</trkpt>
<trkpt lat="45.9652180" lon="10.1524380">
	<ele>1900.00</ele>
	<time>2025-08-03T08:06:57.000Z</time>
</trkpt>
<trkpt lat="45.9652190" lon="10.1524380">
	<ele>1899.80</ele>
	<time>2025-08-03T08:06:58.000Z</time>
</trkpt>
<trkpt lat="45.9652190" lon="10.1524380">
	<ele>1899.80</ele>
	<time>2025-08-03T08:06:59.000Z</time>
</trkpt>
<trkpt lat="45.9652190" lon="10.1524380">
	<ele>1899.80</ele>
	<time>2025-08-03T08:07:00.000Z</time>
</trkpt>
<trkpt lat="45.9652190" lon="10.1524390">
	<ele>1899.80</ele>
	<time>2025-08-03T08:07:01.000Z</time>
</trkpt>
<trkpt lat="45.9652190" lon="10.1524390">
	<ele>1900.00</ele>
	<time>2025-08-03T08:07:02.000Z</time>
</trkpt>
<trkpt lat="45.9652190" lon="10.1524390">
	<ele>1900.00</ele>
	<time>2025-08-03T08:07:03.000Z</time>
</trkpt>
<trkpt lat="45.9652190" lon="10.1524400">
	<ele>1900.00</ele>
	<time>2025-08-03T08:07:04.000Z</time>
</trkpt>
<trkpt lat="45.9652190" lon="10.1524400">
	<ele>1900.00</ele>
	<time>2025-08-03T08:07:05.000Z</time>
</trkpt>
<trkpt lat="45.9652190" lon="10.1524410">
	<ele>1900.20</ele>
	<time>2025-08-03T08:07:06.000Z</time>
</trkpt>
<trkpt lat="45.9652190" lon="10.1524410">
	<ele>1900.20</ele>
	<time>2025-08-03T08:07:07.000Z</time>
</trkpt>
<trkpt lat="45.9652190" lon="10.1524410">
	<ele>1900.40</ele>
	<time>2025-08-03T08:07:08.000Z</time>
</trkpt>
<trkpt lat="45.9652190" lon="10.1524420">
	<ele>1900.40</ele>
	<time>2025-08-03T08:07:09.000Z</time>
</trkpt>
<trkpt lat="45.9652190" lon="10.1524440">
	<ele>1900.40</ele>
	<time>2025-08-03T08:07:10.000Z</time>
</trkpt>
<trkpt lat="45.9652190" lon="10.1524510">
	<ele>1900.40</ele>
	<time>2025-08-03T08:07:11.000Z</time>
</trkpt>
<trkpt lat="45.9652190" lon="10.1524620">
	<ele>1900.40</ele>
	<time>2025-08-03T08:07:12.000Z</time>
</trkpt>
<trkpt lat="45.9652200" lon="10.1524710">
	<ele>1900.40</ele>
	<time>2025-08-03T08:07:13.000Z</time>
</trkpt>
<trkpt lat="45.9652200" lon="10.1524800">
	<ele>1900.40</ele>
	<time>2025-08-03T08:07:14.000Z</time>
</trkpt>
<trkpt lat="45.9652200" lon="10.1524840">
	<ele>1900.40</ele>
	<time>2025-08-03T08:07:15.000Z</time>
</trkpt>
<trkpt lat="45.9652210" lon="10.1524860">
	<ele>1900.20</ele>
	<time>2025-08-03T08:07:16.000Z</time>
</trkpt>
<trkpt lat="45.9652210" lon="10.1524870">
	<ele>1900.00</ele>
	<time>2025-08-03T08:07:17.000Z</time>
</trkpt>
<trkpt lat="45.9652210" lon="10.1524870">
	<ele>1900.00</ele>
	<time>2025-08-03T08:07:18.000Z</time>
</trkpt>
<trkpt lat="45.9652210" lon="10.1524870">
	<ele>1900.00</ele>
	<time>2025-08-03T08:07:19.000Z</time>
</trkpt>
<trkpt lat="45.9652210" lon="10.1524870">
	<ele>1900.00</ele>
	<time>2025-08-03T08:07:20.000Z</time>
</trkpt>
<trkpt lat="45.9652220" lon="10.1524870">
	<ele>1900.20</ele>
	<time>2025-08-03T08:07:21.000Z</time>
</trkpt>
<trkpt lat="45.9652220" lon="10.1524870">
	<ele>1900.40</ele>
	<time>2025-08-03T08:07:22.000Z</time>
</trkpt>
<trkpt lat="45.9652220" lon="10.1524870">
	<ele>1900.40</ele>
	<time>2025-08-03T08:07:23.000Z</time>
</trkpt>
<trkpt lat="45.9652230" lon="10.1524870">
	<ele>1900.60</ele>
	<time>2025-08-03T08:07:24.000Z</time>
</trkpt>
<trkpt lat="45.9652230" lon="10.1524870">
	<ele>1900.60</ele>
	<time>2025-08-03T08:07:25.000Z</time>
</trkpt>
<trkpt lat="45.9652230" lon="10.1524870">
	<ele>1900.80</ele>
	<time>2025-08-03T08:07:26.000Z</time>
</trkpt>
<trkpt lat="45.9652230" lon="10.1524870">
	<ele>1900.80</ele>
	<time>2025-08-03T08:07:27.000Z</time>
</trkpt>
<trkpt lat="45.9652240" lon="10.1524870">
	<ele>1900.80</ele>
	<time>2025-08-03T08:07:28.000Z</time>
</trkpt>
<trkpt lat="45.9652240" lon="10.1524870">
	<ele>1900.80</ele>
	<time>2025-08-03T08:07:29.000Z</time>
</trkpt>
<trkpt lat="45.9652240" lon="10.1524860">
	<ele>1900.80</ele>
	<time>2025-08-03T08:07:30.000Z</time>
</trkpt>
<trkpt lat="45.9652250" lon="10.1524840">
	<ele>1900.80</ele>
	<time>2025-08-03T08:07:31.000Z</time>
</trkpt>
<trkpt lat="45.9652250" lon="10.1524810">
	<ele>1900.80</ele>
	<time>2025-08-03T08:07:32.000Z</time>
</trkpt>
<trkpt lat="45.9652260" lon="10.1524770">
	<ele>1900.80</ele>
	<time>2025-08-03T08:07:33.000Z</time>
</trkpt>
<trkpt lat="45.9652270" lon="10.1524710">
	<ele>1900.80</ele>
	<time>2025-08-03T08:07:34.000Z</time>
</trkpt>
<trkpt lat="45.9652290" lon="10.1524690">
	<ele>1900.60</ele>
	<time>2025-08-03T08:07:35.000Z</time>
</trkpt>
<trkpt lat="45.9652300" lon="10.1524670">
	<ele>1900.60</ele>
	<time>2025-08-03T08:07:36.000Z</time>
</trkpt>
<trkpt lat="45.9652300" lon="10.1524660">
	<ele>1900.60</ele>
	<time>2025-08-03T08:07:37.000Z</time>
</trkpt>
<trkpt lat="45.9652310" lon="10.1524650">
	<ele>1900.60</ele>
	<time>2025-08-03T08:07:38.000Z</time>
</trkpt>
<trkpt lat="45.9652310" lon="10.1524640">
	<ele>1900.60</ele>
	<time>2025-08-03T08:07:39.000Z</time>
</trkpt>
<trkpt lat="45.9652310" lon="10.1524640">
	<ele>1900.60</ele>
	<time>2025-08-03T08:07:40.000Z</time>
</trkpt>
<trkpt lat="45.9652310" lon="10.1524640">
	<ele>1900.60</ele>
	<time>2025-08-03T08:07:41.000Z</time>
</trkpt>
<trkpt lat="45.9652310" lon="10.1524630">
	<ele>1900.60</ele>
	<time>2025-08-03T08:07:42.000Z</time>
</trkpt>
<trkpt lat="45.9652310" lon="10.1524630">
	<ele>1900.60</ele>
	<time>2025-08-03T08:07:43.000Z</time>
</trkpt>
<trkpt lat="45.9652310" lon="10.1524630">
	<ele>1900.60</ele>
	<time>2025-08-03T08:07:44.000Z</time>
</trkpt>
<trkpt lat="45.9652310" lon="10.1524630">
	<ele>1900.60</ele>
	<time>2025-08-03T08:07:45.000Z</time>
</trkpt>
<trkpt lat="45.9652310" lon="10.1524620">
	<ele>1900.60</ele>
	<time>2025-08-03T08:07:46.000Z</time>
</trkpt>
<trkpt lat="45.9652310" lon="10.1524620">
	<ele>1900.80</ele>
	<time>2025-08-03T08:07:47.000Z</time>
</trkpt>
<trkpt lat="45.9652310" lon="10.1524620">
	<ele>1900.60</ele>
	<time>2025-08-03T08:07:48.000Z</time>
</trkpt>
<trkpt lat="45.9652310" lon="10.1524620">
	<ele>1900.60</ele>
	<time>2025-08-03T08:07:49.000Z</time>
</trkpt>
<trkpt lat="45.9652310" lon="10.1524620">
	<ele>1900.60</ele>
	<time>2025-08-03T08:07:50.000Z</time>
</trkpt>
<trkpt lat="45.9652310" lon="10.1524620">
	<ele>1900.60</ele>
	<time>2025-08-03T08:07:51.000Z</time>
</trkpt>
<trkpt lat="45.9652310" lon="10.1524610">
	<ele>1900.60</ele>
	<time>2025-08-03T08:07:52.000Z</time>
</trkpt>
<trkpt lat="45.9652300" lon="10.1524590">
	<ele>1900.60</ele>
	<time>2025-08-03T08:07:53.000Z</time>
</trkpt>
<trkpt lat="45.9652290" lon="10.1524570">
	<ele>1900.60</ele>
	<time>2025-08-03T08:07:54.000Z</time>
</trkpt>
<trkpt lat="45.9652280" lon="10.1524550">
	<ele>1900.60</ele>
	<time>2025-08-03T08:07:55.000Z</time>
</trkpt>
<trkpt lat="45.9652270" lon="10.1524540">
	<ele>1900.60</ele>
	<time>2025-08-03T08:07:56.000Z</time>
</trkpt>
<trkpt lat="45.9652260" lon="10.1524520">
	<ele>1900.60</ele>
	<time>2025-08-03T08:07:57.000Z</time>
</trkpt>
<trkpt lat="45.9652260" lon="10.1524510">
	<ele>1900.60</ele>
	<time>2025-08-03T08:07:58.000Z</time>
</trkpt>
<trkpt lat="45.9652260" lon="10.1524500">
	<ele>1900.60</ele>
	<time>2025-08-03T08:07:59.000Z</time>
</trkpt>
<trkpt lat="45.9652250" lon="10.1524490">
	<ele>1900.60</ele>
	<time>2025-08-03T08:08:00.000Z</time>
</trkpt>
<trkpt lat="45.9652250" lon="10.1524490">
	<ele>1900.40</ele>
	<time>2025-08-03T08:08:01.000Z</time>
</trkpt>
<trkpt lat="45.9652250" lon="10.1524480">
	<ele>1900.40</ele>
	<time>2025-08-03T08:08:02.000Z</time>
</trkpt>
<trkpt lat="45.9652250" lon="10.1524480">
	<ele>1900.40</ele>
	<time>2025-08-03T08:08:03.000Z</time>
</trkpt>
<trkpt lat="45.9652250" lon="10.1524480">
	<ele>1900.40</ele>
	<time>2025-08-03T08:08:04.000Z</time>
</trkpt>
<trkpt lat="45.9652250" lon="10.1524480">
	<ele>1900.60</ele>
	<time>2025-08-03T08:08:05.000Z</time>
</trkpt>
<trkpt lat="45.9652250" lon="10.1524470">
	<ele>1900.60</ele>
	<time>2025-08-03T08:08:06.000Z</time>
</trkpt>
<trkpt lat="45.9652250" lon="10.1524470">
	<ele>1900.60</ele>
	<time>2025-08-03T08:08:07.000Z</time>
</trkpt>
<trkpt lat="45.9652250" lon="10.1524470">
	<ele>1900.60</ele>
	<time>2025-08-03T08:08:08.000Z</time>
</trkpt>
<trkpt lat="45.9652250" lon="10.1524470">
	<ele>1900.80</ele>
	<time>2025-08-03T08:08:09.000Z</time>
</trkpt>
<trkpt lat="45.9652250" lon="10.1524470">
	<ele>1900.80</ele>
	<time>2025-08-03T08:08:10.000Z</time>
</trkpt>
<trkpt lat="45.9652250" lon="10.1524460">
	<ele>1900.80</ele>
	<time>2025-08-03T08:08:11.000Z</time>
</trkpt>
<trkpt lat="45.9652250" lon="10.1524460">
	<ele>1900.80</ele>
	<time>2025-08-03T08:08:12.000Z</time>
</trkpt>
<trkpt lat="45.9652250" lon="10.1524460">
	<ele>1900.80</ele>
	<time>2025-08-03T08:08:13.000Z</time>
</trkpt>
<trkpt lat="45.9652250" lon="10.1524460">
	<ele>1900.80</ele>
	<time>2025-08-03T08:08:14.000Z</time>
</trkpt>
<trkpt lat="45.9652260" lon="10.1524460">
	<ele>1900.80</ele>
	<time>2025-08-03T08:08:15.000Z</time>
</trkpt>
<trkpt lat="45.9652260" lon="10.1524460">
	<ele>1900.80</ele>
	<time>2025-08-03T08:08:16.000Z</time>
</trkpt>
<trkpt lat="45.9652260" lon="10.1524460">
	<ele>1900.80</ele>
	<time>2025-08-03T08:08:17.000Z</time>
</trkpt>
<trkpt lat="45.9652270" lon="10.1524470">
	<ele>1900.80</ele>
	<time>2025-08-03T08:08:18.000Z</time>
</trkpt>
<trkpt lat="45.9652270" lon="10.1524470">
	<ele>1900.80</ele>
	<time>2025-08-03T08:08:19.000Z</time>
</trkpt>
<trkpt lat="45.9652280" lon="10.1524470">
	<ele>1900.80</ele>
	<time>2025-08-03T08:08:20.000Z</time>
</trkpt>
<trkpt lat="45.9652280" lon="10.1524470">
	<ele>1900.80</ele>
	<time>2025-08-03T08:08:21.000Z</time>
</trkpt>
<trkpt lat="45.9652280" lon="10.1524470">
	<ele>1901.00</ele>
	<time>2025-08-03T08:08:22.000Z</time>
</trkpt>
<trkpt lat="45.9652280" lon="10.1524470">
	<ele>1901.00</ele>
	<time>2025-08-03T08:08:23.000Z</time>
</trkpt>
<trkpt lat="45.9652280" lon="10.1524490">
	<ele>1901.00</ele>
	<time>2025-08-03T08:08:24.000Z</time>
</trkpt>
<trkpt lat="45.9652280" lon="10.1524510">
	<ele>1901.00</ele>
	<time>2025-08-03T08:08:25.000Z</time>
</trkpt>
<trkpt lat="45.9652280" lon="10.1524540">
	<ele>1901.00</ele>
	<time>2025-08-03T08:08:26.000Z</time>
</trkpt>
<trkpt lat="45.9652290" lon="10.1524570">
	<ele>1901.00</ele>
	<time>2025-08-03T08:08:27.000Z</time>
</trkpt>
<trkpt lat="45.9652290" lon="10.1524590">
	<ele>1901.20</ele>
	<time>2025-08-03T08:08:28.000Z</time>
</trkpt>
<trkpt lat="45.9652290" lon="10.1524610">
	<ele>1901.20</ele>
	<time>2025-08-03T08:08:29.000Z</time>
</trkpt>
<trkpt lat="45.9652290" lon="10.1524630">
	<ele>1901.20</ele>
	<time>2025-08-03T08:08:30.000Z</time>
</trkpt>
<trkpt lat="45.9652290" lon="10.1524640">
	<ele>1901.20</ele>
	<time>2025-08-03T08:08:31.000Z</time>
</trkpt>
<trkpt lat="45.9652290" lon="10.1524640">
	<ele>1901.20</ele>
	<time>2025-08-03T08:08:32.000Z</time>
</trkpt>
<trkpt lat="45.9652290" lon="10.1524650">
	<ele>1901.20</ele>
	<time>2025-08-03T08:08:33.000Z</time>
</trkpt>
<trkpt lat="45.9652290" lon="10.1524650">
	<ele>1901.20</ele>
	<time>2025-08-03T08:08:34.000Z</time>
</trkpt>
<trkpt lat="45.9652290" lon="10.1524660">
	<ele>1901.20</ele>
	<time>2025-08-03T08:08:35.000Z</time>
</trkpt>
<trkpt lat="45.9652290" lon="10.1524660">
	<ele>1901.20</ele>
	<time>2025-08-03T08:08:36.000Z</time>
</trkpt>
<trkpt lat="45.9652290" lon="10.1524660">
	<ele>1901.20</ele>
	<time>2025-08-03T08:08:37.000Z</time>
</trkpt>
<trkpt lat="45.9652290" lon="10.1524660">
	<ele>1901.20</ele>
	<time>2025-08-03T08:08:38.000Z</time>
</trkpt>
<trkpt lat="45.9652290" lon="10.1524660">
	<ele>1901.20</ele>
	<time>2025-08-03T08:08:39.000Z</time>
</trkpt>
<trkpt lat="45.9652290" lon="10.1524660">
	<ele>1901.20</ele>
	<time>2025-08-03T08:08:40.000Z</time>
</trkpt>
<trkpt lat="45.9652290" lon="10.1524670">
	<ele>1901.20</ele>
	<time>2025-08-03T08:08:41.000Z</time>
</trkpt>
<trkpt lat="45.9652290" lon="10.1524670">
	<ele>1901.20</ele>
	<time>2025-08-03T08:08:42.000Z</time>
</trkpt>
<trkpt lat="45.9652290" lon="10.1524660">
	<ele>1901.40</ele>
	<time>2025-08-03T08:08:43.000Z</time>
</trkpt>
<trkpt lat="45.9652290" lon="10.1524660">
	<ele>1901.40</ele>
	<time>2025-08-03T08:08:44.000Z</time>
</trkpt>
<trkpt lat="45.9652290" lon="10.1524660">
	<ele>1901.40</ele>
	<time>2025-08-03T08:08:45.000Z</time>
</trkpt>
<trkpt lat="45.9652290" lon="10.1524660">
	<ele>1901.40</ele>
	<time>2025-08-03T08:08:46.000Z</time>
</trkpt>
<trkpt lat="45.9652280" lon="10.1524650">
	<ele>1901.40</ele>
	<time>2025-08-03T08:08:47.000Z</time>
</trkpt>
<trkpt lat="45.9652280" lon="10.1524650">
	<ele>1901.40</ele>
	<time>2025-08-03T08:08:48.000Z</time>
</trkpt>
<trkpt lat="45.9652280" lon="10.1524650">
	<ele>1901.20</ele>
	<time>2025-08-03T08:08:49.000Z</time>
</trkpt>
<trkpt lat="45.9652280" lon="10.1524650">
	<ele>1901.20</ele>
	<time>2025-08-03T08:08:50.000Z</time>
</trkpt>
<trkpt lat="45.9652280" lon="10.1524650">
	<ele>1901.20</ele>
	<time>2025-08-03T08:08:51.000Z</time>
</trkpt>
<trkpt lat="45.9652280" lon="10.1524650">
	<ele>1901.20</ele>
	<time>2025-08-03T08:08:52.000Z</time>
</trkpt>
<trkpt lat="45.9652280" lon="10.1524650">
	<ele>1901.20</ele>
	<time>2025-08-03T08:08:53.000Z</time>
</trkpt>
<trkpt lat="45.9652280" lon="10.1524650">
	<ele>1901.20</ele>
	<time>2025-08-03T08:08:54.000Z</time>
</trkpt>
<trkpt lat="45.9652280" lon="10.1524650">
	<ele>1901.20</ele>
	<time>2025-08-03T08:08:55.000Z</time>
</trkpt>
<trkpt lat="45.9652270" lon="10.1524650">
	<ele>1901.00</ele>
	<time>2025-08-03T08:08:56.000Z</time>
</trkpt>
<trkpt lat="45.9652270" lon="10.1524650">
	<ele>1901.00</ele>
	<time>2025-08-03T08:08:57.000Z</time>
</trkpt>
<trkpt lat="45.9652270" lon="10.1524640">
	<ele>1901.00</ele>
	<time>2025-08-03T08:08:58.000Z</time>
</trkpt>
<trkpt lat="45.9652270" lon="10.1524640">
	<ele>1901.00</ele>
	<time>2025-08-03T08:08:59.000Z</time>
</trkpt>
<trkpt lat="45.9652270" lon="10.1524650">
	<ele>1901.00</ele>
	<time>2025-08-03T08:09:00.000Z</time>
</trkpt>
<trkpt lat="45.9652270" lon="10.1524650">
	<ele>1901.00</ele>
	<time>2025-08-03T08:09:01.000Z</time>
</trkpt>
<trkpt lat="45.9652260" lon="10.1524650">
	<ele>1901.00</ele>
	<time>2025-08-03T08:09:02.000Z</time>
</trkpt>
<trkpt lat="45.9652260" lon="10.1524650">
	<ele>1901.00</ele>
	<time>2025-08-03T08:09:03.000Z</time>
</trkpt>
<trkpt lat="45.9652260" lon="10.1524650">
	<ele>1901.20</ele>
	<time>2025-08-03T08:09:04.000Z</time>
</trkpt>
<trkpt lat="45.9652260" lon="10.1524650">
	<ele>1901.00</ele>
	<time>2025-08-03T08:09:05.000Z</time>
</trkpt>
<trkpt lat="45.9652260" lon="10.1524650">
	<ele>1901.20</ele>
	<time>2025-08-03T08:09:06.000Z</time>
</trkpt>
<trkpt lat="45.9652260" lon="10.1524650">
	<ele>1901.20</ele>
	<time>2025-08-03T08:09:07.000Z</time>
</trkpt>
<trkpt lat="45.9652260" lon="10.1524650">
	<ele>1901.20</ele>
	<time>2025-08-03T08:09:08.000Z</time>
</trkpt>
<trkpt lat="45.9652250" lon="10.1524660">
	<ele>1901.20</ele>
	<time>2025-08-03T08:09:09.000Z</time>
</trkpt>
<trkpt lat="45.9652250" lon="10.1524660">
	<ele>1901.20</ele>
	<time>2025-08-03T08:09:10.000Z</time>
</trkpt>
<trkpt lat="45.9652250" lon="10.1524660">
	<ele>1901.20</ele>
	<time>2025-08-03T08:09:11.000Z</time>
</trkpt>
<trkpt lat="45.9652250" lon="10.1524660">
	<ele>1901.20</ele>
	<time>2025-08-03T08:09:12.000Z</time>
</trkpt>
<trkpt lat="45.9652250" lon="10.1524660">
	<ele>1901.20</ele>
	<time>2025-08-03T08:09:13.000Z</time>
</trkpt>
<trkpt lat="45.9652250" lon="10.1524660">
	<ele>1901.20</ele>
	<time>2025-08-03T08:09:14.000Z</time>
</trkpt>
<trkpt lat="45.9652250" lon="10.1524660">
	<ele>1901.20</ele>
	<time>2025-08-03T08:09:15.000Z</time>
</trkpt>
<trkpt lat="45.9652250" lon="10.1524660">
	<ele>1901.20</ele>
	<time>2025-08-03T08:09:16.000Z</time>
</trkpt>
<trkpt lat="45.9652250" lon="10.1524660">
	<ele>1901.20</ele>
	<time>2025-08-03T08:09:17.000Z</time>
</trkpt>
<trkpt lat="45.9652250" lon="10.1524660">
	<ele>1901.20</ele>
	<time>2025-08-03T08:09:18.000Z</time>
</trkpt>
<trkpt lat="45.9652250" lon="10.1524660">
	<ele>1901.20</ele>
	<time>2025-08-03T08:09:19.000Z</time>
</trkpt>
<trkpt lat="45.9652250" lon="10.1524660">
	<ele>1901.20</ele>
	<time>2025-08-03T08:09:20.000Z</time>
</trkpt>
<trkpt lat="45.9652250" lon="10.1524660">
	<ele>1901.20</ele>
	<time>2025-08-03T08:09:21.000Z</time>
</trkpt>
<trkpt lat="45.9652250" lon="10.1524660">
	<ele>1901.20</ele>
	<time>2025-08-03T08:09:22.000Z</time>
</trkpt>
<trkpt lat="45.9652250" lon="10.1524660">
	<ele>1901.20</ele>
	<time>2025-08-03T08:09:23.000Z</time>
</trkpt>
<trkpt lat="45.9652250" lon="10.1524660">
	<ele>1901.20</ele>
	<time>2025-08-03T08:09:24.000Z</time>
</trkpt>
<trkpt lat="45.9652250" lon="10.1524660">
	<ele>1901.20</ele>
	<time>2025-08-03T08:09:25.000Z</time>
</trkpt>
<trkpt lat="45.9652250" lon="10.1524650">
	<ele>1901.20</ele>
	<time>2025-08-03T08:09:26.000Z</time>
</trkpt>
<trkpt lat="45.9652250" lon="10.1524650">
	<ele>1901.20</ele>
	<time>2025-08-03T08:09:27.000Z</time>
</trkpt>
<trkpt lat="45.9652250" lon="10.1524650">
	<ele>1901.20</ele>
	<time>2025-08-03T08:09:28.000Z</time>
</trkpt>
<trkpt lat="45.9652250" lon="10.1524650">
	<ele>1901.20</ele>
	<time>2025-08-03T08:09:29.000Z</time>
</trkpt>
<trkpt lat="45.9652250" lon="10.1524650">
	<ele>1901.20</ele>
	<time>2025-08-03T08:09:30.000Z</time>
</trkpt>
<trkpt lat="45.9652250" lon="10.1524650">
	<ele>1901.20</ele>
	<time>2025-08-03T08:09:31.000Z</time>
</trkpt>
<trkpt lat="45.9652250" lon="10.1524650">
	<ele>1901.20</ele>
	<time>2025-08-03T08:09:32.000Z</time>
</trkpt>
<trkpt lat="45.9652250" lon="10.1524650">
	<ele>1901.20</ele>
	<time>2025-08-03T08:09:33.000Z</time>
</trkpt>
<trkpt lat="45.9652250" lon="10.1524650">
	<ele>1901.20</ele>
	<time>2025-08-03T08:09:34.000Z</time>
</trkpt>
<trkpt lat="45.9652250" lon="10.1524650">
	<ele>1901.20</ele>
	<time>2025-08-03T08:09:35.000Z</time>
</trkpt>
<trkpt lat="45.9652250" lon="10.1524650">
	<ele>1901.20</ele>
	<time>2025-08-03T08:09:36.000Z</time>
</trkpt>
<trkpt lat="45.9652250" lon="10.1524650">
	<ele>1901.20</ele>
	<time>2025-08-03T08:09:37.000Z</time>
</trkpt>
<trkpt lat="45.9652250" lon="10.1524650">
	<ele>1901.20</ele>
	<time>2025-08-03T08:09:38.000Z</time>
</trkpt>
<trkpt lat="45.9652250" lon="10.1524640">
	<ele>1901.20</ele>
	<time>2025-08-03T08:09:39.000Z</time>
</trkpt>
<trkpt lat="45.9652250" lon="10.1524640">
	<ele>1901.20</ele>
	<time>2025-08-03T08:09:40.000Z</time>
</trkpt>
<trkpt lat="45.9652250" lon="10.1524640">
	<ele>1901.20</ele>
	<time>2025-08-03T08:09:41.000Z</time>
</trkpt>
<trkpt lat="45.9652250" lon="10.1524640">
	<ele>1901.20</ele>
	<time>2025-08-03T08:09:42.000Z</time>
</trkpt>
<trkpt lat="45.9652250" lon="10.1524640">
	<ele>1901.20</ele>
	<time>2025-08-03T08:09:43.000Z</time>
</trkpt>
<trkpt lat="45.9652250" lon="10.1524640">
	<ele>1901.20</ele>
	<time>2025-08-03T08:09:44.000Z</time>
</trkpt>
<trkpt lat="45.9652250" lon="10.1524640">
	<ele>1901.20</ele>
	<time>2025-08-03T08:09:45.000Z</time>
</trkpt>
<trkpt lat="45.9652250" lon="10.1524640">
	<ele>1901.20</ele>
	<time>2025-08-03T08:09:46.000Z</time>
</trkpt>
<trkpt lat="45.9652250" lon="10.1524640">
	<ele>1901.20</ele>
	<time>2025-08-03T08:09:47.000Z</time>
</trkpt>
<trkpt lat="45.9652250" lon="10.1524640">
	<ele>1901.20</ele>
	<time>2025-08-03T08:09:48.000Z</time>
</trkpt>
<trkpt lat="45.9652250" lon="10.1524640">
	<ele>1901.20</ele>
	<time>2025-08-03T08:09:49.000Z</time>
</trkpt>
<trkpt lat="45.9652250" lon="10.1524640">
	<ele>1901.20</ele>
	<time>2025-08-03T08:09:50.000Z</time>
</trkpt>
<trkpt lat="45.9652250" lon="10.1524640">
	<ele>1901.20</ele>
	<time>2025-08-03T08:09:51.000Z</time>
</trkpt>
<trkpt lat="45.9652250" lon="10.1524640">
	<ele>1901.20</ele>
	<time>2025-08-03T08:09:52.000Z</time>
</trkpt>
<trkpt lat="45.9652250" lon="10.1524640">
	<ele>1901.20</ele>
	<time>2025-08-03T08:09:53.000Z</time>
</trkpt>
<trkpt lat="45.9652250" lon="10.1524640">
	<ele>1901.20</ele>
	<time>2025-08-03T08:09:54.000Z</time>
</trkpt>
<trkpt lat="45.9652250" lon="10.1524640">
	<ele>1901.20</ele>
	<time>2025-08-03T08:09:55.000Z</time>
</trkpt>
<trkpt lat="45.9652250" lon="10.1524640">
	<ele>1901.20</ele>
	<time>2025-08-03T08:09:56.000Z</time>
</trkpt>
<trkpt lat="45.9652250" lon="10.1524640">
	<ele>1901.20</ele>
	<time>2025-08-03T08:09:57.000Z</time>
</trkpt>
<trkpt lat="45.9652250" lon="10.1524640">
	<ele>1901.20</ele>
	<time>2025-08-03T08:09:58.000Z</time>
</trkpt>
<trkpt lat="45.9652260" lon="10.1524640">
	<ele>1901.20</ele>
	<time>2025-08-03T08:09:59.000Z</time>
</trkpt>
<trkpt lat="45.9652260" lon="10.1524640">
	<ele>1901.20</ele>
	<time>2025-08-03T08:10:00.000Z</time>
</trkpt>
<trkpt lat="45.9652260" lon="10.1524630">
	<ele>1901.20</ele>
	<time>2025-08-03T08:10:01.000Z</time>
</trkpt>
<trkpt lat="45.9652260" lon="10.1524630">
	<ele>1901.20</ele>
	<time>2025-08-03T08:10:02.000Z</time>
</trkpt>
<trkpt lat="45.9652260" lon="10.1524630">
	<ele>1901.20</ele>
	<time>2025-08-03T08:10:03.000Z</time>
</trkpt>
<trkpt lat="45.9652260" lon="10.1524630">
	<ele>1901.20</ele>
	<time>2025-08-03T08:10:04.000Z</time>
</trkpt>
<trkpt lat="45.9652260" lon="10.1524630">
	<ele>1901.20</ele>
	<time>2025-08-03T08:10:05.000Z</time>
</trkpt>
<trkpt lat="45.9652260" lon="10.1524630">
	<ele>1901.20</ele>
	<time>2025-08-03T08:10:06.000Z</time>
</trkpt>
<trkpt lat="45.9652260" lon="10.1524630">
	<ele>1901.20</ele>
	<time>2025-08-03T08:10:07.000Z</time>
</trkpt>
<trkpt lat="45.9652260" lon="10.1524630">
	<ele>1901.20</ele>
	<time>2025-08-03T08:10:08.000Z</time>
</trkpt>
<trkpt lat="45.9652260" lon="10.1524630">
	<ele>1901.20</ele>
	<time>2025-08-03T08:10:09.000Z</time>
</trkpt>
<trkpt lat="45.9652250" lon="10.1524630">
	<ele>1901.20</ele>
	<time>2025-08-03T08:10:10.000Z</time>
</trkpt>
<trkpt lat="45.9652250" lon="10.1524630">
	<ele>1901.20</ele>
	<time>2025-08-03T08:10:11.000Z</time>
</trkpt>
<trkpt lat="45.9652250" lon="10.1524640">
	<ele>1901.20</ele>
	<time>2025-08-03T08:10:12.000Z</time>
</trkpt>
<trkpt lat="45.9652250" lon="10.1524640">
	<ele>1901.20</ele>
	<time>2025-08-03T08:10:13.000Z</time>
</trkpt>
<trkpt lat="45.9652260" lon="10.1524640">
	<ele>1901.20</ele>
	<time>2025-08-03T08:10:14.000Z</time>
</trkpt>
<trkpt lat="45.9652260" lon="10.1524630">
	<ele>1901.20</ele>
	<time>2025-08-03T08:10:15.000Z</time>
</trkpt>
<trkpt lat="45.9652260" lon="10.1524630">
	<ele>1901.20</ele>
	<time>2025-08-03T08:10:16.000Z</time>
</trkpt>
<trkpt lat="45.9652260" lon="10.1524630">
	<ele>1901.20</ele>
	<time>2025-08-03T08:10:17.000Z</time>
</trkpt>
<trkpt lat="45.9652260" lon="10.1524630">
	<ele>1901.20</ele>
	<time>2025-08-03T08:10:18.000Z</time>
</trkpt>
<trkpt lat="45.9652260" lon="10.1524630">
	<ele>1901.20</ele>
	<time>2025-08-03T08:10:19.000Z</time>
</trkpt>
<trkpt lat="45.9652260" lon="10.1524630">
	<ele>1901.20</ele>
	<time>2025-08-03T08:10:20.000Z</time>
</trkpt>
<trkpt lat="45.9652260" lon="10.1524630">
	<ele>1901.20</ele>
	<time>2025-08-03T08:10:21.000Z</time>
</trkpt>
<trkpt lat="45.9652260" lon="10.1524640">
	<ele>1901.20</ele>
	<time>2025-08-03T08:10:22.000Z</time>
</trkpt>
<trkpt lat="45.9652260" lon="10.1524630">
	<ele>1901.20</ele>
	<time>2025-08-03T08:10:23.000Z</time>
</trkpt>
<trkpt lat="45.9652260" lon="10.1524640">
	<ele>1901.20</ele>
	<time>2025-08-03T08:10:24.000Z</time>
</trkpt>
<trkpt lat="45.9652260" lon="10.1524640">
	<ele>1901.20</ele>
	<time>2025-08-03T08:10:25.000Z</time>
</trkpt>
<trkpt lat="45.9652260" lon="10.1524640">
	<ele>1901.20</ele>
	<time>2025-08-03T08:10:26.000Z</time>
</trkpt>
<trkpt lat="45.9652260" lon="10.1524640">
	<ele>1901.20</ele>
	<time>2025-08-03T08:10:27.000Z</time>
</trkpt>
<trkpt lat="45.9652260" lon="10.1524640">
	<ele>1901.20</ele>
	<time>2025-08-03T08:10:28.000Z</time>
</trkpt>
<trkpt lat="45.9652260" lon="10.1524640">
	<ele>1901.20</ele>
	<time>2025-08-03T08:10:29.000Z</time>
</trkpt>
<trkpt lat="45.9652260" lon="10.1524640">
	<ele>1901.20</ele>
	<time>2025-08-03T08:10:30.000Z</time>
</trkpt>
<trkpt lat="45.9652260" lon="10.1524630">
	<ele>1901.20</ele>
	<time>2025-08-03T08:10:31.000Z</time>
</trkpt>
<trkpt lat="45.9652260" lon="10.1524630">
	<ele>1901.20</ele>
	<time>2025-08-03T08:10:32.000Z</time>
</trkpt>
<trkpt lat="45.9652260" lon="10.1524640">
	<ele>1901.20</ele>
	<time>2025-08-03T08:10:33.000Z</time>
</trkpt>
<trkpt lat="45.9652260" lon="10.1524640">
	<ele>1901.20</ele>
	<time>2025-08-03T08:10:34.000Z</time>
</trkpt>
<trkpt lat="45.9652260" lon="10.1524640">
	<ele>1901.20</ele>
	<time>2025-08-03T08:10:35.000Z</time>
</trkpt>
<trkpt lat="45.9652260" lon="10.1524640">
	<ele>1901.20</ele>
	<time>2025-08-03T08:10:36.000Z</time>
</trkpt>
<trkpt lat="45.9652260" lon="10.1524630">
	<ele>1901.20</ele>
	<time>2025-08-03T08:10:37.000Z</time>
</trkpt>
<trkpt lat="45.9652260" lon="10.1524630">
	<ele>1901.20</ele>
	<time>2025-08-03T08:10:38.000Z</time>
</trkpt>
<trkpt lat="45.9652260" lon="10.1524630">
	<ele>1901.20</ele>
	<time>2025-08-03T08:10:39.000Z</time>
</trkpt>
<trkpt lat="45.9652260" lon="10.1524640">
	<ele>1901.20</ele>
	<time>2025-08-03T08:10:40.000Z</time>
</trkpt>
<trkpt lat="45.9652260" lon="10.1524640">
	<ele>1901.20</ele>
	<time>2025-08-03T08:10:41.000Z</time>
</trkpt>
<trkpt lat="45.9652260" lon="10.1524640">
	<ele>1901.20</ele>
	<time>2025-08-03T08:10:42.000Z</time>
</trkpt>
<trkpt lat="45.9652260" lon="10.1524640">
	<ele>1901.20</ele>
	<time>2025-08-03T08:10:43.000Z</time>
</trkpt>
<trkpt lat="45.9652260" lon="10.1524640">
	<ele>1901.20</ele>
	<time>2025-08-03T08:10:44.000Z</time>
</trkpt>
<trkpt lat="45.9652260" lon="10.1524640">
	<ele>1901.20</ele>
	<time>2025-08-03T08:10:45.000Z</time>
</trkpt>
<trkpt lat="45.9652270" lon="10.1524740">
	<ele>1901.20</ele>
	<time>2025-08-03T08:10:46.000Z</time>
</trkpt>
<trkpt lat="45.9652330" lon="10.1524950">
	<ele>1901.20</ele>
	<time>2025-08-03T08:10:47.000Z</time>
</trkpt>
<trkpt lat="45.9652400" lon="10.1525180">
	<ele>1901.20</ele>
	<time>2025-08-03T08:10:48.000Z</time>
</trkpt>
<trkpt lat="45.9652450" lon="10.1525430">
	<ele>1901.20</ele>
	<time>2025-08-03T08:10:49.000Z</time>
</trkpt>
<trkpt lat="45.9652540" lon="10.1525670">
	<ele>1901.20</ele>
	<time>2025-08-03T08:10:50.000Z</time>
</trkpt>
<trkpt lat="45.9652630" lon="10.1525880">
	<ele>1901.20</ele>
	<time>2025-08-03T08:10:51.000Z</time>
</trkpt>
<trkpt lat="45.9652730" lon="10.1526100">
	<ele>1901.20</ele>
	<time>2025-08-03T08:10:52.000Z</time>
</trkpt>
<trkpt lat="45.9652820" lon="10.1526330">
	<ele>1901.20</ele>
	<time>2025-08-03T08:10:53.000Z</time>
</trkpt>
<trkpt lat="45.9652870" lon="10.1526580">
	<ele>1901.20</ele>
	<time>2025-08-03T08:10:54.000Z</time>
</trkpt>
<trkpt lat="45.9652930" lon="10.1526840">
	<ele>1901.20</ele>
	<time>2025-08-03T08:10:55.000Z</time>
</trkpt>
<trkpt lat="45.9653010" lon="10.1526980">
	<ele>1899.00</ele>
	<time>2025-08-03T08:10:56.000Z</time>
</trkpt>
<trkpt lat="45.9653090" lon="10.1527090">
	<ele>1897.80</ele>
	<time>2025-08-03T08:10:57.000Z</time>
</trkpt>
<trkpt lat="45.9653180" lon="10.1527230">
	<ele>1896.40</ele>
	<time>2025-08-03T08:10:58.000Z</time>
</trkpt>
<trkpt lat="45.9653270" lon="10.1527340">
	<ele>1895.80</ele>
	<time>2025-08-03T08:10:59.000Z</time>
</trkpt>
<trkpt lat="45.9653340" lon="10.1527460">
	<ele>1895.60</ele>
	<time>2025-08-03T08:11:00.000Z</time>
</trkpt>
<trkpt lat="45.9653400" lon="10.1527580">
	<ele>1895.20</ele>
	<time>2025-08-03T08:11:01.000Z</time>
</trkpt>
<trkpt lat="45.9653480" lon="10.1527700">
	<ele>1895.20</ele>
	<time>2025-08-03T08:11:02.000Z</time>
</trkpt>
<trkpt lat="45.9653560" lon="10.1527830">
	<ele>1895.00</ele>
	<time>2025-08-03T08:11:03.000Z</time>
</trkpt>
<trkpt lat="45.9653630" lon="10.1527990">
	<ele>1894.80</ele>
	<time>2025-08-03T08:11:04.000Z</time>
</trkpt>
<trkpt lat="45.9653710" lon="10.1528100">
	<ele>1894.40</ele>
	<time>2025-08-03T08:11:05.000Z</time>
</trkpt>
<trkpt lat="45.9653820" lon="10.1528210">
	<ele>1894.20</ele>
	<time>2025-08-03T08:11:06.000Z</time>
</trkpt>
<trkpt lat="45.9653920" lon="10.1528340">
	<ele>1893.80</ele>
	<time>2025-08-03T08:11:07.000Z</time>
</trkpt>
<trkpt lat="45.9654020" lon="10.1528470">
	<ele>1893.60</ele>
	<time>2025-08-03T08:11:08.000Z</time>
</trkpt>
<trkpt lat="45.9654120" lon="10.1528590">
	<ele>1893.40</ele>
	<time>2025-08-03T08:11:09.000Z</time>
</trkpt>
<trkpt lat="45.9654180" lon="10.1528720">
	<ele>1893.20</ele>
	<time>2025-08-03T08:11:10.000Z</time>
</trkpt>
<trkpt lat="45.9654250" lon="10.1528830">
	<ele>1893.00</ele>
	<time>2025-08-03T08:11:11.000Z</time>
</trkpt>
<trkpt lat="45.9654320" lon="10.1528950">
	<ele>1892.80</ele>
	<time>2025-08-03T08:11:12.000Z</time>
</trkpt>
<trkpt lat="45.9654400" lon="10.1529070">
	<ele>1892.60</ele>
	<time>2025-08-03T08:11:13.000Z</time>
</trkpt>
<trkpt lat="45.9654490" lon="10.1529200">
	<ele>1892.60</ele>
	<time>2025-08-03T08:11:14.000Z</time>
</trkpt>
<trkpt lat="45.9654560" lon="10.1529330">
	<ele>1892.40</ele>
	<time>2025-08-03T08:11:15.000Z</time>
</trkpt>
<trkpt lat="45.9654640" lon="10.1529480">
	<ele>1892.00</ele>
	<time>2025-08-03T08:11:16.000Z</time>
</trkpt>
<trkpt lat="45.9654710" lon="10.1529680">
	<ele>1891.80</ele>
	<time>2025-08-03T08:11:17.000Z</time>
</trkpt>
<trkpt lat="45.9654770" lon="10.1529880">
	<ele>1891.60</ele>
	<time>2025-08-03T08:11:18.000Z</time>
</trkpt>
<trkpt lat="45.9654860" lon="10.1530080">
	<ele>1891.60</ele>
	<time>2025-08-03T08:11:19.000Z</time>
</trkpt>
<trkpt lat="45.9654940" lon="10.1530280">
	<ele>1891.20</ele>
	<time>2025-08-03T08:11:20.000Z</time>
</trkpt>
<trkpt lat="45.9655040" lon="10.1530430">
	<ele>1891.00</ele>
	<time>2025-08-03T08:11:21.000Z</time>
</trkpt>
<trkpt lat="45.9655140" lon="10.1530580">
	<ele>1890.80</ele>
	<time>2025-08-03T08:11:22.000Z</time>
</trkpt>
<trkpt lat="45.9655200" lon="10.1530740">
	<ele>1890.60</ele>
	<time>2025-08-03T08:11:23.000Z</time>
</trkpt>
<trkpt lat="45.9655260" lon="10.1530910">
	<ele>1890.60</ele>
	<time>2025-08-03T08:11:24.000Z</time>
</trkpt>
<trkpt lat="45.9655320" lon="10.1531080">
	<ele>1890.40</ele>
	<time>2025-08-03T08:11:25.000Z</time>
</trkpt>
<trkpt lat="45.9655380" lon="10.1531250">
	<ele>1890.60</ele>
	<time>2025-08-03T08:11:26.000Z</time>
</trkpt>
<trkpt lat="45.9655460" lon="10.1531400">
	<ele>1890.60</ele>
	<time>2025-08-03T08:11:27.000Z</time>
</trkpt>
<trkpt lat="45.9655520" lon="10.1531520">
	<ele>1890.80</ele>
	<time>2025-08-03T08:11:28.000Z</time>
</trkpt>
<trkpt lat="45.9655580" lon="10.1531640">
	<ele>1890.80</ele>
	<time>2025-08-03T08:11:29.000Z</time>
</trkpt>
<trkpt lat="45.9655630" lon="10.1531750">
	<ele>1890.80</ele>
	<time>2025-08-03T08:11:30.000Z</time>
</trkpt>
<trkpt lat="45.9655690" lon="10.1531860">
	<ele>1890.80</ele>
	<time>2025-08-03T08:11:31.000Z</time>
</trkpt>
<trkpt lat="45.9655760" lon="10.1531930">
	<ele>1891.00</ele>
	<time>2025-08-03T08:11:32.000Z</time>
</trkpt>
<trkpt lat="45.9655830" lon="10.1532040">
	<ele>1891.20</ele>
	<time>2025-08-03T08:11:33.000Z</time>
</trkpt>
<trkpt lat="45.9655900" lon="10.1532170">
	<ele>1891.20</ele>
	<time>2025-08-03T08:11:34.000Z</time>
</trkpt>
<trkpt lat="45.9655970" lon="10.1532320">
	<ele>1891.40</ele>
	<time>2025-08-03T08:11:35.000Z</time>
</trkpt>
<trkpt lat="45.9656020" lon="10.1532440">
	<ele>1891.60</ele>
	<time>2025-08-03T08:11:36.000Z</time>
</trkpt>
<trkpt lat="45.9656060" lon="10.1532560">
	<ele>1891.80</ele>
	<time>2025-08-03T08:11:37.000Z</time>
</trkpt>
<trkpt lat="45.9656130" lon="10.1532670">
	<ele>1892.00</ele>
	<time>2025-08-03T08:11:38.000Z</time>
</trkpt>
<trkpt lat="45.9656210" lon="10.1532800">
	<ele>1892.00</ele>
	<time>2025-08-03T08:11:39.000Z</time>
</trkpt>
<trkpt lat="45.9656290" lon="10.1532940">
	<ele>1892.20</ele>
	<time>2025-08-03T08:11:40.000Z</time>
</trkpt>
<trkpt lat="45.9656370" lon="10.1533100">
	<ele>1892.20</ele>
	<time>2025-08-03T08:11:41.000Z</time>
</trkpt>
<trkpt lat="45.9656440" lon="10.1533250">
	<ele>1892.20</ele>
	<time>2025-08-03T08:11:42.000Z</time>
</trkpt>
<trkpt lat="45.9656520" lon="10.1533400">
	<ele>1892.20</ele>
	<time>2025-08-03T08:11:43.000Z</time>
</trkpt>
<trkpt lat="45.9656590" lon="10.1533540">
	<ele>1892.20</ele>
	<time>2025-08-03T08:11:44.000Z</time>
</trkpt>
<trkpt lat="45.9656640" lon="10.1533660">
	<ele>1892.20</ele>
	<time>2025-08-03T08:11:45.000Z</time>
</trkpt>
<trkpt lat="45.9656710" lon="10.1533790">
	<ele>1892.20</ele>
	<time>2025-08-03T08:11:46.000Z</time>
</trkpt>
<trkpt lat="45.9656790" lon="10.1533960">
	<ele>1892.00</ele>
	<time>2025-08-03T08:11:47.000Z</time>
</trkpt>
<trkpt lat="45.9656840" lon="10.1534140">
	<ele>1892.20</ele>
	<time>2025-08-03T08:11:48.000Z</time>
</trkpt>
<trkpt lat="45.9656870" lon="10.1534340">
	<ele>1892.20</ele>
	<time>2025-08-03T08:11:49.000Z</time>
</trkpt>
<trkpt lat="45.9656900" lon="10.1534500">
	<ele>1892.40</ele>
	<time>2025-08-03T08:11:50.000Z</time>
</trkpt>
<trkpt lat="45.9656930" lon="10.1534640">
	<ele>1892.60</ele>
	<time>2025-08-03T08:11:51.000Z</time>
</trkpt>
<trkpt lat="45.9656950" lon="10.1534810">
	<ele>1892.60</ele>
	<time>2025-08-03T08:11:52.000Z</time>
</trkpt>
<trkpt lat="45.9656960" lon="10.1534940">
	<ele>1892.60</ele>
	<time>2025-08-03T08:11:53.000Z</time>
</trkpt>
<trkpt lat="45.9656960" lon="10.1535040">
	<ele>1892.80</ele>
	<time>2025-08-03T08:11:54.000Z</time>
</trkpt>
<trkpt lat="45.9656950" lon="10.1535080">
	<ele>1892.80</ele>
	<time>2025-08-03T08:11:55.000Z</time>
</trkpt>
<trkpt lat="45.9656960" lon="10.1535080">
	<ele>1892.80</ele>
	<time>2025-08-03T08:11:56.000Z</time>
</trkpt>
<trkpt lat="45.9656970" lon="10.1535090">
	<ele>1892.80</ele>
	<time>2025-08-03T08:11:57.000Z</time>
</trkpt>
<trkpt lat="45.9656970" lon="10.1535090">
	<ele>1893.00</ele>
	<time>2025-08-03T08:11:58.000Z</time>
</trkpt>
<trkpt lat="45.9656980" lon="10.1535090">
	<ele>1893.00</ele>
	<time>2025-08-03T08:11:59.000Z</time>
</trkpt>
<trkpt lat="45.9656980" lon="10.1535080">
	<ele>1893.20</ele>
	<time>2025-08-03T08:12:00.000Z</time>
</trkpt>
<trkpt lat="45.9656980" lon="10.1535080">
	<ele>1893.20</ele>
	<time>2025-08-03T08:12:01.000Z</time>
</trkpt>
<trkpt lat="45.9656980" lon="10.1535090">
	<ele>1893.40</ele>
	<time>2025-08-03T08:12:02.000Z</time>
</trkpt>
<trkpt lat="45.9656970" lon="10.1535090">
	<ele>1893.60</ele>
	<time>2025-08-03T08:12:03.000Z</time>
</trkpt>
<trkpt lat="45.9656970" lon="10.1535070">
	<ele>1893.60</ele>
	<time>2025-08-03T08:12:04.000Z</time>
</trkpt>
<trkpt lat="45.9657000" lon="10.1535120">
	<ele>1893.60</ele>
	<time>2025-08-03T08:12:05.000Z</time>
</trkpt>
<trkpt lat="45.9657040" lon="10.1535250">
	<ele>1893.60</ele>
	<time>2025-08-03T08:12:06.000Z</time>
</trkpt>
<trkpt lat="45.9657090" lon="10.1535400">
	<ele>1893.60</ele>
	<time>2025-08-03T08:12:07.000Z</time>
</trkpt>
<trkpt lat="45.9657110" lon="10.1535520">
	<ele>1893.60</ele>
	<time>2025-08-03T08:12:08.000Z</time>
</trkpt>
<trkpt lat="45.9657150" lon="10.1535680">
	<ele>1893.40</ele>
	<time>2025-08-03T08:12:09.000Z</time>
</trkpt>
<trkpt lat="45.9657190" lon="10.1535840">
	<ele>1893.40</ele>
	<time>2025-08-03T08:12:10.000Z</time>
</trkpt>
<trkpt lat="45.9657240" lon="10.1536010">
	<ele>1893.60</ele>
	<time>2025-08-03T08:12:11.000Z</time>
</trkpt>
<trkpt lat="45.9657310" lon="10.1536210">
	<ele>1893.60</ele>
	<time>2025-08-03T08:12:12.000Z</time>
</trkpt>
<trkpt lat="45.9657360" lon="10.1536400">
	<ele>1893.60</ele>
	<time>2025-08-03T08:12:13.000Z</time>
</trkpt>
<trkpt lat="45.9657410" lon="10.1536620">
	<ele>1893.60</ele>
	<time>2025-08-03T08:12:14.000Z</time>
</trkpt>
<trkpt lat="45.9657460" lon="10.1536820">
	<ele>1893.60</ele>
	<time>2025-08-03T08:12:15.000Z</time>
</trkpt>
<trkpt lat="45.9657500" lon="10.1537010">
	<ele>1893.80</ele>
	<time>2025-08-03T08:12:16.000Z</time>
</trkpt>
<trkpt lat="45.9657550" lon="10.1537160">
	<ele>1893.80</ele>
	<time>2025-08-03T08:12:17.000Z</time>
</trkpt>
<trkpt lat="45.9657620" lon="10.1537320">
	<ele>1893.80</ele>
	<time>2025-08-03T08:12:18.000Z</time>
</trkpt>
<trkpt lat="45.9657690" lon="10.1537470">
	<ele>1893.80</ele>
	<time>2025-08-03T08:12:19.000Z</time>
</trkpt>
<trkpt lat="45.9657760" lon="10.1537630">
	<ele>1893.80</ele>
	<time>2025-08-03T08:12:20.000Z</time>
</trkpt>
<trkpt lat="45.9657830" lon="10.1537780">
	<ele>1894.00</ele>
	<time>2025-08-03T08:12:21.000Z</time>
</trkpt>
<trkpt lat="45.9657910" lon="10.1537900">
	<ele>1894.00</ele>
	<time>2025-08-03T08:12:22.000Z</time>
</trkpt>
<trkpt lat="45.9657970" lon="10.1538030">
	<ele>1894.20</ele>
	<time>2025-08-03T08:12:23.000Z</time>
</trkpt>
<trkpt lat="45.9658030" lon="10.1538170">
	<ele>1894.40</ele>
	<time>2025-08-03T08:12:24.000Z</time>
</trkpt>
<trkpt lat="45.9658100" lon="10.1538300">
	<ele>1894.80</ele>
	<time>2025-08-03T08:12:25.000Z</time>
</trkpt>
<trkpt lat="45.9658180" lon="10.1538430">
	<ele>1894.80</ele>
	<time>2025-08-03T08:12:26.000Z</time>
</trkpt>
<trkpt lat="45.9658250" lon="10.1538630">
	<ele>1895.00</ele>
	<time>2025-08-03T08:12:27.000Z</time>
</trkpt>
<trkpt lat="45.9658320" lon="10.1538850">
	<ele>1895.00</ele>
	<time>2025-08-03T08:12:28.000Z</time>
</trkpt>
<trkpt lat="45.9658360" lon="10.1539060">
	<ele>1895.00</ele>
	<time>2025-08-03T08:12:29.000Z</time>
</trkpt>
<trkpt lat="45.9658390" lon="10.1539280">
	<ele>1894.60</ele>
	<time>2025-08-03T08:12:30.000Z</time>
</trkpt>
<trkpt lat="45.9658450" lon="10.1539470">
	<ele>1894.40</ele>
	<time>2025-08-03T08:12:31.000Z</time>
</trkpt>
<trkpt lat="45.9658500" lon="10.1539660">
	<ele>1894.20</ele>
	<time>2025-08-03T08:12:32.000Z</time>
</trkpt>
<trkpt lat="45.9658540" lon="10.1539840">
	<ele>1894.00</ele>
	<time>2025-08-03T08:12:33.000Z</time>
</trkpt>
<trkpt lat="45.9658610" lon="10.1540020">
	<ele>1893.80</ele>
	<time>2025-08-03T08:12:34.000Z</time>
</trkpt>
<trkpt lat="45.9658660" lon="10.1540190">
	<ele>1893.60</ele>
	<time>2025-08-03T08:12:35.000Z</time>
</trkpt>
<trkpt lat="45.9658710" lon="10.1540370">
	<ele>1893.60</ele>
	<time>2025-08-03T08:12:36.000Z</time>
</trkpt>
<trkpt lat="45.9658750" lon="10.1540570">
	<ele>1893.40</ele>
	<time>2025-08-03T08:12:37.000Z</time>
</trkpt>
<trkpt lat="45.9658800" lon="10.1540740">
	<ele>1893.60</ele>
	<time>2025-08-03T08:12:38.000Z</time>
</trkpt>
<trkpt lat="45.9658800" lon="10.1540920">
	<ele>1893.60</ele>
	<time>2025-08-03T08:12:39.000Z</time>
</trkpt>
<trkpt lat="45.9658830" lon="10.1541100">
	<ele>1893.60</ele>
	<time>2025-08-03T08:12:40.000Z</time>
</trkpt>
<trkpt lat="45.9658870" lon="10.1541240">
	<ele>1893.80</ele>
	<time>2025-08-03T08:12:41.000Z</time>
</trkpt>
<trkpt lat="45.9658890" lon="10.1541380">
	<ele>1893.80</ele>
	<time>2025-08-03T08:12:42.000Z</time>
</trkpt>
<trkpt lat="45.9658910" lon="10.1541560">
	<ele>1893.80</ele>
	<time>2025-08-03T08:12:43.000Z</time>
</trkpt>
<trkpt lat="45.9658920" lon="10.1541750">
	<ele>1893.80</ele>
	<time>2025-08-03T08:12:44.000Z</time>
</trkpt>
<trkpt lat="45.9658960" lon="10.1541950">
	<ele>1894.00</ele>
	<time>2025-08-03T08:12:45.000Z</time>
</trkpt>
<trkpt lat="45.9659000" lon="10.1542120">
	<ele>1894.00</ele>
	<time>2025-08-03T08:12:46.000Z</time>
</trkpt>
<trkpt lat="45.9659040" lon="10.1542280">
	<ele>1894.20</ele>
	<time>2025-08-03T08:12:47.000Z</time>
</trkpt>
<trkpt lat="45.9659100" lon="10.1542440">
	<ele>1894.20</ele>
	<time>2025-08-03T08:12:48.000Z</time>
</trkpt>
<trkpt lat="45.9659150" lon="10.1542640">
	<ele>1894.20</ele>
	<time>2025-08-03T08:12:49.000Z</time>
</trkpt>
<trkpt lat="45.9659210" lon="10.1542800">
	<ele>1894.20</ele>
	<time>2025-08-03T08:12:50.000Z</time>
</trkpt>
<trkpt lat="45.9659260" lon="10.1542950">
	<ele>1894.20</ele>
	<time>2025-08-03T08:12:51.000Z</time>
</trkpt>
<trkpt lat="45.9659330" lon="10.1543110">
	<ele>1894.20</ele>
	<time>2025-08-03T08:12:52.000Z</time>
</trkpt>
<trkpt lat="45.9659380" lon="10.1543280">
	<ele>1894.20</ele>
	<time>2025-08-03T08:12:53.000Z</time>
</trkpt>
<trkpt lat="45.9659430" lon="10.1543460">
	<ele>1894.20</ele>
	<time>2025-08-03T08:12:54.000Z</time>
</trkpt>
<trkpt lat="45.9659480" lon="10.1543630">
	<ele>1894.20</ele>
	<time>2025-08-03T08:12:55.000Z</time>
</trkpt>
<trkpt lat="45.9659510" lon="10.1543790">
	<ele>1894.20</ele>
	<time>2025-08-03T08:12:56.000Z</time>
</trkpt>
<trkpt lat="45.9659560" lon="10.1543950">
	<ele>1894.20</ele>
	<time>2025-08-03T08:12:57.000Z</time>
</trkpt>
<trkpt lat="45.9659600" lon="10.1544140">
	<ele>1894.20</ele>
	<time>2025-08-03T08:12:58.000Z</time>
</trkpt>
<trkpt lat="45.9659640" lon="10.1544300">
	<ele>1894.40</ele>
	<time>2025-08-03T08:12:59.000Z</time>
</trkpt>
<trkpt lat="45.9659680" lon="10.1544470">
	<ele>1894.40</ele>
	<time>2025-08-03T08:13:00.000Z</time>
</trkpt>
<trkpt lat="45.9659730" lon="10.1544650">
	<ele>1894.60</ele>
	<time>2025-08-03T08:13:01.000Z</time>
</trkpt>
<trkpt lat="45.9659780" lon="10.1544840">
	<ele>1894.60</ele>
	<time>2025-08-03T08:13:02.000Z</time>
</trkpt>
<trkpt lat="45.9659810" lon="10.1545020">
	<ele>1894.80</ele>
	<time>2025-08-03T08:13:03.000Z</time>
</trkpt>
<trkpt lat="45.9659860" lon="10.1545200">
	<ele>1894.80</ele>
	<time>2025-08-03T08:13:04.000Z</time>
</trkpt>
<trkpt lat="45.9659900" lon="10.1545370">
	<ele>1895.00</ele>
	<time>2025-08-03T08:13:05.000Z</time>
</trkpt>
<trkpt lat="45.9659940" lon="10.1545520">
	<ele>1895.00</ele>
	<time>2025-08-03T08:13:06.000Z</time>
</trkpt>
<trkpt lat="45.9659990" lon="10.1545680">
	<ele>1895.20</ele>
	<time>2025-08-03T08:13:07.000Z</time>
</trkpt>
<trkpt lat="45.9660040" lon="10.1545840">
	<ele>1895.20</ele>
	<time>2025-08-03T08:13:08.000Z</time>
</trkpt>
<trkpt lat="45.9660080" lon="10.1546010">
	<ele>1895.40</ele>
	<time>2025-08-03T08:13:09.000Z</time>
</trkpt>
<trkpt lat="45.9660130" lon="10.1546180">
	<ele>1895.40</ele>
	<time>2025-08-03T08:13:10.000Z</time>
</trkpt>
<trkpt lat="45.9660190" lon="10.1546330">
	<ele>1895.60</ele>
	<time>2025-08-03T08:13:11.000Z</time>
</trkpt>
<trkpt lat="45.9660240" lon="10.1546470">
	<ele>1895.60</ele>
	<time>2025-08-03T08:13:12.000Z</time>
</trkpt>
<trkpt lat="45.9660300" lon="10.1546590">
	<ele>1895.80</ele>
	<time>2025-08-03T08:13:13.000Z</time>
</trkpt>
<trkpt lat="45.9660360" lon="10.1546730">
	<ele>1896.00</ele>
	<time>2025-08-03T08:13:14.000Z</time>
</trkpt>
<trkpt lat="45.9660390" lon="10.1546850">
	<ele>1896.00</ele>
	<time>2025-08-03T08:13:15.000Z</time>
</trkpt>
<trkpt lat="45.9660460" lon="10.1546970">
	<ele>1896.40</ele>
	<time>2025-08-03T08:13:16.000Z</time>
</trkpt>
<trkpt lat="45.9660510" lon="10.1547080">
	<ele>1896.60</ele>
	<time>2025-08-03T08:13:17.000Z</time>
</trkpt>
<trkpt lat="45.9660550" lon="10.1547210">
	<ele>1896.60</ele>
	<time>2025-08-03T08:13:18.000Z</time>
</trkpt>
<trkpt lat="45.9660570" lon="10.1547360">
	<ele>1896.80</ele>
	<time>2025-08-03T08:13:19.000Z</time>
</trkpt>
<trkpt lat="45.9660600" lon="10.1547520">
	<ele>1897.00</ele>
	<time>2025-08-03T08:13:20.000Z</time>
</trkpt>
<trkpt lat="45.9660610" lon="10.1547670">
	<ele>1897.00</ele>
	<time>2025-08-03T08:13:21.000Z</time>
</trkpt>
<trkpt lat="45.9660640" lon="10.1547810">
	<ele>1897.20</ele>
	<time>2025-08-03T08:13:22.000Z</time>
</trkpt>
<trkpt lat="45.9660690" lon="10.1547950">
	<ele>1897.40</ele>
	<time>2025-08-03T08:13:23.000Z</time>
</trkpt>
<trkpt lat="45.9660760" lon="10.1548120">
	<ele>1897.60</ele>
	<time>2025-08-03T08:13:24.000Z</time>
</trkpt>
<trkpt lat="45.9660820" lon="10.1548280">
	<ele>1897.60</ele>
	<time>2025-08-03T08:13:25.000Z</time>
</trkpt>
<trkpt lat="45.9660890" lon="10.1548440">
	<ele>1897.80</ele>
	<time>2025-08-03T08:13:26.000Z</time>
</trkpt>
<trkpt lat="45.9660940" lon="10.1548590">
	<ele>1898.00</ele>
	<time>2025-08-03T08:13:27.000Z</time>
</trkpt>
<trkpt lat="45.9660990" lon="10.1548730">
	<ele>1898.40</ele>
	<time>2025-08-03T08:13:28.000Z</time>
</trkpt>
<trkpt lat="45.9661030" lon="10.1548880">
	<ele>1898.60</ele>
	<time>2025-08-03T08:13:29.000Z</time>
</trkpt>
<trkpt lat="45.9661070" lon="10.1549050">
	<ele>1898.60</ele>
	<time>2025-08-03T08:13:30.000Z</time>
</trkpt>
<trkpt lat="45.9661120" lon="10.1549230">
	<ele>1898.80</ele>
	<time>2025-08-03T08:13:31.000Z</time>
</trkpt>
<trkpt lat="45.9661140" lon="10.1549400">
	<ele>1898.80</ele>
	<time>2025-08-03T08:13:32.000Z</time>
</trkpt>
<trkpt lat="45.9661210" lon="10.1549550">
	<ele>1898.80</ele>
	<time>2025-08-03T08:13:33.000Z</time>
</trkpt>
<trkpt lat="45.9661280" lon="10.1549670">
	<ele>1899.00</ele>
	<time>2025-08-03T08:13:34.000Z</time>
</trkpt>
<trkpt lat="45.9661340" lon="10.1549770">
	<ele>1899.00</ele>
	<time>2025-08-03T08:13:35.000Z</time>
</trkpt>
<trkpt lat="45.9661390" lon="10.1549900">
	<ele>1899.20</ele>
	<time>2025-08-03T08:13:36.000Z</time>
</trkpt>
<trkpt lat="45.9661450" lon="10.1550030">
	<ele>1899.20</ele>
	<time>2025-08-03T08:13:37.000Z</time>
</trkpt>
<trkpt lat="45.9661500" lon="10.1550170">
	<ele>1899.40</ele>
	<time>2025-08-03T08:13:38.000Z</time>
</trkpt>
<trkpt lat="45.9661540" lon="10.1550310">
	<ele>1899.40</ele>
	<time>2025-08-03T08:13:39.000Z</time>
</trkpt>
<trkpt lat="45.9661560" lon="10.1550450">
	<ele>1899.60</ele>
	<time>2025-08-03T08:13:40.000Z</time>
</trkpt>
<trkpt lat="45.9661600" lon="10.1550580">
	<ele>1899.80</ele>
	<time>2025-08-03T08:13:41.000Z</time>
</trkpt>
<trkpt lat="45.9661630" lon="10.1550700">
	<ele>1900.00</ele>
	<time>2025-08-03T08:13:42.000Z</time>
</trkpt>
<trkpt lat="45.9661670" lon="10.1550830">
	<ele>1900.00</ele>
	<time>2025-08-03T08:13:43.000Z</time>
</trkpt>
<trkpt lat="45.9661700" lon="10.1550950">
	<ele>1900.20</ele>
	<time>2025-08-03T08:13:44.000Z</time>
</trkpt>
<trkpt lat="45.9661730" lon="10.1551080">
	<ele>1900.40</ele>
	<time>2025-08-03T08:13:45.000Z</time>
</trkpt>
<trkpt lat="45.9661790" lon="10.1551190">
	<ele>1900.60</ele>
	<time>2025-08-03T08:13:46.000Z</time>
</trkpt>
<trkpt lat="45.9661850" lon="10.1551320">
	<ele>1900.80</ele>
	<time>2025-08-03T08:13:47.000Z</time>
</trkpt>
<trkpt lat="45.9661910" lon="10.1551450">
	<ele>1900.80</ele>
	<time>2025-08-03T08:13:48.000Z</time>
</trkpt>
<trkpt lat="45.9661940" lon="10.1551590">
	<ele>1901.00</ele>
	<time>2025-08-03T08:13:49.000Z</time>
</trkpt>
<trkpt lat="45.9661960" lon="10.1551720">
	<ele>1901.00</ele>
	<time>2025-08-03T08:13:50.000Z</time>
</trkpt>
<trkpt lat="45.9662000" lon="10.1551840">
	<ele>1901.40</ele>
	<time>2025-08-03T08:13:51.000Z</time>
</trkpt>
<trkpt lat="45.9662020" lon="10.1551990">
	<ele>1901.60</ele>
	<time>2025-08-03T08:13:52.000Z</time>
</trkpt>
<trkpt lat="45.9662060" lon="10.1552130">
	<ele>1901.80</ele>
	<time>2025-08-03T08:13:53.000Z</time>
</trkpt>
<trkpt lat="45.9662100" lon="10.1552270">
	<ele>1901.80</ele>
	<time>2025-08-03T08:13:54.000Z</time>
</trkpt>
<trkpt lat="45.9662120" lon="10.1552420">
	<ele>1902.00</ele>
	<time>2025-08-03T08:13:55.000Z</time>
</trkpt>
<trkpt lat="45.9662180" lon="10.1552550">
	<ele>1902.20</ele>
	<time>2025-08-03T08:13:56.000Z</time>
</trkpt>
<trkpt lat="45.9662230" lon="10.1552650">
	<ele>1902.20</ele>
	<time>2025-08-03T08:13:57.000Z</time>
</trkpt>
<trkpt lat="45.9662260" lon="10.1552780">
	<ele>1902.40</ele>
	<time>2025-08-03T08:13:58.000Z</time>
</trkpt>
<trkpt lat="45.9662280" lon="10.1552920">
	<ele>1902.80</ele>
	<time>2025-08-03T08:13:59.000Z</time>
</trkpt>
<trkpt lat="45.9662310" lon="10.1553060">
	<ele>1902.80</ele>
	<time>2025-08-03T08:14:00.000Z</time>
</trkpt>
<trkpt lat="45.9662330" lon="10.1553220">
	<ele>1903.00</ele>
	<time>2025-08-03T08:14:01.000Z</time>
</trkpt>
<trkpt lat="45.9662350" lon="10.1553350">
	<ele>1903.00</ele>
	<time>2025-08-03T08:14:02.000Z</time>
</trkpt>
<trkpt lat="45.9662380" lon="10.1553480">
	<ele>1903.00</ele>
	<time>2025-08-03T08:14:03.000Z</time>
</trkpt>
<trkpt lat="45.9662390" lon="10.1553590">
	<ele>1903.20</ele>
	<time>2025-08-03T08:14:04.000Z</time>
</trkpt>
<trkpt lat="45.9662400" lon="10.1553720">
	<ele>1903.20</ele>
	<time>2025-08-03T08:14:05.000Z</time>
</trkpt>
<trkpt lat="45.9662410" lon="10.1553850">
	<ele>1903.60</ele>
	<time>2025-08-03T08:14:06.000Z</time>
</trkpt>
<trkpt lat="45.9662430" lon="10.1554000">
	<ele>1903.80</ele>
	<time>2025-08-03T08:14:07.000Z</time>
</trkpt>
<trkpt lat="45.9662460" lon="10.1554140">
	<ele>1903.80</ele>
	<time>2025-08-03T08:14:08.000Z</time>
</trkpt>
<trkpt lat="45.9662500" lon="10.1554260">
	<ele>1904.00</ele>
	<time>2025-08-03T08:14:09.000Z</time>
</trkpt>
<trkpt lat="45.9662520" lon="10.1554360">
	<ele>1904.20</ele>
	<time>2025-08-03T08:14:10.000Z</time>
</trkpt>
<trkpt lat="45.9662550" lon="10.1554480">
	<ele>1904.40</ele>
	<time>2025-08-03T08:14:11.000Z</time>
</trkpt>
<trkpt lat="45.9662570" lon="10.1554620">
	<ele>1904.40</ele>
	<time>2025-08-03T08:14:12.000Z</time>
</trkpt>
<trkpt lat="45.9662610" lon="10.1554750">
	<ele>1904.80</ele>
	<time>2025-08-03T08:14:13.000Z</time>
</trkpt>
<trkpt lat="45.9662660" lon="10.1554880">
	<ele>1904.80</ele>
	<time>2025-08-03T08:14:14.000Z</time>
</trkpt>
<trkpt lat="45.9662710" lon="10.1555030">
	<ele>1905.00</ele>
	<time>2025-08-03T08:14:15.000Z</time>
</trkpt>
<trkpt lat="45.9662760" lon="10.1555180">
	<ele>1905.00</ele>
	<time>2025-08-03T08:14:16.000Z</time>
</trkpt>
<trkpt lat="45.9662780" lon="10.1555330">
	<ele>1905.20</ele>
	<time>2025-08-03T08:14:17.000Z</time>
</trkpt>
<trkpt lat="45.9662790" lon="10.1555480">
	<ele>1905.40</ele>
	<time>2025-08-03T08:14:18.000Z</time>
</trkpt>
<trkpt lat="45.9662800" lon="10.1555640">
	<ele>1905.40</ele>
	<time>2025-08-03T08:14:19.000Z</time>
</trkpt>
<trkpt lat="45.9662810" lon="10.1555780">
	<ele>1905.60</ele>
	<time>2025-08-03T08:14:20.000Z</time>
</trkpt>
<trkpt lat="45.9662830" lon="10.1555940">
	<ele>1905.80</ele>
	<time>2025-08-03T08:14:21.000Z</time>
</trkpt>
<trkpt lat="45.9662850" lon="10.1556080">
	<ele>1905.80</ele>
	<time>2025-08-03T08:14:22.000Z</time>
</trkpt>
<trkpt lat="45.9662860" lon="10.1556210">
	<ele>1906.00</ele>
	<time>2025-08-03T08:14:23.000Z</time>
</trkpt>
<trkpt lat="45.9662850" lon="10.1556340">
	<ele>1906.00</ele>
	<time>2025-08-03T08:14:24.000Z</time>
</trkpt>
<trkpt lat="45.9662860" lon="10.1556480">
	<ele>1906.20</ele>
	<time>2025-08-03T08:14:25.000Z</time>
</trkpt>
<trkpt lat="45.9662870" lon="10.1556590">
	<ele>1906.20</ele>
	<time>2025-08-03T08:14:26.000Z</time>
</trkpt>
<trkpt lat="45.9662890" lon="10.1556710">
	<ele>1906.40</ele>
	<time>2025-08-03T08:14:27.000Z</time>
</trkpt>
<trkpt lat="45.9662910" lon="10.1556850">
	<ele>1906.60</ele>
	<time>2025-08-03T08:14:28.000Z</time>
</trkpt>
<trkpt lat="45.9662960" lon="10.1557000">
	<ele>1907.00</ele>
	<time>2025-08-03T08:14:29.000Z</time>
</trkpt>
<trkpt lat="45.9662980" lon="10.1557130">
	<ele>1907.20</ele>
	<time>2025-08-03T08:14:30.000Z</time>
</trkpt>
<trkpt lat="45.9663010" lon="10.1557280">
	<ele>1907.20</ele>
	<time>2025-08-03T08:14:31.000Z</time>
</trkpt>
<trkpt lat="45.9663070" lon="10.1557440">
	<ele>1907.40</ele>
	<time>2025-08-03T08:14:32.000Z</time>
</trkpt>
<trkpt lat="45.9663140" lon="10.1557590">
	<ele>1907.60</ele>
	<time>2025-08-03T08:14:33.000Z</time>
</trkpt>
<trkpt lat="45.9663200" lon="10.1557740">
	<ele>1907.80</ele>
	<time>2025-08-03T08:14:34.000Z</time>
</trkpt>
<trkpt lat="45.9663250" lon="10.1557890">
	<ele>1908.00</ele>
	<time>2025-08-03T08:14:35.000Z</time>
</trkpt>
<trkpt lat="45.9663290" lon="10.1558010">
	<ele>1908.20</ele>
	<time>2025-08-03T08:14:36.000Z</time>
</trkpt>
<trkpt lat="45.9663320" lon="10.1558080">
	<ele>1908.20</ele>
	<time>2025-08-03T08:14:37.000Z</time>
</trkpt>
<trkpt lat="45.9663370" lon="10.1558210">
	<ele>1908.20</ele>
	<time>2025-08-03T08:14:38.000Z</time>
</trkpt>
<trkpt lat="45.9663400" lon="10.1558340">
	<ele>1908.40</ele>
	<time>2025-08-03T08:14:39.000Z</time>
</trkpt>
<trkpt lat="45.9663450" lon="10.1558430">
	<ele>1908.80</ele>
	<time>2025-08-03T08:14:40.000Z</time>
</trkpt>
<trkpt lat="45.9663510" lon="10.1558540">
	<ele>1909.00</ele>
	<time>2025-08-03T08:14:41.000Z</time>
</trkpt>
<trkpt lat="45.9663550" lon="10.1558610">
	<ele>1909.00</ele>
	<time>2025-08-03T08:14:42.000Z</time>
</trkpt>
<trkpt lat="45.9663600" lon="10.1558700">
	<ele>1909.00</ele>
	<time>2025-08-03T08:14:43.000Z</time>
</trkpt>
<trkpt lat="45.9663640" lon="10.1558840">
	<ele>1909.20</ele>
	<time>2025-08-03T08:14:44.000Z</time>
</trkpt>
<trkpt lat="45.9663680" lon="10.1558980">
	<ele>1909.20</ele>
	<time>2025-08-03T08:14:45.000Z</time>
</trkpt>
<trkpt lat="45.9663710" lon="10.1559170">
	<ele>1909.20</ele>
	<time>2025-08-03T08:14:46.000Z</time>
</trkpt>
<trkpt lat="45.9663760" lon="10.1559330">
	<ele>1909.40</ele>
	<time>2025-08-03T08:14:47.000Z</time>
</trkpt>
<trkpt lat="45.9663820" lon="10.1559450">
	<ele>1909.40</ele>
	<time>2025-08-03T08:14:48.000Z</time>
</trkpt>
<trkpt lat="45.9663890" lon="10.1559530">
	<ele>1909.60</ele>
	<time>2025-08-03T08:14:49.000Z</time>
</trkpt>
<trkpt lat="45.9663960" lon="10.1559640">
	<ele>1909.80</ele>
	<time>2025-08-03T08:14:50.000Z</time>
</trkpt>
<trkpt lat="45.9663990" lon="10.1559760">
	<ele>1910.00</ele>
	<time>2025-08-03T08:14:51.000Z</time>
</trkpt>
<trkpt lat="45.9664030" lon="10.1559900">
	<ele>1910.00</ele>
	<time>2025-08-03T08:14:52.000Z</time>
</trkpt>
<trkpt lat="45.9664060" lon="10.1560030">
	<ele>1910.20</ele>
	<time>2025-08-03T08:14:53.000Z</time>
</trkpt>
<trkpt lat="45.9664080" lon="10.1560170">
	<ele>1910.40</ele>
	<time>2025-08-03T08:14:54.000Z</time>
</trkpt>
<trkpt lat="45.9664110" lon="10.1560320">
	<ele>1910.40</ele>
	<time>2025-08-03T08:14:55.000Z</time>
</trkpt>
<trkpt lat="45.9664120" lon="10.1560500">
	<ele>1910.60</ele>
	<time>2025-08-03T08:14:56.000Z</time>
</trkpt>
<trkpt lat="45.9664120" lon="10.1560640">
	<ele>1910.60</ele>
	<time>2025-08-03T08:14:57.000Z</time>
</trkpt>
<trkpt lat="45.9664140" lon="10.1560780">
	<ele>1910.80</ele>
	<time>2025-08-03T08:14:58.000Z</time>
</trkpt>
<trkpt lat="45.9664160" lon="10.1560910">
	<ele>1911.00</ele>
	<time>2025-08-03T08:14:59.000Z</time>
</trkpt>
<trkpt lat="45.9664190" lon="10.1561070">
	<ele>1911.20</ele>
	<time>2025-08-03T08:15:00.000Z</time>
</trkpt>
<trkpt lat="45.9664240" lon="10.1561250">
	<ele>1911.20</ele>
	<time>2025-08-03T08:15:01.000Z</time>
</trkpt>
<trkpt lat="45.9664300" lon="10.1561370">
	<ele>1911.40</ele>
	<time>2025-08-03T08:15:02.000Z</time>
</trkpt>
<trkpt lat="45.9664350" lon="10.1561490">
	<ele>1911.40</ele>
	<time>2025-08-03T08:15:03.000Z</time>
</trkpt>
<trkpt lat="45.9664390" lon="10.1561610">
	<ele>1911.60</ele>
	<time>2025-08-03T08:15:04.000Z</time>
</trkpt>
<trkpt lat="45.9664420" lon="10.1561770">
	<ele>1911.80</ele>
	<time>2025-08-03T08:15:05.000Z</time>
</trkpt>
<trkpt lat="45.9664460" lon="10.1561900">
	<ele>1911.80</ele>
	<time>2025-08-03T08:15:06.000Z</time>
</trkpt>
<trkpt lat="45.9664480" lon="10.1562040">
	<ele>1912.20</ele>
	<time>2025-08-03T08:15:07.000Z</time>
</trkpt>
<trkpt lat="45.9664510" lon="10.1562160">
	<ele>1912.20</ele>
	<time>2025-08-03T08:15:08.000Z</time>
</trkpt>
<trkpt lat="45.9664520" lon="10.1562290">
	<ele>1912.60</ele>
	<time>2025-08-03T08:15:09.000Z</time>
</trkpt>
<trkpt lat="45.9664540" lon="10.1562450">
	<ele>1912.60</ele>
	<time>2025-08-03T08:15:10.000Z</time>
</trkpt>
<trkpt lat="45.9664560" lon="10.1562600">
	<ele>1912.80</ele>
	<time>2025-08-03T08:15:11.000Z</time>
</trkpt>
<trkpt lat="45.9664590" lon="10.1562740">
	<ele>1913.00</ele>
	<time>2025-08-03T08:15:12.000Z</time>
</trkpt>
<trkpt lat="45.9664630" lon="10.1562890">
	<ele>1913.20</ele>
	<time>2025-08-03T08:15:13.000Z</time>
</trkpt>
<trkpt lat="45.9664650" lon="10.1563040">
	<ele>1913.40</ele>
	<time>2025-08-03T08:15:14.000Z</time>
</trkpt>
<trkpt lat="45.9664660" lon="10.1563170">
	<ele>1913.60</ele>
	<time>2025-08-03T08:15:15.000Z</time>
</trkpt>
<trkpt lat="45.9664680" lon="10.1563310">
	<ele>1913.60</ele>
	<time>2025-08-03T08:15:16.000Z</time>
</trkpt>
<trkpt lat="45.9664700" lon="10.1563450">
	<ele>1913.80</ele>
	<time>2025-08-03T08:15:17.000Z</time>
</trkpt>
<trkpt lat="45.9664730" lon="10.1563600">
	<ele>1913.80</ele>
	<time>2025-08-03T08:15:18.000Z</time>
</trkpt>
<trkpt lat="45.9664770" lon="10.1563740">
	<ele>1913.80</ele>
	<time>2025-08-03T08:15:19.000Z</time>
</trkpt>
<trkpt lat="45.9664800" lon="10.1563880">
	<ele>1914.00</ele>
	<time>2025-08-03T08:15:20.000Z</time>
</trkpt>
<trkpt lat="45.9664820" lon="10.1564000">
	<ele>1914.20</ele>
	<time>2025-08-03T08:15:21.000Z</time>
</trkpt>
<trkpt lat="45.9664810" lon="10.1564130">
	<ele>1914.20</ele>
	<time>2025-08-03T08:15:22.000Z</time>
</trkpt>
<trkpt lat="45.9664840" lon="10.1564270">
	<ele>1914.40</ele>
	<time>2025-08-03T08:15:23.000Z</time>
</trkpt>
<trkpt lat="45.9664880" lon="10.1564420">
	<ele>1914.40</ele>
	<time>2025-08-03T08:15:24.000Z</time>
</trkpt>
<trkpt lat="45.9664900" lon="10.1564560">
	<ele>1914.60</ele>
	<time>2025-08-03T08:15:25.000Z</time>
</trkpt>
<trkpt lat="45.9664910" lon="10.1564710">
	<ele>1914.60</ele>
	<time>2025-08-03T08:15:26.000Z</time>
</trkpt>
<trkpt lat="45.9664940" lon="10.1564870">
	<ele>1914.80</ele>
	<time>2025-08-03T08:15:27.000Z</time>
</trkpt>
<trkpt lat="45.9665000" lon="10.1565000">
	<ele>1915.00</ele>
	<time>2025-08-03T08:15:28.000Z</time>
</trkpt>
<trkpt lat="45.9664980" lon="10.1565110">
	<ele>1915.20</ele>
	<time>2025-08-03T08:15:29.000Z</time>
</trkpt>
<trkpt lat="45.9665010" lon="10.1565220">
	<ele>1915.40</ele>
	<time>2025-08-03T08:15:30.000Z</time>
</trkpt>
<trkpt lat="45.9665030" lon="10.1565310">
	<ele>1915.60</ele>
	<time>2025-08-03T08:15:31.000Z</time>
</trkpt>
<trkpt lat="45.9665040" lon="10.1565410">
	<ele>1915.80</ele>
	<time>2025-08-03T08:15:32.000Z</time>
</trkpt>
<trkpt lat="45.9665060" lon="10.1565520">
	<ele>1916.00</ele>
	<time>2025-08-03T08:15:33.000Z</time>
</trkpt>
<trkpt lat="45.9665060" lon="10.1565620">
	<ele>1916.20</ele>
	<time>2025-08-03T08:15:34.000Z</time>
</trkpt>
<trkpt lat="45.9665060" lon="10.1565750">
	<ele>1916.60</ele>
	<time>2025-08-03T08:15:35.000Z</time>
</trkpt>
<trkpt lat="45.9665100" lon="10.1565860">
	<ele>1916.80</ele>
	<time>2025-08-03T08:15:36.000Z</time>
</trkpt>
<trkpt lat="45.9665150" lon="10.1565980">
	<ele>1917.00</ele>
	<time>2025-08-03T08:15:37.000Z</time>
</trkpt>
<trkpt lat="45.9665170" lon="10.1566110">
	<ele>1917.00</ele>
	<time>2025-08-03T08:15:38.000Z</time>
</trkpt>
<trkpt lat="45.9665160" lon="10.1566270">
	<ele>1917.20</ele>
	<time>2025-08-03T08:15:39.000Z</time>
</trkpt>
<trkpt lat="45.9665130" lon="10.1566400">
	<ele>1917.40</ele>
	<time>2025-08-03T08:15:40.000Z</time>
</trkpt>
<trkpt lat="45.9665140" lon="10.1566540">
	<ele>1917.40</ele>
	<time>2025-08-03T08:15:41.000Z</time>
</trkpt>
<trkpt lat="45.9665160" lon="10.1566670">
	<ele>1917.40</ele>
	<time>2025-08-03T08:15:42.000Z</time>
</trkpt>
<trkpt lat="45.9665210" lon="10.1566790">
	<ele>1917.60</ele>
	<time>2025-08-03T08:15:43.000Z</time>
</trkpt>
<trkpt lat="45.9665240" lon="10.1566900">
	<ele>1917.80</ele>
	<time>2025-08-03T08:15:44.000Z</time>
</trkpt>
<trkpt lat="45.9665260" lon="10.1567030">
	<ele>1917.80</ele>
	<time>2025-08-03T08:15:45.000Z</time>
</trkpt>
<trkpt lat="45.9665280" lon="10.1567190">
	<ele>1918.00</ele>
	<time>2025-08-03T08:15:46.000Z</time>
</trkpt>
<trkpt lat="45.9665300" lon="10.1567330">
	<ele>1918.00</ele>
	<time>2025-08-03T08:15:47.000Z</time>
</trkpt>
<trkpt lat="45.9665340" lon="10.1567440">
	<ele>1918.40</ele>
	<time>2025-08-03T08:15:48.000Z</time>
</trkpt>
<trkpt lat="45.9665350" lon="10.1567500">
	<ele>1918.60</ele>
	<time>2025-08-03T08:15:49.000Z</time>
</trkpt>
<trkpt lat="45.9665370" lon="10.1567520">
	<ele>1918.60</ele>
	<time>2025-08-03T08:15:50.000Z</time>
</trkpt>
<trkpt lat="45.9665370" lon="10.1567530">
	<ele>1918.80</ele>
	<time>2025-08-03T08:15:51.000Z</time>
</trkpt>
<trkpt lat="45.9665360" lon="10.1567550">
	<ele>1918.80</ele>
	<time>2025-08-03T08:15:52.000Z</time>
</trkpt>
<trkpt lat="45.9665370" lon="10.1567670">
	<ele>1919.00</ele>
	<time>2025-08-03T08:15:53.000Z</time>
</trkpt>
<trkpt lat="45.9665380" lon="10.1567790">
	<ele>1919.20</ele>
	<time>2025-08-03T08:15:54.000Z</time>
</trkpt>
<trkpt lat="45.9665390" lon="10.1567890">
	<ele>1919.20</ele>
	<time>2025-08-03T08:15:55.000Z</time>
</trkpt>
<trkpt lat="45.9665380" lon="10.1568030">
	<ele>1919.20</ele>
	<time>2025-08-03T08:15:56.000Z</time>
</trkpt>
<trkpt lat="45.9665430" lon="10.1568110">
	<ele>1919.20</ele>
	<time>2025-08-03T08:15:57.000Z</time>
</trkpt>
<trkpt lat="45.9665460" lon="10.1568210">
	<ele>1919.40</ele>
	<time>2025-08-03T08:15:58.000Z</time>
</trkpt>
<trkpt lat="45.9665480" lon="10.1568330">
	<ele>1919.40</ele>
	<time>2025-08-03T08:15:59.000Z</time>
</trkpt>
<trkpt lat="45.9665510" lon="10.1568460">
	<ele>1919.60</ele>
	<time>2025-08-03T08:16:00.000Z</time>
</trkpt>
<trkpt lat="45.9665520" lon="10.1568570">
	<ele>1919.80</ele>
	<time>2025-08-03T08:16:01.000Z</time>
</trkpt>
<trkpt lat="45.9665530" lon="10.1568670">
	<ele>1920.00</ele>
	<time>2025-08-03T08:16:02.000Z</time>
</trkpt>
<trkpt lat="45.9665560" lon="10.1568780">
	<ele>1920.00</ele>
	<time>2025-08-03T08:16:03.000Z</time>
</trkpt>
<trkpt lat="45.9665580" lon="10.1568910">
	<ele>1920.20</ele>
	<time>2025-08-03T08:16:04.000Z</time>
</trkpt>
<trkpt lat="45.9665590" lon="10.1569020">
	<ele>1920.20</ele>
	<time>2025-08-03T08:16:05.000Z</time>
</trkpt>
<trkpt lat="45.9665620" lon="10.1569060">
	<ele>1920.20</ele>
	<time>2025-08-03T08:16:06.000Z</time>
</trkpt>
<trkpt lat="45.9665640" lon="10.1569090">
	<ele>1920.40</ele>
	<time>2025-08-03T08:16:07.000Z</time>
</trkpt>
<trkpt lat="45.9665630" lon="10.1569110">
	<ele>1920.40</ele>
	<time>2025-08-03T08:16:08.000Z</time>
</trkpt>
<trkpt lat="45.9665620" lon="10.1569130">
	<ele>1920.40</ele>
	<time>2025-08-03T08:16:09.000Z</time>
</trkpt>
<trkpt lat="45.9665610" lon="10.1569140">
	<ele>1920.20</ele>
	<time>2025-08-03T08:16:10.000Z</time>
</trkpt>
<trkpt lat="45.9665620" lon="10.1569150">
	<ele>1920.20</ele>
	<time>2025-08-03T08:16:11.000Z</time>
</trkpt>
<trkpt lat="45.9665620" lon="10.1569160">
	<ele>1920.20</ele>
	<time>2025-08-03T08:16:12.000Z</time>
</trkpt>
<trkpt lat="45.9665620" lon="10.1569220">
	<ele>1920.20</ele>
	<time>2025-08-03T08:16:13.000Z</time>
</trkpt>
<trkpt lat="45.9665620" lon="10.1569330">
	<ele>1920.20</ele>
	<time>2025-08-03T08:16:14.000Z</time>
</trkpt>
<trkpt lat="45.9665620" lon="10.1569460">
	<ele>1920.20</ele>
	<time>2025-08-03T08:16:15.000Z</time>
</trkpt>
<trkpt lat="45.9665590" lon="10.1569640">
	<ele>1920.20</ele>
	<time>2025-08-03T08:16:16.000Z</time>
</trkpt>
<trkpt lat="45.9665550" lon="10.1569770">
	<ele>1920.40</ele>
	<time>2025-08-03T08:16:17.000Z</time>
</trkpt>
<trkpt lat="45.9665540" lon="10.1569820">
	<ele>1920.40</ele>
	<time>2025-08-03T08:16:18.000Z</time>
</trkpt>
<trkpt lat="45.9665550" lon="10.1569830">
	<ele>1920.80</ele>
	<time>2025-08-03T08:16:19.000Z</time>
</trkpt>
<trkpt lat="45.9665550" lon="10.1569830">
	<ele>1921.00</ele>
	<time>2025-08-03T08:16:20.000Z</time>
</trkpt>
<trkpt lat="45.9665550" lon="10.1569830">
	<ele>1921.00</ele>
	<time>2025-08-03T08:16:21.000Z</time>
</trkpt>
<trkpt lat="45.9665550" lon="10.1569830">
	<ele>1921.00</ele>
	<time>2025-08-03T08:16:22.000Z</time>
</trkpt>
<trkpt lat="45.9665550" lon="10.1569820">
	<ele>1921.00</ele>
	<time>2025-08-03T08:16:23.000Z</time>
</trkpt>
<trkpt lat="45.9665560" lon="10.1569810">
	<ele>1921.20</ele>
	<time>2025-08-03T08:16:24.000Z</time>
</trkpt>
<trkpt lat="45.9665560" lon="10.1569820">
	<ele>1921.00</ele>
	<time>2025-08-03T08:16:25.000Z</time>
</trkpt>
<trkpt lat="45.9665560" lon="10.1569820">
	<ele>1920.80</ele>
	<time>2025-08-03T08:16:26.000Z</time>
</trkpt>
<trkpt lat="45.9665610" lon="10.1569850">
	<ele>1920.80</ele>
	<time>2025-08-03T08:16:27.000Z</time>
</trkpt>
<trkpt lat="45.9665670" lon="10.1569910">
	<ele>1920.80</ele>
	<time>2025-08-03T08:16:28.000Z</time>
</trkpt>
<trkpt lat="45.9665700" lon="10.1569940">
	<ele>1920.80</ele>
	<time>2025-08-03T08:16:29.000Z</time>
</trkpt>
<trkpt lat="45.9665740" lon="10.1569970">
	<ele>1920.80</ele>
	<time>2025-08-03T08:16:30.000Z</time>
</trkpt>
<trkpt lat="45.9665750" lon="10.1570040">
	<ele>1920.80</ele>
	<time>2025-08-03T08:16:31.000Z</time>
</trkpt>
<trkpt lat="45.9665770" lon="10.1570050">
	<ele>1921.00</ele>
	<time>2025-08-03T08:16:32.000Z</time>
</trkpt>
<trkpt lat="45.9665780" lon="10.1570050">
	<ele>1921.00</ele>
	<time>2025-08-03T08:16:33.000Z</time>
</trkpt>
<trkpt lat="45.9665780" lon="10.1570040">
	<ele>1921.20</ele>
	<time>2025-08-03T08:16:34.000Z</time>
</trkpt>
<trkpt lat="45.9665780" lon="10.1570040">
	<ele>1921.20</ele>
	<time>2025-08-03T08:16:35.000Z</time>
</trkpt>
<trkpt lat="45.9665780" lon="10.1570040">
	<ele>1921.20</ele>
	<time>2025-08-03T08:16:36.000Z</time>
</trkpt>
<trkpt lat="45.9665780" lon="10.1570040">
	<ele>1921.20</ele>
	<time>2025-08-03T08:16:37.000Z</time>
</trkpt>
<trkpt lat="45.9665780" lon="10.1570040">
	<ele>1921.00</ele>
	<time>2025-08-03T08:16:38.000Z</time>
</trkpt>
<trkpt lat="45.9665780" lon="10.1570040">
	<ele>1920.60</ele>
	<time>2025-08-03T08:16:39.000Z</time>
</trkpt>
<trkpt lat="45.9665780" lon="10.1570040">
	<ele>1920.40</ele>
	<time>2025-08-03T08:16:40.000Z</time>
</trkpt>
<trkpt lat="45.9665780" lon="10.1570040">
	<ele>1920.40</ele>
	<time>2025-08-03T08:16:41.000Z</time>
</trkpt>
<trkpt lat="45.9665780" lon="10.1570040">
	<ele>1920.20</ele>
	<time>2025-08-03T08:16:42.000Z</time>
</trkpt>
<trkpt lat="45.9665780" lon="10.1570040">
	<ele>1920.20</ele>
	<time>2025-08-03T08:16:43.000Z</time>
</trkpt>
<trkpt lat="45.9665780" lon="10.1570040">
	<ele>1920.20</ele>
	<time>2025-08-03T08:16:44.000Z</time>
</trkpt>
<trkpt lat="45.9665780" lon="10.1570040">
	<ele>1920.20</ele>
	<time>2025-08-03T08:16:45.000Z</time>
</trkpt>
<trkpt lat="45.9665780" lon="10.1570040">
	<ele>1920.00</ele>
	<time>2025-08-03T08:16:46.000Z</time>
</trkpt>
<trkpt lat="45.9665780" lon="10.1570040">
	<ele>1920.00</ele>
	<time>2025-08-03T08:16:47.000Z</time>
</trkpt>
<trkpt lat="45.9665780" lon="10.1570040">
	<ele>1920.00</ele>
	<time>2025-08-03T08:16:48.000Z</time>
</trkpt>
<trkpt lat="45.9665780" lon="10.1570040">
	<ele>1920.00</ele>
	<time>2025-08-03T08:16:49.000Z</time>
</trkpt>
<trkpt lat="45.9665790" lon="10.1570040">
	<ele>1920.00</ele>
	<time>2025-08-03T08:16:50.000Z</time>
</trkpt>
<trkpt lat="45.9665790" lon="10.1570040">
	<ele>1920.00</ele>
	<time>2025-08-03T08:16:51.000Z</time>
</trkpt>
<trkpt lat="45.9665800" lon="10.1570050">
	<ele>1920.00</ele>
	<time>2025-08-03T08:16:52.000Z</time>
</trkpt>
<trkpt lat="45.9665800" lon="10.1570050">
	<ele>1920.00</ele>
	<time>2025-08-03T08:16:53.000Z</time>
</trkpt>
<trkpt lat="45.9665840" lon="10.1570050">
	<ele>1920.00</ele>
	<time>2025-08-03T08:16:54.000Z</time>
</trkpt>
<trkpt lat="45.9665850" lon="10.1570050">
	<ele>1920.00</ele>
	<time>2025-08-03T08:16:55.000Z</time>
</trkpt>
<trkpt lat="45.9665870" lon="10.1570060">
	<ele>1920.00</ele>
	<time>2025-08-03T08:16:56.000Z</time>
</trkpt>
<trkpt lat="45.9665870" lon="10.1570060">
	<ele>1920.00</ele>
	<time>2025-08-03T08:16:57.000Z</time>
</trkpt>
<trkpt lat="45.9665870" lon="10.1570060">
	<ele>1920.00</ele>
	<time>2025-08-03T08:16:58.000Z</time>
</trkpt>
<trkpt lat="45.9665870" lon="10.1570060">
	<ele>1920.00</ele>
	<time>2025-08-03T08:16:59.000Z</time>
</trkpt>
<trkpt lat="45.9665870" lon="10.1570060">
	<ele>1920.00</ele>
	<time>2025-08-03T08:17:00.000Z</time>
</trkpt>
<trkpt lat="45.9665880" lon="10.1570060">
	<ele>1920.00</ele>
	<time>2025-08-03T08:17:01.000Z</time>
</trkpt>
<trkpt lat="45.9665880" lon="10.1570060">
	<ele>1920.00</ele>
	<time>2025-08-03T08:17:02.000Z</time>
</trkpt>
<trkpt lat="45.9665890" lon="10.1570060">
	<ele>1920.00</ele>
	<time>2025-08-03T08:17:03.000Z</time>
</trkpt>
<trkpt lat="45.9665890" lon="10.1570060">
	<ele>1920.00</ele>
	<time>2025-08-03T08:17:04.000Z</time>
</trkpt>
<trkpt lat="45.9665900" lon="10.1570060">
	<ele>1920.00</ele>
	<time>2025-08-03T08:17:05.000Z</time>
</trkpt>
<trkpt lat="45.9665900" lon="10.1570060">
	<ele>1920.20</ele>
	<time>2025-08-03T08:17:06.000Z</time>
</trkpt>
<trkpt lat="45.9665900" lon="10.1570060">
	<ele>1920.40</ele>
	<time>2025-08-03T08:17:07.000Z</time>
</trkpt>
<trkpt lat="45.9665900" lon="10.1570060">
	<ele>1920.40</ele>
	<time>2025-08-03T08:17:08.000Z</time>
</trkpt>
<trkpt lat="45.9665900" lon="10.1570060">
	<ele>1920.60</ele>
	<time>2025-08-03T08:17:09.000Z</time>
</trkpt>
<trkpt lat="45.9665910" lon="10.1570060">
	<ele>1920.60</ele>
	<time>2025-08-03T08:17:10.000Z</time>
</trkpt>
<trkpt lat="45.9665910" lon="10.1570060">
	<ele>1920.60</ele>
	<time>2025-08-03T08:17:11.000Z</time>
</trkpt>
<trkpt lat="45.9665910" lon="10.1570060">
	<ele>1920.60</ele>
	<time>2025-08-03T08:17:12.000Z</time>
</trkpt>
<trkpt lat="45.9665910" lon="10.1570060">
	<ele>1920.60</ele>
	<time>2025-08-03T08:17:13.000Z</time>
</trkpt>
<trkpt lat="45.9665920" lon="10.1570060">
	<ele>1920.60</ele>
	<time>2025-08-03T08:17:14.000Z</time>
</trkpt>
<trkpt lat="45.9665920" lon="10.1570060">
	<ele>1920.60</ele>
	<time>2025-08-03T08:17:15.000Z</time>
</trkpt>
<trkpt lat="45.9665920" lon="10.1570060">
	<ele>1920.60</ele>
	<time>2025-08-03T08:17:16.000Z</time>
</trkpt>
<trkpt lat="45.9665930" lon="10.1570060">
	<ele>1920.60</ele>
	<time>2025-08-03T08:17:17.000Z</time>
</trkpt>
<trkpt lat="45.9665930" lon="10.1570060">
	<ele>1920.60</ele>
	<time>2025-08-03T08:17:18.000Z</time>
</trkpt>
<trkpt lat="45.9665930" lon="10.1570050">
	<ele>1920.60</ele>
	<time>2025-08-03T08:17:19.000Z</time>
</trkpt>
<trkpt lat="45.9665950" lon="10.1570050">
	<ele>1920.60</ele>
	<time>2025-08-03T08:17:20.000Z</time>
</trkpt>
<trkpt lat="45.9665950" lon="10.1570050">
	<ele>1920.60</ele>
	<time>2025-08-03T08:17:21.000Z</time>
</trkpt>
<trkpt lat="45.9665960" lon="10.1570020">
	<ele>1920.60</ele>
	<time>2025-08-03T08:17:22.000Z</time>
</trkpt>
<trkpt lat="45.9665960" lon="10.1569980">
	<ele>1920.60</ele>
	<time>2025-08-03T08:17:23.000Z</time>
</trkpt>
<trkpt lat="45.9665970" lon="10.1569980">
	<ele>1920.60</ele>
	<time>2025-08-03T08:17:24.000Z</time>
</trkpt>
<trkpt lat="45.9665970" lon="10.1569970">
	<ele>1920.80</ele>
	<time>2025-08-03T08:17:25.000Z</time>
</trkpt>
<trkpt lat="45.9665970" lon="10.1569970">
	<ele>1920.60</ele>
	<time>2025-08-03T08:17:26.000Z</time>
</trkpt>
<trkpt lat="45.9665980" lon="10.1569970">
	<ele>1920.60</ele>
	<time>2025-08-03T08:17:27.000Z</time>
</trkpt>
<trkpt lat="45.9665980" lon="10.1569970">
	<ele>1920.60</ele>
	<time>2025-08-03T08:17:28.000Z</time>
</trkpt>
<trkpt lat="45.9665980" lon="10.1569960">
	<ele>1920.60</ele>
	<time>2025-08-03T08:17:29.000Z</time>
</trkpt>
<trkpt lat="45.9665980" lon="10.1569950">
	<ele>1920.60</ele>
	<time>2025-08-03T08:17:30.000Z</time>
</trkpt>
<trkpt lat="45.9665980" lon="10.1569940">
	<ele>1920.60</ele>
	<time>2025-08-03T08:17:31.000Z</time>
</trkpt>
<trkpt lat="45.9665980" lon="10.1569930">
	<ele>1920.60</ele>
	<time>2025-08-03T08:17:32.000Z</time>
</trkpt>
<trkpt lat="45.9665980" lon="10.1569930">
	<ele>1920.60</ele>
	<time>2025-08-03T08:17:33.000Z</time>
</trkpt>
<trkpt lat="45.9665980" lon="10.1569920">
	<ele>1920.60</ele>
	<time>2025-08-03T08:17:34.000Z</time>
</trkpt>
<trkpt lat="45.9665980" lon="10.1569920">
	<ele>1920.80</ele>
	<time>2025-08-03T08:17:35.000Z</time>
</trkpt>
<trkpt lat="45.9665980" lon="10.1569920">
	<ele>1920.80</ele>
	<time>2025-08-03T08:17:36.000Z</time>
</trkpt>
<trkpt lat="45.9665990" lon="10.1569920">
	<ele>1920.80</ele>
	<time>2025-08-03T08:17:37.000Z</time>
</trkpt>
<trkpt lat="45.9665990" lon="10.1569920">
	<ele>1920.80</ele>
	<time>2025-08-03T08:17:38.000Z</time>
</trkpt>
<trkpt lat="45.9665990" lon="10.1569920">
	<ele>1920.80</ele>
	<time>2025-08-03T08:17:39.000Z</time>
</trkpt>
<trkpt lat="45.9665990" lon="10.1569920">
	<ele>1920.80</ele>
	<time>2025-08-03T08:17:40.000Z</time>
</trkpt>
<trkpt lat="45.9666000" lon="10.1569910">
	<ele>1920.80</ele>
	<time>2025-08-03T08:17:41.000Z</time>
</trkpt>
<trkpt lat="45.9666000" lon="10.1569920">
	<ele>1920.80</ele>
	<time>2025-08-03T08:17:42.000Z</time>
</trkpt>
<trkpt lat="45.9666000" lon="10.1569920">
	<ele>1920.80</ele>
	<time>2025-08-03T08:17:43.000Z</time>
</trkpt>
<trkpt lat="45.9666000" lon="10.1569920">
	<ele>1920.80</ele>
	<time>2025-08-03T08:17:44.000Z</time>
</trkpt>
<trkpt lat="45.9666000" lon="10.1569920">
	<ele>1920.80</ele>
	<time>2025-08-03T08:17:45.000Z</time>
</trkpt>
<trkpt lat="45.9665990" lon="10.1569920">
	<ele>1920.60</ele>
	<time>2025-08-03T08:17:46.000Z</time>
</trkpt>
<trkpt lat="45.9665990" lon="10.1569920">
	<ele>1920.60</ele>
	<time>2025-08-03T08:17:47.000Z</time>
</trkpt>
<trkpt lat="45.9665990" lon="10.1569930">
	<ele>1920.40</ele>
	<time>2025-08-03T08:17:48.000Z</time>
</trkpt>
<trkpt lat="45.9665990" lon="10.1569930">
	<ele>1920.40</ele>
	<time>2025-08-03T08:17:49.000Z</time>
</trkpt>
<trkpt lat="45.9665980" lon="10.1569930">
	<ele>1920.60</ele>
	<time>2025-08-03T08:17:50.000Z</time>
</trkpt>
<trkpt lat="45.9665980" lon="10.1569940">
	<ele>1920.60</ele>
	<time>2025-08-03T08:17:51.000Z</time>
</trkpt>
<trkpt lat="45.9665980" lon="10.1569940">
	<ele>1920.60</ele>
	<time>2025-08-03T08:17:52.000Z</time>
</trkpt>
<trkpt lat="45.9665970" lon="10.1569930">
	<ele>1920.60</ele>
	<time>2025-08-03T08:17:53.000Z</time>
</trkpt>
<trkpt lat="45.9665970" lon="10.1569930">
	<ele>1920.60</ele>
	<time>2025-08-03T08:17:54.000Z</time>
</trkpt>
<trkpt lat="45.9665970" lon="10.1569930">
	<ele>1920.80</ele>
	<time>2025-08-03T08:17:55.000Z</time>
</trkpt>
<trkpt lat="45.9665960" lon="10.1569930">
	<ele>1920.80</ele>
	<time>2025-08-03T08:17:56.000Z</time>
</trkpt>
<trkpt lat="45.9665960" lon="10.1569930">
	<ele>1920.80</ele>
	<time>2025-08-03T08:17:57.000Z</time>
</trkpt>
<trkpt lat="45.9665960" lon="10.1569930">
	<ele>1920.80</ele>
	<time>2025-08-03T08:17:58.000Z</time>
</trkpt>
<trkpt lat="45.9665960" lon="10.1569930">
	<ele>1920.80</ele>
	<time>2025-08-03T08:17:59.000Z</time>
</trkpt>
<trkpt lat="45.9665960" lon="10.1569940">
	<ele>1920.80</ele>
	<time>2025-08-03T08:18:00.000Z</time>
</trkpt>
<trkpt lat="45.9665960" lon="10.1569940">
	<ele>1920.80</ele>
	<time>2025-08-03T08:18:01.000Z</time>
</trkpt>
<trkpt lat="45.9665950" lon="10.1569950">
	<ele>1920.80</ele>
	<time>2025-08-03T08:18:02.000Z</time>
</trkpt>
<trkpt lat="45.9665930" lon="10.1569960">
	<ele>1920.80</ele>
	<time>2025-08-03T08:18:03.000Z</time>
</trkpt>
<trkpt lat="45.9665920" lon="10.1569960">
	<ele>1920.80</ele>
	<time>2025-08-03T08:18:04.000Z</time>
</trkpt>
<trkpt lat="45.9665910" lon="10.1569960">
	<ele>1920.80</ele>
	<time>2025-08-03T08:18:05.000Z</time>
</trkpt>
<trkpt lat="45.9665900" lon="10.1569970">
	<ele>1920.80</ele>
	<time>2025-08-03T08:18:06.000Z</time>
</trkpt>
<trkpt lat="45.9665900" lon="10.1569970">
	<ele>1920.80</ele>
	<time>2025-08-03T08:18:07.000Z</time>
</trkpt>
<trkpt lat="45.9665900" lon="10.1569980">
	<ele>1920.80</ele>
	<time>2025-08-03T08:18:08.000Z</time>
</trkpt>
<trkpt lat="45.9665860" lon="10.1569990">
	<ele>1921.00</ele>
	<time>2025-08-03T08:18:09.000Z</time>
</trkpt>
<trkpt lat="45.9665840" lon="10.1570040">
	<ele>1921.00</ele>
	<time>2025-08-03T08:18:10.000Z</time>
</trkpt>
<trkpt lat="45.9665810" lon="10.1570110">
	<ele>1920.80</ele>
	<time>2025-08-03T08:18:11.000Z</time>
</trkpt>
<trkpt lat="45.9665790" lon="10.1570170">
	<ele>1920.80</ele>
	<time>2025-08-03T08:18:12.000Z</time>
</trkpt>
<trkpt lat="45.9665780" lon="10.1570210">
	<ele>1920.80</ele>
	<time>2025-08-03T08:18:13.000Z</time>
</trkpt>
<trkpt lat="45.9665780" lon="10.1570250">
	<ele>1920.60</ele>
	<time>2025-08-03T08:18:14.000Z</time>
</trkpt>
<trkpt lat="45.9665770" lon="10.1570300">
	<ele>1920.60</ele>
	<time>2025-08-03T08:18:15.000Z</time>
</trkpt>
<trkpt lat="45.9665770" lon="10.1570330">
	<ele>1920.40</ele>
	<time>2025-08-03T08:18:16.000Z</time>
</trkpt>
<trkpt lat="45.9665770" lon="10.1570340">
	<ele>1920.40</ele>
	<time>2025-08-03T08:18:17.000Z</time>
</trkpt>
<trkpt lat="45.9665760" lon="10.1570390">
	<ele>1920.60</ele>
	<time>2025-08-03T08:18:18.000Z</time>
</trkpt>
<trkpt lat="45.9665750" lon="10.1570600">
	<ele>1920.60</ele>
	<time>2025-08-03T08:18:19.000Z</time>
</trkpt>
<trkpt lat="45.9665730" lon="10.1570840">
	<ele>1920.60</ele>
	<time>2025-08-03T08:18:20.000Z</time>
</trkpt>
<trkpt lat="45.9665730" lon="10.1571060">
	<ele>1920.80</ele>
	<time>2025-08-03T08:18:21.000Z</time>
</trkpt>
<trkpt lat="45.9665730" lon="10.1571250">
	<ele>1920.80</ele>
	<time>2025-08-03T08:18:22.000Z</time>
</trkpt>
<trkpt lat="45.9665720" lon="10.1571450">
	<ele>1921.00</ele>
	<time>2025-08-03T08:18:23.000Z</time>
</trkpt>
<trkpt lat="45.9665680" lon="10.1571650">
	<ele>1921.20</ele>
	<time>2025-08-03T08:18:24.000Z</time>
</trkpt>
<trkpt lat="45.9665670" lon="10.1571830">
	<ele>1921.20</ele>
	<time>2025-08-03T08:18:25.000Z</time>
</trkpt>
<trkpt lat="45.9665680" lon="10.1572010">
	<ele>1921.40</ele>
	<time>2025-08-03T08:18:26.000Z</time>
</trkpt>
<trkpt lat="45.9665690" lon="10.1572190">
	<ele>1921.60</ele>
	<time>2025-08-03T08:18:27.000Z</time>
</trkpt>
<trkpt lat="45.9665700" lon="10.1572330">
	<ele>1921.80</ele>
	<time>2025-08-03T08:18:28.000Z</time>
</trkpt>
<trkpt lat="45.9665720" lon="10.1572500">
	<ele>1922.00</ele>
	<time>2025-08-03T08:18:29.000Z</time>
</trkpt>
<trkpt lat="45.9665750" lon="10.1572640">
	<ele>1922.00</ele>
	<time>2025-08-03T08:18:30.000Z</time>
</trkpt>
<trkpt lat="45.9665780" lon="10.1572770">
	<ele>1922.40</ele>
	<time>2025-08-03T08:18:31.000Z</time>
</trkpt>
<trkpt lat="45.9665800" lon="10.1572860">
	<ele>1922.60</ele>
	<time>2025-08-03T08:18:32.000Z</time>
</trkpt>
<trkpt lat="45.9665800" lon="10.1572990">
	<ele>1922.60</ele>
	<time>2025-08-03T08:18:33.000Z</time>
</trkpt>
<trkpt lat="45.9665810" lon="10.1573100">
	<ele>1922.60</ele>
	<time>2025-08-03T08:18:34.000Z</time>
</trkpt>
<trkpt lat="45.9665830" lon="10.1573210">
	<ele>1922.80</ele>
	<time>2025-08-03T08:18:35.000Z</time>
</trkpt>
<trkpt lat="45.9665860" lon="10.1573350">
	<ele>1923.20</ele>
	<time>2025-08-03T08:18:36.000Z</time>
</trkpt>
<trkpt lat="45.9665870" lon="10.1573450">
	<ele>1923.20</ele>
	<time>2025-08-03T08:18:37.000Z</time>
</trkpt>
<trkpt lat="45.9665890" lon="10.1573560">
	<ele>1923.60</ele>
	<time>2025-08-03T08:18:38.000Z</time>
</trkpt>
<trkpt lat="45.9665910" lon="10.1573690">
	<ele>1923.60</ele>
	<time>2025-08-03T08:18:39.000Z</time>
</trkpt>
<trkpt lat="45.9665940" lon="10.1573810">
	<ele>1924.00</ele>
	<time>2025-08-03T08:18:40.000Z</time>
</trkpt>
<trkpt lat="45.9665950" lon="10.1573940">
	<ele>1924.20</ele>
	<time>2025-08-03T08:18:41.000Z</time>
</trkpt>
<trkpt lat="45.9665960" lon="10.1574060">
	<ele>1924.60</ele>
	<time>2025-08-03T08:18:42.000Z</time>
</trkpt>
<trkpt lat="45.9665940" lon="10.1574200">
	<ele>1924.80</ele>
	<time>2025-08-03T08:18:43.000Z</time>
</trkpt>
<trkpt lat="45.9665920" lon="10.1574370">
	<ele>1925.00</ele>
	<time>2025-08-03T08:18:44.000Z</time>
</trkpt>
<trkpt lat="45.9665910" lon="10.1574530">
	<ele>1925.20</ele>
	<time>2025-08-03T08:18:45.000Z</time>
</trkpt>
<trkpt lat="45.9665920" lon="10.1574700">
	<ele>1925.40</ele>
	<time>2025-08-03T08:18:46.000Z</time>
</trkpt>
<trkpt lat="45.9665920" lon="10.1574860">
	<ele>1925.80</ele>
	<time>2025-08-03T08:18:47.000Z</time>
</trkpt>
<trkpt lat="45.9665930" lon="10.1575010">
	<ele>1926.00</ele>
	<time>2025-08-03T08:18:48.000Z</time>
</trkpt>
<trkpt lat="45.9665940" lon="10.1575170">
	<ele>1926.00</ele>
	<time>2025-08-03T08:18:49.000Z</time>
</trkpt>
<trkpt lat="45.9665960" lon="10.1575330">
	<ele>1926.20</ele>
	<time>2025-08-03T08:18:50.000Z</time>
</trkpt>
<trkpt lat="45.9665970" lon="10.1575510">
	<ele>1926.20</ele>
	<time>2025-08-03T08:18:51.000Z</time>
</trkpt>
<trkpt lat="45.9666000" lon="10.1575670">
	<ele>1926.40</ele>
	<time>2025-08-03T08:18:52.000Z</time>
</trkpt>
<trkpt lat="45.9666040" lon="10.1575810">
	<ele>1926.60</ele>
	<time>2025-08-03T08:18:53.000Z</time>
</trkpt>
<trkpt lat="45.9666040" lon="10.1575980">
	<ele>1926.60</ele>
	<time>2025-08-03T08:18:54.000Z</time>
</trkpt>
<trkpt lat="45.9666040" lon="10.1576160">
	<ele>1926.60</ele>
	<time>2025-08-03T08:18:55.000Z</time>
</trkpt>
<trkpt lat="45.9666000" lon="10.1576340">
	<ele>1926.80</ele>
	<time>2025-08-03T08:18:56.000Z</time>
</trkpt>
<trkpt lat="45.9665970" lon="10.1576510">
	<ele>1926.80</ele>
	<time>2025-08-03T08:18:57.000Z</time>
</trkpt>
<trkpt lat="45.9665960" lon="10.1576680">
	<ele>1926.80</ele>
	<time>2025-08-03T08:18:58.000Z</time>
</trkpt>
<trkpt lat="45.9665940" lon="10.1576870">
	<ele>1926.80</ele>
	<time>2025-08-03T08:18:59.000Z</time>
</trkpt>
<trkpt lat="45.9665930" lon="10.1577090">
	<ele>1926.80</ele>
	<time>2025-08-03T08:19:00.000Z</time>
</trkpt>
<trkpt lat="45.9665910" lon="10.1577290">
	<ele>1926.80</ele>
	<time>2025-08-03T08:19:01.000Z</time>
</trkpt>
<trkpt lat="45.9665890" lon="10.1577490">
	<ele>1926.80</ele>
	<time>2025-08-03T08:19:02.000Z</time>
</trkpt>
<trkpt lat="45.9665910" lon="10.1577670">
	<ele>1926.80</ele>
	<time>2025-08-03T08:19:03.000Z</time>
</trkpt>
<trkpt lat="45.9665910" lon="10.1577850">
	<ele>1926.80</ele>
	<time>2025-08-03T08:19:04.000Z</time>
</trkpt>
<trkpt lat="45.9665880" lon="10.1578020">
	<ele>1926.80</ele>
	<time>2025-08-03T08:19:05.000Z</time>
</trkpt>
<trkpt lat="45.9665860" lon="10.1578190">
	<ele>1927.00</ele>
	<time>2025-08-03T08:19:06.000Z</time>
</trkpt>
<trkpt lat="45.9665860" lon="10.1578380">
	<ele>1927.00</ele>
	<time>2025-08-03T08:19:07.000Z</time>
</trkpt>
<trkpt lat="45.9665830" lon="10.1578570">
	<ele>1927.00</ele>
	<time>2025-08-03T08:19:08.000Z</time>
</trkpt>
<trkpt lat="45.9665790" lon="10.1578760">
	<ele>1927.00</ele>
	<time>2025-08-03T08:19:09.000Z</time>
</trkpt>
<trkpt lat="45.9665740" lon="10.1578970">
	<ele>1927.00</ele>
	<time>2025-08-03T08:19:10.000Z</time>
</trkpt>
<trkpt lat="45.9665720" lon="10.1579170">
	<ele>1927.00</ele>
	<time>2025-08-03T08:19:11.000Z</time>
</trkpt>
<trkpt lat="45.9665680" lon="10.1579380">
	<ele>1927.00</ele>
	<time>2025-08-03T08:19:12.000Z</time>
</trkpt>
<trkpt lat="45.9665660" lon="10.1579570">
	<ele>1927.00</ele>
	<time>2025-08-03T08:19:13.000Z</time>
</trkpt>
<trkpt lat="45.9665640" lon="10.1579750">
	<ele>1927.00</ele>
	<time>2025-08-03T08:19:14.000Z</time>
</trkpt>
<trkpt lat="45.9665600" lon="10.1579930">
	<ele>1927.00</ele>
	<time>2025-08-03T08:19:15.000Z</time>
</trkpt>
<trkpt lat="45.9665610" lon="10.1580100">
	<ele>1926.80</ele>
	<time>2025-08-03T08:19:16.000Z</time>
</trkpt>
<trkpt lat="45.9665630" lon="10.1580280">
	<ele>1926.80</ele>
	<time>2025-08-03T08:19:17.000Z</time>
</trkpt>
<trkpt lat="45.9665670" lon="10.1580460">
	<ele>1926.60</ele>
	<time>2025-08-03T08:19:18.000Z</time>
</trkpt>
<trkpt lat="45.9665690" lon="10.1580630">
	<ele>1926.60</ele>
	<time>2025-08-03T08:19:19.000Z</time>
</trkpt>
<trkpt lat="45.9665700" lon="10.1580810">
	<ele>1926.60</ele>
	<time>2025-08-03T08:19:20.000Z</time>
</trkpt>
<trkpt lat="45.9665700" lon="10.1581010">
	<ele>1926.60</ele>
	<time>2025-08-03T08:19:21.000Z</time>
</trkpt>
<trkpt lat="45.9665700" lon="10.1581210">
	<ele>1926.60</ele>
	<time>2025-08-03T08:19:22.000Z</time>
</trkpt>
<trkpt lat="45.9665690" lon="10.1581380">
	<ele>1926.60</ele>
	<time>2025-08-03T08:19:23.000Z</time>
</trkpt>
<trkpt lat="45.9665680" lon="10.1581550">
	<ele>1926.40</ele>
	<time>2025-08-03T08:19:24.000Z</time>
</trkpt>
<trkpt lat="45.9665710" lon="10.1581710">
	<ele>1926.40</ele>
	<time>2025-08-03T08:19:25.000Z</time>
</trkpt>
<trkpt lat="45.9665720" lon="10.1581900">
	<ele>1926.20</ele>
	<time>2025-08-03T08:19:26.000Z</time>
</trkpt>
<trkpt lat="45.9665710" lon="10.1582110">
	<ele>1926.20</ele>
	<time>2025-08-03T08:19:27.000Z</time>
</trkpt>
<trkpt lat="45.9665690" lon="10.1582350">
	<ele>1926.00</ele>
	<time>2025-08-03T08:19:28.000Z</time>
</trkpt>
<trkpt lat="45.9665710" lon="10.1582550">
	<ele>1925.80</ele>
	<time>2025-08-03T08:19:29.000Z</time>
</trkpt>
<trkpt lat="45.9665710" lon="10.1582750">
	<ele>1925.60</ele>
	<time>2025-08-03T08:19:30.000Z</time>
</trkpt>
<trkpt lat="45.9665710" lon="10.1582940">
	<ele>1925.60</ele>
	<time>2025-08-03T08:19:31.000Z</time>
</trkpt>
<trkpt lat="45.9665710" lon="10.1583040">
	<ele>1925.60</ele>
	<time>2025-08-03T08:19:32.000Z</time>
</trkpt>
<trkpt lat="45.9665700" lon="10.1583080">
	<ele>1925.80</ele>
	<time>2025-08-03T08:19:33.000Z</time>
</trkpt>
<trkpt lat="45.9665710" lon="10.1583090">
	<ele>1925.80</ele>
	<time>2025-08-03T08:19:34.000Z</time>
</trkpt>
<trkpt lat="45.9665720" lon="10.1583100">
	<ele>1926.00</ele>
	<time>2025-08-03T08:19:35.000Z</time>
</trkpt>
<trkpt lat="45.9665730" lon="10.1583110">
	<ele>1926.00</ele>
	<time>2025-08-03T08:19:36.000Z</time>
</trkpt>
<trkpt lat="45.9665710" lon="10.1583140">
	<ele>1926.00</ele>
	<time>2025-08-03T08:19:37.000Z</time>
</trkpt>
<trkpt lat="45.9665700" lon="10.1583220">
	<ele>1926.00</ele>
	<time>2025-08-03T08:19:38.000Z</time>
</trkpt>
<trkpt lat="45.9665670" lon="10.1583390">
	<ele>1926.20</ele>
	<time>2025-08-03T08:19:39.000Z</time>
</trkpt>
<trkpt lat="45.9665660" lon="10.1583580">
	<ele>1926.20</ele>
	<time>2025-08-03T08:19:40.000Z</time>
</trkpt>
<trkpt lat="45.9665670" lon="10.1583750">
	<ele>1925.80</ele>
	<time>2025-08-03T08:19:41.000Z</time>
</trkpt>
<trkpt lat="45.9665680" lon="10.1583950">
	<ele>1925.60</ele>
	<time>2025-08-03T08:19:42.000Z</time>
</trkpt>
<trkpt lat="45.9665700" lon="10.1584110">
	<ele>1925.60</ele>
	<time>2025-08-03T08:19:43.000Z</time>
</trkpt>
<trkpt lat="45.9665740" lon="10.1584290">
	<ele>1925.60</ele>
	<time>2025-08-03T08:19:44.000Z</time>
</trkpt>
<trkpt lat="45.9665770" lon="10.1584460">
	<ele>1925.60</ele>
	<time>2025-08-03T08:19:45.000Z</time>
</trkpt>
<trkpt lat="45.9665760" lon="10.1584660">
	<ele>1925.60</ele>
	<time>2025-08-03T08:19:46.000Z</time>
</trkpt>
<trkpt lat="45.9665780" lon="10.1584820">
	<ele>1925.60</ele>
	<time>2025-08-03T08:19:47.000Z</time>
</trkpt>
<trkpt lat="45.9665780" lon="10.1584980">
	<ele>1925.60</ele>
	<time>2025-08-03T08:19:48.000Z</time>
</trkpt>
<trkpt lat="45.9665790" lon="10.1585140">
	<ele>1925.60</ele>
	<time>2025-08-03T08:19:49.000Z</time>
</trkpt>
<trkpt lat="45.9665780" lon="10.1585360">
	<ele>1925.80</ele>
	<time>2025-08-03T08:19:50.000Z</time>
</trkpt>
<trkpt lat="45.9665790" lon="10.1585550">
	<ele>1925.80</ele>
	<time>2025-08-03T08:19:51.000Z</time>
</trkpt>
<trkpt lat="45.9665780" lon="10.1585750">
	<ele>1925.80</ele>
	<time>2025-08-03T08:19:52.000Z</time>
</trkpt>
<trkpt lat="45.9665790" lon="10.1585930">
	<ele>1925.60</ele>
	<time>2025-08-03T08:19:53.000Z</time>
</trkpt>
<trkpt lat="45.9665830" lon="10.1586130">
	<ele>1925.60</ele>
	<time>2025-08-03T08:19:54.000Z</time>
</trkpt>
<trkpt lat="45.9665850" lon="10.1586340">
	<ele>1925.60</ele>
	<time>2025-08-03T08:19:55.000Z</time>
</trkpt>
<trkpt lat="45.9665890" lon="10.1586580">
	<ele>1925.40</ele>
	<time>2025-08-03T08:19:56.000Z</time>
</trkpt>
<trkpt lat="45.9665890" lon="10.1586790">
	<ele>1925.40</ele>
	<time>2025-08-03T08:19:57.000Z</time>
</trkpt>
<trkpt lat="45.9665890" lon="10.1586980">
	<ele>1925.20</ele>
	<time>2025-08-03T08:19:58.000Z</time>
</trkpt>
<trkpt lat="45.9665900" lon="10.1587150">
	<ele>1925.20</ele>
	<time>2025-08-03T08:19:59.000Z</time>
</trkpt>
<trkpt lat="45.9665880" lon="10.1587360">
	<ele>1925.20</ele>
	<time>2025-08-03T08:20:00.000Z</time>
</trkpt>
<trkpt lat="45.9665860" lon="10.1587550">
	<ele>1925.40</ele>
	<time>2025-08-03T08:20:01.000Z</time>
</trkpt>
<trkpt lat="45.9665850" lon="10.1587750">
	<ele>1925.40</ele>
	<time>2025-08-03T08:20:02.000Z</time>
</trkpt>
<trkpt lat="45.9665820" lon="10.1587950">
	<ele>1925.40</ele>
	<time>2025-08-03T08:20:03.000Z</time>
</trkpt>
<trkpt lat="45.9665810" lon="10.1588150">
	<ele>1925.60</ele>
	<time>2025-08-03T08:20:04.000Z</time>
</trkpt>
<trkpt lat="45.9665780" lon="10.1588380">
	<ele>1925.60</ele>
	<time>2025-08-03T08:20:05.000Z</time>
</trkpt>
<trkpt lat="45.9665780" lon="10.1588580">
	<ele>1925.80</ele>
	<time>2025-08-03T08:20:06.000Z</time>
</trkpt>
<trkpt lat="45.9665780" lon="10.1588770">
	<ele>1925.80</ele>
	<time>2025-08-03T08:20:07.000Z</time>
</trkpt>
<trkpt lat="45.9665770" lon="10.1588950">
	<ele>1925.80</ele>
	<time>2025-08-03T08:20:08.000Z</time>
</trkpt>
<trkpt lat="45.9665750" lon="10.1589200">
	<ele>1925.80</ele>
	<time>2025-08-03T08:20:09.000Z</time>
</trkpt>
<trkpt lat="45.9665780" lon="10.1589450">
	<ele>1925.80</ele>
	<time>2025-08-03T08:20:10.000Z</time>
</trkpt>
<trkpt lat="45.9665770" lon="10.1589690">
	<ele>1925.80</ele>
	<time>2025-08-03T08:20:11.000Z</time>
</trkpt>
<trkpt lat="45.9665760" lon="10.1589910">
	<ele>1925.80</ele>
	<time>2025-08-03T08:20:12.000Z</time>
</trkpt>
<trkpt lat="45.9665740" lon="10.1590100">
	<ele>1925.80</ele>
	<time>2025-08-03T08:20:13.000Z</time>
</trkpt>
<trkpt lat="45.9665710" lon="10.1590280">
	<ele>1925.80</ele>
	<time>2025-08-03T08:20:14.000Z</time>
</trkpt>
<trkpt lat="45.9665700" lon="10.1590470">
	<ele>1925.60</ele>
	<time>2025-08-03T08:20:15.000Z</time>
</trkpt>
<trkpt lat="45.9665710" lon="10.1590670">
	<ele>1925.60</ele>
	<time>2025-08-03T08:20:16.000Z</time>
</trkpt>
<trkpt lat="45.9665720" lon="10.1590860">
	<ele>1925.60</ele>
	<time>2025-08-03T08:20:17.000Z</time>
</trkpt>
<trkpt lat="45.9665710" lon="10.1591070">
	<ele>1925.60</ele>
	<time>2025-08-03T08:20:18.000Z</time>
</trkpt>
<trkpt lat="45.9665680" lon="10.1591280">
	<ele>1925.80</ele>
	<time>2025-08-03T08:20:19.000Z</time>
</trkpt>
<trkpt lat="45.9665710" lon="10.1591470">
	<ele>1926.00</ele>
	<time>2025-08-03T08:20:20.000Z</time>
</trkpt>
<trkpt lat="45.9665720" lon="10.1591650">
	<ele>1926.00</ele>
	<time>2025-08-03T08:20:21.000Z</time>
</trkpt>
<trkpt lat="45.9665720" lon="10.1591860">
	<ele>1926.00</ele>
	<time>2025-08-03T08:20:22.000Z</time>
</trkpt>
<trkpt lat="45.9665720" lon="10.1592030">
	<ele>1926.00</ele>
	<time>2025-08-03T08:20:23.000Z</time>
</trkpt>
<trkpt lat="45.9665720" lon="10.1592200">
	<ele>1926.20</ele>
	<time>2025-08-03T08:20:24.000Z</time>
</trkpt>
<trkpt lat="45.9665710" lon="10.1592380">
	<ele>1926.40</ele>
	<time>2025-08-03T08:20:25.000Z</time>
</trkpt>
<trkpt lat="45.9665690" lon="10.1592560">
	<ele>1926.60</ele>
	<time>2025-08-03T08:20:26.000Z</time>
</trkpt>
<trkpt lat="45.9665660" lon="10.1592720">
	<ele>1926.60</ele>
	<time>2025-08-03T08:20:27.000Z</time>
</trkpt>
<trkpt lat="45.9665640" lon="10.1592870">
	<ele>1926.80</ele>
	<time>2025-08-03T08:20:28.000Z</time>
</trkpt>
<trkpt lat="45.9665580" lon="10.1593090">
	<ele>1926.80</ele>
	<time>2025-08-03T08:20:29.000Z</time>
</trkpt>
<trkpt lat="45.9665540" lon="10.1593280">
	<ele>1926.80</ele>
	<time>2025-08-03T08:20:30.000Z</time>
</trkpt>
<trkpt lat="45.9665510" lon="10.1593460">
	<ele>1926.80</ele>
	<time>2025-08-03T08:20:31.000Z</time>
</trkpt>
<trkpt lat="45.9665460" lon="10.1593640">
	<ele>1926.80</ele>
	<time>2025-08-03T08:20:32.000Z</time>
</trkpt>
<trkpt lat="45.9665400" lon="10.1593830">
	<ele>1926.60</ele>
	<time>2025-08-03T08:20:33.000Z</time>
</trkpt>
<trkpt lat="45.9665340" lon="10.1594000">
	<ele>1926.40</ele>
	<time>2025-08-03T08:20:34.000Z</time>
</trkpt>
<trkpt lat="45.9665290" lon="10.1594200">
	<ele>1926.40</ele>
	<time>2025-08-03T08:20:35.000Z</time>
</trkpt>
<trkpt lat="45.9665270" lon="10.1594410">
	<ele>1926.20</ele>
	<time>2025-08-03T08:20:36.000Z</time>
</trkpt>
<trkpt lat="45.9665240" lon="10.1594610">
	<ele>1926.20</ele>
	<time>2025-08-03T08:20:37.000Z</time>
</trkpt>
<trkpt lat="45.9665180" lon="10.1594840">
	<ele>1926.00</ele>
	<time>2025-08-03T08:20:38.000Z</time>
</trkpt>
<trkpt lat="45.9665150" lon="10.1595050">
	<ele>1925.80</ele>
	<time>2025-08-03T08:20:39.000Z</time>
</trkpt>
<trkpt lat="45.9665110" lon="10.1595260">
	<ele>1925.80</ele>
	<time>2025-08-03T08:20:40.000Z</time>
</trkpt>
<trkpt lat="45.9665060" lon="10.1595450">
	<ele>1925.60</ele>
	<time>2025-08-03T08:20:41.000Z</time>
</trkpt>
<trkpt lat="45.9665020" lon="10.1595640">
	<ele>1925.60</ele>
	<time>2025-08-03T08:20:42.000Z</time>
</trkpt>
<trkpt lat="45.9664990" lon="10.1595850">
	<ele>1925.60</ele>
	<time>2025-08-03T08:20:43.000Z</time>
</trkpt>
<trkpt lat="45.9664920" lon="10.1596070">
	<ele>1925.60</ele>
	<time>2025-08-03T08:20:44.000Z</time>
</trkpt>
<trkpt lat="45.9664860" lon="10.1596220">
	<ele>1925.60</ele>
	<time>2025-08-03T08:20:45.000Z</time>
</trkpt>
<trkpt lat="45.9664860" lon="10.1596400">
	<ele>1925.60</ele>
	<time>2025-08-03T08:20:46.000Z</time>
</trkpt>
<trkpt lat="45.9664860" lon="10.1596550">
	<ele>1925.60</ele>
	<time>2025-08-03T08:20:47.000Z</time>
</trkpt>
<trkpt lat="45.9664860" lon="10.1596730">
	<ele>1925.80</ele>
	<time>2025-08-03T08:20:48.000Z</time>
</trkpt>
<trkpt lat="45.9664850" lon="10.1596930">
	<ele>1925.80</ele>
	<time>2025-08-03T08:20:49.000Z</time>
</trkpt>
<trkpt lat="45.9664800" lon="10.1597110">
	<ele>1925.80</ele>
	<time>2025-08-03T08:20:50.000Z</time>
</trkpt>
<trkpt lat="45.9664710" lon="10.1597280">
	<ele>1925.80</ele>
	<time>2025-08-03T08:20:51.000Z</time>
</trkpt>
<trkpt lat="45.9664680" lon="10.1597440">
	<ele>1926.00</ele>
	<time>2025-08-03T08:20:52.000Z</time>
</trkpt>
<trkpt lat="45.9664660" lon="10.1597630">
	<ele>1926.00</ele>
	<time>2025-08-03T08:20:53.000Z</time>
</trkpt>
<trkpt lat="45.9664640" lon="10.1597790">
	<ele>1926.20</ele>
	<time>2025-08-03T08:20:54.000Z</time>
</trkpt>
<trkpt lat="45.9664600" lon="10.1597920">
	<ele>1926.20</ele>
	<time>2025-08-03T08:20:55.000Z</time>
</trkpt>
<trkpt lat="45.9664500" lon="10.1598050">
	<ele>1926.20</ele>
	<time>2025-08-03T08:20:56.000Z</time>
</trkpt>
<trkpt lat="45.9664430" lon="10.1598150">
	<ele>1926.20</ele>
	<time>2025-08-03T08:20:57.000Z</time>
</trkpt>
<trkpt lat="45.9664320" lon="10.1598320">
	<ele>1926.00</ele>
	<time>2025-08-03T08:20:58.000Z</time>
</trkpt>
<trkpt lat="45.9664250" lon="10.1598520">
	<ele>1925.80</ele>
	<time>2025-08-03T08:20:59.000Z</time>
</trkpt>
<trkpt lat="45.9664180" lon="10.1598720">
	<ele>1925.60</ele>
	<time>2025-08-03T08:21:00.000Z</time>
</trkpt>
<trkpt lat="45.9664100" lon="10.1598880">
	<ele>1925.60</ele>
	<time>2025-08-03T08:21:01.000Z</time>
</trkpt>
<trkpt lat="45.9664000" lon="10.1599020">
	<ele>1925.40</ele>
	<time>2025-08-03T08:21:02.000Z</time>
</trkpt>
<trkpt lat="45.9663910" lon="10.1599200">
	<ele>1925.20</ele>
	<time>2025-08-03T08:21:03.000Z</time>
</trkpt>
<trkpt lat="45.9663830" lon="10.1599340">
	<ele>1925.20</ele>
	<time>2025-08-03T08:21:04.000Z</time>
</trkpt>
<trkpt lat="45.9663750" lon="10.1599480">
	<ele>1925.20</ele>
	<time>2025-08-03T08:21:05.000Z</time>
</trkpt>
<trkpt lat="45.9663650" lon="10.1599610">
	<ele>1925.20</ele>
	<time>2025-08-03T08:21:06.000Z</time>
</trkpt>
<trkpt lat="45.9663550" lon="10.1599710">
	<ele>1925.40</ele>
	<time>2025-08-03T08:21:07.000Z</time>
</trkpt>
<trkpt lat="45.9663460" lon="10.1599830">
	<ele>1925.40</ele>
	<time>2025-08-03T08:21:08.000Z</time>
</trkpt>
<trkpt lat="45.9663360" lon="10.1599950">
	<ele>1925.40</ele>
	<time>2025-08-03T08:21:09.000Z</time>
</trkpt>
<trkpt lat="45.9663280" lon="10.1600110">
	<ele>1925.40</ele>
	<time>2025-08-03T08:21:10.000Z</time>
</trkpt>
<trkpt lat="45.9663200" lon="10.1600260">
	<ele>1925.40</ele>
	<time>2025-08-03T08:21:11.000Z</time>
</trkpt>
<trkpt lat="45.9663120" lon="10.1600390">
	<ele>1925.60</ele>
	<time>2025-08-03T08:21:12.000Z</time>
</trkpt>
<trkpt lat="45.9663060" lon="10.1600480">
	<ele>1925.60</ele>
	<time>2025-08-03T08:21:13.000Z</time>
</trkpt>
<trkpt lat="45.9663000" lon="10.1600600">
	<ele>1925.80</ele>
	<time>2025-08-03T08:21:14.000Z</time>
</trkpt>
<trkpt lat="45.9662940" lon="10.1600740">
	<ele>1926.00</ele>
	<time>2025-08-03T08:21:15.000Z</time>
</trkpt>
<trkpt lat="45.9662880" lon="10.1600880">
	<ele>1926.00</ele>
	<time>2025-08-03T08:21:16.000Z</time>
</trkpt>
<trkpt lat="45.9662820" lon="10.1601010">
	<ele>1926.40</ele>
	<time>2025-08-03T08:21:17.000Z</time>
</trkpt>
<trkpt lat="45.9662750" lon="10.1601150">
	<ele>1926.40</ele>
	<time>2025-08-03T08:21:18.000Z</time>
</trkpt>
<trkpt lat="45.9662700" lon="10.1601280">
	<ele>1926.60</ele>
	<time>2025-08-03T08:21:19.000Z</time>
</trkpt>
<trkpt lat="45.9662640" lon="10.1601410">
	<ele>1926.60</ele>
	<time>2025-08-03T08:21:20.000Z</time>
</trkpt>
<trkpt lat="45.9662590" lon="10.1601580">
	<ele>1926.60</ele>
	<time>2025-08-03T08:21:21.000Z</time>
</trkpt>
<trkpt lat="45.9662520" lon="10.1601750">
	<ele>1926.60</ele>
	<time>2025-08-03T08:21:22.000Z</time>
</trkpt>
<trkpt lat="45.9662440" lon="10.1601920">
	<ele>1926.60</ele>
	<time>2025-08-03T08:21:23.000Z</time>
</trkpt>
<trkpt lat="45.9662400" lon="10.1602120">
	<ele>1926.60</ele>
	<time>2025-08-03T08:21:24.000Z</time>
</trkpt>
<trkpt lat="45.9662340" lon="10.1602280">
	<ele>1926.40</ele>
	<time>2025-08-03T08:21:25.000Z</time>
</trkpt>
<trkpt lat="45.9662240" lon="10.1602420">
	<ele>1926.40</ele>
	<time>2025-08-03T08:21:26.000Z</time>
</trkpt>
<trkpt lat="45.9662170" lon="10.1602560">
	<ele>1926.20</ele>
	<time>2025-08-03T08:21:27.000Z</time>
</trkpt>
<trkpt lat="45.9662080" lon="10.1602720">
	<ele>1926.20</ele>
	<time>2025-08-03T08:21:28.000Z</time>
</trkpt>
<trkpt lat="45.9661970" lon="10.1602850">
	<ele>1926.20</ele>
	<time>2025-08-03T08:21:29.000Z</time>
</trkpt>
<trkpt lat="45.9661880" lon="10.1603010">
	<ele>1926.00</ele>
	<time>2025-08-03T08:21:30.000Z</time>
</trkpt>
<trkpt lat="45.9661800" lon="10.1603180">
	<ele>1926.00</ele>
	<time>2025-08-03T08:21:31.000Z</time>
</trkpt>
<trkpt lat="45.9661720" lon="10.1603360">
	<ele>1926.00</ele>
	<time>2025-08-03T08:21:32.000Z</time>
</trkpt>
<trkpt lat="45.9661640" lon="10.1603520">
	<ele>1925.80</ele>
	<time>2025-08-03T08:21:33.000Z</time>
</trkpt>
<trkpt lat="45.9661550" lon="10.1603710">
	<ele>1925.80</ele>
	<time>2025-08-03T08:21:34.000Z</time>
</trkpt>
<trkpt lat="45.9661460" lon="10.1603850">
	<ele>1925.80</ele>
	<time>2025-08-03T08:21:35.000Z</time>
</trkpt>
<trkpt lat="45.9661390" lon="10.1604020">
	<ele>1925.60</ele>
	<time>2025-08-03T08:21:36.000Z</time>
</trkpt>
<trkpt lat="45.9661290" lon="10.1604190">
	<ele>1925.60</ele>
	<time>2025-08-03T08:21:37.000Z</time>
</trkpt>
<trkpt lat="45.9661200" lon="10.1604330">
	<ele>1925.40</ele>
	<time>2025-08-03T08:21:38.000Z</time>
</trkpt>
<trkpt lat="45.9661100" lon="10.1604500">
	<ele>1925.40</ele>
	<time>2025-08-03T08:21:39.000Z</time>
</trkpt>
<trkpt lat="45.9661000" lon="10.1604700">
	<ele>1925.40</ele>
	<time>2025-08-03T08:21:40.000Z</time>
</trkpt>
<trkpt lat="45.9660910" lon="10.1604880">
	<ele>1925.20</ele>
	<time>2025-08-03T08:21:41.000Z</time>
</trkpt>
<trkpt lat="45.9660830" lon="10.1605020">
	<ele>1925.20</ele>
	<time>2025-08-03T08:21:42.000Z</time>
</trkpt>
<trkpt lat="45.9660770" lon="10.1605130">
	<ele>1925.20</ele>
	<time>2025-08-03T08:21:43.000Z</time>
</trkpt>
<trkpt lat="45.9660700" lon="10.1605270">
	<ele>1925.20</ele>
	<time>2025-08-03T08:21:44.000Z</time>
</trkpt>
<trkpt lat="45.9660640" lon="10.1605440">
	<ele>1925.40</ele>
	<time>2025-08-03T08:21:45.000Z</time>
</trkpt>
<trkpt lat="45.9660570" lon="10.1605600">
	<ele>1925.60</ele>
	<time>2025-08-03T08:21:46.000Z</time>
</trkpt>
<trkpt lat="45.9660520" lon="10.1605730">
	<ele>1925.60</ele>
	<time>2025-08-03T08:21:47.000Z</time>
</trkpt>
<trkpt lat="45.9660440" lon="10.1605870">
	<ele>1925.80</ele>
	<time>2025-08-03T08:21:48.000Z</time>
</trkpt>
<trkpt lat="45.9660380" lon="10.1606020">
	<ele>1926.00</ele>
	<time>2025-08-03T08:21:49.000Z</time>
</trkpt>
<trkpt lat="45.9660270" lon="10.1606150">
	<ele>1926.20</ele>
	<time>2025-08-03T08:21:50.000Z</time>
</trkpt>
<trkpt lat="45.9660180" lon="10.1606300">
	<ele>1926.40</ele>
	<time>2025-08-03T08:21:51.000Z</time>
</trkpt>
<trkpt lat="45.9660100" lon="10.1606470">
	<ele>1926.60</ele>
	<time>2025-08-03T08:21:52.000Z</time>
</trkpt>
<trkpt lat="45.9660010" lon="10.1606520">
	<ele>1926.60</ele>
	<time>2025-08-03T08:21:53.000Z</time>
</trkpt>
<trkpt lat="45.9659920" lon="10.1606610">
	<ele>1926.80</ele>
	<time>2025-08-03T08:21:54.000Z</time>
</trkpt>
<trkpt lat="45.9659830" lon="10.1606660">
	<ele>1927.00</ele>
	<time>2025-08-03T08:21:55.000Z</time>
</trkpt>
<trkpt lat="45.9659840" lon="10.1606690">
	<ele>1927.00</ele>
	<time>2025-08-03T08:21:56.000Z</time>
</trkpt>
<trkpt lat="45.9659810" lon="10.1606710">
	<ele>1927.20</ele>
	<time>2025-08-03T08:21:57.000Z</time>
</trkpt>
<trkpt lat="45.9659800" lon="10.1606730">
	<ele>1927.40</ele>
	<time>2025-08-03T08:21:58.000Z</time>
</trkpt>
<trkpt lat="45.9659790" lon="10.1606750">
	<ele>1927.80</ele>
	<time>2025-08-03T08:21:59.000Z</time>
</trkpt>
<trkpt lat="45.9659780" lon="10.1606730">
	<ele>1928.00</ele>
	<time>2025-08-03T08:22:00.000Z</time>
</trkpt>
<trkpt lat="45.9659790" lon="10.1606730">
	<ele>1928.20</ele>
	<time>2025-08-03T08:22:01.000Z</time>
</trkpt>
<trkpt lat="45.9659790" lon="10.1606750">
	<ele>1928.40</ele>
	<time>2025-08-03T08:22:02.000Z</time>
</trkpt>
<trkpt lat="45.9659800" lon="10.1606780">
	<ele>1928.60</ele>
	<time>2025-08-03T08:22:03.000Z</time>
</trkpt>
<trkpt lat="45.9659810" lon="10.1606790">
	<ele>1928.60</ele>
	<time>2025-08-03T08:22:04.000Z</time>
</trkpt>
<trkpt lat="45.9659820" lon="10.1606800">
	<ele>1928.60</ele>
	<time>2025-08-03T08:22:05.000Z</time>
</trkpt>
<trkpt lat="45.9659820" lon="10.1606830">
	<ele>1928.60</ele>
	<time>2025-08-03T08:22:06.000Z</time>
</trkpt>
<trkpt lat="45.9659800" lon="10.1606950">
	<ele>1928.60</ele>
	<time>2025-08-03T08:22:07.000Z</time>
</trkpt>
<trkpt lat="45.9659760" lon="10.1606970">
	<ele>1928.60</ele>
	<time>2025-08-03T08:22:08.000Z</time>
</trkpt>
<trkpt lat="45.9659740" lon="10.1607010">
	<ele>1928.60</ele>
	<time>2025-08-03T08:22:09.000Z</time>
</trkpt>
<trkpt lat="45.9659690" lon="10.1607150">
	<ele>1928.60</ele>
	<time>2025-08-03T08:22:10.000Z</time>
</trkpt>
<trkpt lat="45.9659650" lon="10.1607320">
	<ele>1928.60</ele>
	<time>2025-08-03T08:22:11.000Z</time>
</trkpt>
<trkpt lat="45.9659640" lon="10.1607480">
	<ele>1928.80</ele>
	<time>2025-08-03T08:22:12.000Z</time>
</trkpt>
<trkpt lat="45.9659630" lon="10.1607620">
	<ele>1929.20</ele>
	<time>2025-08-03T08:22:13.000Z</time>
</trkpt>
<trkpt lat="45.9659630" lon="10.1607770">
	<ele>1929.40</ele>
	<time>2025-08-03T08:22:14.000Z</time>
</trkpt>
<trkpt lat="45.9659640" lon="10.1607950">
	<ele>1929.40</ele>
	<time>2025-08-03T08:22:15.000Z</time>
</trkpt>
<trkpt lat="45.9659680" lon="10.1608140">
	<ele>1929.60</ele>
	<time>2025-08-03T08:22:16.000Z</time>
</trkpt>
<trkpt lat="45.9659690" lon="10.1608310">
	<ele>1929.60</ele>
	<time>2025-08-03T08:22:17.000Z</time>
</trkpt>
<trkpt lat="45.9659740" lon="10.1608510">
	<ele>1929.40</ele>
	<time>2025-08-03T08:22:18.000Z</time>
</trkpt>
<trkpt lat="45.9659790" lon="10.1608690">
	<ele>1929.40</ele>
	<time>2025-08-03T08:22:19.000Z</time>
</trkpt>
<trkpt lat="45.9659840" lon="10.1608850">
	<ele>1929.40</ele>
	<time>2025-08-03T08:22:20.000Z</time>
</trkpt>
<trkpt lat="45.9659880" lon="10.1608990">
	<ele>1929.40</ele>
	<time>2025-08-03T08:22:21.000Z</time>
</trkpt>
<trkpt lat="45.9659940" lon="10.1609150">
	<ele>1929.40</ele>
	<time>2025-08-03T08:22:22.000Z</time>
</trkpt>
<trkpt lat="45.9659980" lon="10.1609320">
	<ele>1929.40</ele>
	<time>2025-08-03T08:22:23.000Z</time>
</trkpt>
<trkpt lat="45.9660020" lon="10.1609490">
	<ele>1929.40</ele>
	<time>2025-08-03T08:22:24.000Z</time>
</trkpt>
<trkpt lat="45.9660050" lon="10.1609710">
	<ele>1929.60</ele>
	<time>2025-08-03T08:22:25.000Z</time>
</trkpt>
<trkpt lat="45.9660090" lon="10.1609900">
	<ele>1929.80</ele>
	<time>2025-08-03T08:22:26.000Z</time>
</trkpt>
<trkpt lat="45.9660100" lon="10.1610090">
	<ele>1929.80</ele>
	<time>2025-08-03T08:22:27.000Z</time>
</trkpt>
<trkpt lat="45.9660120" lon="10.1610290">
	<ele>1929.80</ele>
	<time>2025-08-03T08:22:28.000Z</time>
</trkpt>
<trkpt lat="45.9660120" lon="10.1610470">
	<ele>1929.80</ele>
	<time>2025-08-03T08:22:29.000Z</time>
</trkpt>
<trkpt lat="45.9660140" lon="10.1610640">
	<ele>1929.80</ele>
	<time>2025-08-03T08:22:30.000Z</time>
</trkpt>
<trkpt lat="45.9660230" lon="10.1610830">
	<ele>1929.60</ele>
	<time>2025-08-03T08:22:31.000Z</time>
</trkpt>
<trkpt lat="45.9660260" lon="10.1610950">
	<ele>1929.60</ele>
	<time>2025-08-03T08:22:32.000Z</time>
</trkpt>
<trkpt lat="45.9660310" lon="10.1611120">
	<ele>1929.60</ele>
	<time>2025-08-03T08:22:33.000Z</time>
</trkpt>
<trkpt lat="45.9660400" lon="10.1611290">
	<ele>1929.60</ele>
	<time>2025-08-03T08:22:34.000Z</time>
</trkpt>
<trkpt lat="45.9660450" lon="10.1611460">
	<ele>1929.60</ele>
	<time>2025-08-03T08:22:35.000Z</time>
</trkpt>
<trkpt lat="45.9660500" lon="10.1611620">
	<ele>1929.60</ele>
	<time>2025-08-03T08:22:36.000Z</time>
</trkpt>
<trkpt lat="45.9660550" lon="10.1611770">
	<ele>1929.60</ele>
	<time>2025-08-03T08:22:37.000Z</time>
</trkpt>
<trkpt lat="45.9660580" lon="10.1611950">
	<ele>1929.60</ele>
	<time>2025-08-03T08:22:38.000Z</time>
</trkpt>
<trkpt lat="45.9660580" lon="10.1612130">
	<ele>1929.60</ele>
	<time>2025-08-03T08:22:39.000Z</time>
</trkpt>
<trkpt lat="45.9660560" lon="10.1612320">
	<ele>1929.60</ele>
	<time>2025-08-03T08:22:40.000Z</time>
</trkpt>
<trkpt lat="45.9660580" lon="10.1612510">
	<ele>1929.60</ele>
	<time>2025-08-03T08:22:41.000Z</time>
</trkpt>
<trkpt lat="45.9660570" lon="10.1612670">
	<ele>1929.60</ele>
	<time>2025-08-03T08:22:42.000Z</time>
</trkpt>
<trkpt lat="45.9660560" lon="10.1612860">
	<ele>1929.20</ele>
	<time>2025-08-03T08:22:43.000Z</time>
</trkpt>
<trkpt lat="45.9660590" lon="10.1613070">
	<ele>1929.00</ele>
	<time>2025-08-03T08:22:44.000Z</time>
</trkpt>
<trkpt lat="45.9660640" lon="10.1613250">
	<ele>1929.00</ele>
	<time>2025-08-03T08:22:45.000Z</time>
</trkpt>
<trkpt lat="45.9660700" lon="10.1613420">
	<ele>1928.80</ele>
	<time>2025-08-03T08:22:46.000Z</time>
</trkpt>
<trkpt lat="45.9660750" lon="10.1613570">
	<ele>1928.60</ele>
	<time>2025-08-03T08:22:47.000Z</time>
</trkpt>
<trkpt lat="45.9660830" lon="10.1613710">
	<ele>1928.60</ele>
	<time>2025-08-03T08:22:48.000Z</time>
</trkpt>
<trkpt lat="45.9660930" lon="10.1613810">
	<ele>1928.60</ele>
	<time>2025-08-03T08:22:49.000Z</time>
</trkpt>
<trkpt lat="45.9661030" lon="10.1613900">
	<ele>1928.60</ele>
	<time>2025-08-03T08:22:50.000Z</time>
</trkpt>
<trkpt lat="45.9661080" lon="10.1614010">
	<ele>1928.40</ele>
	<time>2025-08-03T08:22:51.000Z</time>
</trkpt>
<trkpt lat="45.9661090" lon="10.1614140">
	<ele>1928.40</ele>
	<time>2025-08-03T08:22:52.000Z</time>
</trkpt>
<trkpt lat="45.9661100" lon="10.1614320">
	<ele>1928.40</ele>
	<time>2025-08-03T08:22:53.000Z</time>
</trkpt>
<trkpt lat="45.9661110" lon="10.1614550">
	<ele>1928.40</ele>
	<time>2025-08-03T08:22:54.000Z</time>
</trkpt>
<trkpt lat="45.9661200" lon="10.1614760">
	<ele>1928.40</ele>
	<time>2025-08-03T08:22:55.000Z</time>
</trkpt>
<trkpt lat="45.9661290" lon="10.1614980">
	<ele>1928.40</ele>
	<time>2025-08-03T08:22:56.000Z</time>
</trkpt>
<trkpt lat="45.9661380" lon="10.1615160">
	<ele>1928.20</ele>
	<time>2025-08-03T08:22:57.000Z</time>
</trkpt>
<trkpt lat="45.9661470" lon="10.1615360">
	<ele>1928.20</ele>
	<time>2025-08-03T08:22:58.000Z</time>
</trkpt>
<trkpt lat="45.9661550" lon="10.1615540">
	<ele>1928.20</ele>
	<time>2025-08-03T08:22:59.000Z</time>
</trkpt>
<trkpt lat="45.9661630" lon="10.1615710">
	<ele>1928.00</ele>
	<time>2025-08-03T08:23:00.000Z</time>
</trkpt>
<trkpt lat="45.9661700" lon="10.1615820">
	<ele>1928.00</ele>
	<time>2025-08-03T08:23:01.000Z</time>
</trkpt>
<trkpt lat="45.9661800" lon="10.1615940">
	<ele>1927.80</ele>
	<time>2025-08-03T08:23:02.000Z</time>
</trkpt>
<trkpt lat="45.9661860" lon="10.1616090">
	<ele>1927.80</ele>
	<time>2025-08-03T08:23:03.000Z</time>
</trkpt>
<trkpt lat="45.9661920" lon="10.1616270">
	<ele>1927.80</ele>
	<time>2025-08-03T08:23:04.000Z</time>
</trkpt>
<trkpt lat="45.9661960" lon="10.1616400">
	<ele>1927.80</ele>
	<time>2025-08-03T08:23:05.000Z</time>
</trkpt>
<trkpt lat="45.9661950" lon="10.1616510">
	<ele>1927.80</ele>
	<time>2025-08-03T08:23:06.000Z</time>
</trkpt>
<trkpt lat="45.9661960" lon="10.1616620">
	<ele>1927.80</ele>
	<time>2025-08-03T08:23:07.000Z</time>
</trkpt>
<trkpt lat="45.9661970" lon="10.1616730">
	<ele>1927.80</ele>
	<time>2025-08-03T08:23:08.000Z</time>
</trkpt>
<trkpt lat="45.9661960" lon="10.1616880">
	<ele>1927.60</ele>
	<time>2025-08-03T08:23:09.000Z</time>
</trkpt>
<trkpt lat="45.9662000" lon="10.1617030">
	<ele>1927.40</ele>
	<time>2025-08-03T08:23:10.000Z</time>
</trkpt>
<trkpt lat="45.9662030" lon="10.1617210">
	<ele>1927.00</ele>
	<time>2025-08-03T08:23:11.000Z</time>
</trkpt>
<trkpt lat="45.9662070" lon="10.1617390">
	<ele>1926.80</ele>
	<time>2025-08-03T08:23:12.000Z</time>
</trkpt>
<trkpt lat="45.9662110" lon="10.1617550">
	<ele>1926.40</ele>
	<time>2025-08-03T08:23:13.000Z</time>
</trkpt>
<trkpt lat="45.9662150" lon="10.1617730">
	<ele>1926.20</ele>
	<time>2025-08-03T08:23:14.000Z</time>
</trkpt>
<trkpt lat="45.9662170" lon="10.1617910">
	<ele>1925.80</ele>
	<time>2025-08-03T08:23:15.000Z</time>
</trkpt>
<trkpt lat="45.9662240" lon="10.1618100">
	<ele>1925.60</ele>
	<time>2025-08-03T08:23:16.000Z</time>
</trkpt>
<trkpt lat="45.9662300" lon="10.1618280">
	<ele>1925.40</ele>
	<time>2025-08-03T08:23:17.000Z</time>
</trkpt>
<trkpt lat="45.9662340" lon="10.1618420">
	<ele>1925.20</ele>
	<time>2025-08-03T08:23:18.000Z</time>
</trkpt>
<trkpt lat="45.9662350" lon="10.1618530">
	<ele>1925.00</ele>
	<time>2025-08-03T08:23:19.000Z</time>
</trkpt>
<trkpt lat="45.9662380" lon="10.1618660">
	<ele>1925.00</ele>
	<time>2025-08-03T08:23:20.000Z</time>
</trkpt>
<trkpt lat="45.9662450" lon="10.1618780">
	<ele>1924.80</ele>
	<time>2025-08-03T08:23:21.000Z</time>
</trkpt>
<trkpt lat="45.9662510" lon="10.1618930">
	<ele>1924.60</ele>
	<time>2025-08-03T08:23:22.000Z</time>
</trkpt>
<trkpt lat="45.9662530" lon="10.1619090">
	<ele>1924.40</ele>
	<time>2025-08-03T08:23:23.000Z</time>
</trkpt>
<trkpt lat="45.9662550" lon="10.1619220">
	<ele>1924.20</ele>
	<time>2025-08-03T08:23:24.000Z</time>
</trkpt>
<trkpt lat="45.9662580" lon="10.1619360">
	<ele>1924.00</ele>
	<time>2025-08-03T08:23:25.000Z</time>
</trkpt>
<trkpt lat="45.9662640" lon="10.1619460">
	<ele>1923.80</ele>
	<time>2025-08-03T08:23:26.000Z</time>
</trkpt>
<trkpt lat="45.9662680" lon="10.1619560">
	<ele>1923.40</ele>
	<time>2025-08-03T08:23:27.000Z</time>
</trkpt>
<trkpt lat="45.9662680" lon="10.1619680">
	<ele>1923.20</ele>
	<time>2025-08-03T08:23:28.000Z</time>
</trkpt>
<trkpt lat="45.9662740" lon="10.1619830">
	<ele>1923.20</ele>
	<time>2025-08-03T08:23:29.000Z</time>
</trkpt>
<trkpt lat="45.9662810" lon="10.1620010">
	<ele>1922.80</ele>
	<time>2025-08-03T08:23:30.000Z</time>
</trkpt>
<trkpt lat="45.9662870" lon="10.1620200">
	<ele>1922.60</ele>
	<time>2025-08-03T08:23:31.000Z</time>
</trkpt>
<trkpt lat="45.9662930" lon="10.1620390">
	<ele>1922.20</ele>
	<time>2025-08-03T08:23:32.000Z</time>
</trkpt>
<trkpt lat="45.9663000" lon="10.1620600">
	<ele>1922.00</ele>
	<time>2025-08-03T08:23:33.000Z</time>
</trkpt>
<trkpt lat="45.9663050" lon="10.1620770">
	<ele>1921.80</ele>
	<time>2025-08-03T08:23:34.000Z</time>
</trkpt>
<trkpt lat="45.9663130" lon="10.1620940">
	<ele>1921.40</ele>
	<time>2025-08-03T08:23:35.000Z</time>
</trkpt>
<trkpt lat="45.9663200" lon="10.1621140">
	<ele>1921.20</ele>
	<time>2025-08-03T08:23:36.000Z</time>
</trkpt>
<trkpt lat="45.9663280" lon="10.1621310">
	<ele>1921.20</ele>
	<time>2025-08-03T08:23:37.000Z</time>
</trkpt>
<trkpt lat="45.9663300" lon="10.1621420">
	<ele>1921.00</ele>
	<time>2025-08-03T08:23:38.000Z</time>
</trkpt>
<trkpt lat="45.9663360" lon="10.1621540">
	<ele>1921.00</ele>
	<time>2025-08-03T08:23:39.000Z</time>
</trkpt>
<trkpt lat="45.9663390" lon="10.1621700">
	<ele>1921.00</ele>
	<time>2025-08-03T08:23:40.000Z</time>
</trkpt>
<trkpt lat="45.9663390" lon="10.1621820">
	<ele>1921.00</ele>
	<time>2025-08-03T08:23:41.000Z</time>
</trkpt>
<trkpt lat="45.9663410" lon="10.1621900">
	<ele>1921.00</ele>
	<time>2025-08-03T08:23:42.000Z</time>
</trkpt>
<trkpt lat="45.9663400" lon="10.1621920">
	<ele>1921.00</ele>
	<time>2025-08-03T08:23:43.000Z</time>
</trkpt>
<trkpt lat="45.9663400" lon="10.1621920">
	<ele>1921.00</ele>
	<time>2025-08-03T08:23:44.000Z</time>
</trkpt>
<trkpt lat="45.9663410" lon="10.1621920">
	<ele>1921.00</ele>
	<time>2025-08-03T08:23:45.000Z</time>
</trkpt>
<trkpt lat="45.9663420" lon="10.1621910">
	<ele>1921.00</ele>
	<time>2025-08-03T08:23:46.000Z</time>
</trkpt>
<trkpt lat="45.9663420" lon="10.1621920">
	<ele>1921.20</ele>
	<time>2025-08-03T08:23:47.000Z</time>
</trkpt>
<trkpt lat="45.9663450" lon="10.1621910">
	<ele>1921.20</ele>
	<time>2025-08-03T08:23:48.000Z</time>
</trkpt>
<trkpt lat="45.9663460" lon="10.1621910">
	<ele>1921.20</ele>
	<time>2025-08-03T08:23:49.000Z</time>
</trkpt>
<trkpt lat="45.9663470" lon="10.1621900">
	<ele>1921.20</ele>
	<time>2025-08-03T08:23:50.000Z</time>
</trkpt>
<trkpt lat="45.9663450" lon="10.1621900">
	<ele>1921.20</ele>
	<time>2025-08-03T08:23:51.000Z</time>
</trkpt>
<trkpt lat="45.9663450" lon="10.1621900">
	<ele>1921.20</ele>
	<time>2025-08-03T08:23:52.000Z</time>
</trkpt>
<trkpt lat="45.9663440" lon="10.1621920">
	<ele>1921.20</ele>
	<time>2025-08-03T08:23:53.000Z</time>
</trkpt>
<trkpt lat="45.9663440" lon="10.1621920">
	<ele>1921.20</ele>
	<time>2025-08-03T08:23:54.000Z</time>
</trkpt>
<trkpt lat="45.9663440" lon="10.1621920">
	<ele>1921.00</ele>
	<time>2025-08-03T08:23:55.000Z</time>
</trkpt>
<trkpt lat="45.9663440" lon="10.1621920">
	<ele>1921.00</ele>
	<time>2025-08-03T08:23:56.000Z</time>
</trkpt>
<trkpt lat="45.9663440" lon="10.1621920">
	<ele>1921.00</ele>
	<time>2025-08-03T08:23:57.000Z</time>
</trkpt>
<trkpt lat="45.9663440" lon="10.1621920">
	<ele>1921.00</ele>
	<time>2025-08-03T08:23:58.000Z</time>
</trkpt>
<trkpt lat="45.9663440" lon="10.1621920">
	<ele>1921.00</ele>
	<time>2025-08-03T08:23:59.000Z</time>
</trkpt>
<trkpt lat="45.9663440" lon="10.1621920">
	<ele>1921.00</ele>
	<time>2025-08-03T08:24:00.000Z</time>
</trkpt>
<trkpt lat="45.9663440" lon="10.1621920">
	<ele>1921.00</ele>
	<time>2025-08-03T08:24:01.000Z</time>
</trkpt>
<trkpt lat="45.9663440" lon="10.1621920">
	<ele>1921.00</ele>
	<time>2025-08-03T08:24:02.000Z</time>
</trkpt>
<trkpt lat="45.9663440" lon="10.1621910">
	<ele>1921.00</ele>
	<time>2025-08-03T08:24:03.000Z</time>
</trkpt>
<trkpt lat="45.9663450" lon="10.1621910">
	<ele>1921.00</ele>
	<time>2025-08-03T08:24:04.000Z</time>
</trkpt>
<trkpt lat="45.9663420" lon="10.1621930">
	<ele>1920.80</ele>
	<time>2025-08-03T08:24:05.000Z</time>
</trkpt>
<trkpt lat="45.9663310" lon="10.1621940">
	<ele>1921.00</ele>
	<time>2025-08-03T08:24:06.000Z</time>
</trkpt>
<trkpt lat="45.9663200" lon="10.1621990">
	<ele>1921.00</ele>
	<time>2025-08-03T08:24:07.000Z</time>
</trkpt>
<trkpt lat="45.9663040" lon="10.1622000">
	<ele>1921.00</ele>
	<time>2025-08-03T08:24:08.000Z</time>
</trkpt>
<trkpt lat="45.9662890" lon="10.1621960">
	<ele>1921.20</ele>
	<time>2025-08-03T08:24:09.000Z</time>
</trkpt>
<trkpt lat="45.9662710" lon="10.1621920">
	<ele>1921.20</ele>
	<time>2025-08-03T08:24:10.000Z</time>
</trkpt>
<trkpt lat="45.9662560" lon="10.1621970">
	<ele>1921.20</ele>
	<time>2025-08-03T08:24:11.000Z</time>
</trkpt>
<trkpt lat="45.9662410" lon="10.1622010">
	<ele>1921.20</ele>
	<time>2025-08-03T08:24:12.000Z</time>
</trkpt>
<trkpt lat="45.9662240" lon="10.1621990">
	<ele>1921.40</ele>
	<time>2025-08-03T08:24:13.000Z</time>
</trkpt>
<trkpt lat="45.9662050" lon="10.1622020">
	<ele>1921.40</ele>
	<time>2025-08-03T08:24:14.000Z</time>
</trkpt>
<trkpt lat="45.9661890" lon="10.1622040">
	<ele>1921.60</ele>
	<time>2025-08-03T08:24:15.000Z</time>
</trkpt>
<trkpt lat="45.9661730" lon="10.1622070">
	<ele>1921.60</ele>
	<time>2025-08-03T08:24:16.000Z</time>
</trkpt>
<trkpt lat="45.9661590" lon="10.1622100">
	<ele>1921.60</ele>
	<time>2025-08-03T08:24:17.000Z</time>
</trkpt>
<trkpt lat="45.9661460" lon="10.1622170">
	<ele>1921.80</ele>
	<time>2025-08-03T08:24:18.000Z</time>
</trkpt>
<trkpt lat="45.9661380" lon="10.1622280">
	<ele>1921.80</ele>
	<time>2025-08-03T08:24:19.000Z</time>
</trkpt>
<trkpt lat="45.9661250" lon="10.1622380">
	<ele>1921.80</ele>
	<time>2025-08-03T08:24:20.000Z</time>
</trkpt>
<trkpt lat="45.9661090" lon="10.1622470">
	<ele>1921.60</ele>
	<time>2025-08-03T08:24:21.000Z</time>
</trkpt>
<trkpt lat="45.9660970" lon="10.1622580">
	<ele>1921.60</ele>
	<time>2025-08-03T08:24:22.000Z</time>
</trkpt>
<trkpt lat="45.9660900" lon="10.1622720">
	<ele>1921.40</ele>
	<time>2025-08-03T08:24:23.000Z</time>
</trkpt>
<trkpt lat="45.9660770" lon="10.1622750">
	<ele>1921.40</ele>
	<time>2025-08-03T08:24:24.000Z</time>
</trkpt>
<trkpt lat="45.9660580" lon="10.1622810">
	<ele>1921.40</ele>
	<time>2025-08-03T08:24:25.000Z</time>
</trkpt>
<trkpt lat="45.9660450" lon="10.1622930">
	<ele>1921.20</ele>
	<time>2025-08-03T08:24:26.000Z</time>
</trkpt>
<trkpt lat="45.9660370" lon="10.1622940">
	<ele>1921.00</ele>
	<time>2025-08-03T08:24:27.000Z</time>
</trkpt>
<trkpt lat="45.9660290" lon="10.1623070">
	<ele>1920.80</ele>
	<time>2025-08-03T08:24:28.000Z</time>
</trkpt>
<trkpt lat="45.9660190" lon="10.1623280">
	<ele>1920.60</ele>
	<time>2025-08-03T08:24:29.000Z</time>
</trkpt>
<trkpt lat="45.9660110" lon="10.1623520">
	<ele>1920.60</ele>
	<time>2025-08-03T08:24:30.000Z</time>
</trkpt>
<trkpt lat="45.9660050" lon="10.1623730">
	<ele>1920.40</ele>
	<time>2025-08-03T08:24:31.000Z</time>
</trkpt>
<trkpt lat="45.9659970" lon="10.1623930">
	<ele>1920.20</ele>
	<time>2025-08-03T08:24:32.000Z</time>
</trkpt>
<trkpt lat="45.9659900" lon="10.1624150">
	<ele>1920.00</ele>
	<time>2025-08-03T08:24:33.000Z</time>
</trkpt>
<trkpt lat="45.9659830" lon="10.1624360">
	<ele>1919.80</ele>
	<time>2025-08-03T08:24:34.000Z</time>
</trkpt>
<trkpt lat="45.9659770" lon="10.1624560">
	<ele>1919.40</ele>
	<time>2025-08-03T08:24:35.000Z</time>
</trkpt>
<trkpt lat="45.9659720" lon="10.1624760">
	<ele>1919.00</ele>
	<time>2025-08-03T08:24:36.000Z</time>
</trkpt>
<trkpt lat="45.9659660" lon="10.1624950">
	<ele>1919.00</ele>
	<time>2025-08-03T08:24:37.000Z</time>
</trkpt>
<trkpt lat="45.9659610" lon="10.1625140">
	<ele>1918.80</ele>
	<time>2025-08-03T08:24:38.000Z</time>
</trkpt>
<trkpt lat="45.9659560" lon="10.1625340">
	<ele>1918.60</ele>
	<time>2025-08-03T08:24:39.000Z</time>
</trkpt>
<trkpt lat="45.9659530" lon="10.1625540">
	<ele>1918.40</ele>
	<time>2025-08-03T08:24:40.000Z</time>
</trkpt>
<trkpt lat="45.9659510" lon="10.1625710">
	<ele>1918.20</ele>
	<time>2025-08-03T08:24:41.000Z</time>
</trkpt>
<trkpt lat="45.9659470" lon="10.1625900">
	<ele>1918.00</ele>
	<time>2025-08-03T08:24:42.000Z</time>
</trkpt>
<trkpt lat="45.9659420" lon="10.1626070">
	<ele>1917.60</ele>
	<time>2025-08-03T08:24:43.000Z</time>
</trkpt>
<trkpt lat="45.9659350" lon="10.1626280">
	<ele>1917.40</ele>
	<time>2025-08-03T08:24:44.000Z</time>
</trkpt>
<trkpt lat="45.9659280" lon="10.1626490">
	<ele>1917.20</ele>
	<time>2025-08-03T08:24:45.000Z</time>
</trkpt>
<trkpt lat="45.9659230" lon="10.1626720">
	<ele>1917.20</ele>
	<time>2025-08-03T08:24:46.000Z</time>
</trkpt>
<trkpt lat="45.9659180" lon="10.1626900">
	<ele>1917.00</ele>
	<time>2025-08-03T08:24:47.000Z</time>
</trkpt>
<trkpt lat="45.9659160" lon="10.1627090">
	<ele>1916.60</ele>
	<time>2025-08-03T08:24:48.000Z</time>
</trkpt>
<trkpt lat="45.9659110" lon="10.1627310">
	<ele>1916.40</ele>
	<time>2025-08-03T08:24:49.000Z</time>
</trkpt>
<trkpt lat="45.9659080" lon="10.1627520">
	<ele>1916.40</ele>
	<time>2025-08-03T08:24:50.000Z</time>
</trkpt>
<trkpt lat="45.9659010" lon="10.1627760">
	<ele>1916.20</ele>
	<time>2025-08-03T08:24:51.000Z</time>
</trkpt>
<trkpt lat="45.9658940" lon="10.1627960">
	<ele>1916.00</ele>
	<time>2025-08-03T08:24:52.000Z</time>
</trkpt>
<trkpt lat="45.9658850" lon="10.1628180">
	<ele>1915.80</ele>
	<time>2025-08-03T08:24:53.000Z</time>
</trkpt>
<trkpt lat="45.9658770" lon="10.1628390">
	<ele>1915.60</ele>
	<time>2025-08-03T08:24:54.000Z</time>
</trkpt>
<trkpt lat="45.9658710" lon="10.1628570">
	<ele>1915.60</ele>
	<time>2025-08-03T08:24:55.000Z</time>
</trkpt>
<trkpt lat="45.9658660" lon="10.1628750">
	<ele>1915.60</ele>
	<time>2025-08-03T08:24:56.000Z</time>
</trkpt>
<trkpt lat="45.9658620" lon="10.1628940">
	<ele>1915.60</ele>
	<time>2025-08-03T08:24:57.000Z</time>
</trkpt>
<trkpt lat="45.9658580" lon="10.1629060">
	<ele>1915.60</ele>
	<time>2025-08-03T08:24:58.000Z</time>
</trkpt>
<trkpt lat="45.9658520" lon="10.1629190">
	<ele>1915.60</ele>
	<time>2025-08-03T08:24:59.000Z</time>
</trkpt>
<trkpt lat="45.9658470" lon="10.1629310">
	<ele>1915.60</ele>
	<time>2025-08-03T08:25:00.000Z</time>
</trkpt>
<trkpt lat="45.9658450" lon="10.1629500">
	<ele>1915.60</ele>
	<time>2025-08-03T08:25:01.000Z</time>
</trkpt>
<trkpt lat="45.9658320" lon="10.1629740">
	<ele>1915.60</ele>
	<time>2025-08-03T08:25:02.000Z</time>
</trkpt>
<trkpt lat="45.9658250" lon="10.1629870">
	<ele>1915.60</ele>
	<time>2025-08-03T08:25:03.000Z</time>
</trkpt>
<trkpt lat="45.9658180" lon="10.1629940">
	<ele>1915.60</ele>
	<time>2025-08-03T08:25:04.000Z</time>
</trkpt>
<trkpt lat="45.9658140" lon="10.1630070">
	<ele>1915.40</ele>
	<time>2025-08-03T08:25:05.000Z</time>
</trkpt>
<trkpt lat="45.9658060" lon="10.1630220">
	<ele>1915.40</ele>
	<time>2025-08-03T08:25:06.000Z</time>
</trkpt>
<trkpt lat="45.9657970" lon="10.1630390">
	<ele>1915.40</ele>
	<time>2025-08-03T08:25:07.000Z</time>
</trkpt>
<trkpt lat="45.9657860" lon="10.1630530">
	<ele>1915.40</ele>
	<time>2025-08-03T08:25:08.000Z</time>
</trkpt>
<trkpt lat="45.9657770" lon="10.1630590">
	<ele>1915.40</ele>
	<time>2025-08-03T08:25:09.000Z</time>
</trkpt>
<trkpt lat="45.9657660" lon="10.1630730">
	<ele>1915.20</ele>
	<time>2025-08-03T08:25:10.000Z</time>
</trkpt>
<trkpt lat="45.9657550" lon="10.1630880">
	<ele>1915.00</ele>
	<time>2025-08-03T08:25:11.000Z</time>
</trkpt>
<trkpt lat="45.9657460" lon="10.1631010">
	<ele>1914.80</ele>
	<time>2025-08-03T08:25:12.000Z</time>
</trkpt>
<trkpt lat="45.9657310" lon="10.1631130">
	<ele>1914.60</ele>
	<time>2025-08-03T08:25:13.000Z</time>
</trkpt>
<trkpt lat="45.9657240" lon="10.1631260">
	<ele>1914.40</ele>
	<time>2025-08-03T08:25:14.000Z</time>
</trkpt>
<trkpt lat="45.9657170" lon="10.1631480">
	<ele>1914.20</ele>
	<time>2025-08-03T08:25:15.000Z</time>
</trkpt>
<trkpt lat="45.9657100" lon="10.1631680">
	<ele>1914.20</ele>
	<time>2025-08-03T08:25:16.000Z</time>
</trkpt>
<trkpt lat="45.9657020" lon="10.1631880">
	<ele>1914.00</ele>
	<time>2025-08-03T08:25:17.000Z</time>
</trkpt>
<trkpt lat="45.9656940" lon="10.1632080">
	<ele>1914.00</ele>
	<time>2025-08-03T08:25:18.000Z</time>
</trkpt>
<trkpt lat="45.9656890" lon="10.1632280">
	<ele>1914.00</ele>
	<time>2025-08-03T08:25:19.000Z</time>
</trkpt>
<trkpt lat="45.9656810" lon="10.1632400">
	<ele>1914.00</ele>
	<time>2025-08-03T08:25:20.000Z</time>
</trkpt>
<trkpt lat="45.9656700" lon="10.1632580">
	<ele>1913.80</ele>
	<time>2025-08-03T08:25:21.000Z</time>
</trkpt>
<trkpt lat="45.9656620" lon="10.1632710">
	<ele>1913.80</ele>
	<time>2025-08-03T08:25:22.000Z</time>
</trkpt>
<trkpt lat="45.9656560" lon="10.1632830">
	<ele>1913.60</ele>
	<time>2025-08-03T08:25:23.000Z</time>
</trkpt>
<trkpt lat="45.9656530" lon="10.1632960">
	<ele>1913.40</ele>
	<time>2025-08-03T08:25:24.000Z</time>
</trkpt>
<trkpt lat="45.9656460" lon="10.1633120">
	<ele>1913.20</ele>
	<time>2025-08-03T08:25:25.000Z</time>
</trkpt>
<trkpt lat="45.9656380" lon="10.1633280">
	<ele>1913.00</ele>
	<time>2025-08-03T08:25:26.000Z</time>
</trkpt>
<trkpt lat="45.9656300" lon="10.1633420">
	<ele>1913.00</ele>
	<time>2025-08-03T08:25:27.000Z</time>
</trkpt>
<trkpt lat="45.9656200" lon="10.1633550">
	<ele>1912.80</ele>
	<time>2025-08-03T08:25:28.000Z</time>
</trkpt>
<trkpt lat="45.9656120" lon="10.1633630">
	<ele>1912.80</ele>
	<time>2025-08-03T08:25:29.000Z</time>
</trkpt>
<trkpt lat="45.9656060" lon="10.1633790">
	<ele>1912.60</ele>
	<time>2025-08-03T08:25:30.000Z</time>
</trkpt>
<trkpt lat="45.9656040" lon="10.1633940">
	<ele>1912.60</ele>
	<time>2025-08-03T08:25:31.000Z</time>
</trkpt>
<trkpt lat="45.9656010" lon="10.1634070">
	<ele>1912.60</ele>
	<time>2025-08-03T08:25:32.000Z</time>
</trkpt>
<trkpt lat="45.9655990" lon="10.1634250">
	<ele>1912.60</ele>
	<time>2025-08-03T08:25:33.000Z</time>
</trkpt>
<trkpt lat="45.9655940" lon="10.1634330">
	<ele>1912.80</ele>
	<time>2025-08-03T08:25:34.000Z</time>
</trkpt>
<trkpt lat="45.9655910" lon="10.1634480">
	<ele>1913.00</ele>
	<time>2025-08-03T08:25:35.000Z</time>
</trkpt>
<trkpt lat="45.9655870" lon="10.1634670">
	<ele>1913.00</ele>
	<time>2025-08-03T08:25:36.000Z</time>
</trkpt>
<trkpt lat="45.9655870" lon="10.1634900">
	<ele>1913.20</ele>
	<time>2025-08-03T08:25:37.000Z</time>
</trkpt>
<trkpt lat="45.9655840" lon="10.1635060">
	<ele>1913.20</ele>
	<time>2025-08-03T08:25:38.000Z</time>
</trkpt>
<trkpt lat="45.9655820" lon="10.1635210">
	<ele>1913.40</ele>
	<time>2025-08-03T08:25:39.000Z</time>
</trkpt>
<trkpt lat="45.9655820" lon="10.1635340">
	<ele>1913.60</ele>
	<time>2025-08-03T08:25:40.000Z</time>
</trkpt>
<trkpt lat="45.9655760" lon="10.1635460">
	<ele>1913.80</ele>
	<time>2025-08-03T08:25:41.000Z</time>
</trkpt>
<trkpt lat="45.9655710" lon="10.1635550">
	<ele>1913.80</ele>
	<time>2025-08-03T08:25:42.000Z</time>
</trkpt>
<trkpt lat="45.9655610" lon="10.1635640">
	<ele>1913.80</ele>
	<time>2025-08-03T08:25:43.000Z</time>
</trkpt>
<trkpt lat="45.9655520" lon="10.1635720">
	<ele>1914.00</ele>
	<time>2025-08-03T08:25:44.000Z</time>
</trkpt>
<trkpt lat="45.9655430" lon="10.1635880">
	<ele>1914.00</ele>
	<time>2025-08-03T08:25:45.000Z</time>
</trkpt>
<trkpt lat="45.9655340" lon="10.1636040">
	<ele>1914.00</ele>
	<time>2025-08-03T08:25:46.000Z</time>
</trkpt>
<trkpt lat="45.9655260" lon="10.1636210">
	<ele>1913.80</ele>
	<time>2025-08-03T08:25:47.000Z</time>
</trkpt>
<trkpt lat="45.9655190" lon="10.1636410">
	<ele>1913.80</ele>
	<time>2025-08-03T08:25:48.000Z</time>
</trkpt>
<trkpt lat="45.9655120" lon="10.1636640">
	<ele>1913.80</ele>
	<time>2025-08-03T08:25:49.000Z</time>
</trkpt>
<trkpt lat="45.9655060" lon="10.1636850">
	<ele>1913.60</ele>
	<time>2025-08-03T08:25:50.000Z</time>
</trkpt>
<trkpt lat="45.9655000" lon="10.1637030">
	<ele>1913.60</ele>
	<time>2025-08-03T08:25:51.000Z</time>
</trkpt>
<trkpt lat="45.9654940" lon="10.1637190">
	<ele>1913.60</ele>
	<time>2025-08-03T08:25:52.000Z</time>
</trkpt>
<trkpt lat="45.9654880" lon="10.1637340">
	<ele>1913.40</ele>
	<time>2025-08-03T08:25:53.000Z</time>
</trkpt>
<trkpt lat="45.9654820" lon="10.1637510">
	<ele>1913.40</ele>
	<time>2025-08-03T08:25:54.000Z</time>
</trkpt>
<trkpt lat="45.9654760" lon="10.1637660">
	<ele>1913.40</ele>
	<time>2025-08-03T08:25:55.000Z</time>
</trkpt>
<trkpt lat="45.9654660" lon="10.1637770">
	<ele>1913.20</ele>
	<time>2025-08-03T08:25:56.000Z</time>
</trkpt>
<trkpt lat="45.9654570" lon="10.1637900">
	<ele>1913.00</ele>
	<time>2025-08-03T08:25:57.000Z</time>
</trkpt>
<trkpt lat="45.9654520" lon="10.1638050">
	<ele>1912.80</ele>
	<time>2025-08-03T08:25:58.000Z</time>
</trkpt>
<trkpt lat="45.9654450" lon="10.1638220">
	<ele>1912.80</ele>
	<time>2025-08-03T08:25:59.000Z</time>
</trkpt>
<trkpt lat="45.9654370" lon="10.1638410">
	<ele>1912.60</ele>
	<time>2025-08-03T08:26:00.000Z</time>
</trkpt>
<trkpt lat="45.9654310" lon="10.1638570">
	<ele>1912.60</ele>
	<time>2025-08-03T08:26:01.000Z</time>
</trkpt>
<trkpt lat="45.9654220" lon="10.1638750">
	<ele>1912.40</ele>
	<time>2025-08-03T08:26:02.000Z</time>
</trkpt>
<trkpt lat="45.9654170" lon="10.1638900">
	<ele>1912.40</ele>
	<time>2025-08-03T08:26:03.000Z</time>
</trkpt>
<trkpt lat="45.9654120" lon="10.1639070">
	<ele>1912.40</ele>
	<time>2025-08-03T08:26:04.000Z</time>
</trkpt>
<trkpt lat="45.9654080" lon="10.1639210">
	<ele>1912.20</ele>
	<time>2025-08-03T08:26:05.000Z</time>
</trkpt>
<trkpt lat="45.9654030" lon="10.1639370">
	<ele>1912.00</ele>
	<time>2025-08-03T08:26:06.000Z</time>
</trkpt>
<trkpt lat="45.9654010" lon="10.1639490">
	<ele>1911.80</ele>
	<time>2025-08-03T08:26:07.000Z</time>
</trkpt>
<trkpt lat="45.9654000" lon="10.1639550">
	<ele>1911.60</ele>
	<time>2025-08-03T08:26:08.000Z</time>
</trkpt>
<trkpt lat="45.9653990" lon="10.1639580">
	<ele>1911.40</ele>
	<time>2025-08-03T08:26:09.000Z</time>
</trkpt>
<trkpt lat="45.9654000" lon="10.1639600">
	<ele>1911.40</ele>
	<time>2025-08-03T08:26:10.000Z</time>
</trkpt>
<trkpt lat="45.9654020" lon="10.1639600">
	<ele>1911.40</ele>
	<time>2025-08-03T08:26:11.000Z</time>
</trkpt>
<trkpt lat="45.9654020" lon="10.1639610">
	<ele>1911.40</ele>
	<time>2025-08-03T08:26:12.000Z</time>
</trkpt>
<trkpt lat="45.9654020" lon="10.1639600">
	<ele>1911.60</ele>
	<time>2025-08-03T08:26:13.000Z</time>
</trkpt>
<trkpt lat="45.9654020" lon="10.1639590">
	<ele>1911.60</ele>
	<time>2025-08-03T08:26:14.000Z</time>
</trkpt>
<trkpt lat="45.9654020" lon="10.1639590">
	<ele>1911.60</ele>
	<time>2025-08-03T08:26:15.000Z</time>
</trkpt>
<trkpt lat="45.9654080" lon="10.1639580">
	<ele>1911.60</ele>
	<time>2025-08-03T08:26:16.000Z</time>
</trkpt>
<trkpt lat="45.9654100" lon="10.1639680">
	<ele>1911.60</ele>
	<time>2025-08-03T08:26:17.000Z</time>
</trkpt>
<trkpt lat="45.9654020" lon="10.1639870">
	<ele>1911.20</ele>
	<time>2025-08-03T08:26:18.000Z</time>
</trkpt>
<trkpt lat="45.9653910" lon="10.1640100">
	<ele>1911.00</ele>
	<time>2025-08-03T08:26:19.000Z</time>
</trkpt>
<trkpt lat="45.9653850" lon="10.1640330">
	<ele>1910.80</ele>
	<time>2025-08-03T08:26:20.000Z</time>
</trkpt>
<trkpt lat="45.9653730" lon="10.1640460">
	<ele>1910.60</ele>
	<time>2025-08-03T08:26:21.000Z</time>
</trkpt>
<trkpt lat="45.9653680" lon="10.1640550">
	<ele>1910.40</ele>
	<time>2025-08-03T08:26:22.000Z</time>
</trkpt>
<trkpt lat="45.9653620" lon="10.1640660">
	<ele>1910.40</ele>
	<time>2025-08-03T08:26:23.000Z</time>
</trkpt>
<trkpt lat="45.9653530" lon="10.1640770">
	<ele>1910.40</ele>
	<time>2025-08-03T08:26:24.000Z</time>
</trkpt>
<trkpt lat="45.9653400" lon="10.1640890">
	<ele>1910.40</ele>
	<time>2025-08-03T08:26:25.000Z</time>
</trkpt>
<trkpt lat="45.9653280" lon="10.1641040">
	<ele>1910.40</ele>
	<time>2025-08-03T08:26:26.000Z</time>
</trkpt>
<trkpt lat="45.9653150" lon="10.1641170">
	<ele>1910.40</ele>
	<time>2025-08-03T08:26:27.000Z</time>
</trkpt>
<trkpt lat="45.9653060" lon="10.1641270">
	<ele>1910.40</ele>
	<time>2025-08-03T08:26:28.000Z</time>
</trkpt>
<trkpt lat="45.9652990" lon="10.1641380">
	<ele>1910.40</ele>
	<time>2025-08-03T08:26:29.000Z</time>
</trkpt>
<trkpt lat="45.9652900" lon="10.1641500">
	<ele>1910.60</ele>
	<time>2025-08-03T08:26:30.000Z</time>
</trkpt>
<trkpt lat="45.9652780" lon="10.1641700">
	<ele>1910.80</ele>
	<time>2025-08-03T08:26:31.000Z</time>
</trkpt>
<trkpt lat="45.9652700" lon="10.1641870">
	<ele>1910.80</ele>
	<time>2025-08-03T08:26:32.000Z</time>
</trkpt>
<trkpt lat="45.9652660" lon="10.1642050">
	<ele>1911.00</ele>
	<time>2025-08-03T08:26:33.000Z</time>
</trkpt>
<trkpt lat="45.9652580" lon="10.1642210">
	<ele>1911.20</ele>
	<time>2025-08-03T08:26:34.000Z</time>
</trkpt>
<trkpt lat="45.9652480" lon="10.1642350">
	<ele>1911.20</ele>
	<time>2025-08-03T08:26:35.000Z</time>
</trkpt>
<trkpt lat="45.9652400" lon="10.1642540">
	<ele>1911.40</ele>
	<time>2025-08-03T08:26:36.000Z</time>
</trkpt>
<trkpt lat="45.9652300" lon="10.1642700">
	<ele>1911.40</ele>
	<time>2025-08-03T08:26:37.000Z</time>
</trkpt>
<trkpt lat="45.9652220" lon="10.1642840">
	<ele>1911.40</ele>
	<time>2025-08-03T08:26:38.000Z</time>
</trkpt>
<trkpt lat="45.9652130" lon="10.1643000">
	<ele>1911.40</ele>
	<time>2025-08-03T08:26:39.000Z</time>
</trkpt>
<trkpt lat="45.9652030" lon="10.1643140">
	<ele>1911.20</ele>
	<time>2025-08-03T08:26:40.000Z</time>
</trkpt>
<trkpt lat="45.9651910" lon="10.1643300">
	<ele>1911.00</ele>
	<time>2025-08-03T08:26:41.000Z</time>
</trkpt>
<trkpt lat="45.9651820" lon="10.1643480">
	<ele>1910.80</ele>
	<time>2025-08-03T08:26:42.000Z</time>
</trkpt>
<trkpt lat="45.9651730" lon="10.1643680">
	<ele>1910.80</ele>
	<time>2025-08-03T08:26:43.000Z</time>
</trkpt>
<trkpt lat="45.9651680" lon="10.1643870">
	<ele>1910.80</ele>
	<time>2025-08-03T08:26:44.000Z</time>
</trkpt>
<trkpt lat="45.9651620" lon="10.1644010">
	<ele>1910.80</ele>
	<time>2025-08-03T08:26:45.000Z</time>
</trkpt>
<trkpt lat="45.9651540" lon="10.1644190">
	<ele>1910.60</ele>
	<time>2025-08-03T08:26:46.000Z</time>
</trkpt>
<trkpt lat="45.9651480" lon="10.1644340">
	<ele>1910.60</ele>
	<time>2025-08-03T08:26:47.000Z</time>
</trkpt>
<trkpt lat="45.9651470" lon="10.1644420">
	<ele>1910.40</ele>
	<time>2025-08-03T08:26:48.000Z</time>
</trkpt>
<trkpt lat="45.9651450" lon="10.1644450">
	<ele>1910.40</ele>
	<time>2025-08-03T08:26:49.000Z</time>
</trkpt>
<trkpt lat="45.9651370" lon="10.1644500">
	<ele>1910.40</ele>
	<time>2025-08-03T08:26:50.000Z</time>
</trkpt>
<trkpt lat="45.9651320" lon="10.1644580">
	<ele>1910.40</ele>
	<time>2025-08-03T08:26:51.000Z</time>
</trkpt>
<trkpt lat="45.9651260" lon="10.1644680">
	<ele>1910.40</ele>
	<time>2025-08-03T08:26:52.000Z</time>
</trkpt>
<trkpt lat="45.9651210" lon="10.1644860">
	<ele>1910.40</ele>
	<time>2025-08-03T08:26:53.000Z</time>
</trkpt>
<trkpt lat="45.9651140" lon="10.1644970">
	<ele>1910.40</ele>
	<time>2025-08-03T08:26:54.000Z</time>
</trkpt>
<trkpt lat="45.9651080" lon="10.1645100">
	<ele>1910.40</ele>
	<time>2025-08-03T08:26:55.000Z</time>
</trkpt>
<trkpt lat="45.9651000" lon="10.1645250">
	<ele>1910.60</ele>
	<time>2025-08-03T08:26:56.000Z</time>
</trkpt>
<trkpt lat="45.9650920" lon="10.1645420">
	<ele>1910.60</ele>
	<time>2025-08-03T08:26:57.000Z</time>
</trkpt>
<trkpt lat="45.9650840" lon="10.1645630">
	<ele>1910.80</ele>
	<time>2025-08-03T08:26:58.000Z</time>
</trkpt>
<trkpt lat="45.9650820" lon="10.1645810">
	<ele>1910.80</ele>
	<time>2025-08-03T08:26:59.000Z</time>
</trkpt>
<trkpt lat="45.9650770" lon="10.1645970">
	<ele>1911.00</ele>
	<time>2025-08-03T08:27:00.000Z</time>
</trkpt>
<trkpt lat="45.9650760" lon="10.1646170">
	<ele>1911.00</ele>
	<time>2025-08-03T08:27:01.000Z</time>
</trkpt>
<trkpt lat="45.9650780" lon="10.1646350">
	<ele>1911.20</ele>
	<time>2025-08-03T08:27:02.000Z</time>
</trkpt>
<trkpt lat="45.9650760" lon="10.1646490">
	<ele>1911.40</ele>
	<time>2025-08-03T08:27:03.000Z</time>
</trkpt>
<trkpt lat="45.9650740" lon="10.1646630">
	<ele>1911.60</ele>
	<time>2025-08-03T08:27:04.000Z</time>
</trkpt>
<trkpt lat="45.9650740" lon="10.1646800">
	<ele>1911.80</ele>
	<time>2025-08-03T08:27:05.000Z</time>
</trkpt>
<trkpt lat="45.9650750" lon="10.1647020">
	<ele>1912.00</ele>
	<time>2025-08-03T08:27:06.000Z</time>
</trkpt>
<trkpt lat="45.9650790" lon="10.1647110">
	<ele>1912.00</ele>
	<time>2025-08-03T08:27:07.000Z</time>
</trkpt>
<trkpt lat="45.9650750" lon="10.1647220">
	<ele>1912.20</ele>
	<time>2025-08-03T08:27:08.000Z</time>
</trkpt>
<trkpt lat="45.9650710" lon="10.1647370">
	<ele>1912.20</ele>
	<time>2025-08-03T08:27:09.000Z</time>
</trkpt>
<trkpt lat="45.9650660" lon="10.1647500">
	<ele>1912.20</ele>
	<time>2025-08-03T08:27:10.000Z</time>
</trkpt>
<trkpt lat="45.9650530" lon="10.1647630">
	<ele>1912.20</ele>
	<time>2025-08-03T08:27:11.000Z</time>
</trkpt>
<trkpt lat="45.9650410" lon="10.1647760">
	<ele>1912.20</ele>
	<time>2025-08-03T08:27:12.000Z</time>
</trkpt>
<trkpt lat="45.9650260" lon="10.1647910">
	<ele>1912.20</ele>
	<time>2025-08-03T08:27:13.000Z</time>
</trkpt>
<trkpt lat="45.9650130" lon="10.1648110">
	<ele>1912.00</ele>
	<time>2025-08-03T08:27:14.000Z</time>
</trkpt>
<trkpt lat="45.9650060" lon="10.1648300">
	<ele>1912.00</ele>
	<time>2025-08-03T08:27:15.000Z</time>
</trkpt>
<trkpt lat="45.9650000" lon="10.1648460">
	<ele>1911.80</ele>
	<time>2025-08-03T08:27:16.000Z</time>
</trkpt>
<trkpt lat="45.9649920" lon="10.1648590">
	<ele>1911.80</ele>
	<time>2025-08-03T08:27:17.000Z</time>
</trkpt>
<trkpt lat="45.9649850" lon="10.1648800">
	<ele>1911.80</ele>
	<time>2025-08-03T08:27:18.000Z</time>
</trkpt>
<trkpt lat="45.9649800" lon="10.1648990">
	<ele>1911.60</ele>
	<time>2025-08-03T08:27:19.000Z</time>
</trkpt>
<trkpt lat="45.9649720" lon="10.1649150">
	<ele>1911.60</ele>
	<time>2025-08-03T08:27:20.000Z</time>
</trkpt>
<trkpt lat="45.9649660" lon="10.1649290">
	<ele>1911.60</ele>
	<time>2025-08-03T08:27:21.000Z</time>
</trkpt>
<trkpt lat="45.9649590" lon="10.1649440">
	<ele>1911.60</ele>
	<time>2025-08-03T08:27:22.000Z</time>
</trkpt>
<trkpt lat="45.9649500" lon="10.1649620">
	<ele>1911.40</ele>
	<time>2025-08-03T08:27:23.000Z</time>
</trkpt>
<trkpt lat="45.9649380" lon="10.1649790">
	<ele>1911.40</ele>
	<time>2025-08-03T08:27:24.000Z</time>
</trkpt>
<trkpt lat="45.9649290" lon="10.1649980">
	<ele>1911.20</ele>
	<time>2025-08-03T08:27:25.000Z</time>
</trkpt>
<trkpt lat="45.9649250" lon="10.1650170">
	<ele>1911.20</ele>
	<time>2025-08-03T08:27:26.000Z</time>
</trkpt>
<trkpt lat="45.9649220" lon="10.1650290">
	<ele>1911.00</ele>
	<time>2025-08-03T08:27:27.000Z</time>
</trkpt>
<trkpt lat="45.9649170" lon="10.1650480">
	<ele>1911.00</ele>
	<time>2025-08-03T08:27:28.000Z</time>
</trkpt>
<trkpt lat="45.9649100" lon="10.1650690">
	<ele>1911.00</ele>
	<time>2025-08-03T08:27:29.000Z</time>
</trkpt>
<trkpt lat="45.9649040" lon="10.1650850">
	<ele>1910.80</ele>
	<time>2025-08-03T08:27:30.000Z</time>
</trkpt>
<trkpt lat="45.9648960" lon="10.1651000">
	<ele>1910.80</ele>
	<time>2025-08-03T08:27:31.000Z</time>
</trkpt>
<trkpt lat="45.9648880" lon="10.1651130">
	<ele>1910.80</ele>
	<time>2025-08-03T08:27:32.000Z</time>
</trkpt>
<trkpt lat="45.9648810" lon="10.1651240">
	<ele>1910.60</ele>
	<time>2025-08-03T08:27:33.000Z</time>
</trkpt>
<trkpt lat="45.9648720" lon="10.1651370">
	<ele>1910.60</ele>
	<time>2025-08-03T08:27:34.000Z</time>
</trkpt>
<trkpt lat="45.9648640" lon="10.1651490">
	<ele>1910.40</ele>
	<time>2025-08-03T08:27:35.000Z</time>
</trkpt>
<trkpt lat="45.9648590" lon="10.1651630">
	<ele>1910.40</ele>
	<time>2025-08-03T08:27:36.000Z</time>
</trkpt>
<trkpt lat="45.9648540" lon="10.1651830">
	<ele>1910.20</ele>
	<time>2025-08-03T08:27:37.000Z</time>
</trkpt>
<trkpt lat="45.9648490" lon="10.1652020">
	<ele>1910.00</ele>
	<time>2025-08-03T08:27:38.000Z</time>
</trkpt>
<trkpt lat="45.9648420" lon="10.1652200">
	<ele>1910.00</ele>
	<time>2025-08-03T08:27:39.000Z</time>
</trkpt>
<trkpt lat="45.9648390" lon="10.1652410">
	<ele>1910.00</ele>
	<time>2025-08-03T08:27:40.000Z</time>
</trkpt>
<trkpt lat="45.9648380" lon="10.1652560">
	<ele>1910.00</ele>
	<time>2025-08-03T08:27:41.000Z</time>
</trkpt>
<trkpt lat="45.9648340" lon="10.1652720">
	<ele>1910.00</ele>
	<time>2025-08-03T08:27:42.000Z</time>
</trkpt>
<trkpt lat="45.9648280" lon="10.1652860">
	<ele>1910.20</ele>
	<time>2025-08-03T08:27:43.000Z</time>
</trkpt>
<trkpt lat="45.9648240" lon="10.1652980">
	<ele>1910.20</ele>
	<time>2025-08-03T08:27:44.000Z</time>
</trkpt>
<trkpt lat="45.9648200" lon="10.1653110">
	<ele>1910.40</ele>
	<time>2025-08-03T08:27:45.000Z</time>
</trkpt>
<trkpt lat="45.9648140" lon="10.1653300">
	<ele>1910.60</ele>
	<time>2025-08-03T08:27:46.000Z</time>
</trkpt>
<trkpt lat="45.9648110" lon="10.1653480">
	<ele>1910.60</ele>
	<time>2025-08-03T08:27:47.000Z</time>
</trkpt>
<trkpt lat="45.9648090" lon="10.1653640">
	<ele>1910.80</ele>
	<time>2025-08-03T08:27:48.000Z</time>
</trkpt>
<trkpt lat="45.9648060" lon="10.1653820">
	<ele>1910.80</ele>
	<time>2025-08-03T08:27:49.000Z</time>
</trkpt>
<trkpt lat="45.9648010" lon="10.1653990">
	<ele>1910.80</ele>
	<time>2025-08-03T08:27:50.000Z</time>
</trkpt>
<trkpt lat="45.9647920" lon="10.1654170">
	<ele>1911.00</ele>
	<time>2025-08-03T08:27:51.000Z</time>
</trkpt>
<trkpt lat="45.9647840" lon="10.1654370">
	<ele>1911.20</ele>
	<time>2025-08-03T08:27:52.000Z</time>
</trkpt>
<trkpt lat="45.9647760" lon="10.1654520">
	<ele>1911.20</ele>
	<time>2025-08-03T08:27:53.000Z</time>
</trkpt>
<trkpt lat="45.9647680" lon="10.1654670">
	<ele>1911.40</ele>
	<time>2025-08-03T08:27:54.000Z</time>
</trkpt>
<trkpt lat="45.9647590" lon="10.1654810">
	<ele>1911.40</ele>
	<time>2025-08-03T08:27:55.000Z</time>
</trkpt>
<trkpt lat="45.9647540" lon="10.1654960">
	<ele>1911.40</ele>
	<time>2025-08-03T08:27:56.000Z</time>
</trkpt>
<trkpt lat="45.9647460" lon="10.1655080">
	<ele>1911.40</ele>
	<time>2025-08-03T08:27:57.000Z</time>
</trkpt>
<trkpt lat="45.9647400" lon="10.1655220">
	<ele>1911.40</ele>
	<time>2025-08-03T08:27:58.000Z</time>
</trkpt>
<trkpt lat="45.9647350" lon="10.1655360">
	<ele>1911.40</ele>
	<time>2025-08-03T08:27:59.000Z</time>
</trkpt>
<trkpt lat="45.9647250" lon="10.1655490">
	<ele>1911.40</ele>
	<time>2025-08-03T08:28:00.000Z</time>
</trkpt>
<trkpt lat="45.9647170" lon="10.1655620">
	<ele>1911.40</ele>
	<time>2025-08-03T08:28:01.000Z</time>
</trkpt>
<trkpt lat="45.9647100" lon="10.1655800">
	<ele>1911.40</ele>
	<time>2025-08-03T08:28:02.000Z</time>
</trkpt>
<trkpt lat="45.9647000" lon="10.1655950">
	<ele>1911.40</ele>
	<time>2025-08-03T08:28:03.000Z</time>
</trkpt>
<trkpt lat="45.9646930" lon="10.1656090">
	<ele>1911.40</ele>
	<time>2025-08-03T08:28:04.000Z</time>
</trkpt>
<trkpt lat="45.9646860" lon="10.1656250">
	<ele>1911.40</ele>
	<time>2025-08-03T08:28:05.000Z</time>
</trkpt>
<trkpt lat="45.9646760" lon="10.1656440">
	<ele>1911.40</ele>
	<time>2025-08-03T08:28:06.000Z</time>
</trkpt>
<trkpt lat="45.9646680" lon="10.1656630">
	<ele>1911.40</ele>
	<time>2025-08-03T08:28:07.000Z</time>
</trkpt>
<trkpt lat="45.9646610" lon="10.1656780">
	<ele>1911.40</ele>
	<time>2025-08-03T08:28:08.000Z</time>
</trkpt>
<trkpt lat="45.9646550" lon="10.1656970">
	<ele>1911.40</ele>
	<time>2025-08-03T08:28:09.000Z</time>
</trkpt>
<trkpt lat="45.9646510" lon="10.1657150">
	<ele>1911.40</ele>
	<time>2025-08-03T08:28:10.000Z</time>
</trkpt>
<trkpt lat="45.9646450" lon="10.1657260">
	<ele>1911.40</ele>
	<time>2025-08-03T08:28:11.000Z</time>
</trkpt>
<trkpt lat="45.9646410" lon="10.1657410">
	<ele>1911.40</ele>
	<time>2025-08-03T08:28:12.000Z</time>
</trkpt>
<trkpt lat="45.9646360" lon="10.1657590">
	<ele>1911.20</ele>
	<time>2025-08-03T08:28:13.000Z</time>
</trkpt>
<trkpt lat="45.9646280" lon="10.1657740">
	<ele>1911.20</ele>
	<time>2025-08-03T08:28:14.000Z</time>
</trkpt>
<trkpt lat="45.9646200" lon="10.1657890">
	<ele>1911.00</ele>
	<time>2025-08-03T08:28:15.000Z</time>
</trkpt>
<trkpt lat="45.9646150" lon="10.1658010">
	<ele>1911.00</ele>
	<time>2025-08-03T08:28:16.000Z</time>
</trkpt>
<trkpt lat="45.9646080" lon="10.1658150">
	<ele>1910.80</ele>
	<time>2025-08-03T08:28:17.000Z</time>
</trkpt>
<trkpt lat="45.9646020" lon="10.1658350">
	<ele>1910.80</ele>
	<time>2025-08-03T08:28:18.000Z</time>
</trkpt>
<trkpt lat="45.9645960" lon="10.1658510">
	<ele>1910.80</ele>
	<time>2025-08-03T08:28:19.000Z</time>
</trkpt>
<trkpt lat="45.9645910" lon="10.1658650">
	<ele>1910.60</ele>
	<time>2025-08-03T08:28:20.000Z</time>
</trkpt>
<trkpt lat="45.9645860" lon="10.1658820">
	<ele>1910.60</ele>
	<time>2025-08-03T08:28:21.000Z</time>
</trkpt>
<trkpt lat="45.9645790" lon="10.1658980">
	<ele>1910.60</ele>
	<time>2025-08-03T08:28:22.000Z</time>
</trkpt>
<trkpt lat="45.9645710" lon="10.1659160">
	<ele>1910.40</ele>
	<time>2025-08-03T08:28:23.000Z</time>
</trkpt>
<trkpt lat="45.9645630" lon="10.1659310">
	<ele>1910.40</ele>
	<time>2025-08-03T08:28:24.000Z</time>
</trkpt>
<trkpt lat="45.9645540" lon="10.1659510">
	<ele>1910.40</ele>
	<time>2025-08-03T08:28:25.000Z</time>
</trkpt>
<trkpt lat="45.9645480" lon="10.1659700">
	<ele>1910.20</ele>
	<time>2025-08-03T08:28:26.000Z</time>
</trkpt>
<trkpt lat="45.9645450" lon="10.1659850">
	<ele>1910.20</ele>
	<time>2025-08-03T08:28:27.000Z</time>
</trkpt>
<trkpt lat="45.9645430" lon="10.1660010">
	<ele>1910.20</ele>
	<time>2025-08-03T08:28:28.000Z</time>
</trkpt>
<trkpt lat="45.9645390" lon="10.1660140">
	<ele>1910.00</ele>
	<time>2025-08-03T08:28:29.000Z</time>
</trkpt>
<trkpt lat="45.9645330" lon="10.1660240">
	<ele>1910.00</ele>
	<time>2025-08-03T08:28:30.000Z</time>
</trkpt>
<trkpt lat="45.9645230" lon="10.1660310">
	<ele>1909.60</ele>
	<time>2025-08-03T08:28:31.000Z</time>
</trkpt>
<trkpt lat="45.9645120" lon="10.1660380">
	<ele>1909.40</ele>
	<time>2025-08-03T08:28:32.000Z</time>
</trkpt>
<trkpt lat="45.9645020" lon="10.1660460">
	<ele>1909.20</ele>
	<time>2025-08-03T08:28:33.000Z</time>
</trkpt>
<trkpt lat="45.9644900" lon="10.1660590">
	<ele>1909.00</ele>
	<time>2025-08-03T08:28:34.000Z</time>
</trkpt>
<trkpt lat="45.9644790" lon="10.1660730">
	<ele>1908.80</ele>
	<time>2025-08-03T08:28:35.000Z</time>
</trkpt>
<trkpt lat="45.9644700" lon="10.1660870">
	<ele>1908.40</ele>
	<time>2025-08-03T08:28:36.000Z</time>
</trkpt>
<trkpt lat="45.9644600" lon="10.1660980">
	<ele>1908.00</ele>
	<time>2025-08-03T08:28:37.000Z</time>
</trkpt>
<trkpt lat="45.9644510" lon="10.1661100">
	<ele>1907.80</ele>
	<time>2025-08-03T08:28:38.000Z</time>
</trkpt>
<trkpt lat="45.9644420" lon="10.1661230">
	<ele>1907.60</ele>
	<time>2025-08-03T08:28:39.000Z</time>
</trkpt>
<trkpt lat="45.9644350" lon="10.1661280">
	<ele>1907.40</ele>
	<time>2025-08-03T08:28:40.000Z</time>
</trkpt>
<trkpt lat="45.9644230" lon="10.1661380">
	<ele>1907.40</ele>
	<time>2025-08-03T08:28:41.000Z</time>
</trkpt>
<trkpt lat="45.9644160" lon="10.1661480">
	<ele>1907.20</ele>
	<time>2025-08-03T08:28:42.000Z</time>
</trkpt>
<trkpt lat="45.9644100" lon="10.1661580">
	<ele>1907.20</ele>
	<time>2025-08-03T08:28:43.000Z</time>
</trkpt>
<trkpt lat="45.9644030" lon="10.1661680">
	<ele>1907.20</ele>
	<time>2025-08-03T08:28:44.000Z</time>
</trkpt>
<trkpt lat="45.9643940" lon="10.1661810">
	<ele>1907.20</ele>
	<time>2025-08-03T08:28:45.000Z</time>
</trkpt>
<trkpt lat="45.9643850" lon="10.1661970">
	<ele>1907.40</ele>
	<time>2025-08-03T08:28:46.000Z</time>
</trkpt>
<trkpt lat="45.9643780" lon="10.1662140">
	<ele>1907.40</ele>
	<time>2025-08-03T08:28:47.000Z</time>
</trkpt>
<trkpt lat="45.9643720" lon="10.1662310">
	<ele>1907.60</ele>
	<time>2025-08-03T08:28:48.000Z</time>
</trkpt>
<trkpt lat="45.9643680" lon="10.1662440">
	<ele>1907.60</ele>
	<time>2025-08-03T08:28:49.000Z</time>
</trkpt>
<trkpt lat="45.9643610" lon="10.1662580">
	<ele>1907.80</ele>
	<time>2025-08-03T08:28:50.000Z</time>
</trkpt>
<trkpt lat="45.9643550" lon="10.1662750">
	<ele>1907.80</ele>
	<time>2025-08-03T08:28:51.000Z</time>
</trkpt>
<trkpt lat="45.9643470" lon="10.1662880">
	<ele>1907.80</ele>
	<time>2025-08-03T08:28:52.000Z</time>
</trkpt>
<trkpt lat="45.9643390" lon="10.1663030">
	<ele>1907.80</ele>
	<time>2025-08-03T08:28:53.000Z</time>
</trkpt>
<trkpt lat="45.9643300" lon="10.1663160">
	<ele>1908.00</ele>
	<time>2025-08-03T08:28:54.000Z</time>
</trkpt>
<trkpt lat="45.9643200" lon="10.1663340">
	<ele>1908.00</ele>
	<time>2025-08-03T08:28:55.000Z</time>
</trkpt>
<trkpt lat="45.9643120" lon="10.1663500">
	<ele>1908.00</ele>
	<time>2025-08-03T08:28:56.000Z</time>
</trkpt>
<trkpt lat="45.9643050" lon="10.1663660">
	<ele>1908.00</ele>
	<time>2025-08-03T08:28:57.000Z</time>
</trkpt>
<trkpt lat="45.9642970" lon="10.1663800">
	<ele>1908.00</ele>
	<time>2025-08-03T08:28:58.000Z</time>
</trkpt>
<trkpt lat="45.9642920" lon="10.1663960">
	<ele>1908.00</ele>
	<time>2025-08-03T08:28:59.000Z</time>
</trkpt>
<trkpt lat="45.9642820" lon="10.1664110">
	<ele>1908.00</ele>
	<time>2025-08-03T08:29:00.000Z</time>
</trkpt>
<trkpt lat="45.9642690" lon="10.1664250">
	<ele>1908.00</ele>
	<time>2025-08-03T08:29:01.000Z</time>
</trkpt>
<trkpt lat="45.9642560" lon="10.1664380">
	<ele>1908.00</ele>
	<time>2025-08-03T08:29:02.000Z</time>
</trkpt>
<trkpt lat="45.9642450" lon="10.1664520">
	<ele>1907.80</ele>
	<time>2025-08-03T08:29:03.000Z</time>
</trkpt>
<trkpt lat="45.9642350" lon="10.1664620">
	<ele>1907.80</ele>
	<time>2025-08-03T08:29:04.000Z</time>
</trkpt>
<trkpt lat="45.9642270" lon="10.1664760">
	<ele>1907.60</ele>
	<time>2025-08-03T08:29:05.000Z</time>
</trkpt>
<trkpt lat="45.9642160" lon="10.1664890">
	<ele>1907.60</ele>
	<time>2025-08-03T08:29:06.000Z</time>
</trkpt>
<trkpt lat="45.9642060" lon="10.1665020">
	<ele>1907.60</ele>
	<time>2025-08-03T08:29:07.000Z</time>
</trkpt>
<trkpt lat="45.9641970" lon="10.1665160">
	<ele>1907.60</ele>
	<time>2025-08-03T08:29:08.000Z</time>
</trkpt>
<trkpt lat="45.9641880" lon="10.1665320">
	<ele>1907.60</ele>
	<time>2025-08-03T08:29:09.000Z</time>
</trkpt>
<trkpt lat="45.9641790" lon="10.1665480">
	<ele>1907.40</ele>
	<time>2025-08-03T08:29:10.000Z</time>
</trkpt>
<trkpt lat="45.9641710" lon="10.1665640">
	<ele>1907.20</ele>
	<time>2025-08-03T08:29:11.000Z</time>
</trkpt>
<trkpt lat="45.9641600" lon="10.1665780">
	<ele>1907.20</ele>
	<time>2025-08-03T08:29:12.000Z</time>
</trkpt>
<trkpt lat="45.9641500" lon="10.1665920">
	<ele>1907.00</ele>
	<time>2025-08-03T08:29:13.000Z</time>
</trkpt>
<trkpt lat="45.9641400" lon="10.1666090">
	<ele>1907.00</ele>
	<time>2025-08-03T08:29:14.000Z</time>
</trkpt>
<trkpt lat="45.9641310" lon="10.1666260">
	<ele>1906.80</ele>
	<time>2025-08-03T08:29:15.000Z</time>
</trkpt>
<trkpt lat="45.9641230" lon="10.1666440">
	<ele>1906.80</ele>
	<time>2025-08-03T08:29:16.000Z</time>
</trkpt>
<trkpt lat="45.9641190" lon="10.1666610">
	<ele>1906.80</ele>
	<time>2025-08-03T08:29:17.000Z</time>
</trkpt>
<trkpt lat="45.9641150" lon="10.1666820">
	<ele>1906.80</ele>
	<time>2025-08-03T08:29:18.000Z</time>
</trkpt>
<trkpt lat="45.9641110" lon="10.1667030">
	<ele>1906.80</ele>
	<time>2025-08-03T08:29:19.000Z</time>
</trkpt>
<trkpt lat="45.9641050" lon="10.1667240">
	<ele>1907.00</ele>
	<time>2025-08-03T08:29:20.000Z</time>
</trkpt>
<trkpt lat="45.9640990" lon="10.1667420">
	<ele>1907.00</ele>
	<time>2025-08-03T08:29:21.000Z</time>
</trkpt>
<trkpt lat="45.9640920" lon="10.1667560">
	<ele>1907.00</ele>
	<time>2025-08-03T08:29:22.000Z</time>
</trkpt>
<trkpt lat="45.9640880" lon="10.1667650">
	<ele>1907.00</ele>
	<time>2025-08-03T08:29:23.000Z</time>
</trkpt>
<trkpt lat="45.9640790" lon="10.1667770">
	<ele>1907.00</ele>
	<time>2025-08-03T08:29:24.000Z</time>
</trkpt>
<trkpt lat="45.9640660" lon="10.1667870">
	<ele>1907.00</ele>
	<time>2025-08-03T08:29:25.000Z</time>
</trkpt>
<trkpt lat="45.9640510" lon="10.1668000">
	<ele>1906.80</ele>
	<time>2025-08-03T08:29:26.000Z</time>
</trkpt>
<trkpt lat="45.9640410" lon="10.1668210">
	<ele>1906.60</ele>
	<time>2025-08-03T08:29:27.000Z</time>
</trkpt>
<trkpt lat="45.9640340" lon="10.1668370">
	<ele>1906.40</ele>
	<time>2025-08-03T08:29:28.000Z</time>
</trkpt>
<trkpt lat="45.9640260" lon="10.1668520">
	<ele>1906.20</ele>
	<time>2025-08-03T08:29:29.000Z</time>
</trkpt>
<trkpt lat="45.9640160" lon="10.1668720">
	<ele>1906.00</ele>
	<time>2025-08-03T08:29:30.000Z</time>
</trkpt>
<trkpt lat="45.9640120" lon="10.1668910">
	<ele>1905.80</ele>
	<time>2025-08-03T08:29:31.000Z</time>
</trkpt>
<trkpt lat="45.9640040" lon="10.1669090">
	<ele>1905.60</ele>
	<time>2025-08-03T08:29:32.000Z</time>
</trkpt>
<trkpt lat="45.9639950" lon="10.1669320">
	<ele>1905.40</ele>
	<time>2025-08-03T08:29:33.000Z</time>
</trkpt>
<trkpt lat="45.9639890" lon="10.1669480">
	<ele>1905.20</ele>
	<time>2025-08-03T08:29:34.000Z</time>
</trkpt>
<trkpt lat="45.9639800" lon="10.1669650">
	<ele>1905.20</ele>
	<time>2025-08-03T08:29:35.000Z</time>
</trkpt>
<trkpt lat="45.9639720" lon="10.1669760">
	<ele>1905.00</ele>
	<time>2025-08-03T08:29:36.000Z</time>
</trkpt>
<trkpt lat="45.9639620" lon="10.1669870">
	<ele>1904.80</ele>
	<time>2025-08-03T08:29:37.000Z</time>
</trkpt>
<trkpt lat="45.9639520" lon="10.1669970">
	<ele>1904.80</ele>
	<time>2025-08-03T08:29:38.000Z</time>
</trkpt>
<trkpt lat="45.9639440" lon="10.1670110">
	<ele>1904.40</ele>
	<time>2025-08-03T08:29:39.000Z</time>
</trkpt>
<trkpt lat="45.9639370" lon="10.1670190">
	<ele>1904.20</ele>
	<time>2025-08-03T08:29:40.000Z</time>
</trkpt>
<trkpt lat="45.9639270" lon="10.1670320">
	<ele>1904.00</ele>
	<time>2025-08-03T08:29:41.000Z</time>
</trkpt>
<trkpt lat="45.9639200" lon="10.1670520">
	<ele>1904.00</ele>
	<time>2025-08-03T08:29:42.000Z</time>
</trkpt>
<trkpt lat="45.9639150" lon="10.1670710">
	<ele>1903.60</ele>
	<time>2025-08-03T08:29:43.000Z</time>
</trkpt>
<trkpt lat="45.9639110" lon="10.1670910">
	<ele>1903.40</ele>
	<time>2025-08-03T08:29:44.000Z</time>
</trkpt>
<trkpt lat="45.9639060" lon="10.1671110">
	<ele>1903.20</ele>
	<time>2025-08-03T08:29:45.000Z</time>
</trkpt>
<trkpt lat="45.9639040" lon="10.1671340">
	<ele>1903.00</ele>
	<time>2025-08-03T08:29:46.000Z</time>
</trkpt>
<trkpt lat="45.9639040" lon="10.1671540">
	<ele>1902.80</ele>
	<time>2025-08-03T08:29:47.000Z</time>
</trkpt>
<trkpt lat="45.9639070" lon="10.1671730">
	<ele>1902.80</ele>
	<time>2025-08-03T08:29:48.000Z</time>
</trkpt>
<trkpt lat="45.9639090" lon="10.1671900">
	<ele>1902.80</ele>
	<time>2025-08-03T08:29:49.000Z</time>
</trkpt>
<trkpt lat="45.9639070" lon="10.1672050">
	<ele>1902.60</ele>
	<time>2025-08-03T08:29:50.000Z</time>
</trkpt>
<trkpt lat="45.9639030" lon="10.1672140">
	<ele>1902.60</ele>
	<time>2025-08-03T08:29:51.000Z</time>
</trkpt>
<trkpt lat="45.9638940" lon="10.1672240">
	<ele>1902.60</ele>
	<time>2025-08-03T08:29:52.000Z</time>
</trkpt>
<trkpt lat="45.9638840" lon="10.1672290">
	<ele>1902.60</ele>
	<time>2025-08-03T08:29:53.000Z</time>
</trkpt>
<trkpt lat="45.9638760" lon="10.1672330">
	<ele>1902.40</ele>
	<time>2025-08-03T08:29:54.000Z</time>
</trkpt>
<trkpt lat="45.9638630" lon="10.1672290">
	<ele>1902.20</ele>
	<time>2025-08-03T08:29:55.000Z</time>
</trkpt>
<trkpt lat="45.9638490" lon="10.1672230">
	<ele>1902.00</ele>
	<time>2025-08-03T08:29:56.000Z</time>
</trkpt>
<trkpt lat="45.9638390" lon="10.1672240">
	<ele>1902.00</ele>
	<time>2025-08-03T08:29:57.000Z</time>
</trkpt>
<trkpt lat="45.9638270" lon="10.1672260">
	<ele>1901.60</ele>
	<time>2025-08-03T08:29:58.000Z</time>
</trkpt>
<trkpt lat="45.9638170" lon="10.1672340">
	<ele>1901.40</ele>
	<time>2025-08-03T08:29:59.000Z</time>
</trkpt>
<trkpt lat="45.9638030" lon="10.1672370">
	<ele>1901.00</ele>
	<time>2025-08-03T08:30:00.000Z</time>
</trkpt>
<trkpt lat="45.9637900" lon="10.1672470">
	<ele>1901.00</ele>
	<time>2025-08-03T08:30:01.000Z</time>
</trkpt>
<trkpt lat="45.9637790" lon="10.1672590">
	<ele>1900.80</ele>
	<time>2025-08-03T08:30:02.000Z</time>
</trkpt>
<trkpt lat="45.9637680" lon="10.1672670">
	<ele>1900.60</ele>
	<time>2025-08-03T08:30:03.000Z</time>
</trkpt>
<trkpt lat="45.9637550" lon="10.1672720">
	<ele>1900.60</ele>
	<time>2025-08-03T08:30:04.000Z</time>
</trkpt>
<trkpt lat="45.9637430" lon="10.1672780">
	<ele>1900.40</ele>
	<time>2025-08-03T08:30:05.000Z</time>
</trkpt>
<trkpt lat="45.9637300" lon="10.1672840">
	<ele>1900.40</ele>
	<time>2025-08-03T08:30:06.000Z</time>
</trkpt>
<trkpt lat="45.9637180" lon="10.1672860">
	<ele>1900.40</ele>
	<time>2025-08-03T08:30:07.000Z</time>
</trkpt>
<trkpt lat="45.9637050" lon="10.1672940">
	<ele>1900.40</ele>
	<time>2025-08-03T08:30:08.000Z</time>
</trkpt>
<trkpt lat="45.9636940" lon="10.1673010">
	<ele>1900.20</ele>
	<time>2025-08-03T08:30:09.000Z</time>
</trkpt>
<trkpt lat="45.9636820" lon="10.1673130">
	<ele>1900.20</ele>
	<time>2025-08-03T08:30:10.000Z</time>
</trkpt>
<trkpt lat="45.9636700" lon="10.1673220">
	<ele>1900.20</ele>
	<time>2025-08-03T08:30:11.000Z</time>
</trkpt>
<trkpt lat="45.9636580" lon="10.1673250">
	<ele>1900.00</ele>
	<time>2025-08-03T08:30:12.000Z</time>
</trkpt>
<trkpt lat="45.9636470" lon="10.1673360">
	<ele>1899.80</ele>
	<time>2025-08-03T08:30:13.000Z</time>
</trkpt>
<trkpt lat="45.9636350" lon="10.1673480">
	<ele>1899.80</ele>
	<time>2025-08-03T08:30:14.000Z</time>
</trkpt>
<trkpt lat="45.9636220" lon="10.1673600">
	<ele>1899.60</ele>
	<time>2025-08-03T08:30:15.000Z</time>
</trkpt>
<trkpt lat="45.9636080" lon="10.1673680">
	<ele>1899.40</ele>
	<time>2025-08-03T08:30:16.000Z</time>
</trkpt>
<trkpt lat="45.9635990" lon="10.1673770">
	<ele>1899.40</ele>
	<time>2025-08-03T08:30:17.000Z</time>
</trkpt>
<trkpt lat="45.9635830" lon="10.1673860">
	<ele>1899.40</ele>
	<time>2025-08-03T08:30:18.000Z</time>
</trkpt>
<trkpt lat="45.9635710" lon="10.1673890">
	<ele>1899.40</ele>
	<time>2025-08-03T08:30:19.000Z</time>
</trkpt>
<trkpt lat="45.9635540" lon="10.1673960">
	<ele>1899.40</ele>
	<time>2025-08-03T08:30:20.000Z</time>
</trkpt>
<trkpt lat="45.9635380" lon="10.1674130">
	<ele>1899.20</ele>
	<time>2025-08-03T08:30:21.000Z</time>
</trkpt>
<trkpt lat="45.9635240" lon="10.1674220">
	<ele>1899.00</ele>
	<time>2025-08-03T08:30:22.000Z</time>
</trkpt>
<trkpt lat="45.9635130" lon="10.1674350">
	<ele>1899.00</ele>
	<time>2025-08-03T08:30:23.000Z</time>
</trkpt>
<trkpt lat="45.9635030" lon="10.1674490">
	<ele>1899.00</ele>
	<time>2025-08-03T08:30:24.000Z</time>
</trkpt>
<trkpt lat="45.9634940" lon="10.1674510">
	<ele>1899.00</ele>
	<time>2025-08-03T08:30:25.000Z</time>
</trkpt>
<trkpt lat="45.9634840" lon="10.1674590">
	<ele>1899.20</ele>
	<time>2025-08-03T08:30:26.000Z</time>
</trkpt>
<trkpt lat="45.9634750" lon="10.1674670">
	<ele>1899.20</ele>
	<time>2025-08-03T08:30:27.000Z</time>
</trkpt>
<trkpt lat="45.9634630" lon="10.1674620">
	<ele>1899.40</ele>
	<time>2025-08-03T08:30:28.000Z</time>
</trkpt>
<trkpt lat="45.9634490" lon="10.1674660">
	<ele>1899.40</ele>
	<time>2025-08-03T08:30:29.000Z</time>
</trkpt>
<trkpt lat="45.9634380" lon="10.1674710">
	<ele>1899.60</ele>
	<time>2025-08-03T08:30:30.000Z</time>
</trkpt>
<trkpt lat="45.9634250" lon="10.1674820">
	<ele>1899.60</ele>
	<time>2025-08-03T08:30:31.000Z</time>
</trkpt>
<trkpt lat="45.9634100" lon="10.1674870">
	<ele>1899.60</ele>
	<time>2025-08-03T08:30:32.000Z</time>
</trkpt>
<trkpt lat="45.9633960" lon="10.1674890">
	<ele>1899.80</ele>
	<time>2025-08-03T08:30:33.000Z</time>
</trkpt>
<trkpt lat="45.9633810" lon="10.1674910">
	<ele>1899.80</ele>
	<time>2025-08-03T08:30:34.000Z</time>
</trkpt>
<trkpt lat="45.9633650" lon="10.1674910">
	<ele>1899.60</ele>
	<time>2025-08-03T08:30:35.000Z</time>
</trkpt>
<trkpt lat="45.9633500" lon="10.1674920">
	<ele>1899.60</ele>
	<time>2025-08-03T08:30:36.000Z</time>
</trkpt>
<trkpt lat="45.9633360" lon="10.1674940">
	<ele>1899.60</ele>
	<time>2025-08-03T08:30:37.000Z</time>
</trkpt>
<trkpt lat="45.9633230" lon="10.1674990">
	<ele>1899.60</ele>
	<time>2025-08-03T08:30:38.000Z</time>
</trkpt>
<trkpt lat="45.9633120" lon="10.1675020">
	<ele>1899.40</ele>
	<time>2025-08-03T08:30:39.000Z</time>
</trkpt>
<trkpt lat="45.9632970" lon="10.1675080">
	<ele>1899.40</ele>
	<time>2025-08-03T08:30:40.000Z</time>
</trkpt>
<trkpt lat="45.9632830" lon="10.1675120">
	<ele>1899.40</ele>
	<time>2025-08-03T08:30:41.000Z</time>
</trkpt>
<trkpt lat="45.9632690" lon="10.1675130">
	<ele>1899.40</ele>
	<time>2025-08-03T08:30:42.000Z</time>
</trkpt>
<trkpt lat="45.9632550" lon="10.1675140">
	<ele>1899.40</ele>
	<time>2025-08-03T08:30:43.000Z</time>
</trkpt>
<trkpt lat="45.9632400" lon="10.1675180">
	<ele>1899.40</ele>
	<time>2025-08-03T08:30:44.000Z</time>
</trkpt>
<trkpt lat="45.9632260" lon="10.1675240">
	<ele>1899.40</ele>
	<time>2025-08-03T08:30:45.000Z</time>
</trkpt>
<trkpt lat="45.9632160" lon="10.1675320">
	<ele>1899.40</ele>
	<time>2025-08-03T08:30:46.000Z</time>
</trkpt>
<trkpt lat="45.9632050" lon="10.1675420">
	<ele>1899.20</ele>
	<time>2025-08-03T08:30:47.000Z</time>
</trkpt>
<trkpt lat="45.9631920" lon="10.1675530">
	<ele>1899.20</ele>
	<time>2025-08-03T08:30:48.000Z</time>
</trkpt>
<trkpt lat="45.9631840" lon="10.1675660">
	<ele>1899.20</ele>
	<time>2025-08-03T08:30:49.000Z</time>
</trkpt>
<trkpt lat="45.9631730" lon="10.1675830">
	<ele>1899.00</ele>
	<time>2025-08-03T08:30:50.000Z</time>
</trkpt>
<trkpt lat="45.9631660" lon="10.1676000">
	<ele>1899.00</ele>
	<time>2025-08-03T08:30:51.000Z</time>
</trkpt>
<trkpt lat="45.9631620" lon="10.1676180">
	<ele>1899.00</ele>
	<time>2025-08-03T08:30:52.000Z</time>
</trkpt>
<trkpt lat="45.9631540" lon="10.1676390">
	<ele>1898.60</ele>
	<time>2025-08-03T08:30:53.000Z</time>
</trkpt>
<trkpt lat="45.9631470" lon="10.1676550">
	<ele>1898.40</ele>
	<time>2025-08-03T08:30:54.000Z</time>
</trkpt>
<trkpt lat="45.9631400" lon="10.1676680">
	<ele>1898.40</ele>
	<time>2025-08-03T08:30:55.000Z</time>
</trkpt>
<trkpt lat="45.9631330" lon="10.1676770">
	<ele>1898.20</ele>
	<time>2025-08-03T08:30:56.000Z</time>
</trkpt>
<trkpt lat="45.9631230" lon="10.1676920">
	<ele>1898.00</ele>
	<time>2025-08-03T08:30:57.000Z</time>
</trkpt>
<trkpt lat="45.9631150" lon="10.1677090">
	<ele>1897.80</ele>
	<time>2025-08-03T08:30:58.000Z</time>
</trkpt>
<trkpt lat="45.9631030" lon="10.1677220">
	<ele>1897.80</ele>
	<time>2025-08-03T08:30:59.000Z</time>
</trkpt>
<trkpt lat="45.9630900" lon="10.1677300">
	<ele>1897.60</ele>
	<time>2025-08-03T08:31:00.000Z</time>
</trkpt>
<trkpt lat="45.9630740" lon="10.1677410">
	<ele>1897.40</ele>
	<time>2025-08-03T08:31:01.000Z</time>
</trkpt>
<trkpt lat="45.9630580" lon="10.1677520">
	<ele>1897.40</ele>
	<time>2025-08-03T08:31:02.000Z</time>
</trkpt>
<trkpt lat="45.9630490" lon="10.1677610">
	<ele>1897.20</ele>
	<time>2025-08-03T08:31:03.000Z</time>
</trkpt>
<trkpt lat="45.9630380" lon="10.1677710">
	<ele>1897.00</ele>
	<time>2025-08-03T08:31:04.000Z</time>
</trkpt>
<trkpt lat="45.9630280" lon="10.1677780">
	<ele>1896.80</ele>
	<time>2025-08-03T08:31:05.000Z</time>
</trkpt>
<trkpt lat="45.9630170" lon="10.1677850">
	<ele>1896.80</ele>
	<time>2025-08-03T08:31:06.000Z</time>
</trkpt>
<trkpt lat="45.9630060" lon="10.1677920">
	<ele>1896.60</ele>
	<time>2025-08-03T08:31:07.000Z</time>
</trkpt>
<trkpt lat="45.9629940" lon="10.1678010">
	<ele>1896.60</ele>
	<time>2025-08-03T08:31:08.000Z</time>
</trkpt>
<trkpt lat="45.9629800" lon="10.1678060">
	<ele>1896.60</ele>
	<time>2025-08-03T08:31:09.000Z</time>
</trkpt>
<trkpt lat="45.9629670" lon="10.1678130">
	<ele>1896.40</ele>
	<time>2025-08-03T08:31:10.000Z</time>
</trkpt>
<trkpt lat="45.9629560" lon="10.1678190">
	<ele>1896.20</ele>
	<time>2025-08-03T08:31:11.000Z</time>
</trkpt>
<trkpt lat="45.9629450" lon="10.1678220">
	<ele>1896.20</ele>
	<time>2025-08-03T08:31:12.000Z</time>
</trkpt>
<trkpt lat="45.9629350" lon="10.1678350">
	<ele>1896.20</ele>
	<time>2025-08-03T08:31:13.000Z</time>
</trkpt>
<trkpt lat="45.9629300" lon="10.1678530">
	<ele>1896.00</ele>
	<time>2025-08-03T08:31:14.000Z</time>
</trkpt>
<trkpt lat="45.9629240" lon="10.1678730">
	<ele>1895.80</ele>
	<time>2025-08-03T08:31:15.000Z</time>
</trkpt>
<trkpt lat="45.9629200" lon="10.1678810">
	<ele>1895.40</ele>
	<time>2025-08-03T08:31:16.000Z</time>
</trkpt>
<trkpt lat="45.9629180" lon="10.1678840">
	<ele>1895.20</ele>
	<time>2025-08-03T08:31:17.000Z</time>
</trkpt>
<trkpt lat="45.9629190" lon="10.1678880">
	<ele>1895.00</ele>
	<time>2025-08-03T08:31:18.000Z</time>
</trkpt>
<trkpt lat="45.9629190" lon="10.1678910">
	<ele>1895.00</ele>
	<time>2025-08-03T08:31:19.000Z</time>
</trkpt>
<trkpt lat="45.9629200" lon="10.1678900">
	<ele>1894.80</ele>
	<time>2025-08-03T08:31:20.000Z</time>
</trkpt>
<trkpt lat="45.9629210" lon="10.1678920">
	<ele>1894.80</ele>
	<time>2025-08-03T08:31:21.000Z</time>
</trkpt>
<trkpt lat="45.9629210" lon="10.1678940">
	<ele>1894.80</ele>
	<time>2025-08-03T08:31:22.000Z</time>
</trkpt>
<trkpt lat="45.9629200" lon="10.1678950">
	<ele>1894.80</ele>
	<time>2025-08-03T08:31:23.000Z</time>
</trkpt>
<trkpt lat="45.9629210" lon="10.1678950">
	<ele>1894.80</ele>
	<time>2025-08-03T08:31:24.000Z</time>
</trkpt>
<trkpt lat="45.9629210" lon="10.1678960">
	<ele>1894.80</ele>
	<time>2025-08-03T08:31:25.000Z</time>
</trkpt>
<trkpt lat="45.9629200" lon="10.1679070">
	<ele>1894.80</ele>
	<time>2025-08-03T08:31:26.000Z</time>
</trkpt>
<trkpt lat="45.9629150" lon="10.1679220">
	<ele>1894.80</ele>
	<time>2025-08-03T08:31:27.000Z</time>
</trkpt>
<trkpt lat="45.9629130" lon="10.1679380">
	<ele>1894.80</ele>
	<time>2025-08-03T08:31:28.000Z</time>
</trkpt>
<trkpt lat="45.9629070" lon="10.1679540">
	<ele>1894.80</ele>
	<time>2025-08-03T08:31:29.000Z</time>
</trkpt>
<trkpt lat="45.9629020" lon="10.1679670">
	<ele>1894.60</ele>
	<time>2025-08-03T08:31:30.000Z</time>
</trkpt>
<trkpt lat="45.9628990" lon="10.1679800">
	<ele>1894.60</ele>
	<time>2025-08-03T08:31:31.000Z</time>
</trkpt>
<trkpt lat="45.9628930" lon="10.1679980">
	<ele>1894.40</ele>
	<time>2025-08-03T08:31:32.000Z</time>
</trkpt>
<trkpt lat="45.9628870" lon="10.1680160">
	<ele>1894.20</ele>
	<time>2025-08-03T08:31:33.000Z</time>
</trkpt>
<trkpt lat="45.9628810" lon="10.1680340">
	<ele>1894.20</ele>
	<time>2025-08-03T08:31:34.000Z</time>
</trkpt>
<trkpt lat="45.9628740" lon="10.1680450">
	<ele>1893.80</ele>
	<time>2025-08-03T08:31:35.000Z</time>
</trkpt>
<trkpt lat="45.9628660" lon="10.1680580">
	<ele>1893.40</ele>
	<time>2025-08-03T08:31:36.000Z</time>
</trkpt>
<trkpt lat="45.9628610" lon="10.1680740">
	<ele>1893.20</ele>
	<time>2025-08-03T08:31:37.000Z</time>
</trkpt>
<trkpt lat="45.9628540" lon="10.1680880">
	<ele>1892.80</ele>
	<time>2025-08-03T08:31:38.000Z</time>
</trkpt>
<trkpt lat="45.9628460" lon="10.1681000">
	<ele>1892.80</ele>
	<time>2025-08-03T08:31:39.000Z</time>
</trkpt>
<trkpt lat="45.9628390" lon="10.1681150">
	<ele>1892.60</ele>
	<time>2025-08-03T08:31:40.000Z</time>
</trkpt>
<trkpt lat="45.9628330" lon="10.1681280">
	<ele>1892.40</ele>
	<time>2025-08-03T08:31:41.000Z</time>
</trkpt>
<trkpt lat="45.9628210" lon="10.1681450">
	<ele>1892.20</ele>
	<time>2025-08-03T08:31:42.000Z</time>
</trkpt>
<trkpt lat="45.9628150" lon="10.1681580">
	<ele>1892.00</ele>
	<time>2025-08-03T08:31:43.000Z</time>
</trkpt>
<trkpt lat="45.9628080" lon="10.1681670">
	<ele>1891.80</ele>
	<time>2025-08-03T08:31:44.000Z</time>
</trkpt>
<trkpt lat="45.9627980" lon="10.1681800">
	<ele>1891.60</ele>
	<time>2025-08-03T08:31:45.000Z</time>
</trkpt>
<trkpt lat="45.9627880" lon="10.1681910">
	<ele>1891.40</ele>
	<time>2025-08-03T08:31:46.000Z</time>
</trkpt>
<trkpt lat="45.9627790" lon="10.1682020">
	<ele>1891.20</ele>
	<time>2025-08-03T08:31:47.000Z</time>
</trkpt>
<trkpt lat="45.9627720" lon="10.1682140">
	<ele>1890.80</ele>
	<time>2025-08-03T08:31:48.000Z</time>
</trkpt>
<trkpt lat="45.9627650" lon="10.1682250">
	<ele>1890.60</ele>
	<time>2025-08-03T08:31:49.000Z</time>
</trkpt>
<trkpt lat="45.9627580" lon="10.1682340">
	<ele>1890.00</ele>
	<time>2025-08-03T08:31:50.000Z</time>
</trkpt>
<trkpt lat="45.9627530" lon="10.1682400">
	<ele>1889.80</ele>
	<time>2025-08-03T08:31:51.000Z</time>
</trkpt>
<trkpt lat="45.9627500" lon="10.1682480">
	<ele>1889.60</ele>
	<time>2025-08-03T08:31:52.000Z</time>
</trkpt>
<trkpt lat="45.9627450" lon="10.1682550">
	<ele>1889.40</ele>
	<time>2025-08-03T08:31:53.000Z</time>
</trkpt>
<trkpt lat="45.9627370" lon="10.1682600">
	<ele>1889.20</ele>
	<time>2025-08-03T08:31:54.000Z</time>
</trkpt>
<trkpt lat="45.9627270" lon="10.1682650">
	<ele>1888.80</ele>
	<time>2025-08-03T08:31:55.000Z</time>
</trkpt>
<trkpt lat="45.9627180" lon="10.1682700">
	<ele>1888.80</ele>
	<time>2025-08-03T08:31:56.000Z</time>
</trkpt>
<trkpt lat="45.9627090" lon="10.1682780">
	<ele>1888.40</ele>
	<time>2025-08-03T08:31:57.000Z</time>
</trkpt>
<trkpt lat="45.9627020" lon="10.1682870">
	<ele>1888.20</ele>
	<time>2025-08-03T08:31:58.000Z</time>
</trkpt>
<trkpt lat="45.9626950" lon="10.1683010">
	<ele>1887.80</ele>
	<time>2025-08-03T08:31:59.000Z</time>
</trkpt>
<trkpt lat="45.9626870" lon="10.1683120">
	<ele>1887.60</ele>
	<time>2025-08-03T08:32:00.000Z</time>
</trkpt>
<trkpt lat="45.9626800" lon="10.1683240">
	<ele>1887.40</ele>
	<time>2025-08-03T08:32:01.000Z</time>
</trkpt>
<trkpt lat="45.9626730" lon="10.1683330">
	<ele>1887.20</ele>
	<time>2025-08-03T08:32:02.000Z</time>
</trkpt>
<trkpt lat="45.9626680" lon="10.1683400">
	<ele>1886.80</ele>
	<time>2025-08-03T08:32:03.000Z</time>
</trkpt>
<trkpt lat="45.9626610" lon="10.1683510">
	<ele>1886.40</ele>
	<time>2025-08-03T08:32:04.000Z</time>
</trkpt>
<trkpt lat="45.9626560" lon="10.1683600">
	<ele>1886.20</ele>
	<time>2025-08-03T08:32:05.000Z</time>
</trkpt>
<trkpt lat="45.9626500" lon="10.1683760">
	<ele>1886.00</ele>
	<time>2025-08-03T08:32:06.000Z</time>
</trkpt>
<trkpt lat="45.9626420" lon="10.1683860">
	<ele>1885.80</ele>
	<time>2025-08-03T08:32:07.000Z</time>
</trkpt>
<trkpt lat="45.9626350" lon="10.1684030">
	<ele>1885.40</ele>
	<time>2025-08-03T08:32:08.000Z</time>
</trkpt>
<trkpt lat="45.9626270" lon="10.1684200">
	<ele>1885.20</ele>
	<time>2025-08-03T08:32:09.000Z</time>
</trkpt>
<trkpt lat="45.9626200" lon="10.1684350">
	<ele>1884.80</ele>
	<time>2025-08-03T08:32:10.000Z</time>
</trkpt>
<trkpt lat="45.9626140" lon="10.1684520">
	<ele>1884.60</ele>
	<time>2025-08-03T08:32:11.000Z</time>
</trkpt>
<trkpt lat="45.9626080" lon="10.1684690">
	<ele>1884.40</ele>
	<time>2025-08-03T08:32:12.000Z</time>
</trkpt>
<trkpt lat="45.9626000" lon="10.1684840">
	<ele>1884.20</ele>
	<time>2025-08-03T08:32:13.000Z</time>
</trkpt>
<trkpt lat="45.9625920" lon="10.1685000">
	<ele>1884.00</ele>
	<time>2025-08-03T08:32:14.000Z</time>
</trkpt>
<trkpt lat="45.9625840" lon="10.1685130">
	<ele>1883.80</ele>
	<time>2025-08-03T08:32:15.000Z</time>
</trkpt>
<trkpt lat="45.9625750" lon="10.1685260">
	<ele>1883.60</ele>
	<time>2025-08-03T08:32:16.000Z</time>
</trkpt>
<trkpt lat="45.9625640" lon="10.1685310">
	<ele>1883.40</ele>
	<time>2025-08-03T08:32:17.000Z</time>
</trkpt>
<trkpt lat="45.9625540" lon="10.1685340">
	<ele>1883.20</ele>
	<time>2025-08-03T08:32:18.000Z</time>
</trkpt>
<trkpt lat="45.9625450" lon="10.1685440">
	<ele>1883.00</ele>
	<time>2025-08-03T08:32:19.000Z</time>
</trkpt>
<trkpt lat="45.9625380" lon="10.1685560">
	<ele>1882.60</ele>
	<time>2025-08-03T08:32:20.000Z</time>
</trkpt>
<trkpt lat="45.9625300" lon="10.1685660">
	<ele>1882.40</ele>
	<time>2025-08-03T08:32:21.000Z</time>
</trkpt>
<trkpt lat="45.9625210" lon="10.1685740">
	<ele>1882.20</ele>
	<time>2025-08-03T08:32:22.000Z</time>
</trkpt>
<trkpt lat="45.9625120" lon="10.1685810">
	<ele>1882.00</ele>
	<time>2025-08-03T08:32:23.000Z</time>
</trkpt>
<trkpt lat="45.9625020" lon="10.1685960">
	<ele>1881.80</ele>
	<time>2025-08-03T08:32:24.000Z</time>
</trkpt>
<trkpt lat="45.9624910" lon="10.1686090">
	<ele>1881.60</ele>
	<time>2025-08-03T08:32:25.000Z</time>
</trkpt>
<trkpt lat="45.9624800" lon="10.1686240">
	<ele>1881.60</ele>
	<time>2025-08-03T08:32:26.000Z</time>
</trkpt>
<trkpt lat="45.9624710" lon="10.1686380">
	<ele>1881.40</ele>
	<time>2025-08-03T08:32:27.000Z</time>
</trkpt>
<trkpt lat="45.9624630" lon="10.1686530">
	<ele>1881.20</ele>
	<time>2025-08-03T08:32:28.000Z</time>
</trkpt>
<trkpt lat="45.9624540" lon="10.1686640">
	<ele>1881.00</ele>
	<time>2025-08-03T08:32:29.000Z</time>
</trkpt>
<trkpt lat="45.9624410" lon="10.1686750">
	<ele>1881.00</ele>
	<time>2025-08-03T08:32:30.000Z</time>
</trkpt>
<trkpt lat="45.9624270" lon="10.1686840">
	<ele>1880.80</ele>
	<time>2025-08-03T08:32:31.000Z</time>
</trkpt>
<trkpt lat="45.9624150" lon="10.1686900">
	<ele>1880.60</ele>
	<time>2025-08-03T08:32:32.000Z</time>
</trkpt>
<trkpt lat="45.9624020" lon="10.1686940">
	<ele>1880.40</ele>
	<time>2025-08-03T08:32:33.000Z</time>
</trkpt>
<trkpt lat="45.9623870" lon="10.1686930">
	<ele>1880.40</ele>
	<time>2025-08-03T08:32:34.000Z</time>
</trkpt>
<trkpt lat="45.9623740" lon="10.1686910">
	<ele>1880.20</ele>
	<time>2025-08-03T08:32:35.000Z</time>
</trkpt>
<trkpt lat="45.9623630" lon="10.1686960">
	<ele>1879.80</ele>
	<time>2025-08-03T08:32:36.000Z</time>
</trkpt>
<trkpt lat="45.9623530" lon="10.1687060">
	<ele>1879.60</ele>
	<time>2025-08-03T08:32:37.000Z</time>
</trkpt>
<trkpt lat="45.9623420" lon="10.1687120">
	<ele>1879.40</ele>
	<time>2025-08-03T08:32:38.000Z</time>
</trkpt>
<trkpt lat="45.9623320" lon="10.1687130">
	<ele>1879.20</ele>
	<time>2025-08-03T08:32:39.000Z</time>
</trkpt>
<trkpt lat="45.9623210" lon="10.1687200">
	<ele>1879.20</ele>
	<time>2025-08-03T08:32:40.000Z</time>
</trkpt>
<trkpt lat="45.9623110" lon="10.1687210">
	<ele>1879.00</ele>
	<time>2025-08-03T08:32:41.000Z</time>
</trkpt>
<trkpt lat="45.9622990" lon="10.1687250">
	<ele>1879.00</ele>
	<time>2025-08-03T08:32:42.000Z</time>
</trkpt>
<trkpt lat="45.9622870" lon="10.1687300">
	<ele>1878.80</ele>
	<time>2025-08-03T08:32:43.000Z</time>
</trkpt>
<trkpt lat="45.9622750" lon="10.1687300">
	<ele>1878.60</ele>
	<time>2025-08-03T08:32:44.000Z</time>
</trkpt>
<trkpt lat="45.9622630" lon="10.1687360">
	<ele>1878.40</ele>
	<time>2025-08-03T08:32:45.000Z</time>
</trkpt>
<trkpt lat="45.9622510" lon="10.1687420">
	<ele>1878.40</ele>
	<time>2025-08-03T08:32:46.000Z</time>
</trkpt>
<trkpt lat="45.9622380" lon="10.1687470">
	<ele>1878.20</ele>
	<time>2025-08-03T08:32:47.000Z</time>
</trkpt>
<trkpt lat="45.9622280" lon="10.1687540">
	<ele>1878.00</ele>
	<time>2025-08-03T08:32:48.000Z</time>
</trkpt>
<trkpt lat="45.9622160" lon="10.1687590">
	<ele>1878.00</ele>
	<time>2025-08-03T08:32:49.000Z</time>
</trkpt>
<trkpt lat="45.9622050" lon="10.1687640">
	<ele>1877.80</ele>
	<time>2025-08-03T08:32:50.000Z</time>
</trkpt>
<trkpt lat="45.9621910" lon="10.1687680">
	<ele>1877.60</ele>
	<time>2025-08-03T08:32:51.000Z</time>
</trkpt>
<trkpt lat="45.9621750" lon="10.1687750">
	<ele>1877.60</ele>
	<time>2025-08-03T08:32:52.000Z</time>
</trkpt>
<trkpt lat="45.9621630" lon="10.1687820">
	<ele>1877.40</ele>
	<time>2025-08-03T08:32:53.000Z</time>
</trkpt>
<trkpt lat="45.9621520" lon="10.1687910">
	<ele>1877.40</ele>
	<time>2025-08-03T08:32:54.000Z</time>
</trkpt>
<trkpt lat="45.9621410" lon="10.1688000">
	<ele>1877.20</ele>
	<time>2025-08-03T08:32:55.000Z</time>
</trkpt>
<trkpt lat="45.9621310" lon="10.1688070">
	<ele>1877.00</ele>
	<time>2025-08-03T08:32:56.000Z</time>
</trkpt>
<trkpt lat="45.9621200" lon="10.1688130">
	<ele>1877.00</ele>
	<time>2025-08-03T08:32:57.000Z</time>
</trkpt>
<trkpt lat="45.9621110" lon="10.1688190">
	<ele>1876.80</ele>
	<time>2025-08-03T08:32:58.000Z</time>
</trkpt>
<trkpt lat="45.9621010" lon="10.1688250">
	<ele>1876.80</ele>
	<time>2025-08-03T08:32:59.000Z</time>
</trkpt>
<trkpt lat="45.9620880" lon="10.1688340">
	<ele>1876.40</ele>
	<time>2025-08-03T08:33:00.000Z</time>
</trkpt>
<trkpt lat="45.9620780" lon="10.1688390">
	<ele>1876.20</ele>
	<time>2025-08-03T08:33:01.000Z</time>
</trkpt>
<trkpt lat="45.9620690" lon="10.1688450">
	<ele>1876.00</ele>
	<time>2025-08-03T08:33:02.000Z</time>
</trkpt>
<trkpt lat="45.9620580" lon="10.1688510">
	<ele>1875.60</ele>
	<time>2025-08-03T08:33:03.000Z</time>
</trkpt>
<trkpt lat="45.9620480" lon="10.1688530">
	<ele>1875.60</ele>
	<time>2025-08-03T08:33:04.000Z</time>
</trkpt>
<trkpt lat="45.9620360" lon="10.1688560">
	<ele>1875.40</ele>
	<time>2025-08-03T08:33:05.000Z</time>
</trkpt>
<trkpt lat="45.9620230" lon="10.1688550">
	<ele>1875.40</ele>
	<time>2025-08-03T08:33:06.000Z</time>
</trkpt>
<trkpt lat="45.9620110" lon="10.1688600">
	<ele>1875.20</ele>
	<time>2025-08-03T08:33:07.000Z</time>
</trkpt>
<trkpt lat="45.9619980" lon="10.1688650">
	<ele>1875.00</ele>
	<time>2025-08-03T08:33:08.000Z</time>
</trkpt>
<trkpt lat="45.9619850" lon="10.1688730">
	<ele>1874.80</ele>
	<time>2025-08-03T08:33:09.000Z</time>
</trkpt>
<trkpt lat="45.9619750" lon="10.1688840">
	<ele>1874.60</ele>
	<time>2025-08-03T08:33:10.000Z</time>
</trkpt>
<trkpt lat="45.9619610" lon="10.1688880">
	<ele>1874.40</ele>
	<time>2025-08-03T08:33:11.000Z</time>
</trkpt>
<trkpt lat="45.9619480" lon="10.1688950">
	<ele>1874.20</ele>
	<time>2025-08-03T08:33:12.000Z</time>
</trkpt>
<trkpt lat="45.9619350" lon="10.1689040">
	<ele>1874.00</ele>
	<time>2025-08-03T08:33:13.000Z</time>
</trkpt>
<trkpt lat="45.9619240" lon="10.1689130">
	<ele>1873.80</ele>
	<time>2025-08-03T08:33:14.000Z</time>
</trkpt>
<trkpt lat="45.9619150" lon="10.1689220">
	<ele>1873.60</ele>
	<time>2025-08-03T08:33:15.000Z</time>
</trkpt>
<trkpt lat="45.9619040" lon="10.1689290">
	<ele>1873.60</ele>
	<time>2025-08-03T08:33:16.000Z</time>
</trkpt>
<trkpt lat="45.9618940" lon="10.1689310">
	<ele>1873.40</ele>
	<time>2025-08-03T08:33:17.000Z</time>
</trkpt>
<trkpt lat="45.9618870" lon="10.1689360">
	<ele>1873.40</ele>
	<time>2025-08-03T08:33:18.000Z</time>
</trkpt>
<trkpt lat="45.9618800" lon="10.1689420">
	<ele>1873.00</ele>
	<time>2025-08-03T08:33:19.000Z</time>
</trkpt>
<trkpt lat="45.9618710" lon="10.1689520">
	<ele>1872.80</ele>
	<time>2025-08-03T08:33:20.000Z</time>
</trkpt>
<trkpt lat="45.9618610" lon="10.1689600">
	<ele>1872.80</ele>
	<time>2025-08-03T08:33:21.000Z</time>
</trkpt>
<trkpt lat="45.9618520" lon="10.1689670">
	<ele>1872.60</ele>
	<time>2025-08-03T08:33:22.000Z</time>
</trkpt>
<trkpt lat="45.9618450" lon="10.1689700">
	<ele>1872.60</ele>
	<time>2025-08-03T08:33:23.000Z</time>
</trkpt>
<trkpt lat="45.9618340" lon="10.1689760">
	<ele>1872.40</ele>
	<time>2025-08-03T08:33:24.000Z</time>
</trkpt>
<trkpt lat="45.9618260" lon="10.1689790">
	<ele>1872.40</ele>
	<time>2025-08-03T08:33:25.000Z</time>
</trkpt>
<trkpt lat="45.9618210" lon="10.1689810">
	<ele>1872.20</ele>
	<time>2025-08-03T08:33:26.000Z</time>
</trkpt>
<trkpt lat="45.9618180" lon="10.1689830">
	<ele>1872.00</ele>
	<time>2025-08-03T08:33:27.000Z</time>
</trkpt>
<trkpt lat="45.9618160" lon="10.1689840">
	<ele>1872.00</ele>
	<time>2025-08-03T08:33:28.000Z</time>
</trkpt>
<trkpt lat="45.9618150" lon="10.1689820">
	<ele>1871.80</ele>
	<time>2025-08-03T08:33:29.000Z</time>
</trkpt>
<trkpt lat="45.9618140" lon="10.1689800">
	<ele>1871.60</ele>
	<time>2025-08-03T08:33:30.000Z</time>
</trkpt>
<trkpt lat="45.9618130" lon="10.1689800">
	<ele>1871.60</ele>
	<time>2025-08-03T08:33:31.000Z</time>
</trkpt>
<trkpt lat="45.9618100" lon="10.1689830">
	<ele>1871.60</ele>
	<time>2025-08-03T08:33:32.000Z</time>
</trkpt>
<trkpt lat="45.9618010" lon="10.1689840">
	<ele>1871.60</ele>
	<time>2025-08-03T08:33:33.000Z</time>
</trkpt>
<trkpt lat="45.9617870" lon="10.1689870">
	<ele>1871.60</ele>
	<time>2025-08-03T08:33:34.000Z</time>
</trkpt>
<trkpt lat="45.9617730" lon="10.1689900">
	<ele>1871.60</ele>
	<time>2025-08-03T08:33:35.000Z</time>
</trkpt>
<trkpt lat="45.9617610" lon="10.1689900">
	<ele>1871.20</ele>
	<time>2025-08-03T08:33:36.000Z</time>
</trkpt>
<trkpt lat="45.9617540" lon="10.1689910">
	<ele>1871.00</ele>
	<time>2025-08-03T08:33:37.000Z</time>
</trkpt>
<trkpt lat="45.9617460" lon="10.1689930">
	<ele>1870.80</ele>
	<time>2025-08-03T08:33:38.000Z</time>
</trkpt>
<trkpt lat="45.9617350" lon="10.1689940">
	<ele>1870.60</ele>
	<time>2025-08-03T08:33:39.000Z</time>
</trkpt>
<trkpt lat="45.9617250" lon="10.1689940">
	<ele>1870.20</ele>
	<time>2025-08-03T08:33:40.000Z</time>
</trkpt>
<trkpt lat="45.9617160" lon="10.1689970">
	<ele>1869.80</ele>
	<time>2025-08-03T08:33:41.000Z</time>
</trkpt>
<trkpt lat="45.9617090" lon="10.1690020">
	<ele>1869.60</ele>
	<time>2025-08-03T08:33:42.000Z</time>
</trkpt>
<trkpt lat="45.9617020" lon="10.1690100">
	<ele>1869.40</ele>
	<time>2025-08-03T08:33:43.000Z</time>
</trkpt>
<trkpt lat="45.9616940" lon="10.1690210">
	<ele>1869.00</ele>
	<time>2025-08-03T08:33:44.000Z</time>
</trkpt>
<trkpt lat="45.9616830" lon="10.1690350">
	<ele>1868.80</ele>
	<time>2025-08-03T08:33:45.000Z</time>
</trkpt>
<trkpt lat="45.9616720" lon="10.1690470">
	<ele>1868.60</ele>
	<time>2025-08-03T08:33:46.000Z</time>
</trkpt>
<trkpt lat="45.9616620" lon="10.1690590">
	<ele>1868.40</ele>
	<time>2025-08-03T08:33:47.000Z</time>
</trkpt>
<trkpt lat="45.9616570" lon="10.1690690">
	<ele>1868.00</ele>
	<time>2025-08-03T08:33:48.000Z</time>
</trkpt>
<trkpt lat="45.9616520" lon="10.1690820">
	<ele>1867.80</ele>
	<time>2025-08-03T08:33:49.000Z</time>
</trkpt>
<trkpt lat="45.9616480" lon="10.1690970">
	<ele>1867.80</ele>
	<time>2025-08-03T08:33:50.000Z</time>
</trkpt>
<trkpt lat="45.9616420" lon="10.1691140">
	<ele>1867.60</ele>
	<time>2025-08-03T08:33:51.000Z</time>
</trkpt>
<trkpt lat="45.9616350" lon="10.1691260">
	<ele>1867.40</ele>
	<time>2025-08-03T08:33:52.000Z</time>
</trkpt>
<trkpt lat="45.9616250" lon="10.1691340">
	<ele>1867.40</ele>
	<time>2025-08-03T08:33:53.000Z</time>
</trkpt>
<trkpt lat="45.9616120" lon="10.1691450">
	<ele>1867.20</ele>
	<time>2025-08-03T08:33:54.000Z</time>
</trkpt>
<trkpt lat="45.9616040" lon="10.1691550">
	<ele>1867.00</ele>
	<time>2025-08-03T08:33:55.000Z</time>
</trkpt>
<trkpt lat="45.9615950" lon="10.1691680">
	<ele>1866.80</ele>
	<time>2025-08-03T08:33:56.000Z</time>
</trkpt>
<trkpt lat="45.9615870" lon="10.1691790">
	<ele>1866.40</ele>
	<time>2025-08-03T08:33:57.000Z</time>
</trkpt>
<trkpt lat="45.9615800" lon="10.1691900">
	<ele>1866.00</ele>
	<time>2025-08-03T08:33:58.000Z</time>
</trkpt>
<trkpt lat="45.9615730" lon="10.1692000">
	<ele>1865.80</ele>
	<time>2025-08-03T08:33:59.000Z</time>
</trkpt>
<trkpt lat="45.9615640" lon="10.1692090">
	<ele>1865.60</ele>
	<time>2025-08-03T08:34:00.000Z</time>
</trkpt>
<trkpt lat="45.9615570" lon="10.1692160">
	<ele>1865.40</ele>
	<time>2025-08-03T08:34:01.000Z</time>
</trkpt>
<trkpt lat="45.9615450" lon="10.1692250">
	<ele>1865.20</ele>
	<time>2025-08-03T08:34:02.000Z</time>
</trkpt>
<trkpt lat="45.9615360" lon="10.1692310">
	<ele>1865.20</ele>
	<time>2025-08-03T08:34:03.000Z</time>
</trkpt>
<trkpt lat="45.9615250" lon="10.1692400">
	<ele>1864.80</ele>
	<time>2025-08-03T08:34:04.000Z</time>
</trkpt>
<trkpt lat="45.9615150" lon="10.1692460">
	<ele>1864.40</ele>
	<time>2025-08-03T08:34:05.000Z</time>
</trkpt>
<trkpt lat="45.9615060" lon="10.1692480">
	<ele>1864.20</ele>
	<time>2025-08-03T08:34:06.000Z</time>
</trkpt>
<trkpt lat="45.9614970" lon="10.1692550">
	<ele>1864.00</ele>
	<time>2025-08-03T08:34:07.000Z</time>
</trkpt>
<trkpt lat="45.9614880" lon="10.1692570">
	<ele>1863.80</ele>
	<time>2025-08-03T08:34:08.000Z</time>
</trkpt>
<trkpt lat="45.9614800" lon="10.1692620">
	<ele>1863.60</ele>
	<time>2025-08-03T08:34:09.000Z</time>
</trkpt>
<trkpt lat="45.9614700" lon="10.1692630">
	<ele>1863.20</ele>
	<time>2025-08-03T08:34:10.000Z</time>
</trkpt>
<trkpt lat="45.9614600" lon="10.1692640">
	<ele>1863.20</ele>
	<time>2025-08-03T08:34:11.000Z</time>
</trkpt>
<trkpt lat="45.9614480" lon="10.1692680">
	<ele>1862.80</ele>
	<time>2025-08-03T08:34:12.000Z</time>
</trkpt>
<trkpt lat="45.9614360" lon="10.1692720">
	<ele>1862.60</ele>
	<time>2025-08-03T08:34:13.000Z</time>
</trkpt>
<trkpt lat="45.9614290" lon="10.1692790">
	<ele>1862.60</ele>
	<time>2025-08-03T08:34:14.000Z</time>
</trkpt>
<trkpt lat="45.9614240" lon="10.1692860">
	<ele>1862.20</ele>
	<time>2025-08-03T08:34:15.000Z</time>
</trkpt>
<trkpt lat="45.9614110" lon="10.1692930">
	<ele>1861.60</ele>
	<time>2025-08-03T08:34:16.000Z</time>
</trkpt>
<trkpt lat="45.9614020" lon="10.1692940">
	<ele>1861.40</ele>
	<time>2025-08-03T08:34:17.000Z</time>
</trkpt>
<trkpt lat="45.9613900" lon="10.1693020">
	<ele>1861.20</ele>
	<time>2025-08-03T08:34:18.000Z</time>
</trkpt>
<trkpt lat="45.9613790" lon="10.1693070">
	<ele>1860.80</ele>
	<time>2025-08-03T08:34:19.000Z</time>
</trkpt>
<trkpt lat="45.9613690" lon="10.1693150">
	<ele>1860.60</ele>
	<time>2025-08-03T08:34:20.000Z</time>
</trkpt>
<trkpt lat="45.9613610" lon="10.1693210">
	<ele>1860.40</ele>
	<time>2025-08-03T08:34:21.000Z</time>
</trkpt>
<trkpt lat="45.9613530" lon="10.1693290">
	<ele>1860.00</ele>
	<time>2025-08-03T08:34:22.000Z</time>
</trkpt>
<trkpt lat="45.9613490" lon="10.1693310">
	<ele>1859.60</ele>
	<time>2025-08-03T08:34:23.000Z</time>
</trkpt>
<trkpt lat="45.9613450" lon="10.1693320">
	<ele>1859.60</ele>
	<time>2025-08-03T08:34:24.000Z</time>
</trkpt>
<trkpt lat="45.9613470" lon="10.1693340">
	<ele>1859.40</ele>
	<time>2025-08-03T08:34:25.000Z</time>
</trkpt>
<trkpt lat="45.9613430" lon="10.1693370">
	<ele>1859.40</ele>
	<time>2025-08-03T08:34:26.000Z</time>
</trkpt>
<trkpt lat="45.9613350" lon="10.1693430">
	<ele>1859.40</ele>
	<time>2025-08-03T08:34:27.000Z</time>
</trkpt>
<trkpt lat="45.9613270" lon="10.1693490">
	<ele>1859.40</ele>
	<time>2025-08-03T08:34:28.000Z</time>
</trkpt>
<trkpt lat="45.9613180" lon="10.1693550">
	<ele>1859.40</ele>
	<time>2025-08-03T08:34:29.000Z</time>
</trkpt>
<trkpt lat="45.9613080" lon="10.1693620">
	<ele>1859.20</ele>
	<time>2025-08-03T08:34:30.000Z</time>
</trkpt>
<trkpt lat="45.9612970" lon="10.1693700">
	<ele>1859.20</ele>
	<time>2025-08-03T08:34:31.000Z</time>
</trkpt>
<trkpt lat="45.9612860" lon="10.1693760">
	<ele>1859.20</ele>
	<time>2025-08-03T08:34:32.000Z</time>
</trkpt>
<trkpt lat="45.9612750" lon="10.1693820">
	<ele>1858.60</ele>
	<time>2025-08-03T08:34:33.000Z</time>
</trkpt>
<trkpt lat="45.9612630" lon="10.1693830">
	<ele>1858.20</ele>
	<time>2025-08-03T08:34:34.000Z</time>
</trkpt>
<trkpt lat="45.9612490" lon="10.1693850">
	<ele>1857.80</ele>
	<time>2025-08-03T08:34:35.000Z</time>
</trkpt>
<trkpt lat="45.9612380" lon="10.1693920">
	<ele>1857.60</ele>
	<time>2025-08-03T08:34:36.000Z</time>
</trkpt>
<trkpt lat="45.9612280" lon="10.1694020">
	<ele>1857.20</ele>
	<time>2025-08-03T08:34:37.000Z</time>
</trkpt>
<trkpt lat="45.9612230" lon="10.1694060">
	<ele>1857.00</ele>
	<time>2025-08-03T08:34:38.000Z</time>
</trkpt>
<trkpt lat="45.9612190" lon="10.1694090">
	<ele>1856.60</ele>
	<time>2025-08-03T08:34:39.000Z</time>
</trkpt>
<trkpt lat="45.9612110" lon="10.1694120">
	<ele>1856.40</ele>
	<time>2025-08-03T08:34:40.000Z</time>
</trkpt>
<trkpt lat="45.9612020" lon="10.1694160">
	<ele>1856.20</ele>
	<time>2025-08-03T08:34:41.000Z</time>
</trkpt>
<trkpt lat="45.9611940" lon="10.1694230">
	<ele>1855.80</ele>
	<time>2025-08-03T08:34:42.000Z</time>
</trkpt>
<trkpt lat="45.9611850" lon="10.1694310">
	<ele>1855.40</ele>
	<time>2025-08-03T08:34:43.000Z</time>
</trkpt>
<trkpt lat="45.9611770" lon="10.1694400">
	<ele>1855.20</ele>
	<time>2025-08-03T08:34:44.000Z</time>
</trkpt>
<trkpt lat="45.9611690" lon="10.1694450">
	<ele>1854.80</ele>
	<time>2025-08-03T08:34:45.000Z</time>
</trkpt>
<trkpt lat="45.9611600" lon="10.1694500">
	<ele>1854.60</ele>
	<time>2025-08-03T08:34:46.000Z</time>
</trkpt>
<trkpt lat="45.9611500" lon="10.1694590">
	<ele>1854.40</ele>
	<time>2025-08-03T08:34:47.000Z</time>
</trkpt>
<trkpt lat="45.9611410" lon="10.1694660">
	<ele>1854.00</ele>
	<time>2025-08-03T08:34:48.000Z</time>
</trkpt>
<trkpt lat="45.9611320" lon="10.1694740">
	<ele>1853.60</ele>
	<time>2025-08-03T08:34:49.000Z</time>
</trkpt>
<trkpt lat="45.9611230" lon="10.1694870">
	<ele>1853.40</ele>
	<time>2025-08-03T08:34:50.000Z</time>
</trkpt>
<trkpt lat="45.9611170" lon="10.1695000">
	<ele>1853.20</ele>
	<time>2025-08-03T08:34:51.000Z</time>
</trkpt>
<trkpt lat="45.9611110" lon="10.1695070">
	<ele>1853.20</ele>
	<time>2025-08-03T08:34:52.000Z</time>
</trkpt>
<trkpt lat="45.9611050" lon="10.1695130">
	<ele>1853.00</ele>
	<time>2025-08-03T08:34:53.000Z</time>
</trkpt>
<trkpt lat="45.9610980" lon="10.1695190">
	<ele>1852.80</ele>
	<time>2025-08-03T08:34:54.000Z</time>
</trkpt>
<trkpt lat="45.9610910" lon="10.1695290">
	<ele>1852.80</ele>
	<time>2025-08-03T08:34:55.000Z</time>
</trkpt>
<trkpt lat="45.9610840" lon="10.1695320">
	<ele>1852.60</ele>
	<time>2025-08-03T08:34:56.000Z</time>
</trkpt>
<trkpt lat="45.9610780" lon="10.1695300">
	<ele>1852.40</ele>
	<time>2025-08-03T08:34:57.000Z</time>
</trkpt>
<trkpt lat="45.9610740" lon="10.1695320">
	<ele>1852.40</ele>
	<time>2025-08-03T08:34:58.000Z</time>
</trkpt>
<trkpt lat="45.9610700" lon="10.1695330">
	<ele>1852.20</ele>
	<time>2025-08-03T08:34:59.000Z</time>
</trkpt>
<trkpt lat="45.9610680" lon="10.1695330">
	<ele>1852.20</ele>
	<time>2025-08-03T08:35:00.000Z</time>
</trkpt>
<trkpt lat="45.9610690" lon="10.1695300">
	<ele>1852.00</ele>
	<time>2025-08-03T08:35:01.000Z</time>
</trkpt>
<trkpt lat="45.9610720" lon="10.1695280">
	<ele>1852.00</ele>
	<time>2025-08-03T08:35:02.000Z</time>
</trkpt>
<trkpt lat="45.9610720" lon="10.1695270">
	<ele>1852.00</ele>
	<time>2025-08-03T08:35:03.000Z</time>
</trkpt>
<trkpt lat="45.9610730" lon="10.1695280">
	<ele>1852.00</ele>
	<time>2025-08-03T08:35:04.000Z</time>
</trkpt>
<trkpt lat="45.9610740" lon="10.1695280">
	<ele>1852.00</ele>
	<time>2025-08-03T08:35:05.000Z</time>
</trkpt>
<trkpt lat="45.9610750" lon="10.1695280">
	<ele>1852.00</ele>
	<time>2025-08-03T08:35:06.000Z</time>
</trkpt>
<trkpt lat="45.9610730" lon="10.1695270">
	<ele>1852.20</ele>
	<time>2025-08-03T08:35:07.000Z</time>
</trkpt>
<trkpt lat="45.9610710" lon="10.1695280">
	<ele>1852.20</ele>
	<time>2025-08-03T08:35:08.000Z</time>
</trkpt>
<trkpt lat="45.9610690" lon="10.1695250">
	<ele>1852.40</ele>
	<time>2025-08-03T08:35:09.000Z</time>
</trkpt>
<trkpt lat="45.9610670" lon="10.1695240">
	<ele>1852.40</ele>
	<time>2025-08-03T08:35:10.000Z</time>
</trkpt>
<trkpt lat="45.9610630" lon="10.1695220">
	<ele>1852.40</ele>
	<time>2025-08-03T08:35:11.000Z</time>
</trkpt>
<trkpt lat="45.9610630" lon="10.1695290">
	<ele>1852.20</ele>
	<time>2025-08-03T08:35:12.000Z</time>
</trkpt>
<trkpt lat="45.9610620" lon="10.1695470">
	<ele>1851.80</ele>
	<time>2025-08-03T08:35:13.000Z</time>
</trkpt>
<trkpt lat="45.9610630" lon="10.1695590">
	<ele>1851.80</ele>
	<time>2025-08-03T08:35:14.000Z</time>
</trkpt>
<trkpt lat="45.9610600" lon="10.1695730">
	<ele>1851.60</ele>
	<time>2025-08-03T08:35:15.000Z</time>
</trkpt>
<trkpt lat="45.9610540" lon="10.1695840">
	<ele>1851.60</ele>
	<time>2025-08-03T08:35:16.000Z</time>
</trkpt>
<trkpt lat="45.9610450" lon="10.1695950">
	<ele>1851.40</ele>
	<time>2025-08-03T08:35:17.000Z</time>
</trkpt>
<trkpt lat="45.9610380" lon="10.1696040">
	<ele>1851.60</ele>
	<time>2025-08-03T08:35:18.000Z</time>
</trkpt>
<trkpt lat="45.9610330" lon="10.1696120">
	<ele>1851.60</ele>
	<time>2025-08-03T08:35:19.000Z</time>
</trkpt>
<trkpt lat="45.9610310" lon="10.1696160">
	<ele>1851.60</ele>
	<time>2025-08-03T08:35:20.000Z</time>
</trkpt>
<trkpt lat="45.9610300" lon="10.1696180">
	<ele>1851.60</ele>
	<time>2025-08-03T08:35:21.000Z</time>
</trkpt>
<trkpt lat="45.9610300" lon="10.1696180">
	<ele>1851.60</ele>
	<time>2025-08-03T08:35:22.000Z</time>
</trkpt>
<trkpt lat="45.9610300" lon="10.1696190">
	<ele>1851.60</ele>
	<time>2025-08-03T08:35:23.000Z</time>
</trkpt>
<trkpt lat="45.9610290" lon="10.1696170">
	<ele>1851.60</ele>
	<time>2025-08-03T08:35:24.000Z</time>
</trkpt>
<trkpt lat="45.9610230" lon="10.1696170">
	<ele>1851.80</ele>
	<time>2025-08-03T08:35:25.000Z</time>
</trkpt>
<trkpt lat="45.9610150" lon="10.1696210">
	<ele>1851.60</ele>
	<time>2025-08-03T08:35:26.000Z</time>
</trkpt>
<trkpt lat="45.9610060" lon="10.1696270">
	<ele>1851.60</ele>
	<time>2025-08-03T08:35:27.000Z</time>
</trkpt>
<trkpt lat="45.9609910" lon="10.1696330">
	<ele>1851.60</ele>
	<time>2025-08-03T08:35:28.000Z</time>
</trkpt>
<trkpt lat="45.9609770" lon="10.1696400">
	<ele>1851.60</ele>
	<time>2025-08-03T08:35:29.000Z</time>
</trkpt>
<trkpt lat="45.9609620" lon="10.1696350">
	<ele>1851.60</ele>
	<time>2025-08-03T08:35:30.000Z</time>
</trkpt>
<trkpt lat="45.9609460" lon="10.1696310">
	<ele>1851.60</ele>
	<time>2025-08-03T08:35:31.000Z</time>
</trkpt>
<trkpt lat="45.9609300" lon="10.1696210">
	<ele>1851.40</ele>
	<time>2025-08-03T08:35:32.000Z</time>
</trkpt>
<trkpt lat="45.9609160" lon="10.1696110">
	<ele>1851.40</ele>
	<time>2025-08-03T08:35:33.000Z</time>
</trkpt>
<trkpt lat="45.9609080" lon="10.1696090">
	<ele>1851.40</ele>
	<time>2025-08-03T08:35:34.000Z</time>
</trkpt>
<trkpt lat="45.9608950" lon="10.1696050">
	<ele>1851.40</ele>
	<time>2025-08-03T08:35:35.000Z</time>
</trkpt>
<trkpt lat="45.9608820" lon="10.1695980">
	<ele>1851.00</ele>
	<time>2025-08-03T08:35:36.000Z</time>
</trkpt>
<trkpt lat="45.9608680" lon="10.1695970">
	<ele>1850.80</ele>
	<time>2025-08-03T08:35:37.000Z</time>
</trkpt>
<trkpt lat="45.9608550" lon="10.1695950">
	<ele>1850.80</ele>
	<time>2025-08-03T08:35:38.000Z</time>
</trkpt>
<trkpt lat="45.9608420" lon="10.1695960">
	<ele>1850.60</ele>
	<time>2025-08-03T08:35:39.000Z</time>
</trkpt>
<trkpt lat="45.9608260" lon="10.1695960">
	<ele>1850.40</ele>
	<time>2025-08-03T08:35:40.000Z</time>
</trkpt>
<trkpt lat="45.9608120" lon="10.1695960">
	<ele>1850.20</ele>
	<time>2025-08-03T08:35:41.000Z</time>
</trkpt>
<trkpt lat="45.9607990" lon="10.1695940">
	<ele>1850.00</ele>
	<time>2025-08-03T08:35:42.000Z</time>
</trkpt>
<trkpt lat="45.9607830" lon="10.1695900">
	<ele>1849.80</ele>
	<time>2025-08-03T08:35:43.000Z</time>
</trkpt>
<trkpt lat="45.9607720" lon="10.1695900">
	<ele>1849.80</ele>
	<time>2025-08-03T08:35:44.000Z</time>
</trkpt>
<trkpt lat="45.9607600" lon="10.1695920">
	<ele>1849.80</ele>
	<time>2025-08-03T08:35:45.000Z</time>
</trkpt>
<trkpt lat="45.9607480" lon="10.1695910">
	<ele>1849.80</ele>
	<time>2025-08-03T08:35:46.000Z</time>
</trkpt>
<trkpt lat="45.9607330" lon="10.1695900">
	<ele>1849.80</ele>
	<time>2025-08-03T08:35:47.000Z</time>
</trkpt>
<trkpt lat="45.9607190" lon="10.1695870">
	<ele>1849.80</ele>
	<time>2025-08-03T08:35:48.000Z</time>
</trkpt>
<trkpt lat="45.9607050" lon="10.1695880">
	<ele>1849.80</ele>
	<time>2025-08-03T08:35:49.000Z</time>
</trkpt>
<trkpt lat="45.9606930" lon="10.1695880">
	<ele>1850.00</ele>
	<time>2025-08-03T08:35:50.000Z</time>
</trkpt>
<trkpt lat="45.9606810" lon="10.1695890">
	<ele>1850.00</ele>
	<time>2025-08-03T08:35:51.000Z</time>
</trkpt>
<trkpt lat="45.9606680" lon="10.1695880">
	<ele>1850.00</ele>
	<time>2025-08-03T08:35:52.000Z</time>
</trkpt>
<trkpt lat="45.9606560" lon="10.1695900">
	<ele>1850.00</ele>
	<time>2025-08-03T08:35:53.000Z</time>
</trkpt>
<trkpt lat="45.9606430" lon="10.1695920">
	<ele>1850.20</ele>
	<time>2025-08-03T08:35:54.000Z</time>
</trkpt>
<trkpt lat="45.9606330" lon="10.1695940">
	<ele>1850.20</ele>
	<time>2025-08-03T08:35:55.000Z</time>
</trkpt>
<trkpt lat="45.9606190" lon="10.1695960">
	<ele>1850.20</ele>
	<time>2025-08-03T08:35:56.000Z</time>
</trkpt>
<trkpt lat="45.9606070" lon="10.1695970">
	<ele>1850.20</ele>
	<time>2025-08-03T08:35:57.000Z</time>
</trkpt>
<trkpt lat="45.9605950" lon="10.1696000">
	<ele>1850.20</ele>
	<time>2025-08-03T08:35:58.000Z</time>
</trkpt>
<trkpt lat="45.9605840" lon="10.1696040">
	<ele>1850.40</ele>
	<time>2025-08-03T08:35:59.000Z</time>
</trkpt>
<trkpt lat="45.9605720" lon="10.1696070">
	<ele>1850.40</ele>
	<time>2025-08-03T08:36:00.000Z</time>
</trkpt>
<trkpt lat="45.9605620" lon="10.1696130">
	<ele>1850.40</ele>
	<time>2025-08-03T08:36:01.000Z</time>
</trkpt>
<trkpt lat="45.9605500" lon="10.1696210">
	<ele>1850.40</ele>
	<time>2025-08-03T08:36:02.000Z</time>
</trkpt>
<trkpt lat="45.9605390" lon="10.1696280">
	<ele>1850.40</ele>
	<time>2025-08-03T08:36:03.000Z</time>
</trkpt>
<trkpt lat="45.9605260" lon="10.1696330">
	<ele>1850.40</ele>
	<time>2025-08-03T08:36:04.000Z</time>
</trkpt>
<trkpt lat="45.9605130" lon="10.1696370">
	<ele>1850.60</ele>
	<time>2025-08-03T08:36:05.000Z</time>
</trkpt>
<trkpt lat="45.9604990" lon="10.1696400">
	<ele>1850.60</ele>
	<time>2025-08-03T08:36:06.000Z</time>
</trkpt>
<trkpt lat="45.9604860" lon="10.1696430">
	<ele>1850.60</ele>
	<time>2025-08-03T08:36:07.000Z</time>
</trkpt>
<trkpt lat="45.9604740" lon="10.1696430">
	<ele>1850.60</ele>
	<time>2025-08-03T08:36:08.000Z</time>
</trkpt>
<trkpt lat="45.9604640" lon="10.1696430">
	<ele>1850.60</ele>
	<time>2025-08-03T08:36:09.000Z</time>
</trkpt>
<trkpt lat="45.9604510" lon="10.1696360">
	<ele>1850.60</ele>
	<time>2025-08-03T08:36:10.000Z</time>
</trkpt>
<trkpt lat="45.9604390" lon="10.1696290">
	<ele>1850.80</ele>
	<time>2025-08-03T08:36:11.000Z</time>
</trkpt>
<trkpt lat="45.9604240" lon="10.1696260">
	<ele>1850.80</ele>
	<time>2025-08-03T08:36:12.000Z</time>
</trkpt>
<trkpt lat="45.9604100" lon="10.1696290">
	<ele>1850.80</ele>
	<time>2025-08-03T08:36:13.000Z</time>
</trkpt>
<trkpt lat="45.9603960" lon="10.1696310">
	<ele>1851.00</ele>
	<time>2025-08-03T08:36:14.000Z</time>
</trkpt>
<trkpt lat="45.9603860" lon="10.1696330">
	<ele>1851.00</ele>
	<time>2025-08-03T08:36:15.000Z</time>
</trkpt>
<trkpt lat="45.9603750" lon="10.1696360">
	<ele>1851.00</ele>
	<time>2025-08-03T08:36:16.000Z</time>
</trkpt>
<trkpt lat="45.9603580" lon="10.1696340">
	<ele>1851.00</ele>
	<time>2025-08-03T08:36:17.000Z</time>
</trkpt>
<trkpt lat="45.9603480" lon="10.1696310">
	<ele>1851.00</ele>
	<time>2025-08-03T08:36:18.000Z</time>
</trkpt>
<trkpt lat="45.9603320" lon="10.1696290">
	<ele>1851.20</ele>
	<time>2025-08-03T08:36:19.000Z</time>
</trkpt>
<trkpt lat="45.9603180" lon="10.1696270">
	<ele>1851.40</ele>
	<time>2025-08-03T08:36:20.000Z</time>
</trkpt>
<trkpt lat="45.9603070" lon="10.1696260">
	<ele>1851.60</ele>
	<time>2025-08-03T08:36:21.000Z</time>
</trkpt>
<trkpt lat="45.9602960" lon="10.1696270">
	<ele>1851.60</ele>
	<time>2025-08-03T08:36:22.000Z</time>
</trkpt>
<trkpt lat="45.9602800" lon="10.1696280">
	<ele>1851.80</ele>
	<time>2025-08-03T08:36:23.000Z</time>
</trkpt>
<trkpt lat="45.9602620" lon="10.1696200">
	<ele>1851.80</ele>
	<time>2025-08-03T08:36:24.000Z</time>
</trkpt>
<trkpt lat="45.9602490" lon="10.1696100">
	<ele>1852.00</ele>
	<time>2025-08-03T08:36:25.000Z</time>
</trkpt>
<trkpt lat="45.9602360" lon="10.1696070">
	<ele>1852.20</ele>
	<time>2025-08-03T08:36:26.000Z</time>
</trkpt>
<trkpt lat="45.9602280" lon="10.1696040">
	<ele>1852.20</ele>
	<time>2025-08-03T08:36:27.000Z</time>
</trkpt>
<trkpt lat="45.9602170" lon="10.1696010">
	<ele>1852.20</ele>
	<time>2025-08-03T08:36:28.000Z</time>
</trkpt>
<trkpt lat="45.9602070" lon="10.1695960">
	<ele>1852.20</ele>
	<time>2025-08-03T08:36:29.000Z</time>
</trkpt>
<trkpt lat="45.9601970" lon="10.1695930">
	<ele>1852.40</ele>
	<time>2025-08-03T08:36:30.000Z</time>
</trkpt>
<trkpt lat="45.9601880" lon="10.1695900">
	<ele>1852.40</ele>
	<time>2025-08-03T08:36:31.000Z</time>
</trkpt>
<trkpt lat="45.9601730" lon="10.1695850">
	<ele>1852.60</ele>
	<time>2025-08-03T08:36:32.000Z</time>
</trkpt>
<trkpt lat="45.9601570" lon="10.1695780">
	<ele>1852.60</ele>
	<time>2025-08-03T08:36:33.000Z</time>
</trkpt>
<trkpt lat="45.9601420" lon="10.1695700">
	<ele>1852.80</ele>
	<time>2025-08-03T08:36:34.000Z</time>
</trkpt>
<trkpt lat="45.9601310" lon="10.1695660">
	<ele>1852.80</ele>
	<time>2025-08-03T08:36:35.000Z</time>
</trkpt>
<trkpt lat="45.9601190" lon="10.1695640">
	<ele>1853.00</ele>
	<time>2025-08-03T08:36:36.000Z</time>
</trkpt>
<trkpt lat="45.9601090" lon="10.1695640">
	<ele>1853.00</ele>
	<time>2025-08-03T08:36:37.000Z</time>
</trkpt>
<trkpt lat="45.9600990" lon="10.1695630">
	<ele>1853.20</ele>
	<time>2025-08-03T08:36:38.000Z</time>
</trkpt>
<trkpt lat="45.9600890" lon="10.1695610">
	<ele>1853.20</ele>
	<time>2025-08-03T08:36:39.000Z</time>
</trkpt>
<trkpt lat="45.9600800" lon="10.1695550">
	<ele>1853.40</ele>
	<time>2025-08-03T08:36:40.000Z</time>
</trkpt>
<trkpt lat="45.9600680" lon="10.1695510">
	<ele>1853.40</ele>
	<time>2025-08-03T08:36:41.000Z</time>
</trkpt>
<trkpt lat="45.9600540" lon="10.1695490">
	<ele>1853.40</ele>
	<time>2025-08-03T08:36:42.000Z</time>
</trkpt>
<trkpt lat="45.9600430" lon="10.1695470">
	<ele>1853.40</ele>
	<time>2025-08-03T08:36:43.000Z</time>
</trkpt>
<trkpt lat="45.9600300" lon="10.1695500">
	<ele>1853.40</ele>
	<time>2025-08-03T08:36:44.000Z</time>
</trkpt>
<trkpt lat="45.9600160" lon="10.1695510">
	<ele>1853.40</ele>
	<time>2025-08-03T08:36:45.000Z</time>
</trkpt>
<trkpt lat="45.9600030" lon="10.1695500">
	<ele>1853.20</ele>
	<time>2025-08-03T08:36:46.000Z</time>
</trkpt>
<trkpt lat="45.9599880" lon="10.1695510">
	<ele>1853.00</ele>
	<time>2025-08-03T08:36:47.000Z</time>
</trkpt>
<trkpt lat="45.9599740" lon="10.1695540">
	<ele>1852.80</ele>
	<time>2025-08-03T08:36:48.000Z</time>
</trkpt>
<trkpt lat="45.9599610" lon="10.1695540">
	<ele>1852.60</ele>
	<time>2025-08-03T08:36:49.000Z</time>
</trkpt>
<trkpt lat="45.9599470" lon="10.1695550">
	<ele>1852.40</ele>
	<time>2025-08-03T08:36:50.000Z</time>
</trkpt>
<trkpt lat="45.9599340" lon="10.1695500">
	<ele>1852.40</ele>
	<time>2025-08-03T08:36:51.000Z</time>
</trkpt>
<trkpt lat="45.9599210" lon="10.1695530">
	<ele>1852.40</ele>
	<time>2025-08-03T08:36:52.000Z</time>
</trkpt>
<trkpt lat="45.9599080" lon="10.1695520">
	<ele>1852.40</ele>
	<time>2025-08-03T08:36:53.000Z</time>
</trkpt>
<trkpt lat="45.9598950" lon="10.1695540">
	<ele>1852.60</ele>
	<time>2025-08-03T08:36:54.000Z</time>
</trkpt>
<trkpt lat="45.9598830" lon="10.1695580">
	<ele>1852.60</ele>
	<time>2025-08-03T08:36:55.000Z</time>
</trkpt>
<trkpt lat="45.9598710" lon="10.1695620">
	<ele>1852.60</ele>
	<time>2025-08-03T08:36:56.000Z</time>
</trkpt>
<trkpt lat="45.9598570" lon="10.1695650">
	<ele>1852.80</ele>
	<time>2025-08-03T08:36:57.000Z</time>
</trkpt>
<trkpt lat="45.9598460" lon="10.1695670">
	<ele>1852.80</ele>
	<time>2025-08-03T08:36:58.000Z</time>
</trkpt>
<trkpt lat="45.9598350" lon="10.1695650">
	<ele>1853.00</ele>
	<time>2025-08-03T08:36:59.000Z</time>
</trkpt>
<trkpt lat="45.9598220" lon="10.1695620">
	<ele>1853.00</ele>
	<time>2025-08-03T08:37:00.000Z</time>
</trkpt>
<trkpt lat="45.9598110" lon="10.1695580">
	<ele>1853.20</ele>
	<time>2025-08-03T08:37:01.000Z</time>
</trkpt>
<trkpt lat="45.9598000" lon="10.1695540">
	<ele>1853.20</ele>
	<time>2025-08-03T08:37:02.000Z</time>
</trkpt>
<trkpt lat="45.9597910" lon="10.1695570">
	<ele>1853.40</ele>
	<time>2025-08-03T08:37:03.000Z</time>
</trkpt>
<trkpt lat="45.9597840" lon="10.1695590">
	<ele>1853.60</ele>
	<time>2025-08-03T08:37:04.000Z</time>
</trkpt>
<trkpt lat="45.9597790" lon="10.1695590">
	<ele>1853.60</ele>
	<time>2025-08-03T08:37:05.000Z</time>
</trkpt>
<trkpt lat="45.9597760" lon="10.1695560">
	<ele>1853.60</ele>
	<time>2025-08-03T08:37:06.000Z</time>
</trkpt>
<trkpt lat="45.9597750" lon="10.1695520">
	<ele>1853.80</ele>
	<time>2025-08-03T08:37:07.000Z</time>
</trkpt>
<trkpt lat="45.9597750" lon="10.1695480">
	<ele>1853.80</ele>
	<time>2025-08-03T08:37:08.000Z</time>
</trkpt>
<trkpt lat="45.9597740" lon="10.1695470">
	<ele>1853.80</ele>
	<time>2025-08-03T08:37:09.000Z</time>
</trkpt>
<trkpt lat="45.9597720" lon="10.1695460">
	<ele>1854.00</ele>
	<time>2025-08-03T08:37:10.000Z</time>
</trkpt>
<trkpt lat="45.9597730" lon="10.1695460">
	<ele>1854.00</ele>
	<time>2025-08-03T08:37:11.000Z</time>
</trkpt>
<trkpt lat="45.9597710" lon="10.1695500">
	<ele>1854.00</ele>
	<time>2025-08-03T08:37:12.000Z</time>
</trkpt>
<trkpt lat="45.9597650" lon="10.1695560">
	<ele>1854.20</ele>
	<time>2025-08-03T08:37:13.000Z</time>
</trkpt>
<trkpt lat="45.9597540" lon="10.1695550">
	<ele>1854.20</ele>
	<time>2025-08-03T08:37:14.000Z</time>
</trkpt>
<trkpt lat="45.9597450" lon="10.1695540">
	<ele>1854.20</ele>
	<time>2025-08-03T08:37:15.000Z</time>
</trkpt>
<trkpt lat="45.9597360" lon="10.1695530">
	<ele>1854.20</ele>
	<time>2025-08-03T08:37:16.000Z</time>
</trkpt>
<trkpt lat="45.9597260" lon="10.1695510">
	<ele>1854.20</ele>
	<time>2025-08-03T08:37:17.000Z</time>
</trkpt>
<trkpt lat="45.9597130" lon="10.1695520">
	<ele>1854.40</ele>
	<time>2025-08-03T08:37:18.000Z</time>
</trkpt>
<trkpt lat="45.9597020" lon="10.1695570">
	<ele>1854.40</ele>
	<time>2025-08-03T08:37:19.000Z</time>
</trkpt>
<trkpt lat="45.9596930" lon="10.1695660">
	<ele>1854.60</ele>
	<time>2025-08-03T08:37:20.000Z</time>
</trkpt>
<trkpt lat="45.9596800" lon="10.1695750">
	<ele>1854.80</ele>
	<time>2025-08-03T08:37:21.000Z</time>
</trkpt>
<trkpt lat="45.9596680" lon="10.1695800">
	<ele>1854.80</ele>
	<time>2025-08-03T08:37:22.000Z</time>
</trkpt>
<trkpt lat="45.9596540" lon="10.1695850">
	<ele>1854.80</ele>
	<time>2025-08-03T08:37:23.000Z</time>
</trkpt>
<trkpt lat="45.9596440" lon="10.1695930">
	<ele>1854.80</ele>
	<time>2025-08-03T08:37:24.000Z</time>
</trkpt>
<trkpt lat="45.9596320" lon="10.1696050">
	<ele>1854.80</ele>
	<time>2025-08-03T08:37:25.000Z</time>
</trkpt>
<trkpt lat="45.9596220" lon="10.1696150">
	<ele>1854.80</ele>
	<time>2025-08-03T08:37:26.000Z</time>
</trkpt>
<trkpt lat="45.9596140" lon="10.1696220">
	<ele>1854.80</ele>
	<time>2025-08-03T08:37:27.000Z</time>
</trkpt>
<trkpt lat="45.9596060" lon="10.1696330">
	<ele>1854.80</ele>
	<time>2025-08-03T08:37:28.000Z</time>
</trkpt>
<trkpt lat="45.9595940" lon="10.1696370">
	<ele>1854.80</ele>
	<time>2025-08-03T08:37:29.000Z</time>
</trkpt>
<trkpt lat="45.9595830" lon="10.1696420">
	<ele>1854.80</ele>
	<time>2025-08-03T08:37:30.000Z</time>
</trkpt>
<trkpt lat="45.9595690" lon="10.1696470">
	<ele>1854.60</ele>
	<time>2025-08-03T08:37:31.000Z</time>
</trkpt>
<trkpt lat="45.9595560" lon="10.1696570">
	<ele>1854.60</ele>
	<time>2025-08-03T08:37:32.000Z</time>
</trkpt>
<trkpt lat="45.9595450" lon="10.1696620">
	<ele>1854.60</ele>
	<time>2025-08-03T08:37:33.000Z</time>
</trkpt>
<trkpt lat="45.9595300" lon="10.1696660">
	<ele>1854.60</ele>
	<time>2025-08-03T08:37:34.000Z</time>
</trkpt>
<trkpt lat="45.9595150" lon="10.1696720">
	<ele>1854.60</ele>
	<time>2025-08-03T08:37:35.000Z</time>
</trkpt>
<trkpt lat="45.9594980" lon="10.1696750">
	<ele>1854.60</ele>
	<time>2025-08-03T08:37:36.000Z</time>
</trkpt>
<trkpt lat="45.9594840" lon="10.1696800">
	<ele>1854.60</ele>
	<time>2025-08-03T08:37:37.000Z</time>
</trkpt>
<trkpt lat="45.9594760" lon="10.1696810">
	<ele>1854.60</ele>
	<time>2025-08-03T08:37:38.000Z</time>
</trkpt>
<trkpt lat="45.9594600" lon="10.1696840">
	<ele>1854.60</ele>
	<time>2025-08-03T08:37:39.000Z</time>
</trkpt>
<trkpt lat="45.9594470" lon="10.1696870">
	<ele>1854.60</ele>
	<time>2025-08-03T08:37:40.000Z</time>
</trkpt>
<trkpt lat="45.9594310" lon="10.1696870">
	<ele>1854.60</ele>
	<time>2025-08-03T08:37:41.000Z</time>
</trkpt>
<trkpt lat="45.9594190" lon="10.1696890">
	<ele>1854.60</ele>
	<time>2025-08-03T08:37:42.000Z</time>
</trkpt>
<trkpt lat="45.9594060" lon="10.1696880">
	<ele>1854.60</ele>
	<time>2025-08-03T08:37:43.000Z</time>
</trkpt>
<trkpt lat="45.9593920" lon="10.1697390">
	<ele>1853.20</ele>
	<time>2025-08-03T09:00:50.000Z</time>
</trkpt>
<trkpt lat="45.9594070" lon="10.1697410">
	<ele>1853.20</ele>
	<time>2025-08-03T09:00:51.000Z</time>
</trkpt>
<trkpt lat="45.9594190" lon="10.1697470">
	<ele>1853.20</ele>
	<time>2025-08-03T09:00:52.000Z</time>
</trkpt>
<trkpt lat="45.9594310" lon="10.1697470">
	<ele>1853.20</ele>
	<time>2025-08-03T09:00:53.000Z</time>
</trkpt>
<trkpt lat="45.9594430" lon="10.1697500">
	<ele>1853.20</ele>
	<time>2025-08-03T09:00:54.000Z</time>
</trkpt>
<trkpt lat="45.9594510" lon="10.1697510">
	<ele>1853.20</ele>
	<time>2025-08-03T09:00:55.000Z</time>
</trkpt>
<trkpt lat="45.9594580" lon="10.1697530">
	<ele>1853.20</ele>
	<time>2025-08-03T09:00:56.000Z</time>
</trkpt>
<trkpt lat="45.9594660" lon="10.1697550">
	<ele>1853.00</ele>
	<time>2025-08-03T09:00:57.000Z</time>
</trkpt>
<trkpt lat="45.9594750" lon="10.1697610">
	<ele>1853.00</ele>
	<time>2025-08-03T09:00:58.000Z</time>
</trkpt>
<trkpt lat="45.9594820" lon="10.1697610">
	<ele>1852.80</ele>
	<time>2025-08-03T09:00:59.000Z</time>
</trkpt>
<trkpt lat="45.9594920" lon="10.1697700">
	<ele>1852.80</ele>
	<time>2025-08-03T09:01:00.000Z</time>
</trkpt>
<trkpt lat="45.9594990" lon="10.1697810">
	<ele>1852.60</ele>
	<time>2025-08-03T09:01:01.000Z</time>
</trkpt>
<trkpt lat="45.9595050" lon="10.1697960">
	<ele>1852.40</ele>
	<time>2025-08-03T09:01:02.000Z</time>
</trkpt>
<trkpt lat="45.9595100" lon="10.1698100">
	<ele>1852.20</ele>
	<time>2025-08-03T09:01:03.000Z</time>
</trkpt>
<trkpt lat="45.9595130" lon="10.1698280">
	<ele>1852.00</ele>
	<time>2025-08-03T09:01:04.000Z</time>
</trkpt>
<trkpt lat="45.9595120" lon="10.1698460">
	<ele>1851.60</ele>
	<time>2025-08-03T09:01:05.000Z</time>
</trkpt>
<trkpt lat="45.9595080" lon="10.1698620">
	<ele>1851.20</ele>
	<time>2025-08-03T09:01:06.000Z</time>
</trkpt>
<trkpt lat="45.9595050" lon="10.1698760">
	<ele>1851.20</ele>
	<time>2025-08-03T09:01:07.000Z</time>
</trkpt>
<trkpt lat="45.9594930" lon="10.1698900">
	<ele>1850.60</ele>
	<time>2025-08-03T09:01:08.000Z</time>
</trkpt>
<trkpt lat="45.9594800" lon="10.1699050">
	<ele>1850.40</ele>
	<time>2025-08-03T09:01:09.000Z</time>
</trkpt>
<trkpt lat="45.9594680" lon="10.1699170">
	<ele>1850.20</ele>
	<time>2025-08-03T09:01:10.000Z</time>
</trkpt>
<trkpt lat="45.9594540" lon="10.1699230">
	<ele>1849.80</ele>
	<time>2025-08-03T09:01:11.000Z</time>
</trkpt>
<trkpt lat="45.9594420" lon="10.1699300">
	<ele>1849.60</ele>
	<time>2025-08-03T09:01:12.000Z</time>
</trkpt>
<trkpt lat="45.9594300" lon="10.1699410">
	<ele>1849.40</ele>
	<time>2025-08-03T09:01:13.000Z</time>
</trkpt>
<trkpt lat="45.9594210" lon="10.1699520">
	<ele>1849.20</ele>
	<time>2025-08-03T09:01:14.000Z</time>
</trkpt>
<trkpt lat="45.9594080" lon="10.1699670">
	<ele>1849.00</ele>
	<time>2025-08-03T09:01:15.000Z</time>
</trkpt>
<trkpt lat="45.9593930" lon="10.1699830">
	<ele>1848.80</ele>
	<time>2025-08-03T09:01:16.000Z</time>
</trkpt>
<trkpt lat="45.9593810" lon="10.1699980">
	<ele>1848.60</ele>
	<time>2025-08-03T09:01:17.000Z</time>
</trkpt>
<trkpt lat="45.9593650" lon="10.1700140">
	<ele>1848.40</ele>
	<time>2025-08-03T09:01:18.000Z</time>
</trkpt>
<trkpt lat="45.9593480" lon="10.1700260">
	<ele>1848.20</ele>
	<time>2025-08-03T09:01:19.000Z</time>
</trkpt>
<trkpt lat="45.9593320" lon="10.1700340">
	<ele>1848.00</ele>
	<time>2025-08-03T09:01:20.000Z</time>
</trkpt>
<trkpt lat="45.9593190" lon="10.1700440">
	<ele>1848.00</ele>
	<time>2025-08-03T09:01:21.000Z</time>
</trkpt>
<trkpt lat="45.9593080" lon="10.1700600">
	<ele>1847.80</ele>
	<time>2025-08-03T09:01:22.000Z</time>
</trkpt>
<trkpt lat="45.9592950" lon="10.1700750">
	<ele>1847.60</ele>
	<time>2025-08-03T09:01:23.000Z</time>
</trkpt>
<trkpt lat="45.9592800" lon="10.1700920">
	<ele>1847.40</ele>
	<time>2025-08-03T09:01:24.000Z</time>
</trkpt>
<trkpt lat="45.9592660" lon="10.1701090">
	<ele>1847.20</ele>
	<time>2025-08-03T09:01:25.000Z</time>
</trkpt>
<trkpt lat="45.9592510" lon="10.1701280">
	<ele>1847.00</ele>
	<time>2025-08-03T09:01:26.000Z</time>
</trkpt>
<trkpt lat="45.9592370" lon="10.1701370">
	<ele>1846.80</ele>
	<time>2025-08-03T09:01:27.000Z</time>
</trkpt>
<trkpt lat="45.9592260" lon="10.1701470">
	<ele>1846.60</ele>
	<time>2025-08-03T09:01:28.000Z</time>
</trkpt>
<trkpt lat="45.9592150" lon="10.1701520">
	<ele>1846.40</ele>
	<time>2025-08-03T09:01:29.000Z</time>
</trkpt>
<trkpt lat="45.9592050" lon="10.1701650">
	<ele>1846.40</ele>
	<time>2025-08-03T09:01:30.000Z</time>
</trkpt>
<trkpt lat="45.9591920" lon="10.1701760">
	<ele>1846.20</ele>
	<time>2025-08-03T09:01:31.000Z</time>
</trkpt>
<trkpt lat="45.9591790" lon="10.1701830">
	<ele>1846.00</ele>
	<time>2025-08-03T09:01:32.000Z</time>
</trkpt>
<trkpt lat="45.9591670" lon="10.1701930">
	<ele>1845.80</ele>
	<time>2025-08-03T09:01:33.000Z</time>
</trkpt>
<trkpt lat="45.9591600" lon="10.1702030">
	<ele>1845.60</ele>
	<time>2025-08-03T09:01:34.000Z</time>
</trkpt>
<trkpt lat="45.9591520" lon="10.1702130">
	<ele>1845.40</ele>
	<time>2025-08-03T09:01:35.000Z</time>
</trkpt>
<trkpt lat="45.9591390" lon="10.1702200">
	<ele>1845.20</ele>
	<time>2025-08-03T09:01:36.000Z</time>
</trkpt>
<trkpt lat="45.9591310" lon="10.1702270">
	<ele>1845.00</ele>
	<time>2025-08-03T09:01:37.000Z</time>
</trkpt>
<trkpt lat="45.9591210" lon="10.1702380">
	<ele>1845.00</ele>
	<time>2025-08-03T09:01:38.000Z</time>
</trkpt>
<trkpt lat="45.9591110" lon="10.1702500">
	<ele>1844.80</ele>
	<time>2025-08-03T09:01:39.000Z</time>
</trkpt>
<trkpt lat="45.9591000" lon="10.1702610">
	<ele>1844.40</ele>
	<time>2025-08-03T09:01:40.000Z</time>
</trkpt>
<trkpt lat="45.9590860" lon="10.1702670">
	<ele>1844.20</ele>
	<time>2025-08-03T09:01:41.000Z</time>
</trkpt>
<trkpt lat="45.9590730" lon="10.1702750">
	<ele>1844.20</ele>
	<time>2025-08-03T09:01:42.000Z</time>
</trkpt>
<trkpt lat="45.9590590" lon="10.1702840">
	<ele>1844.00</ele>
	<time>2025-08-03T09:01:43.000Z</time>
</trkpt>
<trkpt lat="45.9590520" lon="10.1702860">
	<ele>1843.80</ele>
	<time>2025-08-03T09:01:44.000Z</time>
</trkpt>
<trkpt lat="45.9590410" lon="10.1702940">
	<ele>1843.80</ele>
	<time>2025-08-03T09:01:45.000Z</time>
</trkpt>
<trkpt lat="45.9590310" lon="10.1702980">
	<ele>1843.60</ele>
	<time>2025-08-03T09:01:46.000Z</time>
</trkpt>
<trkpt lat="45.9590170" lon="10.1703010">
	<ele>1843.40</ele>
	<time>2025-08-03T09:01:47.000Z</time>
</trkpt>
<trkpt lat="45.9590060" lon="10.1702970">
	<ele>1843.00</ele>
	<time>2025-08-03T09:01:48.000Z</time>
</trkpt>
<trkpt lat="45.9589930" lon="10.1703050">
	<ele>1843.00</ele>
	<time>2025-08-03T09:01:49.000Z</time>
</trkpt>
<trkpt lat="45.9589860" lon="10.1703070">
	<ele>1842.80</ele>
	<time>2025-08-03T09:01:50.000Z</time>
</trkpt>
<trkpt lat="45.9589730" lon="10.1702990">
	<ele>1842.60</ele>
	<time>2025-08-03T09:01:51.000Z</time>
</trkpt>
<trkpt lat="45.9589570" lon="10.1702960">
	<ele>1842.60</ele>
	<time>2025-08-03T09:01:52.000Z</time>
</trkpt>
<trkpt lat="45.9589400" lon="10.1703010">
	<ele>1842.40</ele>
	<time>2025-08-03T09:01:53.000Z</time>
</trkpt>
<trkpt lat="45.9589270" lon="10.1703060">
	<ele>1842.20</ele>
	<time>2025-08-03T09:01:54.000Z</time>
</trkpt>
<trkpt lat="45.9589140" lon="10.1703130">
	<ele>1842.00</ele>
	<time>2025-08-03T09:01:55.000Z</time>
</trkpt>
<trkpt lat="45.9589020" lon="10.1703160">
	<ele>1841.60</ele>
	<time>2025-08-03T09:01:56.000Z</time>
</trkpt>
<trkpt lat="45.9588890" lon="10.1703130">
	<ele>1841.40</ele>
	<time>2025-08-03T09:01:57.000Z</time>
</trkpt>
<trkpt lat="45.9588760" lon="10.1703150">
	<ele>1841.40</ele>
	<time>2025-08-03T09:01:58.000Z</time>
</trkpt>
<trkpt lat="45.9588650" lon="10.1703220">
	<ele>1841.20</ele>
	<time>2025-08-03T09:01:59.000Z</time>
</trkpt>
<trkpt lat="45.9588500" lon="10.1703240">
	<ele>1841.00</ele>
	<time>2025-08-03T09:02:00.000Z</time>
</trkpt>
<trkpt lat="45.9588390" lon="10.1703260">
	<ele>1840.80</ele>
	<time>2025-08-03T09:02:01.000Z</time>
</trkpt>
<trkpt lat="45.9588280" lon="10.1703330">
	<ele>1840.60</ele>
	<time>2025-08-03T09:02:02.000Z</time>
</trkpt>
<trkpt lat="45.9588150" lon="10.1703400">
	<ele>1840.40</ele>
	<time>2025-08-03T09:02:03.000Z</time>
</trkpt>
<trkpt lat="45.9588030" lon="10.1703430">
	<ele>1840.00</ele>
	<time>2025-08-03T09:02:04.000Z</time>
</trkpt>
<trkpt lat="45.9587910" lon="10.1703500">
	<ele>1839.80</ele>
	<time>2025-08-03T09:02:05.000Z</time>
</trkpt>
<trkpt lat="45.9587780" lon="10.1703510">
	<ele>1839.60</ele>
	<time>2025-08-03T09:02:06.000Z</time>
</trkpt>
<trkpt lat="45.9587620" lon="10.1703540">
	<ele>1839.40</ele>
	<time>2025-08-03T09:02:07.000Z</time>
</trkpt>
<trkpt lat="45.9587490" lon="10.1703510">
	<ele>1839.20</ele>
	<time>2025-08-03T09:02:08.000Z</time>
</trkpt>
<trkpt lat="45.9587380" lon="10.1703520">
	<ele>1839.00</ele>
	<time>2025-08-03T09:02:09.000Z</time>
</trkpt>
<trkpt lat="45.9587280" lon="10.1703550">
	<ele>1838.80</ele>
	<time>2025-08-03T09:02:10.000Z</time>
</trkpt>
<trkpt lat="45.9587190" lon="10.1703560">
	<ele>1838.80</ele>
	<time>2025-08-03T09:02:11.000Z</time>
</trkpt>
<trkpt lat="45.9587080" lon="10.1703530">
	<ele>1838.60</ele>
	<time>2025-08-03T09:02:12.000Z</time>
</trkpt>
<trkpt lat="45.9586970" lon="10.1703510">
	<ele>1838.40</ele>
	<time>2025-08-03T09:02:13.000Z</time>
</trkpt>
<trkpt lat="45.9586820" lon="10.1703460">
	<ele>1838.20</ele>
	<time>2025-08-03T09:02:14.000Z</time>
</trkpt>
<trkpt lat="45.9586700" lon="10.1703450">
	<ele>1838.20</ele>
	<time>2025-08-03T09:02:15.000Z</time>
</trkpt>
<trkpt lat="45.9586590" lon="10.1703460">
	<ele>1838.00</ele>
	<time>2025-08-03T09:02:16.000Z</time>
</trkpt>
<trkpt lat="45.9586500" lon="10.1703500">
	<ele>1837.80</ele>
	<time>2025-08-03T09:02:17.000Z</time>
</trkpt>
<trkpt lat="45.9586440" lon="10.1703480">
	<ele>1837.60</ele>
	<time>2025-08-03T09:02:18.000Z</time>
</trkpt>
<trkpt lat="45.9586430" lon="10.1703420">
	<ele>1837.60</ele>
	<time>2025-08-03T09:02:19.000Z</time>
</trkpt>
<trkpt lat="45.9586420" lon="10.1703350">
	<ele>1837.60</ele>
	<time>2025-08-03T09:02:20.000Z</time>
</trkpt>
<trkpt lat="45.9586360" lon="10.1703330">
	<ele>1837.40</ele>
	<time>2025-08-03T09:02:21.000Z</time>
</trkpt>
<trkpt lat="45.9586320" lon="10.1703310">
	<ele>1837.40</ele>
	<time>2025-08-03T09:02:22.000Z</time>
</trkpt>
<trkpt lat="45.9586250" lon="10.1703260">
	<ele>1837.20</ele>
	<time>2025-08-03T09:02:23.000Z</time>
</trkpt>
<trkpt lat="45.9586150" lon="10.1703170">
	<ele>1837.00</ele>
	<time>2025-08-03T09:02:24.000Z</time>
</trkpt>
<trkpt lat="45.9586020" lon="10.1703110">
	<ele>1837.00</ele>
	<time>2025-08-03T09:02:25.000Z</time>
</trkpt>
<trkpt lat="45.9585880" lon="10.1703020">
	<ele>1836.80</ele>
	<time>2025-08-03T09:02:26.000Z</time>
</trkpt>
<trkpt lat="45.9585700" lon="10.1702920">
	<ele>1836.80</ele>
	<time>2025-08-03T09:02:27.000Z</time>
</trkpt>
<trkpt lat="45.9585540" lon="10.1702850">
	<ele>1836.80</ele>
	<time>2025-08-03T09:02:28.000Z</time>
</trkpt>
<trkpt lat="45.9585390" lon="10.1702770">
	<ele>1836.80</ele>
	<time>2025-08-03T09:02:29.000Z</time>
</trkpt>
<trkpt lat="45.9585240" lon="10.1702680">
	<ele>1836.60</ele>
	<time>2025-08-03T09:02:30.000Z</time>
</trkpt>
<trkpt lat="45.9585140" lon="10.1702550">
	<ele>1836.40</ele>
	<time>2025-08-03T09:02:31.000Z</time>
</trkpt>
<trkpt lat="45.9585070" lon="10.1702450">
	<ele>1836.20</ele>
	<time>2025-08-03T09:02:32.000Z</time>
</trkpt>
<trkpt lat="45.9584980" lon="10.1702320">
	<ele>1835.80</ele>
	<time>2025-08-03T09:02:33.000Z</time>
</trkpt>
<trkpt lat="45.9584900" lon="10.1702200">
	<ele>1835.80</ele>
	<time>2025-08-03T09:02:34.000Z</time>
</trkpt>
<trkpt lat="45.9584800" lon="10.1702090">
	<ele>1835.60</ele>
	<time>2025-08-03T09:02:35.000Z</time>
</trkpt>
<trkpt lat="45.9584710" lon="10.1701930">
	<ele>1835.20</ele>
	<time>2025-08-03T09:02:36.000Z</time>
</trkpt>
<trkpt lat="45.9584640" lon="10.1701780">
	<ele>1835.00</ele>
	<time>2025-08-03T09:02:37.000Z</time>
</trkpt>
<trkpt lat="45.9584580" lon="10.1701640">
	<ele>1834.80</ele>
	<time>2025-08-03T09:02:38.000Z</time>
</trkpt>
<trkpt lat="45.9584520" lon="10.1701480">
	<ele>1834.40</ele>
	<time>2025-08-03T09:02:39.000Z</time>
</trkpt>
<trkpt lat="45.9584410" lon="10.1701330">
	<ele>1834.20</ele>
	<time>2025-08-03T09:02:40.000Z</time>
</trkpt>
<trkpt lat="45.9584350" lon="10.1701140">
	<ele>1834.00</ele>
	<time>2025-08-03T09:02:41.000Z</time>
</trkpt>
<trkpt lat="45.9584270" lon="10.1700980">
	<ele>1833.60</ele>
	<time>2025-08-03T09:02:42.000Z</time>
</trkpt>
<trkpt lat="45.9584210" lon="10.1700790">
	<ele>1833.40</ele>
	<time>2025-08-03T09:02:43.000Z</time>
</trkpt>
<trkpt lat="45.9584130" lon="10.1700640">
	<ele>1833.20</ele>
	<time>2025-08-03T09:02:44.000Z</time>
</trkpt>
<trkpt lat="45.9584060" lon="10.1700480">
	<ele>1833.00</ele>
	<time>2025-08-03T09:02:45.000Z</time>
</trkpt>
<trkpt lat="45.9583990" lon="10.1700330">
	<ele>1832.60</ele>
	<time>2025-08-03T09:02:46.000Z</time>
</trkpt>
<trkpt lat="45.9583930" lon="10.1700160">
	<ele>1832.40</ele>
	<time>2025-08-03T09:02:47.000Z</time>
</trkpt>
<trkpt lat="45.9583850" lon="10.1699990">
	<ele>1832.20</ele>
	<time>2025-08-03T09:02:48.000Z</time>
</trkpt>
<trkpt lat="45.9583760" lon="10.1699830">
	<ele>1831.80</ele>
	<time>2025-08-03T09:02:49.000Z</time>
</trkpt>
<trkpt lat="45.9583710" lon="10.1699710">
	<ele>1831.60</ele>
	<time>2025-08-03T09:02:50.000Z</time>
</trkpt>
<trkpt lat="45.9583660" lon="10.1699600">
	<ele>1831.20</ele>
	<time>2025-08-03T09:02:51.000Z</time>
</trkpt>
<trkpt lat="45.9583590" lon="10.1699450">
	<ele>1830.80</ele>
	<time>2025-08-03T09:02:52.000Z</time>
</trkpt>
<trkpt lat="45.9583560" lon="10.1699310">
	<ele>1830.60</ele>
	<time>2025-08-03T09:02:53.000Z</time>
</trkpt>
<trkpt lat="45.9583460" lon="10.1699190">
	<ele>1830.20</ele>
	<time>2025-08-03T09:02:54.000Z</time>
</trkpt>
<trkpt lat="45.9583410" lon="10.1699040">
	<ele>1830.00</ele>
	<time>2025-08-03T09:02:55.000Z</time>
</trkpt>
<trkpt lat="45.9583350" lon="10.1698930">
	<ele>1829.80</ele>
	<time>2025-08-03T09:02:56.000Z</time>
</trkpt>
<trkpt lat="45.9583270" lon="10.1698810">
	<ele>1829.60</ele>
	<time>2025-08-03T09:02:57.000Z</time>
</trkpt>
<trkpt lat="45.9583190" lon="10.1698700">
	<ele>1829.00</ele>
	<time>2025-08-03T09:02:58.000Z</time>
</trkpt>
<trkpt lat="45.9583130" lon="10.1698590">
	<ele>1828.80</ele>
	<time>2025-08-03T09:02:59.000Z</time>
</trkpt>
<trkpt lat="45.9583080" lon="10.1698450">
	<ele>1828.60</ele>
	<time>2025-08-03T09:03:00.000Z</time>
</trkpt>
<trkpt lat="45.9583020" lon="10.1698300">
	<ele>1828.40</ele>
	<time>2025-08-03T09:03:01.000Z</time>
</trkpt>
<trkpt lat="45.9582940" lon="10.1698180">
	<ele>1828.20</ele>
	<time>2025-08-03T09:03:02.000Z</time>
</trkpt>
<trkpt lat="45.9582890" lon="10.1698080">
	<ele>1827.80</ele>
	<time>2025-08-03T09:03:03.000Z</time>
</trkpt>
<trkpt lat="45.9582840" lon="10.1697940">
	<ele>1827.40</ele>
	<time>2025-08-03T09:03:04.000Z</time>
</trkpt>
<trkpt lat="45.9582820" lon="10.1697800">
	<ele>1827.00</ele>
	<time>2025-08-03T09:03:05.000Z</time>
</trkpt>
<trkpt lat="45.9582790" lon="10.1697690">
	<ele>1826.80</ele>
	<time>2025-08-03T09:03:06.000Z</time>
</trkpt>
<trkpt lat="45.9582760" lon="10.1697580">
	<ele>1826.60</ele>
	<time>2025-08-03T09:03:07.000Z</time>
</trkpt>
<trkpt lat="45.9582750" lon="10.1697540">
	<ele>1826.80</ele>
	<time>2025-08-03T09:03:08.000Z</time>
</trkpt>
<trkpt lat="45.9582750" lon="10.1697490">
	<ele>1826.60</ele>
	<time>2025-08-03T09:03:09.000Z</time>
</trkpt>
<trkpt lat="45.9582740" lon="10.1697430">
	<ele>1826.60</ele>
	<time>2025-08-03T09:03:10.000Z</time>
</trkpt>
<trkpt lat="45.9582670" lon="10.1697350">
	<ele>1826.60</ele>
	<time>2025-08-03T09:03:11.000Z</time>
</trkpt>
<trkpt lat="45.9582600" lon="10.1697360">
	<ele>1826.40</ele>
	<time>2025-08-03T09:03:12.000Z</time>
</trkpt>
<trkpt lat="45.9582510" lon="10.1697420">
	<ele>1826.20</ele>
	<time>2025-08-03T09:03:13.000Z</time>
</trkpt>
<trkpt lat="45.9582400" lon="10.1697430">
	<ele>1826.00</ele>
	<time>2025-08-03T09:03:14.000Z</time>
</trkpt>
<trkpt lat="45.9582290" lon="10.1697460">
	<ele>1826.00</ele>
	<time>2025-08-03T09:03:15.000Z</time>
</trkpt>
<trkpt lat="45.9582210" lon="10.1697480">
	<ele>1825.80</ele>
	<time>2025-08-03T09:03:16.000Z</time>
</trkpt>
<trkpt lat="45.9582160" lon="10.1697580">
	<ele>1825.80</ele>
	<time>2025-08-03T09:03:17.000Z</time>
</trkpt>
<trkpt lat="45.9582140" lon="10.1697670">
	<ele>1825.80</ele>
	<time>2025-08-03T09:03:18.000Z</time>
</trkpt>
<trkpt lat="45.9582110" lon="10.1697730">
	<ele>1825.60</ele>
	<time>2025-08-03T09:03:19.000Z</time>
</trkpt>
<trkpt lat="45.9582050" lon="10.1697720">
	<ele>1825.40</ele>
	<time>2025-08-03T09:03:20.000Z</time>
</trkpt>
<trkpt lat="45.9582020" lon="10.1697690">
	<ele>1825.40</ele>
	<time>2025-08-03T09:03:21.000Z</time>
</trkpt>
<trkpt lat="45.9582010" lon="10.1697640">
	<ele>1825.20</ele>
	<time>2025-08-03T09:03:22.000Z</time>
</trkpt>
<trkpt lat="45.9581970" lon="10.1697650">
	<ele>1825.20</ele>
	<time>2025-08-03T09:03:23.000Z</time>
</trkpt>
<trkpt lat="45.9581960" lon="10.1697680">
	<ele>1825.20</ele>
	<time>2025-08-03T09:03:24.000Z</time>
</trkpt>
<trkpt lat="45.9581980" lon="10.1697720">
	<ele>1825.20</ele>
	<time>2025-08-03T09:03:25.000Z</time>
</trkpt>
<trkpt lat="45.9582000" lon="10.1697710">
	<ele>1825.40</ele>
	<time>2025-08-03T09:03:26.000Z</time>
</trkpt>
<trkpt lat="45.9582010" lon="10.1697630">
	<ele>1825.60</ele>
	<time>2025-08-03T09:03:27.000Z</time>
</trkpt>
<trkpt lat="45.9582010" lon="10.1697540">
	<ele>1825.60</ele>
	<time>2025-08-03T09:03:28.000Z</time>
</trkpt>
<trkpt lat="45.9581990" lon="10.1697520">
	<ele>1825.80</ele>
	<time>2025-08-03T09:03:29.000Z</time>
</trkpt>
<trkpt lat="45.9581980" lon="10.1697510">
	<ele>1825.80</ele>
	<time>2025-08-03T09:03:30.000Z</time>
</trkpt>
<trkpt lat="45.9582000" lon="10.1697540">
	<ele>1825.80</ele>
	<time>2025-08-03T09:03:31.000Z</time>
</trkpt>
<trkpt lat="45.9582030" lon="10.1697620">
	<ele>1825.80</ele>
	<time>2025-08-03T09:03:32.000Z</time>
</trkpt>
<trkpt lat="45.9582070" lon="10.1697740">
	<ele>1825.60</ele>
	<time>2025-08-03T09:03:33.000Z</time>
</trkpt>
<trkpt lat="45.9582080" lon="10.1697910">
	<ele>1825.20</ele>
	<time>2025-08-03T09:03:34.000Z</time>
</trkpt>
<trkpt lat="45.9582100" lon="10.1698090">
	<ele>1825.00</ele>
	<time>2025-08-03T09:03:35.000Z</time>
</trkpt>
<trkpt lat="45.9582110" lon="10.1698240">
	<ele>1824.60</ele>
	<time>2025-08-03T09:03:36.000Z</time>
</trkpt>
<trkpt lat="45.9582120" lon="10.1698470">
	<ele>1824.40</ele>
	<time>2025-08-03T09:03:37.000Z</time>
</trkpt>
<trkpt lat="45.9582130" lon="10.1698620">
	<ele>1824.40</ele>
	<time>2025-08-03T09:03:38.000Z</time>
</trkpt>
<trkpt lat="45.9582130" lon="10.1698860">
	<ele>1824.20</ele>
	<time>2025-08-03T09:03:39.000Z</time>
</trkpt>
<trkpt lat="45.9582100" lon="10.1699120">
	<ele>1824.00</ele>
	<time>2025-08-03T09:03:40.000Z</time>
</trkpt>
<trkpt lat="45.9582080" lon="10.1699340">
	<ele>1823.80</ele>
	<time>2025-08-03T09:03:41.000Z</time>
</trkpt>
<trkpt lat="45.9582070" lon="10.1699500">
	<ele>1823.60</ele>
	<time>2025-08-03T09:03:42.000Z</time>
</trkpt>
<trkpt lat="45.9582080" lon="10.1699690">
	<ele>1823.20</ele>
	<time>2025-08-03T09:03:43.000Z</time>
</trkpt>
<trkpt lat="45.9582080" lon="10.1699870">
	<ele>1823.00</ele>
	<time>2025-08-03T09:03:44.000Z</time>
</trkpt>
<trkpt lat="45.9582070" lon="10.1700070">
	<ele>1823.00</ele>
	<time>2025-08-03T09:03:45.000Z</time>
</trkpt>
<trkpt lat="45.9582070" lon="10.1700260">
	<ele>1822.80</ele>
	<time>2025-08-03T09:03:46.000Z</time>
</trkpt>
<trkpt lat="45.9582060" lon="10.1700420">
	<ele>1822.80</ele>
	<time>2025-08-03T09:03:47.000Z</time>
</trkpt>
<trkpt lat="45.9582060" lon="10.1700560">
	<ele>1822.60</ele>
	<time>2025-08-03T09:03:48.000Z</time>
</trkpt>
<trkpt lat="45.9582080" lon="10.1700720">
	<ele>1822.60</ele>
	<time>2025-08-03T09:03:49.000Z</time>
</trkpt>
<trkpt lat="45.9582100" lon="10.1700900">
	<ele>1822.40</ele>
	<time>2025-08-03T09:03:50.000Z</time>
</trkpt>
<trkpt lat="45.9582090" lon="10.1701090">
	<ele>1822.40</ele>
	<time>2025-08-03T09:03:51.000Z</time>
</trkpt>
<trkpt lat="45.9582070" lon="10.1701330">
	<ele>1822.20</ele>
	<time>2025-08-03T09:03:52.000Z</time>
</trkpt>
<trkpt lat="45.9582040" lon="10.1701530">
	<ele>1822.20</ele>
	<time>2025-08-03T09:03:53.000Z</time>
</trkpt>
<trkpt lat="45.9582050" lon="10.1701770">
	<ele>1822.20</ele>
	<time>2025-08-03T09:03:54.000Z</time>
</trkpt>
<trkpt lat="45.9582040" lon="10.1702010">
	<ele>1822.00</ele>
	<time>2025-08-03T09:03:55.000Z</time>
</trkpt>
<trkpt lat="45.9582010" lon="10.1702210">
	<ele>1822.00</ele>
	<time>2025-08-03T09:03:56.000Z</time>
</trkpt>
<trkpt lat="45.9581980" lon="10.1702420">
	<ele>1822.00</ele>
	<time>2025-08-03T09:03:57.000Z</time>
</trkpt>
<trkpt lat="45.9581940" lon="10.1702650">
	<ele>1822.00</ele>
	<time>2025-08-03T09:03:58.000Z</time>
</trkpt>
<trkpt lat="45.9581900" lon="10.1702890">
	<ele>1822.00</ele>
	<time>2025-08-03T09:03:59.000Z</time>
</trkpt>
<trkpt lat="45.9581850" lon="10.1703130">
	<ele>1821.80</ele>
	<time>2025-08-03T09:04:00.000Z</time>
</trkpt>
<trkpt lat="45.9581830" lon="10.1703300">
	<ele>1821.80</ele>
	<time>2025-08-03T09:04:01.000Z</time>
</trkpt>
<trkpt lat="45.9581830" lon="10.1703520">
	<ele>1821.60</ele>
	<time>2025-08-03T09:04:02.000Z</time>
</trkpt>
<trkpt lat="45.9581840" lon="10.1703770">
	<ele>1821.60</ele>
	<time>2025-08-03T09:04:03.000Z</time>
</trkpt>
<trkpt lat="45.9581850" lon="10.1703980">
	<ele>1821.60</ele>
	<time>2025-08-03T09:04:04.000Z</time>
</trkpt>
<trkpt lat="45.9581850" lon="10.1704180">
	<ele>1821.40</ele>
	<time>2025-08-03T09:04:05.000Z</time>
</trkpt>
<trkpt lat="45.9581840" lon="10.1704390">
	<ele>1821.40</ele>
	<time>2025-08-03T09:04:06.000Z</time>
</trkpt>
<trkpt lat="45.9581850" lon="10.1704540">
	<ele>1821.20</ele>
	<time>2025-08-03T09:04:07.000Z</time>
</trkpt>
<trkpt lat="45.9581890" lon="10.1704730">
	<ele>1821.20</ele>
	<time>2025-08-03T09:04:08.000Z</time>
</trkpt>
<trkpt lat="45.9581910" lon="10.1704920">
	<ele>1821.00</ele>
	<time>2025-08-03T09:04:09.000Z</time>
</trkpt>
<trkpt lat="45.9581930" lon="10.1705140">
	<ele>1820.80</ele>
	<time>2025-08-03T09:04:10.000Z</time>
</trkpt>
<trkpt lat="45.9581920" lon="10.1705400">
	<ele>1820.60</ele>
	<time>2025-08-03T09:04:11.000Z</time>
</trkpt>
<trkpt lat="45.9581940" lon="10.1705600">
	<ele>1820.40</ele>
	<time>2025-08-03T09:04:12.000Z</time>
</trkpt>
<trkpt lat="45.9581940" lon="10.1705780">
	<ele>1820.20</ele>
	<time>2025-08-03T09:04:13.000Z</time>
</trkpt>
<trkpt lat="45.9581980" lon="10.1705920">
	<ele>1820.00</ele>
	<time>2025-08-03T09:04:14.000Z</time>
</trkpt>
<trkpt lat="45.9582010" lon="10.1706050">
	<ele>1819.80</ele>
	<time>2025-08-03T09:04:15.000Z</time>
</trkpt>
<trkpt lat="45.9582030" lon="10.1706130">
	<ele>1819.60</ele>
	<time>2025-08-03T09:04:16.000Z</time>
</trkpt>
<trkpt lat="45.9582050" lon="10.1706160">
	<ele>1819.60</ele>
	<time>2025-08-03T09:04:17.000Z</time>
</trkpt>
<trkpt lat="45.9582070" lon="10.1706160">
	<ele>1819.40</ele>
	<time>2025-08-03T09:04:18.000Z</time>
</trkpt>
<trkpt lat="45.9582080" lon="10.1706150">
	<ele>1819.40</ele>
	<time>2025-08-03T09:04:19.000Z</time>
</trkpt>
<trkpt lat="45.9582090" lon="10.1706160">
	<ele>1819.60</ele>
	<time>2025-08-03T09:04:20.000Z</time>
</trkpt>
<trkpt lat="45.9582100" lon="10.1706180">
	<ele>1819.80</ele>
	<time>2025-08-03T09:04:21.000Z</time>
</trkpt>
<trkpt lat="45.9582090" lon="10.1706190">
	<ele>1819.80</ele>
	<time>2025-08-03T09:04:22.000Z</time>
</trkpt>
<trkpt lat="45.9582080" lon="10.1706210">
	<ele>1819.80</ele>
	<time>2025-08-03T09:04:23.000Z</time>
</trkpt>
<trkpt lat="45.9582100" lon="10.1706340">
	<ele>1819.80</ele>
	<time>2025-08-03T09:04:24.000Z</time>
</trkpt>
<trkpt lat="45.9582110" lon="10.1706500">
	<ele>1819.80</ele>
	<time>2025-08-03T09:04:25.000Z</time>
</trkpt>
<trkpt lat="45.9582110" lon="10.1706710">
	<ele>1819.60</ele>
	<time>2025-08-03T09:04:26.000Z</time>
</trkpt>
<trkpt lat="45.9582160" lon="10.1706940">
	<ele>1819.20</ele>
	<time>2025-08-03T09:04:27.000Z</time>
</trkpt>
<trkpt lat="45.9582190" lon="10.1707120">
	<ele>1819.00</ele>
	<time>2025-08-03T09:04:28.000Z</time>
</trkpt>
<trkpt lat="45.9582210" lon="10.1707300">
	<ele>1818.80</ele>
	<time>2025-08-03T09:04:29.000Z</time>
</trkpt>
<trkpt lat="45.9582250" lon="10.1707480">
	<ele>1818.60</ele>
	<time>2025-08-03T09:04:30.000Z</time>
</trkpt>
<trkpt lat="45.9582300" lon="10.1707620">
	<ele>1818.40</ele>
	<time>2025-08-03T09:04:31.000Z</time>
</trkpt>
<trkpt lat="45.9582370" lon="10.1707760">
	<ele>1818.20</ele>
	<time>2025-08-03T09:04:32.000Z</time>
</trkpt>
<trkpt lat="45.9582430" lon="10.1707920">
	<ele>1818.00</ele>
	<time>2025-08-03T09:04:33.000Z</time>
</trkpt>
<trkpt lat="45.9582500" lon="10.1708070">
	<ele>1818.00</ele>
	<time>2025-08-03T09:04:34.000Z</time>
</trkpt>
<trkpt lat="45.9582540" lon="10.1708240">
	<ele>1817.80</ele>
	<time>2025-08-03T09:04:35.000Z</time>
</trkpt>
<trkpt lat="45.9582560" lon="10.1708420">
	<ele>1817.60</ele>
	<time>2025-08-03T09:04:36.000Z</time>
</trkpt>
<trkpt lat="45.9582620" lon="10.1708640">
	<ele>1817.40</ele>
	<time>2025-08-03T09:04:37.000Z</time>
</trkpt>
<trkpt lat="45.9582680" lon="10.1708780">
	<ele>1817.20</ele>
	<time>2025-08-03T09:04:38.000Z</time>
</trkpt>
<trkpt lat="45.9582720" lon="10.1708950">
	<ele>1817.00</ele>
	<time>2025-08-03T09:04:39.000Z</time>
</trkpt>
<trkpt lat="45.9582730" lon="10.1709140">
	<ele>1817.00</ele>
	<time>2025-08-03T09:04:40.000Z</time>
</trkpt>
<trkpt lat="45.9582830" lon="10.1709370">
	<ele>1816.80</ele>
	<time>2025-08-03T09:04:41.000Z</time>
</trkpt>
<trkpt lat="45.9582890" lon="10.1709520">
	<ele>1816.80</ele>
	<time>2025-08-03T09:04:42.000Z</time>
</trkpt>
<trkpt lat="45.9582980" lon="10.1709660">
	<ele>1816.60</ele>
	<time>2025-08-03T09:04:43.000Z</time>
</trkpt>
<trkpt lat="45.9583040" lon="10.1709820">
	<ele>1816.60</ele>
	<time>2025-08-03T09:04:44.000Z</time>
</trkpt>
<trkpt lat="45.9583080" lon="10.1710110">
	<ele>1816.40</ele>
	<time>2025-08-03T09:04:45.000Z</time>
</trkpt>
<trkpt lat="45.9583110" lon="10.1710300">
	<ele>1816.20</ele>
	<time>2025-08-03T09:04:46.000Z</time>
</trkpt>
<trkpt lat="45.9583160" lon="10.1710540">
	<ele>1816.20</ele>
	<time>2025-08-03T09:04:47.000Z</time>
</trkpt>
<trkpt lat="45.9583210" lon="10.1710700">
	<ele>1816.00</ele>
	<time>2025-08-03T09:04:48.000Z</time>
</trkpt>
<trkpt lat="45.9583260" lon="10.1710790">
	<ele>1815.80</ele>
	<time>2025-08-03T09:04:49.000Z</time>
</trkpt>
<trkpt lat="45.9583350" lon="10.1710910">
	<ele>1815.60</ele>
	<time>2025-08-03T09:04:50.000Z</time>
</trkpt>
<trkpt lat="45.9583410" lon="10.1711060">
	<ele>1815.60</ele>
	<time>2025-08-03T09:04:51.000Z</time>
</trkpt>
<trkpt lat="45.9583470" lon="10.1711180">
	<ele>1815.60</ele>
	<time>2025-08-03T09:04:52.000Z</time>
</trkpt>
<trkpt lat="45.9583550" lon="10.1711350">
	<ele>1815.60</ele>
	<time>2025-08-03T09:04:53.000Z</time>
</trkpt>
<trkpt lat="45.9583600" lon="10.1711510">
	<ele>1815.40</ele>
	<time>2025-08-03T09:04:54.000Z</time>
</trkpt>
<trkpt lat="45.9583630" lon="10.1711720">
	<ele>1815.40</ele>
	<time>2025-08-03T09:04:55.000Z</time>
</trkpt>
<trkpt lat="45.9583690" lon="10.1711960">
	<ele>1815.20</ele>
	<time>2025-08-03T09:04:56.000Z</time>
</trkpt>
<trkpt lat="45.9583750" lon="10.1712110">
	<ele>1815.20</ele>
	<time>2025-08-03T09:04:57.000Z</time>
</trkpt>
<trkpt lat="45.9583840" lon="10.1712310">
	<ele>1815.00</ele>
	<time>2025-08-03T09:04:58.000Z</time>
</trkpt>
<trkpt lat="45.9583920" lon="10.1712380">
	<ele>1814.80</ele>
	<time>2025-08-03T09:04:59.000Z</time>
</trkpt>
<trkpt lat="45.9584020" lon="10.1712620">
	<ele>1814.80</ele>
	<time>2025-08-03T09:05:00.000Z</time>
</trkpt>
<trkpt lat="45.9584090" lon="10.1712780">
	<ele>1814.60</ele>
	<time>2025-08-03T09:05:01.000Z</time>
</trkpt>
<trkpt lat="45.9584220" lon="10.1712940">
	<ele>1814.60</ele>
	<time>2025-08-03T09:05:02.000Z</time>
</trkpt>
<trkpt lat="45.9584350" lon="10.1713080">
	<ele>1814.40</ele>
	<time>2025-08-03T09:05:03.000Z</time>
</trkpt>
<trkpt lat="45.9584480" lon="10.1713140">
	<ele>1814.20</ele>
	<time>2025-08-03T09:05:04.000Z</time>
</trkpt>
<trkpt lat="45.9584570" lon="10.1713150">
	<ele>1814.20</ele>
	<time>2025-08-03T09:05:05.000Z</time>
</trkpt>
<trkpt lat="45.9584630" lon="10.1713170">
	<ele>1814.00</ele>
	<time>2025-08-03T09:05:06.000Z</time>
</trkpt>
<trkpt lat="45.9584710" lon="10.1713090">
	<ele>1814.00</ele>
	<time>2025-08-03T09:05:07.000Z</time>
</trkpt>
<trkpt lat="45.9584750" lon="10.1713050">
	<ele>1813.60</ele>
	<time>2025-08-03T09:05:08.000Z</time>
</trkpt>
<trkpt lat="45.9584810" lon="10.1713120">
	<ele>1813.60</ele>
	<time>2025-08-03T09:05:09.000Z</time>
</trkpt>
<trkpt lat="45.9584910" lon="10.1713210">
	<ele>1813.40</ele>
	<time>2025-08-03T09:05:10.000Z</time>
</trkpt>
<trkpt lat="45.9585070" lon="10.1713330">
	<ele>1813.20</ele>
	<time>2025-08-03T09:05:11.000Z</time>
</trkpt>
<trkpt lat="45.9585210" lon="10.1713390">
	<ele>1812.80</ele>
	<time>2025-08-03T09:05:12.000Z</time>
</trkpt>
<trkpt lat="45.9585360" lon="10.1713480">
	<ele>1812.80</ele>
	<time>2025-08-03T09:05:13.000Z</time>
</trkpt>
<trkpt lat="45.9585540" lon="10.1713500">
	<ele>1812.60</ele>
	<time>2025-08-03T09:05:14.000Z</time>
</trkpt>
<trkpt lat="45.9585690" lon="10.1713560">
	<ele>1812.40</ele>
	<time>2025-08-03T09:05:15.000Z</time>
</trkpt>
<trkpt lat="45.9585850" lon="10.1713600">
	<ele>1812.20</ele>
	<time>2025-08-03T09:05:16.000Z</time>
</trkpt>
<trkpt lat="45.9585960" lon="10.1713680">
	<ele>1812.20</ele>
	<time>2025-08-03T09:05:17.000Z</time>
</trkpt>
<trkpt lat="45.9586110" lon="10.1713730">
	<ele>1811.80</ele>
	<time>2025-08-03T09:05:18.000Z</time>
</trkpt>
<trkpt lat="45.9586250" lon="10.1713830">
	<ele>1811.60</ele>
	<time>2025-08-03T09:05:19.000Z</time>
</trkpt>
<trkpt lat="45.9586340" lon="10.1713890">
	<ele>1811.40</ele>
	<time>2025-08-03T09:05:20.000Z</time>
</trkpt>
<trkpt lat="45.9586500" lon="10.1714060">
	<ele>1811.20</ele>
	<time>2025-08-03T09:05:21.000Z</time>
</trkpt>
<trkpt lat="45.9586630" lon="10.1714180">
	<ele>1811.00</ele>
	<time>2025-08-03T09:05:22.000Z</time>
</trkpt>
<trkpt lat="45.9586760" lon="10.1714280">
	<ele>1810.80</ele>
	<time>2025-08-03T09:05:23.000Z</time>
</trkpt>
<trkpt lat="45.9586890" lon="10.1714320">
	<ele>1810.60</ele>
	<time>2025-08-03T09:05:24.000Z</time>
</trkpt>
<trkpt lat="45.9587020" lon="10.1714390">
	<ele>1810.60</ele>
	<time>2025-08-03T09:05:25.000Z</time>
</trkpt>
<trkpt lat="45.9587150" lon="10.1714460">
	<ele>1810.40</ele>
	<time>2025-08-03T09:05:26.000Z</time>
</trkpt>
<trkpt lat="45.9587290" lon="10.1714510">
	<ele>1810.20</ele>
	<time>2025-08-03T09:05:27.000Z</time>
</trkpt>
<trkpt lat="45.9587450" lon="10.1714560">
	<ele>1809.80</ele>
	<time>2025-08-03T09:05:28.000Z</time>
</trkpt>
<trkpt lat="45.9587600" lon="10.1714590">
	<ele>1809.40</ele>
	<time>2025-08-03T09:05:29.000Z</time>
</trkpt>
<trkpt lat="45.9587740" lon="10.1714620">
	<ele>1809.20</ele>
	<time>2025-08-03T09:05:30.000Z</time>
</trkpt>
<trkpt lat="45.9587890" lon="10.1714610">
	<ele>1808.80</ele>
	<time>2025-08-03T09:05:31.000Z</time>
</trkpt>
<trkpt lat="45.9588020" lon="10.1714610">
	<ele>1808.60</ele>
	<time>2025-08-03T09:05:32.000Z</time>
</trkpt>
<trkpt lat="45.9588150" lon="10.1714630">
	<ele>1808.40</ele>
	<time>2025-08-03T09:05:33.000Z</time>
</trkpt>
<trkpt lat="45.9588250" lon="10.1714680">
	<ele>1808.20</ele>
	<time>2025-08-03T09:05:34.000Z</time>
</trkpt>
<trkpt lat="45.9588320" lon="10.1714700">
	<ele>1808.00</ele>
	<time>2025-08-03T09:05:35.000Z</time>
</trkpt>
<trkpt lat="45.9588340" lon="10.1714730">
	<ele>1807.80</ele>
	<time>2025-08-03T09:05:36.000Z</time>
</trkpt>
<trkpt lat="45.9588360" lon="10.1714740">
	<ele>1807.60</ele>
	<time>2025-08-03T09:05:37.000Z</time>
</trkpt>
<trkpt lat="45.9588390" lon="10.1714740">
	<ele>1807.60</ele>
	<time>2025-08-03T09:05:38.000Z</time>
</trkpt>
<trkpt lat="45.9588400" lon="10.1714740">
	<ele>1807.60</ele>
	<time>2025-08-03T09:05:39.000Z</time>
</trkpt>
<trkpt lat="45.9588400" lon="10.1714730">
	<ele>1807.60</ele>
	<time>2025-08-03T09:05:40.000Z</time>
</trkpt>
<trkpt lat="45.9588410" lon="10.1714710">
	<ele>1807.60</ele>
	<time>2025-08-03T09:05:41.000Z</time>
</trkpt>
<trkpt lat="45.9588410" lon="10.1714710">
	<ele>1807.60</ele>
	<time>2025-08-03T09:05:42.000Z</time>
</trkpt>
<trkpt lat="45.9588400" lon="10.1714710">
	<ele>1807.80</ele>
	<time>2025-08-03T09:05:43.000Z</time>
</trkpt>
<trkpt lat="45.9588400" lon="10.1714700">
	<ele>1807.80</ele>
	<time>2025-08-03T09:05:44.000Z</time>
</trkpt>
<trkpt lat="45.9588380" lon="10.1714790">
	<ele>1808.00</ele>
	<time>2025-08-03T09:05:45.000Z</time>
</trkpt>
<trkpt lat="45.9588380" lon="10.1714900">
	<ele>1808.00</ele>
	<time>2025-08-03T09:05:46.000Z</time>
</trkpt>
<trkpt lat="45.9588300" lon="10.1715030">
	<ele>1807.60</ele>
	<time>2025-08-03T09:05:47.000Z</time>
</trkpt>
<trkpt lat="45.9588160" lon="10.1715100">
	<ele>1807.40</ele>
	<time>2025-08-03T09:05:48.000Z</time>
</trkpt>
<trkpt lat="45.9588010" lon="10.1715130">
	<ele>1807.20</ele>
	<time>2025-08-03T09:05:49.000Z</time>
</trkpt>
<trkpt lat="45.9587870" lon="10.1715190">
	<ele>1807.00</ele>
	<time>2025-08-03T09:05:50.000Z</time>
</trkpt>
<trkpt lat="45.9587720" lon="10.1715200">
	<ele>1807.00</ele>
	<time>2025-08-03T09:05:51.000Z</time>
</trkpt>
<trkpt lat="45.9587590" lon="10.1715220">
	<ele>1806.80</ele>
	<time>2025-08-03T09:05:52.000Z</time>
</trkpt>
<trkpt lat="45.9587440" lon="10.1715270">
	<ele>1806.60</ele>
	<time>2025-08-03T09:05:53.000Z</time>
</trkpt>
<trkpt lat="45.9587300" lon="10.1715320">
	<ele>1806.40</ele>
	<time>2025-08-03T09:05:54.000Z</time>
</trkpt>
<trkpt lat="45.9587180" lon="10.1715400">
	<ele>1806.00</ele>
	<time>2025-08-03T09:05:55.000Z</time>
</trkpt>
<trkpt lat="45.9587030" lon="10.1715450">
	<ele>1805.80</ele>
	<time>2025-08-03T09:05:56.000Z</time>
</trkpt>
<trkpt lat="45.9586900" lon="10.1715500">
	<ele>1805.80</ele>
	<time>2025-08-03T09:05:57.000Z</time>
</trkpt>
<trkpt lat="45.9586750" lon="10.1715560">
	<ele>1805.60</ele>
	<time>2025-08-03T09:05:58.000Z</time>
</trkpt>
<trkpt lat="45.9586620" lon="10.1715600">
	<ele>1805.60</ele>
	<time>2025-08-03T09:05:59.000Z</time>
</trkpt>
<trkpt lat="45.9586520" lon="10.1715650">
	<ele>1805.20</ele>
	<time>2025-08-03T09:06:00.000Z</time>
</trkpt>
<trkpt lat="45.9586400" lon="10.1715690">
	<ele>1805.00</ele>
	<time>2025-08-03T09:06:01.000Z</time>
</trkpt>
<trkpt lat="45.9586260" lon="10.1715690">
	<ele>1804.80</ele>
	<time>2025-08-03T09:06:02.000Z</time>
</trkpt>
<trkpt lat="45.9586120" lon="10.1715670">
	<ele>1804.80</ele>
	<time>2025-08-03T09:06:03.000Z</time>
</trkpt>
<trkpt lat="45.9585930" lon="10.1715680">
	<ele>1804.80</ele>
	<time>2025-08-03T09:06:04.000Z</time>
</trkpt>
<trkpt lat="45.9585740" lon="10.1715710">
	<ele>1805.00</ele>
	<time>2025-08-03T09:06:05.000Z</time>
</trkpt>
<trkpt lat="45.9585580" lon="10.1715700">
	<ele>1805.00</ele>
	<time>2025-08-03T09:06:06.000Z</time>
</trkpt>
<trkpt lat="45.9585410" lon="10.1715660">
	<ele>1805.20</ele>
	<time>2025-08-03T09:06:07.000Z</time>
</trkpt>
<trkpt lat="45.9585230" lon="10.1715640">
	<ele>1805.20</ele>
	<time>2025-08-03T09:06:08.000Z</time>
</trkpt>
<trkpt lat="45.9585050" lon="10.1715610">
	<ele>1805.20</ele>
	<time>2025-08-03T09:06:09.000Z</time>
</trkpt>
<trkpt lat="45.9584870" lon="10.1715610">
	<ele>1805.20</ele>
	<time>2025-08-03T09:06:10.000Z</time>
</trkpt>
<trkpt lat="45.9584720" lon="10.1715640">
	<ele>1805.00</ele>
	<time>2025-08-03T09:06:11.000Z</time>
</trkpt>
<trkpt lat="45.9584600" lon="10.1715630">
	<ele>1805.00</ele>
	<time>2025-08-03T09:06:12.000Z</time>
</trkpt>
<trkpt lat="45.9584440" lon="10.1715580">
	<ele>1805.00</ele>
	<time>2025-08-03T09:06:13.000Z</time>
</trkpt>
<trkpt lat="45.9584270" lon="10.1715560">
	<ele>1804.80</ele>
	<time>2025-08-03T09:06:14.000Z</time>
</trkpt>
<trkpt lat="45.9584110" lon="10.1715520">
	<ele>1804.80</ele>
	<time>2025-08-03T09:06:15.000Z</time>
</trkpt>
<trkpt lat="45.9583940" lon="10.1715500">
	<ele>1804.60</ele>
	<time>2025-08-03T09:06:16.000Z</time>
</trkpt>
<trkpt lat="45.9583740" lon="10.1715480">
	<ele>1804.40</ele>
	<time>2025-08-03T09:06:17.000Z</time>
</trkpt>
<trkpt lat="45.9583590" lon="10.1715430">
	<ele>1804.40</ele>
	<time>2025-08-03T09:06:18.000Z</time>
</trkpt>
<trkpt lat="45.9583450" lon="10.1715410">
	<ele>1804.20</ele>
	<time>2025-08-03T09:06:19.000Z</time>
</trkpt>
<trkpt lat="45.9583310" lon="10.1715350">
	<ele>1804.00</ele>
	<time>2025-08-03T09:06:20.000Z</time>
</trkpt>
<trkpt lat="45.9583130" lon="10.1715300">
	<ele>1803.80</ele>
	<time>2025-08-03T09:06:21.000Z</time>
</trkpt>
<trkpt lat="45.9582980" lon="10.1715310">
	<ele>1803.60</ele>
	<time>2025-08-03T09:06:22.000Z</time>
</trkpt>
<trkpt lat="45.9582860" lon="10.1715300">
	<ele>1803.40</ele>
	<time>2025-08-03T09:06:23.000Z</time>
</trkpt>
<trkpt lat="45.9582700" lon="10.1715240">
	<ele>1803.40</ele>
	<time>2025-08-03T09:06:24.000Z</time>
</trkpt>
<trkpt lat="45.9582510" lon="10.1715170">
	<ele>1803.20</ele>
	<time>2025-08-03T09:06:25.000Z</time>
</trkpt>
<trkpt lat="45.9582390" lon="10.1715100">
	<ele>1803.00</ele>
	<time>2025-08-03T09:06:26.000Z</time>
</trkpt>
<trkpt lat="45.9582250" lon="10.1715010">
	<ele>1803.00</ele>
	<time>2025-08-03T09:06:27.000Z</time>
</trkpt>
<trkpt lat="45.9582110" lon="10.1714910">
	<ele>1802.80</ele>
	<time>2025-08-03T09:06:28.000Z</time>
</trkpt>
<trkpt lat="45.9581970" lon="10.1714770">
	<ele>1802.80</ele>
	<time>2025-08-03T09:06:29.000Z</time>
</trkpt>
<trkpt lat="45.9581800" lon="10.1714600">
	<ele>1802.60</ele>
	<time>2025-08-03T09:06:30.000Z</time>
</trkpt>
<trkpt lat="45.9581680" lon="10.1714440">
	<ele>1802.40</ele>
	<time>2025-08-03T09:06:31.000Z</time>
</trkpt>
<trkpt lat="45.9581600" lon="10.1714220">
	<ele>1802.20</ele>
	<time>2025-08-03T09:06:32.000Z</time>
</trkpt>
<trkpt lat="45.9581480" lon="10.1714050">
	<ele>1802.00</ele>
	<time>2025-08-03T09:06:33.000Z</time>
</trkpt>
<trkpt lat="45.9581370" lon="10.1713860">
	<ele>1801.80</ele>
	<time>2025-08-03T09:06:34.000Z</time>
</trkpt>
<trkpt lat="45.9581240" lon="10.1713700">
	<ele>1801.60</ele>
	<time>2025-08-03T09:06:35.000Z</time>
</trkpt>
<trkpt lat="45.9581110" lon="10.1713580">
	<ele>1801.60</ele>
	<time>2025-08-03T09:06:36.000Z</time>
</trkpt>
<trkpt lat="45.9580990" lon="10.1713430">
	<ele>1801.40</ele>
	<time>2025-08-03T09:06:37.000Z</time>
</trkpt>
<trkpt lat="45.9580890" lon="10.1713260">
	<ele>1801.20</ele>
	<time>2025-08-03T09:06:38.000Z</time>
</trkpt>
<trkpt lat="45.9580760" lon="10.1713150">
	<ele>1801.20</ele>
	<time>2025-08-03T09:06:39.000Z</time>
</trkpt>
<trkpt lat="45.9580630" lon="10.1713050">
	<ele>1801.00</ele>
	<time>2025-08-03T09:06:40.000Z</time>
</trkpt>
<trkpt lat="45.9580510" lon="10.1712960">
	<ele>1800.80</ele>
	<time>2025-08-03T09:06:41.000Z</time>
</trkpt>
<trkpt lat="45.9580360" lon="10.1712860">
	<ele>1800.60</ele>
	<time>2025-08-03T09:06:42.000Z</time>
</trkpt>
<trkpt lat="45.9580230" lon="10.1712780">
	<ele>1800.60</ele>
	<time>2025-08-03T09:06:43.000Z</time>
</trkpt>
<trkpt lat="45.9580120" lon="10.1712690">
	<ele>1800.60</ele>
	<time>2025-08-03T09:06:44.000Z</time>
</trkpt>
<trkpt lat="45.9580000" lon="10.1712560">
	<ele>1800.40</ele>
	<time>2025-08-03T09:06:45.000Z</time>
</trkpt>
<trkpt lat="45.9579880" lon="10.1712470">
	<ele>1800.40</ele>
	<time>2025-08-03T09:06:46.000Z</time>
</trkpt>
<trkpt lat="45.9579770" lon="10.1712400">
	<ele>1800.40</ele>
	<time>2025-08-03T09:06:47.000Z</time>
</trkpt>
<trkpt lat="45.9579660" lon="10.1712310">
	<ele>1800.40</ele>
	<time>2025-08-03T09:06:48.000Z</time>
</trkpt>
<trkpt lat="45.9579540" lon="10.1712200">
	<ele>1800.20</ele>
	<time>2025-08-03T09:06:49.000Z</time>
</trkpt>
<trkpt lat="45.9579390" lon="10.1712100">
	<ele>1800.00</ele>
	<time>2025-08-03T09:06:50.000Z</time>
</trkpt>
<trkpt lat="45.9579280" lon="10.1711950">
	<ele>1800.00</ele>
	<time>2025-08-03T09:06:51.000Z</time>
</trkpt>
<trkpt lat="45.9579150" lon="10.1711810">
	<ele>1799.80</ele>
	<time>2025-08-03T09:06:52.000Z</time>
</trkpt>
<trkpt lat="45.9579010" lon="10.1711660">
	<ele>1799.60</ele>
	<time>2025-08-03T09:06:53.000Z</time>
</trkpt>
<trkpt lat="45.9578920" lon="10.1711510">
	<ele>1799.60</ele>
	<time>2025-08-03T09:06:54.000Z</time>
</trkpt>
<trkpt lat="45.9578870" lon="10.1711350">
	<ele>1799.40</ele>
	<time>2025-08-03T09:06:55.000Z</time>
</trkpt>
<trkpt lat="45.9578790" lon="10.1711200">
	<ele>1799.40</ele>
	<time>2025-08-03T09:06:56.000Z</time>
</trkpt>
<trkpt lat="45.9578740" lon="10.1711060">
	<ele>1799.20</ele>
	<time>2025-08-03T09:06:57.000Z</time>
</trkpt>
<trkpt lat="45.9578640" lon="10.1710930">
	<ele>1799.00</ele>
	<time>2025-08-03T09:06:58.000Z</time>
</trkpt>
<trkpt lat="45.9578550" lon="10.1710820">
	<ele>1798.80</ele>
	<time>2025-08-03T09:06:59.000Z</time>
</trkpt>
<trkpt lat="45.9578450" lon="10.1710700">
	<ele>1798.60</ele>
	<time>2025-08-03T09:07:00.000Z</time>
</trkpt>
<trkpt lat="45.9578380" lon="10.1710590">
	<ele>1798.40</ele>
	<time>2025-08-03T09:07:01.000Z</time>
</trkpt>
<trkpt lat="45.9578360" lon="10.1710440">
	<ele>1798.00</ele>
	<time>2025-08-03T09:07:02.000Z</time>
</trkpt>
<trkpt lat="45.9578350" lon="10.1710220">
	<ele>1797.60</ele>
	<time>2025-08-03T09:07:03.000Z</time>
</trkpt>
<trkpt lat="45.9578330" lon="10.1710060">
	<ele>1797.40</ele>
	<time>2025-08-03T09:07:04.000Z</time>
</trkpt>
<trkpt lat="45.9578340" lon="10.1709900">
	<ele>1797.20</ele>
	<time>2025-08-03T09:07:05.000Z</time>
</trkpt>
<trkpt lat="45.9578290" lon="10.1709770">
	<ele>1797.00</ele>
	<time>2025-08-03T09:07:06.000Z</time>
</trkpt>
<trkpt lat="45.9578250" lon="10.1709610">
	<ele>1797.00</ele>
	<time>2025-08-03T09:07:07.000Z</time>
</trkpt>
<trkpt lat="45.9578200" lon="10.1709470">
	<ele>1796.80</ele>
	<time>2025-08-03T09:07:08.000Z</time>
</trkpt>
<trkpt lat="45.9578140" lon="10.1709370">
	<ele>1796.40</ele>
	<time>2025-08-03T09:07:09.000Z</time>
</trkpt>
<trkpt lat="45.9578080" lon="10.1709210">
	<ele>1796.20</ele>
	<time>2025-08-03T09:07:10.000Z</time>
</trkpt>
<trkpt lat="45.9578030" lon="10.1709050">
	<ele>1796.00</ele>
	<time>2025-08-03T09:07:11.000Z</time>
</trkpt>
<trkpt lat="45.9577980" lon="10.1708820">
	<ele>1795.80</ele>
	<time>2025-08-03T09:07:12.000Z</time>
</trkpt>
<trkpt lat="45.9577950" lon="10.1708640">
	<ele>1795.60</ele>
	<time>2025-08-03T09:07:13.000Z</time>
</trkpt>
<trkpt lat="45.9577870" lon="10.1708440">
	<ele>1795.40</ele>
	<time>2025-08-03T09:07:14.000Z</time>
</trkpt>
<trkpt lat="45.9577770" lon="10.1708240">
	<ele>1795.20</ele>
	<time>2025-08-03T09:07:15.000Z</time>
</trkpt>
<trkpt lat="45.9577640" lon="10.1708070">
	<ele>1795.00</ele>
	<time>2025-08-03T09:07:16.000Z</time>
</trkpt>
<trkpt lat="45.9577490" lon="10.1707910">
	<ele>1794.80</ele>
	<time>2025-08-03T09:07:17.000Z</time>
</trkpt>
<trkpt lat="45.9577360" lon="10.1707840">
	<ele>1794.80</ele>
	<time>2025-08-03T09:07:18.000Z</time>
</trkpt>
<trkpt lat="45.9577180" lon="10.1707780">
	<ele>1794.40</ele>
	<time>2025-08-03T09:07:19.000Z</time>
</trkpt>
<trkpt lat="45.9577010" lon="10.1707710">
	<ele>1794.40</ele>
	<time>2025-08-03T09:07:20.000Z</time>
</trkpt>
<trkpt lat="45.9576880" lon="10.1707640">
	<ele>1794.20</ele>
	<time>2025-08-03T09:07:21.000Z</time>
</trkpt>
<trkpt lat="45.9576780" lon="10.1707540">
	<ele>1794.20</ele>
	<time>2025-08-03T09:07:22.000Z</time>
</trkpt>
<trkpt lat="45.9576620" lon="10.1707400">
	<ele>1794.20</ele>
	<time>2025-08-03T09:07:23.000Z</time>
</trkpt>
<trkpt lat="45.9576480" lon="10.1707320">
	<ele>1794.00</ele>
	<time>2025-08-03T09:07:24.000Z</time>
</trkpt>
<trkpt lat="45.9576370" lon="10.1707250">
	<ele>1794.00</ele>
	<time>2025-08-03T09:07:25.000Z</time>
</trkpt>
<trkpt lat="45.9576240" lon="10.1707170">
	<ele>1794.00</ele>
	<time>2025-08-03T09:07:26.000Z</time>
</trkpt>
<trkpt lat="45.9576100" lon="10.1707080">
	<ele>1794.00</ele>
	<time>2025-08-03T09:07:27.000Z</time>
</trkpt>
<trkpt lat="45.9576000" lon="10.1707000">
	<ele>1794.00</ele>
	<time>2025-08-03T09:07:28.000Z</time>
</trkpt>
<trkpt lat="45.9575900" lon="10.1706920">
	<ele>1794.00</ele>
	<time>2025-08-03T09:07:29.000Z</time>
</trkpt>
<trkpt lat="45.9575810" lon="10.1706890">
	<ele>1794.00</ele>
	<time>2025-08-03T09:07:30.000Z</time>
</trkpt>
<trkpt lat="45.9575750" lon="10.1706910">
	<ele>1794.00</ele>
	<time>2025-08-03T09:07:31.000Z</time>
</trkpt>
<trkpt lat="45.9575720" lon="10.1706920">
	<ele>1793.80</ele>
	<time>2025-08-03T09:07:32.000Z</time>
</trkpt>
<trkpt lat="45.9575680" lon="10.1706990">
	<ele>1793.80</ele>
	<time>2025-08-03T09:07:33.000Z</time>
</trkpt>
<trkpt lat="45.9575610" lon="10.1707020">
	<ele>1793.80</ele>
	<time>2025-08-03T09:07:34.000Z</time>
</trkpt>
<trkpt lat="45.9575550" lon="10.1707040">
	<ele>1793.80</ele>
	<time>2025-08-03T09:07:35.000Z</time>
</trkpt>
<trkpt lat="45.9575580" lon="10.1707120">
	<ele>1793.80</ele>
	<time>2025-08-03T09:07:36.000Z</time>
</trkpt>
<trkpt lat="45.9575580" lon="10.1707270">
	<ele>1793.80</ele>
	<time>2025-08-03T09:07:37.000Z</time>
</trkpt>
<trkpt lat="45.9575550" lon="10.1707400">
	<ele>1793.80</ele>
	<time>2025-08-03T09:07:38.000Z</time>
</trkpt>
<trkpt lat="45.9575520" lon="10.1707440">
	<ele>1793.60</ele>
	<time>2025-08-03T09:07:39.000Z</time>
</trkpt>
<trkpt lat="45.9575420" lon="10.1707470">
	<ele>1793.60</ele>
	<time>2025-08-03T09:07:40.000Z</time>
</trkpt>
<trkpt lat="45.9575350" lon="10.1707460">
	<ele>1793.40</ele>
	<time>2025-08-03T09:07:41.000Z</time>
</trkpt>
<trkpt lat="45.9575260" lon="10.1707520">
	<ele>1793.60</ele>
	<time>2025-08-03T09:07:42.000Z</time>
</trkpt>
<trkpt lat="45.9575220" lon="10.1707610">
	<ele>1793.40</ele>
	<time>2025-08-03T09:07:43.000Z</time>
</trkpt>
<trkpt lat="45.9575220" lon="10.1707630">
	<ele>1793.40</ele>
	<time>2025-08-03T09:07:44.000Z</time>
</trkpt>
<trkpt lat="45.9575220" lon="10.1707660">
	<ele>1793.40</ele>
	<time>2025-08-03T09:07:45.000Z</time>
</trkpt>
<trkpt lat="45.9575220" lon="10.1707710">
	<ele>1793.40</ele>
	<time>2025-08-03T09:07:46.000Z</time>
</trkpt>
<trkpt lat="45.9575210" lon="10.1707890">
	<ele>1793.40</ele>
	<time>2025-08-03T09:07:47.000Z</time>
</trkpt>
<trkpt lat="45.9575220" lon="10.1708110">
	<ele>1793.40</ele>
	<time>2025-08-03T09:07:48.000Z</time>
</trkpt>
<trkpt lat="45.9575260" lon="10.1708290">
	<ele>1793.20</ele>
	<time>2025-08-03T09:07:49.000Z</time>
</trkpt>
<trkpt lat="45.9575310" lon="10.1708520">
	<ele>1792.80</ele>
	<time>2025-08-03T09:07:50.000Z</time>
</trkpt>
<trkpt lat="45.9575320" lon="10.1708760">
	<ele>1792.60</ele>
	<time>2025-08-03T09:07:51.000Z</time>
</trkpt>
<trkpt lat="45.9575350" lon="10.1708900">
	<ele>1792.40</ele>
	<time>2025-08-03T09:07:52.000Z</time>
</trkpt>
<trkpt lat="45.9575360" lon="10.1709020">
	<ele>1792.20</ele>
	<time>2025-08-03T09:07:53.000Z</time>
</trkpt>
<trkpt lat="45.9575370" lon="10.1709120">
	<ele>1792.00</ele>
	<time>2025-08-03T09:07:54.000Z</time>
</trkpt>
<trkpt lat="45.9575370" lon="10.1709240">
	<ele>1791.60</ele>
	<time>2025-08-03T09:07:55.000Z</time>
</trkpt>
<trkpt lat="45.9575390" lon="10.1709360">
	<ele>1791.40</ele>
	<time>2025-08-03T09:07:56.000Z</time>
</trkpt>
<trkpt lat="45.9575460" lon="10.1709480">
	<ele>1791.20</ele>
	<time>2025-08-03T09:07:57.000Z</time>
</trkpt>
<trkpt lat="45.9575510" lon="10.1709660">
	<ele>1791.00</ele>
	<time>2025-08-03T09:07:58.000Z</time>
</trkpt>
<trkpt lat="45.9575570" lon="10.1709760">
	<ele>1790.60</ele>
	<time>2025-08-03T09:07:59.000Z</time>
</trkpt>
<trkpt lat="45.9575630" lon="10.1709990">
	<ele>1790.20</ele>
	<time>2025-08-03T09:08:00.000Z</time>
</trkpt>
<trkpt lat="45.9575720" lon="10.1710170">
	<ele>1790.00</ele>
	<time>2025-08-03T09:08:01.000Z</time>
</trkpt>
<trkpt lat="45.9575780" lon="10.1710360">
	<ele>1789.60</ele>
	<time>2025-08-03T09:08:02.000Z</time>
</trkpt>
<trkpt lat="45.9575860" lon="10.1710570">
	<ele>1789.40</ele>
	<time>2025-08-03T09:08:03.000Z</time>
</trkpt>
<trkpt lat="45.9575970" lon="10.1710740">
	<ele>1789.00</ele>
	<time>2025-08-03T09:08:04.000Z</time>
</trkpt>
<trkpt lat="45.9576030" lon="10.1710810">
	<ele>1788.60</ele>
	<time>2025-08-03T09:08:05.000Z</time>
</trkpt>
<trkpt lat="45.9576080" lon="10.1710900">
	<ele>1788.40</ele>
	<time>2025-08-03T09:08:06.000Z</time>
</trkpt>
<trkpt lat="45.9576120" lon="10.1711070">
	<ele>1788.20</ele>
	<time>2025-08-03T09:08:07.000Z</time>
</trkpt>
<trkpt lat="45.9576120" lon="10.1711220">
	<ele>1788.00</ele>
	<time>2025-08-03T09:08:08.000Z</time>
</trkpt>
<trkpt lat="45.9576070" lon="10.1711360">
	<ele>1787.60</ele>
	<time>2025-08-03T09:08:09.000Z</time>
</trkpt>
<trkpt lat="45.9576020" lon="10.1711490">
	<ele>1787.40</ele>
	<time>2025-08-03T09:08:10.000Z</time>
</trkpt>
<trkpt lat="45.9575970" lon="10.1711620">
	<ele>1787.20</ele>
	<time>2025-08-03T09:08:11.000Z</time>
</trkpt>
<trkpt lat="45.9575940" lon="10.1711770">
	<ele>1787.00</ele>
	<time>2025-08-03T09:08:12.000Z</time>
</trkpt>
<trkpt lat="45.9575900" lon="10.1711910">
	<ele>1786.80</ele>
	<time>2025-08-03T09:08:13.000Z</time>
</trkpt>
<trkpt lat="45.9575850" lon="10.1712020">
	<ele>1786.40</ele>
	<time>2025-08-03T09:08:14.000Z</time>
</trkpt>
<trkpt lat="45.9575790" lon="10.1712170">
	<ele>1786.00</ele>
	<time>2025-08-03T09:08:15.000Z</time>
</trkpt>
<trkpt lat="45.9575730" lon="10.1712340">
	<ele>1785.40</ele>
	<time>2025-08-03T09:08:16.000Z</time>
</trkpt>
<trkpt lat="45.9575660" lon="10.1712500">
	<ele>1785.00</ele>
	<time>2025-08-03T09:08:17.000Z</time>
</trkpt>
<trkpt lat="45.9575600" lon="10.1712610">
	<ele>1784.80</ele>
	<time>2025-08-03T09:08:18.000Z</time>
</trkpt>
<trkpt lat="45.9575500" lon="10.1712720">
	<ele>1784.40</ele>
	<time>2025-08-03T09:08:19.000Z</time>
</trkpt>
<trkpt lat="45.9575370" lon="10.1712730">
	<ele>1784.20</ele>
	<time>2025-08-03T09:08:20.000Z</time>
</trkpt>
<trkpt lat="45.9575280" lon="10.1712800">
	<ele>1783.60</ele>
	<time>2025-08-03T09:08:21.000Z</time>
</trkpt>
<trkpt lat="45.9575220" lon="10.1712870">
	<ele>1783.20</ele>
	<time>2025-08-03T09:08:22.000Z</time>
</trkpt>
<trkpt lat="45.9575170" lon="10.1713040">
	<ele>1783.00</ele>
	<time>2025-08-03T09:08:23.000Z</time>
</trkpt>
<trkpt lat="45.9575120" lon="10.1713190">
	<ele>1782.40</ele>
	<time>2025-08-03T09:08:24.000Z</time>
</trkpt>
<trkpt lat="45.9575090" lon="10.1713400">
	<ele>1782.20</ele>
	<time>2025-08-03T09:08:25.000Z</time>
</trkpt>
<trkpt lat="45.9575040" lon="10.1713700">
	<ele>1782.00</ele>
	<time>2025-08-03T09:08:26.000Z</time>
</trkpt>
<trkpt lat="45.9574990" lon="10.1713980">
	<ele>1781.40</ele>
	<time>2025-08-03T09:08:27.000Z</time>
</trkpt>
<trkpt lat="45.9575010" lon="10.1714110">
	<ele>1781.20</ele>
	<time>2025-08-03T09:08:28.000Z</time>
</trkpt>
<trkpt lat="45.9574990" lon="10.1714370">
	<ele>1781.00</ele>
	<time>2025-08-03T09:08:29.000Z</time>
</trkpt>
<trkpt lat="45.9575000" lon="10.1714560">
	<ele>1780.60</ele>
	<time>2025-08-03T09:08:30.000Z</time>
</trkpt>
<trkpt lat="45.9575020" lon="10.1714700">
	<ele>1780.60</ele>
	<time>2025-08-03T09:08:31.000Z</time>
</trkpt>
<trkpt lat="45.9575060" lon="10.1714880">
	<ele>1780.20</ele>
	<time>2025-08-03T09:08:32.000Z</time>
</trkpt>
<trkpt lat="45.9575100" lon="10.1715050">
	<ele>1779.80</ele>
	<time>2025-08-03T09:08:33.000Z</time>
</trkpt>
<trkpt lat="45.9575200" lon="10.1715230">
	<ele>1779.60</ele>
	<time>2025-08-03T09:08:34.000Z</time>
</trkpt>
<trkpt lat="45.9575280" lon="10.1715340">
	<ele>1779.40</ele>
	<time>2025-08-03T09:08:35.000Z</time>
</trkpt>
<trkpt lat="45.9575360" lon="10.1715500">
	<ele>1779.00</ele>
	<time>2025-08-03T09:08:36.000Z</time>
</trkpt>
<trkpt lat="45.9575410" lon="10.1715730">
	<ele>1779.00</ele>
	<time>2025-08-03T09:08:37.000Z</time>
</trkpt>
<trkpt lat="45.9575470" lon="10.1715860">
	<ele>1778.80</ele>
	<time>2025-08-03T09:08:38.000Z</time>
</trkpt>
<trkpt lat="45.9575530" lon="10.1716030">
	<ele>1778.60</ele>
	<time>2025-08-03T09:08:39.000Z</time>
</trkpt>
<trkpt lat="45.9575590" lon="10.1716170">
	<ele>1778.40</ele>
	<time>2025-08-03T09:08:40.000Z</time>
</trkpt>
<trkpt lat="45.9575680" lon="10.1716290">
	<ele>1778.20</ele>
	<time>2025-08-03T09:08:41.000Z</time>
</trkpt>
<trkpt lat="45.9575740" lon="10.1716430">
	<ele>1778.20</ele>
	<time>2025-08-03T09:08:42.000Z</time>
</trkpt>
<trkpt lat="45.9575790" lon="10.1716560">
	<ele>1778.00</ele>
	<time>2025-08-03T09:08:43.000Z</time>
</trkpt>
<trkpt lat="45.9575830" lon="10.1716690">
	<ele>1777.80</ele>
	<time>2025-08-03T09:08:44.000Z</time>
</trkpt>
<trkpt lat="45.9575900" lon="10.1716830">
	<ele>1777.60</ele>
	<time>2025-08-03T09:08:45.000Z</time>
</trkpt>
<trkpt lat="45.9575980" lon="10.1716980">
	<ele>1777.40</ele>
	<time>2025-08-03T09:08:46.000Z</time>
</trkpt>
<trkpt lat="45.9576070" lon="10.1717100">
	<ele>1777.20</ele>
	<time>2025-08-03T09:08:47.000Z</time>
</trkpt>
<trkpt lat="45.9576150" lon="10.1717250">
	<ele>1777.00</ele>
	<time>2025-08-03T09:08:48.000Z</time>
</trkpt>
<trkpt lat="45.9576220" lon="10.1717380">
	<ele>1776.80</ele>
	<time>2025-08-03T09:08:49.000Z</time>
</trkpt>
<trkpt lat="45.9576280" lon="10.1717530">
	<ele>1776.80</ele>
	<time>2025-08-03T09:08:50.000Z</time>
</trkpt>
<trkpt lat="45.9576330" lon="10.1717680">
	<ele>1776.60</ele>
	<time>2025-08-03T09:08:51.000Z</time>
</trkpt>
<trkpt lat="45.9576370" lon="10.1717820">
	<ele>1776.40</ele>
	<time>2025-08-03T09:08:52.000Z</time>
</trkpt>
<trkpt lat="45.9576400" lon="10.1717980">
	<ele>1776.20</ele>
	<time>2025-08-03T09:08:53.000Z</time>
</trkpt>
<trkpt lat="45.9576440" lon="10.1718110">
	<ele>1776.00</ele>
	<time>2025-08-03T09:08:54.000Z</time>
</trkpt>
<trkpt lat="45.9576470" lon="10.1718270">
	<ele>1776.00</ele>
	<time>2025-08-03T09:08:55.000Z</time>
</trkpt>
<trkpt lat="45.9576500" lon="10.1718410">
	<ele>1775.60</ele>
	<time>2025-08-03T09:08:56.000Z</time>
</trkpt>
<trkpt lat="45.9576530" lon="10.1718490">
	<ele>1775.40</ele>
	<time>2025-08-03T09:08:57.000Z</time>
</trkpt>
<trkpt lat="45.9576540" lon="10.1718610">
	<ele>1775.40</ele>
	<time>2025-08-03T09:08:58.000Z</time>
</trkpt>
<trkpt lat="45.9576520" lon="10.1718720">
	<ele>1775.20</ele>
	<time>2025-08-03T09:08:59.000Z</time>
</trkpt>
<trkpt lat="45.9576480" lon="10.1718930">
	<ele>1774.60</ele>
	<time>2025-08-03T09:09:00.000Z</time>
</trkpt>
<trkpt lat="45.9576450" lon="10.1719120">
	<ele>1774.20</ele>
	<time>2025-08-03T09:09:01.000Z</time>
</trkpt>
<trkpt lat="45.9576450" lon="10.1719280">
	<ele>1774.00</ele>
	<time>2025-08-03T09:09:02.000Z</time>
</trkpt>
<trkpt lat="45.9576420" lon="10.1719430">
	<ele>1773.60</ele>
	<time>2025-08-03T09:09:03.000Z</time>
</trkpt>
<trkpt lat="45.9576350" lon="10.1719530">
	<ele>1773.00</ele>
	<time>2025-08-03T09:09:04.000Z</time>
</trkpt>
<trkpt lat="45.9576300" lon="10.1719680">
	<ele>1772.80</ele>
	<time>2025-08-03T09:09:05.000Z</time>
</trkpt>
<trkpt lat="45.9576300" lon="10.1719740">
	<ele>1772.60</ele>
	<time>2025-08-03T09:09:06.000Z</time>
</trkpt>
<trkpt lat="45.9576270" lon="10.1719800">
	<ele>1772.20</ele>
	<time>2025-08-03T09:09:07.000Z</time>
</trkpt>
<trkpt lat="45.9576190" lon="10.1719860">
	<ele>1772.00</ele>
	<time>2025-08-03T09:09:08.000Z</time>
</trkpt>
<trkpt lat="45.9576160" lon="10.1719980">
	<ele>1771.80</ele>
	<time>2025-08-03T09:09:09.000Z</time>
</trkpt>
<trkpt lat="45.9576090" lon="10.1720120">
	<ele>1771.60</ele>
	<time>2025-08-03T09:09:10.000Z</time>
</trkpt>
<trkpt lat="45.9576000" lon="10.1720220">
	<ele>1771.00</ele>
	<time>2025-08-03T09:09:11.000Z</time>
</trkpt>
<trkpt lat="45.9575940" lon="10.1720360">
	<ele>1770.40</ele>
	<time>2025-08-03T09:09:12.000Z</time>
</trkpt>
<trkpt lat="45.9575770" lon="10.1720410">
	<ele>1770.20</ele>
	<time>2025-08-03T09:09:13.000Z</time>
</trkpt>
<trkpt lat="45.9575700" lon="10.1720480">
	<ele>1769.80</ele>
	<time>2025-08-03T09:09:14.000Z</time>
</trkpt>
<trkpt lat="45.9575620" lon="10.1720600">
	<ele>1769.20</ele>
	<time>2025-08-03T09:09:15.000Z</time>
</trkpt>
<trkpt lat="45.9575540" lon="10.1720670">
	<ele>1768.80</ele>
	<time>2025-08-03T09:09:16.000Z</time>
</trkpt>
<trkpt lat="45.9575480" lon="10.1720770">
	<ele>1768.40</ele>
	<time>2025-08-03T09:09:17.000Z</time>
</trkpt>
<trkpt lat="45.9575420" lon="10.1720900">
	<ele>1768.00</ele>
	<time>2025-08-03T09:09:18.000Z</time>
</trkpt>
<trkpt lat="45.9575360" lon="10.1721000">
	<ele>1767.60</ele>
	<time>2025-08-03T09:09:19.000Z</time>
</trkpt>
<trkpt lat="45.9575250" lon="10.1721160">
	<ele>1767.20</ele>
	<time>2025-08-03T09:09:20.000Z</time>
</trkpt>
<trkpt lat="45.9575190" lon="10.1721270">
	<ele>1767.20</ele>
	<time>2025-08-03T09:09:21.000Z</time>
</trkpt>
<trkpt lat="45.9575150" lon="10.1721360">
	<ele>1767.00</ele>
	<time>2025-08-03T09:09:22.000Z</time>
</trkpt>
<trkpt lat="45.9575130" lon="10.1721380">
	<ele>1766.60</ele>
	<time>2025-08-03T09:09:23.000Z</time>
</trkpt>
<trkpt lat="45.9575170" lon="10.1721380">
	<ele>1765.80</ele>
	<time>2025-08-03T09:09:24.000Z</time>
</trkpt>
<trkpt lat="45.9575220" lon="10.1721410">
	<ele>1765.40</ele>
	<time>2025-08-03T09:09:25.000Z</time>
</trkpt>
<trkpt lat="45.9575240" lon="10.1721410">
	<ele>1765.00</ele>
	<time>2025-08-03T09:09:26.000Z</time>
</trkpt>
<trkpt lat="45.9575230" lon="10.1721420">
	<ele>1764.80</ele>
	<time>2025-08-03T09:09:27.000Z</time>
</trkpt>
<trkpt lat="45.9575240" lon="10.1721430">
	<ele>1764.60</ele>
	<time>2025-08-03T09:09:28.000Z</time>
</trkpt>
<trkpt lat="45.9575210" lon="10.1721490">
	<ele>1764.40</ele>
	<time>2025-08-03T09:09:29.000Z</time>
</trkpt>
<trkpt lat="45.9575070" lon="10.1721680">
	<ele>1764.20</ele>
	<time>2025-08-03T09:09:30.000Z</time>
</trkpt>
<trkpt lat="45.9574950" lon="10.1721800">
	<ele>1764.00</ele>
	<time>2025-08-03T09:09:31.000Z</time>
</trkpt>
<trkpt lat="45.9574830" lon="10.1721950">
	<ele>1763.80</ele>
	<time>2025-08-03T09:09:32.000Z</time>
</trkpt>
<trkpt lat="45.9574690" lon="10.1722090">
	<ele>1763.60</ele>
	<time>2025-08-03T09:09:33.000Z</time>
</trkpt>
<trkpt lat="45.9574600" lon="10.1722210">
	<ele>1763.40</ele>
	<time>2025-08-03T09:09:34.000Z</time>
</trkpt>
<trkpt lat="45.9574510" lon="10.1722310">
	<ele>1763.20</ele>
	<time>2025-08-03T09:09:35.000Z</time>
</trkpt>
<trkpt lat="45.9574440" lon="10.1722340">
	<ele>1763.00</ele>
	<time>2025-08-03T09:09:36.000Z</time>
</trkpt>
<trkpt lat="45.9574410" lon="10.1722400">
	<ele>1762.40</ele>
	<time>2025-08-03T09:09:37.000Z</time>
</trkpt>
<trkpt lat="45.9574370" lon="10.1722540">
	<ele>1762.00</ele>
	<time>2025-08-03T09:09:38.000Z</time>
</trkpt>
<trkpt lat="45.9574310" lon="10.1722670">
	<ele>1761.60</ele>
	<time>2025-08-03T09:09:39.000Z</time>
</trkpt>
<trkpt lat="45.9574240" lon="10.1722820">
	<ele>1761.20</ele>
	<time>2025-08-03T09:09:40.000Z</time>
</trkpt>
<trkpt lat="45.9574190" lon="10.1722920">
	<ele>1761.00</ele>
	<time>2025-08-03T09:09:41.000Z</time>
</trkpt>
<trkpt lat="45.9574120" lon="10.1723050">
	<ele>1760.80</ele>
	<time>2025-08-03T09:09:42.000Z</time>
</trkpt>
<trkpt lat="45.9574030" lon="10.1723170">
	<ele>1760.40</ele>
	<time>2025-08-03T09:09:43.000Z</time>
</trkpt>
<trkpt lat="45.9573950" lon="10.1723260">
	<ele>1759.80</ele>
	<time>2025-08-03T09:09:44.000Z</time>
</trkpt>
<trkpt lat="45.9573850" lon="10.1723320">
	<ele>1759.60</ele>
	<time>2025-08-03T09:09:45.000Z</time>
</trkpt>
<trkpt lat="45.9573710" lon="10.1723380">
	<ele>1759.20</ele>
	<time>2025-08-03T09:09:46.000Z</time>
</trkpt>
<trkpt lat="45.9573570" lon="10.1723460">
	<ele>1759.00</ele>
	<time>2025-08-03T09:09:47.000Z</time>
</trkpt>
<trkpt lat="45.9573470" lon="10.1723550">
	<ele>1758.60</ele>
	<time>2025-08-03T09:09:48.000Z</time>
</trkpt>
<trkpt lat="45.9573370" lon="10.1723570">
	<ele>1758.20</ele>
	<time>2025-08-03T09:09:49.000Z</time>
</trkpt>
<trkpt lat="45.9573270" lon="10.1723580">
	<ele>1758.00</ele>
	<time>2025-08-03T09:09:50.000Z</time>
</trkpt>
<trkpt lat="45.9573210" lon="10.1723650">
	<ele>1757.60</ele>
	<time>2025-08-03T09:09:51.000Z</time>
</trkpt>
<trkpt lat="45.9573150" lon="10.1723720">
	<ele>1757.40</ele>
	<time>2025-08-03T09:09:52.000Z</time>
</trkpt>
<trkpt lat="45.9573050" lon="10.1723770">
	<ele>1756.80</ele>
	<time>2025-08-03T09:09:53.000Z</time>
</trkpt>
<trkpt lat="45.9572930" lon="10.1723830">
	<ele>1756.40</ele>
	<time>2025-08-03T09:09:54.000Z</time>
</trkpt>
<trkpt lat="45.9572800" lon="10.1723860">
	<ele>1756.20</ele>
	<time>2025-08-03T09:09:55.000Z</time>
</trkpt>
<trkpt lat="45.9572680" lon="10.1723900">
	<ele>1756.00</ele>
	<time>2025-08-03T09:09:56.000Z</time>
</trkpt>
<trkpt lat="45.9572560" lon="10.1723920">
	<ele>1755.80</ele>
	<time>2025-08-03T09:09:57.000Z</time>
</trkpt>
<trkpt lat="45.9572430" lon="10.1723910">
	<ele>1755.40</ele>
	<time>2025-08-03T09:09:58.000Z</time>
</trkpt>
<trkpt lat="45.9572330" lon="10.1723920">
	<ele>1755.00</ele>
	<time>2025-08-03T09:09:59.000Z</time>
</trkpt>
<trkpt lat="45.9572200" lon="10.1723850">
	<ele>1754.60</ele>
	<time>2025-08-03T09:10:00.000Z</time>
</trkpt>
<trkpt lat="45.9572090" lon="10.1723740">
	<ele>1754.00</ele>
	<time>2025-08-03T09:10:01.000Z</time>
</trkpt>
<trkpt lat="45.9571990" lon="10.1723620">
	<ele>1753.80</ele>
	<time>2025-08-03T09:10:02.000Z</time>
</trkpt>
<trkpt lat="45.9571920" lon="10.1723530">
	<ele>1753.60</ele>
	<time>2025-08-03T09:10:03.000Z</time>
</trkpt>
<trkpt lat="45.9571810" lon="10.1723370">
	<ele>1753.40</ele>
	<time>2025-08-03T09:10:04.000Z</time>
</trkpt>
<trkpt lat="45.9571720" lon="10.1723250">
	<ele>1753.00</ele>
	<time>2025-08-03T09:10:05.000Z</time>
</trkpt>
<trkpt lat="45.9571600" lon="10.1723160">
	<ele>1752.60</ele>
	<time>2025-08-03T09:10:06.000Z</time>
</trkpt>
<trkpt lat="45.9571470" lon="10.1723080">
	<ele>1752.20</ele>
	<time>2025-08-03T09:10:07.000Z</time>
</trkpt>
<trkpt lat="45.9571360" lon="10.1722990">
	<ele>1752.00</ele>
	<time>2025-08-03T09:10:08.000Z</time>
</trkpt>
<trkpt lat="45.9571250" lon="10.1722910">
	<ele>1751.60</ele>
	<time>2025-08-03T09:10:09.000Z</time>
</trkpt>
<trkpt lat="45.9571120" lon="10.1722820">
	<ele>1751.00</ele>
	<time>2025-08-03T09:10:10.000Z</time>
</trkpt>
<trkpt lat="45.9570990" lon="10.1722770">
	<ele>1750.80</ele>
	<time>2025-08-03T09:10:11.000Z</time>
</trkpt>
<trkpt lat="45.9570890" lon="10.1722730">
	<ele>1750.20</ele>
	<time>2025-08-03T09:10:12.000Z</time>
</trkpt>
<trkpt lat="45.9570760" lon="10.1722740">
	<ele>1750.00</ele>
	<time>2025-08-03T09:10:13.000Z</time>
</trkpt>
<trkpt lat="45.9570590" lon="10.1722700">
	<ele>1749.60</ele>
	<time>2025-08-03T09:10:14.000Z</time>
</trkpt>
<trkpt lat="45.9570450" lon="10.1722710">
	<ele>1749.20</ele>
	<time>2025-08-03T09:10:15.000Z</time>
</trkpt>
<trkpt lat="45.9570290" lon="10.1722710">
	<ele>1749.00</ele>
	<time>2025-08-03T09:10:16.000Z</time>
</trkpt>
<trkpt lat="45.9570180" lon="10.1722750">
	<ele>1748.80</ele>
	<time>2025-08-03T09:10:17.000Z</time>
</trkpt>
<trkpt lat="45.9570070" lon="10.1722820">
	<ele>1748.40</ele>
	<time>2025-08-03T09:10:18.000Z</time>
</trkpt>
<trkpt lat="45.9569970" lon="10.1722910">
	<ele>1748.20</ele>
	<time>2025-08-03T09:10:19.000Z</time>
</trkpt>
<trkpt lat="45.9569880" lon="10.1722990">
	<ele>1747.80</ele>
	<time>2025-08-03T09:10:20.000Z</time>
</trkpt>
<trkpt lat="45.9569770" lon="10.1723040">
	<ele>1747.20</ele>
	<time>2025-08-03T09:10:21.000Z</time>
</trkpt>
<trkpt lat="45.9569700" lon="10.1723110">
	<ele>1746.80</ele>
	<time>2025-08-03T09:10:22.000Z</time>
</trkpt>
<trkpt lat="45.9569600" lon="10.1723160">
	<ele>1746.60</ele>
	<time>2025-08-03T09:10:23.000Z</time>
</trkpt>
<trkpt lat="45.9569520" lon="10.1723220">
	<ele>1746.40</ele>
	<time>2025-08-03T09:10:24.000Z</time>
</trkpt>
<trkpt lat="45.9569430" lon="10.1723380">
	<ele>1746.20</ele>
	<time>2025-08-03T09:10:25.000Z</time>
</trkpt>
<trkpt lat="45.9569330" lon="10.1723500">
	<ele>1745.80</ele>
	<time>2025-08-03T09:10:26.000Z</time>
</trkpt>
<trkpt lat="45.9569210" lon="10.1723580">
	<ele>1745.60</ele>
	<time>2025-08-03T09:10:27.000Z</time>
</trkpt>
<trkpt lat="45.9569090" lon="10.1723590">
	<ele>1745.00</ele>
	<time>2025-08-03T09:10:28.000Z</time>
</trkpt>
<trkpt lat="45.9569010" lon="10.1723610">
	<ele>1744.60</ele>
	<time>2025-08-03T09:10:29.000Z</time>
</trkpt>
<trkpt lat="45.9568930" lon="10.1723650">
	<ele>1744.20</ele>
	<time>2025-08-03T09:10:30.000Z</time>
</trkpt>
<trkpt lat="45.9568840" lon="10.1723720">
	<ele>1743.80</ele>
	<time>2025-08-03T09:10:31.000Z</time>
</trkpt>
<trkpt lat="45.9568710" lon="10.1723760">
	<ele>1743.40</ele>
	<time>2025-08-03T09:10:32.000Z</time>
</trkpt>
<trkpt lat="45.9568620" lon="10.1723770">
	<ele>1743.20</ele>
	<time>2025-08-03T09:10:33.000Z</time>
</trkpt>
<trkpt lat="45.9568510" lon="10.1723740">
	<ele>1742.60</ele>
	<time>2025-08-03T09:10:34.000Z</time>
</trkpt>
<trkpt lat="45.9568440" lon="10.1723710">
	<ele>1742.20</ele>
	<time>2025-08-03T09:10:35.000Z</time>
</trkpt>
<trkpt lat="45.9568390" lon="10.1723730">
	<ele>1741.80</ele>
	<time>2025-08-03T09:10:36.000Z</time>
</trkpt>
<trkpt lat="45.9568280" lon="10.1723740">
	<ele>1741.60</ele>
	<time>2025-08-03T09:10:37.000Z</time>
</trkpt>
<trkpt lat="45.9568230" lon="10.1723810">
	<ele>1741.60</ele>
	<time>2025-08-03T09:10:38.000Z</time>
</trkpt>
<trkpt lat="45.9568150" lon="10.1723840">
	<ele>1741.00</ele>
	<time>2025-08-03T09:10:39.000Z</time>
</trkpt>
<trkpt lat="45.9568070" lon="10.1723810">
	<ele>1740.60</ele>
	<time>2025-08-03T09:10:40.000Z</time>
</trkpt>
<trkpt lat="45.9567990" lon="10.1723910">
	<ele>1740.20</ele>
	<time>2025-08-03T09:10:41.000Z</time>
</trkpt>
<trkpt lat="45.9567900" lon="10.1723980">
	<ele>1740.00</ele>
	<time>2025-08-03T09:10:42.000Z</time>
</trkpt>
<trkpt lat="45.9567820" lon="10.1724050">
	<ele>1739.40</ele>
	<time>2025-08-03T09:10:43.000Z</time>
</trkpt>
<trkpt lat="45.9567700" lon="10.1724120">
	<ele>1738.80</ele>
	<time>2025-08-03T09:10:44.000Z</time>
</trkpt>
<trkpt lat="45.9567580" lon="10.1724130">
	<ele>1738.40</ele>
	<time>2025-08-03T09:10:45.000Z</time>
</trkpt>
<trkpt lat="45.9567480" lon="10.1724110">
	<ele>1738.00</ele>
	<time>2025-08-03T09:10:46.000Z</time>
</trkpt>
<trkpt lat="45.9567430" lon="10.1724160">
	<ele>1737.80</ele>
	<time>2025-08-03T09:10:47.000Z</time>
</trkpt>
<trkpt lat="45.9567350" lon="10.1724210">
	<ele>1737.20</ele>
	<time>2025-08-03T09:10:48.000Z</time>
</trkpt>
<trkpt lat="45.9567280" lon="10.1724290">
	<ele>1736.80</ele>
	<time>2025-08-03T09:10:49.000Z</time>
</trkpt>
<trkpt lat="45.9567180" lon="10.1724390">
	<ele>1736.40</ele>
	<time>2025-08-03T09:10:50.000Z</time>
</trkpt>
<trkpt lat="45.9567050" lon="10.1724590">
	<ele>1736.00</ele>
	<time>2025-08-03T09:10:51.000Z</time>
</trkpt>
<trkpt lat="45.9566960" lon="10.1724740">
	<ele>1735.80</ele>
	<time>2025-08-03T09:10:52.000Z</time>
</trkpt>
<trkpt lat="45.9566860" lon="10.1724870">
	<ele>1735.40</ele>
	<time>2025-08-03T09:10:53.000Z</time>
</trkpt>
<trkpt lat="45.9566750" lon="10.1724950">
	<ele>1735.00</ele>
	<time>2025-08-03T09:10:54.000Z</time>
</trkpt>
<trkpt lat="45.9566670" lon="10.1725050">
	<ele>1734.80</ele>
	<time>2025-08-03T09:10:55.000Z</time>
</trkpt>
<trkpt lat="45.9566630" lon="10.1725200">
	<ele>1734.60</ele>
	<time>2025-08-03T09:10:56.000Z</time>
</trkpt>
<trkpt lat="45.9566600" lon="10.1725350">
	<ele>1734.00</ele>
	<time>2025-08-03T09:10:57.000Z</time>
</trkpt>
<trkpt lat="45.9566580" lon="10.1725600">
	<ele>1733.40</ele>
	<time>2025-08-03T09:10:58.000Z</time>
</trkpt>
<trkpt lat="45.9566560" lon="10.1725830">
	<ele>1733.20</ele>
	<time>2025-08-03T09:10:59.000Z</time>
</trkpt>
<trkpt lat="45.9566580" lon="10.1726040">
	<ele>1732.80</ele>
	<time>2025-08-03T09:11:00.000Z</time>
</trkpt>
<trkpt lat="45.9566540" lon="10.1726220">
	<ele>1732.60</ele>
	<time>2025-08-03T09:11:01.000Z</time>
</trkpt>
<trkpt lat="45.9566510" lon="10.1726360">
	<ele>1732.20</ele>
	<time>2025-08-03T09:11:02.000Z</time>
</trkpt>
<trkpt lat="45.9566540" lon="10.1726520">
	<ele>1731.80</ele>
	<time>2025-08-03T09:11:03.000Z</time>
</trkpt>
<trkpt lat="45.9566510" lon="10.1726710">
	<ele>1731.60</ele>
	<time>2025-08-03T09:11:04.000Z</time>
</trkpt>
<trkpt lat="45.9566460" lon="10.1726900">
	<ele>1731.20</ele>
	<time>2025-08-03T09:11:05.000Z</time>
</trkpt>
<trkpt lat="45.9566410" lon="10.1727090">
	<ele>1731.00</ele>
	<time>2025-08-03T09:11:06.000Z</time>
</trkpt>
<trkpt lat="45.9566380" lon="10.1727290">
	<ele>1730.80</ele>
	<time>2025-08-03T09:11:07.000Z</time>
</trkpt>
<trkpt lat="45.9566340" lon="10.1727480">
	<ele>1730.60</ele>
	<time>2025-08-03T09:11:08.000Z</time>
</trkpt>
<trkpt lat="45.9566290" lon="10.1727610">
	<ele>1730.40</ele>
	<time>2025-08-03T09:11:09.000Z</time>
</trkpt>
<trkpt lat="45.9566240" lon="10.1727810">
	<ele>1730.00</ele>
	<time>2025-08-03T09:11:10.000Z</time>
</trkpt>
<trkpt lat="45.9566170" lon="10.1728000">
	<ele>1729.80</ele>
	<time>2025-08-03T09:11:11.000Z</time>
</trkpt>
<trkpt lat="45.9566120" lon="10.1728200">
	<ele>1729.40</ele>
	<time>2025-08-03T09:11:12.000Z</time>
</trkpt>
<trkpt lat="45.9566080" lon="10.1728390">
	<ele>1729.20</ele>
	<time>2025-08-03T09:11:13.000Z</time>
</trkpt>
<trkpt lat="45.9566040" lon="10.1728540">
	<ele>1729.00</ele>
	<time>2025-08-03T09:11:14.000Z</time>
</trkpt>
<trkpt lat="45.9565990" lon="10.1728660">
	<ele>1728.40</ele>
	<time>2025-08-03T09:11:15.000Z</time>
</trkpt>
<trkpt lat="45.9565920" lon="10.1728840">
	<ele>1728.00</ele>
	<time>2025-08-03T09:11:16.000Z</time>
</trkpt>
<trkpt lat="45.9565890" lon="10.1728980">
	<ele>1727.80</ele>
	<time>2025-08-03T09:11:17.000Z</time>
</trkpt>
<trkpt lat="45.9565870" lon="10.1729180">
	<ele>1727.60</ele>
	<time>2025-08-03T09:11:18.000Z</time>
</trkpt>
<trkpt lat="45.9565840" lon="10.1729400">
	<ele>1727.20</ele>
	<time>2025-08-03T09:11:19.000Z</time>
</trkpt>
<trkpt lat="45.9565820" lon="10.1729560">
	<ele>1726.80</ele>
	<time>2025-08-03T09:11:20.000Z</time>
</trkpt>
<trkpt lat="45.9565820" lon="10.1729700">
	<ele>1726.40</ele>
	<time>2025-08-03T09:11:21.000Z</time>
</trkpt>
<trkpt lat="45.9565790" lon="10.1729840">
	<ele>1726.00</ele>
	<time>2025-08-03T09:11:22.000Z</time>
</trkpt>
<trkpt lat="45.9565760" lon="10.1730020">
	<ele>1725.60</ele>
	<time>2025-08-03T09:11:23.000Z</time>
</trkpt>
<trkpt lat="45.9565730" lon="10.1730230">
	<ele>1725.40</ele>
	<time>2025-08-03T09:11:24.000Z</time>
</trkpt>
<trkpt lat="45.9565700" lon="10.1730430">
	<ele>1724.80</ele>
	<time>2025-08-03T09:11:25.000Z</time>
</trkpt>
<trkpt lat="45.9565670" lon="10.1730610">
	<ele>1724.40</ele>
	<time>2025-08-03T09:11:26.000Z</time>
</trkpt>
<trkpt lat="45.9565640" lon="10.1730830">
	<ele>1724.20</ele>
	<time>2025-08-03T09:11:27.000Z</time>
</trkpt>
<trkpt lat="45.9565620" lon="10.1730960">
	<ele>1724.00</ele>
	<time>2025-08-03T09:11:28.000Z</time>
</trkpt>
<trkpt lat="45.9565630" lon="10.1731060">
	<ele>1723.80</ele>
	<time>2025-08-03T09:11:29.000Z</time>
</trkpt>
<trkpt lat="45.9565630" lon="10.1731220">
	<ele>1723.20</ele>
	<time>2025-08-03T09:11:30.000Z</time>
</trkpt>
<trkpt lat="45.9565640" lon="10.1731420">
	<ele>1722.80</ele>
	<time>2025-08-03T09:11:31.000Z</time>
</trkpt>
<trkpt lat="45.9565650" lon="10.1731550">
	<ele>1722.40</ele>
	<time>2025-08-03T09:11:32.000Z</time>
</trkpt>
<trkpt lat="45.9565640" lon="10.1731750">
	<ele>1722.20</ele>
	<time>2025-08-03T09:11:33.000Z</time>
</trkpt>
<trkpt lat="45.9565620" lon="10.1731870">
	<ele>1721.80</ele>
	<time>2025-08-03T09:11:34.000Z</time>
</trkpt>
<trkpt lat="45.9565590" lon="10.1732050">
	<ele>1721.40</ele>
	<time>2025-08-03T09:11:35.000Z</time>
</trkpt>
<trkpt lat="45.9565520" lon="10.1732180">
	<ele>1721.00</ele>
	<time>2025-08-03T09:11:36.000Z</time>
</trkpt>
<trkpt lat="45.9565460" lon="10.1732290">
	<ele>1720.80</ele>
	<time>2025-08-03T09:11:37.000Z</time>
</trkpt>
<trkpt lat="45.9565410" lon="10.1732400">
	<ele>1720.40</ele>
	<time>2025-08-03T09:11:38.000Z</time>
</trkpt>
<trkpt lat="45.9565340" lon="10.1732520">
	<ele>1720.20</ele>
	<time>2025-08-03T09:11:39.000Z</time>
</trkpt>
<trkpt lat="45.9565280" lon="10.1732650">
	<ele>1719.80</ele>
	<time>2025-08-03T09:11:40.000Z</time>
</trkpt>
<trkpt lat="45.9565230" lon="10.1732740">
	<ele>1719.40</ele>
	<time>2025-08-03T09:11:41.000Z</time>
</trkpt>
<trkpt lat="45.9565090" lon="10.1732890">
	<ele>1719.00</ele>
	<time>2025-08-03T09:11:42.000Z</time>
</trkpt>
<trkpt lat="45.9565020" lon="10.1733010">
	<ele>1718.60</ele>
	<time>2025-08-03T09:11:43.000Z</time>
</trkpt>
<trkpt lat="45.9564960" lon="10.1733140">
	<ele>1718.20</ele>
	<time>2025-08-03T09:11:44.000Z</time>
</trkpt>
<trkpt lat="45.9564910" lon="10.1733280">
	<ele>1718.00</ele>
	<time>2025-08-03T09:11:45.000Z</time>
</trkpt>
<trkpt lat="45.9564880" lon="10.1733390">
	<ele>1717.60</ele>
	<time>2025-08-03T09:11:46.000Z</time>
</trkpt>
<trkpt lat="45.9564850" lon="10.1733510">
	<ele>1717.40</ele>
	<time>2025-08-03T09:11:47.000Z</time>
</trkpt>
<trkpt lat="45.9564800" lon="10.1733650">
	<ele>1717.20</ele>
	<time>2025-08-03T09:11:48.000Z</time>
</trkpt>
<trkpt lat="45.9564790" lon="10.1733770">
	<ele>1717.00</ele>
	<time>2025-08-03T09:11:49.000Z</time>
</trkpt>
<trkpt lat="45.9564780" lon="10.1733900">
	<ele>1716.80</ele>
	<time>2025-08-03T09:11:50.000Z</time>
</trkpt>
<trkpt lat="45.9564770" lon="10.1733980">
	<ele>1716.40</ele>
	<time>2025-08-03T09:11:51.000Z</time>
</trkpt>
<trkpt lat="45.9564730" lon="10.1734070">
	<ele>1716.00</ele>
	<time>2025-08-03T09:11:52.000Z</time>
</trkpt>
<trkpt lat="45.9564700" lon="10.1734170">
	<ele>1715.60</ele>
	<time>2025-08-03T09:11:53.000Z</time>
</trkpt>
<trkpt lat="45.9564670" lon="10.1734270">
	<ele>1715.20</ele>
	<time>2025-08-03T09:11:54.000Z</time>
</trkpt>
<trkpt lat="45.9564650" lon="10.1734430">
	<ele>1715.00</ele>
	<time>2025-08-03T09:11:55.000Z</time>
</trkpt>
<trkpt lat="45.9564590" lon="10.1734590">
	<ele>1714.40</ele>
	<time>2025-08-03T09:11:56.000Z</time>
</trkpt>
<trkpt lat="45.9564580" lon="10.1734700">
	<ele>1714.00</ele>
	<time>2025-08-03T09:11:57.000Z</time>
</trkpt>
<trkpt lat="45.9564610" lon="10.1734830">
	<ele>1713.60</ele>
	<time>2025-08-03T09:11:58.000Z</time>
</trkpt>
<trkpt lat="45.9564610" lon="10.1734990">
	<ele>1713.20</ele>
	<time>2025-08-03T09:11:59.000Z</time>
</trkpt>
<trkpt lat="45.9564580" lon="10.1735120">
	<ele>1712.80</ele>
	<time>2025-08-03T09:12:00.000Z</time>
</trkpt>
<trkpt lat="45.9564560" lon="10.1735230">
	<ele>1712.60</ele>
	<time>2025-08-03T09:12:01.000Z</time>
</trkpt>
<trkpt lat="45.9564480" lon="10.1735400">
	<ele>1712.20</ele>
	<time>2025-08-03T09:12:02.000Z</time>
</trkpt>
<trkpt lat="45.9564390" lon="10.1735540">
	<ele>1711.80</ele>
	<time>2025-08-03T09:12:03.000Z</time>
</trkpt>
<trkpt lat="45.9564330" lon="10.1735730">
	<ele>1711.60</ele>
	<time>2025-08-03T09:12:04.000Z</time>
</trkpt>
<trkpt lat="45.9564310" lon="10.1735900">
	<ele>1711.20</ele>
	<time>2025-08-03T09:12:05.000Z</time>
</trkpt>
<trkpt lat="45.9564290" lon="10.1735950">
	<ele>1711.00</ele>
	<time>2025-08-03T09:12:06.000Z</time>
</trkpt>
<trkpt lat="45.9564340" lon="10.1736020">
	<ele>1710.80</ele>
	<time>2025-08-03T09:12:07.000Z</time>
</trkpt>
<trkpt lat="45.9564330" lon="10.1736060">
	<ele>1710.20</ele>
	<time>2025-08-03T09:12:08.000Z</time>
</trkpt>
<trkpt lat="45.9564340" lon="10.1736170">
	<ele>1710.00</ele>
	<time>2025-08-03T09:12:09.000Z</time>
</trkpt>
<trkpt lat="45.9564330" lon="10.1736230">
	<ele>1709.60</ele>
	<time>2025-08-03T09:12:10.000Z</time>
</trkpt>
<trkpt lat="45.9564270" lon="10.1736320">
	<ele>1709.40</ele>
	<time>2025-08-03T09:12:11.000Z</time>
</trkpt>
<trkpt lat="45.9564200" lon="10.1736370">
	<ele>1709.00</ele>
	<time>2025-08-03T09:12:12.000Z</time>
</trkpt>
<trkpt lat="45.9564140" lon="10.1736420">
	<ele>1708.60</ele>
	<time>2025-08-03T09:12:13.000Z</time>
</trkpt>
<trkpt lat="45.9564060" lon="10.1736550">
	<ele>1708.40</ele>
	<time>2025-08-03T09:12:14.000Z</time>
</trkpt>
<trkpt lat="45.9564040" lon="10.1736610">
	<ele>1708.20</ele>
	<time>2025-08-03T09:12:15.000Z</time>
</trkpt>
<trkpt lat="45.9563980" lon="10.1736710">
	<ele>1708.00</ele>
	<time>2025-08-03T09:12:16.000Z</time>
</trkpt>
<trkpt lat="45.9563980" lon="10.1736760">
	<ele>1707.60</ele>
	<time>2025-08-03T09:12:17.000Z</time>
</trkpt>
<trkpt lat="45.9563880" lon="10.1736800">
	<ele>1707.20</ele>
	<time>2025-08-03T09:12:18.000Z</time>
</trkpt>
<trkpt lat="45.9563840" lon="10.1736900">
	<ele>1706.60</ele>
	<time>2025-08-03T09:12:19.000Z</time>
</trkpt>
<trkpt lat="45.9563780" lon="10.1736920">
	<ele>1706.40</ele>
	<time>2025-08-03T09:12:20.000Z</time>
</trkpt>
<trkpt lat="45.9563870" lon="10.1736930">
	<ele>1706.20</ele>
	<time>2025-08-03T09:12:21.000Z</time>
</trkpt>
<trkpt lat="45.9563900" lon="10.1736950">
	<ele>1706.00</ele>
	<time>2025-08-03T09:12:22.000Z</time>
</trkpt>
<trkpt lat="45.9563970" lon="10.1737130">
	<ele>1706.00</ele>
	<time>2025-08-03T09:12:23.000Z</time>
</trkpt>
<trkpt lat="45.9564020" lon="10.1737250">
	<ele>1706.00</ele>
	<time>2025-08-03T09:12:24.000Z</time>
</trkpt>
<trkpt lat="45.9564140" lon="10.1737230">
	<ele>1706.00</ele>
	<time>2025-08-03T09:12:25.000Z</time>
</trkpt>
<trkpt lat="45.9564440" lon="10.1737200">
	<ele>1706.00</ele>
	<time>2025-08-03T09:12:26.000Z</time>
</trkpt>
<trkpt lat="45.9564600" lon="10.1737210">
	<ele>1706.00</ele>
	<time>2025-08-03T09:12:27.000Z</time>
</trkpt>
<trkpt lat="45.9564700" lon="10.1737210">
	<ele>1706.00</ele>
	<time>2025-08-03T09:12:28.000Z</time>
</trkpt>
<trkpt lat="45.9564880" lon="10.1737110">
	<ele>1706.00</ele>
	<time>2025-08-03T09:12:29.000Z</time>
</trkpt>
<trkpt lat="45.9564980" lon="10.1737090">
	<ele>1706.00</ele>
	<time>2025-08-03T09:12:30.000Z</time>
</trkpt>
<trkpt lat="45.9564900" lon="10.1737090">
	<ele>1706.00</ele>
	<time>2025-08-03T09:12:31.000Z</time>
</trkpt>
<trkpt lat="45.9564870" lon="10.1737090">
	<ele>1706.00</ele>
	<time>2025-08-03T09:12:32.000Z</time>
</trkpt>
<trkpt lat="45.9564730" lon="10.1737240">
	<ele>1706.00</ele>
	<time>2025-08-03T09:12:33.000Z</time>
</trkpt>
<trkpt lat="45.9564710" lon="10.1737250">
	<ele>1706.00</ele>
	<time>2025-08-03T09:12:34.000Z</time>
</trkpt>
<trkpt lat="45.9564690" lon="10.1737230">
	<ele>1706.00</ele>
	<time>2025-08-03T09:12:35.000Z</time>
</trkpt>
<trkpt lat="45.9564600" lon="10.1737210">
	<ele>1706.00</ele>
	<time>2025-08-03T09:12:36.000Z</time>
</trkpt>
<trkpt lat="45.9564590" lon="10.1737240">
	<ele>1706.00</ele>
	<time>2025-08-03T09:12:37.000Z</time>
</trkpt>
<trkpt lat="45.9564480" lon="10.1737370">
	<ele>1705.80</ele>
	<time>2025-08-03T09:12:38.000Z</time>
</trkpt>
<trkpt lat="45.9564340" lon="10.1737490">
	<ele>1705.80</ele>
	<time>2025-08-03T09:12:39.000Z</time>
</trkpt>
<trkpt lat="45.9564260" lon="10.1737540">
	<ele>1705.80</ele>
	<time>2025-08-03T09:12:40.000Z</time>
</trkpt>
<trkpt lat="45.9564130" lon="10.1737570">
	<ele>1705.20</ele>
	<time>2025-08-03T09:12:41.000Z</time>
</trkpt>
<trkpt lat="45.9564050" lon="10.1737670">
	<ele>1704.80</ele>
	<time>2025-08-03T09:12:42.000Z</time>
</trkpt>
<trkpt lat="45.9564030" lon="10.1737740">
	<ele>1704.60</ele>
	<time>2025-08-03T09:12:43.000Z</time>
</trkpt>
<trkpt lat="45.9563960" lon="10.1737960">
	<ele>1704.60</ele>
	<time>2025-08-03T09:12:44.000Z</time>
</trkpt>
<trkpt lat="45.9563820" lon="10.1738090">
	<ele>1704.40</ele>
	<time>2025-08-03T09:12:45.000Z</time>
</trkpt>
<trkpt lat="45.9563760" lon="10.1738170">
	<ele>1704.20</ele>
	<time>2025-08-03T09:12:46.000Z</time>
</trkpt>
<trkpt lat="45.9563740" lon="10.1738350">
	<ele>1704.00</ele>
	<time>2025-08-03T09:12:47.000Z</time>
</trkpt>
<trkpt lat="45.9563740" lon="10.1738590">
	<ele>1703.60</ele>
	<time>2025-08-03T09:12:48.000Z</time>
</trkpt>
<trkpt lat="45.9563800" lon="10.1738860">
	<ele>1703.40</ele>
	<time>2025-08-03T09:12:49.000Z</time>
</trkpt>
<trkpt lat="45.9563820" lon="10.1738930">
	<ele>1702.80</ele>
	<time>2025-08-03T09:12:50.000Z</time>
</trkpt>
<trkpt lat="45.9563810" lon="10.1739030">
	<ele>1702.40</ele>
	<time>2025-08-03T09:12:51.000Z</time>
</trkpt>
<trkpt lat="45.9563780" lon="10.1739070">
	<ele>1702.00</ele>
	<time>2025-08-03T09:12:52.000Z</time>
</trkpt>
<trkpt lat="45.9563760" lon="10.1739200">
	<ele>1701.60</ele>
	<time>2025-08-03T09:12:53.000Z</time>
</trkpt>
<trkpt lat="45.9563750" lon="10.1739350">
	<ele>1701.20</ele>
	<time>2025-08-03T09:12:54.000Z</time>
</trkpt>
<trkpt lat="45.9563790" lon="10.1739460">
	<ele>1700.80</ele>
	<time>2025-08-03T09:12:55.000Z</time>
</trkpt>
<trkpt lat="45.9563820" lon="10.1739560">
	<ele>1700.60</ele>
	<time>2025-08-03T09:12:56.000Z</time>
</trkpt>
<trkpt lat="45.9563920" lon="10.1739670">
	<ele>1700.20</ele>
	<time>2025-08-03T09:12:57.000Z</time>
</trkpt>
<trkpt lat="45.9564060" lon="10.1739700">
	<ele>1699.80</ele>
	<time>2025-08-03T09:12:58.000Z</time>
</trkpt>
<trkpt lat="45.9564190" lon="10.1739670">
	<ele>1699.60</ele>
	<time>2025-08-03T09:12:59.000Z</time>
</trkpt>
<trkpt lat="45.9564340" lon="10.1739680">
	<ele>1699.40</ele>
	<time>2025-08-03T09:13:00.000Z</time>
</trkpt>
<trkpt lat="45.9564380" lon="10.1739750">
	<ele>1699.20</ele>
	<time>2025-08-03T09:13:01.000Z</time>
</trkpt>
<trkpt lat="45.9564260" lon="10.1739870">
	<ele>1698.60</ele>
	<time>2025-08-03T09:13:02.000Z</time>
</trkpt>
<trkpt lat="45.9564190" lon="10.1739960">
	<ele>1698.40</ele>
	<time>2025-08-03T09:13:03.000Z</time>
</trkpt>
<trkpt lat="45.9564090" lon="10.1740090">
	<ele>1698.00</ele>
	<time>2025-08-03T09:13:04.000Z</time>
</trkpt>
<trkpt lat="45.9564000" lon="10.1740350">
	<ele>1697.80</ele>
	<time>2025-08-03T09:13:05.000Z</time>
</trkpt>
<trkpt lat="45.9563950" lon="10.1740470">
	<ele>1697.60</ele>
	<time>2025-08-03T09:13:06.000Z</time>
</trkpt>
<trkpt lat="45.9563950" lon="10.1740510">
	<ele>1697.40</ele>
	<time>2025-08-03T09:13:07.000Z</time>
</trkpt>
<trkpt lat="45.9563970" lon="10.1740530">
	<ele>1697.00</ele>
	<time>2025-08-03T09:13:08.000Z</time>
</trkpt>
<trkpt lat="45.9563980" lon="10.1740600">
	<ele>1696.60</ele>
	<time>2025-08-03T09:13:09.000Z</time>
</trkpt>
<trkpt lat="45.9564120" lon="10.1740570">
	<ele>1696.40</ele>
	<time>2025-08-03T09:13:10.000Z</time>
</trkpt>
<trkpt lat="45.9564190" lon="10.1740620">
	<ele>1696.20</ele>
	<time>2025-08-03T09:13:11.000Z</time>
</trkpt>
<trkpt lat="45.9564170" lon="10.1740710">
	<ele>1695.60</ele>
	<time>2025-08-03T09:13:12.000Z</time>
</trkpt>
<trkpt lat="45.9564200" lon="10.1740830">
	<ele>1695.40</ele>
	<time>2025-08-03T09:13:13.000Z</time>
</trkpt>
<trkpt lat="45.9564310" lon="10.1740920">
	<ele>1695.00</ele>
	<time>2025-08-03T09:13:14.000Z</time>
</trkpt>
<trkpt lat="45.9564410" lon="10.1741070">
	<ele>1694.60</ele>
	<time>2025-08-03T09:13:15.000Z</time>
</trkpt>
<trkpt lat="45.9564420" lon="10.1741250">
	<ele>1694.40</ele>
	<time>2025-08-03T09:13:16.000Z</time>
</trkpt>
<trkpt lat="45.9564530" lon="10.1741350">
	<ele>1694.00</ele>
	<time>2025-08-03T09:13:17.000Z</time>
</trkpt>
<trkpt lat="45.9564640" lon="10.1741400">
	<ele>1693.40</ele>
	<time>2025-08-03T09:13:18.000Z</time>
</trkpt>
<trkpt lat="45.9564720" lon="10.1741490">
	<ele>1693.20</ele>
	<time>2025-08-03T09:13:19.000Z</time>
</trkpt>
<trkpt lat="45.9564760" lon="10.1741600">
	<ele>1693.00</ele>
	<time>2025-08-03T09:13:20.000Z</time>
</trkpt>
<trkpt lat="45.9564820" lon="10.1741680">
	<ele>1692.60</ele>
	<time>2025-08-03T09:13:21.000Z</time>
</trkpt>
<trkpt lat="45.9564910" lon="10.1741770">
	<ele>1692.40</ele>
	<time>2025-08-03T09:13:22.000Z</time>
</trkpt>
<trkpt lat="45.9564980" lon="10.1741900">
	<ele>1692.20</ele>
	<time>2025-08-03T09:13:23.000Z</time>
</trkpt>
<trkpt lat="45.9565030" lon="10.1742000">
	<ele>1692.00</ele>
	<time>2025-08-03T09:13:24.000Z</time>
</trkpt>
<trkpt lat="45.9565080" lon="10.1742080">
	<ele>1691.80</ele>
	<time>2025-08-03T09:13:25.000Z</time>
</trkpt>
<trkpt lat="45.9565140" lon="10.1742190">
	<ele>1691.60</ele>
	<time>2025-08-03T09:13:26.000Z</time>
</trkpt>
<trkpt lat="45.9565240" lon="10.1742300">
	<ele>1691.40</ele>
	<time>2025-08-03T09:13:27.000Z</time>
</trkpt>
<trkpt lat="45.9565310" lon="10.1742380">
	<ele>1691.20</ele>
	<time>2025-08-03T09:13:28.000Z</time>
</trkpt>
<trkpt lat="45.9565330" lon="10.1742410">
	<ele>1690.80</ele>
	<time>2025-08-03T09:13:29.000Z</time>
</trkpt>
<trkpt lat="45.9565430" lon="10.1742490">
	<ele>1690.60</ele>
	<time>2025-08-03T09:13:30.000Z</time>
</trkpt>
<trkpt lat="45.9565490" lon="10.1742520">
	<ele>1690.20</ele>
	<time>2025-08-03T09:13:31.000Z</time>
</trkpt>
<trkpt lat="45.9565560" lon="10.1742620">
	<ele>1689.80</ele>
	<time>2025-08-03T09:13:32.000Z</time>
</trkpt>
<trkpt lat="45.9565590" lon="10.1742800">
	<ele>1689.60</ele>
	<time>2025-08-03T09:13:33.000Z</time>
</trkpt>
<trkpt lat="45.9565590" lon="10.1742920">
	<ele>1689.40</ele>
	<time>2025-08-03T09:13:34.000Z</time>
</trkpt>
<trkpt lat="45.9565680" lon="10.1743040">
	<ele>1688.80</ele>
	<time>2025-08-03T09:13:35.000Z</time>
</trkpt>
<trkpt lat="45.9565760" lon="10.1743190">
	<ele>1688.60</ele>
	<time>2025-08-03T09:13:36.000Z</time>
</trkpt>
<trkpt lat="45.9565770" lon="10.1743430">
	<ele>1688.40</ele>
	<time>2025-08-03T09:13:37.000Z</time>
</trkpt>
<trkpt lat="45.9565770" lon="10.1743590">
	<ele>1688.00</ele>
	<time>2025-08-03T09:13:38.000Z</time>
</trkpt>
<trkpt lat="45.9565750" lon="10.1743740">
	<ele>1688.00</ele>
	<time>2025-08-03T09:13:39.000Z</time>
</trkpt>
<trkpt lat="45.9565850" lon="10.1743910">
	<ele>1687.40</ele>
	<time>2025-08-03T09:13:40.000Z</time>
</trkpt>
<trkpt lat="45.9565970" lon="10.1744020">
	<ele>1687.20</ele>
	<time>2025-08-03T09:13:41.000Z</time>
</trkpt>
<trkpt lat="45.9566040" lon="10.1744170">
	<ele>1687.00</ele>
	<time>2025-08-03T09:13:42.000Z</time>
</trkpt>
<trkpt lat="45.9566030" lon="10.1744450">
	<ele>1686.60</ele>
	<time>2025-08-03T09:13:43.000Z</time>
</trkpt>
<trkpt lat="45.9566130" lon="10.1744570">
	<ele>1686.00</ele>
	<time>2025-08-03T09:13:44.000Z</time>
</trkpt>
<trkpt lat="45.9566200" lon="10.1744580">
	<ele>1685.80</ele>
	<time>2025-08-03T09:13:45.000Z</time>
</trkpt>
<trkpt lat="45.9566130" lon="10.1744740">
	<ele>1685.40</ele>
	<time>2025-08-03T09:13:46.000Z</time>
</trkpt>
<trkpt lat="45.9566100" lon="10.1744840">
	<ele>1685.00</ele>
	<time>2025-08-03T09:13:47.000Z</time>
</trkpt>
<trkpt lat="45.9566050" lon="10.1745090">
	<ele>1684.80</ele>
	<time>2025-08-03T09:13:48.000Z</time>
</trkpt>
<trkpt lat="45.9566080" lon="10.1745170">
	<ele>1684.60</ele>
	<time>2025-08-03T09:13:49.000Z</time>
</trkpt>
<trkpt lat="45.9566090" lon="10.1745150">
	<ele>1684.20</ele>
	<time>2025-08-03T09:13:50.000Z</time>
</trkpt>
<trkpt lat="45.9566150" lon="10.1745180">
	<ele>1683.80</ele>
	<time>2025-08-03T09:13:51.000Z</time>
</trkpt>
<trkpt lat="45.9566150" lon="10.1745370">
	<ele>1683.40</ele>
	<time>2025-08-03T09:13:52.000Z</time>
</trkpt>
<trkpt lat="45.9566140" lon="10.1745560">
	<ele>1683.20</ele>
	<time>2025-08-03T09:13:53.000Z</time>
</trkpt>
<trkpt lat="45.9566150" lon="10.1745740">
	<ele>1682.80</ele>
	<time>2025-08-03T09:13:54.000Z</time>
</trkpt>
<trkpt lat="45.9566090" lon="10.1746030">
	<ele>1682.40</ele>
	<time>2025-08-03T09:13:55.000Z</time>
</trkpt>
<trkpt lat="45.9566140" lon="10.1746160">
	<ele>1682.00</ele>
	<time>2025-08-03T09:13:56.000Z</time>
</trkpt>
<trkpt lat="45.9566140" lon="10.1746240">
	<ele>1681.60</ele>
	<time>2025-08-03T09:13:57.000Z</time>
</trkpt>
<trkpt lat="45.9566210" lon="10.1746260">
	<ele>1681.40</ele>
	<time>2025-08-03T09:13:58.000Z</time>
</trkpt>
<trkpt lat="45.9566230" lon="10.1746300">
	<ele>1681.00</ele>
	<time>2025-08-03T09:13:59.000Z</time>
</trkpt>
<trkpt lat="45.9566260" lon="10.1746350">
	<ele>1680.80</ele>
	<time>2025-08-03T09:14:00.000Z</time>
</trkpt>
<trkpt lat="45.9566260" lon="10.1746400">
	<ele>1680.40</ele>
	<time>2025-08-03T09:14:01.000Z</time>
</trkpt>
<trkpt lat="45.9566220" lon="10.1746480">
	<ele>1680.20</ele>
	<time>2025-08-03T09:14:02.000Z</time>
</trkpt>
<trkpt lat="45.9566190" lon="10.1746530">
	<ele>1680.00</ele>
	<time>2025-08-03T09:14:03.000Z</time>
</trkpt>
<trkpt lat="45.9566210" lon="10.1746530">
	<ele>1679.80</ele>
	<time>2025-08-03T09:14:04.000Z</time>
</trkpt>
<trkpt lat="45.9566200" lon="10.1746570">
	<ele>1679.20</ele>
	<time>2025-08-03T09:14:05.000Z</time>
</trkpt>
<trkpt lat="45.9566260" lon="10.1746590">
	<ele>1679.00</ele>
	<time>2025-08-03T09:14:06.000Z</time>
</trkpt>
<trkpt lat="45.9566270" lon="10.1746780">
	<ele>1678.40</ele>
	<time>2025-08-03T09:14:07.000Z</time>
</trkpt>
<trkpt lat="45.9566230" lon="10.1746960">
	<ele>1678.00</ele>
	<time>2025-08-03T09:14:08.000Z</time>
</trkpt>
<trkpt lat="45.9566240" lon="10.1747160">
	<ele>1677.80</ele>
	<time>2025-08-03T09:14:09.000Z</time>
</trkpt>
<trkpt lat="45.9566290" lon="10.1747310">
	<ele>1677.40</ele>
	<time>2025-08-03T09:14:10.000Z</time>
</trkpt>
<trkpt lat="45.9566380" lon="10.1747420">
	<ele>1677.20</ele>
	<time>2025-08-03T09:14:11.000Z</time>
</trkpt>
<trkpt lat="45.9566360" lon="10.1747590">
	<ele>1676.80</ele>
	<time>2025-08-03T09:14:12.000Z</time>
</trkpt>
<trkpt lat="45.9566300" lon="10.1747770">
	<ele>1676.40</ele>
	<time>2025-08-03T09:14:13.000Z</time>
</trkpt>
<trkpt lat="45.9566170" lon="10.1747950">
	<ele>1676.20</ele>
	<time>2025-08-03T09:14:14.000Z</time>
</trkpt>
<trkpt lat="45.9566080" lon="10.1748060">
	<ele>1676.00</ele>
	<time>2025-08-03T09:14:15.000Z</time>
</trkpt>
<trkpt lat="45.9565980" lon="10.1748190">
	<ele>1675.60</ele>
	<time>2025-08-03T09:14:16.000Z</time>
</trkpt>
<trkpt lat="45.9565980" lon="10.1748260">
	<ele>1675.20</ele>
	<time>2025-08-03T09:14:17.000Z</time>
</trkpt>
<trkpt lat="45.9565960" lon="10.1748400">
	<ele>1674.80</ele>
	<time>2025-08-03T09:14:18.000Z</time>
</trkpt>
<trkpt lat="45.9565950" lon="10.1748580">
	<ele>1674.60</ele>
	<time>2025-08-03T09:14:19.000Z</time>
</trkpt>
<trkpt lat="45.9565910" lon="10.1748750">
	<ele>1674.00</ele>
	<time>2025-08-03T09:14:20.000Z</time>
</trkpt>
<trkpt lat="45.9565850" lon="10.1748950">
	<ele>1673.60</ele>
	<time>2025-08-03T09:14:21.000Z</time>
</trkpt>
<trkpt lat="45.9565860" lon="10.1749120">
	<ele>1673.00</ele>
	<time>2025-08-03T09:14:22.000Z</time>
</trkpt>
<trkpt lat="45.9565850" lon="10.1749150">
	<ele>1672.60</ele>
	<time>2025-08-03T09:14:23.000Z</time>
</trkpt>
<trkpt lat="45.9565800" lon="10.1749230">
	<ele>1672.40</ele>
	<time>2025-08-03T09:14:24.000Z</time>
</trkpt>
<trkpt lat="45.9565740" lon="10.1749280">
	<ele>1672.00</ele>
	<time>2025-08-03T09:14:25.000Z</time>
</trkpt>
<trkpt lat="45.9565760" lon="10.1749270">
	<ele>1671.80</ele>
	<time>2025-08-03T09:14:26.000Z</time>
</trkpt>
<trkpt lat="45.9565770" lon="10.1749260">
	<ele>1671.60</ele>
	<time>2025-08-03T09:14:27.000Z</time>
</trkpt>
<trkpt lat="45.9565760" lon="10.1749200">
	<ele>1671.40</ele>
	<time>2025-08-03T09:14:28.000Z</time>
</trkpt>
<trkpt lat="45.9565730" lon="10.1749170">
	<ele>1671.20</ele>
	<time>2025-08-03T09:14:29.000Z</time>
</trkpt>
<trkpt lat="45.9565740" lon="10.1749150">
	<ele>1671.20</ele>
	<time>2025-08-03T09:14:30.000Z</time>
</trkpt>
<trkpt lat="45.9565800" lon="10.1749120">
	<ele>1671.20</ele>
	<time>2025-08-03T09:14:31.000Z</time>
</trkpt>
<trkpt lat="45.9565850" lon="10.1749120">
	<ele>1671.20</ele>
	<time>2025-08-03T09:14:32.000Z</time>
</trkpt>
<trkpt lat="45.9565860" lon="10.1749150">
	<ele>1671.20</ele>
	<time>2025-08-03T09:14:33.000Z</time>
</trkpt>
<trkpt lat="45.9565820" lon="10.1749170">
	<ele>1671.20</ele>
	<time>2025-08-03T09:14:34.000Z</time>
</trkpt>
<trkpt lat="45.9565740" lon="10.1749240">
	<ele>1671.20</ele>
	<time>2025-08-03T09:14:35.000Z</time>
</trkpt>
<trkpt lat="45.9565720" lon="10.1749290">
	<ele>1671.20</ele>
	<time>2025-08-03T09:14:36.000Z</time>
</trkpt>
<trkpt lat="45.9565690" lon="10.1749340">
	<ele>1671.00</ele>
	<time>2025-08-03T09:14:37.000Z</time>
</trkpt>
<trkpt lat="45.9565650" lon="10.1749450">
	<ele>1671.00</ele>
	<time>2025-08-03T09:14:38.000Z</time>
</trkpt>
<trkpt lat="45.9565670" lon="10.1749520">
	<ele>1670.60</ele>
	<time>2025-08-03T09:14:39.000Z</time>
</trkpt>
<trkpt lat="45.9565590" lon="10.1749620">
	<ele>1670.40</ele>
	<time>2025-08-03T09:14:40.000Z</time>
</trkpt>
<trkpt lat="45.9565500" lon="10.1749710">
	<ele>1670.00</ele>
	<time>2025-08-03T09:14:41.000Z</time>
</trkpt>
<trkpt lat="45.9565400" lon="10.1749710">
	<ele>1670.00</ele>
	<time>2025-08-03T09:14:42.000Z</time>
</trkpt>
<trkpt lat="45.9565310" lon="10.1749760">
	<ele>1669.80</ele>
	<time>2025-08-03T09:14:43.000Z</time>
</trkpt>
<trkpt lat="45.9565280" lon="10.1749800">
	<ele>1669.60</ele>
	<time>2025-08-03T09:14:44.000Z</time>
</trkpt>
<trkpt lat="45.9565270" lon="10.1749840">
	<ele>1669.40</ele>
	<time>2025-08-03T09:14:45.000Z</time>
</trkpt>
<trkpt lat="45.9565290" lon="10.1749940">
	<ele>1669.00</ele>
	<time>2025-08-03T09:14:46.000Z</time>
</trkpt>
<trkpt lat="45.9565250" lon="10.1750050">
	<ele>1668.60</ele>
	<time>2025-08-03T09:14:47.000Z</time>
</trkpt>
<trkpt lat="45.9565230" lon="10.1750100">
	<ele>1668.20</ele>
	<time>2025-08-03T09:14:48.000Z</time>
</trkpt>
<trkpt lat="45.9565180" lon="10.1750200">
	<ele>1667.80</ele>
	<time>2025-08-03T09:14:49.000Z</time>
</trkpt>
<trkpt lat="45.9565140" lon="10.1750290">
	<ele>1667.40</ele>
	<time>2025-08-03T09:14:50.000Z</time>
</trkpt>
<trkpt lat="45.9565140" lon="10.1750310">
	<ele>1667.00</ele>
	<time>2025-08-03T09:14:51.000Z</time>
</trkpt>
<trkpt lat="45.9565220" lon="10.1750390">
	<ele>1666.60</ele>
	<time>2025-08-03T09:14:52.000Z</time>
</trkpt>
<trkpt lat="45.9565320" lon="10.1750440">
	<ele>1666.20</ele>
	<time>2025-08-03T09:14:53.000Z</time>
</trkpt>
<trkpt lat="45.9565470" lon="10.1750470">
	<ele>1666.00</ele>
	<time>2025-08-03T09:14:54.000Z</time>
</trkpt>
<trkpt lat="45.9565510" lon="10.1750510">
	<ele>1665.80</ele>
	<time>2025-08-03T09:14:55.000Z</time>
</trkpt>
<trkpt lat="45.9565490" lon="10.1750620">
	<ele>1665.60</ele>
	<time>2025-08-03T09:14:56.000Z</time>
</trkpt>
<trkpt lat="45.9565390" lon="10.1750830">
	<ele>1665.20</ele>
	<time>2025-08-03T09:14:57.000Z</time>
</trkpt>
<trkpt lat="45.9565330" lon="10.1750960">
	<ele>1665.00</ele>
	<time>2025-08-03T09:14:58.000Z</time>
</trkpt>
<trkpt lat="45.9565270" lon="10.1751130">
	<ele>1665.00</ele>
	<time>2025-08-03T09:14:59.000Z</time>
</trkpt>
<trkpt lat="45.9565210" lon="10.1751260">
	<ele>1664.80</ele>
	<time>2025-08-03T09:15:00.000Z</time>
</trkpt>
<trkpt lat="45.9565150" lon="10.1751420">
	<ele>1664.40</ele>
	<time>2025-08-03T09:15:01.000Z</time>
</trkpt>
<trkpt lat="45.9565150" lon="10.1751510">
	<ele>1664.00</ele>
	<time>2025-08-03T09:15:02.000Z</time>
</trkpt>
<trkpt lat="45.9565160" lon="10.1751570">
	<ele>1663.60</ele>
	<time>2025-08-03T09:15:03.000Z</time>
</trkpt>
<trkpt lat="45.9565220" lon="10.1751580">
	<ele>1663.00</ele>
	<time>2025-08-03T09:15:04.000Z</time>
</trkpt>
<trkpt lat="45.9565330" lon="10.1751580">
	<ele>1662.80</ele>
	<time>2025-08-03T09:15:05.000Z</time>
</trkpt>
<trkpt lat="45.9565510" lon="10.1751540">
	<ele>1662.60</ele>
	<time>2025-08-03T09:15:06.000Z</time>
</trkpt>
<trkpt lat="45.9565570" lon="10.1751590">
	<ele>1662.20</ele>
	<time>2025-08-03T09:15:07.000Z</time>
</trkpt>
<trkpt lat="45.9565550" lon="10.1751690">
	<ele>1662.00</ele>
	<time>2025-08-03T09:15:08.000Z</time>
</trkpt>
<trkpt lat="45.9565480" lon="10.1751820">
	<ele>1661.80</ele>
	<time>2025-08-03T09:15:09.000Z</time>
</trkpt>
<trkpt lat="45.9565420" lon="10.1751940">
	<ele>1661.40</ele>
	<time>2025-08-03T09:15:10.000Z</time>
</trkpt>
<trkpt lat="45.9565440" lon="10.1752090">
	<ele>1661.20</ele>
	<time>2025-08-03T09:15:11.000Z</time>
</trkpt>
<trkpt lat="45.9565400" lon="10.1752260">
	<ele>1660.80</ele>
	<time>2025-08-03T09:15:12.000Z</time>
</trkpt>
<trkpt lat="45.9565430" lon="10.1752380">
	<ele>1660.40</ele>
	<time>2025-08-03T09:15:13.000Z</time>
</trkpt>
<trkpt lat="45.9565500" lon="10.1752440">
	<ele>1660.40</ele>
	<time>2025-08-03T09:15:14.000Z</time>
</trkpt>
<trkpt lat="45.9565530" lon="10.1752470">
	<ele>1660.20</ele>
	<time>2025-08-03T09:15:15.000Z</time>
</trkpt>
<trkpt lat="45.9565510" lon="10.1752560">
	<ele>1659.80</ele>
	<time>2025-08-03T09:15:16.000Z</time>
</trkpt>
<trkpt lat="45.9565530" lon="10.1752590">
	<ele>1659.20</ele>
	<time>2025-08-03T09:15:17.000Z</time>
</trkpt>
<trkpt lat="45.9565680" lon="10.1752690">
	<ele>1659.00</ele>
	<time>2025-08-03T09:15:18.000Z</time>
</trkpt>
<trkpt lat="45.9565680" lon="10.1752860">
	<ele>1658.40</ele>
	<time>2025-08-03T09:15:19.000Z</time>
</trkpt>
<trkpt lat="45.9565660" lon="10.1753010">
	<ele>1658.00</ele>
	<time>2025-08-03T09:15:20.000Z</time>
</trkpt>
<trkpt lat="45.9565640" lon="10.1753140">
	<ele>1657.80</ele>
	<time>2025-08-03T09:15:21.000Z</time>
</trkpt>
<trkpt lat="45.9565670" lon="10.1753280">
	<ele>1657.40</ele>
	<time>2025-08-03T09:15:22.000Z</time>
</trkpt>
<trkpt lat="45.9565660" lon="10.1753320">
	<ele>1657.00</ele>
	<time>2025-08-03T09:15:23.000Z</time>
</trkpt>
<trkpt lat="45.9565730" lon="10.1753490">
	<ele>1656.80</ele>
	<time>2025-08-03T09:15:24.000Z</time>
</trkpt>
<trkpt lat="45.9565760" lon="10.1753560">
	<ele>1656.60</ele>
	<time>2025-08-03T09:15:25.000Z</time>
</trkpt>
<trkpt lat="45.9565770" lon="10.1753610">
	<ele>1656.40</ele>
	<time>2025-08-03T09:15:26.000Z</time>
</trkpt>
<trkpt lat="45.9565790" lon="10.1753610">
	<ele>1656.20</ele>
	<time>2025-08-03T09:15:27.000Z</time>
</trkpt>
<trkpt lat="45.9565770" lon="10.1753620">
	<ele>1655.60</ele>
	<time>2025-08-03T09:15:28.000Z</time>
</trkpt>
<trkpt lat="45.9565840" lon="10.1753690">
	<ele>1655.20</ele>
	<time>2025-08-03T09:15:29.000Z</time>
</trkpt>
<trkpt lat="45.9565960" lon="10.1753840">
	<ele>1654.80</ele>
	<time>2025-08-03T09:15:30.000Z</time>
</trkpt>
<trkpt lat="45.9566010" lon="10.1753980">
	<ele>1654.40</ele>
	<time>2025-08-03T09:15:31.000Z</time>
</trkpt>
<trkpt lat="45.9565980" lon="10.1754130">
	<ele>1654.00</ele>
	<time>2025-08-03T09:15:32.000Z</time>
</trkpt>
<trkpt lat="45.9565930" lon="10.1754250">
	<ele>1653.80</ele>
	<time>2025-08-03T09:15:33.000Z</time>
</trkpt>
<trkpt lat="45.9565940" lon="10.1754300">
	<ele>1653.20</ele>
	<time>2025-08-03T09:15:34.000Z</time>
</trkpt>
<trkpt lat="45.9565940" lon="10.1754310">
	<ele>1653.00</ele>
	<time>2025-08-03T09:15:35.000Z</time>
</trkpt>
<trkpt lat="45.9565950" lon="10.1754410">
	<ele>1652.80</ele>
	<time>2025-08-03T09:15:36.000Z</time>
</trkpt>
<trkpt lat="45.9566070" lon="10.1754460">
	<ele>1652.60</ele>
	<time>2025-08-03T09:15:37.000Z</time>
</trkpt>
<trkpt lat="45.9566150" lon="10.1754530">
	<ele>1652.20</ele>
	<time>2025-08-03T09:15:38.000Z</time>
</trkpt>
<trkpt lat="45.9566130" lon="10.1754750">
	<ele>1651.60</ele>
	<time>2025-08-03T09:15:39.000Z</time>
</trkpt>
<trkpt lat="45.9566110" lon="10.1754850">
	<ele>1651.40</ele>
	<time>2025-08-03T09:15:40.000Z</time>
</trkpt>
<trkpt lat="45.9566050" lon="10.1754960">
	<ele>1651.00</ele>
	<time>2025-08-03T09:15:41.000Z</time>
</trkpt>
<trkpt lat="45.9565960" lon="10.1755030">
	<ele>1650.80</ele>
	<time>2025-08-03T09:15:42.000Z</time>
</trkpt>
<trkpt lat="45.9565880" lon="10.1755060">
	<ele>1650.60</ele>
	<time>2025-08-03T09:15:43.000Z</time>
</trkpt>
<trkpt lat="45.9565850" lon="10.1755050">
	<ele>1650.20</ele>
	<time>2025-08-03T09:15:44.000Z</time>
</trkpt>
<trkpt lat="45.9565780" lon="10.1755150">
	<ele>1650.00</ele>
	<time>2025-08-03T09:15:45.000Z</time>
</trkpt>
<trkpt lat="45.9565720" lon="10.1755140">
	<ele>1649.80</ele>
	<time>2025-08-03T09:15:46.000Z</time>
</trkpt>
<trkpt lat="45.9565700" lon="10.1755150">
	<ele>1649.60</ele>
	<time>2025-08-03T09:15:47.000Z</time>
</trkpt>
<trkpt lat="45.9565650" lon="10.1755320">
	<ele>1649.20</ele>
	<time>2025-08-03T09:15:48.000Z</time>
</trkpt>
<trkpt lat="45.9565620" lon="10.1755470">
	<ele>1648.80</ele>
	<time>2025-08-03T09:15:49.000Z</time>
</trkpt>
<trkpt lat="45.9565600" lon="10.1755610">
	<ele>1648.40</ele>
	<time>2025-08-03T09:15:50.000Z</time>
</trkpt>
<trkpt lat="45.9565520" lon="10.1755640">
	<ele>1648.20</ele>
	<time>2025-08-03T09:15:51.000Z</time>
</trkpt>
<trkpt lat="45.9565410" lon="10.1755700">
	<ele>1648.00</ele>
	<time>2025-08-03T09:15:52.000Z</time>
</trkpt>
<trkpt lat="45.9565350" lon="10.1755710">
	<ele>1647.80</ele>
	<time>2025-08-03T09:15:53.000Z</time>
</trkpt>
<trkpt lat="45.9565310" lon="10.1755700">
	<ele>1647.60</ele>
	<time>2025-08-03T09:15:54.000Z</time>
</trkpt>
<trkpt lat="45.9565290" lon="10.1755540">
	<ele>1647.20</ele>
	<time>2025-08-03T09:15:55.000Z</time>
</trkpt>
<trkpt lat="45.9565180" lon="10.1755450">
	<ele>1646.80</ele>
	<time>2025-08-03T09:15:56.000Z</time>
</trkpt>
<trkpt lat="45.9565090" lon="10.1755390">
	<ele>1646.60</ele>
	<time>2025-08-03T09:15:57.000Z</time>
</trkpt>
<trkpt lat="45.9565160" lon="10.1755280">
	<ele>1646.40</ele>
	<time>2025-08-03T09:15:58.000Z</time>
</trkpt>
<trkpt lat="45.9565240" lon="10.1755170">
	<ele>1646.20</ele>
	<time>2025-08-03T09:15:59.000Z</time>
</trkpt>
<trkpt lat="45.9565180" lon="10.1755340">
	<ele>1645.80</ele>
	<time>2025-08-03T09:16:00.000Z</time>
</trkpt>
<trkpt lat="45.9565190" lon="10.1755450">
	<ele>1645.40</ele>
	<time>2025-08-03T09:16:01.000Z</time>
</trkpt>
<trkpt lat="45.9565210" lon="10.1755640">
	<ele>1645.20</ele>
	<time>2025-08-03T09:16:02.000Z</time>
</trkpt>
<trkpt lat="45.9565210" lon="10.1755750">
	<ele>1645.00</ele>
	<time>2025-08-03T09:16:03.000Z</time>
</trkpt>
<trkpt lat="45.9565260" lon="10.1755810">
	<ele>1644.80</ele>
	<time>2025-08-03T09:16:04.000Z</time>
</trkpt>
<trkpt lat="45.9565230" lon="10.1755900">
	<ele>1644.40</ele>
	<time>2025-08-03T09:16:05.000Z</time>
</trkpt>
<trkpt lat="45.9565120" lon="10.1755840">
	<ele>1644.00</ele>
	<time>2025-08-03T09:16:06.000Z</time>
</trkpt>
<trkpt lat="45.9565030" lon="10.1755910">
	<ele>1643.80</ele>
	<time>2025-08-03T09:16:07.000Z</time>
</trkpt>
<trkpt lat="45.9564920" lon="10.1756040">
	<ele>1643.40</ele>
	<time>2025-08-03T09:16:08.000Z</time>
</trkpt>
<trkpt lat="45.9564780" lon="10.1756220">
	<ele>1643.20</ele>
	<time>2025-08-03T09:16:09.000Z</time>
</trkpt>
<trkpt lat="45.9564670" lon="10.1756350">
	<ele>1643.00</ele>
	<time>2025-08-03T09:16:10.000Z</time>
</trkpt>
<trkpt lat="45.9564490" lon="10.1756410">
	<ele>1642.80</ele>
	<time>2025-08-03T09:16:11.000Z</time>
</trkpt>
<trkpt lat="45.9564420" lon="10.1756430">
	<ele>1642.60</ele>
	<time>2025-08-03T09:16:12.000Z</time>
</trkpt>
<trkpt lat="45.9564370" lon="10.1756460">
	<ele>1642.40</ele>
	<time>2025-08-03T09:16:13.000Z</time>
</trkpt>
<trkpt lat="45.9564260" lon="10.1756550">
	<ele>1642.20</ele>
	<time>2025-08-03T09:16:14.000Z</time>
</trkpt>
<trkpt lat="45.9564160" lon="10.1756510">
	<ele>1642.00</ele>
	<time>2025-08-03T09:16:15.000Z</time>
</trkpt>
<trkpt lat="45.9564100" lon="10.1756510">
	<ele>1642.00</ele>
	<time>2025-08-03T09:16:16.000Z</time>
</trkpt>
<trkpt lat="45.9564060" lon="10.1756550">
	<ele>1641.60</ele>
	<time>2025-08-03T09:16:17.000Z</time>
</trkpt>
<trkpt lat="45.9564020" lon="10.1756650">
	<ele>1641.20</ele>
	<time>2025-08-03T09:16:18.000Z</time>
</trkpt>
<trkpt lat="45.9563950" lon="10.1756830">
	<ele>1640.80</ele>
	<time>2025-08-03T09:16:19.000Z</time>
</trkpt>
<trkpt lat="45.9564180" lon="10.1759310">
	<ele>1631.40</ele>
	<time>2025-08-03T09:30:59.000Z</time>
</trkpt>
<trkpt lat="45.9564240" lon="10.1759370">
	<ele>1631.00</ele>
	<time>2025-08-03T09:31:00.000Z</time>
</trkpt>
<trkpt lat="45.9564290" lon="10.1759370">
	<ele>1630.60</ele>
	<time>2025-08-03T09:31:01.000Z</time>
</trkpt>
<trkpt lat="45.9564310" lon="10.1759430">
	<ele>1630.20</ele>
	<time>2025-08-03T09:31:02.000Z</time>
</trkpt>
<trkpt lat="45.9564350" lon="10.1759600">
	<ele>1630.00</ele>
	<time>2025-08-03T09:31:03.000Z</time>
</trkpt>
<trkpt lat="45.9564430" lon="10.1759680">
	<ele>1629.80</ele>
	<time>2025-08-03T09:31:04.000Z</time>
</trkpt>
<trkpt lat="45.9564500" lon="10.1759730">
	<ele>1629.60</ele>
	<time>2025-08-03T09:31:05.000Z</time>
</trkpt>
<trkpt lat="45.9564560" lon="10.1759770">
	<ele>1629.20</ele>
	<time>2025-08-03T09:31:06.000Z</time>
</trkpt>
<trkpt lat="45.9564660" lon="10.1759810">
	<ele>1629.00</ele>
	<time>2025-08-03T09:31:07.000Z</time>
</trkpt>
<trkpt lat="45.9564760" lon="10.1759850">
	<ele>1628.60</ele>
	<time>2025-08-03T09:31:08.000Z</time>
</trkpt>
<trkpt lat="45.9564880" lon="10.1759900">
	<ele>1628.20</ele>
	<time>2025-08-03T09:31:09.000Z</time>
</trkpt>
<trkpt lat="45.9565000" lon="10.1759930">
	<ele>1627.80</ele>
	<time>2025-08-03T09:31:10.000Z</time>
</trkpt>
<trkpt lat="45.9565100" lon="10.1759860">
	<ele>1627.60</ele>
	<time>2025-08-03T09:31:11.000Z</time>
</trkpt>
<trkpt lat="45.9565150" lon="10.1759850">
	<ele>1627.60</ele>
	<time>2025-08-03T09:31:12.000Z</time>
</trkpt>
<trkpt lat="45.9565150" lon="10.1759960">
	<ele>1627.20</ele>
	<time>2025-08-03T09:31:13.000Z</time>
</trkpt>
<trkpt lat="45.9565150" lon="10.1760120">
	<ele>1627.00</ele>
	<time>2025-08-03T09:31:14.000Z</time>
</trkpt>
<trkpt lat="45.9565170" lon="10.1760210">
	<ele>1626.80</ele>
	<time>2025-08-03T09:31:15.000Z</time>
</trkpt>
<trkpt lat="45.9565180" lon="10.1760230">
	<ele>1626.80</ele>
	<time>2025-08-03T09:31:16.000Z</time>
</trkpt>
<trkpt lat="45.9565180" lon="10.1760270">
	<ele>1626.20</ele>
	<time>2025-08-03T09:31:17.000Z</time>
</trkpt>
<trkpt lat="45.9565190" lon="10.1760260">
	<ele>1626.00</ele>
	<time>2025-08-03T09:31:18.000Z</time>
</trkpt>
<trkpt lat="45.9565190" lon="10.1760290">
	<ele>1625.80</ele>
	<time>2025-08-03T09:31:19.000Z</time>
</trkpt>
<trkpt lat="45.9565210" lon="10.1760330">
	<ele>1625.60</ele>
	<time>2025-08-03T09:31:20.000Z</time>
</trkpt>
<trkpt lat="45.9565250" lon="10.1760310">
	<ele>1625.40</ele>
	<time>2025-08-03T09:31:21.000Z</time>
</trkpt>
<trkpt lat="45.9565250" lon="10.1760310">
	<ele>1625.20</ele>
	<time>2025-08-03T09:31:22.000Z</time>
</trkpt>
<trkpt lat="45.9565230" lon="10.1760280">
	<ele>1625.20</ele>
	<time>2025-08-03T09:31:23.000Z</time>
</trkpt>
<trkpt lat="45.9565210" lon="10.1760260">
	<ele>1625.20</ele>
	<time>2025-08-03T09:31:24.000Z</time>
</trkpt>
<trkpt lat="45.9565220" lon="10.1760200">
	<ele>1625.00</ele>
	<time>2025-08-03T09:31:25.000Z</time>
</trkpt>
<trkpt lat="45.9565210" lon="10.1760240">
	<ele>1625.00</ele>
	<time>2025-08-03T09:31:26.000Z</time>
</trkpt>
<trkpt lat="45.9565250" lon="10.1760310">
	<ele>1625.00</ele>
	<time>2025-08-03T09:31:27.000Z</time>
</trkpt>
<trkpt lat="45.9565280" lon="10.1760420">
	<ele>1625.00</ele>
	<time>2025-08-03T09:31:28.000Z</time>
</trkpt>
<trkpt lat="45.9565300" lon="10.1760600">
	<ele>1625.00</ele>
	<time>2025-08-03T09:31:29.000Z</time>
</trkpt>
<trkpt lat="45.9565350" lon="10.1760710">
	<ele>1625.00</ele>
	<time>2025-08-03T09:31:30.000Z</time>
</trkpt>
<trkpt lat="45.9565380" lon="10.1760730">
	<ele>1625.00</ele>
	<time>2025-08-03T09:31:31.000Z</time>
</trkpt>
<trkpt lat="45.9565370" lon="10.1760730">
	<ele>1625.00</ele>
	<time>2025-08-03T09:31:32.000Z</time>
</trkpt>
<trkpt lat="45.9565370" lon="10.1760730">
	<ele>1625.00</ele>
	<time>2025-08-03T09:31:33.000Z</time>
</trkpt>
<trkpt lat="45.9565320" lon="10.1760730">
	<ele>1624.60</ele>
	<time>2025-08-03T09:31:34.000Z</time>
</trkpt>
<trkpt lat="45.9565340" lon="10.1760720">
	<ele>1624.40</ele>
	<time>2025-08-03T09:31:35.000Z</time>
</trkpt>
<trkpt lat="45.9565440" lon="10.1760710">
	<ele>1624.40</ele>
	<time>2025-08-03T09:31:36.000Z</time>
</trkpt>
<trkpt lat="45.9565540" lon="10.1760770">
	<ele>1624.20</ele>
	<time>2025-08-03T09:31:37.000Z</time>
</trkpt>
<trkpt lat="45.9565600" lon="10.1760900">
	<ele>1624.20</ele>
	<time>2025-08-03T09:31:38.000Z</time>
</trkpt>
<trkpt lat="45.9565640" lon="10.1761010">
	<ele>1624.00</ele>
	<time>2025-08-03T09:31:39.000Z</time>
</trkpt>
<trkpt lat="45.9565720" lon="10.1761160">
	<ele>1624.00</ele>
	<time>2025-08-03T09:31:40.000Z</time>
</trkpt>
<trkpt lat="45.9565770" lon="10.1761190">
	<ele>1623.80</ele>
	<time>2025-08-03T09:31:41.000Z</time>
</trkpt>
<trkpt lat="45.9565800" lon="10.1761280">
	<ele>1623.60</ele>
	<time>2025-08-03T09:31:42.000Z</time>
</trkpt>
<trkpt lat="45.9565840" lon="10.1761330">
	<ele>1623.40</ele>
	<time>2025-08-03T09:31:43.000Z</time>
</trkpt>
<trkpt lat="45.9565890" lon="10.1761340">
	<ele>1623.20</ele>
	<time>2025-08-03T09:31:44.000Z</time>
</trkpt>
<trkpt lat="45.9565940" lon="10.1761430">
	<ele>1623.20</ele>
	<time>2025-08-03T09:31:45.000Z</time>
</trkpt>
<trkpt lat="45.9565980" lon="10.1761550">
	<ele>1622.80</ele>
	<time>2025-08-03T09:31:46.000Z</time>
</trkpt>
<trkpt lat="45.9566000" lon="10.1761640">
	<ele>1622.60</ele>
	<time>2025-08-03T09:31:47.000Z</time>
</trkpt>
<trkpt lat="45.9565990" lon="10.1761650">
	<ele>1622.20</ele>
	<time>2025-08-03T09:31:48.000Z</time>
</trkpt>
<trkpt lat="45.9565940" lon="10.1761540">
	<ele>1621.60</ele>
	<time>2025-08-03T09:31:49.000Z</time>
</trkpt>
<trkpt lat="45.9565870" lon="10.1761430">
	<ele>1621.00</ele>
	<time>2025-08-03T09:31:50.000Z</time>
</trkpt>
<trkpt lat="45.9565910" lon="10.1761370">
	<ele>1620.60</ele>
	<time>2025-08-03T09:31:51.000Z</time>
</trkpt>
<trkpt lat="45.9565970" lon="10.1761300">
	<ele>1620.40</ele>
	<time>2025-08-03T09:31:52.000Z</time>
</trkpt>
<trkpt lat="45.9566080" lon="10.1761380">
	<ele>1620.20</ele>
	<time>2025-08-03T09:31:53.000Z</time>
</trkpt>
<trkpt lat="45.9566210" lon="10.1761500">
	<ele>1620.00</ele>
	<time>2025-08-03T09:31:54.000Z</time>
</trkpt>
<trkpt lat="45.9566310" lon="10.1761640">
	<ele>1619.80</ele>
	<time>2025-08-03T09:31:55.000Z</time>
</trkpt>
<trkpt lat="45.9566410" lon="10.1761770">
	<ele>1619.40</ele>
	<time>2025-08-03T09:31:56.000Z</time>
</trkpt>
<trkpt lat="45.9566480" lon="10.1761980">
	<ele>1619.20</ele>
	<time>2025-08-03T09:31:57.000Z</time>
</trkpt>
<trkpt lat="45.9566550" lon="10.1762160">
	<ele>1619.00</ele>
	<time>2025-08-03T09:31:58.000Z</time>
</trkpt>
<trkpt lat="45.9566650" lon="10.1762300">
	<ele>1618.60</ele>
	<time>2025-08-03T09:31:59.000Z</time>
</trkpt>
<trkpt lat="45.9566710" lon="10.1762450">
	<ele>1618.40</ele>
	<time>2025-08-03T09:32:00.000Z</time>
</trkpt>
<trkpt lat="45.9566800" lon="10.1762650">
	<ele>1618.00</ele>
	<time>2025-08-03T09:32:01.000Z</time>
</trkpt>
<trkpt lat="45.9566920" lon="10.1762850">
	<ele>1617.80</ele>
	<time>2025-08-03T09:32:02.000Z</time>
</trkpt>
<trkpt lat="45.9567040" lon="10.1762980">
	<ele>1617.80</ele>
	<time>2025-08-03T09:32:03.000Z</time>
</trkpt>
<trkpt lat="45.9567170" lon="10.1763320">
	<ele>1617.60</ele>
	<time>2025-08-03T09:32:04.000Z</time>
</trkpt>
<trkpt lat="45.9567330" lon="10.1763500">
	<ele>1617.40</ele>
	<time>2025-08-03T09:32:05.000Z</time>
</trkpt>
<trkpt lat="45.9567470" lon="10.1763660">
	<ele>1617.20</ele>
	<time>2025-08-03T09:32:06.000Z</time>
</trkpt>
<trkpt lat="45.9567670" lon="10.1763680">
	<ele>1616.80</ele>
	<time>2025-08-03T09:32:07.000Z</time>
</trkpt>
<trkpt lat="45.9567820" lon="10.1763670">
	<ele>1616.40</ele>
	<time>2025-08-03T09:32:08.000Z</time>
</trkpt>
<trkpt lat="45.9567950" lon="10.1763630">
	<ele>1616.20</ele>
	<time>2025-08-03T09:32:09.000Z</time>
</trkpt>
<trkpt lat="45.9568080" lon="10.1763740">
	<ele>1615.80</ele>
	<time>2025-08-03T09:32:10.000Z</time>
</trkpt>
<trkpt lat="45.9568200" lon="10.1763950">
	<ele>1615.60</ele>
	<time>2025-08-03T09:32:11.000Z</time>
</trkpt>
<trkpt lat="45.9568270" lon="10.1764240">
	<ele>1615.40</ele>
	<time>2025-08-03T09:32:12.000Z</time>
</trkpt>
<trkpt lat="45.9568410" lon="10.1764440">
	<ele>1615.20</ele>
	<time>2025-08-03T09:32:13.000Z</time>
</trkpt>
<trkpt lat="45.9568490" lon="10.1764610">
	<ele>1614.80</ele>
	<time>2025-08-03T09:32:14.000Z</time>
</trkpt>
<trkpt lat="45.9568630" lon="10.1764630">
	<ele>1614.40</ele>
	<time>2025-08-03T09:32:15.000Z</time>
</trkpt>
<trkpt lat="45.9568810" lon="10.1764710">
	<ele>1613.80</ele>
	<time>2025-08-03T09:32:16.000Z</time>
</trkpt>
<trkpt lat="45.9568970" lon="10.1764870">
	<ele>1613.40</ele>
	<time>2025-08-03T09:32:17.000Z</time>
</trkpt>
<trkpt lat="45.9569070" lon="10.1765020">
	<ele>1613.00</ele>
	<time>2025-08-03T09:32:18.000Z</time>
</trkpt>
<trkpt lat="45.9569200" lon="10.1765160">
	<ele>1612.60</ele>
	<time>2025-08-03T09:32:19.000Z</time>
</trkpt>
<trkpt lat="45.9569290" lon="10.1765340">
	<ele>1612.40</ele>
	<time>2025-08-03T09:32:20.000Z</time>
</trkpt>
<trkpt lat="45.9569440" lon="10.1765550">
	<ele>1612.00</ele>
	<time>2025-08-03T09:32:21.000Z</time>
</trkpt>
<trkpt lat="45.9569550" lon="10.1765720">
	<ele>1611.60</ele>
	<time>2025-08-03T09:32:22.000Z</time>
</trkpt>
<trkpt lat="45.9569670" lon="10.1765690">
	<ele>1611.40</ele>
	<time>2025-08-03T09:32:23.000Z</time>
</trkpt>
<trkpt lat="45.9569920" lon="10.1765550">
	<ele>1611.20</ele>
	<time>2025-08-03T09:32:24.000Z</time>
</trkpt>
<trkpt lat="45.9570030" lon="10.1765540">
	<ele>1611.20</ele>
	<time>2025-08-03T09:32:25.000Z</time>
</trkpt>
<trkpt lat="45.9570140" lon="10.1765690">
	<ele>1610.80</ele>
	<time>2025-08-03T09:32:26.000Z</time>
</trkpt>
<trkpt lat="45.9570150" lon="10.1765870">
	<ele>1610.60</ele>
	<time>2025-08-03T09:32:27.000Z</time>
</trkpt>
<trkpt lat="45.9570140" lon="10.1766080">
	<ele>1610.00</ele>
	<time>2025-08-03T09:32:28.000Z</time>
</trkpt>
<trkpt lat="45.9570090" lon="10.1766200">
	<ele>1609.60</ele>
	<time>2025-08-03T09:32:29.000Z</time>
</trkpt>
<trkpt lat="45.9570070" lon="10.1766340">
	<ele>1609.20</ele>
	<time>2025-08-03T09:32:30.000Z</time>
</trkpt>
<trkpt lat="45.9570050" lon="10.1766410">
	<ele>1609.00</ele>
	<time>2025-08-03T09:32:31.000Z</time>
</trkpt>
<trkpt lat="45.9570040" lon="10.1766460">
	<ele>1608.80</ele>
	<time>2025-08-03T09:32:32.000Z</time>
</trkpt>
<trkpt lat="45.9570050" lon="10.1766530">
	<ele>1608.60</ele>
	<time>2025-08-03T09:32:33.000Z</time>
</trkpt>
<trkpt lat="45.9570050" lon="10.1766680">
	<ele>1608.40</ele>
	<time>2025-08-03T09:32:34.000Z</time>
</trkpt>
<trkpt lat="45.9570000" lon="10.1766820">
	<ele>1608.40</ele>
	<time>2025-08-03T09:32:35.000Z</time>
</trkpt>
<trkpt lat="45.9569950" lon="10.1766980">
	<ele>1608.00</ele>
	<time>2025-08-03T09:32:36.000Z</time>
</trkpt>
<trkpt lat="45.9569960" lon="10.1767070">
	<ele>1607.60</ele>
	<time>2025-08-03T09:32:37.000Z</time>
</trkpt>
<trkpt lat="45.9570000" lon="10.1767170">
	<ele>1607.20</ele>
	<time>2025-08-03T09:32:38.000Z</time>
</trkpt>
<trkpt lat="45.9569970" lon="10.1767320">
	<ele>1606.80</ele>
	<time>2025-08-03T09:32:39.000Z</time>
</trkpt>
<trkpt lat="45.9569950" lon="10.1767440">
	<ele>1606.40</ele>
	<time>2025-08-03T09:32:40.000Z</time>
</trkpt>
<trkpt lat="45.9569930" lon="10.1767630">
	<ele>1606.00</ele>
	<time>2025-08-03T09:32:41.000Z</time>
</trkpt>
<trkpt lat="45.9569890" lon="10.1767800">
	<ele>1605.60</ele>
	<time>2025-08-03T09:32:42.000Z</time>
</trkpt>
<trkpt lat="45.9569870" lon="10.1767930">
	<ele>1605.00</ele>
	<time>2025-08-03T09:32:43.000Z</time>
</trkpt>
<trkpt lat="45.9569840" lon="10.1768070">
	<ele>1604.80</ele>
	<time>2025-08-03T09:32:44.000Z</time>
</trkpt>
<trkpt lat="45.9569820" lon="10.1768200">
	<ele>1604.40</ele>
	<time>2025-08-03T09:32:45.000Z</time>
</trkpt>
<trkpt lat="45.9569720" lon="10.1768350">
	<ele>1603.80</ele>
	<time>2025-08-03T09:32:46.000Z</time>
</trkpt>
<trkpt lat="45.9569610" lon="10.1768540">
	<ele>1603.40</ele>
	<time>2025-08-03T09:32:47.000Z</time>
</trkpt>
<trkpt lat="45.9569570" lon="10.1768680">
	<ele>1603.20</ele>
	<time>2025-08-03T09:32:48.000Z</time>
</trkpt>
<trkpt lat="45.9569460" lon="10.1768800">
	<ele>1603.00</ele>
	<time>2025-08-03T09:32:49.000Z</time>
</trkpt>
<trkpt lat="45.9569340" lon="10.1768980">
	<ele>1602.60</ele>
	<time>2025-08-03T09:32:50.000Z</time>
</trkpt>
<trkpt lat="45.9569210" lon="10.1769170">
	<ele>1602.20</ele>
	<time>2025-08-03T09:32:51.000Z</time>
</trkpt>
<trkpt lat="45.9569090" lon="10.1769260">
	<ele>1601.80</ele>
	<time>2025-08-03T09:32:52.000Z</time>
</trkpt>
<trkpt lat="45.9569000" lon="10.1769350">
	<ele>1601.40</ele>
	<time>2025-08-03T09:32:53.000Z</time>
</trkpt>
<trkpt lat="45.9568870" lon="10.1769450">
	<ele>1601.00</ele>
	<time>2025-08-03T09:32:54.000Z</time>
</trkpt>
<trkpt lat="45.9568760" lon="10.1769600">
	<ele>1600.80</ele>
	<time>2025-08-03T09:32:55.000Z</time>
</trkpt>
<trkpt lat="45.9568680" lon="10.1769700">
	<ele>1600.60</ele>
	<time>2025-08-03T09:32:56.000Z</time>
</trkpt>
<trkpt lat="45.9568590" lon="10.1769840">
	<ele>1600.20</ele>
	<time>2025-08-03T09:32:57.000Z</time>
</trkpt>
<trkpt lat="45.9568540" lon="10.1769920">
	<ele>1600.00</ele>
	<time>2025-08-03T09:32:58.000Z</time>
</trkpt>
<trkpt lat="45.9568490" lon="10.1770030">
	<ele>1599.40</ele>
	<time>2025-08-03T09:32:59.000Z</time>
</trkpt>
<trkpt lat="45.9568420" lon="10.1770190">
	<ele>1599.00</ele>
	<time>2025-08-03T09:33:00.000Z</time>
</trkpt>
<trkpt lat="45.9568340" lon="10.1770420">
	<ele>1598.80</ele>
	<time>2025-08-03T09:33:01.000Z</time>
</trkpt>
<trkpt lat="45.9568320" lon="10.1770430">
	<ele>1598.60</ele>
	<time>2025-08-03T09:33:02.000Z</time>
</trkpt>
<trkpt lat="45.9568270" lon="10.1770420">
	<ele>1598.20</ele>
	<time>2025-08-03T09:33:03.000Z</time>
</trkpt>
<trkpt lat="45.9568180" lon="10.1770510">
	<ele>1598.00</ele>
	<time>2025-08-03T09:33:04.000Z</time>
</trkpt>
<trkpt lat="45.9568040" lon="10.1770840">
	<ele>1597.80</ele>
	<time>2025-08-03T09:33:05.000Z</time>
</trkpt>
<trkpt lat="45.9568020" lon="10.1770940">
	<ele>1597.40</ele>
	<time>2025-08-03T09:33:06.000Z</time>
</trkpt>
<trkpt lat="45.9567970" lon="10.1770910">
	<ele>1597.00</ele>
	<time>2025-08-03T09:33:07.000Z</time>
</trkpt>
<trkpt lat="45.9567910" lon="10.1770990">
	<ele>1596.80</ele>
	<time>2025-08-03T09:33:08.000Z</time>
</trkpt>
<trkpt lat="45.9567720" lon="10.1771180">
	<ele>1596.60</ele>
	<time>2025-08-03T09:33:09.000Z</time>
</trkpt>
<trkpt lat="45.9567520" lon="10.1771440">
	<ele>1596.00</ele>
	<time>2025-08-03T09:33:10.000Z</time>
</trkpt>
<trkpt lat="45.9567470" lon="10.1771610">
	<ele>1595.80</ele>
	<time>2025-08-03T09:33:11.000Z</time>
</trkpt>
<trkpt lat="45.9567400" lon="10.1771740">
	<ele>1595.20</ele>
	<time>2025-08-03T09:33:12.000Z</time>
</trkpt>
<trkpt lat="45.9567300" lon="10.1771880">
	<ele>1594.80</ele>
	<time>2025-08-03T09:33:13.000Z</time>
</trkpt>
<trkpt lat="45.9567220" lon="10.1772020">
	<ele>1594.60</ele>
	<time>2025-08-03T09:33:14.000Z</time>
</trkpt>
<trkpt lat="45.9567150" lon="10.1772170">
	<ele>1594.40</ele>
	<time>2025-08-03T09:33:15.000Z</time>
</trkpt>
<trkpt lat="45.9567100" lon="10.1772330">
	<ele>1594.00</ele>
	<time>2025-08-03T09:33:16.000Z</time>
</trkpt>
<trkpt lat="45.9567070" lon="10.1772530">
	<ele>1593.80</ele>
	<time>2025-08-03T09:33:17.000Z</time>
</trkpt>
<trkpt lat="45.9567020" lon="10.1772670">
	<ele>1593.40</ele>
	<time>2025-08-03T09:33:18.000Z</time>
</trkpt>
<trkpt lat="45.9567020" lon="10.1772690">
	<ele>1593.20</ele>
	<time>2025-08-03T09:33:19.000Z</time>
</trkpt>
<trkpt lat="45.9567020" lon="10.1772750">
	<ele>1593.20</ele>
	<time>2025-08-03T09:33:20.000Z</time>
</trkpt>
<trkpt lat="45.9566980" lon="10.1772880">
	<ele>1592.80</ele>
	<time>2025-08-03T09:33:21.000Z</time>
</trkpt>
<trkpt lat="45.9566920" lon="10.1773010">
	<ele>1592.40</ele>
	<time>2025-08-03T09:33:22.000Z</time>
</trkpt>
<trkpt lat="45.9566880" lon="10.1773220">
	<ele>1592.20</ele>
	<time>2025-08-03T09:33:23.000Z</time>
</trkpt>
<trkpt lat="45.9566880" lon="10.1773280">
	<ele>1591.60</ele>
	<time>2025-08-03T09:33:24.000Z</time>
</trkpt>
<trkpt lat="45.9566840" lon="10.1773440">
	<ele>1591.40</ele>
	<time>2025-08-03T09:33:25.000Z</time>
</trkpt>
<trkpt lat="45.9566780" lon="10.1773610">
	<ele>1591.00</ele>
	<time>2025-08-03T09:33:26.000Z</time>
</trkpt>
<trkpt lat="45.9566740" lon="10.1773870">
	<ele>1590.40</ele>
	<time>2025-08-03T09:33:27.000Z</time>
</trkpt>
<trkpt lat="45.9566680" lon="10.1774060">
	<ele>1590.00</ele>
	<time>2025-08-03T09:33:28.000Z</time>
</trkpt>
<trkpt lat="45.9566640" lon="10.1774280">
	<ele>1589.60</ele>
	<time>2025-08-03T09:33:29.000Z</time>
</trkpt>
<trkpt lat="45.9566640" lon="10.1774420">
	<ele>1589.40</ele>
	<time>2025-08-03T09:33:30.000Z</time>
</trkpt>
<trkpt lat="45.9566600" lon="10.1774510">
	<ele>1588.80</ele>
	<time>2025-08-03T09:33:31.000Z</time>
</trkpt>
<trkpt lat="45.9566630" lon="10.1774620">
	<ele>1588.40</ele>
	<time>2025-08-03T09:33:32.000Z</time>
</trkpt>
<trkpt lat="45.9566670" lon="10.1774730">
	<ele>1588.00</ele>
	<time>2025-08-03T09:33:33.000Z</time>
</trkpt>
<trkpt lat="45.9566670" lon="10.1774870">
	<ele>1587.40</ele>
	<time>2025-08-03T09:33:34.000Z</time>
</trkpt>
<trkpt lat="45.9566660" lon="10.1775030">
	<ele>1587.00</ele>
	<time>2025-08-03T09:33:35.000Z</time>
</trkpt>
<trkpt lat="45.9566650" lon="10.1775140">
	<ele>1586.40</ele>
	<time>2025-08-03T09:33:36.000Z</time>
</trkpt>
<trkpt lat="45.9566690" lon="10.1775280">
	<ele>1586.20</ele>
	<time>2025-08-03T09:33:37.000Z</time>
</trkpt>
<trkpt lat="45.9566690" lon="10.1775330">
	<ele>1585.80</ele>
	<time>2025-08-03T09:33:38.000Z</time>
</trkpt>
<trkpt lat="45.9566690" lon="10.1775460">
	<ele>1585.40</ele>
	<time>2025-08-03T09:33:39.000Z</time>
</trkpt>
<trkpt lat="45.9566700" lon="10.1775590">
	<ele>1584.80</ele>
	<time>2025-08-03T09:33:40.000Z</time>
</trkpt>
<trkpt lat="45.9566730" lon="10.1775750">
	<ele>1584.40</ele>
	<time>2025-08-03T09:33:41.000Z</time>
</trkpt>
<trkpt lat="45.9566700" lon="10.1775820">
	<ele>1584.20</ele>
	<time>2025-08-03T09:33:42.000Z</time>
</trkpt>
<trkpt lat="45.9566650" lon="10.1775890">
	<ele>1584.00</ele>
	<time>2025-08-03T09:33:43.000Z</time>
</trkpt>
<trkpt lat="45.9566640" lon="10.1776070">
	<ele>1583.80</ele>
	<time>2025-08-03T09:33:44.000Z</time>
</trkpt>
<trkpt lat="45.9566620" lon="10.1776250">
	<ele>1583.20</ele>
	<time>2025-08-03T09:33:45.000Z</time>
</trkpt>
<trkpt lat="45.9566620" lon="10.1776380">
	<ele>1582.60</ele>
	<time>2025-08-03T09:33:46.000Z</time>
</trkpt>
<trkpt lat="45.9566630" lon="10.1776510">
	<ele>1582.20</ele>
	<time>2025-08-03T09:33:47.000Z</time>
</trkpt>
<trkpt lat="45.9566650" lon="10.1776550">
	<ele>1581.60</ele>
	<time>2025-08-03T09:33:48.000Z</time>
</trkpt>
<trkpt lat="45.9566650" lon="10.1776560">
	<ele>1581.20</ele>
	<time>2025-08-03T09:33:49.000Z</time>
</trkpt>
<trkpt lat="45.9566670" lon="10.1776550">
	<ele>1581.00</ele>
	<time>2025-08-03T09:33:50.000Z</time>
</trkpt>
<trkpt lat="45.9566670" lon="10.1776520">
	<ele>1580.80</ele>
	<time>2025-08-03T09:33:51.000Z</time>
</trkpt>
<trkpt lat="45.9566670" lon="10.1776560">
	<ele>1580.80</ele>
	<time>2025-08-03T09:33:52.000Z</time>
</trkpt>
<trkpt lat="45.9566660" lon="10.1776510">
	<ele>1580.80</ele>
	<time>2025-08-03T09:33:53.000Z</time>
</trkpt>
<trkpt lat="45.9566620" lon="10.1776490">
	<ele>1580.80</ele>
	<time>2025-08-03T09:33:54.000Z</time>
</trkpt>
<trkpt lat="45.9566600" lon="10.1776490">
	<ele>1580.80</ele>
	<time>2025-08-03T09:33:55.000Z</time>
</trkpt>
<trkpt lat="45.9566530" lon="10.1776550">
	<ele>1580.80</ele>
	<time>2025-08-03T09:33:56.000Z</time>
</trkpt>
<trkpt lat="45.9566460" lon="10.1776640">
	<ele>1580.80</ele>
	<time>2025-08-03T09:33:57.000Z</time>
</trkpt>
<trkpt lat="45.9566390" lon="10.1776770">
	<ele>1580.60</ele>
	<time>2025-08-03T09:33:58.000Z</time>
</trkpt>
<trkpt lat="45.9566340" lon="10.1776910">
	<ele>1580.40</ele>
	<time>2025-08-03T09:33:59.000Z</time>
</trkpt>
<trkpt lat="45.9566290" lon="10.1777030">
	<ele>1580.00</ele>
	<time>2025-08-03T09:34:00.000Z</time>
</trkpt>
<trkpt lat="45.9566220" lon="10.1777160">
	<ele>1579.80</ele>
	<time>2025-08-03T09:34:01.000Z</time>
</trkpt>
<trkpt lat="45.9566160" lon="10.1777280">
	<ele>1579.40</ele>
	<time>2025-08-03T09:34:02.000Z</time>
</trkpt>
<trkpt lat="45.9566090" lon="10.1777410">
	<ele>1579.00</ele>
	<time>2025-08-03T09:34:03.000Z</time>
</trkpt>
<trkpt lat="45.9566050" lon="10.1777570">
	<ele>1578.60</ele>
	<time>2025-08-03T09:34:04.000Z</time>
</trkpt>
<trkpt lat="45.9566000" lon="10.1777710">
	<ele>1578.40</ele>
	<time>2025-08-03T09:34:05.000Z</time>
</trkpt>
<trkpt lat="45.9565940" lon="10.1777850">
	<ele>1578.20</ele>
	<time>2025-08-03T09:34:06.000Z</time>
</trkpt>
<trkpt lat="45.9565850" lon="10.1778000">
	<ele>1577.80</ele>
	<time>2025-08-03T09:34:07.000Z</time>
</trkpt>
<trkpt lat="45.9565740" lon="10.1778120">
	<ele>1577.60</ele>
	<time>2025-08-03T09:34:08.000Z</time>
</trkpt>
<trkpt lat="45.9565590" lon="10.1778220">
	<ele>1577.00</ele>
	<time>2025-08-03T09:34:09.000Z</time>
</trkpt>
<trkpt lat="45.9565450" lon="10.1778380">
	<ele>1576.60</ele>
	<time>2025-08-03T09:34:10.000Z</time>
</trkpt>
<trkpt lat="45.9565310" lon="10.1778500">
	<ele>1576.20</ele>
	<time>2025-08-03T09:34:11.000Z</time>
</trkpt>
<trkpt lat="45.9565170" lon="10.1778580">
	<ele>1576.00</ele>
	<time>2025-08-03T09:34:12.000Z</time>
</trkpt>
<trkpt lat="45.9565020" lon="10.1778600">
	<ele>1575.60</ele>
	<time>2025-08-03T09:34:13.000Z</time>
</trkpt>
<trkpt lat="45.9564920" lon="10.1778660">
	<ele>1575.60</ele>
	<time>2025-08-03T09:34:14.000Z</time>
</trkpt>
<trkpt lat="45.9564840" lon="10.1778740">
	<ele>1575.20</ele>
	<time>2025-08-03T09:34:15.000Z</time>
</trkpt>
<trkpt lat="45.9564740" lon="10.1778850">
	<ele>1575.00</ele>
	<time>2025-08-03T09:34:16.000Z</time>
</trkpt>
<trkpt lat="45.9564620" lon="10.1778970">
	<ele>1574.60</ele>
	<time>2025-08-03T09:34:17.000Z</time>
</trkpt>
<trkpt lat="45.9564530" lon="10.1779130">
	<ele>1574.40</ele>
	<time>2025-08-03T09:34:18.000Z</time>
</trkpt>
<trkpt lat="45.9564430" lon="10.1779270">
	<ele>1574.00</ele>
	<time>2025-08-03T09:34:19.000Z</time>
</trkpt>
<trkpt lat="45.9564300" lon="10.1779330">
	<ele>1573.60</ele>
	<time>2025-08-03T09:34:20.000Z</time>
</trkpt>
<trkpt lat="45.9564180" lon="10.1779430">
	<ele>1573.20</ele>
	<time>2025-08-03T09:34:21.000Z</time>
</trkpt>
<trkpt lat="45.9563970" lon="10.1779520">
	<ele>1573.00</ele>
	<time>2025-08-03T09:34:22.000Z</time>
</trkpt>
<trkpt lat="45.9563800" lon="10.1779520">
	<ele>1572.60</ele>
	<time>2025-08-03T09:34:23.000Z</time>
</trkpt>
<trkpt lat="45.9563680" lon="10.1779580">
	<ele>1572.40</ele>
	<time>2025-08-03T09:34:24.000Z</time>
</trkpt>
<trkpt lat="45.9563640" lon="10.1779730">
	<ele>1572.20</ele>
	<time>2025-08-03T09:34:25.000Z</time>
</trkpt>
<trkpt lat="45.9563540" lon="10.1779860">
	<ele>1571.80</ele>
	<time>2025-08-03T09:34:26.000Z</time>
</trkpt>
<trkpt lat="45.9563510" lon="10.1780050">
	<ele>1571.40</ele>
	<time>2025-08-03T09:34:27.000Z</time>
</trkpt>
<trkpt lat="45.9563450" lon="10.1780240">
	<ele>1571.00</ele>
	<time>2025-08-03T09:34:28.000Z</time>
</trkpt>
<trkpt lat="45.9563400" lon="10.1780450">
	<ele>1570.60</ele>
	<time>2025-08-03T09:34:29.000Z</time>
</trkpt>
<trkpt lat="45.9563320" lon="10.1780590">
	<ele>1570.20</ele>
	<time>2025-08-03T09:34:30.000Z</time>
</trkpt>
<trkpt lat="45.9563300" lon="10.1780760">
	<ele>1570.00</ele>
	<time>2025-08-03T09:34:31.000Z</time>
</trkpt>
<trkpt lat="45.9563270" lon="10.1780900">
	<ele>1570.00</ele>
	<time>2025-08-03T09:34:32.000Z</time>
</trkpt>
<trkpt lat="45.9563240" lon="10.1781000">
	<ele>1569.60</ele>
	<time>2025-08-03T09:34:33.000Z</time>
</trkpt>
<trkpt lat="45.9563200" lon="10.1781110">
	<ele>1569.40</ele>
	<time>2025-08-03T09:34:34.000Z</time>
</trkpt>
<trkpt lat="45.9563150" lon="10.1781190">
	<ele>1568.80</ele>
	<time>2025-08-03T09:34:35.000Z</time>
</trkpt>
<trkpt lat="45.9563100" lon="10.1781300">
	<ele>1568.60</ele>
	<time>2025-08-03T09:34:36.000Z</time>
</trkpt>
<trkpt lat="45.9563030" lon="10.1781360">
	<ele>1568.20</ele>
	<time>2025-08-03T09:34:37.000Z</time>
</trkpt>
<trkpt lat="45.9562960" lon="10.1781450">
	<ele>1567.80</ele>
	<time>2025-08-03T09:34:38.000Z</time>
</trkpt>
<trkpt lat="45.9562880" lon="10.1781550">
	<ele>1567.60</ele>
	<time>2025-08-03T09:34:39.000Z</time>
</trkpt>
<trkpt lat="45.9562810" lon="10.1781660">
	<ele>1567.20</ele>
	<time>2025-08-03T09:34:40.000Z</time>
</trkpt>
<trkpt lat="45.9562740" lon="10.1781860">
	<ele>1567.00</ele>
	<time>2025-08-03T09:34:41.000Z</time>
</trkpt>
<trkpt lat="45.9562730" lon="10.1782030">
	<ele>1566.20</ele>
	<time>2025-08-03T09:34:42.000Z</time>
</trkpt>
<trkpt lat="45.9562720" lon="10.1782180">
	<ele>1565.80</ele>
	<time>2025-08-03T09:34:43.000Z</time>
</trkpt>
<trkpt lat="45.9562680" lon="10.1782320">
	<ele>1565.60</ele>
	<time>2025-08-03T09:34:44.000Z</time>
</trkpt>
<trkpt lat="45.9562650" lon="10.1782470">
	<ele>1565.40</ele>
	<time>2025-08-03T09:34:45.000Z</time>
</trkpt>
<trkpt lat="45.9562610" lon="10.1782650">
	<ele>1565.20</ele>
	<time>2025-08-03T09:34:46.000Z</time>
</trkpt>
<trkpt lat="45.9562590" lon="10.1782830">
	<ele>1565.00</ele>
	<time>2025-08-03T09:34:47.000Z</time>
</trkpt>
<trkpt lat="45.9562610" lon="10.1783030">
	<ele>1564.60</ele>
	<time>2025-08-03T09:34:48.000Z</time>
</trkpt>
<trkpt lat="45.9562660" lon="10.1783220">
	<ele>1564.40</ele>
	<time>2025-08-03T09:34:49.000Z</time>
</trkpt>
<trkpt lat="45.9562730" lon="10.1783400">
	<ele>1564.00</ele>
	<time>2025-08-03T09:34:50.000Z</time>
</trkpt>
<trkpt lat="45.9562770" lon="10.1783570">
	<ele>1563.60</ele>
	<time>2025-08-03T09:34:51.000Z</time>
</trkpt>
<trkpt lat="45.9562820" lon="10.1783730">
	<ele>1563.20</ele>
	<time>2025-08-03T09:34:52.000Z</time>
</trkpt>
<trkpt lat="45.9562880" lon="10.1783860">
	<ele>1562.80</ele>
	<time>2025-08-03T09:34:53.000Z</time>
</trkpt>
<trkpt lat="45.9562950" lon="10.1784050">
	<ele>1562.40</ele>
	<time>2025-08-03T09:34:54.000Z</time>
</trkpt>
<trkpt lat="45.9563030" lon="10.1784230">
	<ele>1562.00</ele>
	<time>2025-08-03T09:34:55.000Z</time>
</trkpt>
<trkpt lat="45.9563060" lon="10.1784420">
	<ele>1561.60</ele>
	<time>2025-08-03T09:34:56.000Z</time>
</trkpt>
<trkpt lat="45.9563110" lon="10.1784540">
	<ele>1561.60</ele>
	<time>2025-08-03T09:34:57.000Z</time>
</trkpt>
<trkpt lat="45.9563170" lon="10.1784670">
	<ele>1561.40</ele>
	<time>2025-08-03T09:34:58.000Z</time>
</trkpt>
<trkpt lat="45.9563240" lon="10.1784780">
	<ele>1561.20</ele>
	<time>2025-08-03T09:34:59.000Z</time>
</trkpt>
<trkpt lat="45.9563290" lon="10.1784910">
	<ele>1560.80</ele>
	<time>2025-08-03T09:35:00.000Z</time>
</trkpt>
<trkpt lat="45.9563350" lon="10.1785030">
	<ele>1560.40</ele>
	<time>2025-08-03T09:35:01.000Z</time>
</trkpt>
<trkpt lat="45.9563410" lon="10.1785160">
	<ele>1560.20</ele>
	<time>2025-08-03T09:35:02.000Z</time>
</trkpt>
<trkpt lat="45.9563400" lon="10.1785260">
	<ele>1559.80</ele>
	<time>2025-08-03T09:35:03.000Z</time>
</trkpt>
<trkpt lat="45.9563400" lon="10.1785420">
	<ele>1559.40</ele>
	<time>2025-08-03T09:35:04.000Z</time>
</trkpt>
<trkpt lat="45.9563440" lon="10.1785550">
	<ele>1559.00</ele>
	<time>2025-08-03T09:35:05.000Z</time>
</trkpt>
<trkpt lat="45.9563490" lon="10.1785660">
	<ele>1558.80</ele>
	<time>2025-08-03T09:35:06.000Z</time>
</trkpt>
<trkpt lat="45.9563530" lon="10.1785740">
	<ele>1558.20</ele>
	<time>2025-08-03T09:35:07.000Z</time>
</trkpt>
<trkpt lat="45.9563620" lon="10.1785830">
	<ele>1558.00</ele>
	<time>2025-08-03T09:35:08.000Z</time>
</trkpt>
<trkpt lat="45.9563680" lon="10.1785960">
	<ele>1557.80</ele>
	<time>2025-08-03T09:35:09.000Z</time>
</trkpt>
<trkpt lat="45.9563740" lon="10.1786020">
	<ele>1557.60</ele>
	<time>2025-08-03T09:35:10.000Z</time>
</trkpt>
<trkpt lat="45.9563760" lon="10.1786080">
	<ele>1557.40</ele>
	<time>2025-08-03T09:35:11.000Z</time>
</trkpt>
<trkpt lat="45.9563750" lon="10.1786130">
	<ele>1556.80</ele>
	<time>2025-08-03T09:35:12.000Z</time>
</trkpt>
<trkpt lat="45.9563720" lon="10.1786150">
	<ele>1556.60</ele>
	<time>2025-08-03T09:35:13.000Z</time>
</trkpt>
<trkpt lat="45.9563710" lon="10.1786150">
	<ele>1556.20</ele>
	<time>2025-08-03T09:35:14.000Z</time>
</trkpt>
<trkpt lat="45.9563710" lon="10.1786150">
	<ele>1556.00</ele>
	<time>2025-08-03T09:35:15.000Z</time>
</trkpt>
<trkpt lat="45.9563700" lon="10.1786140">
	<ele>1555.80</ele>
	<time>2025-08-03T09:35:16.000Z</time>
</trkpt>
<trkpt lat="45.9563690" lon="10.1786110">
	<ele>1555.80</ele>
	<time>2025-08-03T09:35:17.000Z</time>
</trkpt>
<trkpt lat="45.9563700" lon="10.1786070">
	<ele>1555.80</ele>
	<time>2025-08-03T09:35:18.000Z</time>
</trkpt>
<trkpt lat="45.9563690" lon="10.1786050">
	<ele>1555.80</ele>
	<time>2025-08-03T09:35:19.000Z</time>
</trkpt>
<trkpt lat="45.9563680" lon="10.1786030">
	<ele>1555.80</ele>
	<time>2025-08-03T09:35:20.000Z</time>
</trkpt>
<trkpt lat="45.9563670" lon="10.1786040">
	<ele>1555.80</ele>
	<time>2025-08-03T09:35:21.000Z</time>
</trkpt>
<trkpt lat="45.9563660" lon="10.1786040">
	<ele>1556.00</ele>
	<time>2025-08-03T09:35:22.000Z</time>
</trkpt>
<trkpt lat="45.9563650" lon="10.1786020">
	<ele>1556.20</ele>
	<time>2025-08-03T09:35:23.000Z</time>
</trkpt>
<trkpt lat="45.9563620" lon="10.1786020">
	<ele>1556.20</ele>
	<time>2025-08-03T09:35:24.000Z</time>
</trkpt>
<trkpt lat="45.9563600" lon="10.1786040">
	<ele>1556.20</ele>
	<time>2025-08-03T09:35:25.000Z</time>
</trkpt>
<trkpt lat="45.9563530" lon="10.1786030">
	<ele>1556.20</ele>
	<time>2025-08-03T09:35:26.000Z</time>
</trkpt>
<trkpt lat="45.9563380" lon="10.1786050">
	<ele>1555.80</ele>
	<time>2025-08-03T09:35:27.000Z</time>
</trkpt>
<trkpt lat="45.9563330" lon="10.1786060">
	<ele>1555.60</ele>
	<time>2025-08-03T09:35:28.000Z</time>
</trkpt>
<trkpt lat="45.9563320" lon="10.1786070">
	<ele>1555.60</ele>
	<time>2025-08-03T09:35:29.000Z</time>
</trkpt>
<trkpt lat="45.9563320" lon="10.1786070">
	<ele>1555.40</ele>
	<time>2025-08-03T09:35:30.000Z</time>
</trkpt>
<trkpt lat="45.9563320" lon="10.1786070">
	<ele>1555.40</ele>
	<time>2025-08-03T09:35:31.000Z</time>
</trkpt>
<trkpt lat="45.9563320" lon="10.1786070">
	<ele>1555.40</ele>
	<time>2025-08-03T09:35:32.000Z</time>
</trkpt>
<trkpt lat="45.9563320" lon="10.1786070">
	<ele>1555.60</ele>
	<time>2025-08-03T09:35:33.000Z</time>
</trkpt>
<trkpt lat="45.9563320" lon="10.1786070">
	<ele>1555.60</ele>
	<time>2025-08-03T09:35:34.000Z</time>
</trkpt>
<trkpt lat="45.9563320" lon="10.1786070">
	<ele>1555.60</ele>
	<time>2025-08-03T09:35:35.000Z</time>
</trkpt>
<trkpt lat="45.9563320" lon="10.1786070">
	<ele>1555.60</ele>
	<time>2025-08-03T09:35:36.000Z</time>
</trkpt>
<trkpt lat="45.9563320" lon="10.1786070">
	<ele>1555.60</ele>
	<time>2025-08-03T09:35:37.000Z</time>
</trkpt>
<trkpt lat="45.9563320" lon="10.1786070">
	<ele>1555.40</ele>
	<time>2025-08-03T09:35:38.000Z</time>
</trkpt>
<trkpt lat="45.9563320" lon="10.1786060">
	<ele>1555.40</ele>
	<time>2025-08-03T09:35:39.000Z</time>
</trkpt>
<trkpt lat="45.9563320" lon="10.1786060">
	<ele>1555.40</ele>
	<time>2025-08-03T09:35:40.000Z</time>
</trkpt>
<trkpt lat="45.9563320" lon="10.1786050">
	<ele>1555.40</ele>
	<time>2025-08-03T09:35:41.000Z</time>
</trkpt>
<trkpt lat="45.9563320" lon="10.1786050">
	<ele>1555.40</ele>
	<time>2025-08-03T09:35:42.000Z</time>
</trkpt>
<trkpt lat="45.9563280" lon="10.1786000">
	<ele>1555.40</ele>
	<time>2025-08-03T09:35:43.000Z</time>
</trkpt>
<trkpt lat="45.9563170" lon="10.1785780">
	<ele>1555.40</ele>
	<time>2025-08-03T09:35:44.000Z</time>
</trkpt>
<trkpt lat="45.9563080" lon="10.1785540">
	<ele>1555.80</ele>
	<time>2025-08-03T09:35:45.000Z</time>
</trkpt>
<trkpt lat="45.9562920" lon="10.1785400">
	<ele>1555.80</ele>
	<time>2025-08-03T09:35:46.000Z</time>
</trkpt>
<trkpt lat="45.9562750" lon="10.1785230">
	<ele>1555.80</ele>
	<time>2025-08-03T09:35:47.000Z</time>
</trkpt>
<trkpt lat="45.9562600" lon="10.1785010">
	<ele>1556.00</ele>
	<time>2025-08-03T09:35:48.000Z</time>
</trkpt>
<trkpt lat="45.9562480" lon="10.1784800">
	<ele>1556.00</ele>
	<time>2025-08-03T09:35:49.000Z</time>
</trkpt>
<trkpt lat="45.9562380" lon="10.1784660">
	<ele>1556.00</ele>
	<time>2025-08-03T09:35:50.000Z</time>
</trkpt>
<trkpt lat="45.9562290" lon="10.1784440">
	<ele>1556.00</ele>
	<time>2025-08-03T09:35:51.000Z</time>
</trkpt>
<trkpt lat="45.9562250" lon="10.1784300">
	<ele>1556.00</ele>
	<time>2025-08-03T09:35:52.000Z</time>
</trkpt>
<trkpt lat="45.9562170" lon="10.1784150">
	<ele>1556.20</ele>
	<time>2025-08-03T09:35:53.000Z</time>
</trkpt>
<trkpt lat="45.9562150" lon="10.1784020">
	<ele>1556.20</ele>
	<time>2025-08-03T09:35:54.000Z</time>
</trkpt>
<trkpt lat="45.9562120" lon="10.1783890">
	<ele>1556.20</ele>
	<time>2025-08-03T09:35:55.000Z</time>
</trkpt>
<trkpt lat="45.9562060" lon="10.1783790">
	<ele>1556.20</ele>
	<time>2025-08-03T09:35:56.000Z</time>
</trkpt>
<trkpt lat="45.9562050" lon="10.1783670">
	<ele>1556.20</ele>
	<time>2025-08-03T09:35:57.000Z</time>
</trkpt>
<trkpt lat="45.9562060" lon="10.1783540">
	<ele>1556.20</ele>
	<time>2025-08-03T09:35:58.000Z</time>
</trkpt>
<trkpt lat="45.9562000" lon="10.1783420">
	<ele>1556.20</ele>
	<time>2025-08-03T09:35:59.000Z</time>
</trkpt>
<trkpt lat="45.9561960" lon="10.1783200">
	<ele>1556.20</ele>
	<time>2025-08-03T09:36:00.000Z</time>
</trkpt>
<trkpt lat="45.9561910" lon="10.1782960">
	<ele>1556.40</ele>
	<time>2025-08-03T09:36:01.000Z</time>
</trkpt>
<trkpt lat="45.9561860" lon="10.1782730">
	<ele>1556.40</ele>
	<time>2025-08-03T09:36:02.000Z</time>
</trkpt>
<trkpt lat="45.9561800" lon="10.1782530">
	<ele>1556.60</ele>
	<time>2025-08-03T09:36:03.000Z</time>
</trkpt>
<trkpt lat="45.9561740" lon="10.1782310">
	<ele>1556.80</ele>
	<time>2025-08-03T09:36:04.000Z</time>
</trkpt>
<trkpt lat="45.9561680" lon="10.1782200">
	<ele>1556.80</ele>
	<time>2025-08-03T09:36:05.000Z</time>
</trkpt>
<trkpt lat="45.9561640" lon="10.1782120">
	<ele>1556.80</ele>
	<time>2025-08-03T09:36:06.000Z</time>
</trkpt>
<trkpt lat="45.9561670" lon="10.1782040">
	<ele>1556.80</ele>
	<time>2025-08-03T09:36:07.000Z</time>
</trkpt>
<trkpt lat="45.9561640" lon="10.1781910">
	<ele>1556.80</ele>
	<time>2025-08-03T09:36:08.000Z</time>
</trkpt>
<trkpt lat="45.9561600" lon="10.1781650">
	<ele>1556.80</ele>
	<time>2025-08-03T09:36:09.000Z</time>
</trkpt>
<trkpt lat="45.9561610" lon="10.1781440">
	<ele>1556.80</ele>
	<time>2025-08-03T09:36:10.000Z</time>
</trkpt>
<trkpt lat="45.9561640" lon="10.1781230">
	<ele>1556.80</ele>
	<time>2025-08-03T09:36:11.000Z</time>
</trkpt>
<trkpt lat="45.9561690" lon="10.1781070">
	<ele>1556.80</ele>
	<time>2025-08-03T09:36:12.000Z</time>
</trkpt>
<trkpt lat="45.9561720" lon="10.1780950">
	<ele>1556.60</ele>
	<time>2025-08-03T09:36:13.000Z</time>
</trkpt>
<trkpt lat="45.9561720" lon="10.1780820">
	<ele>1556.60</ele>
	<time>2025-08-03T09:36:14.000Z</time>
</trkpt>
<trkpt lat="45.9561710" lon="10.1780710">
	<ele>1556.60</ele>
	<time>2025-08-03T09:36:15.000Z</time>
</trkpt>
<trkpt lat="45.9561650" lon="10.1780550">
	<ele>1556.60</ele>
	<time>2025-08-03T09:36:16.000Z</time>
</trkpt>
<trkpt lat="45.9561620" lon="10.1780480">
	<ele>1556.40</ele>
	<time>2025-08-03T09:36:17.000Z</time>
</trkpt>
<trkpt lat="45.9561530" lon="10.1780250">
	<ele>1556.20</ele>
	<time>2025-08-03T09:36:18.000Z</time>
</trkpt>
<trkpt lat="45.9561410" lon="10.1780060">
	<ele>1556.00</ele>
	<time>2025-08-03T09:36:19.000Z</time>
</trkpt>
<trkpt lat="45.9561280" lon="10.1779840">
	<ele>1556.00</ele>
	<time>2025-08-03T09:36:20.000Z</time>
</trkpt>
<trkpt lat="45.9561200" lon="10.1779670">
	<ele>1555.80</ele>
	<time>2025-08-03T09:36:21.000Z</time>
</trkpt>
<trkpt lat="45.9561190" lon="10.1779520">
	<ele>1555.60</ele>
	<time>2025-08-03T09:36:22.000Z</time>
</trkpt>
<trkpt lat="45.9561200" lon="10.1779210">
	<ele>1555.40</ele>
	<time>2025-08-03T09:36:23.000Z</time>
</trkpt>
<trkpt lat="45.9561300" lon="10.1778940">
	<ele>1555.20</ele>
	<time>2025-08-03T09:36:24.000Z</time>
</trkpt>
<trkpt lat="45.9561380" lon="10.1778650">
	<ele>1555.00</ele>
	<time>2025-08-03T09:36:25.000Z</time>
</trkpt>
<trkpt lat="45.9561440" lon="10.1778400">
	<ele>1554.80</ele>
	<time>2025-08-03T09:36:26.000Z</time>
</trkpt>
<trkpt lat="45.9561410" lon="10.1778210">
	<ele>1554.60</ele>
	<time>2025-08-03T09:36:27.000Z</time>
</trkpt>
<trkpt lat="45.9561430" lon="10.1778160">
	<ele>1554.60</ele>
	<time>2025-08-03T09:36:28.000Z</time>
</trkpt>
<trkpt lat="45.9561350" lon="10.1777910">
	<ele>1554.40</ele>
	<time>2025-08-03T09:36:29.000Z</time>
</trkpt>
<trkpt lat="45.9561280" lon="10.1777700">
	<ele>1554.20</ele>
	<time>2025-08-03T09:36:30.000Z</time>
</trkpt>
<trkpt lat="45.9561250" lon="10.1777520">
	<ele>1554.20</ele>
	<time>2025-08-03T09:36:31.000Z</time>
</trkpt>
<trkpt lat="45.9561120" lon="10.1777270">
	<ele>1553.80</ele>
	<time>2025-08-03T09:36:32.000Z</time>
</trkpt>
<trkpt lat="45.9561040" lon="10.1776950">
	<ele>1553.60</ele>
	<time>2025-08-03T09:36:33.000Z</time>
</trkpt>
<trkpt lat="45.9560870" lon="10.1776710">
	<ele>1553.40</ele>
	<time>2025-08-03T09:36:34.000Z</time>
</trkpt>
<trkpt lat="45.9560890" lon="10.1776590">
	<ele>1553.40</ele>
	<time>2025-08-03T09:36:35.000Z</time>
</trkpt>
<trkpt lat="45.9560880" lon="10.1776490">
	<ele>1553.20</ele>
	<time>2025-08-03T09:36:36.000Z</time>
</trkpt>
<trkpt lat="45.9560840" lon="10.1776360">
	<ele>1553.20</ele>
	<time>2025-08-03T09:36:37.000Z</time>
</trkpt>
<trkpt lat="45.9560790" lon="10.1776230">
	<ele>1553.20</ele>
	<time>2025-08-03T09:36:38.000Z</time>
</trkpt>
<trkpt lat="45.9560730" lon="10.1776180">
	<ele>1553.20</ele>
	<time>2025-08-03T09:36:39.000Z</time>
</trkpt>
<trkpt lat="45.9560660" lon="10.1776040">
	<ele>1553.20</ele>
	<time>2025-08-03T09:36:40.000Z</time>
</trkpt>
<trkpt lat="45.9560580" lon="10.1775870">
	<ele>1553.20</ele>
	<time>2025-08-03T09:36:41.000Z</time>
</trkpt>
<trkpt lat="45.9560520" lon="10.1775730">
	<ele>1553.20</ele>
	<time>2025-08-03T09:36:42.000Z</time>
</trkpt>
<trkpt lat="45.9560410" lon="10.1775580">
	<ele>1553.20</ele>
	<time>2025-08-03T09:36:43.000Z</time>
</trkpt>
<trkpt lat="45.9560270" lon="10.1775450">
	<ele>1553.20</ele>
	<time>2025-08-03T09:36:44.000Z</time>
</trkpt>
<trkpt lat="45.9560160" lon="10.1775290">
	<ele>1553.20</ele>
	<time>2025-08-03T09:36:45.000Z</time>
</trkpt>
<trkpt lat="45.9560030" lon="10.1775100">
	<ele>1553.20</ele>
	<time>2025-08-03T09:36:46.000Z</time>
</trkpt>
<trkpt lat="45.9559930" lon="10.1774870">
	<ele>1553.20</ele>
	<time>2025-08-03T09:36:47.000Z</time>
</trkpt>
<trkpt lat="45.9559810" lon="10.1774720">
	<ele>1553.00</ele>
	<time>2025-08-03T09:36:48.000Z</time>
</trkpt>
<trkpt lat="45.9559600" lon="10.1774610">
	<ele>1553.00</ele>
	<time>2025-08-03T09:36:49.000Z</time>
</trkpt>
<trkpt lat="45.9559480" lon="10.1774620">
	<ele>1553.00</ele>
	<time>2025-08-03T09:36:50.000Z</time>
</trkpt>
<trkpt lat="45.9559310" lon="10.1774630">
	<ele>1553.20</ele>
	<time>2025-08-03T09:36:51.000Z</time>
</trkpt>
<trkpt lat="45.9559150" lon="10.1774590">
	<ele>1553.40</ele>
	<time>2025-08-03T09:36:52.000Z</time>
</trkpt>
<trkpt lat="45.9558990" lon="10.1774580">
	<ele>1553.60</ele>
	<time>2025-08-03T09:36:53.000Z</time>
</trkpt>
<trkpt lat="45.9558860" lon="10.1774610">
	<ele>1553.60</ele>
	<time>2025-08-03T09:36:54.000Z</time>
</trkpt>
<trkpt lat="45.9558740" lon="10.1774580">
	<ele>1553.60</ele>
	<time>2025-08-03T09:36:55.000Z</time>
</trkpt>
<trkpt lat="45.9558670" lon="10.1774510">
	<ele>1553.80</ele>
	<time>2025-08-03T09:36:56.000Z</time>
</trkpt>
<trkpt lat="45.9558620" lon="10.1774260">
	<ele>1553.60</ele>
	<time>2025-08-03T09:36:57.000Z</time>
</trkpt>
<trkpt lat="45.9558610" lon="10.1774080">
	<ele>1553.60</ele>
	<time>2025-08-03T09:36:58.000Z</time>
</trkpt>
<trkpt lat="45.9558450" lon="10.1773910">
	<ele>1553.60</ele>
	<time>2025-08-03T09:36:59.000Z</time>
</trkpt>
<trkpt lat="45.9558340" lon="10.1773740">
	<ele>1553.40</ele>
	<time>2025-08-03T09:37:00.000Z</time>
</trkpt>
<trkpt lat="45.9558230" lon="10.1773490">
	<ele>1553.40</ele>
	<time>2025-08-03T09:37:01.000Z</time>
</trkpt>
<trkpt lat="45.9558070" lon="10.1773380">
	<ele>1553.40</ele>
	<time>2025-08-03T09:37:02.000Z</time>
</trkpt>
<trkpt lat="45.9557940" lon="10.1773240">
	<ele>1553.40</ele>
	<time>2025-08-03T09:37:03.000Z</time>
</trkpt>
<trkpt lat="45.9557840" lon="10.1773100">
	<ele>1553.40</ele>
	<time>2025-08-03T09:37:04.000Z</time>
</trkpt>
<trkpt lat="45.9557760" lon="10.1772960">
	<ele>1553.60</ele>
	<time>2025-08-03T09:37:05.000Z</time>
</trkpt>
<trkpt lat="45.9557700" lon="10.1772790">
	<ele>1553.80</ele>
	<time>2025-08-03T09:37:06.000Z</time>
</trkpt>
<trkpt lat="45.9557640" lon="10.1772610">
	<ele>1553.80</ele>
	<time>2025-08-03T09:37:07.000Z</time>
</trkpt>
<trkpt lat="45.9557600" lon="10.1772440">
	<ele>1553.80</ele>
	<time>2025-08-03T09:37:08.000Z</time>
</trkpt>
<trkpt lat="45.9557520" lon="10.1772300">
	<ele>1553.80</ele>
	<time>2025-08-03T09:37:09.000Z</time>
</trkpt>
<trkpt lat="45.9557440" lon="10.1772010">
	<ele>1553.80</ele>
	<time>2025-08-03T09:37:10.000Z</time>
</trkpt>
<trkpt lat="45.9557370" lon="10.1771770">
	<ele>1553.80</ele>
	<time>2025-08-03T09:37:11.000Z</time>
</trkpt>
<trkpt lat="45.9557280" lon="10.1771460">
	<ele>1553.80</ele>
	<time>2025-08-03T09:37:12.000Z</time>
</trkpt>
<trkpt lat="45.9557150" lon="10.1771210">
	<ele>1553.80</ele>
	<time>2025-08-03T09:37:13.000Z</time>
</trkpt>
<trkpt lat="45.9557090" lon="10.1771020">
	<ele>1553.60</ele>
	<time>2025-08-03T09:37:14.000Z</time>
</trkpt>
<trkpt lat="45.9556940" lon="10.1770820">
	<ele>1553.60</ele>
	<time>2025-08-03T09:37:15.000Z</time>
</trkpt>
<trkpt lat="45.9556860" lon="10.1770630">
	<ele>1553.60</ele>
	<time>2025-08-03T09:37:16.000Z</time>
</trkpt>
<trkpt lat="45.9556780" lon="10.1770400">
	<ele>1553.40</ele>
	<time>2025-08-03T09:37:17.000Z</time>
</trkpt>
<trkpt lat="45.9556850" lon="10.1770180">
	<ele>1553.40</ele>
	<time>2025-08-03T09:37:18.000Z</time>
</trkpt>
<trkpt lat="45.9556980" lon="10.1769910">
	<ele>1553.20</ele>
	<time>2025-08-03T09:37:19.000Z</time>
</trkpt>
<trkpt lat="45.9557040" lon="10.1769650">
	<ele>1552.80</ele>
	<time>2025-08-03T09:37:20.000Z</time>
</trkpt>
<trkpt lat="45.9557010" lon="10.1769410">
	<ele>1552.60</ele>
	<time>2025-08-03T09:37:21.000Z</time>
</trkpt>
<trkpt lat="45.9556970" lon="10.1769200">
	<ele>1552.60</ele>
	<time>2025-08-03T09:37:22.000Z</time>
</trkpt>
<trkpt lat="45.9556850" lon="10.1768990">
	<ele>1552.40</ele>
	<time>2025-08-03T09:37:23.000Z</time>
</trkpt>
<trkpt lat="45.9556790" lon="10.1768820">
	<ele>1552.40</ele>
	<time>2025-08-03T09:37:24.000Z</time>
</trkpt>
<trkpt lat="45.9556730" lon="10.1768620">
	<ele>1552.20</ele>
	<time>2025-08-03T09:37:25.000Z</time>
</trkpt>
<trkpt lat="45.9556650" lon="10.1768510">
	<ele>1552.00</ele>
	<time>2025-08-03T09:37:26.000Z</time>
</trkpt>
<trkpt lat="45.9556510" lon="10.1768390">
	<ele>1551.60</ele>
	<time>2025-08-03T09:37:27.000Z</time>
</trkpt>
<trkpt lat="45.9556430" lon="10.1768250">
	<ele>1551.40</ele>
	<time>2025-08-03T09:37:28.000Z</time>
</trkpt>
<trkpt lat="45.9556400" lon="10.1768160">
	<ele>1551.20</ele>
	<time>2025-08-03T09:37:29.000Z</time>
</trkpt>
<trkpt lat="45.9556330" lon="10.1768040">
	<ele>1551.00</ele>
	<time>2025-08-03T09:37:30.000Z</time>
</trkpt>
<trkpt lat="45.9556300" lon="10.1768000">
	<ele>1550.80</ele>
	<time>2025-08-03T09:37:31.000Z</time>
</trkpt>
<trkpt lat="45.9556300" lon="10.1767940">
	<ele>1550.60</ele>
	<time>2025-08-03T09:37:32.000Z</time>
</trkpt>
<trkpt lat="45.9556320" lon="10.1767900">
	<ele>1550.60</ele>
	<time>2025-08-03T09:37:33.000Z</time>
</trkpt>
<trkpt lat="45.9556410" lon="10.1767900">
	<ele>1550.40</ele>
	<time>2025-08-03T09:37:34.000Z</time>
</trkpt>
<trkpt lat="45.9556520" lon="10.1767800">
	<ele>1550.20</ele>
	<time>2025-08-03T09:37:35.000Z</time>
</trkpt>
<trkpt lat="45.9556530" lon="10.1767590">
	<ele>1550.20</ele>
	<time>2025-08-03T09:37:36.000Z</time>
</trkpt>
<trkpt lat="45.9556410" lon="10.1767430">
	<ele>1550.20</ele>
	<time>2025-08-03T09:37:37.000Z</time>
</trkpt>
<trkpt lat="45.9556330" lon="10.1767320">
	<ele>1550.00</ele>
	<time>2025-08-03T09:37:38.000Z</time>
</trkpt>
<trkpt lat="45.9556210" lon="10.1767120">
	<ele>1550.00</ele>
	<time>2025-08-03T09:37:39.000Z</time>
</trkpt>
<trkpt lat="45.9556190" lon="10.1767000">
	<ele>1549.60</ele>
	<time>2025-08-03T09:37:40.000Z</time>
</trkpt>
<trkpt lat="45.9556060" lon="10.1766920">
	<ele>1549.60</ele>
	<time>2025-08-03T09:37:41.000Z</time>
</trkpt>
<trkpt lat="45.9555840" lon="10.1766750">
	<ele>1549.40</ele>
	<time>2025-08-03T09:37:42.000Z</time>
</trkpt>
<trkpt lat="45.9555580" lon="10.1766570">
	<ele>1549.40</ele>
	<time>2025-08-03T09:37:43.000Z</time>
</trkpt>
<trkpt lat="45.9555410" lon="10.1766400">
	<ele>1549.20</ele>
	<time>2025-08-03T09:37:44.000Z</time>
</trkpt>
<trkpt lat="45.9555210" lon="10.1766080">
	<ele>1549.00</ele>
	<time>2025-08-03T09:37:45.000Z</time>
</trkpt>
<trkpt lat="45.9555000" lon="10.1765700">
	<ele>1548.80</ele>
	<time>2025-08-03T09:37:46.000Z</time>
</trkpt>
<trkpt lat="45.9554860" lon="10.1765410">
	<ele>1548.60</ele>
	<time>2025-08-03T09:37:47.000Z</time>
</trkpt>
<trkpt lat="45.9554770" lon="10.1765130">
	<ele>1548.40</ele>
	<time>2025-08-03T09:37:48.000Z</time>
</trkpt>
<trkpt lat="45.9554740" lon="10.1764870">
	<ele>1548.20</ele>
	<time>2025-08-03T09:37:49.000Z</time>
</trkpt>
<trkpt lat="45.9554820" lon="10.1764680">
	<ele>1548.00</ele>
	<time>2025-08-03T09:37:50.000Z</time>
</trkpt>
<trkpt lat="45.9554710" lon="10.1764540">
	<ele>1547.80</ele>
	<time>2025-08-03T09:37:51.000Z</time>
</trkpt>
<trkpt lat="45.9554630" lon="10.1764390">
	<ele>1547.60</ele>
	<time>2025-08-03T09:37:52.000Z</time>
</trkpt>
<trkpt lat="45.9554400" lon="10.1764070">
	<ele>1547.60</ele>
	<time>2025-08-03T09:37:53.000Z</time>
</trkpt>
<trkpt lat="45.9554270" lon="10.1763780">
	<ele>1547.20</ele>
	<time>2025-08-03T09:37:54.000Z</time>
</trkpt>
<trkpt lat="45.9554120" lon="10.1763660">
	<ele>1547.00</ele>
	<time>2025-08-03T09:37:55.000Z</time>
</trkpt>
<trkpt lat="45.9554060" lon="10.1763470">
	<ele>1547.00</ele>
	<time>2025-08-03T09:37:56.000Z</time>
</trkpt>
<trkpt lat="45.9554040" lon="10.1763250">
	<ele>1546.80</ele>
	<time>2025-08-03T09:37:57.000Z</time>
</trkpt>
<trkpt lat="45.9554170" lon="10.1763040">
	<ele>1546.60</ele>
	<time>2025-08-03T09:37:58.000Z</time>
</trkpt>
<trkpt lat="45.9554270" lon="10.1762900">
	<ele>1546.40</ele>
	<time>2025-08-03T09:37:59.000Z</time>
</trkpt>
<trkpt lat="45.9554190" lon="10.1762750">
	<ele>1546.20</ele>
	<time>2025-08-03T09:38:00.000Z</time>
</trkpt>
<trkpt lat="45.9554040" lon="10.1762490">
	<ele>1546.00</ele>
	<time>2025-08-03T09:38:01.000Z</time>
</trkpt>
<trkpt lat="45.9553910" lon="10.1762280">
	<ele>1545.80</ele>
	<time>2025-08-03T09:38:02.000Z</time>
</trkpt>
<trkpt lat="45.9553910" lon="10.1762050">
	<ele>1545.80</ele>
	<time>2025-08-03T09:38:03.000Z</time>
</trkpt>
<trkpt lat="45.9553810" lon="10.1761850">
	<ele>1545.40</ele>
	<time>2025-08-03T09:38:04.000Z</time>
</trkpt>
<trkpt lat="45.9553720" lon="10.1761600">
	<ele>1545.40</ele>
	<time>2025-08-03T09:38:05.000Z</time>
</trkpt>
<trkpt lat="45.9553590" lon="10.1761330">
	<ele>1545.20</ele>
	<time>2025-08-03T09:38:06.000Z</time>
</trkpt>
<trkpt lat="45.9553460" lon="10.1761150">
	<ele>1545.20</ele>
	<time>2025-08-03T09:38:07.000Z</time>
</trkpt>
<trkpt lat="45.9553320" lon="10.1761070">
	<ele>1545.20</ele>
	<time>2025-08-03T09:38:08.000Z</time>
</trkpt>
<trkpt lat="45.9553180" lon="10.1761030">
	<ele>1545.00</ele>
	<time>2025-08-03T09:38:09.000Z</time>
</trkpt>
<trkpt lat="45.9553100" lon="10.1761070">
	<ele>1545.00</ele>
	<time>2025-08-03T09:38:10.000Z</time>
</trkpt>
<trkpt lat="45.9553040" lon="10.1760990">
	<ele>1544.80</ele>
	<time>2025-08-03T09:38:11.000Z</time>
</trkpt>
<trkpt lat="45.9552970" lon="10.1760810">
	<ele>1544.60</ele>
	<time>2025-08-03T09:38:12.000Z</time>
</trkpt>
<trkpt lat="45.9552830" lon="10.1760600">
	<ele>1544.60</ele>
	<time>2025-08-03T09:38:13.000Z</time>
</trkpt>
<trkpt lat="45.9552700" lon="10.1760400">
	<ele>1544.60</ele>
	<time>2025-08-03T09:38:14.000Z</time>
</trkpt>
<trkpt lat="45.9552620" lon="10.1760300">
	<ele>1544.40</ele>
	<time>2025-08-03T09:38:15.000Z</time>
</trkpt>
<trkpt lat="45.9552630" lon="10.1760170">
	<ele>1544.40</ele>
	<time>2025-08-03T09:38:16.000Z</time>
</trkpt>
<trkpt lat="45.9552590" lon="10.1760040">
	<ele>1544.40</ele>
	<time>2025-08-03T09:38:17.000Z</time>
</trkpt>
<trkpt lat="45.9552510" lon="10.1759940">
	<ele>1544.20</ele>
	<time>2025-08-03T09:38:18.000Z</time>
</trkpt>
<trkpt lat="45.9552330" lon="10.1759800">
	<ele>1544.20</ele>
	<time>2025-08-03T09:38:19.000Z</time>
</trkpt>
<trkpt lat="45.9552140" lon="10.1759630">
	<ele>1544.20</ele>
	<time>2025-08-03T09:38:20.000Z</time>
</trkpt>
<trkpt lat="45.9551920" lon="10.1759480">
	<ele>1544.00</ele>
	<time>2025-08-03T09:38:21.000Z</time>
</trkpt>
<trkpt lat="45.9551810" lon="10.1759370">
	<ele>1544.00</ele>
	<time>2025-08-03T09:38:22.000Z</time>
</trkpt>
<trkpt lat="45.9551700" lon="10.1759220">
	<ele>1543.80</ele>
	<time>2025-08-03T09:38:23.000Z</time>
</trkpt>
<trkpt lat="45.9551500" lon="10.1759140">
	<ele>1543.80</ele>
	<time>2025-08-03T09:38:24.000Z</time>
</trkpt>
<trkpt lat="45.9551290" lon="10.1759060">
	<ele>1543.60</ele>
	<time>2025-08-03T09:38:25.000Z</time>
</trkpt>
<trkpt lat="45.9551080" lon="10.1758940">
	<ele>1543.40</ele>
	<time>2025-08-03T09:38:26.000Z</time>
</trkpt>
<trkpt lat="45.9550850" lon="10.1758840">
	<ele>1543.20</ele>
	<time>2025-08-03T09:38:27.000Z</time>
</trkpt>
<trkpt lat="45.9550640" lon="10.1758780">
	<ele>1543.20</ele>
	<time>2025-08-03T09:38:28.000Z</time>
</trkpt>
<trkpt lat="45.9550440" lon="10.1758680">
	<ele>1543.00</ele>
	<time>2025-08-03T09:38:29.000Z</time>
</trkpt>
<trkpt lat="45.9550240" lon="10.1758560">
	<ele>1542.80</ele>
	<time>2025-08-03T09:38:30.000Z</time>
</trkpt>
<trkpt lat="45.9550000" lon="10.1758500">
	<ele>1542.80</ele>
	<time>2025-08-03T09:38:31.000Z</time>
</trkpt>
<trkpt lat="45.9549790" lon="10.1758430">
	<ele>1542.60</ele>
	<time>2025-08-03T09:38:32.000Z</time>
</trkpt>
<trkpt lat="45.9549680" lon="10.1758170">
	<ele>1542.60</ele>
	<time>2025-08-03T09:38:33.000Z</time>
</trkpt>
<trkpt lat="45.9549540" lon="10.1757880">
	<ele>1542.60</ele>
	<time>2025-08-03T09:38:34.000Z</time>
</trkpt>
<trkpt lat="45.9549460" lon="10.1757610">
	<ele>1542.40</ele>
	<time>2025-08-03T09:38:35.000Z</time>
</trkpt>
<trkpt lat="45.9549370" lon="10.1757410">
	<ele>1542.40</ele>
	<time>2025-08-03T09:38:36.000Z</time>
</trkpt>
<trkpt lat="45.9549240" lon="10.1757350">
	<ele>1542.20</ele>
	<time>2025-08-03T09:38:37.000Z</time>
</trkpt>
<trkpt lat="45.9549130" lon="10.1757200">
	<ele>1542.20</ele>
	<time>2025-08-03T09:38:38.000Z</time>
</trkpt>
<trkpt lat="45.9549040" lon="10.1757000">
	<ele>1542.20</ele>
	<time>2025-08-03T09:38:39.000Z</time>
</trkpt>
<trkpt lat="45.9548980" lon="10.1756840">
	<ele>1542.00</ele>
	<time>2025-08-03T09:38:40.000Z</time>
</trkpt>
<trkpt lat="45.9549000" lon="10.1756720">
	<ele>1541.80</ele>
	<time>2025-08-03T09:38:41.000Z</time>
</trkpt>
<trkpt lat="45.9548990" lon="10.1756540">
	<ele>1541.60</ele>
	<time>2025-08-03T09:38:42.000Z</time>
</trkpt>
<trkpt lat="45.9548930" lon="10.1756300">
	<ele>1541.40</ele>
	<time>2025-08-03T09:38:43.000Z</time>
</trkpt>
<trkpt lat="45.9548890" lon="10.1756000">
	<ele>1541.20</ele>
	<time>2025-08-03T09:38:44.000Z</time>
</trkpt>
<trkpt lat="45.9548860" lon="10.1755650">
	<ele>1541.00</ele>
	<time>2025-08-03T09:38:45.000Z</time>
</trkpt>
<trkpt lat="45.9548980" lon="10.1755390">
	<ele>1540.80</ele>
	<time>2025-08-03T09:38:46.000Z</time>
</trkpt>
<trkpt lat="45.9549010" lon="10.1755130">
	<ele>1540.60</ele>
	<time>2025-08-03T09:38:47.000Z</time>
</trkpt>
<trkpt lat="45.9548990" lon="10.1754910">
	<ele>1540.60</ele>
	<time>2025-08-03T09:38:48.000Z</time>
</trkpt>
<trkpt lat="45.9548950" lon="10.1754700">
	<ele>1540.40</ele>
	<time>2025-08-03T09:38:49.000Z</time>
</trkpt>
<trkpt lat="45.9548760" lon="10.1754450">
	<ele>1540.40</ele>
	<time>2025-08-03T09:38:50.000Z</time>
</trkpt>
<trkpt lat="45.9548560" lon="10.1754110">
	<ele>1540.40</ele>
	<time>2025-08-03T09:38:51.000Z</time>
</trkpt>
<trkpt lat="45.9548370" lon="10.1753890">
	<ele>1540.20</ele>
	<time>2025-08-03T09:38:52.000Z</time>
</trkpt>
<trkpt lat="45.9548120" lon="10.1753640">
	<ele>1540.20</ele>
	<time>2025-08-03T09:38:53.000Z</time>
</trkpt>
<trkpt lat="45.9547950" lon="10.1753510">
	<ele>1540.20</ele>
	<time>2025-08-03T09:38:54.000Z</time>
</trkpt>
<trkpt lat="45.9547790" lon="10.1753370">
	<ele>1540.00</ele>
	<time>2025-08-03T09:38:55.000Z</time>
</trkpt>
<trkpt lat="45.9547710" lon="10.1753250">
	<ele>1540.00</ele>
	<time>2025-08-03T09:38:56.000Z</time>
</trkpt>
<trkpt lat="45.9547580" lon="10.1753200">
	<ele>1540.00</ele>
	<time>2025-08-03T09:38:57.000Z</time>
</trkpt>
<trkpt lat="45.9547400" lon="10.1753150">
	<ele>1539.80</ele>
	<time>2025-08-03T09:38:58.000Z</time>
</trkpt>
<trkpt lat="45.9547290" lon="10.1753120">
	<ele>1539.80</ele>
	<time>2025-08-03T09:38:59.000Z</time>
</trkpt>
<trkpt lat="45.9547110" lon="10.1753180">
	<ele>1539.60</ele>
	<time>2025-08-03T09:39:00.000Z</time>
</trkpt>
<trkpt lat="45.9546930" lon="10.1753190">
	<ele>1539.60</ele>
	<time>2025-08-03T09:39:01.000Z</time>
</trkpt>
<trkpt lat="45.9546770" lon="10.1753180">
	<ele>1539.60</ele>
	<time>2025-08-03T09:39:02.000Z</time>
</trkpt>
<trkpt lat="45.9546580" lon="10.1753130">
	<ele>1539.60</ele>
	<time>2025-08-03T09:39:03.000Z</time>
</trkpt>
<trkpt lat="45.9546450" lon="10.1753070">
	<ele>1539.40</ele>
	<time>2025-08-03T09:39:04.000Z</time>
</trkpt>
<trkpt lat="45.9546290" lon="10.1753010">
	<ele>1539.40</ele>
	<time>2025-08-03T09:39:05.000Z</time>
</trkpt>
<trkpt lat="45.9546140" lon="10.1753070">
	<ele>1539.40</ele>
	<time>2025-08-03T09:39:06.000Z</time>
</trkpt>
<trkpt lat="45.9546040" lon="10.1753050">
	<ele>1539.40</ele>
	<time>2025-08-03T09:39:07.000Z</time>
</trkpt>
<trkpt lat="45.9545890" lon="10.1753000">
	<ele>1539.40</ele>
	<time>2025-08-03T09:39:08.000Z</time>
</trkpt>
<trkpt lat="45.9545770" lon="10.1752950">
	<ele>1539.40</ele>
	<time>2025-08-03T09:39:09.000Z</time>
</trkpt>
<trkpt lat="45.9545600" lon="10.1752800">
	<ele>1539.20</ele>
	<time>2025-08-03T09:39:10.000Z</time>
</trkpt>
<trkpt lat="45.9545410" lon="10.1752720">
	<ele>1539.20</ele>
	<time>2025-08-03T09:39:11.000Z</time>
</trkpt>
<trkpt lat="45.9545260" lon="10.1752690">
	<ele>1539.00</ele>
	<time>2025-08-03T09:39:12.000Z</time>
</trkpt>
<trkpt lat="45.9545070" lon="10.1752740">
	<ele>1539.00</ele>
	<time>2025-08-03T09:39:13.000Z</time>
</trkpt>
<trkpt lat="45.9544970" lon="10.1752590">
	<ele>1538.80</ele>
	<time>2025-08-03T09:39:14.000Z</time>
</trkpt>
<trkpt lat="45.9544870" lon="10.1752450">
	<ele>1538.80</ele>
	<time>2025-08-03T09:39:15.000Z</time>
</trkpt>
<trkpt lat="45.9544760" lon="10.1752260">
	<ele>1538.80</ele>
	<time>2025-08-03T09:39:16.000Z</time>
</trkpt>
<trkpt lat="45.9544610" lon="10.1752290">
	<ele>1538.60</ele>
	<time>2025-08-03T09:39:17.000Z</time>
</trkpt>
<trkpt lat="45.9544380" lon="10.1752260">
	<ele>1538.60</ele>
	<time>2025-08-03T09:39:18.000Z</time>
</trkpt>
<trkpt lat="45.9544200" lon="10.1752040">
	<ele>1538.40</ele>
	<time>2025-08-03T09:39:19.000Z</time>
</trkpt>
<trkpt lat="45.9543990" lon="10.1751930">
	<ele>1538.40</ele>
	<time>2025-08-03T09:39:20.000Z</time>
</trkpt>
<trkpt lat="45.9543780" lon="10.1751910">
	<ele>1538.20</ele>
	<time>2025-08-03T09:39:21.000Z</time>
</trkpt>
<trkpt lat="45.9543640" lon="10.1751980">
	<ele>1538.20</ele>
	<time>2025-08-03T09:39:22.000Z</time>
</trkpt>
<trkpt lat="45.9543430" lon="10.1752040">
	<ele>1538.20</ele>
	<time>2025-08-03T09:39:23.000Z</time>
</trkpt>
<trkpt lat="45.9543300" lon="10.1751930">
	<ele>1538.20</ele>
	<time>2025-08-03T09:39:24.000Z</time>
</trkpt>
<trkpt lat="45.9543160" lon="10.1751820">
	<ele>1538.00</ele>
	<time>2025-08-03T09:39:25.000Z</time>
</trkpt>
<trkpt lat="45.9542940" lon="10.1751820">
	<ele>1538.00</ele>
	<time>2025-08-03T09:39:26.000Z</time>
</trkpt>
<trkpt lat="45.9542820" lon="10.1751720">
	<ele>1537.80</ele>
	<time>2025-08-03T09:39:27.000Z</time>
</trkpt>
<trkpt lat="45.9542660" lon="10.1751620">
	<ele>1537.60</ele>
	<time>2025-08-03T09:39:28.000Z</time>
</trkpt>
<trkpt lat="45.9542560" lon="10.1751510">
	<ele>1537.60</ele>
	<time>2025-08-03T09:39:29.000Z</time>
</trkpt>
<trkpt lat="45.9542430" lon="10.1751420">
	<ele>1537.40</ele>
	<time>2025-08-03T09:39:30.000Z</time>
</trkpt>
<trkpt lat="45.9542220" lon="10.1751470">
	<ele>1537.20</ele>
	<time>2025-08-03T09:39:31.000Z</time>
</trkpt>
<trkpt lat="45.9542020" lon="10.1751450">
	<ele>1537.20</ele>
	<time>2025-08-03T09:39:32.000Z</time>
</trkpt>
<trkpt lat="45.9541890" lon="10.1751440">
	<ele>1537.00</ele>
	<time>2025-08-03T09:39:33.000Z</time>
</trkpt>
<trkpt lat="45.9541750" lon="10.1751480">
	<ele>1537.00</ele>
	<time>2025-08-03T09:39:34.000Z</time>
</trkpt>
<trkpt lat="45.9541630" lon="10.1751500">
	<ele>1536.80</ele>
	<time>2025-08-03T09:39:35.000Z</time>
</trkpt>
<trkpt lat="45.9541470" lon="10.1751480">
	<ele>1536.80</ele>
	<time>2025-08-03T09:39:36.000Z</time>
</trkpt>
<trkpt lat="45.9541320" lon="10.1751380">
	<ele>1536.80</ele>
	<time>2025-08-03T09:39:37.000Z</time>
</trkpt>
<trkpt lat="45.9541190" lon="10.1751250">
	<ele>1536.60</ele>
	<time>2025-08-03T09:39:38.000Z</time>
</trkpt>
<trkpt lat="45.9541050" lon="10.1751160">
	<ele>1536.60</ele>
	<time>2025-08-03T09:39:39.000Z</time>
</trkpt>
<trkpt lat="45.9540970" lon="10.1751030">
	<ele>1536.40</ele>
	<time>2025-08-03T09:39:40.000Z</time>
</trkpt>
<trkpt lat="45.9540950" lon="10.1750850">
	<ele>1536.40</ele>
	<time>2025-08-03T09:39:41.000Z</time>
</trkpt>
<trkpt lat="45.9540890" lon="10.1750680">
	<ele>1536.20</ele>
	<time>2025-08-03T09:39:42.000Z</time>
</trkpt>
<trkpt lat="45.9540770" lon="10.1750510">
	<ele>1536.20</ele>
	<time>2025-08-03T09:39:43.000Z</time>
</trkpt>
<trkpt lat="45.9540660" lon="10.1750350">
	<ele>1536.20</ele>
	<time>2025-08-03T09:39:44.000Z</time>
</trkpt>
<trkpt lat="45.9540620" lon="10.1750220">
	<ele>1536.00</ele>
	<time>2025-08-03T09:39:45.000Z</time>
</trkpt>
<trkpt lat="45.9540560" lon="10.1750060">
	<ele>1536.00</ele>
	<time>2025-08-03T09:39:46.000Z</time>
</trkpt>
<trkpt lat="45.9540480" lon="10.1749880">
	<ele>1535.80</ele>
	<time>2025-08-03T09:39:47.000Z</time>
</trkpt>
<trkpt lat="45.9540450" lon="10.1749710">
	<ele>1535.80</ele>
	<time>2025-08-03T09:39:48.000Z</time>
</trkpt>
<trkpt lat="45.9540440" lon="10.1749480">
	<ele>1535.80</ele>
	<time>2025-08-03T09:39:49.000Z</time>
</trkpt>
<trkpt lat="45.9540410" lon="10.1749260">
	<ele>1535.60</ele>
	<time>2025-08-03T09:39:50.000Z</time>
</trkpt>
<trkpt lat="45.9540370" lon="10.1749030">
	<ele>1535.40</ele>
	<time>2025-08-03T09:39:51.000Z</time>
</trkpt>
<trkpt lat="45.9540390" lon="10.1748790">
	<ele>1535.20</ele>
	<time>2025-08-03T09:39:52.000Z</time>
</trkpt>
<trkpt lat="45.9540370" lon="10.1748570">
	<ele>1535.00</ele>
	<time>2025-08-03T09:39:53.000Z</time>
</trkpt>
<trkpt lat="45.9540330" lon="10.1748350">
	<ele>1534.80</ele>
	<time>2025-08-03T09:39:54.000Z</time>
</trkpt>
<trkpt lat="45.9540260" lon="10.1748070">
	<ele>1534.60</ele>
	<time>2025-08-03T09:39:55.000Z</time>
</trkpt>
<trkpt lat="45.9540220" lon="10.1747820">
	<ele>1534.60</ele>
	<time>2025-08-03T09:39:56.000Z</time>
</trkpt>
<trkpt lat="45.9540180" lon="10.1747600">
	<ele>1534.40</ele>
	<time>2025-08-03T09:39:57.000Z</time>
</trkpt>
<trkpt lat="45.9540190" lon="10.1747380">
	<ele>1534.20</ele>
	<time>2025-08-03T09:39:58.000Z</time>
</trkpt>
<trkpt lat="45.9540170" lon="10.1747190">
	<ele>1534.00</ele>
	<time>2025-08-03T09:39:59.000Z</time>
</trkpt>
<trkpt lat="45.9540110" lon="10.1746990">
	<ele>1534.00</ele>
	<time>2025-08-03T09:40:00.000Z</time>
</trkpt>
<trkpt lat="45.9540080" lon="10.1746770">
	<ele>1534.00</ele>
	<time>2025-08-03T09:40:01.000Z</time>
</trkpt>
<trkpt lat="45.9540090" lon="10.1746600">
	<ele>1533.60</ele>
	<time>2025-08-03T09:40:02.000Z</time>
</trkpt>
<trkpt lat="45.9540160" lon="10.1746400">
	<ele>1533.60</ele>
	<time>2025-08-03T09:40:03.000Z</time>
</trkpt>
<trkpt lat="45.9540190" lon="10.1746120">
	<ele>1533.40</ele>
	<time>2025-08-03T09:40:04.000Z</time>
</trkpt>
<trkpt lat="45.9540140" lon="10.1745880">
	<ele>1533.20</ele>
	<time>2025-08-03T09:40:05.000Z</time>
</trkpt>
<trkpt lat="45.9540070" lon="10.1745640">
	<ele>1533.20</ele>
	<time>2025-08-03T09:40:06.000Z</time>
</trkpt>
<trkpt lat="45.9540020" lon="10.1745480">
	<ele>1533.00</ele>
	<time>2025-08-03T09:40:07.000Z</time>
</trkpt>
<trkpt lat="45.9539940" lon="10.1745260">
	<ele>1532.80</ele>
	<time>2025-08-03T09:40:08.000Z</time>
</trkpt>
<trkpt lat="45.9539900" lon="10.1745020">
	<ele>1532.60</ele>
	<time>2025-08-03T09:40:09.000Z</time>
</trkpt>
<trkpt lat="45.9539920" lon="10.1744680">
	<ele>1532.60</ele>
	<time>2025-08-03T09:40:10.000Z</time>
</trkpt>
<trkpt lat="45.9539920" lon="10.1744510">
	<ele>1532.40</ele>
	<time>2025-08-03T09:40:11.000Z</time>
</trkpt>
<trkpt lat="45.9539870" lon="10.1744320">
	<ele>1532.20</ele>
	<time>2025-08-03T09:40:12.000Z</time>
</trkpt>
<trkpt lat="45.9539820" lon="10.1744120">
	<ele>1532.00</ele>
	<time>2025-08-03T09:40:13.000Z</time>
</trkpt>
<trkpt lat="45.9539820" lon="10.1743750">
	<ele>1532.00</ele>
	<time>2025-08-03T09:40:14.000Z</time>
</trkpt>
<trkpt lat="45.9539800" lon="10.1743440">
	<ele>1531.80</ele>
	<time>2025-08-03T09:40:15.000Z</time>
</trkpt>
<trkpt lat="45.9539750" lon="10.1743220">
	<ele>1531.60</ele>
	<time>2025-08-03T09:40:16.000Z</time>
</trkpt>
<trkpt lat="45.9539730" lon="10.1743070">
	<ele>1531.60</ele>
	<time>2025-08-03T09:40:17.000Z</time>
</trkpt>
<trkpt lat="45.9539760" lon="10.1742920">
	<ele>1531.40</ele>
	<time>2025-08-03T09:40:18.000Z</time>
</trkpt>
<trkpt lat="45.9539770" lon="10.1742730">
	<ele>1531.20</ele>
	<time>2025-08-03T09:40:19.000Z</time>
</trkpt>
<trkpt lat="45.9539750" lon="10.1742500">
	<ele>1531.00</ele>
	<time>2025-08-03T09:40:20.000Z</time>
</trkpt>
<trkpt lat="45.9539710" lon="10.1742310">
	<ele>1531.00</ele>
	<time>2025-08-03T09:40:21.000Z</time>
</trkpt>
<trkpt lat="45.9539670" lon="10.1742110">
	<ele>1531.00</ele>
	<time>2025-08-03T09:40:22.000Z</time>
</trkpt>
<trkpt lat="45.9539600" lon="10.1741910">
	<ele>1530.80</ele>
	<time>2025-08-03T09:40:23.000Z</time>
</trkpt>
<trkpt lat="45.9539580" lon="10.1741660">
	<ele>1530.60</ele>
	<time>2025-08-03T09:40:24.000Z</time>
</trkpt>
<trkpt lat="45.9539560" lon="10.1741460">
	<ele>1530.60</ele>
	<time>2025-08-03T09:40:25.000Z</time>
</trkpt>
<trkpt lat="45.9539530" lon="10.1741310">
	<ele>1530.60</ele>
	<time>2025-08-03T09:40:26.000Z</time>
</trkpt>
<trkpt lat="45.9539540" lon="10.1741150">
	<ele>1530.20</ele>
	<time>2025-08-03T09:40:27.000Z</time>
</trkpt>
<trkpt lat="45.9539510" lon="10.1740920">
	<ele>1530.00</ele>
	<time>2025-08-03T09:40:28.000Z</time>
</trkpt>
<trkpt lat="45.9539510" lon="10.1740710">
	<ele>1529.60</ele>
	<time>2025-08-03T09:40:29.000Z</time>
</trkpt>
<trkpt lat="45.9539450" lon="10.1740500">
	<ele>1529.40</ele>
	<time>2025-08-03T09:40:30.000Z</time>
</trkpt>
<trkpt lat="45.9539390" lon="10.1740380">
	<ele>1529.20</ele>
	<time>2025-08-03T09:40:31.000Z</time>
</trkpt>
<trkpt lat="45.9539370" lon="10.1740260">
	<ele>1529.00</ele>
	<time>2025-08-03T09:40:32.000Z</time>
</trkpt>
<trkpt lat="45.9539350" lon="10.1740050">
	<ele>1528.80</ele>
	<time>2025-08-03T09:40:33.000Z</time>
</trkpt>
<trkpt lat="45.9539290" lon="10.1739860">
	<ele>1528.80</ele>
	<time>2025-08-03T09:40:34.000Z</time>
</trkpt>
<trkpt lat="45.9539140" lon="10.1739660">
	<ele>1528.40</ele>
	<time>2025-08-03T09:40:35.000Z</time>
</trkpt>
<trkpt lat="45.9539050" lon="10.1739360">
	<ele>1528.20</ele>
	<time>2025-08-03T09:40:36.000Z</time>
</trkpt>
<trkpt lat="45.9539050" lon="10.1739150">
	<ele>1528.00</ele>
	<time>2025-08-03T09:40:37.000Z</time>
</trkpt>
<trkpt lat="45.9539020" lon="10.1738950">
	<ele>1527.80</ele>
	<time>2025-08-03T09:40:38.000Z</time>
</trkpt>
<trkpt lat="45.9538990" lon="10.1738760">
	<ele>1527.60</ele>
	<time>2025-08-03T09:40:39.000Z</time>
</trkpt>
<trkpt lat="45.9538970" lon="10.1738600">
	<ele>1527.40</ele>
	<time>2025-08-03T09:40:40.000Z</time>
</trkpt>
<trkpt lat="45.9538880" lon="10.1738450">
	<ele>1527.20</ele>
	<time>2025-08-03T09:40:41.000Z</time>
</trkpt>
<trkpt lat="45.9538810" lon="10.1738240">
	<ele>1527.20</ele>
	<time>2025-08-03T09:40:42.000Z</time>
</trkpt>
<trkpt lat="45.9538750" lon="10.1738090">
	<ele>1527.00</ele>
	<time>2025-08-03T09:40:43.000Z</time>
</trkpt>
<trkpt lat="45.9538710" lon="10.1737920">
	<ele>1526.60</ele>
	<time>2025-08-03T09:40:44.000Z</time>
</trkpt>
<trkpt lat="45.9538650" lon="10.1737680">
	<ele>1526.40</ele>
	<time>2025-08-03T09:40:45.000Z</time>
</trkpt>
<trkpt lat="45.9538590" lon="10.1737480">
	<ele>1526.40</ele>
	<time>2025-08-03T09:40:46.000Z</time>
</trkpt>
<trkpt lat="45.9538530" lon="10.1737240">
	<ele>1526.20</ele>
	<time>2025-08-03T09:40:47.000Z</time>
</trkpt>
<trkpt lat="45.9538480" lon="10.1737030">
	<ele>1526.20</ele>
	<time>2025-08-03T09:40:48.000Z</time>
</trkpt>
<trkpt lat="45.9538470" lon="10.1736800">
	<ele>1526.00</ele>
	<time>2025-08-03T09:40:49.000Z</time>
</trkpt>
<trkpt lat="45.9538450" lon="10.1736590">
	<ele>1526.00</ele>
	<time>2025-08-03T09:40:50.000Z</time>
</trkpt>
<trkpt lat="45.9538430" lon="10.1736350">
	<ele>1525.80</ele>
	<time>2025-08-03T09:40:51.000Z</time>
</trkpt>
<trkpt lat="45.9538360" lon="10.1736070">
	<ele>1525.60</ele>
	<time>2025-08-03T09:40:52.000Z</time>
</trkpt>
<trkpt lat="45.9538250" lon="10.1735800">
	<ele>1525.60</ele>
	<time>2025-08-03T09:40:53.000Z</time>
</trkpt>
<trkpt lat="45.9538160" lon="10.1735550">
	<ele>1525.40</ele>
	<time>2025-08-03T09:40:54.000Z</time>
</trkpt>
<trkpt lat="45.9538110" lon="10.1735400">
	<ele>1525.40</ele>
	<time>2025-08-03T09:40:55.000Z</time>
</trkpt>
<trkpt lat="45.9538020" lon="10.1735210">
	<ele>1525.20</ele>
	<time>2025-08-03T09:40:56.000Z</time>
</trkpt>
<trkpt lat="45.9537950" lon="10.1735080">
	<ele>1525.00</ele>
	<time>2025-08-03T09:40:57.000Z</time>
</trkpt>
<trkpt lat="45.9537890" lon="10.1734970">
	<ele>1525.00</ele>
	<time>2025-08-03T09:40:58.000Z</time>
</trkpt>
<trkpt lat="45.9537840" lon="10.1734890">
	<ele>1524.80</ele>
	<time>2025-08-03T09:40:59.000Z</time>
</trkpt>
<trkpt lat="45.9537790" lon="10.1734860">
	<ele>1524.60</ele>
	<time>2025-08-03T09:41:00.000Z</time>
</trkpt>
<trkpt lat="45.9537800" lon="10.1734840">
	<ele>1524.40</ele>
	<time>2025-08-03T09:41:01.000Z</time>
</trkpt>
<trkpt lat="45.9537820" lon="10.1734830">
	<ele>1524.20</ele>
	<time>2025-08-03T09:41:02.000Z</time>
</trkpt>
<trkpt lat="45.9537830" lon="10.1734870">
	<ele>1524.00</ele>
	<time>2025-08-03T09:41:03.000Z</time>
</trkpt>
<trkpt lat="45.9537820" lon="10.1734950">
	<ele>1524.00</ele>
	<time>2025-08-03T09:41:04.000Z</time>
</trkpt>
<trkpt lat="45.9537810" lon="10.1735030">
	<ele>1524.00</ele>
	<time>2025-08-03T09:41:05.000Z</time>
</trkpt>
<trkpt lat="45.9537830" lon="10.1735060">
	<ele>1524.00</ele>
	<time>2025-08-03T09:41:06.000Z</time>
</trkpt>
<trkpt lat="45.9537800" lon="10.1734980">
	<ele>1524.20</ele>
	<time>2025-08-03T09:41:07.000Z</time>
</trkpt>
<trkpt lat="45.9537790" lon="10.1734830">
	<ele>1524.20</ele>
	<time>2025-08-03T09:41:08.000Z</time>
</trkpt>
<trkpt lat="45.9537770" lon="10.1734640">
	<ele>1524.20</ele>
	<time>2025-08-03T09:41:09.000Z</time>
</trkpt>
<trkpt lat="45.9537780" lon="10.1734430">
	<ele>1524.00</ele>
	<time>2025-08-03T09:41:10.000Z</time>
</trkpt>
<trkpt lat="45.9537800" lon="10.1734240">
	<ele>1524.00</ele>
	<time>2025-08-03T09:41:11.000Z</time>
</trkpt>
<trkpt lat="45.9537810" lon="10.1734160">
	<ele>1523.80</ele>
	<time>2025-08-03T09:41:12.000Z</time>
</trkpt>
<trkpt lat="45.9537820" lon="10.1734140">
	<ele>1523.80</ele>
	<time>2025-08-03T09:41:13.000Z</time>
</trkpt>
<trkpt lat="45.9537820" lon="10.1734130">
	<ele>1523.60</ele>
	<time>2025-08-03T09:41:14.000Z</time>
</trkpt>
<trkpt lat="45.9537820" lon="10.1734130">
	<ele>1523.60</ele>
	<time>2025-08-03T09:41:15.000Z</time>
</trkpt>
<trkpt lat="45.9537810" lon="10.1734130">
	<ele>1523.60</ele>
	<time>2025-08-03T09:41:16.000Z</time>
</trkpt>
<trkpt lat="45.9537800" lon="10.1734140">
	<ele>1523.60</ele>
	<time>2025-08-03T09:41:17.000Z</time>
</trkpt>
<trkpt lat="45.9537790" lon="10.1734140">
	<ele>1523.60</ele>
	<time>2025-08-03T09:41:18.000Z</time>
</trkpt>
<trkpt lat="45.9537790" lon="10.1734130">
	<ele>1523.60</ele>
	<time>2025-08-03T09:41:19.000Z</time>
</trkpt>
<trkpt lat="45.9537790" lon="10.1734130">
	<ele>1523.60</ele>
	<time>2025-08-03T09:41:20.000Z</time>
</trkpt>
<trkpt lat="45.9537790" lon="10.1734130">
	<ele>1523.60</ele>
	<time>2025-08-03T09:41:21.000Z</time>
</trkpt>
<trkpt lat="45.9537800" lon="10.1734110">
	<ele>1523.40</ele>
	<time>2025-08-03T09:41:22.000Z</time>
</trkpt>
<trkpt lat="45.9537810" lon="10.1734110">
	<ele>1523.40</ele>
	<time>2025-08-03T09:41:23.000Z</time>
</trkpt>
<trkpt lat="45.9537810" lon="10.1734110">
	<ele>1523.60</ele>
	<time>2025-08-03T09:41:24.000Z</time>
</trkpt>
<trkpt lat="45.9537810" lon="10.1734110">
	<ele>1523.40</ele>
	<time>2025-08-03T09:41:25.000Z</time>
</trkpt>
<trkpt lat="45.9537810" lon="10.1734110">
	<ele>1523.40</ele>
	<time>2025-08-03T09:41:26.000Z</time>
</trkpt>
<trkpt lat="45.9537800" lon="10.1734060">
	<ele>1523.40</ele>
	<time>2025-08-03T09:41:27.000Z</time>
</trkpt>
<trkpt lat="45.9537770" lon="10.1733770">
	<ele>1523.20</ele>
	<time>2025-08-03T09:41:28.000Z</time>
</trkpt>
<trkpt lat="45.9537750" lon="10.1733500">
	<ele>1523.00</ele>
	<time>2025-08-03T09:41:29.000Z</time>
</trkpt>
<trkpt lat="45.9537690" lon="10.1733250">
	<ele>1522.80</ele>
	<time>2025-08-03T09:41:30.000Z</time>
</trkpt>
<trkpt lat="45.9537640" lon="10.1733000">
	<ele>1522.60</ele>
	<time>2025-08-03T09:41:31.000Z</time>
</trkpt>
<trkpt lat="45.9537580" lon="10.1732730">
	<ele>1522.20</ele>
	<time>2025-08-03T09:41:32.000Z</time>
</trkpt>
<trkpt lat="45.9537520" lon="10.1732420">
	<ele>1522.00</ele>
	<time>2025-08-03T09:41:33.000Z</time>
</trkpt>
<trkpt lat="45.9537450" lon="10.1732170">
	<ele>1521.80</ele>
	<time>2025-08-03T09:41:34.000Z</time>
</trkpt>
<trkpt lat="45.9537390" lon="10.1731900">
	<ele>1521.80</ele>
	<time>2025-08-03T09:41:35.000Z</time>
</trkpt>
<trkpt lat="45.9537320" lon="10.1731630">
	<ele>1521.60</ele>
	<time>2025-08-03T09:41:36.000Z</time>
</trkpt>
<trkpt lat="45.9537250" lon="10.1731380">
	<ele>1521.20</ele>
	<time>2025-08-03T09:41:37.000Z</time>
</trkpt>
<trkpt lat="45.9537160" lon="10.1731150">
	<ele>1521.00</ele>
	<time>2025-08-03T09:41:38.000Z</time>
</trkpt>
<trkpt lat="45.9537040" lon="10.1730910">
	<ele>1521.00</ele>
	<time>2025-08-03T09:41:39.000Z</time>
</trkpt>
<trkpt lat="45.9536960" lon="10.1730690">
	<ele>1520.60</ele>
	<time>2025-08-03T09:41:40.000Z</time>
</trkpt>
<trkpt lat="45.9536820" lon="10.1730500">
	<ele>1520.40</ele>
	<time>2025-08-03T09:41:41.000Z</time>
</trkpt>
<trkpt lat="45.9536690" lon="10.1730350">
	<ele>1520.40</ele>
	<time>2025-08-03T09:41:42.000Z</time>
</trkpt>
<trkpt lat="45.9536480" lon="10.1730130">
	<ele>1520.20</ele>
	<time>2025-08-03T09:41:43.000Z</time>
</trkpt>
<trkpt lat="45.9536290" lon="10.1729940">
	<ele>1520.00</ele>
	<time>2025-08-03T09:41:44.000Z</time>
</trkpt>
<trkpt lat="45.9536250" lon="10.1729890">
	<ele>1519.80</ele>
	<time>2025-08-03T09:41:45.000Z</time>
</trkpt>
<trkpt lat="45.9536260" lon="10.1729840">
	<ele>1519.60</ele>
	<time>2025-08-03T09:41:46.000Z</time>
</trkpt>
<trkpt lat="45.9536140" lon="10.1729630">
	<ele>1519.60</ele>
	<time>2025-08-03T09:41:47.000Z</time>
</trkpt>
<trkpt lat="45.9536020" lon="10.1729450">
	<ele>1519.40</ele>
	<time>2025-08-03T09:41:48.000Z</time>
</trkpt>
<trkpt lat="45.9535910" lon="10.1729340">
	<ele>1519.40</ele>
	<time>2025-08-03T09:41:49.000Z</time>
</trkpt>
<trkpt lat="45.9535820" lon="10.1729160">
	<ele>1519.20</ele>
	<time>2025-08-03T09:41:50.000Z</time>
</trkpt>
<trkpt lat="45.9535710" lon="10.1728920">
	<ele>1519.00</ele>
	<time>2025-08-03T09:41:51.000Z</time>
</trkpt>
<trkpt lat="45.9535540" lon="10.1728700">
	<ele>1518.80</ele>
	<time>2025-08-03T09:41:52.000Z</time>
</trkpt>
<trkpt lat="45.9535340" lon="10.1728530">
	<ele>1518.80</ele>
	<time>2025-08-03T09:41:53.000Z</time>
</trkpt>
<trkpt lat="45.9535140" lon="10.1728310">
	<ele>1518.80</ele>
	<time>2025-08-03T09:41:54.000Z</time>
</trkpt>
<trkpt lat="45.9534960" lon="10.1728120">
	<ele>1518.60</ele>
	<time>2025-08-03T09:41:55.000Z</time>
</trkpt>
<trkpt lat="45.9534800" lon="10.1727940">
	<ele>1518.60</ele>
	<time>2025-08-03T09:41:56.000Z</time>
</trkpt>
<trkpt lat="45.9534740" lon="10.1727720">
	<ele>1518.20</ele>
	<time>2025-08-03T09:41:57.000Z</time>
</trkpt>
<trkpt lat="45.9534640" lon="10.1727530">
	<ele>1518.00</ele>
	<time>2025-08-03T09:41:58.000Z</time>
</trkpt>
<trkpt lat="45.9534620" lon="10.1727440">
	<ele>1517.80</ele>
	<time>2025-08-03T09:41:59.000Z</time>
</trkpt>
<trkpt lat="45.9534490" lon="10.1727210">
	<ele>1517.60</ele>
	<time>2025-08-03T09:42:00.000Z</time>
</trkpt>
<trkpt lat="45.9534370" lon="10.1727010">
	<ele>1517.60</ele>
	<time>2025-08-03T09:42:01.000Z</time>
</trkpt>
<trkpt lat="45.9534170" lon="10.1726880">
	<ele>1517.40</ele>
	<time>2025-08-03T09:42:02.000Z</time>
</trkpt>
<trkpt lat="45.9534080" lon="10.1726730">
	<ele>1517.20</ele>
	<time>2025-08-03T09:42:03.000Z</time>
</trkpt>
<trkpt lat="45.9533930" lon="10.1726620">
	<ele>1517.00</ele>
	<time>2025-08-03T09:42:04.000Z</time>
</trkpt>
<trkpt lat="45.9533800" lon="10.1726470">
	<ele>1517.00</ele>
	<time>2025-08-03T09:42:05.000Z</time>
</trkpt>
<trkpt lat="45.9533680" lon="10.1726300">
	<ele>1516.80</ele>
	<time>2025-08-03T09:42:06.000Z</time>
</trkpt>
<trkpt lat="45.9533540" lon="10.1726090">
	<ele>1516.60</ele>
	<time>2025-08-03T09:42:07.000Z</time>
</trkpt>
<trkpt lat="45.9533400" lon="10.1725890">
	<ele>1516.60</ele>
	<time>2025-08-03T09:42:08.000Z</time>
</trkpt>
<trkpt lat="45.9533260" lon="10.1725710">
	<ele>1516.40</ele>
	<time>2025-08-03T09:42:09.000Z</time>
</trkpt>
<trkpt lat="45.9533210" lon="10.1725480">
	<ele>1516.40</ele>
	<time>2025-08-03T09:42:10.000Z</time>
</trkpt>
<trkpt lat="45.9533180" lon="10.1725310">
	<ele>1516.20</ele>
	<time>2025-08-03T09:42:11.000Z</time>
</trkpt>
<trkpt lat="45.9533180" lon="10.1725070">
	<ele>1516.20</ele>
	<time>2025-08-03T09:42:12.000Z</time>
</trkpt>
<trkpt lat="45.9533120" lon="10.1724710">
	<ele>1516.00</ele>
	<time>2025-08-03T09:42:13.000Z</time>
</trkpt>
<trkpt lat="45.9533050" lon="10.1724440">
	<ele>1515.80</ele>
	<time>2025-08-03T09:42:14.000Z</time>
</trkpt>
<trkpt lat="45.9533020" lon="10.1724360">
	<ele>1515.60</ele>
	<time>2025-08-03T09:42:15.000Z</time>
</trkpt>
<trkpt lat="45.9532910" lon="10.1724230">
	<ele>1515.60</ele>
	<time>2025-08-03T09:42:16.000Z</time>
</trkpt>
<trkpt lat="45.9532790" lon="10.1724090">
	<ele>1515.60</ele>
	<time>2025-08-03T09:42:17.000Z</time>
</trkpt>
<trkpt lat="45.9532770" lon="10.1723980">
	<ele>1515.40</ele>
	<time>2025-08-03T09:42:18.000Z</time>
</trkpt>
<trkpt lat="45.9532740" lon="10.1723860">
	<ele>1515.20</ele>
	<time>2025-08-03T09:42:19.000Z</time>
</trkpt>
<trkpt lat="45.9532740" lon="10.1723740">
	<ele>1515.00</ele>
	<time>2025-08-03T09:42:20.000Z</time>
</trkpt>
<trkpt lat="45.9532610" lon="10.1723790">
	<ele>1515.00</ele>
	<time>2025-08-03T09:42:21.000Z</time>
</trkpt>
<trkpt lat="45.9532590" lon="10.1723650">
	<ele>1514.60</ele>
	<time>2025-08-03T09:42:22.000Z</time>
</trkpt>
<trkpt lat="45.9532580" lon="10.1723470">
	<ele>1514.60</ele>
	<time>2025-08-03T09:42:23.000Z</time>
</trkpt>
<trkpt lat="45.9532550" lon="10.1723210">
	<ele>1514.40</ele>
	<time>2025-08-03T09:42:24.000Z</time>
</trkpt>
<trkpt lat="45.9532480" lon="10.1722910">
	<ele>1514.20</ele>
	<time>2025-08-03T09:42:25.000Z</time>
</trkpt>
<trkpt lat="45.9532360" lon="10.1722660">
	<ele>1514.20</ele>
	<time>2025-08-03T09:42:26.000Z</time>
</trkpt>
<trkpt lat="45.9532250" lon="10.1722470">
	<ele>1514.00</ele>
	<time>2025-08-03T09:42:27.000Z</time>
</trkpt>
<trkpt lat="45.9532120" lon="10.1722260">
	<ele>1513.80</ele>
	<time>2025-08-03T09:42:28.000Z</time>
</trkpt>
<trkpt lat="45.9532040" lon="10.1722070">
	<ele>1513.80</ele>
	<time>2025-08-03T09:42:29.000Z</time>
</trkpt>
<trkpt lat="45.9531940" lon="10.1721920">
	<ele>1513.40</ele>
	<time>2025-08-03T09:42:30.000Z</time>
</trkpt>
<trkpt lat="45.9531870" lon="10.1721770">
	<ele>1513.20</ele>
	<time>2025-08-03T09:42:31.000Z</time>
</trkpt>
<trkpt lat="45.9531770" lon="10.1721570">
	<ele>1513.00</ele>
	<time>2025-08-03T09:42:32.000Z</time>
</trkpt>
<trkpt lat="45.9531680" lon="10.1721350">
	<ele>1513.00</ele>
	<time>2025-08-03T09:42:33.000Z</time>
</trkpt>
<trkpt lat="45.9531620" lon="10.1721090">
	<ele>1512.80</ele>
	<time>2025-08-03T09:42:34.000Z</time>
</trkpt>
<trkpt lat="45.9531570" lon="10.1720790">
	<ele>1512.60</ele>
	<time>2025-08-03T09:42:35.000Z</time>
</trkpt>
<trkpt lat="45.9531530" lon="10.1720590">
	<ele>1512.60</ele>
	<time>2025-08-03T09:42:36.000Z</time>
</trkpt>
<trkpt lat="45.9531480" lon="10.1720450">
	<ele>1512.40</ele>
	<time>2025-08-03T09:42:37.000Z</time>
</trkpt>
<trkpt lat="45.9531440" lon="10.1720300">
	<ele>1512.00</ele>
	<time>2025-08-03T09:42:38.000Z</time>
</trkpt>
<trkpt lat="45.9531380" lon="10.1720220">
	<ele>1511.80</ele>
	<time>2025-08-03T09:42:39.000Z</time>
</trkpt>
<trkpt lat="45.9531250" lon="10.1719900">
	<ele>1511.80</ele>
	<time>2025-08-03T09:42:40.000Z</time>
</trkpt>
<trkpt lat="45.9531220" lon="10.1719650">
	<ele>1511.60</ele>
	<time>2025-08-03T09:42:41.000Z</time>
</trkpt>
<trkpt lat="45.9531170" lon="10.1719500">
	<ele>1511.60</ele>
	<time>2025-08-03T09:42:42.000Z</time>
</trkpt>
<trkpt lat="45.9531250" lon="10.1719280">
	<ele>1511.40</ele>
	<time>2025-08-03T09:42:43.000Z</time>
</trkpt>
<trkpt lat="45.9531270" lon="10.1719110">
	<ele>1511.20</ele>
	<time>2025-08-03T09:42:44.000Z</time>
</trkpt>
<trkpt lat="45.9531200" lon="10.1718900">
	<ele>1511.20</ele>
	<time>2025-08-03T09:42:45.000Z</time>
</trkpt>
<trkpt lat="45.9531100" lon="10.1718690">
	<ele>1511.00</ele>
	<time>2025-08-03T09:42:46.000Z</time>
</trkpt>
<trkpt lat="45.9531000" lon="10.1718520">
	<ele>1510.80</ele>
	<time>2025-08-03T09:42:47.000Z</time>
</trkpt>
<trkpt lat="45.9530880" lon="10.1718320">
	<ele>1510.60</ele>
	<time>2025-08-03T09:42:48.000Z</time>
</trkpt>
<trkpt lat="45.9530840" lon="10.1718180">
	<ele>1510.40</ele>
	<time>2025-08-03T09:42:49.000Z</time>
</trkpt>
<trkpt lat="45.9530810" lon="10.1718020">
	<ele>1510.40</ele>
	<time>2025-08-03T09:42:50.000Z</time>
</trkpt>
<trkpt lat="45.9530750" lon="10.1717810">
	<ele>1510.20</ele>
	<time>2025-08-03T09:42:51.000Z</time>
</trkpt>
<trkpt lat="45.9530690" lon="10.1717630">
	<ele>1510.20</ele>
	<time>2025-08-03T09:42:52.000Z</time>
</trkpt>
<trkpt lat="45.9530540" lon="10.1717450">
	<ele>1510.00</ele>
	<time>2025-08-03T09:42:53.000Z</time>
</trkpt>
<trkpt lat="45.9530470" lon="10.1717320">
	<ele>1510.00</ele>
	<time>2025-08-03T09:42:54.000Z</time>
</trkpt>
<trkpt lat="45.9530410" lon="10.1717170">
	<ele>1509.80</ele>
	<time>2025-08-03T09:42:55.000Z</time>
</trkpt>
<trkpt lat="45.9530390" lon="10.1716960">
	<ele>1509.60</ele>
	<time>2025-08-03T09:42:56.000Z</time>
</trkpt>
<trkpt lat="45.9530340" lon="10.1716720">
	<ele>1509.40</ele>
	<time>2025-08-03T09:42:57.000Z</time>
</trkpt>
<trkpt lat="45.9530320" lon="10.1716530">
	<ele>1509.40</ele>
	<time>2025-08-03T09:42:58.000Z</time>
</trkpt>
<trkpt lat="45.9530280" lon="10.1716280">
	<ele>1509.20</ele>
	<time>2025-08-03T09:42:59.000Z</time>
</trkpt>
<trkpt lat="45.9530240" lon="10.1715970">
	<ele>1509.00</ele>
	<time>2025-08-03T09:43:00.000Z</time>
</trkpt>
<trkpt lat="45.9530200" lon="10.1715650">
	<ele>1508.80</ele>
	<time>2025-08-03T09:43:01.000Z</time>
</trkpt>
<trkpt lat="45.9530160" lon="10.1715410">
	<ele>1508.60</ele>
	<time>2025-08-03T09:43:02.000Z</time>
</trkpt>
<trkpt lat="45.9530070" lon="10.1715290">
	<ele>1508.60</ele>
	<time>2025-08-03T09:43:03.000Z</time>
</trkpt>
<trkpt lat="45.9529960" lon="10.1715230">
	<ele>1508.40</ele>
	<time>2025-08-03T09:43:04.000Z</time>
</trkpt>
<trkpt lat="45.9529860" lon="10.1715120">
	<ele>1508.20</ele>
	<time>2025-08-03T09:43:05.000Z</time>
</trkpt>
<trkpt lat="45.9529780" lon="10.1714990">
	<ele>1508.20</ele>
	<time>2025-08-03T09:43:06.000Z</time>
</trkpt>
<trkpt lat="45.9529710" lon="10.1714750">
	<ele>1508.00</ele>
	<time>2025-08-03T09:43:07.000Z</time>
</trkpt>
<trkpt lat="45.9529650" lon="10.1714590">
	<ele>1508.00</ele>
	<time>2025-08-03T09:43:08.000Z</time>
</trkpt>
<trkpt lat="45.9529650" lon="10.1714390">
	<ele>1507.80</ele>
	<time>2025-08-03T09:43:09.000Z</time>
</trkpt>
<trkpt lat="45.9529600" lon="10.1714200">
	<ele>1507.40</ele>
	<time>2025-08-03T09:43:10.000Z</time>
</trkpt>
<trkpt lat="45.9529520" lon="10.1714000">
	<ele>1507.40</ele>
	<time>2025-08-03T09:43:11.000Z</time>
</trkpt>
<trkpt lat="45.9529430" lon="10.1713760">
	<ele>1507.00</ele>
	<time>2025-08-03T09:43:12.000Z</time>
</trkpt>
<trkpt lat="45.9529330" lon="10.1713490">
	<ele>1506.80</ele>
	<time>2025-08-03T09:43:13.000Z</time>
</trkpt>
<trkpt lat="45.9529210" lon="10.1713210">
	<ele>1506.80</ele>
	<time>2025-08-03T09:43:14.000Z</time>
</trkpt>
<trkpt lat="45.9529170" lon="10.1712980">
	<ele>1506.60</ele>
	<time>2025-08-03T09:43:15.000Z</time>
</trkpt>
<trkpt lat="45.9529070" lon="10.1712810">
	<ele>1506.40</ele>
	<time>2025-08-03T09:43:16.000Z</time>
</trkpt>
<trkpt lat="45.9528980" lon="10.1712570">
	<ele>1506.20</ele>
	<time>2025-08-03T09:43:17.000Z</time>
</trkpt>
<trkpt lat="45.9528900" lon="10.1712300">
	<ele>1506.20</ele>
	<time>2025-08-03T09:43:18.000Z</time>
</trkpt>
<trkpt lat="45.9528810" lon="10.1712050">
	<ele>1506.20</ele>
	<time>2025-08-03T09:43:19.000Z</time>
</trkpt>
<trkpt lat="45.9528740" lon="10.1711850">
	<ele>1506.00</ele>
	<time>2025-08-03T09:43:20.000Z</time>
</trkpt>
<trkpt lat="45.9528660" lon="10.1711720">
	<ele>1506.00</ele>
	<time>2025-08-03T09:43:21.000Z</time>
</trkpt>
<trkpt lat="45.9528620" lon="10.1711570">
	<ele>1505.80</ele>
	<time>2025-08-03T09:43:22.000Z</time>
</trkpt>
<trkpt lat="45.9528620" lon="10.1711500">
	<ele>1505.80</ele>
	<time>2025-08-03T09:43:23.000Z</time>
</trkpt>
<trkpt lat="45.9528520" lon="10.1711640">
	<ele>1505.80</ele>
	<time>2025-08-03T09:43:24.000Z</time>
</trkpt>
<trkpt lat="45.9528390" lon="10.1711670">
	<ele>1505.20</ele>
	<time>2025-08-03T09:43:25.000Z</time>
</trkpt>
<trkpt lat="45.9528130" lon="10.1711590">
	<ele>1504.80</ele>
	<time>2025-08-03T09:43:26.000Z</time>
</trkpt>
<trkpt lat="45.9527960" lon="10.1711490">
	<ele>1504.60</ele>
	<time>2025-08-03T09:43:27.000Z</time>
</trkpt>
<trkpt lat="45.9527820" lon="10.1711360">
	<ele>1504.60</ele>
	<time>2025-08-03T09:43:28.000Z</time>
</trkpt>
<trkpt lat="45.9527710" lon="10.1711180">
	<ele>1504.40</ele>
	<time>2025-08-03T09:43:29.000Z</time>
</trkpt>
<trkpt lat="45.9527600" lon="10.1710960">
	<ele>1504.40</ele>
	<time>2025-08-03T09:43:30.000Z</time>
</trkpt>
<trkpt lat="45.9527480" lon="10.1710690">
	<ele>1504.00</ele>
	<time>2025-08-03T09:43:31.000Z</time>
</trkpt>
<trkpt lat="45.9527430" lon="10.1710440">
	<ele>1504.00</ele>
	<time>2025-08-03T09:43:32.000Z</time>
</trkpt>
<trkpt lat="45.9527330" lon="10.1710080">
	<ele>1503.80</ele>
	<time>2025-08-03T09:43:33.000Z</time>
</trkpt>
<trkpt lat="45.9527160" lon="10.1709750">
	<ele>1503.80</ele>
	<time>2025-08-03T09:43:34.000Z</time>
</trkpt>
<trkpt lat="45.9527050" lon="10.1709530">
	<ele>1503.60</ele>
	<time>2025-08-03T09:43:35.000Z</time>
</trkpt>
<trkpt lat="45.9526910" lon="10.1709310">
	<ele>1503.60</ele>
	<time>2025-08-03T09:43:36.000Z</time>
</trkpt>
<trkpt lat="45.9526840" lon="10.1709120">
	<ele>1503.60</ele>
	<time>2025-08-03T09:43:37.000Z</time>
</trkpt>
<trkpt lat="45.9526740" lon="10.1708930">
	<ele>1503.60</ele>
	<time>2025-08-03T09:43:38.000Z</time>
</trkpt>
<trkpt lat="45.9526700" lon="10.1708740">
	<ele>1503.40</ele>
	<time>2025-08-03T09:43:39.000Z</time>
</trkpt>
<trkpt lat="45.9526630" lon="10.1708470">
	<ele>1503.40</ele>
	<time>2025-08-03T09:43:40.000Z</time>
</trkpt>
<trkpt lat="45.9526540" lon="10.1708180">
	<ele>1503.20</ele>
	<time>2025-08-03T09:43:41.000Z</time>
</trkpt>
<trkpt lat="45.9526520" lon="10.1707930">
	<ele>1503.00</ele>
	<time>2025-08-03T09:43:42.000Z</time>
</trkpt>
<trkpt lat="45.9526380" lon="10.1707590">
	<ele>1502.80</ele>
	<time>2025-08-03T09:43:43.000Z</time>
</trkpt>
<trkpt lat="45.9526250" lon="10.1707340">
	<ele>1502.60</ele>
	<time>2025-08-03T09:43:44.000Z</time>
</trkpt>
<trkpt lat="45.9526210" lon="10.1707060">
	<ele>1502.60</ele>
	<time>2025-08-03T09:43:45.000Z</time>
</trkpt>
<trkpt lat="45.9526330" lon="10.1706790">
	<ele>1502.40</ele>
	<time>2025-08-03T09:43:46.000Z</time>
</trkpt>
<trkpt lat="45.9526370" lon="10.1706670">
	<ele>1502.20</ele>
	<time>2025-08-03T09:43:47.000Z</time>
</trkpt>
<trkpt lat="45.9526360" lon="10.1706640">
	<ele>1502.20</ele>
	<time>2025-08-03T09:43:48.000Z</time>
</trkpt>
<trkpt lat="45.9526400" lon="10.1706490">
	<ele>1502.00</ele>
	<time>2025-08-03T09:43:49.000Z</time>
</trkpt>
<trkpt lat="45.9526330" lon="10.1706320">
	<ele>1501.80</ele>
	<time>2025-08-03T09:43:50.000Z</time>
</trkpt>
<trkpt lat="45.9526260" lon="10.1705770">
	<ele>1501.60</ele>
	<time>2025-08-03T09:43:51.000Z</time>
</trkpt>
<trkpt lat="45.9526280" lon="10.1705400">
	<ele>1501.40</ele>
	<time>2025-08-03T09:43:52.000Z</time>
</trkpt>
<trkpt lat="45.9526260" lon="10.1705190">
	<ele>1501.20</ele>
	<time>2025-08-03T09:43:53.000Z</time>
</trkpt>
<trkpt lat="45.9526190" lon="10.1705100">
	<ele>1501.20</ele>
	<time>2025-08-03T09:43:54.000Z</time>
</trkpt>
<trkpt lat="45.9526000" lon="10.1705040">
	<ele>1501.20</ele>
	<time>2025-08-03T09:43:55.000Z</time>
</trkpt>
<trkpt lat="45.9525840" lon="10.1704720">
	<ele>1501.20</ele>
	<time>2025-08-03T09:43:56.000Z</time>
</trkpt>
<trkpt lat="45.9525860" lon="10.1704460">
	<ele>1501.00</ele>
	<time>2025-08-03T09:43:57.000Z</time>
</trkpt>
<trkpt lat="45.9525880" lon="10.1704130">
	<ele>1500.80</ele>
	<time>2025-08-03T09:43:58.000Z</time>
</trkpt>
<trkpt lat="45.9525850" lon="10.1703850">
	<ele>1500.80</ele>
	<time>2025-08-03T09:43:59.000Z</time>
</trkpt>
<trkpt lat="45.9525740" lon="10.1703590">
	<ele>1500.60</ele>
	<time>2025-08-03T09:44:00.000Z</time>
</trkpt>
<trkpt lat="45.9525610" lon="10.1703370">
	<ele>1500.60</ele>
	<time>2025-08-03T09:44:01.000Z</time>
</trkpt>
<trkpt lat="45.9525530" lon="10.1703210">
	<ele>1500.60</ele>
	<time>2025-08-03T09:44:02.000Z</time>
</trkpt>
<trkpt lat="45.9525610" lon="10.1703150">
	<ele>1500.60</ele>
	<time>2025-08-03T09:44:03.000Z</time>
</trkpt>
<trkpt lat="45.9525610" lon="10.1703090">
	<ele>1500.80</ele>
	<time>2025-08-03T09:44:04.000Z</time>
</trkpt>
<trkpt lat="45.9525630" lon="10.1703110">
	<ele>1500.80</ele>
	<time>2025-08-03T09:44:05.000Z</time>
</trkpt>
<trkpt lat="45.9525610" lon="10.1703030">
	<ele>1500.80</ele>
	<time>2025-08-03T09:44:06.000Z</time>
</trkpt>
<trkpt lat="45.9525590" lon="10.1702950">
	<ele>1500.80</ele>
	<time>2025-08-03T09:44:07.000Z</time>
</trkpt>
<trkpt lat="45.9525550" lon="10.1702840">
	<ele>1500.80</ele>
	<time>2025-08-03T09:44:08.000Z</time>
</trkpt>
<trkpt lat="45.9525540" lon="10.1702800">
	<ele>1500.80</ele>
	<time>2025-08-03T09:44:09.000Z</time>
</trkpt>
<trkpt lat="45.9525460" lon="10.1702680">
	<ele>1500.60</ele>
	<time>2025-08-03T09:44:10.000Z</time>
</trkpt>
<trkpt lat="45.9525380" lon="10.1702590">
	<ele>1500.40</ele>
	<time>2025-08-03T09:44:11.000Z</time>
</trkpt>
<trkpt lat="45.9525340" lon="10.1702590">
	<ele>1500.20</ele>
	<time>2025-08-03T09:44:12.000Z</time>
</trkpt>
<trkpt lat="45.9525470" lon="10.1702490">
	<ele>1500.20</ele>
	<time>2025-08-03T09:44:13.000Z</time>
</trkpt>
<trkpt lat="45.9525510" lon="10.1702320">
	<ele>1500.20</ele>
	<time>2025-08-03T09:44:14.000Z</time>
</trkpt>
<trkpt lat="45.9525540" lon="10.1702230">
	<ele>1500.20</ele>
	<time>2025-08-03T09:44:15.000Z</time>
</trkpt>
<trkpt lat="45.9525450" lon="10.1702140">
	<ele>1500.00</ele>
	<time>2025-08-03T09:44:16.000Z</time>
</trkpt>
<trkpt lat="45.9525270" lon="10.1702030">
	<ele>1500.00</ele>
	<time>2025-08-03T09:44:17.000Z</time>
</trkpt>
<trkpt lat="45.9525160" lon="10.1701970">
	<ele>1500.00</ele>
	<time>2025-08-03T09:44:18.000Z</time>
</trkpt>
<trkpt lat="45.9525080" lon="10.1701900">
	<ele>1500.00</ele>
	<time>2025-08-03T09:44:19.000Z</time>
</trkpt>
<trkpt lat="45.9524920" lon="10.1701860">
	<ele>1500.00</ele>
	<time>2025-08-03T09:44:20.000Z</time>
</trkpt>
<trkpt lat="45.9524820" lon="10.1701790">
	<ele>1499.80</ele>
	<time>2025-08-03T09:44:21.000Z</time>
</trkpt>
<trkpt lat="45.9524680" lon="10.1701780">
	<ele>1499.80</ele>
	<time>2025-08-03T09:44:22.000Z</time>
</trkpt>
<trkpt lat="45.9524500" lon="10.1701830">
	<ele>1499.80</ele>
	<time>2025-08-03T09:44:23.000Z</time>
</trkpt>
<trkpt lat="45.9524290" lon="10.1701850">
	<ele>1499.60</ele>
	<time>2025-08-03T09:44:24.000Z</time>
</trkpt>
<trkpt lat="45.9524090" lon="10.1701900">
	<ele>1499.40</ele>
	<time>2025-08-03T09:44:25.000Z</time>
</trkpt>
<trkpt lat="45.9523880" lon="10.1701850">
	<ele>1499.40</ele>
	<time>2025-08-03T09:44:26.000Z</time>
</trkpt>
<trkpt lat="45.9523730" lon="10.1701680">
	<ele>1499.40</ele>
	<time>2025-08-03T09:44:27.000Z</time>
</trkpt>
<trkpt lat="45.9523600" lon="10.1701450">
	<ele>1499.40</ele>
	<time>2025-08-03T09:44:28.000Z</time>
</trkpt>
<trkpt lat="45.9523560" lon="10.1701140">
	<ele>1499.20</ele>
	<time>2025-08-03T09:44:29.000Z</time>
</trkpt>
<trkpt lat="45.9523430" lon="10.1700940">
	<ele>1499.20</ele>
	<time>2025-08-03T09:44:30.000Z</time>
</trkpt>
<trkpt lat="45.9523320" lon="10.1700810">
	<ele>1499.00</ele>
	<time>2025-08-03T09:44:31.000Z</time>
</trkpt>
<trkpt lat="45.9523220" lon="10.1700710">
	<ele>1499.00</ele>
	<time>2025-08-03T09:44:32.000Z</time>
</trkpt>
<trkpt lat="45.9522990" lon="10.1700610">
	<ele>1498.80</ele>
	<time>2025-08-03T09:44:33.000Z</time>
</trkpt>
<trkpt lat="45.9522720" lon="10.1700560">
	<ele>1498.80</ele>
	<time>2025-08-03T09:44:34.000Z</time>
</trkpt>
<trkpt lat="45.9522450" lon="10.1700430">
	<ele>1498.80</ele>
	<time>2025-08-03T09:44:35.000Z</time>
</trkpt>
<trkpt lat="45.9522280" lon="10.1700260">
	<ele>1498.80</ele>
	<time>2025-08-03T09:44:36.000Z</time>
</trkpt>
<trkpt lat="45.9522210" lon="10.1700080">
	<ele>1498.60</ele>
	<time>2025-08-03T09:44:37.000Z</time>
</trkpt>
<trkpt lat="45.9522110" lon="10.1699890">
	<ele>1498.60</ele>
	<time>2025-08-03T09:44:38.000Z</time>
</trkpt>
<trkpt lat="45.9522050" lon="10.1699720">
	<ele>1498.40</ele>
	<time>2025-08-03T09:44:39.000Z</time>
</trkpt>
<trkpt lat="45.9522010" lon="10.1699520">
	<ele>1498.40</ele>
	<time>2025-08-03T09:44:40.000Z</time>
</trkpt>
<trkpt lat="45.9521910" lon="10.1699440">
	<ele>1498.20</ele>
	<time>2025-08-03T09:44:41.000Z</time>
</trkpt>
<trkpt lat="45.9521720" lon="10.1699380">
	<ele>1498.20</ele>
	<time>2025-08-03T09:44:42.000Z</time>
</trkpt>
<trkpt lat="45.9521550" lon="10.1699220">
	<ele>1498.00</ele>
	<time>2025-08-03T09:44:43.000Z</time>
</trkpt>
<trkpt lat="45.9521430" lon="10.1699040">
	<ele>1497.80</ele>
	<time>2025-08-03T09:44:44.000Z</time>
</trkpt>
<trkpt lat="45.9521340" lon="10.1698840">
	<ele>1497.60</ele>
	<time>2025-08-03T09:44:45.000Z</time>
</trkpt>
<trkpt lat="45.9521270" lon="10.1698670">
	<ele>1497.60</ele>
	<time>2025-08-03T09:44:46.000Z</time>
</trkpt>
<trkpt lat="45.9521180" lon="10.1698410">
	<ele>1497.40</ele>
	<time>2025-08-03T09:44:47.000Z</time>
</trkpt>
<trkpt lat="45.9521060" lon="10.1698160">
	<ele>1497.40</ele>
	<time>2025-08-03T09:44:48.000Z</time>
</trkpt>
<trkpt lat="45.9520970" lon="10.1697970">
	<ele>1497.40</ele>
	<time>2025-08-03T09:44:49.000Z</time>
</trkpt>
<trkpt lat="45.9520890" lon="10.1697650">
	<ele>1497.40</ele>
	<time>2025-08-03T09:44:50.000Z</time>
</trkpt>
<trkpt lat="45.9520800" lon="10.1697370">
	<ele>1497.20</ele>
	<time>2025-08-03T09:44:51.000Z</time>
</trkpt>
<trkpt lat="45.9520710" lon="10.1697060">
	<ele>1497.20</ele>
	<time>2025-08-03T09:44:52.000Z</time>
</trkpt>
<trkpt lat="45.9520730" lon="10.1696820">
	<ele>1497.20</ele>
	<time>2025-08-03T09:44:53.000Z</time>
</trkpt>
<trkpt lat="45.9520630" lon="10.1696490">
	<ele>1497.00</ele>
	<time>2025-08-03T09:44:54.000Z</time>
</trkpt>
<trkpt lat="45.9520520" lon="10.1696300">
	<ele>1497.00</ele>
	<time>2025-08-03T09:44:55.000Z</time>
</trkpt>
<trkpt lat="45.9520410" lon="10.1695970">
	<ele>1497.00</ele>
	<time>2025-08-03T09:44:56.000Z</time>
</trkpt>
<trkpt lat="45.9520310" lon="10.1695800">
	<ele>1497.00</ele>
	<time>2025-08-03T09:44:57.000Z</time>
</trkpt>
<trkpt lat="45.9520210" lon="10.1695570">
	<ele>1497.00</ele>
	<time>2025-08-03T09:44:58.000Z</time>
</trkpt>
<trkpt lat="45.9520200" lon="10.1695440">
	<ele>1497.00</ele>
	<time>2025-08-03T09:44:59.000Z</time>
</trkpt>
<trkpt lat="45.9520220" lon="10.1695470">
	<ele>1497.00</ele>
	<time>2025-08-03T09:45:00.000Z</time>
</trkpt>
<trkpt lat="45.9520300" lon="10.1695440">
	<ele>1497.00</ele>
	<time>2025-08-03T09:45:01.000Z</time>
</trkpt>
<trkpt lat="45.9520340" lon="10.1695250">
	<ele>1497.00</ele>
	<time>2025-08-03T09:45:02.000Z</time>
</trkpt>
<trkpt lat="45.9520310" lon="10.1695250">
	<ele>1497.00</ele>
	<time>2025-08-03T09:45:03.000Z</time>
</trkpt>
<trkpt lat="45.9520330" lon="10.1695240">
	<ele>1497.20</ele>
	<time>2025-08-03T09:45:04.000Z</time>
</trkpt>
<trkpt lat="45.9520350" lon="10.1695240">
	<ele>1497.20</ele>
	<time>2025-08-03T09:45:05.000Z</time>
</trkpt>
<trkpt lat="45.9520300" lon="10.1695240">
	<ele>1497.20</ele>
	<time>2025-08-03T09:45:06.000Z</time>
</trkpt>
<trkpt lat="45.9520280" lon="10.1695230">
	<ele>1497.00</ele>
	<time>2025-08-03T09:45:07.000Z</time>
</trkpt>
<trkpt lat="45.9520370" lon="10.1695070">
	<ele>1497.00</ele>
	<time>2025-08-03T09:45:08.000Z</time>
</trkpt>
<trkpt lat="45.9520480" lon="10.1694990">
	<ele>1497.00</ele>
	<time>2025-08-03T09:45:09.000Z</time>
</trkpt>
<trkpt lat="45.9520540" lon="10.1694850">
	<ele>1496.80</ele>
	<time>2025-08-03T09:45:10.000Z</time>
</trkpt>
<trkpt lat="45.9520570" lon="10.1694580">
	<ele>1496.80</ele>
	<time>2025-08-03T09:45:11.000Z</time>
</trkpt>
<trkpt lat="45.9520580" lon="10.1694290">
	<ele>1496.60</ele>
	<time>2025-08-03T09:45:12.000Z</time>
</trkpt>
<trkpt lat="45.9520440" lon="10.1694100">
	<ele>1496.60</ele>
	<time>2025-08-03T09:45:13.000Z</time>
</trkpt>
<trkpt lat="45.9520390" lon="10.1693860">
	<ele>1496.60</ele>
	<time>2025-08-03T09:45:14.000Z</time>
</trkpt>
<trkpt lat="45.9520330" lon="10.1693670">
	<ele>1496.60</ele>
	<time>2025-08-03T09:45:15.000Z</time>
</trkpt>
<trkpt lat="45.9520270" lon="10.1693370">
	<ele>1496.60</ele>
	<time>2025-08-03T09:45:16.000Z</time>
</trkpt>
<trkpt lat="45.9520180" lon="10.1693160">
	<ele>1496.60</ele>
	<time>2025-08-03T09:45:17.000Z</time>
</trkpt>
<trkpt lat="45.9520210" lon="10.1692940">
	<ele>1496.60</ele>
	<time>2025-08-03T09:45:18.000Z</time>
</trkpt>
<trkpt lat="45.9520220" lon="10.1692710">
	<ele>1496.60</ele>
	<time>2025-08-03T09:45:19.000Z</time>
</trkpt>
<trkpt lat="45.9520220" lon="10.1692570">
	<ele>1496.40</ele>
	<time>2025-08-03T09:45:20.000Z</time>
</trkpt>
<trkpt lat="45.9520200" lon="10.1692360">
	<ele>1496.60</ele>
	<time>2025-08-03T09:45:21.000Z</time>
</trkpt>
<trkpt lat="45.9520180" lon="10.1692180">
	<ele>1496.60</ele>
	<time>2025-08-03T09:45:22.000Z</time>
</trkpt>
<trkpt lat="45.9520160" lon="10.1691990">
	<ele>1496.60</ele>
	<time>2025-08-03T09:45:23.000Z</time>
</trkpt>
<trkpt lat="45.9520110" lon="10.1691750">
	<ele>1496.60</ele>
	<time>2025-08-03T09:45:24.000Z</time>
</trkpt>
<trkpt lat="45.9520070" lon="10.1691570">
	<ele>1496.60</ele>
	<time>2025-08-03T09:45:25.000Z</time>
</trkpt>
<trkpt lat="45.9519980" lon="10.1691360">
	<ele>1496.60</ele>
	<time>2025-08-03T09:45:26.000Z</time>
</trkpt>
<trkpt lat="45.9519900" lon="10.1691160">
	<ele>1496.80</ele>
	<time>2025-08-03T09:45:27.000Z</time>
</trkpt>
<trkpt lat="45.9519830" lon="10.1690990">
	<ele>1496.80</ele>
	<time>2025-08-03T09:45:28.000Z</time>
</trkpt>
<trkpt lat="45.9519820" lon="10.1690890">
	<ele>1496.80</ele>
	<time>2025-08-03T09:45:29.000Z</time>
</trkpt>
<trkpt lat="45.9519770" lon="10.1690710">
	<ele>1496.80</ele>
	<time>2025-08-03T09:45:30.000Z</time>
</trkpt>
<trkpt lat="45.9519670" lon="10.1690440">
	<ele>1496.80</ele>
	<time>2025-08-03T09:45:31.000Z</time>
</trkpt>
<trkpt lat="45.9519590" lon="10.1690180">
	<ele>1496.80</ele>
	<time>2025-08-03T09:45:32.000Z</time>
</trkpt>
<trkpt lat="45.9519590" lon="10.1690040">
	<ele>1496.80</ele>
	<time>2025-08-03T09:45:33.000Z</time>
</trkpt>
<trkpt lat="45.9519640" lon="10.1689920">
	<ele>1496.80</ele>
	<time>2025-08-03T09:45:34.000Z</time>
</trkpt>
<trkpt lat="45.9519660" lon="10.1689780">
	<ele>1496.60</ele>
	<time>2025-08-03T09:45:35.000Z</time>
</trkpt>
<trkpt lat="45.9519640" lon="10.1689560">
	<ele>1496.60</ele>
	<time>2025-08-03T09:45:36.000Z</time>
</trkpt>
<trkpt lat="45.9519620" lon="10.1689310">
	<ele>1496.60</ele>
	<time>2025-08-03T09:45:37.000Z</time>
</trkpt>
<trkpt lat="45.9519550" lon="10.1689030">
	<ele>1496.60</ele>
	<time>2025-08-03T09:45:38.000Z</time>
</trkpt>
<trkpt lat="45.9519480" lon="10.1688700">
	<ele>1496.60</ele>
	<time>2025-08-03T09:45:39.000Z</time>
</trkpt>
<trkpt lat="45.9519490" lon="10.1688440">
	<ele>1496.60</ele>
	<time>2025-08-03T09:45:40.000Z</time>
</trkpt>
<trkpt lat="45.9519550" lon="10.1688230">
	<ele>1496.60</ele>
	<time>2025-08-03T09:45:41.000Z</time>
</trkpt>
<trkpt lat="45.9519730" lon="10.1688020">
	<ele>1496.60</ele>
	<time>2025-08-03T09:45:42.000Z</time>
</trkpt>
<trkpt lat="45.9519790" lon="10.1687770">
	<ele>1496.60</ele>
	<time>2025-08-03T09:45:43.000Z</time>
</trkpt>
<trkpt lat="45.9519930" lon="10.1687630">
	<ele>1496.60</ele>
	<time>2025-08-03T09:45:44.000Z</time>
</trkpt>
<trkpt lat="45.9519970" lon="10.1687430">
	<ele>1496.60</ele>
	<time>2025-08-03T09:45:45.000Z</time>
</trkpt>
<trkpt lat="45.9520140" lon="10.1687300">
	<ele>1496.80</ele>
	<time>2025-08-03T09:45:46.000Z</time>
</trkpt>
<trkpt lat="45.9520330" lon="10.1687180">
	<ele>1496.80</ele>
	<time>2025-08-03T09:45:47.000Z</time>
</trkpt>
<trkpt lat="45.9520460" lon="10.1687050">
	<ele>1496.80</ele>
	<time>2025-08-03T09:45:48.000Z</time>
</trkpt>
<trkpt lat="45.9520610" lon="10.1686980">
	<ele>1496.80</ele>
	<time>2025-08-03T09:45:49.000Z</time>
</trkpt>
<trkpt lat="45.9520730" lon="10.1686880">
	<ele>1497.00</ele>
	<time>2025-08-03T09:45:50.000Z</time>
</trkpt>
<trkpt lat="45.9520850" lon="10.1686780">
	<ele>1497.00</ele>
	<time>2025-08-03T09:45:51.000Z</time>
</trkpt>
<trkpt lat="45.9521040" lon="10.1686680">
	<ele>1497.00</ele>
	<time>2025-08-03T09:45:52.000Z</time>
</trkpt>
<trkpt lat="45.9521150" lon="10.1686570">
	<ele>1496.80</ele>
	<time>2025-08-03T09:45:53.000Z</time>
</trkpt>
<trkpt lat="45.9521220" lon="10.1686430">
	<ele>1496.80</ele>
	<time>2025-08-03T09:45:54.000Z</time>
</trkpt>
<trkpt lat="45.9521310" lon="10.1686270">
	<ele>1496.80</ele>
	<time>2025-08-03T09:45:55.000Z</time>
</trkpt>
<trkpt lat="45.9521440" lon="10.1686150">
	<ele>1496.80</ele>
	<time>2025-08-03T09:45:56.000Z</time>
</trkpt>
<trkpt lat="45.9521500" lon="10.1685930">
	<ele>1496.60</ele>
	<time>2025-08-03T09:45:57.000Z</time>
</trkpt>
<trkpt lat="45.9521590" lon="10.1685720">
	<ele>1496.60</ele>
	<time>2025-08-03T09:45:58.000Z</time>
</trkpt>
<trkpt lat="45.9521670" lon="10.1685480">
	<ele>1496.60</ele>
	<time>2025-08-03T09:45:59.000Z</time>
</trkpt>
<trkpt lat="45.9521750" lon="10.1685220">
	<ele>1496.60</ele>
	<time>2025-08-03T09:46:00.000Z</time>
</trkpt>
<trkpt lat="45.9521820" lon="10.1684930">
	<ele>1496.60</ele>
	<time>2025-08-03T09:46:01.000Z</time>
</trkpt>
<trkpt lat="45.9521920" lon="10.1684820">
	<ele>1496.60</ele>
	<time>2025-08-03T09:46:02.000Z</time>
</trkpt>
<trkpt lat="45.9521980" lon="10.1684610">
	<ele>1496.60</ele>
	<time>2025-08-03T09:46:03.000Z</time>
</trkpt>
<trkpt lat="45.9522020" lon="10.1684360">
	<ele>1496.60</ele>
	<time>2025-08-03T09:46:04.000Z</time>
</trkpt>
<trkpt lat="45.9522090" lon="10.1684200">
	<ele>1497.00</ele>
	<time>2025-08-03T09:46:05.000Z</time>
</trkpt>
<trkpt lat="45.9522140" lon="10.1684060">
	<ele>1497.00</ele>
	<time>2025-08-03T09:46:06.000Z</time>
</trkpt>
<trkpt lat="45.9522200" lon="10.1683930">
	<ele>1497.20</ele>
	<time>2025-08-03T09:46:07.000Z</time>
</trkpt>
<trkpt lat="45.9522310" lon="10.1683790">
	<ele>1497.20</ele>
	<time>2025-08-03T09:46:08.000Z</time>
</trkpt>
<trkpt lat="45.9522370" lon="10.1683540">
	<ele>1497.20</ele>
	<time>2025-08-03T09:46:09.000Z</time>
</trkpt>
<trkpt lat="45.9522330" lon="10.1683350">
	<ele>1497.00</ele>
	<time>2025-08-03T09:46:10.000Z</time>
</trkpt>
<trkpt lat="45.9522340" lon="10.1683250">
	<ele>1496.80</ele>
	<time>2025-08-03T09:46:11.000Z</time>
</trkpt>
<trkpt lat="45.9522400" lon="10.1683100">
	<ele>1496.80</ele>
	<time>2025-08-03T09:46:12.000Z</time>
</trkpt>
<trkpt lat="45.9522430" lon="10.1682850">
	<ele>1496.80</ele>
	<time>2025-08-03T09:46:13.000Z</time>
</trkpt>
<trkpt lat="45.9522440" lon="10.1682690">
	<ele>1496.60</ele>
	<time>2025-08-03T09:46:14.000Z</time>
</trkpt>
<trkpt lat="45.9522440" lon="10.1682570">
	<ele>1496.40</ele>
	<time>2025-08-03T09:46:15.000Z</time>
</trkpt>
<trkpt lat="45.9522410" lon="10.1682310">
	<ele>1496.40</ele>
	<time>2025-08-03T09:46:16.000Z</time>
</trkpt>
<trkpt lat="45.9522390" lon="10.1682030">
	<ele>1496.40</ele>
	<time>2025-08-03T09:46:17.000Z</time>
</trkpt>
<trkpt lat="45.9522350" lon="10.1681790">
	<ele>1496.40</ele>
	<time>2025-08-03T09:46:18.000Z</time>
</trkpt>
<trkpt lat="45.9522380" lon="10.1681530">
	<ele>1496.40</ele>
	<time>2025-08-03T09:46:19.000Z</time>
</trkpt>
<trkpt lat="45.9522460" lon="10.1681370">
	<ele>1496.40</ele>
	<time>2025-08-03T09:46:20.000Z</time>
</trkpt>
<trkpt lat="45.9522510" lon="10.1681210">
	<ele>1496.40</ele>
	<time>2025-08-03T09:46:21.000Z</time>
</trkpt>
<trkpt lat="45.9522600" lon="10.1681090">
	<ele>1496.60</ele>
	<time>2025-08-03T09:46:22.000Z</time>
</trkpt>
<trkpt lat="45.9522590" lon="10.1680900">
	<ele>1496.80</ele>
	<time>2025-08-03T09:46:23.000Z</time>
</trkpt>
<trkpt lat="45.9522560" lon="10.1680660">
	<ele>1497.00</ele>
	<time>2025-08-03T09:46:24.000Z</time>
</trkpt>
<trkpt lat="45.9522560" lon="10.1680370">
	<ele>1497.00</ele>
	<time>2025-08-03T09:46:25.000Z</time>
</trkpt>
<trkpt lat="45.9522560" lon="10.1680190">
	<ele>1496.80</ele>
	<time>2025-08-03T09:46:26.000Z</time>
</trkpt>
<trkpt lat="45.9522560" lon="10.1679970">
	<ele>1496.80</ele>
	<time>2025-08-03T09:46:27.000Z</time>
</trkpt>
<trkpt lat="45.9522560" lon="10.1679730">
	<ele>1496.60</ele>
	<time>2025-08-03T09:46:28.000Z</time>
</trkpt>
<trkpt lat="45.9522630" lon="10.1679570">
	<ele>1496.60</ele>
	<time>2025-08-03T09:46:29.000Z</time>
</trkpt>
<trkpt lat="45.9522690" lon="10.1679380">
	<ele>1496.60</ele>
	<time>2025-08-03T09:46:30.000Z</time>
</trkpt>
<trkpt lat="45.9522780" lon="10.1679250">
	<ele>1496.40</ele>
	<time>2025-08-03T09:46:31.000Z</time>
</trkpt>
<trkpt lat="45.9522890" lon="10.1679170">
	<ele>1496.40</ele>
	<time>2025-08-03T09:46:32.000Z</time>
</trkpt>
<trkpt lat="45.9522970" lon="10.1679080">
	<ele>1496.40</ele>
	<time>2025-08-03T09:46:33.000Z</time>
</trkpt>
<trkpt lat="45.9523010" lon="10.1678930">
	<ele>1496.40</ele>
	<time>2025-08-03T09:46:34.000Z</time>
</trkpt>
<trkpt lat="45.9523020" lon="10.1678750">
	<ele>1496.40</ele>
	<time>2025-08-03T09:46:35.000Z</time>
</trkpt>
<trkpt lat="45.9523020" lon="10.1678500">
	<ele>1496.40</ele>
	<time>2025-08-03T09:46:36.000Z</time>
</trkpt>
<trkpt lat="45.9523100" lon="10.1678390">
	<ele>1496.40</ele>
	<time>2025-08-03T09:46:37.000Z</time>
</trkpt>
<trkpt lat="45.9523200" lon="10.1678300">
	<ele>1496.40</ele>
	<time>2025-08-03T09:46:38.000Z</time>
</trkpt>
<trkpt lat="45.9523300" lon="10.1678230">
	<ele>1496.60</ele>
	<time>2025-08-03T09:46:39.000Z</time>
</trkpt>
<trkpt lat="45.9523420" lon="10.1678090">
	<ele>1496.60</ele>
	<time>2025-08-03T09:46:40.000Z</time>
</trkpt>
<trkpt lat="45.9523480" lon="10.1677880">
	<ele>1496.60</ele>
	<time>2025-08-03T09:46:41.000Z</time>
</trkpt>
<trkpt lat="45.9523540" lon="10.1677690">
	<ele>1496.60</ele>
	<time>2025-08-03T09:46:42.000Z</time>
</trkpt>
<trkpt lat="45.9523610" lon="10.1677510">
	<ele>1496.60</ele>
	<time>2025-08-03T09:46:43.000Z</time>
</trkpt>
<trkpt lat="45.9523680" lon="10.1677330">
	<ele>1496.60</ele>
	<time>2025-08-03T09:46:44.000Z</time>
</trkpt>
<trkpt lat="45.9523750" lon="10.1677190">
	<ele>1496.60</ele>
	<time>2025-08-03T09:46:45.000Z</time>
</trkpt>
<trkpt lat="45.9523800" lon="10.1677030">
	<ele>1496.80</ele>
	<time>2025-08-03T09:46:46.000Z</time>
</trkpt>
<trkpt lat="45.9523810" lon="10.1676760">
	<ele>1496.80</ele>
	<time>2025-08-03T09:46:47.000Z</time>
</trkpt>
<trkpt lat="45.9523770" lon="10.1676540">
	<ele>1496.80</ele>
	<time>2025-08-03T09:46:48.000Z</time>
</trkpt>
<trkpt lat="45.9523730" lon="10.1676410">
	<ele>1496.80</ele>
	<time>2025-08-03T09:46:49.000Z</time>
</trkpt>
<trkpt lat="45.9523700" lon="10.1676200">
	<ele>1496.80</ele>
	<time>2025-08-03T09:46:50.000Z</time>
</trkpt>
<trkpt lat="45.9523650" lon="10.1675910">
	<ele>1497.00</ele>
	<time>2025-08-03T09:46:51.000Z</time>
</trkpt>
<trkpt lat="45.9523620" lon="10.1675570">
	<ele>1497.00</ele>
	<time>2025-08-03T09:46:52.000Z</time>
</trkpt>
<trkpt lat="45.9523590" lon="10.1675170">
	<ele>1497.00</ele>
	<time>2025-08-03T09:46:53.000Z</time>
</trkpt>
<trkpt lat="45.9523590" lon="10.1674800">
	<ele>1497.00</ele>
	<time>2025-08-03T09:46:54.000Z</time>
</trkpt>
<trkpt lat="45.9523670" lon="10.1674520">
	<ele>1497.00</ele>
	<time>2025-08-03T09:46:55.000Z</time>
</trkpt>
<trkpt lat="45.9523670" lon="10.1674350">
	<ele>1497.00</ele>
	<time>2025-08-03T09:46:56.000Z</time>
</trkpt>
<trkpt lat="45.9523780" lon="10.1674120">
	<ele>1497.00</ele>
	<time>2025-08-03T09:46:57.000Z</time>
</trkpt>
<trkpt lat="45.9523860" lon="10.1673910">
	<ele>1497.00</ele>
	<time>2025-08-03T09:46:58.000Z</time>
</trkpt>
<trkpt lat="45.9523920" lon="10.1673760">
	<ele>1497.00</ele>
	<time>2025-08-03T09:46:59.000Z</time>
</trkpt>
<trkpt lat="45.9523850" lon="10.1673500">
	<ele>1496.80</ele>
	<time>2025-08-03T09:47:00.000Z</time>
</trkpt>
<trkpt lat="45.9523790" lon="10.1673230">
	<ele>1496.80</ele>
	<time>2025-08-03T09:47:01.000Z</time>
</trkpt>
<trkpt lat="45.9523730" lon="10.1673050">
	<ele>1496.80</ele>
	<time>2025-08-03T09:47:02.000Z</time>
</trkpt>
<trkpt lat="45.9523760" lon="10.1672980">
	<ele>1496.60</ele>
	<time>2025-08-03T09:47:03.000Z</time>
</trkpt>
<trkpt lat="45.9523730" lon="10.1672920">
	<ele>1496.40</ele>
	<time>2025-08-03T09:47:04.000Z</time>
</trkpt>
<trkpt lat="45.9523700" lon="10.1672800">
	<ele>1496.40</ele>
	<time>2025-08-03T09:47:05.000Z</time>
</trkpt>
<trkpt lat="45.9523730" lon="10.1672590">
	<ele>1496.20</ele>
	<time>2025-08-03T09:47:06.000Z</time>
</trkpt>
<trkpt lat="45.9523740" lon="10.1672390">
	<ele>1496.20</ele>
	<time>2025-08-03T09:47:07.000Z</time>
</trkpt>
<trkpt lat="45.9523790" lon="10.1672260">
	<ele>1496.20</ele>
	<time>2025-08-03T09:47:08.000Z</time>
</trkpt>
<trkpt lat="45.9523840" lon="10.1672150">
	<ele>1496.20</ele>
	<time>2025-08-03T09:47:09.000Z</time>
</trkpt>
<trkpt lat="45.9523850" lon="10.1671930">
	<ele>1496.20</ele>
	<time>2025-08-03T09:47:10.000Z</time>
</trkpt>
<trkpt lat="45.9523870" lon="10.1671710">
	<ele>1496.20</ele>
	<time>2025-08-03T09:47:11.000Z</time>
</trkpt>
<trkpt lat="45.9523830" lon="10.1671440">
	<ele>1496.40</ele>
	<time>2025-08-03T09:47:12.000Z</time>
</trkpt>
<trkpt lat="45.9523850" lon="10.1671210">
	<ele>1496.40</ele>
	<time>2025-08-03T09:47:13.000Z</time>
</trkpt>
<trkpt lat="45.9523860" lon="10.1671020">
	<ele>1496.40</ele>
	<time>2025-08-03T09:47:14.000Z</time>
</trkpt>
<trkpt lat="45.9523860" lon="10.1670810">
	<ele>1496.40</ele>
	<time>2025-08-03T09:47:15.000Z</time>
</trkpt>
<trkpt lat="45.9523870" lon="10.1670610">
	<ele>1496.20</ele>
	<time>2025-08-03T09:47:16.000Z</time>
</trkpt>
<trkpt lat="45.9523890" lon="10.1670410">
	<ele>1496.20</ele>
	<time>2025-08-03T09:47:17.000Z</time>
</trkpt>
<trkpt lat="45.9523910" lon="10.1670110">
	<ele>1496.20</ele>
	<time>2025-08-03T09:47:18.000Z</time>
</trkpt>
<trkpt lat="45.9523970" lon="10.1669820">
	<ele>1496.20</ele>
	<time>2025-08-03T09:47:19.000Z</time>
</trkpt>
<trkpt lat="45.9523980" lon="10.1669630">
	<ele>1496.20</ele>
	<time>2025-08-03T09:47:20.000Z</time>
</trkpt>
<trkpt lat="45.9523940" lon="10.1669490">
	<ele>1496.20</ele>
	<time>2025-08-03T09:47:21.000Z</time>
</trkpt>
<trkpt lat="45.9523990" lon="10.1669300">
	<ele>1496.20</ele>
	<time>2025-08-03T09:47:22.000Z</time>
</trkpt>
<trkpt lat="45.9523900" lon="10.1668860">
	<ele>1496.20</ele>
	<time>2025-08-03T09:47:23.000Z</time>
</trkpt>
<trkpt lat="45.9523830" lon="10.1668600">
	<ele>1496.20</ele>
	<time>2025-08-03T09:47:24.000Z</time>
</trkpt>
<trkpt lat="45.9523800" lon="10.1668350">
	<ele>1496.20</ele>
	<time>2025-08-03T09:47:25.000Z</time>
</trkpt>
<trkpt lat="45.9523850" lon="10.1668070">
	<ele>1496.20</ele>
	<time>2025-08-03T09:47:26.000Z</time>
</trkpt>
<trkpt lat="45.9523910" lon="10.1667800">
	<ele>1496.00</ele>
	<time>2025-08-03T09:47:27.000Z</time>
</trkpt>
<trkpt lat="45.9523980" lon="10.1667510">
	<ele>1495.80</ele>
	<time>2025-08-03T09:47:28.000Z</time>
</trkpt>
<trkpt lat="45.9524010" lon="10.1667230">
	<ele>1495.80</ele>
	<time>2025-08-03T09:47:29.000Z</time>
</trkpt>
<trkpt lat="45.9524010" lon="10.1666960">
	<ele>1495.80</ele>
	<time>2025-08-03T09:47:30.000Z</time>
</trkpt>
<trkpt lat="45.9524010" lon="10.1666700">
	<ele>1495.60</ele>
	<time>2025-08-03T09:47:31.000Z</time>
</trkpt>
<trkpt lat="45.9524010" lon="10.1666480">
	<ele>1495.60</ele>
	<time>2025-08-03T09:47:32.000Z</time>
</trkpt>
<trkpt lat="45.9524050" lon="10.1666290">
	<ele>1495.80</ele>
	<time>2025-08-03T09:47:33.000Z</time>
</trkpt>
<trkpt lat="45.9524070" lon="10.1666090">
	<ele>1495.80</ele>
	<time>2025-08-03T09:47:34.000Z</time>
</trkpt>
<trkpt lat="45.9524090" lon="10.1665900">
	<ele>1495.80</ele>
	<time>2025-08-03T09:47:35.000Z</time>
</trkpt>
<trkpt lat="45.9524150" lon="10.1665770">
	<ele>1495.80</ele>
	<time>2025-08-03T09:47:36.000Z</time>
</trkpt>
<trkpt lat="45.9524100" lon="10.1665580">
	<ele>1495.80</ele>
	<time>2025-08-03T09:47:37.000Z</time>
</trkpt>
<trkpt lat="45.9524090" lon="10.1665370">
	<ele>1495.80</ele>
	<time>2025-08-03T09:47:38.000Z</time>
</trkpt>
<trkpt lat="45.9524090" lon="10.1665130">
	<ele>1495.60</ele>
	<time>2025-08-03T09:47:39.000Z</time>
</trkpt>
<trkpt lat="45.9524050" lon="10.1664870">
	<ele>1495.40</ele>
	<time>2025-08-03T09:47:40.000Z</time>
</trkpt>
<trkpt lat="45.9523990" lon="10.1664570">
	<ele>1495.20</ele>
	<time>2025-08-03T09:47:41.000Z</time>
</trkpt>
<trkpt lat="45.9523950" lon="10.1664240">
	<ele>1495.00</ele>
	<time>2025-08-03T09:47:42.000Z</time>
</trkpt>
<trkpt lat="45.9523840" lon="10.1663880">
	<ele>1494.80</ele>
	<time>2025-08-03T09:47:43.000Z</time>
</trkpt>
<trkpt lat="45.9523790" lon="10.1663640">
	<ele>1494.80</ele>
	<time>2025-08-03T09:47:44.000Z</time>
</trkpt>
<trkpt lat="45.9523820" lon="10.1663450">
	<ele>1494.80</ele>
	<time>2025-08-03T09:47:45.000Z</time>
</trkpt>
<trkpt lat="45.9523810" lon="10.1663290">
	<ele>1494.60</ele>
	<time>2025-08-03T09:47:46.000Z</time>
</trkpt>
<trkpt lat="45.9523790" lon="10.1663190">
	<ele>1494.60</ele>
	<time>2025-08-03T09:47:47.000Z</time>
</trkpt>
<trkpt lat="45.9523850" lon="10.1663030">
	<ele>1494.60</ele>
	<time>2025-08-03T09:47:48.000Z</time>
</trkpt>
<trkpt lat="45.9523980" lon="10.1662860">
	<ele>1494.40</ele>
	<time>2025-08-03T09:47:49.000Z</time>
</trkpt>
<trkpt lat="45.9524040" lon="10.1662670">
	<ele>1494.00</ele>
	<time>2025-08-03T09:47:50.000Z</time>
</trkpt>
<trkpt lat="45.9524010" lon="10.1662380">
	<ele>1493.80</ele>
	<time>2025-08-03T09:47:51.000Z</time>
</trkpt>
<trkpt lat="45.9524010" lon="10.1662180">
	<ele>1493.60</ele>
	<time>2025-08-03T09:47:52.000Z</time>
</trkpt>
<trkpt lat="45.9524020" lon="10.1662010">
	<ele>1493.40</ele>
	<time>2025-08-03T09:47:53.000Z</time>
</trkpt>
<trkpt lat="45.9524010" lon="10.1661780">
	<ele>1493.20</ele>
	<time>2025-08-03T09:47:54.000Z</time>
</trkpt>
<trkpt lat="45.9523990" lon="10.1661510">
	<ele>1493.20</ele>
	<time>2025-08-03T09:47:55.000Z</time>
</trkpt>
<trkpt lat="45.9523990" lon="10.1661320">
	<ele>1493.20</ele>
	<time>2025-08-03T09:47:56.000Z</time>
</trkpt>
<trkpt lat="45.9523970" lon="10.1661120">
	<ele>1493.00</ele>
	<time>2025-08-03T09:47:57.000Z</time>
</trkpt>
<trkpt lat="45.9523900" lon="10.1660940">
	<ele>1493.00</ele>
	<time>2025-08-03T09:47:58.000Z</time>
</trkpt>
<trkpt lat="45.9523760" lon="10.1660710">
	<ele>1492.80</ele>
	<time>2025-08-03T09:47:59.000Z</time>
</trkpt>
<trkpt lat="45.9523700" lon="10.1660560">
	<ele>1492.60</ele>
	<time>2025-08-03T09:48:00.000Z</time>
</trkpt>
<trkpt lat="45.9523670" lon="10.1660260">
	<ele>1492.20</ele>
	<time>2025-08-03T09:48:01.000Z</time>
</trkpt>
<trkpt lat="45.9523630" lon="10.1660020">
	<ele>1492.20</ele>
	<time>2025-08-03T09:48:02.000Z</time>
</trkpt>
<trkpt lat="45.9523550" lon="10.1659760">
	<ele>1492.00</ele>
	<time>2025-08-03T09:48:03.000Z</time>
</trkpt>
<trkpt lat="45.9523480" lon="10.1659440">
	<ele>1492.00</ele>
	<time>2025-08-03T09:48:04.000Z</time>
</trkpt>
<trkpt lat="45.9523430" lon="10.1659210">
	<ele>1491.80</ele>
	<time>2025-08-03T09:48:05.000Z</time>
</trkpt>
<trkpt lat="45.9523370" lon="10.1659050">
	<ele>1491.80</ele>
	<time>2025-08-03T09:48:06.000Z</time>
</trkpt>
<trkpt lat="45.9523280" lon="10.1658920">
	<ele>1491.60</ele>
	<time>2025-08-03T09:48:07.000Z</time>
</trkpt>
<trkpt lat="45.9523210" lon="10.1658760">
	<ele>1491.60</ele>
	<time>2025-08-03T09:48:08.000Z</time>
</trkpt>
<trkpt lat="45.9523140" lon="10.1658520">
	<ele>1491.40</ele>
	<time>2025-08-03T09:48:09.000Z</time>
</trkpt>
<trkpt lat="45.9523040" lon="10.1658150">
	<ele>1491.20</ele>
	<time>2025-08-03T09:48:10.000Z</time>
</trkpt>
<trkpt lat="45.9522990" lon="10.1657820">
	<ele>1491.20</ele>
	<time>2025-08-03T09:48:11.000Z</time>
</trkpt>
<trkpt lat="45.9522910" lon="10.1657660">
	<ele>1491.40</ele>
	<time>2025-08-03T09:48:12.000Z</time>
</trkpt>
<trkpt lat="45.9522870" lon="10.1657580">
	<ele>1491.40</ele>
	<time>2025-08-03T09:48:13.000Z</time>
</trkpt>
<trkpt lat="45.9522880" lon="10.1657370">
	<ele>1491.40</ele>
	<time>2025-08-03T09:48:14.000Z</time>
</trkpt>
<trkpt lat="45.9522890" lon="10.1657150">
	<ele>1491.40</ele>
	<time>2025-08-03T09:48:15.000Z</time>
</trkpt>
<trkpt lat="45.9522970" lon="10.1656970">
	<ele>1491.20</ele>
	<time>2025-08-03T09:48:16.000Z</time>
</trkpt>
<trkpt lat="45.9522960" lon="10.1656750">
	<ele>1491.20</ele>
	<time>2025-08-03T09:48:17.000Z</time>
</trkpt>
<trkpt lat="45.9522980" lon="10.1656580">
	<ele>1491.00</ele>
	<time>2025-08-03T09:48:18.000Z</time>
</trkpt>
<trkpt lat="45.9522960" lon="10.1656420">
	<ele>1490.80</ele>
	<time>2025-08-03T09:48:19.000Z</time>
</trkpt>
<trkpt lat="45.9522950" lon="10.1656340">
	<ele>1490.60</ele>
	<time>2025-08-03T09:48:20.000Z</time>
</trkpt>
<trkpt lat="45.9522940" lon="10.1656310">
	<ele>1490.60</ele>
	<time>2025-08-03T09:48:21.000Z</time>
</trkpt>
<trkpt lat="45.9522860" lon="10.1656260">
	<ele>1490.40</ele>
	<time>2025-08-03T09:48:22.000Z</time>
</trkpt>
<trkpt lat="45.9522820" lon="10.1656240">
	<ele>1490.20</ele>
	<time>2025-08-03T09:48:23.000Z</time>
</trkpt>
<trkpt lat="45.9522850" lon="10.1656140">
	<ele>1490.20</ele>
	<time>2025-08-03T09:48:24.000Z</time>
</trkpt>
<trkpt lat="45.9522940" lon="10.1656040">
	<ele>1490.20</ele>
	<time>2025-08-03T09:48:25.000Z</time>
</trkpt>
<trkpt lat="45.9523040" lon="10.1655930">
	<ele>1490.00</ele>
	<time>2025-08-03T09:48:26.000Z</time>
</trkpt>
<trkpt lat="45.9523150" lon="10.1655750">
	<ele>1489.80</ele>
	<time>2025-08-03T09:48:27.000Z</time>
</trkpt>
<trkpt lat="45.9523240" lon="10.1655580">
	<ele>1489.60</ele>
	<time>2025-08-03T09:48:28.000Z</time>
</trkpt>
<trkpt lat="45.9523350" lon="10.1655430">
	<ele>1489.20</ele>
	<time>2025-08-03T09:48:29.000Z</time>
</trkpt>
<trkpt lat="45.9523430" lon="10.1655280">
	<ele>1489.00</ele>
	<time>2025-08-03T09:48:30.000Z</time>
</trkpt>
<trkpt lat="45.9523500" lon="10.1655100">
	<ele>1488.80</ele>
	<time>2025-08-03T09:48:31.000Z</time>
</trkpt>
<trkpt lat="45.9523540" lon="10.1654880">
	<ele>1488.60</ele>
	<time>2025-08-03T09:48:32.000Z</time>
</trkpt>
<trkpt lat="45.9523560" lon="10.1654670">
	<ele>1488.60</ele>
	<time>2025-08-03T09:48:33.000Z</time>
</trkpt>
<trkpt lat="45.9523530" lon="10.1654400">
	<ele>1488.20</ele>
	<time>2025-08-03T09:48:34.000Z</time>
</trkpt>
<trkpt lat="45.9523580" lon="10.1654170">
	<ele>1488.00</ele>
	<time>2025-08-03T09:48:35.000Z</time>
</trkpt>
<trkpt lat="45.9523530" lon="10.1653900">
	<ele>1487.80</ele>
	<time>2025-08-03T09:48:36.000Z</time>
</trkpt>
<trkpt lat="45.9523780" lon="10.1653910">
	<ele>1487.60</ele>
	<time>2025-08-03T09:48:37.000Z</time>
</trkpt>
<trkpt lat="45.9523900" lon="10.1653760">
	<ele>1487.20</ele>
	<time>2025-08-03T09:48:38.000Z</time>
</trkpt>
<trkpt lat="45.9524000" lon="10.1653550">
	<ele>1487.00</ele>
	<time>2025-08-03T09:48:39.000Z</time>
</trkpt>
<trkpt lat="45.9524090" lon="10.1653360">
	<ele>1486.80</ele>
	<time>2025-08-03T09:48:40.000Z</time>
</trkpt>
<trkpt lat="45.9524110" lon="10.1653040">
	<ele>1486.60</ele>
	<time>2025-08-03T09:48:41.000Z</time>
</trkpt>
<trkpt lat="45.9524160" lon="10.1652820">
	<ele>1486.60</ele>
	<time>2025-08-03T09:48:42.000Z</time>
</trkpt>
<trkpt lat="45.9524110" lon="10.1652450">
	<ele>1486.20</ele>
	<time>2025-08-03T09:48:43.000Z</time>
</trkpt>
<trkpt lat="45.9524130" lon="10.1652230">
	<ele>1486.00</ele>
	<time>2025-08-03T09:48:44.000Z</time>
</trkpt>
<trkpt lat="45.9524190" lon="10.1652030">
	<ele>1485.80</ele>
	<time>2025-08-03T09:48:45.000Z</time>
</trkpt>
<trkpt lat="45.9524240" lon="10.1651810">
	<ele>1485.60</ele>
	<time>2025-08-03T09:48:46.000Z</time>
</trkpt>
<trkpt lat="45.9524310" lon="10.1651590">
	<ele>1485.60</ele>
	<time>2025-08-03T09:48:47.000Z</time>
</trkpt>
<trkpt lat="45.9524390" lon="10.1651420">
	<ele>1485.40</ele>
	<time>2025-08-03T09:48:48.000Z</time>
</trkpt>
<trkpt lat="45.9524480" lon="10.1651240">
	<ele>1485.40</ele>
	<time>2025-08-03T09:48:49.000Z</time>
</trkpt>
<trkpt lat="45.9524530" lon="10.1651000">
	<ele>1485.40</ele>
	<time>2025-08-03T09:48:50.000Z</time>
</trkpt>
<trkpt lat="45.9524600" lon="10.1650790">
	<ele>1485.20</ele>
	<time>2025-08-03T09:48:51.000Z</time>
</trkpt>
<trkpt lat="45.9524680" lon="10.1650560">
	<ele>1485.00</ele>
	<time>2025-08-03T09:48:52.000Z</time>
</trkpt>
<trkpt lat="45.9524730" lon="10.1650330">
	<ele>1485.00</ele>
	<time>2025-08-03T09:48:53.000Z</time>
</trkpt>
<trkpt lat="45.9524740" lon="10.1650070">
	<ele>1484.80</ele>
	<time>2025-08-03T09:48:54.000Z</time>
</trkpt>
<trkpt lat="45.9524770" lon="10.1649820">
	<ele>1484.60</ele>
	<time>2025-08-03T09:48:55.000Z</time>
</trkpt>
<trkpt lat="45.9524810" lon="10.1649550">
	<ele>1484.40</ele>
	<time>2025-08-03T09:48:56.000Z</time>
</trkpt>
<trkpt lat="45.9524880" lon="10.1649330">
	<ele>1484.20</ele>
	<time>2025-08-03T09:48:57.000Z</time>
</trkpt>
<trkpt lat="45.9524890" lon="10.1649130">
	<ele>1484.20</ele>
	<time>2025-08-03T09:48:58.000Z</time>
</trkpt>
<trkpt lat="45.9524930" lon="10.1648930">
	<ele>1484.00</ele>
	<time>2025-08-03T09:48:59.000Z</time>
</trkpt>
<trkpt lat="45.9524960" lon="10.1648700">
	<ele>1484.00</ele>
	<time>2025-08-03T09:49:00.000Z</time>
</trkpt>
<trkpt lat="45.9524970" lon="10.1648470">
	<ele>1483.80</ele>
	<time>2025-08-03T09:49:01.000Z</time>
</trkpt>
<trkpt lat="45.9525010" lon="10.1648270">
	<ele>1483.60</ele>
	<time>2025-08-03T09:49:02.000Z</time>
</trkpt>
<trkpt lat="45.9525050" lon="10.1648050">
	<ele>1483.60</ele>
	<time>2025-08-03T09:49:03.000Z</time>
</trkpt>
<trkpt lat="45.9525080" lon="10.1647820">
	<ele>1483.40</ele>
	<time>2025-08-03T09:49:04.000Z</time>
</trkpt>
<trkpt lat="45.9525140" lon="10.1647620">
	<ele>1483.40</ele>
	<time>2025-08-03T09:49:05.000Z</time>
</trkpt>
<trkpt lat="45.9525220" lon="10.1647430">
	<ele>1483.20</ele>
	<time>2025-08-03T09:49:06.000Z</time>
</trkpt>
<trkpt lat="45.9525350" lon="10.1647220">
	<ele>1483.20</ele>
	<time>2025-08-03T09:49:07.000Z</time>
</trkpt>
<trkpt lat="45.9525430" lon="10.1647020">
	<ele>1483.20</ele>
	<time>2025-08-03T09:49:08.000Z</time>
</trkpt>
<trkpt lat="45.9525510" lon="10.1646880">
	<ele>1483.00</ele>
	<time>2025-08-03T09:49:09.000Z</time>
</trkpt>
<trkpt lat="45.9525660" lon="10.1646770">
	<ele>1482.60</ele>
	<time>2025-08-03T09:49:10.000Z</time>
</trkpt>
<trkpt lat="45.9525750" lon="10.1646560">
	<ele>1482.40</ele>
	<time>2025-08-03T09:49:11.000Z</time>
</trkpt>
<trkpt lat="45.9525840" lon="10.1646340">
	<ele>1482.20</ele>
	<time>2025-08-03T09:49:12.000Z</time>
</trkpt>
<trkpt lat="45.9525910" lon="10.1646140">
	<ele>1482.20</ele>
	<time>2025-08-03T09:49:13.000Z</time>
</trkpt>
<trkpt lat="45.9525910" lon="10.1645900">
	<ele>1481.60</ele>
	<time>2025-08-03T09:49:14.000Z</time>
</trkpt>
<trkpt lat="45.9525950" lon="10.1645660">
	<ele>1481.20</ele>
	<time>2025-08-03T09:49:15.000Z</time>
</trkpt>
<trkpt lat="45.9526040" lon="10.1645530">
	<ele>1481.00</ele>
	<time>2025-08-03T09:49:16.000Z</time>
</trkpt>
<trkpt lat="45.9526080" lon="10.1645420">
	<ele>1480.80</ele>
	<time>2025-08-03T09:49:17.000Z</time>
</trkpt>
<trkpt lat="45.9526120" lon="10.1645380">
	<ele>1480.60</ele>
	<time>2025-08-03T09:49:18.000Z</time>
</trkpt>
<trkpt lat="45.9526170" lon="10.1645260">
	<ele>1480.60</ele>
	<time>2025-08-03T09:49:19.000Z</time>
</trkpt>
<trkpt lat="45.9526220" lon="10.1645070">
	<ele>1480.60</ele>
	<time>2025-08-03T09:49:20.000Z</time>
</trkpt>
<trkpt lat="45.9526290" lon="10.1644880">
	<ele>1480.20</ele>
	<time>2025-08-03T09:49:21.000Z</time>
</trkpt>
<trkpt lat="45.9526300" lon="10.1644600">
	<ele>1479.80</ele>
	<time>2025-08-03T09:49:22.000Z</time>
</trkpt>
<trkpt lat="45.9526330" lon="10.1644420">
	<ele>1479.60</ele>
	<time>2025-08-03T09:49:23.000Z</time>
</trkpt>
<trkpt lat="45.9526440" lon="10.1644320">
	<ele>1479.40</ele>
	<time>2025-08-03T09:49:24.000Z</time>
</trkpt>
<trkpt lat="45.9526520" lon="10.1644170">
	<ele>1479.20</ele>
	<time>2025-08-03T09:49:25.000Z</time>
</trkpt>
<trkpt lat="45.9526550" lon="10.1643940">
	<ele>1479.20</ele>
	<time>2025-08-03T09:49:26.000Z</time>
</trkpt>
<trkpt lat="45.9526610" lon="10.1643710">
	<ele>1479.00</ele>
	<time>2025-08-03T09:49:27.000Z</time>
</trkpt>
<trkpt lat="45.9526700" lon="10.1643600">
	<ele>1479.00</ele>
	<time>2025-08-03T09:49:28.000Z</time>
</trkpt>
<trkpt lat="45.9526810" lon="10.1643420">
	<ele>1478.80</ele>
	<time>2025-08-03T09:49:29.000Z</time>
</trkpt>
<trkpt lat="45.9526870" lon="10.1643290">
	<ele>1478.60</ele>
	<time>2025-08-03T09:49:30.000Z</time>
</trkpt>
<trkpt lat="45.9526960" lon="10.1643170">
	<ele>1478.40</ele>
	<time>2025-08-03T09:49:31.000Z</time>
</trkpt>
<trkpt lat="45.9527000" lon="10.1642910">
	<ele>1478.20</ele>
	<time>2025-08-03T09:49:32.000Z</time>
</trkpt>
<trkpt lat="45.9527040" lon="10.1642710">
	<ele>1478.00</ele>
	<time>2025-08-03T09:49:33.000Z</time>
</trkpt>
<trkpt lat="45.9527170" lon="10.1642590">
	<ele>1478.00</ele>
	<time>2025-08-03T09:49:34.000Z</time>
</trkpt>
<trkpt lat="45.9527310" lon="10.1642390">
	<ele>1477.80</ele>
	<time>2025-08-03T09:49:35.000Z</time>
</trkpt>
<trkpt lat="45.9527340" lon="10.1642150">
	<ele>1477.60</ele>
	<time>2025-08-03T09:49:36.000Z</time>
</trkpt>
<trkpt lat="45.9527370" lon="10.1641920">
	<ele>1477.60</ele>
	<time>2025-08-03T09:49:37.000Z</time>
</trkpt>
<trkpt lat="45.9527410" lon="10.1641720">
	<ele>1477.40</ele>
	<time>2025-08-03T09:49:38.000Z</time>
</trkpt>
<trkpt lat="45.9527400" lon="10.1641420">
	<ele>1477.40</ele>
	<time>2025-08-03T09:49:39.000Z</time>
</trkpt>
<trkpt lat="45.9527460" lon="10.1641160">
	<ele>1477.20</ele>
	<time>2025-08-03T09:49:40.000Z</time>
</trkpt>
<trkpt lat="45.9527500" lon="10.1640920">
	<ele>1477.00</ele>
	<time>2025-08-03T09:49:41.000Z</time>
</trkpt>
<trkpt lat="45.9527530" lon="10.1640700">
	<ele>1477.00</ele>
	<time>2025-08-03T09:49:42.000Z</time>
</trkpt>
<trkpt lat="45.9527560" lon="10.1640480">
	<ele>1477.00</ele>
	<time>2025-08-03T09:49:43.000Z</time>
</trkpt>
<trkpt lat="45.9527620" lon="10.1640300">
	<ele>1476.80</ele>
	<time>2025-08-03T09:49:44.000Z</time>
</trkpt>
<trkpt lat="45.9527650" lon="10.1640110">
	<ele>1476.80</ele>
	<time>2025-08-03T09:49:45.000Z</time>
</trkpt>
<trkpt lat="45.9527690" lon="10.1639920">
	<ele>1476.80</ele>
	<time>2025-08-03T09:49:46.000Z</time>
</trkpt>
<trkpt lat="45.9527770" lon="10.1639760">
	<ele>1476.80</ele>
	<time>2025-08-03T09:49:47.000Z</time>
</trkpt>
<trkpt lat="45.9527810" lon="10.1639560">
	<ele>1476.60</ele>
	<time>2025-08-03T09:49:48.000Z</time>
</trkpt>
<trkpt lat="45.9527870" lon="10.1639370">
	<ele>1476.60</ele>
	<time>2025-08-03T09:49:49.000Z</time>
</trkpt>
<trkpt lat="45.9527930" lon="10.1639190">
	<ele>1476.40</ele>
	<time>2025-08-03T09:49:50.000Z</time>
</trkpt>
<trkpt lat="45.9527980" lon="10.1639030">
	<ele>1476.20</ele>
	<time>2025-08-03T09:49:51.000Z</time>
</trkpt>
<trkpt lat="45.9528020" lon="10.1638890">
	<ele>1476.00</ele>
	<time>2025-08-03T09:49:52.000Z</time>
</trkpt>
<trkpt lat="45.9528070" lon="10.1638740">
	<ele>1476.00</ele>
	<time>2025-08-03T09:49:53.000Z</time>
</trkpt>
<trkpt lat="45.9528120" lon="10.1638540">
	<ele>1475.60</ele>
	<time>2025-08-03T09:49:54.000Z</time>
</trkpt>
<trkpt lat="45.9528180" lon="10.1638350">
	<ele>1475.40</ele>
	<time>2025-08-03T09:49:55.000Z</time>
</trkpt>
<trkpt lat="45.9528310" lon="10.1638170">
	<ele>1475.20</ele>
	<time>2025-08-03T09:49:56.000Z</time>
</trkpt>
<trkpt lat="45.9528450" lon="10.1637990">
	<ele>1475.00</ele>
	<time>2025-08-03T09:49:57.000Z</time>
</trkpt>
<trkpt lat="45.9528600" lon="10.1637830">
	<ele>1474.80</ele>
	<time>2025-08-03T09:49:58.000Z</time>
</trkpt>
<trkpt lat="45.9528700" lon="10.1637640">
	<ele>1474.60</ele>
	<time>2025-08-03T09:49:59.000Z</time>
</trkpt>
<trkpt lat="45.9528810" lon="10.1637450">
	<ele>1474.40</ele>
	<time>2025-08-03T09:50:00.000Z</time>
</trkpt>
<trkpt lat="45.9528900" lon="10.1637220">
	<ele>1474.20</ele>
	<time>2025-08-03T09:50:01.000Z</time>
</trkpt>
<trkpt lat="45.9528990" lon="10.1637050">
	<ele>1474.20</ele>
	<time>2025-08-03T09:50:02.000Z</time>
</trkpt>
<trkpt lat="45.9529120" lon="10.1636910">
	<ele>1474.20</ele>
	<time>2025-08-03T09:50:03.000Z</time>
</trkpt>
<trkpt lat="45.9529250" lon="10.1636790">
	<ele>1474.20</ele>
	<time>2025-08-03T09:50:04.000Z</time>
</trkpt>
<trkpt lat="45.9529410" lon="10.1636680">
	<ele>1474.20</ele>
	<time>2025-08-03T09:50:05.000Z</time>
</trkpt>
<trkpt lat="45.9529580" lon="10.1636590">
	<ele>1474.20</ele>
	<time>2025-08-03T09:50:06.000Z</time>
</trkpt>
<trkpt lat="45.9529700" lon="10.1636450">
	<ele>1474.20</ele>
	<time>2025-08-03T09:50:07.000Z</time>
</trkpt>
<trkpt lat="45.9529790" lon="10.1636340">
	<ele>1474.20</ele>
	<time>2025-08-03T09:50:08.000Z</time>
</trkpt>
<trkpt lat="45.9529880" lon="10.1636230">
	<ele>1474.20</ele>
	<time>2025-08-03T09:50:09.000Z</time>
</trkpt>
<trkpt lat="45.9529960" lon="10.1636130">
	<ele>1474.20</ele>
	<time>2025-08-03T09:50:10.000Z</time>
</trkpt>
<trkpt lat="45.9530120" lon="10.1636110">
	<ele>1474.20</ele>
	<time>2025-08-03T09:50:11.000Z</time>
</trkpt>
<trkpt lat="45.9530230" lon="10.1636060">
	<ele>1474.20</ele>
	<time>2025-08-03T09:50:12.000Z</time>
</trkpt>
<trkpt lat="45.9530360" lon="10.1636130">
	<ele>1474.20</ele>
	<time>2025-08-03T09:50:13.000Z</time>
</trkpt>
<trkpt lat="45.9530540" lon="10.1636140">
	<ele>1474.20</ele>
	<time>2025-08-03T09:50:14.000Z</time>
</trkpt>
<trkpt lat="45.9530770" lon="10.1636230">
	<ele>1474.00</ele>
	<time>2025-08-03T09:50:15.000Z</time>
</trkpt>
<trkpt lat="45.9530890" lon="10.1636220">
	<ele>1473.60</ele>
	<time>2025-08-03T09:50:16.000Z</time>
</trkpt>
<trkpt lat="45.9531000" lon="10.1636120">
	<ele>1473.40</ele>
	<time>2025-08-03T09:50:17.000Z</time>
</trkpt>
<trkpt lat="45.9531040" lon="10.1635790">
	<ele>1473.20</ele>
	<time>2025-08-03T09:50:18.000Z</time>
</trkpt>
<trkpt lat="45.9531130" lon="10.1635630">
	<ele>1473.00</ele>
	<time>2025-08-03T09:50:19.000Z</time>
</trkpt>
<trkpt lat="45.9531220" lon="10.1635500">
	<ele>1472.80</ele>
	<time>2025-08-03T09:50:20.000Z</time>
</trkpt>
<trkpt lat="45.9531320" lon="10.1635410">
	<ele>1472.60</ele>
	<time>2025-08-03T09:50:21.000Z</time>
</trkpt>
<trkpt lat="45.9531460" lon="10.1635440">
	<ele>1472.40</ele>
	<time>2025-08-03T09:50:22.000Z</time>
</trkpt>
<trkpt lat="45.9531630" lon="10.1635420">
	<ele>1472.20</ele>
	<time>2025-08-03T09:50:23.000Z</time>
</trkpt>
<trkpt lat="45.9531770" lon="10.1635330">
	<ele>1472.00</ele>
	<time>2025-08-03T09:50:24.000Z</time>
</trkpt>
<trkpt lat="45.9531910" lon="10.1635260">
	<ele>1471.80</ele>
	<time>2025-08-03T09:50:25.000Z</time>
</trkpt>
<trkpt lat="45.9532040" lon="10.1635170">
	<ele>1471.80</ele>
	<time>2025-08-03T09:50:26.000Z</time>
</trkpt>
<trkpt lat="45.9532160" lon="10.1635100">
	<ele>1471.60</ele>
	<time>2025-08-03T09:50:27.000Z</time>
</trkpt>
<trkpt lat="45.9532260" lon="10.1635000">
	<ele>1471.60</ele>
	<time>2025-08-03T09:50:28.000Z</time>
</trkpt>
<trkpt lat="45.9532370" lon="10.1634930">
	<ele>1471.40</ele>
	<time>2025-08-03T09:50:29.000Z</time>
</trkpt>
<trkpt lat="45.9532470" lon="10.1634870">
	<ele>1471.20</ele>
	<time>2025-08-03T09:50:30.000Z</time>
</trkpt>
<trkpt lat="45.9532600" lon="10.1634830">
	<ele>1471.00</ele>
	<time>2025-08-03T09:50:31.000Z</time>
</trkpt>
<trkpt lat="45.9532750" lon="10.1634830">
	<ele>1470.80</ele>
	<time>2025-08-03T09:50:32.000Z</time>
</trkpt>
<trkpt lat="45.9532890" lon="10.1634790">
	<ele>1470.60</ele>
	<time>2025-08-03T09:50:33.000Z</time>
</trkpt>
<trkpt lat="45.9533020" lon="10.1634770">
	<ele>1470.40</ele>
	<time>2025-08-03T09:50:34.000Z</time>
</trkpt>
<trkpt lat="45.9533160" lon="10.1634750">
	<ele>1470.20</ele>
	<time>2025-08-03T09:50:35.000Z</time>
</trkpt>
<trkpt lat="45.9533340" lon="10.1634730">
	<ele>1470.00</ele>
	<time>2025-08-03T09:50:36.000Z</time>
</trkpt>
<trkpt lat="45.9533510" lon="10.1634770">
	<ele>1469.80</ele>
	<time>2025-08-03T09:50:37.000Z</time>
</trkpt>
<trkpt lat="45.9533660" lon="10.1634780">
	<ele>1469.60</ele>
	<time>2025-08-03T09:50:38.000Z</time>
</trkpt>
<trkpt lat="45.9533770" lon="10.1634780">
	<ele>1469.40</ele>
	<time>2025-08-03T09:50:39.000Z</time>
</trkpt>
<trkpt lat="45.9533910" lon="10.1634810">
	<ele>1469.40</ele>
	<time>2025-08-03T09:50:40.000Z</time>
</trkpt>
<trkpt lat="45.9534050" lon="10.1634790">
	<ele>1469.20</ele>
	<time>2025-08-03T09:50:41.000Z</time>
</trkpt>
<trkpt lat="45.9534200" lon="10.1634750">
	<ele>1469.00</ele>
	<time>2025-08-03T09:50:42.000Z</time>
</trkpt>
<trkpt lat="45.9534340" lon="10.1634660">
	<ele>1468.80</ele>
	<time>2025-08-03T09:50:43.000Z</time>
</trkpt>
<trkpt lat="45.9534500" lon="10.1634590">
	<ele>1468.60</ele>
	<time>2025-08-03T09:50:44.000Z</time>
</trkpt>
<trkpt lat="45.9534650" lon="10.1634460">
	<ele>1468.20</ele>
	<time>2025-08-03T09:50:45.000Z</time>
</trkpt>
<trkpt lat="45.9534760" lon="10.1634340">
	<ele>1468.00</ele>
	<time>2025-08-03T09:50:46.000Z</time>
</trkpt>
<trkpt lat="45.9534870" lon="10.1634190">
	<ele>1468.00</ele>
	<time>2025-08-03T09:50:47.000Z</time>
</trkpt>
<trkpt lat="45.9534970" lon="10.1634030">
	<ele>1467.80</ele>
	<time>2025-08-03T09:50:48.000Z</time>
</trkpt>
<trkpt lat="45.9535180" lon="10.1633940">
	<ele>1467.60</ele>
	<time>2025-08-03T09:50:49.000Z</time>
</trkpt>
<trkpt lat="45.9535300" lon="10.1633820">
	<ele>1467.60</ele>
	<time>2025-08-03T09:50:50.000Z</time>
</trkpt>
<trkpt lat="45.9535520" lon="10.1633860">
	<ele>1467.40</ele>
	<time>2025-08-03T09:50:51.000Z</time>
</trkpt>
<trkpt lat="45.9535700" lon="10.1633770">
	<ele>1467.20</ele>
	<time>2025-08-03T09:50:52.000Z</time>
</trkpt>
<trkpt lat="45.9535830" lon="10.1633630">
	<ele>1467.00</ele>
	<time>2025-08-03T09:50:53.000Z</time>
</trkpt>
<trkpt lat="45.9535940" lon="10.1633510">
	<ele>1466.80</ele>
	<time>2025-08-03T09:50:54.000Z</time>
</trkpt>
<trkpt lat="45.9536090" lon="10.1633340">
	<ele>1466.60</ele>
	<time>2025-08-03T09:50:55.000Z</time>
</trkpt>
<trkpt lat="45.9536240" lon="10.1633210">
	<ele>1466.60</ele>
	<time>2025-08-03T09:50:56.000Z</time>
</trkpt>
<trkpt lat="45.9536330" lon="10.1632980">
	<ele>1466.40</ele>
	<time>2025-08-03T09:50:57.000Z</time>
</trkpt>
<trkpt lat="45.9536420" lon="10.1632830">
	<ele>1466.20</ele>
	<time>2025-08-03T09:50:58.000Z</time>
</trkpt>
<trkpt lat="45.9536510" lon="10.1632670">
	<ele>1466.20</ele>
	<time>2025-08-03T09:50:59.000Z</time>
</trkpt>
<trkpt lat="45.9536500" lon="10.1632510">
	<ele>1466.00</ele>
	<time>2025-08-03T09:51:00.000Z</time>
</trkpt>
<trkpt lat="45.9536550" lon="10.1632230">
	<ele>1465.80</ele>
	<time>2025-08-03T09:51:01.000Z</time>
</trkpt>
<trkpt lat="45.9536670" lon="10.1632070">
	<ele>1465.60</ele>
	<time>2025-08-03T09:51:02.000Z</time>
</trkpt>
<trkpt lat="45.9536870" lon="10.1632020">
	<ele>1465.20</ele>
	<time>2025-08-03T09:51:03.000Z</time>
</trkpt>
<trkpt lat="45.9537170" lon="10.1632070">
	<ele>1465.00</ele>
	<time>2025-08-03T09:51:04.000Z</time>
</trkpt>
<trkpt lat="45.9537440" lon="10.1632040">
	<ele>1464.80</ele>
	<time>2025-08-03T09:51:05.000Z</time>
</trkpt>
<trkpt lat="45.9537690" lon="10.1632020">
	<ele>1464.60</ele>
	<time>2025-08-03T09:51:06.000Z</time>
</trkpt>
<trkpt lat="45.9537900" lon="10.1631930">
	<ele>1464.40</ele>
	<time>2025-08-03T09:51:07.000Z</time>
</trkpt>
<trkpt lat="45.9538030" lon="10.1631800">
	<ele>1464.20</ele>
	<time>2025-08-03T09:51:08.000Z</time>
</trkpt>
<trkpt lat="45.9538200" lon="10.1631730">
	<ele>1464.00</ele>
	<time>2025-08-03T09:51:09.000Z</time>
</trkpt>
<trkpt lat="45.9538360" lon="10.1631600">
	<ele>1463.60</ele>
	<time>2025-08-03T09:51:10.000Z</time>
</trkpt>
<trkpt lat="45.9538550" lon="10.1631510">
	<ele>1463.60</ele>
	<time>2025-08-03T09:51:11.000Z</time>
</trkpt>
<trkpt lat="45.9538750" lon="10.1631500">
	<ele>1463.40</ele>
	<time>2025-08-03T09:51:12.000Z</time>
</trkpt>
<trkpt lat="45.9538880" lon="10.1631380">
	<ele>1463.00</ele>
	<time>2025-08-03T09:51:13.000Z</time>
</trkpt>
<trkpt lat="45.9539030" lon="10.1631220">
	<ele>1463.00</ele>
	<time>2025-08-03T09:51:14.000Z</time>
</trkpt>
<trkpt lat="45.9539180" lon="10.1631100">
	<ele>1462.80</ele>
	<time>2025-08-03T09:51:15.000Z</time>
</trkpt>
<trkpt lat="45.9539330" lon="10.1630970">
	<ele>1462.40</ele>
	<time>2025-08-03T09:51:16.000Z</time>
</trkpt>
<trkpt lat="45.9539410" lon="10.1630740">
	<ele>1462.20</ele>
	<time>2025-08-03T09:51:17.000Z</time>
</trkpt>
<trkpt lat="45.9539490" lon="10.1630500">
	<ele>1462.20</ele>
	<time>2025-08-03T09:51:18.000Z</time>
</trkpt>
<trkpt lat="45.9539660" lon="10.1630330">
	<ele>1462.00</ele>
	<time>2025-08-03T09:51:19.000Z</time>
</trkpt>
<trkpt lat="45.9539790" lon="10.1630120">
	<ele>1462.00</ele>
	<time>2025-08-03T09:51:20.000Z</time>
</trkpt>
<trkpt lat="45.9539920" lon="10.1629870">
	<ele>1461.80</ele>
	<time>2025-08-03T09:51:21.000Z</time>
</trkpt>
<trkpt lat="45.9539970" lon="10.1629600">
	<ele>1461.80</ele>
	<time>2025-08-03T09:51:22.000Z</time>
</trkpt>
<trkpt lat="45.9540040" lon="10.1629420">
	<ele>1461.60</ele>
	<time>2025-08-03T09:51:23.000Z</time>
</trkpt>
<trkpt lat="45.9540080" lon="10.1629240">
	<ele>1461.60</ele>
	<time>2025-08-03T09:51:24.000Z</time>
</trkpt>
<trkpt lat="45.9540140" lon="10.1629090">
	<ele>1461.40</ele>
	<time>2025-08-03T09:51:25.000Z</time>
</trkpt>
<trkpt lat="45.9540240" lon="10.1628930">
	<ele>1461.20</ele>
	<time>2025-08-03T09:51:26.000Z</time>
</trkpt>
<trkpt lat="45.9540350" lon="10.1628850">
	<ele>1461.00</ele>
	<time>2025-08-03T09:51:27.000Z</time>
</trkpt>
<trkpt lat="45.9540450" lon="10.1628700">
	<ele>1460.80</ele>
	<time>2025-08-03T09:51:28.000Z</time>
</trkpt>
<trkpt lat="45.9540550" lon="10.1628590">
	<ele>1460.40</ele>
	<time>2025-08-03T09:51:29.000Z</time>
</trkpt>
<trkpt lat="45.9540670" lon="10.1628510">
	<ele>1460.20</ele>
	<time>2025-08-03T09:51:30.000Z</time>
</trkpt>
<trkpt lat="45.9540800" lon="10.1628450">
	<ele>1459.80</ele>
	<time>2025-08-03T09:51:31.000Z</time>
</trkpt>
<trkpt lat="45.9540880" lon="10.1628350">
	<ele>1459.60</ele>
	<time>2025-08-03T09:51:32.000Z</time>
</trkpt>
<trkpt lat="45.9541010" lon="10.1628290">
	<ele>1459.60</ele>
	<time>2025-08-03T09:51:33.000Z</time>
</trkpt>
<trkpt lat="45.9541190" lon="10.1628340">
	<ele>1459.40</ele>
	<time>2025-08-03T09:51:34.000Z</time>
</trkpt>
<trkpt lat="45.9541330" lon="10.1628340">
	<ele>1459.20</ele>
	<time>2025-08-03T09:51:35.000Z</time>
</trkpt>
<trkpt lat="45.9541490" lon="10.1628240">
	<ele>1459.20</ele>
	<time>2025-08-03T09:51:36.000Z</time>
</trkpt>
<trkpt lat="45.9541670" lon="10.1628210">
	<ele>1459.00</ele>
	<time>2025-08-03T09:51:37.000Z</time>
</trkpt>
<trkpt lat="45.9541720" lon="10.1628180">
	<ele>1458.80</ele>
	<time>2025-08-03T09:51:38.000Z</time>
</trkpt>
<trkpt lat="45.9541810" lon="10.1628170">
	<ele>1458.60</ele>
	<time>2025-08-03T09:51:39.000Z</time>
</trkpt>
<trkpt lat="45.9541910" lon="10.1628050">
	<ele>1458.60</ele>
	<time>2025-08-03T09:51:40.000Z</time>
</trkpt>
<trkpt lat="45.9542020" lon="10.1627980">
	<ele>1458.60</ele>
	<time>2025-08-03T09:51:41.000Z</time>
</trkpt>
<trkpt lat="45.9542080" lon="10.1627850">
	<ele>1458.60</ele>
	<time>2025-08-03T09:51:42.000Z</time>
</trkpt>
<trkpt lat="45.9542210" lon="10.1627720">
	<ele>1458.60</ele>
	<time>2025-08-03T09:51:43.000Z</time>
</trkpt>
<trkpt lat="45.9542380" lon="10.1627680">
	<ele>1458.60</ele>
	<time>2025-08-03T09:51:44.000Z</time>
</trkpt>
<trkpt lat="45.9542560" lon="10.1627570">
	<ele>1458.60</ele>
	<time>2025-08-03T09:51:45.000Z</time>
</trkpt>
<trkpt lat="45.9542730" lon="10.1627490">
	<ele>1458.60</ele>
	<time>2025-08-03T09:51:46.000Z</time>
</trkpt>
<trkpt lat="45.9542860" lon="10.1627480">
	<ele>1458.60</ele>
	<time>2025-08-03T09:51:47.000Z</time>
</trkpt>
<trkpt lat="45.9542970" lon="10.1627370">
	<ele>1458.40</ele>
	<time>2025-08-03T09:51:48.000Z</time>
</trkpt>
<trkpt lat="45.9543100" lon="10.1627260">
	<ele>1458.40</ele>
	<time>2025-08-03T09:51:49.000Z</time>
</trkpt>
<trkpt lat="45.9543240" lon="10.1627130">
	<ele>1458.20</ele>
	<time>2025-08-03T09:51:50.000Z</time>
</trkpt>
<trkpt lat="45.9543360" lon="10.1627000">
	<ele>1458.20</ele>
	<time>2025-08-03T09:51:51.000Z</time>
</trkpt>
<trkpt lat="45.9543490" lon="10.1626870">
	<ele>1458.00</ele>
	<time>2025-08-03T09:51:52.000Z</time>
</trkpt>
<trkpt lat="45.9543600" lon="10.1626700">
	<ele>1458.00</ele>
	<time>2025-08-03T09:51:53.000Z</time>
</trkpt>
<trkpt lat="45.9543770" lon="10.1626630">
	<ele>1457.80</ele>
	<time>2025-08-03T09:51:54.000Z</time>
</trkpt>
<trkpt lat="45.9543940" lon="10.1626550">
	<ele>1457.60</ele>
	<time>2025-08-03T09:51:55.000Z</time>
</trkpt>
<trkpt lat="45.9544040" lon="10.1626410">
	<ele>1457.20</ele>
	<time>2025-08-03T09:51:56.000Z</time>
</trkpt>
<trkpt lat="45.9544160" lon="10.1626310">
	<ele>1457.00</ele>
	<time>2025-08-03T09:51:57.000Z</time>
</trkpt>
<trkpt lat="45.9544240" lon="10.1626190">
	<ele>1456.80</ele>
	<time>2025-08-03T09:51:58.000Z</time>
</trkpt>
<trkpt lat="45.9544400" lon="10.1626220">
	<ele>1456.60</ele>
	<time>2025-08-03T09:51:59.000Z</time>
</trkpt>
<trkpt lat="45.9544490" lon="10.1626110">
	<ele>1456.20</ele>
	<time>2025-08-03T09:52:00.000Z</time>
</trkpt>
<trkpt lat="45.9544590" lon="10.1626010">
	<ele>1456.20</ele>
	<time>2025-08-03T09:52:01.000Z</time>
</trkpt>
<trkpt lat="45.9544720" lon="10.1625970">
	<ele>1455.60</ele>
	<time>2025-08-03T09:52:02.000Z</time>
</trkpt>
<trkpt lat="45.9544840" lon="10.1625860">
	<ele>1455.40</ele>
	<time>2025-08-03T09:52:03.000Z</time>
</trkpt>
<trkpt lat="45.9544920" lon="10.1625730">
	<ele>1454.80</ele>
	<time>2025-08-03T09:52:04.000Z</time>
</trkpt>
<trkpt lat="45.9544890" lon="10.1625530">
	<ele>1454.40</ele>
	<time>2025-08-03T09:52:05.000Z</time>
</trkpt>
<trkpt lat="45.9544970" lon="10.1625380">
	<ele>1454.20</ele>
	<time>2025-08-03T09:52:06.000Z</time>
</trkpt>
<trkpt lat="45.9545080" lon="10.1625220">
	<ele>1454.00</ele>
	<time>2025-08-03T09:52:07.000Z</time>
</trkpt>
<trkpt lat="45.9545150" lon="10.1625110">
	<ele>1453.60</ele>
	<time>2025-08-03T09:52:08.000Z</time>
</trkpt>
<trkpt lat="45.9545260" lon="10.1624970">
	<ele>1453.60</ele>
	<time>2025-08-03T09:52:09.000Z</time>
</trkpt>
<trkpt lat="45.9545370" lon="10.1624950">
	<ele>1453.20</ele>
	<time>2025-08-03T09:52:10.000Z</time>
</trkpt>
<trkpt lat="45.9545530" lon="10.1624850">
	<ele>1453.00</ele>
	<time>2025-08-03T09:52:11.000Z</time>
</trkpt>
<trkpt lat="45.9545690" lon="10.1624780">
	<ele>1452.80</ele>
	<time>2025-08-03T09:52:12.000Z</time>
</trkpt>
<trkpt lat="45.9545850" lon="10.1624730">
	<ele>1452.40</ele>
	<time>2025-08-03T09:52:13.000Z</time>
</trkpt>
<trkpt lat="45.9546010" lon="10.1624650">
	<ele>1452.00</ele>
	<time>2025-08-03T09:52:14.000Z</time>
</trkpt>
<trkpt lat="45.9546150" lon="10.1624540">
	<ele>1451.60</ele>
	<time>2025-08-03T09:52:15.000Z</time>
</trkpt>
<trkpt lat="45.9546260" lon="10.1624450">
	<ele>1451.40</ele>
	<time>2025-08-03T09:52:16.000Z</time>
</trkpt>
<trkpt lat="45.9546360" lon="10.1624320">
	<ele>1451.20</ele>
	<time>2025-08-03T09:52:17.000Z</time>
</trkpt>
<trkpt lat="45.9546490" lon="10.1624230">
	<ele>1451.00</ele>
	<time>2025-08-03T09:52:18.000Z</time>
</trkpt>
<trkpt lat="45.9546600" lon="10.1624140">
	<ele>1451.00</ele>
	<time>2025-08-03T09:52:19.000Z</time>
</trkpt>
<trkpt lat="45.9546780" lon="10.1624070">
	<ele>1450.40</ele>
	<time>2025-08-03T09:52:20.000Z</time>
</trkpt>
<trkpt lat="45.9546950" lon="10.1623960">
	<ele>1450.20</ele>
	<time>2025-08-03T09:52:21.000Z</time>
</trkpt>
<trkpt lat="45.9547060" lon="10.1623810">
	<ele>1450.00</ele>
	<time>2025-08-03T09:52:22.000Z</time>
</trkpt>
<trkpt lat="45.9547220" lon="10.1623730">
	<ele>1449.80</ele>
	<time>2025-08-03T09:52:23.000Z</time>
</trkpt>
<trkpt lat="45.9547360" lon="10.1623620">
	<ele>1449.40</ele>
	<time>2025-08-03T09:52:24.000Z</time>
</trkpt>
<trkpt lat="45.9547380" lon="10.1623500">
	<ele>1449.00</ele>
	<time>2025-08-03T09:52:25.000Z</time>
</trkpt>
<trkpt lat="45.9547480" lon="10.1623560">
	<ele>1448.80</ele>
	<time>2025-08-03T09:52:26.000Z</time>
</trkpt>
<trkpt lat="45.9547570" lon="10.1623560">
	<ele>1448.60</ele>
	<time>2025-08-03T09:52:27.000Z</time>
</trkpt>
<trkpt lat="45.9547690" lon="10.1623600">
	<ele>1448.40</ele>
	<time>2025-08-03T09:52:28.000Z</time>
</trkpt>
<trkpt lat="45.9547760" lon="10.1623540">
	<ele>1448.20</ele>
	<time>2025-08-03T09:52:29.000Z</time>
</trkpt>
<trkpt lat="45.9547880" lon="10.1623660">
	<ele>1447.80</ele>
	<time>2025-08-03T09:52:30.000Z</time>
</trkpt>
<trkpt lat="45.9548040" lon="10.1623860">
	<ele>1447.60</ele>
	<time>2025-08-03T09:52:31.000Z</time>
</trkpt>
<trkpt lat="45.9548190" lon="10.1624010">
	<ele>1447.40</ele>
	<time>2025-08-03T09:52:32.000Z</time>
</trkpt>
<trkpt lat="45.9548330" lon="10.1624120">
	<ele>1447.00</ele>
	<time>2025-08-03T09:52:33.000Z</time>
</trkpt>
<trkpt lat="45.9548460" lon="10.1624200">
	<ele>1446.80</ele>
	<time>2025-08-03T09:52:34.000Z</time>
</trkpt>
<trkpt lat="45.9548580" lon="10.1624250">
	<ele>1446.40</ele>
	<time>2025-08-03T09:52:35.000Z</time>
</trkpt>
<trkpt lat="45.9548730" lon="10.1624350">
	<ele>1446.20</ele>
	<time>2025-08-03T09:52:36.000Z</time>
</trkpt>
<trkpt lat="45.9548870" lon="10.1624440">
	<ele>1446.00</ele>
	<time>2025-08-03T09:52:37.000Z</time>
</trkpt>
<trkpt lat="45.9548990" lon="10.1624530">
	<ele>1445.80</ele>
	<time>2025-08-03T09:52:38.000Z</time>
</trkpt>
<trkpt lat="45.9549140" lon="10.1624670">
	<ele>1445.40</ele>
	<time>2025-08-03T09:52:39.000Z</time>
</trkpt>
<trkpt lat="45.9549270" lon="10.1624640">
	<ele>1445.20</ele>
	<time>2025-08-03T09:52:40.000Z</time>
</trkpt>
<trkpt lat="45.9549390" lon="10.1624670">
	<ele>1444.80</ele>
	<time>2025-08-03T09:52:41.000Z</time>
</trkpt>
<trkpt lat="45.9549450" lon="10.1624580">
	<ele>1444.60</ele>
	<time>2025-08-03T09:52:42.000Z</time>
</trkpt>
<trkpt lat="45.9549580" lon="10.1624570">
	<ele>1444.40</ele>
	<time>2025-08-03T09:52:43.000Z</time>
</trkpt>
<trkpt lat="45.9549710" lon="10.1624540">
	<ele>1444.00</ele>
	<time>2025-08-03T09:52:44.000Z</time>
</trkpt>
<trkpt lat="45.9549820" lon="10.1624530">
	<ele>1443.60</ele>
	<time>2025-08-03T09:52:45.000Z</time>
</trkpt>
<trkpt lat="45.9549880" lon="10.1624490">
	<ele>1443.40</ele>
	<time>2025-08-03T09:52:46.000Z</time>
</trkpt>
<trkpt lat="45.9549930" lon="10.1624340">
	<ele>1443.20</ele>
	<time>2025-08-03T09:52:47.000Z</time>
</trkpt>
<trkpt lat="45.9549990" lon="10.1624210">
	<ele>1443.00</ele>
	<time>2025-08-03T09:52:48.000Z</time>
</trkpt>
<trkpt lat="45.9550080" lon="10.1624190">
	<ele>1442.60</ele>
	<time>2025-08-03T09:52:49.000Z</time>
</trkpt>
<trkpt lat="45.9550140" lon="10.1624040">
	<ele>1442.40</ele>
	<time>2025-08-03T09:52:50.000Z</time>
</trkpt>
<trkpt lat="45.9550270" lon="10.1623940">
	<ele>1442.20</ele>
	<time>2025-08-03T09:52:51.000Z</time>
</trkpt>
<trkpt lat="45.9550420" lon="10.1623930">
	<ele>1442.00</ele>
	<time>2025-08-03T09:52:52.000Z</time>
</trkpt>
<trkpt lat="45.9550650" lon="10.1623840">
	<ele>1441.60</ele>
	<time>2025-08-03T09:52:53.000Z</time>
</trkpt>
<trkpt lat="45.9550890" lon="10.1623810">
	<ele>1441.00</ele>
	<time>2025-08-03T09:52:54.000Z</time>
</trkpt>
<trkpt lat="45.9551110" lon="10.1623820">
	<ele>1440.80</ele>
	<time>2025-08-03T09:52:55.000Z</time>
</trkpt>
<trkpt lat="45.9551220" lon="10.1623780">
	<ele>1440.40</ele>
	<time>2025-08-03T09:52:56.000Z</time>
</trkpt>
<trkpt lat="45.9551310" lon="10.1623770">
	<ele>1440.40</ele>
	<time>2025-08-03T09:52:57.000Z</time>
</trkpt>
<trkpt lat="45.9551330" lon="10.1623780">
	<ele>1440.20</ele>
	<time>2025-08-03T09:52:58.000Z</time>
</trkpt>
<trkpt lat="45.9551350" lon="10.1623810">
	<ele>1440.20</ele>
	<time>2025-08-03T09:52:59.000Z</time>
</trkpt>
<trkpt lat="45.9551350" lon="10.1623800">
	<ele>1440.20</ele>
	<time>2025-08-03T09:53:00.000Z</time>
</trkpt>
<trkpt lat="45.9551410" lon="10.1623800">
	<ele>1440.20</ele>
	<time>2025-08-03T09:53:01.000Z</time>
</trkpt>
<trkpt lat="45.9551530" lon="10.1623860">
	<ele>1440.20</ele>
	<time>2025-08-03T09:53:02.000Z</time>
</trkpt>
<trkpt lat="45.9551660" lon="10.1623870">
	<ele>1439.80</ele>
	<time>2025-08-03T09:53:03.000Z</time>
</trkpt>
<trkpt lat="45.9551750" lon="10.1623850">
	<ele>1439.40</ele>
	<time>2025-08-03T09:53:04.000Z</time>
</trkpt>
<trkpt lat="45.9551860" lon="10.1623780">
	<ele>1438.80</ele>
	<time>2025-08-03T09:53:05.000Z</time>
</trkpt>
<trkpt lat="45.9551950" lon="10.1623690">
	<ele>1438.60</ele>
	<time>2025-08-03T09:53:06.000Z</time>
</trkpt>
<trkpt lat="45.9552060" lon="10.1623610">
	<ele>1438.40</ele>
	<time>2025-08-03T09:53:07.000Z</time>
</trkpt>
<trkpt lat="45.9552160" lon="10.1623550">
	<ele>1438.40</ele>
	<time>2025-08-03T09:53:08.000Z</time>
</trkpt>
<trkpt lat="45.9552310" lon="10.1623510">
	<ele>1438.20</ele>
	<time>2025-08-03T09:53:09.000Z</time>
</trkpt>
<trkpt lat="45.9552470" lon="10.1623500">
	<ele>1438.00</ele>
	<time>2025-08-03T09:53:10.000Z</time>
</trkpt>
<trkpt lat="45.9552650" lon="10.1623550">
	<ele>1437.60</ele>
	<time>2025-08-03T09:53:11.000Z</time>
</trkpt>
<trkpt lat="45.9552810" lon="10.1623590">
	<ele>1437.20</ele>
	<time>2025-08-03T09:53:12.000Z</time>
</trkpt>
<trkpt lat="45.9552950" lon="10.1623600">
	<ele>1437.00</ele>
	<time>2025-08-03T09:53:13.000Z</time>
</trkpt>
<trkpt lat="45.9553070" lon="10.1623590">
	<ele>1436.80</ele>
	<time>2025-08-03T09:53:14.000Z</time>
</trkpt>
<trkpt lat="45.9553170" lon="10.1623460">
	<ele>1436.80</ele>
	<time>2025-08-03T09:53:15.000Z</time>
</trkpt>
<trkpt lat="45.9553310" lon="10.1623450">
	<ele>1436.20</ele>
	<time>2025-08-03T09:53:16.000Z</time>
</trkpt>
<trkpt lat="45.9553550" lon="10.1623500">
	<ele>1436.00</ele>
	<time>2025-08-03T09:53:17.000Z</time>
</trkpt>
<trkpt lat="45.9553720" lon="10.1623450">
	<ele>1435.80</ele>
	<time>2025-08-03T09:53:18.000Z</time>
</trkpt>
<trkpt lat="45.9553840" lon="10.1623370">
	<ele>1435.60</ele>
	<time>2025-08-03T09:53:19.000Z</time>
</trkpt>
<trkpt lat="45.9553910" lon="10.1623320">
	<ele>1435.40</ele>
	<time>2025-08-03T09:53:20.000Z</time>
</trkpt>
<trkpt lat="45.9553980" lon="10.1623310">
	<ele>1435.20</ele>
	<time>2025-08-03T09:53:21.000Z</time>
</trkpt>
<trkpt lat="45.9554070" lon="10.1623290">
	<ele>1434.80</ele>
	<time>2025-08-03T09:53:22.000Z</time>
</trkpt>
<trkpt lat="45.9554150" lon="10.1623190">
	<ele>1434.60</ele>
	<time>2025-08-03T09:53:23.000Z</time>
</trkpt>
<trkpt lat="45.9554250" lon="10.1623240">
	<ele>1434.40</ele>
	<time>2025-08-03T09:53:24.000Z</time>
</trkpt>
<trkpt lat="45.9554330" lon="10.1623250">
	<ele>1434.20</ele>
	<time>2025-08-03T09:53:25.000Z</time>
</trkpt>
<trkpt lat="45.9554400" lon="10.1623220">
	<ele>1434.20</ele>
	<time>2025-08-03T09:53:26.000Z</time>
</trkpt>
<trkpt lat="45.9554480" lon="10.1623120">
	<ele>1433.80</ele>
	<time>2025-08-03T09:53:27.000Z</time>
</trkpt>
<trkpt lat="45.9554550" lon="10.1622890">
	<ele>1433.40</ele>
	<time>2025-08-03T09:53:28.000Z</time>
</trkpt>
<trkpt lat="45.9554560" lon="10.1622680">
	<ele>1433.00</ele>
	<time>2025-08-03T09:53:29.000Z</time>
</trkpt>
<trkpt lat="45.9554620" lon="10.1622580">
	<ele>1432.80</ele>
	<time>2025-08-03T09:53:30.000Z</time>
</trkpt>
<trkpt lat="45.9554740" lon="10.1622550">
	<ele>1432.60</ele>
	<time>2025-08-03T09:53:31.000Z</time>
</trkpt>
<trkpt lat="45.9554910" lon="10.1622580">
	<ele>1432.20</ele>
	<time>2025-08-03T09:53:32.000Z</time>
</trkpt>
<trkpt lat="45.9554970" lon="10.1622560">
	<ele>1432.00</ele>
	<time>2025-08-03T09:53:33.000Z</time>
</trkpt>
<trkpt lat="45.9555160" lon="10.1622530">
	<ele>1431.80</ele>
	<time>2025-08-03T09:53:34.000Z</time>
</trkpt>
<trkpt lat="45.9555340" lon="10.1622480">
	<ele>1431.40</ele>
	<time>2025-08-03T09:53:35.000Z</time>
</trkpt>
<trkpt lat="45.9555410" lon="10.1622440">
	<ele>1431.20</ele>
	<time>2025-08-03T09:53:36.000Z</time>
</trkpt>
<trkpt lat="45.9555700" lon="10.1622430">
	<ele>1430.80</ele>
	<time>2025-08-03T09:53:37.000Z</time>
</trkpt>
<trkpt lat="45.9555910" lon="10.1622440">
	<ele>1430.40</ele>
	<time>2025-08-03T09:53:38.000Z</time>
</trkpt>
<trkpt lat="45.9556030" lon="10.1622450">
	<ele>1430.00</ele>
	<time>2025-08-03T09:53:39.000Z</time>
</trkpt>
<trkpt lat="45.9556120" lon="10.1622110">
	<ele>1429.60</ele>
	<time>2025-08-03T09:53:40.000Z</time>
</trkpt>
<trkpt lat="45.9556230" lon="10.1621920">
	<ele>1429.40</ele>
	<time>2025-08-03T09:53:41.000Z</time>
</trkpt>
<trkpt lat="45.9556320" lon="10.1621890">
	<ele>1429.20</ele>
	<time>2025-08-03T09:53:42.000Z</time>
</trkpt>
<trkpt lat="45.9556420" lon="10.1621820">
	<ele>1429.00</ele>
	<time>2025-08-03T09:53:43.000Z</time>
</trkpt>
<trkpt lat="45.9556590" lon="10.1621850">
	<ele>1428.60</ele>
	<time>2025-08-03T09:53:44.000Z</time>
</trkpt>
<trkpt lat="45.9556710" lon="10.1621850">
	<ele>1428.40</ele>
	<time>2025-08-03T09:53:45.000Z</time>
</trkpt>
<trkpt lat="45.9556830" lon="10.1621740">
	<ele>1428.00</ele>
	<time>2025-08-03T09:53:46.000Z</time>
</trkpt>
<trkpt lat="45.9556920" lon="10.1621630">
	<ele>1427.60</ele>
	<time>2025-08-03T09:53:47.000Z</time>
</trkpt>
<trkpt lat="45.9557040" lon="10.1621500">
	<ele>1427.20</ele>
	<time>2025-08-03T09:53:48.000Z</time>
</trkpt>
<trkpt lat="45.9557030" lon="10.1621330">
	<ele>1427.00</ele>
	<time>2025-08-03T09:53:49.000Z</time>
</trkpt>
<trkpt lat="45.9557010" lon="10.1621090">
	<ele>1426.80</ele>
	<time>2025-08-03T09:53:50.000Z</time>
</trkpt>
<trkpt lat="45.9557100" lon="10.1620900">
	<ele>1426.60</ele>
	<time>2025-08-03T09:53:51.000Z</time>
</trkpt>
<trkpt lat="45.9557230" lon="10.1620750">
	<ele>1426.20</ele>
	<time>2025-08-03T09:53:52.000Z</time>
</trkpt>
<trkpt lat="45.9557330" lon="10.1620570">
	<ele>1425.80</ele>
	<time>2025-08-03T09:53:53.000Z</time>
</trkpt>
<trkpt lat="45.9557380" lon="10.1620400">
	<ele>1425.40</ele>
	<time>2025-08-03T09:53:54.000Z</time>
</trkpt>
<trkpt lat="45.9557460" lon="10.1620250">
	<ele>1425.20</ele>
	<time>2025-08-03T09:53:55.000Z</time>
</trkpt>
<trkpt lat="45.9557580" lon="10.1620150">
	<ele>1425.00</ele>
	<time>2025-08-03T09:53:56.000Z</time>
</trkpt>
<trkpt lat="45.9557770" lon="10.1620060">
	<ele>1424.40</ele>
	<time>2025-08-03T09:53:57.000Z</time>
</trkpt>
<trkpt lat="45.9557850" lon="10.1619940">
	<ele>1424.20</ele>
	<time>2025-08-03T09:53:58.000Z</time>
</trkpt>
<trkpt lat="45.9557900" lon="10.1619800">
	<ele>1424.00</ele>
	<time>2025-08-03T09:53:59.000Z</time>
</trkpt>
<trkpt lat="45.9557970" lon="10.1619720">
	<ele>1423.60</ele>
	<time>2025-08-03T09:54:00.000Z</time>
</trkpt>
<trkpt lat="45.9558120" lon="10.1619600">
	<ele>1423.20</ele>
	<time>2025-08-03T09:54:01.000Z</time>
</trkpt>
<trkpt lat="45.9558300" lon="10.1619570">
	<ele>1423.00</ele>
	<time>2025-08-03T09:54:02.000Z</time>
</trkpt>
<trkpt lat="45.9558390" lon="10.1619430">
	<ele>1422.60</ele>
	<time>2025-08-03T09:54:03.000Z</time>
</trkpt>
<trkpt lat="45.9558530" lon="10.1619360">
	<ele>1422.00</ele>
	<time>2025-08-03T09:54:04.000Z</time>
</trkpt>
<trkpt lat="45.9558550" lon="10.1619140">
	<ele>1421.60</ele>
	<time>2025-08-03T09:54:05.000Z</time>
</trkpt>
<trkpt lat="45.9558600" lon="10.1619010">
	<ele>1421.40</ele>
	<time>2025-08-03T09:54:06.000Z</time>
</trkpt>
<trkpt lat="45.9558660" lon="10.1618860">
	<ele>1421.20</ele>
	<time>2025-08-03T09:54:07.000Z</time>
</trkpt>
<trkpt lat="45.9558710" lon="10.1618690">
	<ele>1420.80</ele>
	<time>2025-08-03T09:54:08.000Z</time>
</trkpt>
<trkpt lat="45.9558780" lon="10.1618590">
	<ele>1420.60</ele>
	<time>2025-08-03T09:54:09.000Z</time>
</trkpt>
<trkpt lat="45.9558850" lon="10.1618480">
	<ele>1420.20</ele>
	<time>2025-08-03T09:54:10.000Z</time>
</trkpt>
<trkpt lat="45.9558960" lon="10.1618320">
	<ele>1419.60</ele>
	<time>2025-08-03T09:54:11.000Z</time>
</trkpt>
<trkpt lat="45.9559120" lon="10.1618230">
	<ele>1419.40</ele>
	<time>2025-08-03T09:54:12.000Z</time>
</trkpt>
<trkpt lat="45.9559270" lon="10.1618140">
	<ele>1419.20</ele>
	<time>2025-08-03T09:54:13.000Z</time>
</trkpt>
<trkpt lat="45.9559410" lon="10.1618080">
	<ele>1418.80</ele>
	<time>2025-08-03T09:54:14.000Z</time>
</trkpt>
<trkpt lat="45.9559550" lon="10.1618000">
	<ele>1418.40</ele>
	<time>2025-08-03T09:54:15.000Z</time>
</trkpt>
<trkpt lat="45.9559620" lon="10.1617960">
	<ele>1418.20</ele>
	<time>2025-08-03T09:54:16.000Z</time>
</trkpt>
<trkpt lat="45.9559710" lon="10.1617890">
	<ele>1418.20</ele>
	<time>2025-08-03T09:54:17.000Z</time>
</trkpt>
<trkpt lat="45.9559840" lon="10.1617840">
	<ele>1417.80</ele>
	<time>2025-08-03T09:54:18.000Z</time>
</trkpt>
<trkpt lat="45.9559930" lon="10.1617770">
	<ele>1417.40</ele>
	<time>2025-08-03T09:54:19.000Z</time>
</trkpt>
<trkpt lat="45.9560020" lon="10.1617680">
	<ele>1417.00</ele>
	<time>2025-08-03T09:54:20.000Z</time>
</trkpt>
<trkpt lat="45.9560100" lon="10.1617630">
	<ele>1416.60</ele>
	<time>2025-08-03T09:54:21.000Z</time>
</trkpt>
<trkpt lat="45.9560230" lon="10.1617610">
	<ele>1416.40</ele>
	<time>2025-08-03T09:54:22.000Z</time>
</trkpt>
<trkpt lat="45.9560410" lon="10.1617610">
	<ele>1416.00</ele>
	<time>2025-08-03T09:54:23.000Z</time>
</trkpt>
<trkpt lat="45.9560570" lon="10.1617620">
	<ele>1415.60</ele>
	<time>2025-08-03T09:54:24.000Z</time>
</trkpt>
<trkpt lat="45.9560650" lon="10.1617520">
	<ele>1415.20</ele>
	<time>2025-08-03T09:54:25.000Z</time>
</trkpt>
<trkpt lat="45.9560650" lon="10.1617360">
	<ele>1415.00</ele>
	<time>2025-08-03T09:54:26.000Z</time>
</trkpt>
<trkpt lat="45.9560680" lon="10.1617320">
	<ele>1414.60</ele>
	<time>2025-08-03T09:54:27.000Z</time>
</trkpt>
<trkpt lat="45.9560720" lon="10.1617300">
	<ele>1414.40</ele>
	<time>2025-08-03T09:54:28.000Z</time>
</trkpt>
<trkpt lat="45.9560760" lon="10.1617250">
	<ele>1414.00</ele>
	<time>2025-08-03T09:54:29.000Z</time>
</trkpt>
<trkpt lat="45.9560850" lon="10.1617220">
	<ele>1413.60</ele>
	<time>2025-08-03T09:54:30.000Z</time>
</trkpt>
<trkpt lat="45.9560950" lon="10.1617160">
	<ele>1413.20</ele>
	<time>2025-08-03T09:54:31.000Z</time>
</trkpt>
<trkpt lat="45.9561020" lon="10.1617060">
	<ele>1412.80</ele>
	<time>2025-08-03T09:54:32.000Z</time>
</trkpt>
<trkpt lat="45.9561130" lon="10.1616980">
	<ele>1412.60</ele>
	<time>2025-08-03T09:54:33.000Z</time>
</trkpt>
<trkpt lat="45.9561270" lon="10.1616980">
	<ele>1412.20</ele>
	<time>2025-08-03T09:54:34.000Z</time>
</trkpt>
<trkpt lat="45.9561410" lon="10.1616990">
	<ele>1411.80</ele>
	<time>2025-08-03T09:54:35.000Z</time>
</trkpt>
<trkpt lat="45.9561560" lon="10.1617000">
	<ele>1411.40</ele>
	<time>2025-08-03T09:54:36.000Z</time>
</trkpt>
<trkpt lat="45.9561700" lon="10.1616980">
	<ele>1411.20</ele>
	<time>2025-08-03T09:54:37.000Z</time>
</trkpt>
<trkpt lat="45.9561840" lon="10.1617020">
	<ele>1411.00</ele>
	<time>2025-08-03T09:54:38.000Z</time>
</trkpt>
<trkpt lat="45.9562020" lon="10.1617050">
	<ele>1410.60</ele>
	<time>2025-08-03T09:54:39.000Z</time>
</trkpt>
<trkpt lat="45.9562130" lon="10.1617070">
	<ele>1410.20</ele>
	<time>2025-08-03T09:54:40.000Z</time>
</trkpt>
<trkpt lat="45.9562250" lon="10.1617020">
	<ele>1409.80</ele>
	<time>2025-08-03T09:54:41.000Z</time>
</trkpt>
<trkpt lat="45.9562390" lon="10.1616950">
	<ele>1409.40</ele>
	<time>2025-08-03T09:54:42.000Z</time>
</trkpt>
<trkpt lat="45.9562500" lon="10.1616830">
	<ele>1409.00</ele>
	<time>2025-08-03T09:54:43.000Z</time>
</trkpt>
<trkpt lat="45.9562640" lon="10.1616720">
	<ele>1408.60</ele>
	<time>2025-08-03T09:54:44.000Z</time>
</trkpt>
<trkpt lat="45.9562860" lon="10.1616660">
	<ele>1408.40</ele>
	<time>2025-08-03T09:54:45.000Z</time>
</trkpt>
<trkpt lat="45.9563130" lon="10.1616560">
	<ele>1408.20</ele>
	<time>2025-08-03T09:54:46.000Z</time>
</trkpt>
<trkpt lat="45.9563290" lon="10.1616350">
	<ele>1408.00</ele>
	<time>2025-08-03T09:54:47.000Z</time>
</trkpt>
<trkpt lat="45.9563510" lon="10.1616270">
	<ele>1407.60</ele>
	<time>2025-08-03T09:54:48.000Z</time>
</trkpt>
<trkpt lat="45.9563670" lon="10.1616110">
	<ele>1407.20</ele>
	<time>2025-08-03T09:54:49.000Z</time>
</trkpt>
<trkpt lat="45.9563850" lon="10.1616010">
	<ele>1406.80</ele>
	<time>2025-08-03T09:54:50.000Z</time>
</trkpt>
<trkpt lat="45.9563950" lon="10.1615820">
	<ele>1406.60</ele>
	<time>2025-08-03T09:54:51.000Z</time>
</trkpt>
<trkpt lat="45.9564060" lon="10.1615710">
	<ele>1406.20</ele>
	<time>2025-08-03T09:54:52.000Z</time>
</trkpt>
<trkpt lat="45.9564190" lon="10.1615590">
	<ele>1406.00</ele>
	<time>2025-08-03T09:54:53.000Z</time>
</trkpt>
<trkpt lat="45.9564360" lon="10.1615500">
	<ele>1405.80</ele>
	<time>2025-08-03T09:54:54.000Z</time>
</trkpt>
<trkpt lat="45.9564500" lon="10.1615390">
	<ele>1405.60</ele>
	<time>2025-08-03T09:54:55.000Z</time>
</trkpt>
<trkpt lat="45.9564600" lon="10.1615280">
	<ele>1405.60</ele>
	<time>2025-08-03T09:54:56.000Z</time>
</trkpt>
<trkpt lat="45.9564760" lon="10.1615230">
	<ele>1405.40</ele>
	<time>2025-08-03T09:54:57.000Z</time>
</trkpt>
<trkpt lat="45.9564980" lon="10.1615200">
	<ele>1405.20</ele>
	<time>2025-08-03T09:54:58.000Z</time>
</trkpt>
<trkpt lat="45.9565150" lon="10.1615130">
	<ele>1405.20</ele>
	<time>2025-08-03T09:54:59.000Z</time>
</trkpt>
<trkpt lat="45.9565250" lon="10.1615030">
	<ele>1405.00</ele>
	<time>2025-08-03T09:55:00.000Z</time>
</trkpt>
<trkpt lat="45.9565370" lon="10.1614920">
	<ele>1405.00</ele>
	<time>2025-08-03T09:55:01.000Z</time>
</trkpt>
<trkpt lat="45.9565520" lon="10.1614790">
	<ele>1405.00</ele>
	<time>2025-08-03T09:55:02.000Z</time>
</trkpt>
<trkpt lat="45.9565730" lon="10.1614740">
	<ele>1404.80</ele>
	<time>2025-08-03T09:55:03.000Z</time>
</trkpt>
<trkpt lat="45.9565930" lon="10.1614710">
	<ele>1404.60</ele>
	<time>2025-08-03T09:55:04.000Z</time>
</trkpt>
<trkpt lat="45.9566100" lon="10.1614690">
	<ele>1404.60</ele>
	<time>2025-08-03T09:55:05.000Z</time>
</trkpt>
<trkpt lat="45.9566160" lon="10.1614530">
	<ele>1404.60</ele>
	<time>2025-08-03T09:55:06.000Z</time>
</trkpt>
<trkpt lat="45.9566300" lon="10.1614510">
	<ele>1404.60</ele>
	<time>2025-08-03T09:55:07.000Z</time>
</trkpt>
<trkpt lat="45.9566450" lon="10.1614480">
	<ele>1404.60</ele>
	<time>2025-08-03T09:55:08.000Z</time>
</trkpt>
<trkpt lat="45.9566680" lon="10.1614450">
	<ele>1404.60</ele>
	<time>2025-08-03T09:55:09.000Z</time>
</trkpt>
<trkpt lat="45.9566910" lon="10.1614450">
	<ele>1404.40</ele>
	<time>2025-08-03T09:55:10.000Z</time>
</trkpt>
<trkpt lat="45.9567080" lon="10.1614420">
	<ele>1404.40</ele>
	<time>2025-08-03T09:55:11.000Z</time>
</trkpt>
<trkpt lat="45.9567210" lon="10.1614340">
	<ele>1404.40</ele>
	<time>2025-08-03T09:55:12.000Z</time>
</trkpt>
<trkpt lat="45.9567360" lon="10.1614280">
	<ele>1404.40</ele>
	<time>2025-08-03T09:55:13.000Z</time>
</trkpt>
<trkpt lat="45.9567530" lon="10.1614230">
	<ele>1404.40</ele>
	<time>2025-08-03T09:55:14.000Z</time>
</trkpt>
<trkpt lat="45.9567710" lon="10.1614220">
	<ele>1404.20</ele>
	<time>2025-08-03T09:55:15.000Z</time>
</trkpt>
<trkpt lat="45.9567860" lon="10.1614220">
	<ele>1404.20</ele>
	<time>2025-08-03T09:55:16.000Z</time>
</trkpt>
<trkpt lat="45.9568000" lon="10.1614190">
	<ele>1404.00</ele>
	<time>2025-08-03T09:55:17.000Z</time>
</trkpt>
<trkpt lat="45.9568130" lon="10.1614170">
	<ele>1404.00</ele>
	<time>2025-08-03T09:55:18.000Z</time>
</trkpt>
<trkpt lat="45.9568250" lon="10.1614140">
	<ele>1403.80</ele>
	<time>2025-08-03T09:55:19.000Z</time>
</trkpt>
<trkpt lat="45.9568390" lon="10.1614110">
	<ele>1403.80</ele>
	<time>2025-08-03T09:55:20.000Z</time>
</trkpt>
<trkpt lat="45.9568580" lon="10.1614120">
	<ele>1403.80</ele>
	<time>2025-08-03T09:55:21.000Z</time>
</trkpt>
<trkpt lat="45.9568730" lon="10.1614070">
	<ele>1403.80</ele>
	<time>2025-08-03T09:55:22.000Z</time>
</trkpt>
<trkpt lat="45.9568880" lon="10.1614110">
	<ele>1403.60</ele>
	<time>2025-08-03T09:55:23.000Z</time>
</trkpt>
<trkpt lat="45.9569030" lon="10.1614130">
	<ele>1403.60</ele>
	<time>2025-08-03T09:55:24.000Z</time>
</trkpt>
<trkpt lat="45.9569170" lon="10.1614160">
	<ele>1403.60</ele>
	<time>2025-08-03T09:55:25.000Z</time>
</trkpt>
<trkpt lat="45.9569300" lon="10.1614210">
	<ele>1403.60</ele>
	<time>2025-08-03T09:55:26.000Z</time>
</trkpt>
<trkpt lat="45.9569450" lon="10.1614290">
	<ele>1403.60</ele>
	<time>2025-08-03T09:55:27.000Z</time>
</trkpt>
<trkpt lat="45.9569610" lon="10.1614310">
	<ele>1403.60</ele>
	<time>2025-08-03T09:55:28.000Z</time>
</trkpt>
<trkpt lat="45.9569710" lon="10.1614280">
	<ele>1403.40</ele>
	<time>2025-08-03T09:55:29.000Z</time>
</trkpt>
<trkpt lat="45.9569730" lon="10.1614140">
	<ele>1403.40</ele>
	<time>2025-08-03T09:55:30.000Z</time>
</trkpt>
<trkpt lat="45.9569780" lon="10.1614060">
	<ele>1403.20</ele>
	<time>2025-08-03T09:55:31.000Z</time>
</trkpt>
<trkpt lat="45.9569890" lon="10.1613990">
	<ele>1403.20</ele>
	<time>2025-08-03T09:55:32.000Z</time>
</trkpt>
<trkpt lat="45.9570000" lon="10.1613920">
	<ele>1403.00</ele>
	<time>2025-08-03T09:55:33.000Z</time>
</trkpt>
<trkpt lat="45.9570130" lon="10.1613890">
	<ele>1402.80</ele>
	<time>2025-08-03T09:55:34.000Z</time>
</trkpt>
<trkpt lat="45.9570270" lon="10.1613880">
	<ele>1402.60</ele>
	<time>2025-08-03T09:55:35.000Z</time>
</trkpt>
<trkpt lat="45.9570430" lon="10.1613910">
	<ele>1402.40</ele>
	<time>2025-08-03T09:55:36.000Z</time>
</trkpt>
<trkpt lat="45.9570560" lon="10.1613960">
	<ele>1402.40</ele>
	<time>2025-08-03T09:55:37.000Z</time>
</trkpt>
<trkpt lat="45.9570740" lon="10.1614020">
	<ele>1402.20</ele>
	<time>2025-08-03T09:55:38.000Z</time>
</trkpt>
<trkpt lat="45.9570900" lon="10.1614020">
	<ele>1402.00</ele>
	<time>2025-08-03T09:55:39.000Z</time>
</trkpt>
<trkpt lat="45.9571080" lon="10.1614010">
	<ele>1401.80</ele>
	<time>2025-08-03T09:55:40.000Z</time>
</trkpt>
<trkpt lat="45.9571270" lon="10.1613980">
	<ele>1401.60</ele>
	<time>2025-08-03T09:55:41.000Z</time>
</trkpt>
<trkpt lat="45.9571440" lon="10.1613920">
	<ele>1401.40</ele>
	<time>2025-08-03T09:55:42.000Z</time>
</trkpt>
<trkpt lat="45.9571600" lon="10.1613850">
	<ele>1401.20</ele>
	<time>2025-08-03T09:55:43.000Z</time>
</trkpt>
<trkpt lat="45.9571720" lon="10.1613710">
	<ele>1401.00</ele>
	<time>2025-08-03T09:55:44.000Z</time>
</trkpt>
<trkpt lat="45.9571780" lon="10.1613450">
	<ele>1401.00</ele>
	<time>2025-08-03T09:55:45.000Z</time>
</trkpt>
<trkpt lat="45.9571840" lon="10.1613170">
	<ele>1400.60</ele>
	<time>2025-08-03T09:55:46.000Z</time>
</trkpt>
<trkpt lat="45.9571930" lon="10.1612960">
	<ele>1400.20</ele>
	<time>2025-08-03T09:55:47.000Z</time>
</trkpt>
<trkpt lat="45.9571940" lon="10.1612700">
	<ele>1400.20</ele>
	<time>2025-08-03T09:55:48.000Z</time>
</trkpt>
<trkpt lat="45.9571930" lon="10.1612450">
	<ele>1400.00</ele>
	<time>2025-08-03T09:55:49.000Z</time>
</trkpt>
<trkpt lat="45.9572000" lon="10.1612280">
	<ele>1400.00</ele>
	<time>2025-08-03T09:55:50.000Z</time>
</trkpt>
<trkpt lat="45.9572100" lon="10.1612140">
	<ele>1399.60</ele>
	<time>2025-08-03T09:55:51.000Z</time>
</trkpt>
<trkpt lat="45.9572180" lon="10.1612030">
	<ele>1399.60</ele>
	<time>2025-08-03T09:55:52.000Z</time>
</trkpt>
<trkpt lat="45.9572270" lon="10.1611870">
	<ele>1399.40</ele>
	<time>2025-08-03T09:55:53.000Z</time>
</trkpt>
<trkpt lat="45.9572400" lon="10.1611760">
	<ele>1399.40</ele>
	<time>2025-08-03T09:55:54.000Z</time>
</trkpt>
<trkpt lat="45.9572510" lon="10.1611590">
	<ele>1399.20</ele>
	<time>2025-08-03T09:55:55.000Z</time>
</trkpt>
<trkpt lat="45.9572620" lon="10.1611420">
	<ele>1399.20</ele>
	<time>2025-08-03T09:55:56.000Z</time>
</trkpt>
<trkpt lat="45.9572730" lon="10.1611280">
	<ele>1399.20</ele>
	<time>2025-08-03T09:55:57.000Z</time>
</trkpt>
<trkpt lat="45.9572810" lon="10.1611100">
	<ele>1399.00</ele>
	<time>2025-08-03T09:55:58.000Z</time>
</trkpt>
<trkpt lat="45.9572880" lon="10.1610960">
	<ele>1398.80</ele>
	<time>2025-08-03T09:55:59.000Z</time>
</trkpt>
<trkpt lat="45.9572940" lon="10.1610890">
	<ele>1398.60</ele>
	<time>2025-08-03T09:56:00.000Z</time>
</trkpt>
<trkpt lat="45.9572950" lon="10.1610830">
	<ele>1398.60</ele>
	<time>2025-08-03T09:56:01.000Z</time>
</trkpt>
<trkpt lat="45.9572960" lon="10.1610790">
	<ele>1398.60</ele>
	<time>2025-08-03T09:56:02.000Z</time>
</trkpt>
<trkpt lat="45.9573000" lon="10.1610810">
	<ele>1398.60</ele>
	<time>2025-08-03T09:56:03.000Z</time>
</trkpt>
<trkpt lat="45.9573000" lon="10.1610780">
	<ele>1398.40</ele>
	<time>2025-08-03T09:56:04.000Z</time>
</trkpt>
<trkpt lat="45.9572960" lon="10.1610760">
	<ele>1398.60</ele>
	<time>2025-08-03T09:56:05.000Z</time>
</trkpt>
<trkpt lat="45.9572950" lon="10.1610740">
	<ele>1398.60</ele>
	<time>2025-08-03T09:56:06.000Z</time>
</trkpt>
<trkpt lat="45.9572930" lon="10.1610720">
	<ele>1398.60</ele>
	<time>2025-08-03T09:56:07.000Z</time>
</trkpt>
<trkpt lat="45.9572930" lon="10.1610720">
	<ele>1398.60</ele>
	<time>2025-08-03T09:56:08.000Z</time>
</trkpt>
<trkpt lat="45.9572940" lon="10.1610730">
	<ele>1398.80</ele>
	<time>2025-08-03T09:56:09.000Z</time>
</trkpt>
<trkpt lat="45.9572970" lon="10.1610720">
	<ele>1398.80</ele>
	<time>2025-08-03T09:56:10.000Z</time>
</trkpt>
<trkpt lat="45.9572990" lon="10.1610630">
	<ele>1399.00</ele>
	<time>2025-08-03T09:56:11.000Z</time>
</trkpt>
<trkpt lat="45.9573070" lon="10.1610600">
	<ele>1399.00</ele>
	<time>2025-08-03T09:56:12.000Z</time>
</trkpt>
<trkpt lat="45.9573100" lon="10.1610460">
	<ele>1398.80</ele>
	<time>2025-08-03T09:56:13.000Z</time>
</trkpt>
<trkpt lat="45.9573020" lon="10.1610140">
	<ele>1398.60</ele>
	<time>2025-08-03T09:56:14.000Z</time>
</trkpt>
<trkpt lat="45.9573000" lon="10.1609940">
	<ele>1398.40</ele>
	<time>2025-08-03T09:56:15.000Z</time>
</trkpt>
<trkpt lat="45.9573030" lon="10.1609770">
	<ele>1398.20</ele>
	<time>2025-08-03T09:56:16.000Z</time>
</trkpt>
<trkpt lat="45.9573060" lon="10.1609560">
	<ele>1398.20</ele>
	<time>2025-08-03T09:56:17.000Z</time>
</trkpt>
<trkpt lat="45.9573100" lon="10.1609350">
	<ele>1398.00</ele>
	<time>2025-08-03T09:56:18.000Z</time>
</trkpt>
<trkpt lat="45.9573140" lon="10.1609120">
	<ele>1397.80</ele>
	<time>2025-08-03T09:56:19.000Z</time>
</trkpt>
<trkpt lat="45.9573230" lon="10.1608980">
	<ele>1397.80</ele>
	<time>2025-08-03T09:56:20.000Z</time>
</trkpt>
<trkpt lat="45.9573320" lon="10.1608820">
	<ele>1397.60</ele>
	<time>2025-08-03T09:56:21.000Z</time>
</trkpt>
<trkpt lat="45.9573400" lon="10.1608610">
	<ele>1397.40</ele>
	<time>2025-08-03T09:56:22.000Z</time>
</trkpt>
<trkpt lat="45.9573480" lon="10.1608430">
	<ele>1397.40</ele>
	<time>2025-08-03T09:56:23.000Z</time>
</trkpt>
<trkpt lat="45.9573550" lon="10.1608270">
	<ele>1397.40</ele>
	<time>2025-08-03T09:56:24.000Z</time>
</trkpt>
<trkpt lat="45.9573640" lon="10.1608130">
	<ele>1397.40</ele>
	<time>2025-08-03T09:56:25.000Z</time>
</trkpt>
<trkpt lat="45.9573770" lon="10.1608060">
	<ele>1397.20</ele>
	<time>2025-08-03T09:56:26.000Z</time>
</trkpt>
<trkpt lat="45.9573810" lon="10.1607880">
	<ele>1397.20</ele>
	<time>2025-08-03T09:56:27.000Z</time>
</trkpt>
<trkpt lat="45.9573860" lon="10.1607650">
	<ele>1397.00</ele>
	<time>2025-08-03T09:56:28.000Z</time>
</trkpt>
<trkpt lat="45.9573900" lon="10.1607330">
	<ele>1397.00</ele>
	<time>2025-08-03T09:56:29.000Z</time>
</trkpt>
<trkpt lat="45.9573890" lon="10.1607060">
	<ele>1397.00</ele>
	<time>2025-08-03T09:56:30.000Z</time>
</trkpt>
<trkpt lat="45.9573870" lon="10.1606780">
	<ele>1396.80</ele>
	<time>2025-08-03T09:56:31.000Z</time>
</trkpt>
<trkpt lat="45.9573880" lon="10.1606580">
	<ele>1396.80</ele>
	<time>2025-08-03T09:56:32.000Z</time>
</trkpt>
<trkpt lat="45.9573910" lon="10.1606360">
	<ele>1396.60</ele>
	<time>2025-08-03T09:56:33.000Z</time>
</trkpt>
<trkpt lat="45.9573980" lon="10.1606170">
	<ele>1396.40</ele>
	<time>2025-08-03T09:56:34.000Z</time>
</trkpt>
<trkpt lat="45.9573990" lon="10.1605970">
	<ele>1396.20</ele>
	<time>2025-08-03T09:56:35.000Z</time>
</trkpt>
<trkpt lat="45.9574040" lon="10.1605780">
	<ele>1396.20</ele>
	<time>2025-08-03T09:56:36.000Z</time>
</trkpt>
<trkpt lat="45.9574080" lon="10.1605510">
	<ele>1396.00</ele>
	<time>2025-08-03T09:56:37.000Z</time>
</trkpt>
<trkpt lat="45.9574140" lon="10.1605290">
	<ele>1396.00</ele>
	<time>2025-08-03T09:56:38.000Z</time>
</trkpt>
<trkpt lat="45.9574170" lon="10.1605030">
	<ele>1395.80</ele>
	<time>2025-08-03T09:56:39.000Z</time>
</trkpt>
<trkpt lat="45.9574270" lon="10.1604960">
	<ele>1395.40</ele>
	<time>2025-08-03T09:56:40.000Z</time>
</trkpt>
<trkpt lat="45.9574300" lon="10.1604780">
	<ele>1395.20</ele>
	<time>2025-08-03T09:56:41.000Z</time>
</trkpt>
<trkpt lat="45.9574270" lon="10.1604480">
	<ele>1395.20</ele>
	<time>2025-08-03T09:56:42.000Z</time>
</trkpt>
<trkpt lat="45.9574380" lon="10.1604360">
	<ele>1395.00</ele>
	<time>2025-08-03T09:56:43.000Z</time>
</trkpt>
<trkpt lat="45.9574430" lon="10.1604330">
	<ele>1394.80</ele>
	<time>2025-08-03T09:56:44.000Z</time>
</trkpt>
<trkpt lat="45.9574410" lon="10.1604180">
	<ele>1394.80</ele>
	<time>2025-08-03T09:56:45.000Z</time>
</trkpt>
<trkpt lat="45.9574380" lon="10.1604000">
	<ele>1394.60</ele>
	<time>2025-08-03T09:56:46.000Z</time>
</trkpt>
<trkpt lat="45.9574320" lon="10.1603710">
	<ele>1394.60</ele>
	<time>2025-08-03T09:56:47.000Z</time>
</trkpt>
<trkpt lat="45.9574280" lon="10.1603380">
	<ele>1394.60</ele>
	<time>2025-08-03T09:56:48.000Z</time>
</trkpt>
<trkpt lat="45.9574300" lon="10.1603160">
	<ele>1394.40</ele>
	<time>2025-08-03T09:56:49.000Z</time>
</trkpt>
<trkpt lat="45.9574190" lon="10.1602850">
	<ele>1394.40</ele>
	<time>2025-08-03T09:56:50.000Z</time>
</trkpt>
<trkpt lat="45.9574160" lon="10.1602560">
	<ele>1394.20</ele>
	<time>2025-08-03T09:56:51.000Z</time>
</trkpt>
<trkpt lat="45.9574200" lon="10.1602320">
	<ele>1394.00</ele>
	<time>2025-08-03T09:56:52.000Z</time>
</trkpt>
<trkpt lat="45.9574160" lon="10.1602110">
	<ele>1393.80</ele>
	<time>2025-08-03T09:56:53.000Z</time>
</trkpt>
<trkpt lat="45.9574170" lon="10.1601880">
	<ele>1393.60</ele>
	<time>2025-08-03T09:56:54.000Z</time>
</trkpt>
<trkpt lat="45.9574240" lon="10.1601740">
	<ele>1393.40</ele>
	<time>2025-08-03T09:56:55.000Z</time>
</trkpt>
<trkpt lat="45.9574310" lon="10.1601590">
	<ele>1393.00</ele>
	<time>2025-08-03T09:56:56.000Z</time>
</trkpt>
<trkpt lat="45.9574340" lon="10.1601440">
	<ele>1392.80</ele>
	<time>2025-08-03T09:56:57.000Z</time>
</trkpt>
<trkpt lat="45.9574380" lon="10.1601260">
	<ele>1392.60</ele>
	<time>2025-08-03T09:56:58.000Z</time>
</trkpt>
<trkpt lat="45.9574410" lon="10.1601100">
	<ele>1392.40</ele>
	<time>2025-08-03T09:56:59.000Z</time>
</trkpt>
<trkpt lat="45.9574430" lon="10.1600980">
	<ele>1392.20</ele>
	<time>2025-08-03T09:57:00.000Z</time>
</trkpt>
<trkpt lat="45.9574440" lon="10.1600900">
	<ele>1392.20</ele>
	<time>2025-08-03T09:57:01.000Z</time>
</trkpt>
<trkpt lat="45.9574510" lon="10.1600930">
	<ele>1392.00</ele>
	<time>2025-08-03T09:57:02.000Z</time>
</trkpt>
<trkpt lat="45.9574640" lon="10.1601010">
	<ele>1392.00</ele>
	<time>2025-08-03T09:57:03.000Z</time>
</trkpt>
<trkpt lat="45.9574800" lon="10.1601060">
	<ele>1392.00</ele>
	<time>2025-08-03T09:57:04.000Z</time>
</trkpt>
<trkpt lat="45.9574880" lon="10.1601100">
	<ele>1392.00</ele>
	<time>2025-08-03T09:57:05.000Z</time>
</trkpt>
<trkpt lat="45.9574950" lon="10.1601060">
	<ele>1392.00</ele>
	<time>2025-08-03T09:57:06.000Z</time>
</trkpt>
<trkpt lat="45.9574980" lon="10.1601100">
	<ele>1392.00</ele>
	<time>2025-08-03T09:57:07.000Z</time>
</trkpt>
<trkpt lat="45.9575000" lon="10.1601130">
	<ele>1392.00</ele>
	<time>2025-08-03T09:57:08.000Z</time>
</trkpt>
<trkpt lat="45.9575000" lon="10.1601170">
	<ele>1392.00</ele>
	<time>2025-08-03T09:57:09.000Z</time>
</trkpt>
<trkpt lat="45.9575000" lon="10.1601190">
	<ele>1392.00</ele>
	<time>2025-08-03T09:57:10.000Z</time>
</trkpt>
<trkpt lat="45.9575000" lon="10.1601210">
	<ele>1392.00</ele>
	<time>2025-08-03T09:57:11.000Z</time>
</trkpt>
<trkpt lat="45.9575000" lon="10.1601220">
	<ele>1392.00</ele>
	<time>2025-08-03T09:57:12.000Z</time>
</trkpt>
<trkpt lat="45.9575000" lon="10.1601230">
	<ele>1392.00</ele>
	<time>2025-08-03T09:57:13.000Z</time>
</trkpt>
<trkpt lat="45.9575000" lon="10.1601230">
	<ele>1392.00</ele>
	<time>2025-08-03T09:57:14.000Z</time>
</trkpt>
<trkpt lat="45.9574990" lon="10.1601130">
	<ele>1392.00</ele>
	<time>2025-08-03T09:57:15.000Z</time>
</trkpt>
<trkpt lat="45.9574960" lon="10.1601020">
	<ele>1392.00</ele>
	<time>2025-08-03T09:57:16.000Z</time>
</trkpt>
<trkpt lat="45.9574940" lon="10.1600880">
	<ele>1392.00</ele>
	<time>2025-08-03T09:57:17.000Z</time>
</trkpt>
<trkpt lat="45.9574940" lon="10.1600680">
	<ele>1392.00</ele>
	<time>2025-08-03T09:57:18.000Z</time>
</trkpt>
<trkpt lat="45.9574950" lon="10.1600480">
	<ele>1391.80</ele>
	<time>2025-08-03T09:57:19.000Z</time>
</trkpt>
<trkpt lat="45.9575170" lon="10.1600420">
	<ele>1391.60</ele>
	<time>2025-08-03T09:57:20.000Z</time>
</trkpt>
<trkpt lat="45.9575260" lon="10.1600330">
	<ele>1391.60</ele>
	<time>2025-08-03T09:57:21.000Z</time>
</trkpt>
<trkpt lat="45.9575300" lon="10.1600130">
	<ele>1391.40</ele>
	<time>2025-08-03T09:57:22.000Z</time>
</trkpt>
<trkpt lat="45.9575300" lon="10.1599900">
	<ele>1391.40</ele>
	<time>2025-08-03T09:57:23.000Z</time>
</trkpt>
<trkpt lat="45.9575290" lon="10.1599640">
	<ele>1391.40</ele>
	<time>2025-08-03T09:57:24.000Z</time>
</trkpt>
<trkpt lat="45.9575290" lon="10.1599390">
	<ele>1391.20</ele>
	<time>2025-08-03T09:57:25.000Z</time>
</trkpt>
<trkpt lat="45.9575280" lon="10.1599120">
	<ele>1391.20</ele>
	<time>2025-08-03T09:57:26.000Z</time>
</trkpt>
<trkpt lat="45.9575290" lon="10.1598910">
	<ele>1391.00</ele>
	<time>2025-08-03T09:57:27.000Z</time>
</trkpt>
<trkpt lat="45.9575250" lon="10.1598680">
	<ele>1390.80</ele>
	<time>2025-08-03T09:57:28.000Z</time>
</trkpt>
<trkpt lat="45.9575240" lon="10.1598420">
	<ele>1390.80</ele>
	<time>2025-08-03T09:57:29.000Z</time>
</trkpt>
<trkpt lat="45.9575210" lon="10.1598130">
	<ele>1390.60</ele>
	<time>2025-08-03T09:57:30.000Z</time>
</trkpt>
<trkpt lat="45.9575180" lon="10.1597820">
	<ele>1390.40</ele>
	<time>2025-08-03T09:57:31.000Z</time>
</trkpt>
<trkpt lat="45.9575170" lon="10.1597500">
	<ele>1390.40</ele>
	<time>2025-08-03T09:57:32.000Z</time>
</trkpt>
<trkpt lat="45.9575150" lon="10.1597240">
	<ele>1390.20</ele>
	<time>2025-08-03T09:57:33.000Z</time>
</trkpt>
<trkpt lat="45.9575120" lon="10.1596970">
	<ele>1390.20</ele>
	<time>2025-08-03T09:57:34.000Z</time>
</trkpt>
<trkpt lat="45.9575100" lon="10.1596750">
	<ele>1390.20</ele>
	<time>2025-08-03T09:57:35.000Z</time>
</trkpt>
<trkpt lat="45.9575060" lon="10.1596490">
	<ele>1390.00</ele>
	<time>2025-08-03T09:57:36.000Z</time>
</trkpt>
<trkpt lat="45.9575020" lon="10.1596290">
	<ele>1389.80</ele>
	<time>2025-08-03T09:57:37.000Z</time>
</trkpt>
<trkpt lat="45.9574980" lon="10.1596140">
	<ele>1389.80</ele>
	<time>2025-08-03T09:57:38.000Z</time>
</trkpt>
<trkpt lat="45.9574940" lon="10.1595940">
	<ele>1389.80</ele>
	<time>2025-08-03T09:57:39.000Z</time>
</trkpt>
<trkpt lat="45.9574940" lon="10.1595660">
	<ele>1389.60</ele>
	<time>2025-08-03T09:57:40.000Z</time>
</trkpt>
<trkpt lat="45.9574920" lon="10.1595420">
	<ele>1389.60</ele>
	<time>2025-08-03T09:57:41.000Z</time>
</trkpt>
<trkpt lat="45.9574990" lon="10.1595240">
	<ele>1389.40</ele>
	<time>2025-08-03T09:57:42.000Z</time>
</trkpt>
<trkpt lat="45.9574930" lon="10.1595000">
	<ele>1389.20</ele>
	<time>2025-08-03T09:57:43.000Z</time>
</trkpt>
<trkpt lat="45.9574830" lon="10.1594840">
	<ele>1389.00</ele>
	<time>2025-08-03T09:57:44.000Z</time>
</trkpt>
<trkpt lat="45.9574780" lon="10.1594640">
	<ele>1389.00</ele>
	<time>2025-08-03T09:57:45.000Z</time>
</trkpt>
<trkpt lat="45.9574650" lon="10.1594430">
	<ele>1388.80</ele>
	<time>2025-08-03T09:57:46.000Z</time>
</trkpt>
<trkpt lat="45.9574540" lon="10.1594180">
	<ele>1388.60</ele>
	<time>2025-08-03T09:57:47.000Z</time>
</trkpt>
<trkpt lat="45.9574360" lon="10.1594010">
	<ele>1388.40</ele>
	<time>2025-08-03T09:57:48.000Z</time>
</trkpt>
<trkpt lat="45.9574240" lon="10.1593830">
	<ele>1388.20</ele>
	<time>2025-08-03T09:57:49.000Z</time>
</trkpt>
<trkpt lat="45.9574140" lon="10.1593590">
	<ele>1388.20</ele>
	<time>2025-08-03T09:57:50.000Z</time>
</trkpt>
<trkpt lat="45.9574030" lon="10.1593410">
	<ele>1388.20</ele>
	<time>2025-08-03T09:57:51.000Z</time>
</trkpt>
<trkpt lat="45.9573910" lon="10.1593270">
	<ele>1388.00</ele>
	<time>2025-08-03T09:57:52.000Z</time>
</trkpt>
<trkpt lat="45.9573800" lon="10.1593170">
	<ele>1388.00</ele>
	<time>2025-08-03T09:57:53.000Z</time>
</trkpt>
<trkpt lat="45.9573680" lon="10.1592990">
	<ele>1388.00</ele>
	<time>2025-08-03T09:57:54.000Z</time>
</trkpt>
<trkpt lat="45.9573590" lon="10.1592770">
	<ele>1388.00</ele>
	<time>2025-08-03T09:57:55.000Z</time>
</trkpt>
<trkpt lat="45.9573500" lon="10.1592600">
	<ele>1388.00</ele>
	<time>2025-08-03T09:57:56.000Z</time>
</trkpt>
<trkpt lat="45.9573430" lon="10.1592460">
	<ele>1388.00</ele>
	<time>2025-08-03T09:57:57.000Z</time>
</trkpt>
<trkpt lat="45.9573360" lon="10.1592260">
	<ele>1388.00</ele>
	<time>2025-08-03T09:57:58.000Z</time>
</trkpt>
<trkpt lat="45.9573310" lon="10.1592060">
	<ele>1387.80</ele>
	<time>2025-08-03T09:57:59.000Z</time>
</trkpt>
<trkpt lat="45.9573190" lon="10.1591840">
	<ele>1387.60</ele>
	<time>2025-08-03T09:58:00.000Z</time>
</trkpt>
<trkpt lat="45.9573090" lon="10.1591600">
	<ele>1387.60</ele>
	<time>2025-08-03T09:58:01.000Z</time>
</trkpt>
<trkpt lat="45.9572960" lon="10.1591410">
	<ele>1387.40</ele>
	<time>2025-08-03T09:58:02.000Z</time>
</trkpt>
<trkpt lat="45.9572840" lon="10.1591230">
	<ele>1387.40</ele>
	<time>2025-08-03T09:58:03.000Z</time>
</trkpt>
<trkpt lat="45.9572820" lon="10.1591000">
	<ele>1387.40</ele>
	<time>2025-08-03T09:58:04.000Z</time>
</trkpt>
<trkpt lat="45.9572800" lon="10.1590720">
	<ele>1387.40</ele>
	<time>2025-08-03T09:58:05.000Z</time>
</trkpt>
<trkpt lat="45.9572740" lon="10.1590530">
	<ele>1387.20</ele>
	<time>2025-08-03T09:58:06.000Z</time>
</trkpt>
<trkpt lat="45.9572680" lon="10.1590290">
	<ele>1387.20</ele>
	<time>2025-08-03T09:58:07.000Z</time>
</trkpt>
<trkpt lat="45.9572620" lon="10.1590120">
	<ele>1387.20</ele>
	<time>2025-08-03T09:58:08.000Z</time>
</trkpt>
<trkpt lat="45.9572520" lon="10.1589860">
	<ele>1387.20</ele>
	<time>2025-08-03T09:58:09.000Z</time>
</trkpt>
<trkpt lat="45.9572450" lon="10.1589660">
	<ele>1387.00</ele>
	<time>2025-08-03T09:58:10.000Z</time>
</trkpt>
<trkpt lat="45.9572290" lon="10.1589340">
	<ele>1387.00</ele>
	<time>2025-08-03T09:58:11.000Z</time>
</trkpt>
<trkpt lat="45.9572240" lon="10.1589240">
	<ele>1386.80</ele>
	<time>2025-08-03T09:58:12.000Z</time>
</trkpt>
<trkpt lat="45.9572220" lon="10.1589100">
	<ele>1386.80</ele>
	<time>2025-08-03T09:58:13.000Z</time>
</trkpt>
<trkpt lat="45.9572160" lon="10.1588970">
	<ele>1386.80</ele>
	<time>2025-08-03T09:58:14.000Z</time>
</trkpt>
<trkpt lat="45.9572120" lon="10.1588880">
	<ele>1386.60</ele>
	<time>2025-08-03T09:58:15.000Z</time>
</trkpt>
<trkpt lat="45.9572070" lon="10.1588760">
	<ele>1386.60</ele>
	<time>2025-08-03T09:58:16.000Z</time>
</trkpt>
<trkpt lat="45.9571990" lon="10.1588650">
	<ele>1386.80</ele>
	<time>2025-08-03T09:58:17.000Z</time>
</trkpt>
<trkpt lat="45.9571910" lon="10.1588610">
	<ele>1386.80</ele>
	<time>2025-08-03T09:58:18.000Z</time>
</trkpt>
<trkpt lat="45.9571860" lon="10.1588570">
	<ele>1386.60</ele>
	<time>2025-08-03T09:58:19.000Z</time>
</trkpt>
<trkpt lat="45.9571820" lon="10.1588460">
	<ele>1386.80</ele>
	<time>2025-08-03T09:58:20.000Z</time>
</trkpt>
<trkpt lat="45.9571700" lon="10.1588330">
	<ele>1386.80</ele>
	<time>2025-08-03T09:58:21.000Z</time>
</trkpt>
<trkpt lat="45.9571610" lon="10.1588160">
	<ele>1386.60</ele>
	<time>2025-08-03T09:58:22.000Z</time>
</trkpt>
<trkpt lat="45.9571490" lon="10.1587950">
	<ele>1386.60</ele>
	<time>2025-08-03T09:58:23.000Z</time>
</trkpt>
<trkpt lat="45.9571340" lon="10.1587720">
	<ele>1386.60</ele>
	<time>2025-08-03T09:58:24.000Z</time>
</trkpt>
<trkpt lat="45.9571190" lon="10.1587570">
	<ele>1386.60</ele>
	<time>2025-08-03T09:58:25.000Z</time>
</trkpt>
<trkpt lat="45.9571050" lon="10.1587370">
	<ele>1386.40</ele>
	<time>2025-08-03T09:58:26.000Z</time>
</trkpt>
<trkpt lat="45.9570960" lon="10.1587200">
	<ele>1386.40</ele>
	<time>2025-08-03T09:58:27.000Z</time>
</trkpt>
<trkpt lat="45.9570850" lon="10.1586990">
	<ele>1386.20</ele>
	<time>2025-08-03T09:58:28.000Z</time>
</trkpt>
<trkpt lat="45.9570710" lon="10.1586790">
	<ele>1386.20</ele>
	<time>2025-08-03T09:58:29.000Z</time>
</trkpt>
<trkpt lat="45.9570570" lon="10.1586560">
	<ele>1386.00</ele>
	<time>2025-08-03T09:58:30.000Z</time>
</trkpt>
<trkpt lat="45.9570400" lon="10.1586410">
	<ele>1386.00</ele>
	<time>2025-08-03T09:58:31.000Z</time>
</trkpt>
<trkpt lat="45.9570240" lon="10.1586290">
	<ele>1386.00</ele>
	<time>2025-08-03T09:58:32.000Z</time>
</trkpt>
<trkpt lat="45.9570110" lon="10.1586190">
	<ele>1386.00</ele>
	<time>2025-08-03T09:58:33.000Z</time>
</trkpt>
<trkpt lat="45.9569880" lon="10.1586110">
	<ele>1385.80</ele>
	<time>2025-08-03T09:58:34.000Z</time>
</trkpt>
<trkpt lat="45.9569670" lon="10.1586020">
	<ele>1385.80</ele>
	<time>2025-08-03T09:58:35.000Z</time>
</trkpt>
<trkpt lat="45.9569550" lon="10.1585920">
	<ele>1385.80</ele>
	<time>2025-08-03T09:58:36.000Z</time>
</trkpt>
<trkpt lat="45.9569430" lon="10.1585770">
	<ele>1385.80</ele>
	<time>2025-08-03T09:58:37.000Z</time>
</trkpt>
<trkpt lat="45.9569250" lon="10.1585680">
	<ele>1385.80</ele>
	<time>2025-08-03T09:58:38.000Z</time>
</trkpt>
<trkpt lat="45.9569110" lon="10.1585550">
	<ele>1385.60</ele>
	<time>2025-08-03T09:58:39.000Z</time>
</trkpt>
<trkpt lat="45.9568980" lon="10.1585390">
	<ele>1385.40</ele>
	<time>2025-08-03T09:58:40.000Z</time>
</trkpt>
<trkpt lat="45.9568860" lon="10.1585210">
	<ele>1385.40</ele>
	<time>2025-08-03T09:58:41.000Z</time>
</trkpt>
<trkpt lat="45.9568730" lon="10.1585000">
	<ele>1385.40</ele>
	<time>2025-08-03T09:58:42.000Z</time>
</trkpt>
<trkpt lat="45.9568600" lon="10.1584820">
	<ele>1385.20</ele>
	<time>2025-08-03T09:58:43.000Z</time>
</trkpt>
<trkpt lat="45.9568400" lon="10.1584710">
	<ele>1385.20</ele>
	<time>2025-08-03T09:58:44.000Z</time>
</trkpt>
<trkpt lat="45.9568230" lon="10.1584560">
	<ele>1385.20</ele>
	<time>2025-08-03T09:58:45.000Z</time>
</trkpt>
<trkpt lat="45.9568020" lon="10.1584370">
	<ele>1385.20</ele>
	<time>2025-08-03T09:58:46.000Z</time>
</trkpt>
<trkpt lat="45.9567800" lon="10.1584280">
	<ele>1385.00</ele>
	<time>2025-08-03T09:58:47.000Z</time>
</trkpt>
<trkpt lat="45.9567650" lon="10.1583990">
	<ele>1385.00</ele>
	<time>2025-08-03T09:58:48.000Z</time>
</trkpt>
<trkpt lat="45.9567510" lon="10.1583740">
	<ele>1384.80</ele>
	<time>2025-08-03T09:58:49.000Z</time>
</trkpt>
<trkpt lat="45.9567430" lon="10.1583590">
	<ele>1384.80</ele>
	<time>2025-08-03T09:58:50.000Z</time>
</trkpt>
<trkpt lat="45.9567340" lon="10.1583420">
	<ele>1384.60</ele>
	<time>2025-08-03T09:58:51.000Z</time>
</trkpt>
<trkpt lat="45.9567240" lon="10.1583280">
	<ele>1384.60</ele>
	<time>2025-08-03T09:58:52.000Z</time>
</trkpt>
<trkpt lat="45.9567150" lon="10.1583100">
	<ele>1384.40</ele>
	<time>2025-08-03T09:58:53.000Z</time>
</trkpt>
<trkpt lat="45.9567020" lon="10.1582910">
	<ele>1384.40</ele>
	<time>2025-08-03T09:58:54.000Z</time>
</trkpt>
<trkpt lat="45.9566920" lon="10.1582800">
	<ele>1384.40</ele>
	<time>2025-08-03T09:58:55.000Z</time>
</trkpt>
<trkpt lat="45.9566810" lon="10.1582650">
	<ele>1384.40</ele>
	<time>2025-08-03T09:58:56.000Z</time>
</trkpt>
<trkpt lat="45.9566740" lon="10.1582530">
	<ele>1384.40</ele>
	<time>2025-08-03T09:58:57.000Z</time>
</trkpt>
<trkpt lat="45.9566650" lon="10.1582350">
	<ele>1384.40</ele>
	<time>2025-08-03T09:58:58.000Z</time>
</trkpt>
<trkpt lat="45.9566520" lon="10.1582320">
	<ele>1384.20</ele>
	<time>2025-08-03T09:58:59.000Z</time>
</trkpt>
<trkpt lat="45.9566390" lon="10.1582150">
	<ele>1384.20</ele>
	<time>2025-08-03T09:59:00.000Z</time>
</trkpt>
<trkpt lat="45.9566270" lon="10.1582100">
	<ele>1384.00</ele>
	<time>2025-08-03T09:59:01.000Z</time>
</trkpt>
<trkpt lat="45.9566130" lon="10.1581970">
	<ele>1383.80</ele>
	<time>2025-08-03T09:59:02.000Z</time>
</trkpt>
<trkpt lat="45.9565980" lon="10.1581810">
	<ele>1383.60</ele>
	<time>2025-08-03T09:59:03.000Z</time>
</trkpt>
<trkpt lat="45.9565840" lon="10.1581690">
	<ele>1383.60</ele>
	<time>2025-08-03T09:59:04.000Z</time>
</trkpt>
<trkpt lat="45.9565750" lon="10.1581580">
	<ele>1383.40</ele>
	<time>2025-08-03T09:59:05.000Z</time>
</trkpt>
<trkpt lat="45.9565690" lon="10.1581480">
	<ele>1383.40</ele>
	<time>2025-08-03T09:59:06.000Z</time>
</trkpt>
<trkpt lat="45.9565660" lon="10.1581400">
	<ele>1383.40</ele>
	<time>2025-08-03T09:59:07.000Z</time>
</trkpt>
<trkpt lat="45.9565630" lon="10.1581320">
	<ele>1383.60</ele>
	<time>2025-08-03T09:59:08.000Z</time>
</trkpt>
<trkpt lat="45.9565600" lon="10.1581260">
	<ele>1383.80</ele>
	<time>2025-08-03T09:59:09.000Z</time>
</trkpt>
<trkpt lat="45.9565480" lon="10.1581100">
	<ele>1383.80</ele>
	<time>2025-08-03T09:59:10.000Z</time>
</trkpt>
<trkpt lat="45.9565360" lon="10.1581010">
	<ele>1383.80</ele>
	<time>2025-08-03T09:59:11.000Z</time>
</trkpt>
<trkpt lat="45.9565210" lon="10.1580900">
	<ele>1383.40</ele>
	<time>2025-08-03T09:59:12.000Z</time>
</trkpt>
<trkpt lat="45.9565110" lon="10.1580780">
	<ele>1383.40</ele>
	<time>2025-08-03T09:59:13.000Z</time>
</trkpt>
<trkpt lat="45.9565030" lon="10.1580630">
	<ele>1383.20</ele>
	<time>2025-08-03T09:59:14.000Z</time>
</trkpt>
<trkpt lat="45.9564950" lon="10.1580550">
	<ele>1383.20</ele>
	<time>2025-08-03T09:59:15.000Z</time>
</trkpt>
<trkpt lat="45.9564910" lon="10.1580540">
	<ele>1383.00</ele>
	<time>2025-08-03T09:59:16.000Z</time>
</trkpt>
<trkpt lat="45.9564850" lon="10.1580500">
	<ele>1383.00</ele>
	<time>2025-08-03T09:59:17.000Z</time>
</trkpt>
<trkpt lat="45.9564830" lon="10.1580490">
	<ele>1383.20</ele>
	<time>2025-08-03T09:59:18.000Z</time>
</trkpt>
<trkpt lat="45.9564830" lon="10.1580500">
	<ele>1383.40</ele>
	<time>2025-08-03T09:59:19.000Z</time>
</trkpt>
<trkpt lat="45.9564800" lon="10.1580500">
	<ele>1383.40</ele>
	<time>2025-08-03T09:59:20.000Z</time>
</trkpt>
<trkpt lat="45.9564850" lon="10.1580500">
	<ele>1383.40</ele>
	<time>2025-08-03T09:59:21.000Z</time>
</trkpt>
<trkpt lat="45.9564850" lon="10.1580430">
	<ele>1383.40</ele>
	<time>2025-08-03T09:59:22.000Z</time>
</trkpt>
<trkpt lat="45.9564740" lon="10.1580360">
	<ele>1383.40</ele>
	<time>2025-08-03T09:59:23.000Z</time>
</trkpt>
<trkpt lat="45.9564620" lon="10.1580210">
	<ele>1383.00</ele>
	<time>2025-08-03T09:59:24.000Z</time>
</trkpt>
<trkpt lat="45.9564480" lon="10.1580020">
	<ele>1382.60</ele>
	<time>2025-08-03T09:59:25.000Z</time>
</trkpt>
<trkpt lat="45.9564420" lon="10.1579940">
	<ele>1382.60</ele>
	<time>2025-08-03T09:59:26.000Z</time>
</trkpt>
<trkpt lat="45.9564300" lon="10.1579880">
	<ele>1382.40</ele>
	<time>2025-08-03T09:59:27.000Z</time>
</trkpt>
<trkpt lat="45.9564090" lon="10.1579860">
	<ele>1382.00</ele>
	<time>2025-08-03T09:59:28.000Z</time>
</trkpt>
<trkpt lat="45.9563920" lon="10.1579830">
	<ele>1382.00</ele>
	<time>2025-08-03T09:59:29.000Z</time>
</trkpt>
<trkpt lat="45.9563780" lon="10.1579830">
	<ele>1381.80</ele>
	<time>2025-08-03T09:59:30.000Z</time>
</trkpt>
<trkpt lat="45.9563680" lon="10.1579750">
	<ele>1381.60</ele>
	<time>2025-08-03T09:59:31.000Z</time>
</trkpt>
<trkpt lat="45.9563540" lon="10.1579620">
	<ele>1381.60</ele>
	<time>2025-08-03T09:59:32.000Z</time>
</trkpt>
<trkpt lat="45.9563390" lon="10.1579450">
	<ele>1381.40</ele>
	<time>2025-08-03T09:59:33.000Z</time>
</trkpt>
<trkpt lat="45.9563230" lon="10.1579230">
	<ele>1381.40</ele>
	<time>2025-08-03T09:59:34.000Z</time>
</trkpt>
<trkpt lat="45.9563050" lon="10.1578970">
	<ele>1381.20</ele>
	<time>2025-08-03T09:59:35.000Z</time>
</trkpt>
<trkpt lat="45.9562900" lon="10.1578730">
	<ele>1381.20</ele>
	<time>2025-08-03T09:59:36.000Z</time>
</trkpt>
<trkpt lat="45.9562770" lon="10.1578610">
	<ele>1381.20</ele>
	<time>2025-08-03T09:59:37.000Z</time>
</trkpt>
<trkpt lat="45.9562660" lon="10.1578470">
	<ele>1380.80</ele>
	<time>2025-08-03T09:59:38.000Z</time>
</trkpt>
<trkpt lat="45.9562570" lon="10.1578320">
	<ele>1380.60</ele>
	<time>2025-08-03T09:59:39.000Z</time>
</trkpt>
<trkpt lat="45.9562490" lon="10.1578240">
	<ele>1380.40</ele>
	<time>2025-08-03T09:59:40.000Z</time>
</trkpt>
<trkpt lat="45.9562380" lon="10.1578210">
	<ele>1380.20</ele>
	<time>2025-08-03T09:59:41.000Z</time>
</trkpt>
<trkpt lat="45.9562330" lon="10.1578170">
	<ele>1380.00</ele>
	<time>2025-08-03T09:59:42.000Z</time>
</trkpt>
<trkpt lat="45.9562220" lon="10.1578000">
	<ele>1379.80</ele>
	<time>2025-08-03T09:59:43.000Z</time>
</trkpt>
<trkpt lat="45.9562100" lon="10.1577900">
	<ele>1379.60</ele>
	<time>2025-08-03T09:59:44.000Z</time>
</trkpt>
<trkpt lat="45.9562020" lon="10.1577780">
	<ele>1379.40</ele>
	<time>2025-08-03T09:59:45.000Z</time>
</trkpt>
<trkpt lat="45.9561960" lon="10.1577660">
	<ele>1379.20</ele>
	<time>2025-08-03T09:59:46.000Z</time>
</trkpt>
<trkpt lat="45.9561860" lon="10.1577470">
	<ele>1379.00</ele>
	<time>2025-08-03T09:59:47.000Z</time>
</trkpt>
<trkpt lat="45.9561760" lon="10.1577270">
	<ele>1378.80</ele>
	<time>2025-08-03T09:59:48.000Z</time>
</trkpt>
<trkpt lat="45.9561560" lon="10.1577000">
	<ele>1378.60</ele>
	<time>2025-08-03T09:59:49.000Z</time>
</trkpt>
<trkpt lat="45.9561430" lon="10.1576840">
	<ele>1378.20</ele>
	<time>2025-08-03T09:59:50.000Z</time>
</trkpt>
<trkpt lat="45.9561280" lon="10.1576700">
	<ele>1378.00</ele>
	<time>2025-08-03T09:59:51.000Z</time>
</trkpt>
<trkpt lat="45.9561140" lon="10.1576570">
	<ele>1377.80</ele>
	<time>2025-08-03T09:59:52.000Z</time>
</trkpt>
<trkpt lat="45.9560990" lon="10.1576460">
	<ele>1377.60</ele>
	<time>2025-08-03T09:59:53.000Z</time>
</trkpt>
<trkpt lat="45.9560810" lon="10.1576340">
	<ele>1377.60</ele>
	<time>2025-08-03T09:59:54.000Z</time>
</trkpt>
<trkpt lat="45.9560620" lon="10.1576140">
	<ele>1377.40</ele>
	<time>2025-08-03T09:59:55.000Z</time>
</trkpt>
<trkpt lat="45.9560450" lon="10.1575940">
	<ele>1377.40</ele>
	<time>2025-08-03T09:59:56.000Z</time>
</trkpt>
<trkpt lat="45.9560340" lon="10.1575810">
	<ele>1377.20</ele>
	<time>2025-08-03T09:59:57.000Z</time>
</trkpt>
<trkpt lat="45.9560260" lon="10.1575720">
	<ele>1377.00</ele>
	<time>2025-08-03T09:59:58.000Z</time>
</trkpt>
<trkpt lat="45.9560170" lon="10.1575560">
	<ele>1377.00</ele>
	<time>2025-08-03T09:59:59.000Z</time>
</trkpt>
<trkpt lat="45.9560040" lon="10.1575450">
	<ele>1376.80</ele>
	<time>2025-08-03T10:00:00.000Z</time>
</trkpt>
<trkpt lat="45.9559930" lon="10.1575420">
	<ele>1376.20</ele>
	<time>2025-08-03T10:00:01.000Z</time>
</trkpt>
<trkpt lat="45.9559810" lon="10.1575370">
	<ele>1376.00</ele>
	<time>2025-08-03T10:00:02.000Z</time>
</trkpt>
<trkpt lat="45.9559680" lon="10.1575300">
	<ele>1375.80</ele>
	<time>2025-08-03T10:00:03.000Z</time>
</trkpt>
<trkpt lat="45.9559560" lon="10.1575270">
	<ele>1375.40</ele>
	<time>2025-08-03T10:00:04.000Z</time>
</trkpt>
<trkpt lat="45.9559530" lon="10.1575260">
	<ele>1375.00</ele>
	<time>2025-08-03T10:00:05.000Z</time>
</trkpt>
<trkpt lat="45.9559430" lon="10.1575220">
	<ele>1374.80</ele>
	<time>2025-08-03T10:00:06.000Z</time>
</trkpt>
<trkpt lat="45.9559280" lon="10.1575190">
	<ele>1374.40</ele>
	<time>2025-08-03T10:00:07.000Z</time>
</trkpt>
<trkpt lat="45.9559220" lon="10.1575270">
	<ele>1374.00</ele>
	<time>2025-08-03T10:00:08.000Z</time>
</trkpt>
<trkpt lat="45.9559290" lon="10.1575410">
	<ele>1373.60</ele>
	<time>2025-08-03T10:00:09.000Z</time>
</trkpt>
<trkpt lat="45.9559280" lon="10.1575490">
	<ele>1373.40</ele>
	<time>2025-08-03T10:00:10.000Z</time>
</trkpt>
<trkpt lat="45.9559260" lon="10.1575630">
	<ele>1373.00</ele>
	<time>2025-08-03T10:00:11.000Z</time>
</trkpt>
<trkpt lat="45.9559270" lon="10.1575830">
	<ele>1372.60</ele>
	<time>2025-08-03T10:00:12.000Z</time>
</trkpt>
<trkpt lat="45.9559120" lon="10.1575890">
	<ele>1372.40</ele>
	<time>2025-08-03T10:00:13.000Z</time>
</trkpt>
<trkpt lat="45.9558990" lon="10.1575970">
	<ele>1372.00</ele>
	<time>2025-08-03T10:00:14.000Z</time>
</trkpt>
<trkpt lat="45.9558750" lon="10.1575970">
	<ele>1371.40</ele>
	<time>2025-08-03T10:00:15.000Z</time>
</trkpt>
<trkpt lat="45.9558510" lon="10.1575870">
	<ele>1371.20</ele>
	<time>2025-08-03T10:00:16.000Z</time>
</trkpt>
<trkpt lat="45.9558300" lon="10.1575720">
	<ele>1371.00</ele>
	<time>2025-08-03T10:00:17.000Z</time>
</trkpt>
<trkpt lat="45.9558080" lon="10.1575560">
	<ele>1370.80</ele>
	<time>2025-08-03T10:00:18.000Z</time>
</trkpt>
<trkpt lat="45.9557950" lon="10.1575560">
	<ele>1370.60</ele>
	<time>2025-08-03T10:00:19.000Z</time>
</trkpt>
<trkpt lat="45.9557830" lon="10.1575540">
	<ele>1370.00</ele>
	<time>2025-08-03T10:00:20.000Z</time>
</trkpt>
<trkpt lat="45.9557700" lon="10.1575510">
	<ele>1369.60</ele>
	<time>2025-08-03T10:00:21.000Z</time>
</trkpt>
<trkpt lat="45.9557580" lon="10.1575530">
	<ele>1369.40</ele>
	<time>2025-08-03T10:00:22.000Z</time>
</trkpt>
<trkpt lat="45.9557500" lon="10.1575570">
	<ele>1369.00</ele>
	<time>2025-08-03T10:00:23.000Z</time>
</trkpt>
<trkpt lat="45.9557420" lon="10.1575620">
	<ele>1368.60</ele>
	<time>2025-08-03T10:00:24.000Z</time>
</trkpt>
<trkpt lat="45.9557300" lon="10.1575540">
	<ele>1368.20</ele>
	<time>2025-08-03T10:00:25.000Z</time>
</trkpt>
<trkpt lat="45.9557200" lon="10.1575480">
	<ele>1367.80</ele>
	<time>2025-08-03T10:00:26.000Z</time>
</trkpt>
<trkpt lat="45.9557090" lon="10.1575430">
	<ele>1367.40</ele>
	<time>2025-08-03T10:00:27.000Z</time>
</trkpt>
<trkpt lat="45.9556990" lon="10.1575440">
	<ele>1367.20</ele>
	<time>2025-08-03T10:00:28.000Z</time>
</trkpt>
<trkpt lat="45.9556850" lon="10.1575400">
	<ele>1366.80</ele>
	<time>2025-08-03T10:00:29.000Z</time>
</trkpt>
<trkpt lat="45.9556700" lon="10.1575310">
	<ele>1366.60</ele>
	<time>2025-08-03T10:00:30.000Z</time>
</trkpt>
<trkpt lat="45.9556540" lon="10.1575210">
	<ele>1366.40</ele>
	<time>2025-08-03T10:00:31.000Z</time>
</trkpt>
<trkpt lat="45.9556320" lon="10.1575100">
	<ele>1366.00</ele>
	<time>2025-08-03T10:00:32.000Z</time>
</trkpt>
<trkpt lat="45.9556050" lon="10.1574890">
	<ele>1365.80</ele>
	<time>2025-08-03T10:00:33.000Z</time>
</trkpt>
<trkpt lat="45.9556000" lon="10.1574870">
	<ele>1365.60</ele>
	<time>2025-08-03T10:00:34.000Z</time>
</trkpt>
<trkpt lat="45.9555970" lon="10.1574850">
	<ele>1365.40</ele>
	<time>2025-08-03T10:00:35.000Z</time>
</trkpt>
<trkpt lat="45.9555930" lon="10.1574820">
	<ele>1365.20</ele>
	<time>2025-08-03T10:00:36.000Z</time>
</trkpt>
<trkpt lat="45.9555920" lon="10.1574840">
	<ele>1365.00</ele>
	<time>2025-08-03T10:00:37.000Z</time>
</trkpt>
<trkpt lat="45.9555860" lon="10.1574760">
	<ele>1365.00</ele>
	<time>2025-08-03T10:00:38.000Z</time>
</trkpt>
<trkpt lat="45.9555880" lon="10.1574810">
	<ele>1364.80</ele>
	<time>2025-08-03T10:00:39.000Z</time>
</trkpt>
<trkpt lat="45.9555900" lon="10.1574840">
	<ele>1365.00</ele>
	<time>2025-08-03T10:00:40.000Z</time>
</trkpt>
<trkpt lat="45.9555910" lon="10.1574860">
	<ele>1365.00</ele>
	<time>2025-08-03T10:00:41.000Z</time>
</trkpt>
<trkpt lat="45.9556020" lon="10.1574820">
	<ele>1365.00</ele>
	<time>2025-08-03T10:00:42.000Z</time>
</trkpt>
<trkpt lat="45.9556160" lon="10.1574860">
	<ele>1365.00</ele>
	<time>2025-08-03T10:00:43.000Z</time>
</trkpt>
<trkpt lat="45.9556100" lon="10.1574720">
	<ele>1365.00</ele>
	<time>2025-08-03T10:00:44.000Z</time>
</trkpt>
<trkpt lat="45.9555970" lon="10.1574500">
	<ele>1365.20</ele>
	<time>2025-08-03T10:00:45.000Z</time>
</trkpt>
<trkpt lat="45.9555970" lon="10.1574520">
	<ele>1365.20</ele>
	<time>2025-08-03T10:00:46.000Z</time>
</trkpt>
<trkpt lat="45.9555990" lon="10.1574610">
	<ele>1365.20</ele>
	<time>2025-08-03T10:00:47.000Z</time>
</trkpt>
<trkpt lat="45.9555970" lon="10.1574650">
	<ele>1365.20</ele>
	<time>2025-08-03T10:00:48.000Z</time>
</trkpt>
<trkpt lat="45.9555970" lon="10.1574640">
	<ele>1365.20</ele>
	<time>2025-08-03T10:00:49.000Z</time>
</trkpt>
<trkpt lat="45.9555960" lon="10.1574680">
	<ele>1365.40</ele>
	<time>2025-08-03T10:00:50.000Z</time>
</trkpt>
<trkpt lat="45.9555960" lon="10.1574700">
	<ele>1365.60</ele>
	<time>2025-08-03T10:00:51.000Z</time>
</trkpt>
<trkpt lat="45.9555970" lon="10.1574710">
	<ele>1365.60</ele>
	<time>2025-08-03T10:00:52.000Z</time>
</trkpt>
<trkpt lat="45.9555990" lon="10.1574740">
	<ele>1365.60</ele>
	<time>2025-08-03T10:00:53.000Z</time>
</trkpt>
<trkpt lat="45.9555980" lon="10.1574770">
	<ele>1365.80</ele>
	<time>2025-08-03T10:00:54.000Z</time>
</trkpt>
<trkpt lat="45.9555940" lon="10.1574680">
	<ele>1365.80</ele>
	<time>2025-08-03T10:00:55.000Z</time>
</trkpt>
<trkpt lat="45.9555910" lon="10.1574620">
	<ele>1365.80</ele>
	<time>2025-08-03T10:00:56.000Z</time>
</trkpt>
<trkpt lat="45.9555830" lon="10.1574480">
	<ele>1365.40</ele>
	<time>2025-08-03T10:00:57.000Z</time>
</trkpt>
<trkpt lat="45.9555710" lon="10.1574320">
	<ele>1365.00</ele>
	<time>2025-08-03T10:00:58.000Z</time>
</trkpt>
<trkpt lat="45.9555630" lon="10.1574250">
	<ele>1364.80</ele>
	<time>2025-08-03T10:00:59.000Z</time>
</trkpt>
<trkpt lat="45.9555570" lon="10.1574240">
	<ele>1364.80</ele>
	<time>2025-08-03T10:01:00.000Z</time>
</trkpt>
<trkpt lat="45.9555490" lon="10.1574270">
	<ele>1364.60</ele>
	<time>2025-08-03T10:01:01.000Z</time>
</trkpt>
<trkpt lat="45.9555330" lon="10.1574300">
	<ele>1364.60</ele>
	<time>2025-08-03T10:01:02.000Z</time>
</trkpt>
<trkpt lat="45.9555220" lon="10.1574290">
	<ele>1364.20</ele>
	<time>2025-08-03T10:01:03.000Z</time>
</trkpt>
<trkpt lat="45.9555110" lon="10.1574280">
	<ele>1363.80</ele>
	<time>2025-08-03T10:01:04.000Z</time>
</trkpt>
<trkpt lat="45.9554990" lon="10.1574240">
	<ele>1363.60</ele>
	<time>2025-08-03T10:01:05.000Z</time>
</trkpt>
<trkpt lat="45.9554880" lon="10.1574180">
	<ele>1363.20</ele>
	<time>2025-08-03T10:01:06.000Z</time>
</trkpt>
<trkpt lat="45.9554800" lon="10.1574170">
	<ele>1362.80</ele>
	<time>2025-08-03T10:01:07.000Z</time>
</trkpt>
<trkpt lat="45.9554700" lon="10.1574150">
	<ele>1362.60</ele>
	<time>2025-08-03T10:01:08.000Z</time>
</trkpt>
<trkpt lat="45.9554540" lon="10.1574060">
	<ele>1362.00</ele>
	<time>2025-08-03T10:01:09.000Z</time>
</trkpt>
<trkpt lat="45.9554390" lon="10.1573940">
	<ele>1361.60</ele>
	<time>2025-08-03T10:01:10.000Z</time>
</trkpt>
<trkpt lat="45.9554180" lon="10.1573980">
	<ele>1361.20</ele>
	<time>2025-08-03T10:01:11.000Z</time>
</trkpt>
<trkpt lat="45.9554010" lon="10.1574020">
	<ele>1360.80</ele>
	<time>2025-08-03T10:01:12.000Z</time>
</trkpt>
<trkpt lat="45.9553870" lon="10.1574000">
	<ele>1360.60</ele>
	<time>2025-08-03T10:01:13.000Z</time>
</trkpt>
<trkpt lat="45.9553700" lon="10.1573890">
	<ele>1360.20</ele>
	<time>2025-08-03T10:01:14.000Z</time>
</trkpt>
<trkpt lat="45.9553510" lon="10.1573670">
	<ele>1359.80</ele>
	<time>2025-08-03T10:01:15.000Z</time>
</trkpt>
<trkpt lat="45.9553310" lon="10.1573480">
	<ele>1359.60</ele>
	<time>2025-08-03T10:01:16.000Z</time>
</trkpt>
<trkpt lat="45.9553140" lon="10.1573280">
	<ele>1359.20</ele>
	<time>2025-08-03T10:01:17.000Z</time>
</trkpt>
<trkpt lat="45.9552970" lon="10.1573140">
	<ele>1359.00</ele>
	<time>2025-08-03T10:01:18.000Z</time>
</trkpt>
<trkpt lat="45.9552860" lon="10.1573160">
	<ele>1358.40</ele>
	<time>2025-08-03T10:01:19.000Z</time>
</trkpt>
<trkpt lat="45.9552780" lon="10.1573190">
	<ele>1358.20</ele>
	<time>2025-08-03T10:01:20.000Z</time>
</trkpt>
<trkpt lat="45.9552670" lon="10.1573170">
	<ele>1358.00</ele>
	<time>2025-08-03T10:01:21.000Z</time>
</trkpt>
<trkpt lat="45.9552520" lon="10.1573120">
	<ele>1357.60</ele>
	<time>2025-08-03T10:01:22.000Z</time>
</trkpt>
<trkpt lat="45.9552420" lon="10.1573100">
	<ele>1357.60</ele>
	<time>2025-08-03T10:01:23.000Z</time>
</trkpt>
<trkpt lat="45.9552380" lon="10.1573150">
	<ele>1357.00</ele>
	<time>2025-08-03T10:01:24.000Z</time>
</trkpt>
<trkpt lat="45.9552290" lon="10.1573160">
	<ele>1356.60</ele>
	<time>2025-08-03T10:01:25.000Z</time>
</trkpt>
<trkpt lat="45.9552180" lon="10.1573150">
	<ele>1356.20</ele>
	<time>2025-08-03T10:01:26.000Z</time>
</trkpt>
<trkpt lat="45.9552040" lon="10.1573140">
	<ele>1356.00</ele>
	<time>2025-08-03T10:01:27.000Z</time>
</trkpt>
<trkpt lat="45.9551950" lon="10.1573070">
	<ele>1355.60</ele>
	<time>2025-08-03T10:01:28.000Z</time>
</trkpt>
<trkpt lat="45.9551860" lon="10.1573020">
	<ele>1355.40</ele>
	<time>2025-08-03T10:01:29.000Z</time>
</trkpt>
<trkpt lat="45.9551790" lon="10.1572890">
	<ele>1355.00</ele>
	<time>2025-08-03T10:01:30.000Z</time>
</trkpt>
<trkpt lat="45.9551670" lon="10.1572720">
	<ele>1354.60</ele>
	<time>2025-08-03T10:01:31.000Z</time>
</trkpt>
<trkpt lat="45.9551480" lon="10.1572530">
	<ele>1354.20</ele>
	<time>2025-08-03T10:01:32.000Z</time>
</trkpt>
<trkpt lat="45.9551370" lon="10.1572480">
	<ele>1353.80</ele>
	<time>2025-08-03T10:01:33.000Z</time>
</trkpt>
<trkpt lat="45.9551260" lon="10.1572490">
	<ele>1353.40</ele>
	<time>2025-08-03T10:01:34.000Z</time>
</trkpt>
<trkpt lat="45.9551140" lon="10.1572550">
	<ele>1353.00</ele>
	<time>2025-08-03T10:01:35.000Z</time>
</trkpt>
<trkpt lat="45.9551040" lon="10.1572600">
	<ele>1352.80</ele>
	<time>2025-08-03T10:01:36.000Z</time>
</trkpt>
<trkpt lat="45.9550870" lon="10.1572660">
	<ele>1352.60</ele>
	<time>2025-08-03T10:01:37.000Z</time>
</trkpt>
<trkpt lat="45.9550650" lon="10.1572680">
	<ele>1352.20</ele>
	<time>2025-08-03T10:01:38.000Z</time>
</trkpt>
<trkpt lat="45.9550440" lon="10.1572610">
	<ele>1352.00</ele>
	<time>2025-08-03T10:01:39.000Z</time>
</trkpt>
<trkpt lat="45.9550300" lon="10.1572490">
	<ele>1351.80</ele>
	<time>2025-08-03T10:01:40.000Z</time>
</trkpt>
<trkpt lat="45.9550180" lon="10.1572340">
	<ele>1351.40</ele>
	<time>2025-08-03T10:01:41.000Z</time>
</trkpt>
<trkpt lat="45.9550080" lon="10.1572160">
	<ele>1351.20</ele>
	<time>2025-08-03T10:01:42.000Z</time>
</trkpt>
<trkpt lat="45.9549950" lon="10.1572140">
	<ele>1350.80</ele>
	<time>2025-08-03T10:01:43.000Z</time>
</trkpt>
<trkpt lat="45.9549820" lon="10.1572200">
	<ele>1350.40</ele>
	<time>2025-08-03T10:01:44.000Z</time>
</trkpt>
<trkpt lat="45.9549680" lon="10.1572110">
	<ele>1350.20</ele>
	<time>2025-08-03T10:01:45.000Z</time>
</trkpt>
<trkpt lat="45.9549570" lon="10.1572030">
	<ele>1349.80</ele>
	<time>2025-08-03T10:01:46.000Z</time>
</trkpt>
<trkpt lat="45.9549460" lon="10.1571940">
	<ele>1349.40</ele>
	<time>2025-08-03T10:01:47.000Z</time>
</trkpt>
<trkpt lat="45.9549410" lon="10.1571820">
	<ele>1349.00</ele>
	<time>2025-08-03T10:01:48.000Z</time>
</trkpt>
<trkpt lat="45.9549380" lon="10.1571830">
	<ele>1348.80</ele>
	<time>2025-08-03T10:01:49.000Z</time>
</trkpt>
<trkpt lat="45.9549320" lon="10.1571750">
	<ele>1348.60</ele>
	<time>2025-08-03T10:01:50.000Z</time>
</trkpt>
<trkpt lat="45.9549260" lon="10.1571740">
	<ele>1348.40</ele>
	<time>2025-08-03T10:01:51.000Z</time>
</trkpt>
<trkpt lat="45.9549220" lon="10.1571780">
	<ele>1348.00</ele>
	<time>2025-08-03T10:01:52.000Z</time>
</trkpt>
<trkpt lat="45.9549060" lon="10.1571740">
	<ele>1347.60</ele>
	<time>2025-08-03T10:01:53.000Z</time>
</trkpt>
<trkpt lat="45.9548900" lon="10.1571630">
	<ele>1347.20</ele>
	<time>2025-08-03T10:01:54.000Z</time>
</trkpt>
<trkpt lat="45.9548820" lon="10.1571560">
	<ele>1346.80</ele>
	<time>2025-08-03T10:01:55.000Z</time>
</trkpt>
<trkpt lat="45.9548750" lon="10.1571450">
	<ele>1346.40</ele>
	<time>2025-08-03T10:01:56.000Z</time>
</trkpt>
<trkpt lat="45.9548690" lon="10.1571410">
	<ele>1346.00</ele>
	<time>2025-08-03T10:01:57.000Z</time>
</trkpt>
<trkpt lat="45.9548640" lon="10.1571380">
	<ele>1345.60</ele>
	<time>2025-08-03T10:01:58.000Z</time>
</trkpt>
<trkpt lat="45.9548600" lon="10.1571330">
	<ele>1345.40</ele>
	<time>2025-08-03T10:01:59.000Z</time>
</trkpt>
<trkpt lat="45.9548570" lon="10.1571220">
	<ele>1345.00</ele>
	<time>2025-08-03T10:02:00.000Z</time>
</trkpt>
<trkpt lat="45.9548560" lon="10.1571170">
	<ele>1344.80</ele>
	<time>2025-08-03T10:02:01.000Z</time>
</trkpt>
<trkpt lat="45.9548430" lon="10.1571020">
	<ele>1344.20</ele>
	<time>2025-08-03T10:02:02.000Z</time>
</trkpt>
<trkpt lat="45.9548360" lon="10.1570990">
	<ele>1343.80</ele>
	<time>2025-08-03T10:02:03.000Z</time>
</trkpt>
<trkpt lat="45.9548280" lon="10.1570950">
	<ele>1343.60</ele>
	<time>2025-08-03T10:02:04.000Z</time>
</trkpt>
<trkpt lat="45.9548260" lon="10.1570970">
	<ele>1343.20</ele>
	<time>2025-08-03T10:02:05.000Z</time>
</trkpt>
<trkpt lat="45.9548260" lon="10.1571050">
	<ele>1343.00</ele>
	<time>2025-08-03T10:02:06.000Z</time>
</trkpt>
<trkpt lat="45.9548290" lon="10.1571060">
	<ele>1342.80</ele>
	<time>2025-08-03T10:02:07.000Z</time>
</trkpt>
<trkpt lat="45.9548280" lon="10.1571040">
	<ele>1342.40</ele>
	<time>2025-08-03T10:02:08.000Z</time>
</trkpt>
<trkpt lat="45.9548210" lon="10.1570850">
	<ele>1342.20</ele>
	<time>2025-08-03T10:02:09.000Z</time>
</trkpt>
<trkpt lat="45.9548140" lon="10.1570620">
	<ele>1342.00</ele>
	<time>2025-08-03T10:02:10.000Z</time>
</trkpt>
<trkpt lat="45.9547970" lon="10.1570300">
	<ele>1341.60</ele>
	<time>2025-08-03T10:02:11.000Z</time>
</trkpt>
<trkpt lat="45.9547860" lon="10.1570200">
	<ele>1341.20</ele>
	<time>2025-08-03T10:02:12.000Z</time>
</trkpt>
<trkpt lat="45.9547680" lon="10.1570090">
	<ele>1340.80</ele>
	<time>2025-08-03T10:02:13.000Z</time>
</trkpt>
<trkpt lat="45.9547570" lon="10.1569960">
	<ele>1340.40</ele>
	<time>2025-08-03T10:02:14.000Z</time>
</trkpt>
<trkpt lat="45.9547510" lon="10.1569910">
	<ele>1340.20</ele>
	<time>2025-08-03T10:02:15.000Z</time>
</trkpt>
<trkpt lat="45.9547490" lon="10.1569790">
	<ele>1339.80</ele>
	<time>2025-08-03T10:02:16.000Z</time>
</trkpt>
<trkpt lat="45.9547430" lon="10.1569600">
	<ele>1339.40</ele>
	<time>2025-08-03T10:02:17.000Z</time>
</trkpt>
<trkpt lat="45.9547330" lon="10.1569390">
	<ele>1339.20</ele>
	<time>2025-08-03T10:02:18.000Z</time>
</trkpt>
<trkpt lat="45.9547270" lon="10.1569240">
	<ele>1338.80</ele>
	<time>2025-08-03T10:02:19.000Z</time>
</trkpt>
<trkpt lat="45.9547200" lon="10.1569100">
	<ele>1338.60</ele>
	<time>2025-08-03T10:02:20.000Z</time>
</trkpt>
<trkpt lat="45.9547050" lon="10.1568880">
	<ele>1338.20</ele>
	<time>2025-08-03T10:02:21.000Z</time>
</trkpt>
<trkpt lat="45.9546940" lon="10.1568680">
	<ele>1337.80</ele>
	<time>2025-08-03T10:02:22.000Z</time>
</trkpt>
<trkpt lat="45.9546860" lon="10.1568500">
	<ele>1337.40</ele>
	<time>2025-08-03T10:02:23.000Z</time>
</trkpt>
<trkpt lat="45.9546770" lon="10.1568370">
	<ele>1337.20</ele>
	<time>2025-08-03T10:02:24.000Z</time>
</trkpt>
<trkpt lat="45.9546590" lon="10.1568470">
	<ele>1337.00</ele>
	<time>2025-08-03T10:02:25.000Z</time>
</trkpt>
<trkpt lat="45.9546430" lon="10.1568400">
	<ele>1336.60</ele>
	<time>2025-08-03T10:02:26.000Z</time>
</trkpt>
<trkpt lat="45.9546270" lon="10.1568320">
	<ele>1336.20</ele>
	<time>2025-08-03T10:02:27.000Z</time>
</trkpt>
<trkpt lat="45.9546120" lon="10.1568220">
	<ele>1336.00</ele>
	<time>2025-08-03T10:02:28.000Z</time>
</trkpt>
<trkpt lat="45.9545960" lon="10.1568110">
	<ele>1335.80</ele>
	<time>2025-08-03T10:02:29.000Z</time>
</trkpt>
<trkpt lat="45.9545810" lon="10.1568070">
	<ele>1335.60</ele>
	<time>2025-08-03T10:02:30.000Z</time>
</trkpt>
<trkpt lat="45.9545620" lon="10.1567990">
	<ele>1335.40</ele>
	<time>2025-08-03T10:02:31.000Z</time>
</trkpt>
<trkpt lat="45.9545430" lon="10.1567840">
	<ele>1335.20</ele>
	<time>2025-08-03T10:02:32.000Z</time>
</trkpt>
<trkpt lat="45.9545300" lon="10.1567680">
	<ele>1335.00</ele>
	<time>2025-08-03T10:02:33.000Z</time>
</trkpt>
<trkpt lat="45.9545180" lon="10.1567540">
	<ele>1334.60</ele>
	<time>2025-08-03T10:02:34.000Z</time>
</trkpt>
<trkpt lat="45.9545100" lon="10.1567420">
	<ele>1334.20</ele>
	<time>2025-08-03T10:02:35.000Z</time>
</trkpt>
<trkpt lat="45.9544990" lon="10.1567290">
	<ele>1334.00</ele>
	<time>2025-08-03T10:02:36.000Z</time>
</trkpt>
<trkpt lat="45.9544850" lon="10.1567100">
	<ele>1333.60</ele>
	<time>2025-08-03T10:02:37.000Z</time>
</trkpt>
<trkpt lat="45.9544700" lon="10.1566900">
	<ele>1333.20</ele>
	<time>2025-08-03T10:02:38.000Z</time>
</trkpt>
<trkpt lat="45.9544470" lon="10.1566650">
	<ele>1333.00</ele>
	<time>2025-08-03T10:02:39.000Z</time>
</trkpt>
<trkpt lat="45.9544230" lon="10.1566450">
	<ele>1332.60</ele>
	<time>2025-08-03T10:02:40.000Z</time>
</trkpt>
<trkpt lat="45.9544170" lon="10.1566400">
	<ele>1332.40</ele>
	<time>2025-08-03T10:02:41.000Z</time>
</trkpt>
<trkpt lat="45.9544000" lon="10.1566290">
	<ele>1332.20</ele>
	<time>2025-08-03T10:02:42.000Z</time>
</trkpt>
<trkpt lat="45.9543880" lon="10.1566080">
	<ele>1332.00</ele>
	<time>2025-08-03T10:02:43.000Z</time>
</trkpt>
<trkpt lat="45.9543730" lon="10.1565810">
	<ele>1331.80</ele>
	<time>2025-08-03T10:02:44.000Z</time>
</trkpt>
<trkpt lat="45.9543590" lon="10.1565660">
	<ele>1331.60</ele>
	<time>2025-08-03T10:02:45.000Z</time>
</trkpt>
<trkpt lat="45.9543440" lon="10.1565670">
	<ele>1331.40</ele>
	<time>2025-08-03T10:02:46.000Z</time>
</trkpt>
<trkpt lat="45.9543280" lon="10.1565550">
	<ele>1331.00</ele>
	<time>2025-08-03T10:02:47.000Z</time>
</trkpt>
<trkpt lat="45.9543080" lon="10.1565510">
	<ele>1330.80</ele>
	<time>2025-08-03T10:02:48.000Z</time>
</trkpt>
<trkpt lat="45.9542920" lon="10.1565510">
	<ele>1330.60</ele>
	<time>2025-08-03T10:02:49.000Z</time>
</trkpt>
<trkpt lat="45.9542860" lon="10.1565550">
	<ele>1330.40</ele>
	<time>2025-08-03T10:02:50.000Z</time>
</trkpt>
<trkpt lat="45.9542830" lon="10.1565530">
	<ele>1330.20</ele>
	<time>2025-08-03T10:02:51.000Z</time>
</trkpt>
<trkpt lat="45.9542710" lon="10.1565520">
	<ele>1330.20</ele>
	<time>2025-08-03T10:02:52.000Z</time>
</trkpt>
<trkpt lat="45.9542630" lon="10.1565480">
	<ele>1330.00</ele>
	<time>2025-08-03T10:02:53.000Z</time>
</trkpt>
<trkpt lat="45.9542560" lon="10.1565370">
	<ele>1330.00</ele>
	<time>2025-08-03T10:02:54.000Z</time>
</trkpt>
<trkpt lat="45.9542400" lon="10.1565190">
	<ele>1329.80</ele>
	<time>2025-08-03T10:02:55.000Z</time>
</trkpt>
<trkpt lat="45.9542240" lon="10.1565060">
	<ele>1329.60</ele>
	<time>2025-08-03T10:02:56.000Z</time>
</trkpt>
<trkpt lat="45.9542060" lon="10.1564930">
	<ele>1329.40</ele>
	<time>2025-08-03T10:02:57.000Z</time>
</trkpt>
<trkpt lat="45.9541900" lon="10.1564780">
	<ele>1329.20</ele>
	<time>2025-08-03T10:02:58.000Z</time>
</trkpt>
<trkpt lat="45.9541750" lon="10.1564690">
	<ele>1329.20</ele>
	<time>2025-08-03T10:02:59.000Z</time>
</trkpt>
<trkpt lat="45.9541640" lon="10.1564670">
	<ele>1329.00</ele>
	<time>2025-08-03T10:03:00.000Z</time>
</trkpt>
<trkpt lat="45.9541490" lon="10.1564650">
	<ele>1328.80</ele>
	<time>2025-08-03T10:03:01.000Z</time>
</trkpt>
<trkpt lat="45.9541370" lon="10.1564550">
	<ele>1328.60</ele>
	<time>2025-08-03T10:03:02.000Z</time>
</trkpt>
<trkpt lat="45.9541210" lon="10.1564450">
	<ele>1328.40</ele>
	<time>2025-08-03T10:03:03.000Z</time>
</trkpt>
<trkpt lat="45.9541150" lon="10.1564420">
	<ele>1328.00</ele>
	<time>2025-08-03T10:03:04.000Z</time>
</trkpt>
<trkpt lat="45.9541060" lon="10.1564330">
	<ele>1327.60</ele>
	<time>2025-08-03T10:03:05.000Z</time>
</trkpt>
<trkpt lat="45.9540920" lon="10.1564160">
	<ele>1327.40</ele>
	<time>2025-08-03T10:03:06.000Z</time>
</trkpt>
<trkpt lat="45.9540750" lon="10.1564010">
	<ele>1327.20</ele>
	<time>2025-08-03T10:03:07.000Z</time>
</trkpt>
<trkpt lat="45.9540580" lon="10.1563920">
	<ele>1326.80</ele>
	<time>2025-08-03T10:03:08.000Z</time>
</trkpt>
<trkpt lat="45.9540390" lon="10.1563810">
	<ele>1326.60</ele>
	<time>2025-08-03T10:03:09.000Z</time>
</trkpt>
<trkpt lat="45.9540180" lon="10.1563680">
	<ele>1326.40</ele>
	<time>2025-08-03T10:03:10.000Z</time>
</trkpt>
<trkpt lat="45.9539920" lon="10.1563510">
	<ele>1326.00</ele>
	<time>2025-08-03T10:03:11.000Z</time>
</trkpt>
<trkpt lat="45.9539720" lon="10.1563340">
	<ele>1325.60</ele>
	<time>2025-08-03T10:03:12.000Z</time>
</trkpt>
<trkpt lat="45.9539540" lon="10.1563210">
	<ele>1325.40</ele>
	<time>2025-08-03T10:03:13.000Z</time>
</trkpt>
<trkpt lat="45.9539350" lon="10.1563010">
	<ele>1325.20</ele>
	<time>2025-08-03T10:03:14.000Z</time>
</trkpt>
<trkpt lat="45.9539190" lon="10.1562740">
	<ele>1325.00</ele>
	<time>2025-08-03T10:03:15.000Z</time>
</trkpt>
<trkpt lat="45.9539080" lon="10.1562510">
	<ele>1324.60</ele>
	<time>2025-08-03T10:03:16.000Z</time>
</trkpt>
<trkpt lat="45.9538960" lon="10.1562380">
	<ele>1324.20</ele>
	<time>2025-08-03T10:03:17.000Z</time>
</trkpt>
<trkpt lat="45.9538830" lon="10.1562330">
	<ele>1324.00</ele>
	<time>2025-08-03T10:03:18.000Z</time>
</trkpt>
<trkpt lat="45.9538730" lon="10.1562240">
	<ele>1323.80</ele>
	<time>2025-08-03T10:03:19.000Z</time>
</trkpt>
<trkpt lat="45.9538600" lon="10.1562150">
	<ele>1323.40</ele>
	<time>2025-08-03T10:03:20.000Z</time>
</trkpt>
<trkpt lat="45.9538460" lon="10.1561960">
	<ele>1323.00</ele>
	<time>2025-08-03T10:03:21.000Z</time>
</trkpt>
<trkpt lat="45.9538260" lon="10.1561750">
	<ele>1322.60</ele>
	<time>2025-08-03T10:03:22.000Z</time>
</trkpt>
<trkpt lat="45.9538060" lon="10.1561600">
	<ele>1322.40</ele>
	<time>2025-08-03T10:03:23.000Z</time>
</trkpt>
<trkpt lat="45.9537910" lon="10.1561460">
	<ele>1322.20</ele>
	<time>2025-08-03T10:03:24.000Z</time>
</trkpt>
<trkpt lat="45.9537760" lon="10.1561570">
	<ele>1322.00</ele>
	<time>2025-08-03T10:03:25.000Z</time>
</trkpt>
<trkpt lat="45.9537620" lon="10.1561600">
	<ele>1321.80</ele>
	<time>2025-08-03T10:03:26.000Z</time>
</trkpt>
<trkpt lat="45.9537500" lon="10.1561560">
	<ele>1321.40</ele>
	<time>2025-08-03T10:03:27.000Z</time>
</trkpt>
<trkpt lat="45.9537440" lon="10.1561570">
	<ele>1321.20</ele>
	<time>2025-08-03T10:03:28.000Z</time>
</trkpt>
<trkpt lat="45.9537360" lon="10.1561510">
	<ele>1321.00</ele>
	<time>2025-08-03T10:03:29.000Z</time>
</trkpt>
<trkpt lat="45.9537250" lon="10.1561490">
	<ele>1320.80</ele>
	<time>2025-08-03T10:03:30.000Z</time>
</trkpt>
<trkpt lat="45.9537070" lon="10.1561460">
	<ele>1320.60</ele>
	<time>2025-08-03T10:03:31.000Z</time>
</trkpt>
<trkpt lat="45.9536850" lon="10.1561420">
	<ele>1320.40</ele>
	<time>2025-08-03T10:03:32.000Z</time>
</trkpt>
<trkpt lat="45.9536660" lon="10.1561510">
	<ele>1320.00</ele>
	<time>2025-08-03T10:03:33.000Z</time>
</trkpt>
<trkpt lat="45.9536540" lon="10.1561580">
	<ele>1319.80</ele>
	<time>2025-08-03T10:03:34.000Z</time>
</trkpt>
<trkpt lat="45.9536420" lon="10.1561470">
	<ele>1319.40</ele>
	<time>2025-08-03T10:03:35.000Z</time>
</trkpt>
<trkpt lat="45.9536240" lon="10.1561270">
	<ele>1319.20</ele>
	<time>2025-08-03T10:03:36.000Z</time>
</trkpt>
<trkpt lat="45.9536110" lon="10.1561090">
	<ele>1319.20</ele>
	<time>2025-08-03T10:03:37.000Z</time>
</trkpt>
<trkpt lat="45.9536000" lon="10.1560900">
	<ele>1318.80</ele>
	<time>2025-08-03T10:03:38.000Z</time>
</trkpt>
<trkpt lat="45.9535870" lon="10.1560710">
	<ele>1318.40</ele>
	<time>2025-08-03T10:03:39.000Z</time>
</trkpt>
<trkpt lat="45.9535720" lon="10.1560490">
	<ele>1318.00</ele>
	<time>2025-08-03T10:03:40.000Z</time>
</trkpt>
<trkpt lat="45.9535550" lon="10.1560270">
	<ele>1317.80</ele>
	<time>2025-08-03T10:03:41.000Z</time>
</trkpt>
<trkpt lat="45.9535400" lon="10.1560100">
	<ele>1317.40</ele>
	<time>2025-08-03T10:03:42.000Z</time>
</trkpt>
<trkpt lat="45.9535310" lon="10.1559990">
	<ele>1317.20</ele>
	<time>2025-08-03T10:03:43.000Z</time>
</trkpt>
<trkpt lat="45.9535220" lon="10.1559910">
	<ele>1316.80</ele>
	<time>2025-08-03T10:03:44.000Z</time>
</trkpt>
<trkpt lat="45.9535120" lon="10.1559870">
	<ele>1316.60</ele>
	<time>2025-08-03T10:03:45.000Z</time>
</trkpt>
<trkpt lat="45.9535060" lon="10.1559840">
	<ele>1316.20</ele>
	<time>2025-08-03T10:03:46.000Z</time>
</trkpt>
<trkpt lat="45.9535020" lon="10.1559820">
	<ele>1315.80</ele>
	<time>2025-08-03T10:03:47.000Z</time>
</trkpt>
<trkpt lat="45.9534950" lon="10.1559780">
	<ele>1315.40</ele>
	<time>2025-08-03T10:03:48.000Z</time>
</trkpt>
<trkpt lat="45.9534790" lon="10.1559600">
	<ele>1315.20</ele>
	<time>2025-08-03T10:03:49.000Z</time>
</trkpt>
<trkpt lat="45.9534530" lon="10.1559330">
	<ele>1315.00</ele>
	<time>2025-08-03T10:03:50.000Z</time>
</trkpt>
<trkpt lat="45.9534300" lon="10.1559070">
	<ele>1314.60</ele>
	<time>2025-08-03T10:03:51.000Z</time>
</trkpt>
<trkpt lat="45.9534140" lon="10.1558810">
	<ele>1314.00</ele>
	<time>2025-08-03T10:03:52.000Z</time>
</trkpt>
<trkpt lat="45.9534030" lon="10.1558680">
	<ele>1313.60</ele>
	<time>2025-08-03T10:03:53.000Z</time>
</trkpt>
<trkpt lat="45.9533920" lon="10.1558620">
	<ele>1313.40</ele>
	<time>2025-08-03T10:03:54.000Z</time>
</trkpt>
<trkpt lat="45.9533790" lon="10.1558560">
	<ele>1313.00</ele>
	<time>2025-08-03T10:03:55.000Z</time>
</trkpt>
<trkpt lat="45.9533770" lon="10.1558520">
	<ele>1312.80</ele>
	<time>2025-08-03T10:03:56.000Z</time>
</trkpt>
<trkpt lat="45.9533710" lon="10.1558450">
	<ele>1312.60</ele>
	<time>2025-08-03T10:03:57.000Z</time>
</trkpt>
<trkpt lat="45.9533850" lon="10.1558590">
	<ele>1312.40</ele>
	<time>2025-08-03T10:03:58.000Z</time>
</trkpt>
<trkpt lat="45.9533930" lon="10.1558610">
	<ele>1312.20</ele>
	<time>2025-08-03T10:03:59.000Z</time>
</trkpt>
<trkpt lat="45.9533940" lon="10.1558550">
	<ele>1311.80</ele>
	<time>2025-08-03T10:04:00.000Z</time>
</trkpt>
<trkpt lat="45.9533960" lon="10.1558490">
	<ele>1311.40</ele>
	<time>2025-08-03T10:04:01.000Z</time>
</trkpt>
<trkpt lat="45.9533940" lon="10.1558440">
	<ele>1311.20</ele>
	<time>2025-08-03T10:04:02.000Z</time>
</trkpt>
<trkpt lat="45.9534010" lon="10.1558490">
	<ele>1310.80</ele>
	<time>2025-08-03T10:04:03.000Z</time>
</trkpt>
<trkpt lat="45.9534010" lon="10.1558520">
	<ele>1310.40</ele>
	<time>2025-08-03T10:04:04.000Z</time>
</trkpt>
<trkpt lat="45.9534000" lon="10.1558520">
	<ele>1310.00</ele>
	<time>2025-08-03T10:04:05.000Z</time>
</trkpt>
<trkpt lat="45.9533980" lon="10.1558560">
	<ele>1310.00</ele>
	<time>2025-08-03T10:04:06.000Z</time>
</trkpt>
<trkpt lat="45.9533920" lon="10.1558580">
	<ele>1309.40</ele>
	<time>2025-08-03T10:04:07.000Z</time>
</trkpt>
<trkpt lat="45.9533840" lon="10.1558590">
	<ele>1309.00</ele>
	<time>2025-08-03T10:04:08.000Z</time>
</trkpt>
<trkpt lat="45.9533750" lon="10.1558610">
	<ele>1308.80</ele>
	<time>2025-08-03T10:04:09.000Z</time>
</trkpt>
<trkpt lat="45.9533810" lon="10.1558760">
	<ele>1308.40</ele>
	<time>2025-08-03T10:04:10.000Z</time>
</trkpt>
<trkpt lat="45.9533760" lon="10.1558810">
	<ele>1308.00</ele>
	<time>2025-08-03T10:04:11.000Z</time>
</trkpt>
<trkpt lat="45.9533680" lon="10.1558790">
	<ele>1307.60</ele>
	<time>2025-08-03T10:04:12.000Z</time>
</trkpt>
<trkpt lat="45.9533620" lon="10.1558700">
	<ele>1307.40</ele>
	<time>2025-08-03T10:04:13.000Z</time>
</trkpt>
<trkpt lat="45.9533590" lon="10.1558560">
	<ele>1307.00</ele>
	<time>2025-08-03T10:04:14.000Z</time>
</trkpt>
<trkpt lat="45.9533560" lon="10.1558480">
	<ele>1306.60</ele>
	<time>2025-08-03T10:04:15.000Z</time>
</trkpt>
<trkpt lat="45.9533520" lon="10.1558470">
	<ele>1306.20</ele>
	<time>2025-08-03T10:04:16.000Z</time>
</trkpt>
<trkpt lat="45.9533460" lon="10.1558470">
	<ele>1306.00</ele>
	<time>2025-08-03T10:04:17.000Z</time>
</trkpt>
<trkpt lat="45.9533440" lon="10.1558480">
	<ele>1305.60</ele>
	<time>2025-08-03T10:04:18.000Z</time>
</trkpt>
<trkpt lat="45.9533420" lon="10.1558450">
	<ele>1305.20</ele>
	<time>2025-08-03T10:04:19.000Z</time>
</trkpt>
<trkpt lat="45.9533340" lon="10.1558370">
	<ele>1305.00</ele>
	<time>2025-08-03T10:04:20.000Z</time>
</trkpt>
<trkpt lat="45.9533210" lon="10.1558280">
	<ele>1304.60</ele>
	<time>2025-08-03T10:04:21.000Z</time>
</trkpt>
<trkpt lat="45.9532990" lon="10.1558100">
	<ele>1304.20</ele>
	<time>2025-08-03T10:04:22.000Z</time>
</trkpt>
<trkpt lat="45.9532850" lon="10.1557930">
	<ele>1304.00</ele>
	<time>2025-08-03T10:04:23.000Z</time>
</trkpt>
<trkpt lat="45.9532730" lon="10.1557820">
	<ele>1303.60</ele>
	<time>2025-08-03T10:04:24.000Z</time>
</trkpt>
<trkpt lat="45.9532650" lon="10.1557710">
	<ele>1303.40</ele>
	<time>2025-08-03T10:04:25.000Z</time>
</trkpt>
<trkpt lat="45.9532560" lon="10.1557600">
	<ele>1303.20</ele>
	<time>2025-08-03T10:04:26.000Z</time>
</trkpt>
<trkpt lat="45.9532460" lon="10.1557450">
	<ele>1303.00</ele>
	<time>2025-08-03T10:04:27.000Z</time>
</trkpt>
<trkpt lat="45.9532440" lon="10.1557430">
	<ele>1303.00</ele>
	<time>2025-08-03T10:04:28.000Z</time>
</trkpt>
<trkpt lat="45.9532360" lon="10.1557360">
	<ele>1303.00</ele>
	<time>2025-08-03T10:04:29.000Z</time>
</trkpt>
<trkpt lat="45.9532280" lon="10.1557330">
	<ele>1302.80</ele>
	<time>2025-08-03T10:04:30.000Z</time>
</trkpt>
<trkpt lat="45.9532220" lon="10.1557420">
	<ele>1302.80</ele>
	<time>2025-08-03T10:04:31.000Z</time>
</trkpt>
<trkpt lat="45.9532140" lon="10.1557530">
	<ele>1302.40</ele>
	<time>2025-08-03T10:04:32.000Z</time>
</trkpt>
<trkpt lat="45.9532040" lon="10.1557580">
	<ele>1302.00</ele>
	<time>2025-08-03T10:04:33.000Z</time>
</trkpt>
<trkpt lat="45.9531950" lon="10.1557600">
	<ele>1302.00</ele>
	<time>2025-08-03T10:04:34.000Z</time>
</trkpt>
<trkpt lat="45.9531790" lon="10.1557450">
	<ele>1301.60</ele>
	<time>2025-08-03T10:04:35.000Z</time>
</trkpt>
<trkpt lat="45.9531730" lon="10.1557370">
	<ele>1301.40</ele>
	<time>2025-08-03T10:04:36.000Z</time>
</trkpt>
<trkpt lat="45.9531660" lon="10.1557250">
	<ele>1300.80</ele>
	<time>2025-08-03T10:04:37.000Z</time>
</trkpt>
<trkpt lat="45.9531610" lon="10.1557210">
	<ele>1300.60</ele>
	<time>2025-08-03T10:04:38.000Z</time>
</trkpt>
<trkpt lat="45.9531590" lon="10.1557230">
	<ele>1300.40</ele>
	<time>2025-08-03T10:04:39.000Z</time>
</trkpt>
<trkpt lat="45.9531520" lon="10.1557120">
	<ele>1300.20</ele>
	<time>2025-08-03T10:04:40.000Z</time>
</trkpt>
<trkpt lat="45.9531450" lon="10.1556980">
	<ele>1300.00</ele>
	<time>2025-08-03T10:04:41.000Z</time>
</trkpt>
<trkpt lat="45.9531380" lon="10.1556900">
	<ele>1299.60</ele>
	<time>2025-08-03T10:04:42.000Z</time>
</trkpt>
<trkpt lat="45.9531260" lon="10.1556810">
	<ele>1299.20</ele>
	<time>2025-08-03T10:04:43.000Z</time>
</trkpt>
<trkpt lat="45.9531160" lon="10.1556750">
	<ele>1299.00</ele>
	<time>2025-08-03T10:04:44.000Z</time>
</trkpt>
<trkpt lat="45.9531070" lon="10.1556690">
	<ele>1298.40</ele>
	<time>2025-08-03T10:04:45.000Z</time>
</trkpt>
<trkpt lat="45.9531050" lon="10.1556640">
	<ele>1298.00</ele>
	<time>2025-08-03T10:04:46.000Z</time>
</trkpt>
<trkpt lat="45.9531000" lon="10.1556630">
	<ele>1297.80</ele>
	<time>2025-08-03T10:04:47.000Z</time>
</trkpt>
<trkpt lat="45.9530980" lon="10.1556730">
	<ele>1297.80</ele>
	<time>2025-08-03T10:04:48.000Z</time>
</trkpt>
<trkpt lat="45.9530920" lon="10.1556870">
	<ele>1297.20</ele>
	<time>2025-08-03T10:04:49.000Z</time>
</trkpt>
<trkpt lat="45.9530870" lon="10.1556980">
	<ele>1296.60</ele>
	<time>2025-08-03T10:04:50.000Z</time>
</trkpt>
<trkpt lat="45.9530770" lon="10.1557020">
	<ele>1296.40</ele>
	<time>2025-08-03T10:04:51.000Z</time>
</trkpt>
<trkpt lat="45.9530690" lon="10.1557020">
	<ele>1296.00</ele>
	<time>2025-08-03T10:04:52.000Z</time>
</trkpt>
<trkpt lat="45.9530650" lon="10.1557060">
	<ele>1295.80</ele>
	<time>2025-08-03T10:04:53.000Z</time>
</trkpt>
<trkpt lat="45.9530590" lon="10.1557050">
	<ele>1295.60</ele>
	<time>2025-08-03T10:04:54.000Z</time>
</trkpt>
<trkpt lat="45.9530530" lon="10.1557000">
	<ele>1295.40</ele>
	<time>2025-08-03T10:04:55.000Z</time>
</trkpt>
<trkpt lat="45.9530440" lon="10.1556980">
	<ele>1295.40</ele>
	<time>2025-08-03T10:04:56.000Z</time>
</trkpt>
<trkpt lat="45.9530340" lon="10.1557050">
	<ele>1294.80</ele>
	<time>2025-08-03T10:04:57.000Z</time>
</trkpt>
<trkpt lat="45.9530230" lon="10.1557030">
	<ele>1294.40</ele>
	<time>2025-08-03T10:04:58.000Z</time>
</trkpt>
<trkpt lat="45.9529770" lon="10.1557210">
	<ele>1294.00</ele>
	<time>2025-08-03T10:04:59.000Z</time>
</trkpt>
<trkpt lat="45.9529490" lon="10.1557270">
	<ele>1293.80</ele>
	<time>2025-08-03T10:05:00.000Z</time>
</trkpt>
<trkpt lat="45.9529490" lon="10.1557160">
	<ele>1293.60</ele>
	<time>2025-08-03T10:05:01.000Z</time>
</trkpt>
<trkpt lat="45.9529560" lon="10.1557310">
	<ele>1293.60</ele>
	<time>2025-08-03T10:05:02.000Z</time>
</trkpt>
<trkpt lat="45.9529500" lon="10.1557190">
	<ele>1293.60</ele>
	<time>2025-08-03T10:05:03.000Z</time>
</trkpt>
<trkpt lat="45.9529510" lon="10.1557210">
	<ele>1293.60</ele>
	<time>2025-08-03T10:05:04.000Z</time>
</trkpt>
<trkpt lat="45.9529440" lon="10.1557110">
	<ele>1293.60</ele>
	<time>2025-08-03T10:05:05.000Z</time>
</trkpt>
<trkpt lat="45.9529460" lon="10.1557140">
	<ele>1293.40</ele>
	<time>2025-08-03T10:05:06.000Z</time>
</trkpt>
<trkpt lat="45.9529450" lon="10.1557170">
	<ele>1293.40</ele>
	<time>2025-08-03T10:05:07.000Z</time>
</trkpt>
<trkpt lat="45.9529450" lon="10.1557170">
	<ele>1293.40</ele>
	<time>2025-08-03T10:05:08.000Z</time>
</trkpt>
<trkpt lat="45.9529430" lon="10.1557170">
	<ele>1293.40</ele>
	<time>2025-08-03T10:05:09.000Z</time>
</trkpt>
<trkpt lat="45.9529420" lon="10.1557080">
	<ele>1293.40</ele>
	<time>2025-08-03T10:05:10.000Z</time>
</trkpt>
<trkpt lat="45.9529320" lon="10.1557270">
	<ele>1293.00</ele>
	<time>2025-08-03T10:05:11.000Z</time>
</trkpt>
<trkpt lat="45.9529320" lon="10.1557280">
	<ele>1293.00</ele>
	<time>2025-08-03T10:05:12.000Z</time>
</trkpt>
<trkpt lat="45.9529310" lon="10.1557320">
	<ele>1292.80</ele>
	<time>2025-08-03T10:05:13.000Z</time>
</trkpt>
<trkpt lat="45.9529350" lon="10.1557480">
	<ele>1292.60</ele>
	<time>2025-08-03T10:05:14.000Z</time>
</trkpt>
<trkpt lat="45.9529320" lon="10.1557450">
	<ele>1292.40</ele>
	<time>2025-08-03T10:05:15.000Z</time>
</trkpt>
<trkpt lat="45.9529300" lon="10.1557420">
	<ele>1292.00</ele>
	<time>2025-08-03T10:05:16.000Z</time>
</trkpt>
<trkpt lat="45.9529310" lon="10.1557490">
	<ele>1291.80</ele>
	<time>2025-08-03T10:05:17.000Z</time>
</trkpt>
<trkpt lat="45.9529340" lon="10.1557470">
	<ele>1291.60</ele>
	<time>2025-08-03T10:05:18.000Z</time>
</trkpt>
<trkpt lat="45.9529310" lon="10.1557430">
	<ele>1291.40</ele>
	<time>2025-08-03T10:05:19.000Z</time>
</trkpt>
<trkpt lat="45.9529280" lon="10.1557350">
	<ele>1291.20</ele>
	<time>2025-08-03T10:05:20.000Z</time>
</trkpt>
<trkpt lat="45.9529230" lon="10.1557250">
	<ele>1290.80</ele>
	<time>2025-08-03T10:05:21.000Z</time>
</trkpt>
<trkpt lat="45.9529200" lon="10.1557170">
	<ele>1290.40</ele>
	<time>2025-08-03T10:05:22.000Z</time>
</trkpt>
<trkpt lat="45.9529170" lon="10.1557150">
	<ele>1290.00</ele>
	<time>2025-08-03T10:05:23.000Z</time>
</trkpt>
<trkpt lat="45.9529300" lon="10.1557160">
	<ele>1289.80</ele>
	<time>2025-08-03T10:05:24.000Z</time>
</trkpt>
<trkpt lat="45.9529260" lon="10.1557130">
	<ele>1289.60</ele>
	<time>2025-08-03T10:05:25.000Z</time>
</trkpt>
<trkpt lat="45.9529210" lon="10.1557170">
	<ele>1289.20</ele>
	<time>2025-08-03T10:05:26.000Z</time>
</trkpt>
<trkpt lat="45.9529230" lon="10.1557250">
	<ele>1289.00</ele>
	<time>2025-08-03T10:05:27.000Z</time>
</trkpt>
<trkpt lat="45.9529270" lon="10.1557250">
	<ele>1288.60</ele>
	<time>2025-08-03T10:05:28.000Z</time>
</trkpt>
<trkpt lat="45.9529250" lon="10.1557240">
	<ele>1288.40</ele>
	<time>2025-08-03T10:05:29.000Z</time>
</trkpt>
<trkpt lat="45.9529200" lon="10.1557230">
	<ele>1288.20</ele>
	<time>2025-08-03T10:05:30.000Z</time>
</trkpt>
<trkpt lat="45.9529150" lon="10.1557220">
	<ele>1287.80</ele>
	<time>2025-08-03T10:05:31.000Z</time>
</trkpt>
<trkpt lat="45.9529100" lon="10.1557260">
	<ele>1287.40</ele>
	<time>2025-08-03T10:05:32.000Z</time>
</trkpt>
<trkpt lat="45.9529070" lon="10.1557210">
	<ele>1287.00</ele>
	<time>2025-08-03T10:05:33.000Z</time>
</trkpt>
<trkpt lat="45.9529170" lon="10.1557280">
	<ele>1286.60</ele>
	<time>2025-08-03T10:05:34.000Z</time>
</trkpt>
<trkpt lat="45.9529220" lon="10.1557290">
	<ele>1286.40</ele>
	<time>2025-08-03T10:05:35.000Z</time>
</trkpt>
<trkpt lat="45.9529280" lon="10.1557340">
	<ele>1286.20</ele>
	<time>2025-08-03T10:05:36.000Z</time>
</trkpt>
<trkpt lat="45.9529330" lon="10.1557350">
	<ele>1286.00</ele>
	<time>2025-08-03T10:05:37.000Z</time>
</trkpt>
<trkpt lat="45.9529350" lon="10.1557320">
	<ele>1286.00</ele>
	<time>2025-08-03T10:05:38.000Z</time>
</trkpt>
<trkpt lat="45.9529300" lon="10.1557190">
	<ele>1285.60</ele>
	<time>2025-08-03T10:05:39.000Z</time>
</trkpt>
<trkpt lat="45.9529220" lon="10.1557050">
	<ele>1285.20</ele>
	<time>2025-08-03T10:05:40.000Z</time>
</trkpt>
<trkpt lat="45.9529120" lon="10.1556960">
	<ele>1284.80</ele>
	<time>2025-08-03T10:05:41.000Z</time>
</trkpt>
<trkpt lat="45.9528990" lon="10.1556820">
	<ele>1284.40</ele>
	<time>2025-08-03T10:05:42.000Z</time>
</trkpt>
<trkpt lat="45.9528880" lon="10.1556780">
	<ele>1284.20</ele>
	<time>2025-08-03T10:05:43.000Z</time>
</trkpt>
<trkpt lat="45.9528870" lon="10.1556920">
	<ele>1284.00</ele>
	<time>2025-08-03T10:05:44.000Z</time>
</trkpt>
<trkpt lat="45.9528700" lon="10.1556790">
	<ele>1283.40</ele>
	<time>2025-08-03T10:05:45.000Z</time>
</trkpt>
<trkpt lat="45.9528540" lon="10.1556660">
	<ele>1283.00</ele>
	<time>2025-08-03T10:05:46.000Z</time>
</trkpt>
<trkpt lat="45.9528440" lon="10.1556560">
	<ele>1282.60</ele>
	<time>2025-08-03T10:05:47.000Z</time>
</trkpt>
<trkpt lat="45.9528330" lon="10.1556460">
	<ele>1282.20</ele>
	<time>2025-08-03T10:05:48.000Z</time>
</trkpt>
<trkpt lat="45.9528290" lon="10.1556390">
	<ele>1281.80</ele>
	<time>2025-08-03T10:05:49.000Z</time>
</trkpt>
<trkpt lat="45.9528160" lon="10.1556200">
	<ele>1281.40</ele>
	<time>2025-08-03T10:05:50.000Z</time>
</trkpt>
<trkpt lat="45.9527950" lon="10.1555990">
	<ele>1281.20</ele>
	<time>2025-08-03T10:05:51.000Z</time>
</trkpt>
<trkpt lat="45.9527810" lon="10.1555820">
	<ele>1280.80</ele>
	<time>2025-08-03T10:05:52.000Z</time>
</trkpt>
<trkpt lat="45.9527720" lon="10.1555760">
	<ele>1280.40</ele>
	<time>2025-08-03T10:05:53.000Z</time>
</trkpt>
<trkpt lat="45.9527610" lon="10.1555730">
	<ele>1280.20</ele>
	<time>2025-08-03T10:05:54.000Z</time>
</trkpt>
<trkpt lat="45.9527560" lon="10.1555730">
	<ele>1279.80</ele>
	<time>2025-08-03T10:05:55.000Z</time>
</trkpt>
<trkpt lat="45.9527500" lon="10.1555760">
	<ele>1279.40</ele>
	<time>2025-08-03T10:05:56.000Z</time>
</trkpt>
<trkpt lat="45.9527460" lon="10.1555790">
	<ele>1279.20</ele>
	<time>2025-08-03T10:05:57.000Z</time>
</trkpt>
<trkpt lat="45.9527410" lon="10.1555740">
	<ele>1278.80</ele>
	<time>2025-08-03T10:05:58.000Z</time>
</trkpt>
<trkpt lat="45.9527380" lon="10.1555740">
	<ele>1278.40</ele>
	<time>2025-08-03T10:05:59.000Z</time>
</trkpt>
<trkpt lat="45.9527430" lon="10.1555780">
	<ele>1278.00</ele>
	<time>2025-08-03T10:06:00.000Z</time>
</trkpt>
<trkpt lat="45.9527500" lon="10.1555830">
	<ele>1277.60</ele>
	<time>2025-08-03T10:06:01.000Z</time>
</trkpt>
<trkpt lat="45.9527480" lon="10.1555820">
	<ele>1277.40</ele>
	<time>2025-08-03T10:06:02.000Z</time>
</trkpt>
<trkpt lat="45.9527430" lon="10.1555850">
	<ele>1277.20</ele>
	<time>2025-08-03T10:06:03.000Z</time>
</trkpt>
<trkpt lat="45.9527440" lon="10.1555770">
	<ele>1277.00</ele>
	<time>2025-08-03T10:06:04.000Z</time>
</trkpt>
<trkpt lat="45.9527460" lon="10.1555740">
	<ele>1277.00</ele>
	<time>2025-08-03T10:06:05.000Z</time>
</trkpt>
<trkpt lat="45.9527430" lon="10.1555690">
	<ele>1276.80</ele>
	<time>2025-08-03T10:06:06.000Z</time>
</trkpt>
<trkpt lat="45.9527430" lon="10.1555680">
	<ele>1276.80</ele>
	<time>2025-08-03T10:06:07.000Z</time>
</trkpt>
<trkpt lat="45.9527370" lon="10.1555640">
	<ele>1276.80</ele>
	<time>2025-08-03T10:06:08.000Z</time>
</trkpt>
<trkpt lat="45.9527370" lon="10.1555610">
	<ele>1277.00</ele>
	<time>2025-08-03T10:06:09.000Z</time>
</trkpt>
<trkpt lat="45.9527290" lon="10.1555620">
	<ele>1277.00</ele>
	<time>2025-08-03T10:06:10.000Z</time>
</trkpt>
<trkpt lat="45.9527200" lon="10.1555600">
	<ele>1277.00</ele>
	<time>2025-08-03T10:06:11.000Z</time>
</trkpt>
<trkpt lat="45.9527140" lon="10.1555520">
	<ele>1277.00</ele>
	<time>2025-08-03T10:06:12.000Z</time>
</trkpt>
<trkpt lat="45.9527100" lon="10.1555450">
	<ele>1277.20</ele>
	<time>2025-08-03T10:06:13.000Z</time>
</trkpt>
<trkpt lat="45.9527030" lon="10.1555430">
	<ele>1277.20</ele>
	<time>2025-08-03T10:06:14.000Z</time>
</trkpt>
<trkpt lat="45.9526970" lon="10.1555360">
	<ele>1277.20</ele>
	<time>2025-08-03T10:06:15.000Z</time>
</trkpt>
<trkpt lat="45.9526910" lon="10.1555370">
	<ele>1277.20</ele>
	<time>2025-08-03T10:06:16.000Z</time>
</trkpt>
<trkpt lat="45.9526940" lon="10.1555350">
	<ele>1277.20</ele>
	<time>2025-08-03T10:06:17.000Z</time>
</trkpt>
<trkpt lat="45.9526990" lon="10.1555390">
	<ele>1277.40</ele>
	<time>2025-08-03T10:06:18.000Z</time>
</trkpt>
<trkpt lat="45.9526980" lon="10.1555410">
	<ele>1277.40</ele>
	<time>2025-08-03T10:06:19.000Z</time>
</trkpt>
<trkpt lat="45.9526920" lon="10.1555370">
	<ele>1277.40</ele>
	<time>2025-08-03T10:06:20.000Z</time>
</trkpt>
<trkpt lat="45.9526810" lon="10.1555290">
	<ele>1277.40</ele>
	<time>2025-08-03T10:06:21.000Z</time>
</trkpt>
<trkpt lat="45.9526810" lon="10.1555250">
	<ele>1277.40</ele>
	<time>2025-08-03T10:06:22.000Z</time>
</trkpt>
<trkpt lat="45.9526690" lon="10.1555160">
	<ele>1277.40</ele>
	<time>2025-08-03T10:06:23.000Z</time>
</trkpt>
<trkpt lat="45.9526570" lon="10.1555040">
	<ele>1277.40</ele>
	<time>2025-08-03T10:06:24.000Z</time>
</trkpt>
<trkpt lat="45.9526560" lon="10.1555000">
	<ele>1277.40</ele>
	<time>2025-08-03T10:06:25.000Z</time>
</trkpt>
<trkpt lat="45.9526500" lon="10.1555000">
	<ele>1277.40</ele>
	<time>2025-08-03T10:06:26.000Z</time>
</trkpt>
<trkpt lat="45.9526460" lon="10.1555050">
	<ele>1277.40</ele>
	<time>2025-08-03T10:06:27.000Z</time>
</trkpt>
<trkpt lat="45.9526340" lon="10.1555040">
	<ele>1277.40</ele>
	<time>2025-08-03T10:06:28.000Z</time>
</trkpt>
<trkpt lat="45.9526370" lon="10.1555080">
	<ele>1277.40</ele>
	<time>2025-08-03T10:06:29.000Z</time>
</trkpt>
<trkpt lat="45.9526270" lon="10.1554920">
	<ele>1277.40</ele>
	<time>2025-08-03T10:06:30.000Z</time>
</trkpt>
<trkpt lat="45.9526150" lon="10.1554730">
	<ele>1277.40</ele>
	<time>2025-08-03T10:06:31.000Z</time>
</trkpt>
<trkpt lat="45.9525970" lon="10.1554590">
	<ele>1277.40</ele>
	<time>2025-08-03T10:06:32.000Z</time>
</trkpt>
<trkpt lat="45.9525900" lon="10.1554640">
	<ele>1277.40</ele>
	<time>2025-08-03T10:06:33.000Z</time>
</trkpt>
<trkpt lat="45.9525890" lon="10.1554580">
	<ele>1277.40</ele>
	<time>2025-08-03T10:06:34.000Z</time>
</trkpt>
<trkpt lat="45.9525840" lon="10.1554560">
	<ele>1277.20</ele>
	<time>2025-08-03T10:06:35.000Z</time>
</trkpt>
<trkpt lat="45.9525780" lon="10.1554500">
	<ele>1277.20</ele>
	<time>2025-08-03T10:06:36.000Z</time>
</trkpt>
<trkpt lat="45.9525730" lon="10.1554460">
	<ele>1277.00</ele>
	<time>2025-08-03T10:06:37.000Z</time>
</trkpt>
<trkpt lat="45.9525670" lon="10.1554450">
	<ele>1277.00</ele>
	<time>2025-08-03T10:06:38.000Z</time>
</trkpt>
<trkpt lat="45.9525750" lon="10.1554570">
	<ele>1276.80</ele>
	<time>2025-08-03T10:06:39.000Z</time>
</trkpt>
<trkpt lat="45.9525780" lon="10.1554630">
	<ele>1276.80</ele>
	<time>2025-08-03T10:06:40.000Z</time>
</trkpt>
<trkpt lat="45.9525820" lon="10.1554700">
	<ele>1276.60</ele>
	<time>2025-08-03T10:06:41.000Z</time>
</trkpt>
<trkpt lat="45.9525900" lon="10.1554790">
	<ele>1276.40</ele>
	<time>2025-08-03T10:06:42.000Z</time>
</trkpt>
<trkpt lat="45.9526100" lon="10.1554920">
	<ele>1276.20</ele>
	<time>2025-08-03T10:06:43.000Z</time>
</trkpt>
<trkpt lat="45.9526240" lon="10.1554840">
	<ele>1276.20</ele>
	<time>2025-08-03T10:06:44.000Z</time>
</trkpt>
<trkpt lat="45.9526230" lon="10.1554790">
	<ele>1276.00</ele>
	<time>2025-08-03T10:06:45.000Z</time>
</trkpt>
<trkpt lat="45.9526230" lon="10.1554770">
	<ele>1276.00</ele>
	<time>2025-08-03T10:06:46.000Z</time>
</trkpt>
<trkpt lat="45.9526250" lon="10.1554740">
	<ele>1276.00</ele>
	<time>2025-08-03T10:06:47.000Z</time>
</trkpt>
<trkpt lat="45.9526230" lon="10.1554780">
	<ele>1275.80</ele>
	<time>2025-08-03T10:06:48.000Z</time>
</trkpt>
<trkpt lat="45.9526240" lon="10.1554760">
	<ele>1275.80</ele>
	<time>2025-08-03T10:06:49.000Z</time>
</trkpt>
<trkpt lat="45.9526330" lon="10.1554760">
	<ele>1275.80</ele>
	<time>2025-08-03T10:06:50.000Z</time>
</trkpt>
<trkpt lat="45.9526460" lon="10.1554770">
	<ele>1275.80</ele>
	<time>2025-08-03T10:06:51.000Z</time>
</trkpt>
<trkpt lat="45.9526570" lon="10.1554720">
	<ele>1275.80</ele>
	<time>2025-08-03T10:06:52.000Z</time>
</trkpt>
<trkpt lat="45.9526590" lon="10.1554630">
	<ele>1276.00</ele>
	<time>2025-08-03T10:06:53.000Z</time>
</trkpt>
<trkpt lat="45.9526570" lon="10.1554470">
	<ele>1276.00</ele>
	<time>2025-08-03T10:06:54.000Z</time>
</trkpt>
<trkpt lat="45.9526590" lon="10.1554260">
	<ele>1276.20</ele>
	<time>2025-08-03T10:06:55.000Z</time>
</trkpt>
<trkpt lat="45.9526630" lon="10.1554150">
	<ele>1276.40</ele>
	<time>2025-08-03T10:06:56.000Z</time>
</trkpt>
<trkpt lat="45.9526710" lon="10.1554140">
	<ele>1276.80</ele>
	<time>2025-08-03T10:06:57.000Z</time>
</trkpt>
<trkpt lat="45.9526770" lon="10.1554150">
	<ele>1277.00</ele>
	<time>2025-08-03T10:06:58.000Z</time>
</trkpt>
<trkpt lat="45.9526710" lon="10.1554060">
	<ele>1277.20</ele>
	<time>2025-08-03T10:06:59.000Z</time>
</trkpt>
<trkpt lat="45.9526670" lon="10.1554020">
	<ele>1277.20</ele>
	<time>2025-08-03T10:07:00.000Z</time>
</trkpt>
<trkpt lat="45.9526710" lon="10.1554000">
	<ele>1277.20</ele>
	<time>2025-08-03T10:07:01.000Z</time>
</trkpt>
<trkpt lat="45.9526690" lon="10.1554170">
	<ele>1277.20</ele>
	<time>2025-08-03T10:07:02.000Z</time>
</trkpt>
<trkpt lat="45.9526710" lon="10.1554230">
	<ele>1277.00</ele>
	<time>2025-08-03T10:07:03.000Z</time>
</trkpt>
<trkpt lat="45.9526660" lon="10.1554120">
	<ele>1276.80</ele>
	<time>2025-08-03T10:07:04.000Z</time>
</trkpt>
<trkpt lat="45.9526590" lon="10.1554080">
	<ele>1276.60</ele>
	<time>2025-08-03T10:07:05.000Z</time>
</trkpt>
<trkpt lat="45.9526570" lon="10.1554090">
	<ele>1276.40</ele>
	<time>2025-08-03T10:07:06.000Z</time>
</trkpt>
<trkpt lat="45.9526510" lon="10.1554140">
	<ele>1276.20</ele>
	<time>2025-08-03T10:07:07.000Z</time>
</trkpt>
<trkpt lat="45.9526330" lon="10.1554260">
	<ele>1276.20</ele>
	<time>2025-08-03T10:07:08.000Z</time>
</trkpt>
<trkpt lat="45.9526190" lon="10.1554400">
	<ele>1275.80</ele>
	<time>2025-08-03T10:07:09.000Z</time>
</trkpt>
<trkpt lat="45.9526180" lon="10.1554410">
	<ele>1275.60</ele>
	<time>2025-08-03T10:07:10.000Z</time>
</trkpt>
<trkpt lat="45.9526170" lon="10.1554430">
	<ele>1275.40</ele>
	<time>2025-08-03T10:07:11.000Z</time>
</trkpt>
<trkpt lat="45.9526160" lon="10.1554450">
	<ele>1275.40</ele>
	<time>2025-08-03T10:07:12.000Z</time>
</trkpt>
<trkpt lat="45.9526150" lon="10.1554450">
	<ele>1275.20</ele>
	<time>2025-08-03T10:07:13.000Z</time>
</trkpt>
<trkpt lat="45.9526150" lon="10.1554450">
	<ele>1275.20</ele>
	<time>2025-08-03T10:07:14.000Z</time>
</trkpt>
<trkpt lat="45.9526140" lon="10.1554440">
	<ele>1275.20</ele>
	<time>2025-08-03T10:07:15.000Z</time>
</trkpt>
<trkpt lat="45.9526150" lon="10.1554440">
	<ele>1275.20</ele>
	<time>2025-08-03T10:07:16.000Z</time>
</trkpt>
<trkpt lat="45.9526150" lon="10.1554440">
	<ele>1275.00</ele>
	<time>2025-08-03T10:07:17.000Z</time>
</trkpt>
<trkpt lat="45.9526150" lon="10.1554440">
	<ele>1275.00</ele>
	<time>2025-08-03T10:07:18.000Z</time>
</trkpt>
<trkpt lat="45.9526160" lon="10.1554440">
	<ele>1275.00</ele>
	<time>2025-08-03T10:07:19.000Z</time>
</trkpt>
<trkpt lat="45.9526160" lon="10.1554430">
	<ele>1275.20</ele>
	<time>2025-08-03T10:07:20.000Z</time>
</trkpt>
<trkpt lat="45.9526170" lon="10.1554420">
	<ele>1275.20</ele>
	<time>2025-08-03T10:07:21.000Z</time>
</trkpt>
<trkpt lat="45.9526160" lon="10.1554430">
	<ele>1275.20</ele>
	<time>2025-08-03T10:07:22.000Z</time>
</trkpt>
<trkpt lat="45.9526170" lon="10.1554430">
	<ele>1275.20</ele>
	<time>2025-08-03T10:07:23.000Z</time>
</trkpt>
<trkpt lat="45.9526170" lon="10.1554430">
	<ele>1275.20</ele>
	<time>2025-08-03T10:07:24.000Z</time>
</trkpt>
<trkpt lat="45.9526170" lon="10.1554430">
	<ele>1275.20</ele>
	<time>2025-08-03T10:07:25.000Z</time>
</trkpt>
<trkpt lat="45.9526170" lon="10.1554430">
	<ele>1275.20</ele>
	<time>2025-08-03T10:07:26.000Z</time>
</trkpt>
<trkpt lat="45.9526170" lon="10.1554430">
	<ele>1275.20</ele>
	<time>2025-08-03T10:07:27.000Z</time>
</trkpt>
<trkpt lat="45.9526170" lon="10.1554430">
	<ele>1275.20</ele>
	<time>2025-08-03T10:07:28.000Z</time>
</trkpt>
<trkpt lat="45.9526170" lon="10.1554430">
	<ele>1275.20</ele>
	<time>2025-08-03T10:07:29.000Z</time>
</trkpt>
<trkpt lat="45.9526170" lon="10.1554430">
	<ele>1274.80</ele>
	<time>2025-08-03T10:07:30.000Z</time>
</trkpt>
<trkpt lat="45.9526170" lon="10.1554430">
	<ele>1274.60</ele>
	<time>2025-08-03T10:07:31.000Z</time>
</trkpt>
<trkpt lat="45.9526110" lon="10.1554390">
	<ele>1274.60</ele>
	<time>2025-08-03T10:07:32.000Z</time>
</trkpt>
<trkpt lat="45.9525880" lon="10.1554330">
	<ele>1274.40</ele>
	<time>2025-08-03T10:07:33.000Z</time>
</trkpt>
<trkpt lat="45.9525730" lon="10.1554360">
	<ele>1274.00</ele>
	<time>2025-08-03T10:07:34.000Z</time>
</trkpt>
<trkpt lat="45.9525520" lon="10.1554340">
	<ele>1273.80</ele>
	<time>2025-08-03T10:07:35.000Z</time>
</trkpt>
<trkpt lat="45.9525420" lon="10.1554340">
	<ele>1273.40</ele>
	<time>2025-08-03T10:07:36.000Z</time>
</trkpt>
<trkpt lat="45.9525300" lon="10.1554250">
	<ele>1273.20</ele>
	<time>2025-08-03T10:07:37.000Z</time>
</trkpt>
<trkpt lat="45.9525240" lon="10.1554200">
	<ele>1273.00</ele>
	<time>2025-08-03T10:07:38.000Z</time>
</trkpt>
<trkpt lat="45.9525190" lon="10.1554150">
	<ele>1272.60</ele>
	<time>2025-08-03T10:07:39.000Z</time>
</trkpt>
<trkpt lat="45.9525140" lon="10.1554080">
	<ele>1272.40</ele>
	<time>2025-08-03T10:07:40.000Z</time>
</trkpt>
<trkpt lat="45.9525070" lon="10.1554030">
	<ele>1272.00</ele>
	<time>2025-08-03T10:07:41.000Z</time>
</trkpt>
<trkpt lat="45.9525060" lon="10.1554160">
	<ele>1271.80</ele>
	<time>2025-08-03T10:07:42.000Z</time>
</trkpt>
<trkpt lat="45.9525000" lon="10.1554200">
	<ele>1271.40</ele>
	<time>2025-08-03T10:07:43.000Z</time>
</trkpt>
<trkpt lat="45.9524870" lon="10.1554150">
	<ele>1271.00</ele>
	<time>2025-08-03T10:07:44.000Z</time>
</trkpt>
<trkpt lat="45.9524720" lon="10.1554100">
	<ele>1270.80</ele>
	<time>2025-08-03T10:07:45.000Z</time>
</trkpt>
<trkpt lat="45.9524590" lon="10.1554090">
	<ele>1270.20</ele>
	<time>2025-08-03T10:07:46.000Z</time>
</trkpt>
<trkpt lat="45.9524490" lon="10.1554150">
	<ele>1269.80</ele>
	<time>2025-08-03T10:07:47.000Z</time>
</trkpt>
<trkpt lat="45.9524390" lon="10.1554210">
	<ele>1269.60</ele>
	<time>2025-08-03T10:07:48.000Z</time>
</trkpt>
<trkpt lat="45.9524260" lon="10.1554200">
	<ele>1269.40</ele>
	<time>2025-08-03T10:07:49.000Z</time>
</trkpt>
<trkpt lat="45.9524130" lon="10.1554160">
	<ele>1269.00</ele>
	<time>2025-08-03T10:07:50.000Z</time>
</trkpt>
<trkpt lat="45.9523980" lon="10.1554100">
	<ele>1268.60</ele>
	<time>2025-08-03T10:07:51.000Z</time>
</trkpt>
<trkpt lat="45.9523860" lon="10.1554020">
	<ele>1268.20</ele>
	<time>2025-08-03T10:07:52.000Z</time>
</trkpt>
<trkpt lat="45.9523790" lon="10.1553920">
	<ele>1268.00</ele>
	<time>2025-08-03T10:07:53.000Z</time>
</trkpt>
<trkpt lat="45.9523630" lon="10.1553740">
	<ele>1267.80</ele>
	<time>2025-08-03T10:07:54.000Z</time>
</trkpt>
<trkpt lat="45.9523500" lon="10.1553610">
	<ele>1267.20</ele>
	<time>2025-08-03T10:07:55.000Z</time>
</trkpt>
<trkpt lat="45.9523370" lon="10.1553510">
	<ele>1267.00</ele>
	<time>2025-08-03T10:07:56.000Z</time>
</trkpt>
<trkpt lat="45.9523260" lon="10.1553480">
	<ele>1266.80</ele>
	<time>2025-08-03T10:07:57.000Z</time>
</trkpt>
<trkpt lat="45.9523190" lon="10.1553530">
	<ele>1266.40</ele>
	<time>2025-08-03T10:07:58.000Z</time>
</trkpt>
<trkpt lat="45.9523080" lon="10.1553540">
	<ele>1266.40</ele>
	<time>2025-08-03T10:07:59.000Z</time>
</trkpt>
<trkpt lat="45.9522940" lon="10.1553500">
	<ele>1266.00</ele>
	<time>2025-08-03T10:08:00.000Z</time>
</trkpt>
<trkpt lat="45.9522770" lon="10.1553440">
	<ele>1265.40</ele>
	<time>2025-08-03T10:08:01.000Z</time>
</trkpt>
<trkpt lat="45.9522600" lon="10.1553380">
	<ele>1265.00</ele>
	<time>2025-08-03T10:08:02.000Z</time>
</trkpt>
<trkpt lat="45.9522450" lon="10.1553350">
	<ele>1264.60</ele>
	<time>2025-08-03T10:08:03.000Z</time>
</trkpt>
<trkpt lat="45.9522380" lon="10.1553340">
	<ele>1264.20</ele>
	<time>2025-08-03T10:08:04.000Z</time>
</trkpt>
<trkpt lat="45.9522360" lon="10.1553340">
	<ele>1263.80</ele>
	<time>2025-08-03T10:08:05.000Z</time>
</trkpt>
<trkpt lat="45.9522330" lon="10.1553370">
	<ele>1263.60</ele>
	<time>2025-08-03T10:08:06.000Z</time>
</trkpt>
<trkpt lat="45.9522390" lon="10.1553470">
	<ele>1263.40</ele>
	<time>2025-08-03T10:08:07.000Z</time>
</trkpt>
<trkpt lat="45.9522330" lon="10.1553490">
	<ele>1263.00</ele>
	<time>2025-08-03T10:08:08.000Z</time>
</trkpt>
<trkpt lat="45.9522260" lon="10.1553530">
	<ele>1262.80</ele>
	<time>2025-08-03T10:08:09.000Z</time>
</trkpt>
<trkpt lat="45.9522150" lon="10.1553550">
	<ele>1262.40</ele>
	<time>2025-08-03T10:08:10.000Z</time>
</trkpt>
<trkpt lat="45.9522010" lon="10.1553490">
	<ele>1262.20</ele>
	<time>2025-08-03T10:08:11.000Z</time>
</trkpt>
<trkpt lat="45.9521870" lon="10.1553480">
	<ele>1262.00</ele>
	<time>2025-08-03T10:08:12.000Z</time>
</trkpt>
<trkpt lat="45.9521760" lon="10.1553470">
	<ele>1261.80</ele>
	<time>2025-08-03T10:08:13.000Z</time>
</trkpt>
<trkpt lat="45.9521660" lon="10.1553520">
	<ele>1261.40</ele>
	<time>2025-08-03T10:08:14.000Z</time>
</trkpt>
<trkpt lat="45.9521470" lon="10.1553510">
	<ele>1261.40</ele>
	<time>2025-08-03T10:08:15.000Z</time>
</trkpt>
<trkpt lat="45.9521360" lon="10.1553480">
	<ele>1261.20</ele>
	<time>2025-08-03T10:08:16.000Z</time>
</trkpt>
<trkpt lat="45.9521310" lon="10.1553490">
	<ele>1260.80</ele>
	<time>2025-08-03T10:08:17.000Z</time>
</trkpt>
<trkpt lat="45.9521270" lon="10.1553540">
	<ele>1260.60</ele>
	<time>2025-08-03T10:08:18.000Z</time>
</trkpt>
<trkpt lat="45.9521130" lon="10.1553490">
	<ele>1260.20</ele>
	<time>2025-08-03T10:08:19.000Z</time>
</trkpt>
<trkpt lat="45.9520980" lon="10.1553340">
	<ele>1259.80</ele>
	<time>2025-08-03T10:08:20.000Z</time>
</trkpt>
<trkpt lat="45.9520760" lon="10.1553150">
	<ele>1259.40</ele>
	<time>2025-08-03T10:08:21.000Z</time>
</trkpt>
<trkpt lat="45.9520600" lon="10.1552970">
	<ele>1259.00</ele>
	<time>2025-08-03T10:08:22.000Z</time>
</trkpt>
<trkpt lat="45.9520440" lon="10.1552720">
	<ele>1258.80</ele>
	<time>2025-08-03T10:08:23.000Z</time>
</trkpt>
<trkpt lat="45.9520300" lon="10.1552600">
	<ele>1258.20</ele>
	<time>2025-08-03T10:08:24.000Z</time>
</trkpt>
<trkpt lat="45.9520240" lon="10.1552640">
	<ele>1258.00</ele>
	<time>2025-08-03T10:08:25.000Z</time>
</trkpt>
<trkpt lat="45.9520210" lon="10.1552610">
	<ele>1257.60</ele>
	<time>2025-08-03T10:08:26.000Z</time>
</trkpt>
<trkpt lat="45.9520180" lon="10.1552600">
	<ele>1257.40</ele>
	<time>2025-08-03T10:08:27.000Z</time>
</trkpt>
<trkpt lat="45.9520140" lon="10.1552610">
	<ele>1257.20</ele>
	<time>2025-08-03T10:08:28.000Z</time>
</trkpt>
<trkpt lat="45.9520160" lon="10.1552780">
	<ele>1256.80</ele>
	<time>2025-08-03T10:08:29.000Z</time>
</trkpt>
<trkpt lat="45.9520130" lon="10.1552890">
	<ele>1256.40</ele>
	<time>2025-08-03T10:08:30.000Z</time>
</trkpt>
<trkpt lat="45.9520010" lon="10.1552920">
	<ele>1256.20</ele>
	<time>2025-08-03T10:08:31.000Z</time>
</trkpt>
<trkpt lat="45.9519900" lon="10.1553030">
	<ele>1256.20</ele>
	<time>2025-08-03T10:08:32.000Z</time>
</trkpt>
<trkpt lat="45.9519890" lon="10.1553110">
	<ele>1256.00</ele>
	<time>2025-08-03T10:08:33.000Z</time>
</trkpt>
<trkpt lat="45.9519890" lon="10.1553210">
	<ele>1255.60</ele>
	<time>2025-08-03T10:08:34.000Z</time>
</trkpt>
<trkpt lat="45.9519910" lon="10.1553340">
	<ele>1255.20</ele>
	<time>2025-08-03T10:08:35.000Z</time>
</trkpt>
<trkpt lat="45.9519890" lon="10.1553390">
	<ele>1255.20</ele>
	<time>2025-08-03T10:08:36.000Z</time>
</trkpt>
<trkpt lat="45.9519880" lon="10.1553460">
	<ele>1254.60</ele>
	<time>2025-08-03T10:08:37.000Z</time>
</trkpt>
<trkpt lat="45.9519890" lon="10.1553580">
	<ele>1254.20</ele>
	<time>2025-08-03T10:08:38.000Z</time>
</trkpt>
<trkpt lat="45.9519830" lon="10.1553560">
	<ele>1254.00</ele>
	<time>2025-08-03T10:08:39.000Z</time>
</trkpt>
<trkpt lat="45.9519680" lon="10.1553440">
	<ele>1253.80</ele>
	<time>2025-08-03T10:08:40.000Z</time>
</trkpt>
<trkpt lat="45.9519660" lon="10.1553510">
	<ele>1253.40</ele>
	<time>2025-08-03T10:08:41.000Z</time>
</trkpt>
<trkpt lat="45.9519680" lon="10.1553600">
	<ele>1253.00</ele>
	<time>2025-08-03T10:08:42.000Z</time>
</trkpt>
<trkpt lat="45.9519620" lon="10.1553600">
	<ele>1252.80</ele>
	<time>2025-08-03T10:08:43.000Z</time>
</trkpt>
<trkpt lat="45.9519540" lon="10.1553580">
	<ele>1252.40</ele>
	<time>2025-08-03T10:08:44.000Z</time>
</trkpt>
<trkpt lat="45.9519520" lon="10.1553620">
	<ele>1252.00</ele>
	<time>2025-08-03T10:08:45.000Z</time>
</trkpt>
<trkpt lat="45.9519470" lon="10.1553730">
	<ele>1251.60</ele>
	<time>2025-08-03T10:08:46.000Z</time>
</trkpt>
<trkpt lat="45.9519340" lon="10.1553750">
	<ele>1251.40</ele>
	<time>2025-08-03T10:08:47.000Z</time>
</trkpt>
<trkpt lat="45.9519140" lon="10.1553710">
	<ele>1251.00</ele>
	<time>2025-08-03T10:08:48.000Z</time>
</trkpt>
<trkpt lat="45.9518960" lon="10.1553650">
	<ele>1250.80</ele>
	<time>2025-08-03T10:08:49.000Z</time>
</trkpt>
<trkpt lat="45.9518820" lon="10.1553510">
	<ele>1250.60</ele>
	<time>2025-08-03T10:08:50.000Z</time>
</trkpt>
<trkpt lat="45.9518700" lon="10.1553500">
	<ele>1250.40</ele>
	<time>2025-08-03T10:08:51.000Z</time>
</trkpt>
<trkpt lat="45.9518670" lon="10.1553540">
	<ele>1250.00</ele>
	<time>2025-08-03T10:08:52.000Z</time>
</trkpt>
<trkpt lat="45.9518630" lon="10.1553510">
	<ele>1249.60</ele>
	<time>2025-08-03T10:08:53.000Z</time>
</trkpt>
<trkpt lat="45.9518680" lon="10.1553550">
	<ele>1249.40</ele>
	<time>2025-08-03T10:08:54.000Z</time>
</trkpt>
<trkpt lat="45.9518700" lon="10.1553520">
	<ele>1249.00</ele>
	<time>2025-08-03T10:08:55.000Z</time>
</trkpt>
<trkpt lat="45.9518730" lon="10.1553540">
	<ele>1248.80</ele>
	<time>2025-08-03T10:08:56.000Z</time>
</trkpt>
<trkpt lat="45.9518750" lon="10.1553510">
	<ele>1248.60</ele>
	<time>2025-08-03T10:08:57.000Z</time>
</trkpt>
<trkpt lat="45.9518750" lon="10.1553550">
	<ele>1248.20</ele>
	<time>2025-08-03T10:08:58.000Z</time>
</trkpt>
<trkpt lat="45.9518670" lon="10.1553510">
	<ele>1248.00</ele>
	<time>2025-08-03T10:08:59.000Z</time>
</trkpt>
<trkpt lat="45.9518640" lon="10.1553510">
	<ele>1247.60</ele>
	<time>2025-08-03T10:09:00.000Z</time>
</trkpt>
<trkpt lat="45.9518620" lon="10.1553490">
	<ele>1247.20</ele>
	<time>2025-08-03T10:09:01.000Z</time>
</trkpt>
<trkpt lat="45.9518590" lon="10.1553520">
	<ele>1247.00</ele>
	<time>2025-08-03T10:09:02.000Z</time>
</trkpt>
<trkpt lat="45.9518530" lon="10.1553480">
	<ele>1246.80</ele>
	<time>2025-08-03T10:09:03.000Z</time>
</trkpt>
<trkpt lat="45.9518440" lon="10.1553430">
	<ele>1246.40</ele>
	<time>2025-08-03T10:09:04.000Z</time>
</trkpt>
<trkpt lat="45.9518490" lon="10.1553420">
	<ele>1246.00</ele>
	<time>2025-08-03T10:09:05.000Z</time>
</trkpt>
<trkpt lat="45.9518530" lon="10.1553460">
	<ele>1245.80</ele>
	<time>2025-08-03T10:09:06.000Z</time>
</trkpt>
<trkpt lat="45.9518550" lon="10.1553510">
	<ele>1245.60</ele>
	<time>2025-08-03T10:09:07.000Z</time>
</trkpt>
<trkpt lat="45.9518450" lon="10.1553410">
	<ele>1245.20</ele>
	<time>2025-08-03T10:09:08.000Z</time>
</trkpt>
<trkpt lat="45.9518350" lon="10.1553280">
	<ele>1244.80</ele>
	<time>2025-08-03T10:09:09.000Z</time>
</trkpt>
<trkpt lat="45.9518210" lon="10.1553270">
	<ele>1244.40</ele>
	<time>2025-08-03T10:09:10.000Z</time>
</trkpt>
<trkpt lat="45.9518100" lon="10.1553350">
	<ele>1244.20</ele>
	<time>2025-08-03T10:09:11.000Z</time>
</trkpt>
<trkpt lat="45.9518060" lon="10.1553470">
	<ele>1243.60</ele>
	<time>2025-08-03T10:09:12.000Z</time>
</trkpt>
<trkpt lat="45.9518050" lon="10.1553560">
	<ele>1243.40</ele>
	<time>2025-08-03T10:09:13.000Z</time>
</trkpt>
<trkpt lat="45.9518060" lon="10.1553660">
	<ele>1243.00</ele>
	<time>2025-08-03T10:09:14.000Z</time>
</trkpt>
<trkpt lat="45.9518030" lon="10.1553750">
	<ele>1242.80</ele>
	<time>2025-08-03T10:09:15.000Z</time>
</trkpt>
<trkpt lat="45.9518000" lon="10.1553900">
	<ele>1242.40</ele>
	<time>2025-08-03T10:09:16.000Z</time>
</trkpt>
<trkpt lat="45.9517970" lon="10.1554070">
	<ele>1242.20</ele>
	<time>2025-08-03T10:09:17.000Z</time>
</trkpt>
<trkpt lat="45.9517940" lon="10.1554110">
	<ele>1241.80</ele>
	<time>2025-08-03T10:09:18.000Z</time>
</trkpt>
<trkpt lat="45.9517870" lon="10.1554120">
	<ele>1241.40</ele>
	<time>2025-08-03T10:09:19.000Z</time>
</trkpt>
<trkpt lat="45.9517710" lon="10.1554000">
	<ele>1241.00</ele>
	<time>2025-08-03T10:09:20.000Z</time>
</trkpt>
<trkpt lat="45.9517650" lon="10.1554020">
	<ele>1240.80</ele>
	<time>2025-08-03T10:09:21.000Z</time>
</trkpt>
<trkpt lat="45.9517510" lon="10.1553910">
	<ele>1240.20</ele>
	<time>2025-08-03T10:09:22.000Z</time>
</trkpt>
<trkpt lat="45.9517400" lon="10.1553820">
	<ele>1240.00</ele>
	<time>2025-08-03T10:09:23.000Z</time>
</trkpt>
<trkpt lat="45.9517380" lon="10.1553870">
	<ele>1239.60</ele>
	<time>2025-08-03T10:09:24.000Z</time>
</trkpt>
<trkpt lat="45.9517310" lon="10.1553800">
	<ele>1239.60</ele>
	<time>2025-08-03T10:09:25.000Z</time>
</trkpt>
<trkpt lat="45.9517240" lon="10.1553740">
	<ele>1239.40</ele>
	<time>2025-08-03T10:09:26.000Z</time>
</trkpt>
<trkpt lat="45.9517190" lon="10.1553750">
	<ele>1239.00</ele>
	<time>2025-08-03T10:09:27.000Z</time>
</trkpt>
<trkpt lat="45.9517110" lon="10.1553650">
	<ele>1238.80</ele>
	<time>2025-08-03T10:09:28.000Z</time>
</trkpt>
<trkpt lat="45.9517080" lon="10.1553680">
	<ele>1238.20</ele>
	<time>2025-08-03T10:09:29.000Z</time>
</trkpt>
<trkpt lat="45.9517070" lon="10.1553720">
	<ele>1237.80</ele>
	<time>2025-08-03T10:09:30.000Z</time>
</trkpt>
<trkpt lat="45.9517020" lon="10.1553760">
	<ele>1237.60</ele>
	<time>2025-08-03T10:09:31.000Z</time>
</trkpt>
<trkpt lat="45.9517030" lon="10.1553780">
	<ele>1237.20</ele>
	<time>2025-08-03T10:09:32.000Z</time>
</trkpt>
<trkpt lat="45.9516970" lon="10.1553970">
	<ele>1237.00</ele>
	<time>2025-08-03T10:09:33.000Z</time>
</trkpt>
<trkpt lat="45.9516950" lon="10.1554020">
	<ele>1236.40</ele>
	<time>2025-08-03T10:09:34.000Z</time>
</trkpt>
<trkpt lat="45.9516960" lon="10.1554060">
	<ele>1236.20</ele>
	<time>2025-08-03T10:09:35.000Z</time>
</trkpt>
<trkpt lat="45.9516950" lon="10.1554070">
	<ele>1236.00</ele>
	<time>2025-08-03T10:09:36.000Z</time>
</trkpt>
<trkpt lat="45.9516890" lon="10.1554180">
	<ele>1235.60</ele>
	<time>2025-08-03T10:09:37.000Z</time>
</trkpt>
<trkpt lat="45.9516840" lon="10.1554180">
	<ele>1235.40</ele>
	<time>2025-08-03T10:09:38.000Z</time>
</trkpt>
<trkpt lat="45.9516750" lon="10.1554190">
	<ele>1235.00</ele>
	<time>2025-08-03T10:09:39.000Z</time>
</trkpt>
<trkpt lat="45.9516740" lon="10.1554180">
	<ele>1234.60</ele>
	<time>2025-08-03T10:09:40.000Z</time>
</trkpt>
<trkpt lat="45.9516800" lon="10.1554230">
	<ele>1234.20</ele>
	<time>2025-08-03T10:09:41.000Z</time>
</trkpt>
<trkpt lat="45.9516840" lon="10.1554250">
	<ele>1234.00</ele>
	<time>2025-08-03T10:09:42.000Z</time>
</trkpt>
<trkpt lat="45.9516850" lon="10.1554270">
	<ele>1233.80</ele>
	<time>2025-08-03T10:09:43.000Z</time>
</trkpt>
<trkpt lat="45.9516840" lon="10.1554300">
	<ele>1233.60</ele>
	<time>2025-08-03T10:09:44.000Z</time>
</trkpt>
<trkpt lat="45.9516740" lon="10.1554320">
	<ele>1233.20</ele>
	<time>2025-08-03T10:09:45.000Z</time>
</trkpt>
<trkpt lat="45.9516650" lon="10.1554440">
	<ele>1232.80</ele>
	<time>2025-08-03T10:09:46.000Z</time>
</trkpt>
<trkpt lat="45.9516630" lon="10.1554590">
	<ele>1232.60</ele>
	<time>2025-08-03T10:09:47.000Z</time>
</trkpt>
<trkpt lat="45.9516660" lon="10.1554800">
	<ele>1232.40</ele>
	<time>2025-08-03T10:09:48.000Z</time>
</trkpt>
<trkpt lat="45.9516670" lon="10.1554960">
	<ele>1232.00</ele>
	<time>2025-08-03T10:09:49.000Z</time>
</trkpt>
<trkpt lat="45.9516600" lon="10.1555060">
	<ele>1231.80</ele>
	<time>2025-08-03T10:09:50.000Z</time>
</trkpt>
<trkpt lat="45.9516500" lon="10.1555150">
	<ele>1231.60</ele>
	<time>2025-08-03T10:09:51.000Z</time>
</trkpt>
<trkpt lat="45.9516400" lon="10.1555120">
	<ele>1231.40</ele>
	<time>2025-08-03T10:09:52.000Z</time>
</trkpt>
<trkpt lat="45.9516270" lon="10.1555040">
	<ele>1231.20</ele>
	<time>2025-08-03T10:09:53.000Z</time>
</trkpt>
<trkpt lat="45.9516260" lon="10.1555070">
	<ele>1230.80</ele>
	<time>2025-08-03T10:09:54.000Z</time>
</trkpt>
<trkpt lat="45.9516290" lon="10.1555080">
	<ele>1230.40</ele>
	<time>2025-08-03T10:09:55.000Z</time>
</trkpt>
<trkpt lat="45.9516270" lon="10.1555000">
	<ele>1230.00</ele>
	<time>2025-08-03T10:09:56.000Z</time>
</trkpt>
<trkpt lat="45.9516380" lon="10.1555070">
	<ele>1230.00</ele>
	<time>2025-08-03T10:09:57.000Z</time>
</trkpt>
<trkpt lat="45.9516520" lon="10.1554970">
	<ele>1229.80</ele>
	<time>2025-08-03T10:09:58.000Z</time>
</trkpt>
<trkpt lat="45.9516690" lon="10.1554980">
	<ele>1229.60</ele>
	<time>2025-08-03T10:09:59.000Z</time>
</trkpt>
<trkpt lat="45.9516840" lon="10.1554900">
	<ele>1229.60</ele>
	<time>2025-08-03T10:10:00.000Z</time>
</trkpt>
<trkpt lat="45.9516920" lon="10.1554860">
	<ele>1229.80</ele>
	<time>2025-08-03T10:10:01.000Z</time>
</trkpt>
<trkpt lat="45.9516840" lon="10.1554860">
	<ele>1229.80</ele>
	<time>2025-08-03T10:10:02.000Z</time>
</trkpt>
<trkpt lat="45.9516700" lon="10.1554900">
	<ele>1229.80</ele>
	<time>2025-08-03T10:10:03.000Z</time>
</trkpt>
<trkpt lat="45.9516560" lon="10.1554920">
	<ele>1230.00</ele>
	<time>2025-08-03T10:10:04.000Z</time>
</trkpt>
<trkpt lat="45.9516470" lon="10.1555070">
	<ele>1230.20</ele>
	<time>2025-08-03T10:10:05.000Z</time>
</trkpt>
<trkpt lat="45.9516380" lon="10.1555270">
	<ele>1230.40</ele>
	<time>2025-08-03T10:10:06.000Z</time>
</trkpt>
<trkpt lat="45.9516380" lon="10.1555340">
	<ele>1230.40</ele>
	<time>2025-08-03T10:10:07.000Z</time>
</trkpt>
<trkpt lat="45.9516390" lon="10.1555360">
	<ele>1230.40</ele>
	<time>2025-08-03T10:10:08.000Z</time>
</trkpt>
<trkpt lat="45.9516410" lon="10.1555380">
	<ele>1230.40</ele>
	<time>2025-08-03T10:10:09.000Z</time>
</trkpt>
<trkpt lat="45.9516430" lon="10.1555390">
	<ele>1230.40</ele>
	<time>2025-08-03T10:10:10.000Z</time>
</trkpt>
<trkpt lat="45.9516440" lon="10.1555390">
	<ele>1230.40</ele>
	<time>2025-08-03T10:10:11.000Z</time>
</trkpt>
<trkpt lat="45.9516450" lon="10.1555420">
	<ele>1230.20</ele>
	<time>2025-08-03T10:10:12.000Z</time>
</trkpt>
<trkpt lat="45.9516460" lon="10.1555430">
	<ele>1230.20</ele>
	<time>2025-08-03T10:10:13.000Z</time>
</trkpt>
<trkpt lat="45.9516420" lon="10.1555420">
	<ele>1230.20</ele>
	<time>2025-08-03T10:10:14.000Z</time>
</trkpt>
<trkpt lat="45.9516440" lon="10.1555430">
	<ele>1230.20</ele>
	<time>2025-08-03T10:10:15.000Z</time>
</trkpt>
<trkpt lat="45.9516460" lon="10.1555440">
	<ele>1230.20</ele>
	<time>2025-08-03T10:10:16.000Z</time>
</trkpt>
<trkpt lat="45.9516500" lon="10.1555450">
	<ele>1230.20</ele>
	<time>2025-08-03T10:10:17.000Z</time>
</trkpt>
<trkpt lat="45.9516530" lon="10.1555440">
	<ele>1230.20</ele>
	<time>2025-08-03T10:10:18.000Z</time>
</trkpt>
<trkpt lat="45.9516550" lon="10.1555440">
	<ele>1230.20</ele>
	<time>2025-08-03T10:10:19.000Z</time>
</trkpt>
<trkpt lat="45.9516580" lon="10.1555410">
	<ele>1230.20</ele>
	<time>2025-08-03T10:10:20.000Z</time>
</trkpt>
<trkpt lat="45.9516610" lon="10.1555380">
	<ele>1230.20</ele>
	<time>2025-08-03T10:10:21.000Z</time>
</trkpt>
<trkpt lat="45.9516530" lon="10.1555310">
	<ele>1230.20</ele>
	<time>2025-08-03T10:10:22.000Z</time>
</trkpt>
<trkpt lat="45.9516500" lon="10.1555260">
	<ele>1230.20</ele>
	<time>2025-08-03T10:10:23.000Z</time>
</trkpt>
<trkpt lat="45.9516540" lon="10.1555300">
	<ele>1230.20</ele>
	<time>2025-08-03T10:10:24.000Z</time>
</trkpt>
<trkpt lat="45.9516560" lon="10.1555320">
	<ele>1230.20</ele>
	<time>2025-08-03T10:10:25.000Z</time>
</trkpt>
<trkpt lat="45.9516490" lon="10.1555420">
	<ele>1230.20</ele>
	<time>2025-08-03T10:10:26.000Z</time>
</trkpt>
<trkpt lat="45.9516320" lon="10.1555460">
	<ele>1230.20</ele>
	<time>2025-08-03T10:10:27.000Z</time>
</trkpt>
<trkpt lat="45.9516220" lon="10.1555540">
	<ele>1230.20</ele>
	<time>2025-08-03T10:10:28.000Z</time>
</trkpt>
<trkpt lat="45.9516200" lon="10.1555580">
	<ele>1230.00</ele>
	<time>2025-08-03T10:10:29.000Z</time>
</trkpt>
<trkpt lat="45.9516200" lon="10.1555610">
	<ele>1230.00</ele>
	<time>2025-08-03T10:10:30.000Z</time>
</trkpt>
<trkpt lat="45.9516230" lon="10.1555620">
	<ele>1230.00</ele>
	<time>2025-08-03T10:10:31.000Z</time>
</trkpt>
<trkpt lat="45.9516230" lon="10.1555640">
	<ele>1230.00</ele>
	<time>2025-08-03T10:10:32.000Z</time>
</trkpt>
<trkpt lat="45.9516240" lon="10.1555640">
	<ele>1230.00</ele>
	<time>2025-08-03T10:10:33.000Z</time>
</trkpt>
<trkpt lat="45.9516170" lon="10.1555570">
	<ele>1230.00</ele>
	<time>2025-08-03T10:10:34.000Z</time>
</trkpt>
<trkpt lat="45.9516140" lon="10.1555650">
	<ele>1230.00</ele>
	<time>2025-08-03T10:10:35.000Z</time>
</trkpt>
<trkpt lat="45.9516130" lon="10.1555750">
	<ele>1230.00</ele>
	<time>2025-08-03T10:10:36.000Z</time>
</trkpt>
<trkpt lat="45.9516110" lon="10.1555750">
	<ele>1230.00</ele>
	<time>2025-08-03T10:10:37.000Z</time>
</trkpt>
<trkpt lat="45.9516160" lon="10.1555750">
	<ele>1230.00</ele>
	<time>2025-08-03T10:10:38.000Z</time>
</trkpt>
<trkpt lat="45.9516120" lon="10.1555770">
	<ele>1230.00</ele>
	<time>2025-08-03T10:10:39.000Z</time>
</trkpt>
<trkpt lat="45.9516110" lon="10.1555750">
	<ele>1230.00</ele>
	<time>2025-08-03T10:10:40.000Z</time>
</trkpt>
<trkpt lat="45.9516050" lon="10.1555680">
	<ele>1230.00</ele>
	<time>2025-08-03T10:10:41.000Z</time>
</trkpt>
<trkpt lat="45.9515930" lon="10.1555630">
	<ele>1229.60</ele>
	<time>2025-08-03T10:10:42.000Z</time>
</trkpt>
<trkpt lat="45.9515850" lon="10.1555660">
	<ele>1229.20</ele>
	<time>2025-08-03T10:10:43.000Z</time>
</trkpt>
<trkpt lat="45.9515820" lon="10.1555770">
	<ele>1229.00</ele>
	<time>2025-08-03T10:10:44.000Z</time>
</trkpt>
<trkpt lat="45.9515750" lon="10.1555970">
	<ele>1228.80</ele>
	<time>2025-08-03T10:10:45.000Z</time>
</trkpt>
<trkpt lat="45.9515650" lon="10.1556190">
	<ele>1228.80</ele>
	<time>2025-08-03T10:10:46.000Z</time>
</trkpt>
<trkpt lat="45.9515540" lon="10.1556360">
	<ele>1228.60</ele>
	<time>2025-08-03T10:10:47.000Z</time>
</trkpt>
<trkpt lat="45.9515540" lon="10.1556430">
	<ele>1228.60</ele>
	<time>2025-08-03T10:10:48.000Z</time>
</trkpt>
<trkpt lat="45.9515430" lon="10.1556530">
	<ele>1228.60</ele>
	<time>2025-08-03T10:10:49.000Z</time>
</trkpt>
<trkpt lat="45.9515320" lon="10.1556670">
	<ele>1228.60</ele>
	<time>2025-08-03T10:10:50.000Z</time>
</trkpt>
<trkpt lat="45.9515300" lon="10.1556750">
	<ele>1228.40</ele>
	<time>2025-08-03T10:10:51.000Z</time>
</trkpt>
<trkpt lat="45.9515330" lon="10.1556810">
	<ele>1228.00</ele>
	<time>2025-08-03T10:10:52.000Z</time>
</trkpt>
<trkpt lat="45.9515380" lon="10.1556880">
	<ele>1227.60</ele>
	<time>2025-08-03T10:10:53.000Z</time>
</trkpt>
<trkpt lat="45.9515380" lon="10.1556960">
	<ele>1227.40</ele>
	<time>2025-08-03T10:10:54.000Z</time>
</trkpt>
<trkpt lat="45.9515390" lon="10.1557030">
	<ele>1227.20</ele>
	<time>2025-08-03T10:10:55.000Z</time>
</trkpt>
<trkpt lat="45.9515380" lon="10.1557030">
	<ele>1226.80</ele>
	<time>2025-08-03T10:10:56.000Z</time>
</trkpt>
<trkpt lat="45.9515390" lon="10.1557110">
	<ele>1226.80</ele>
	<time>2025-08-03T10:10:57.000Z</time>
</trkpt>
<trkpt lat="45.9515400" lon="10.1557130">
	<ele>1226.40</ele>
	<time>2025-08-03T10:10:58.000Z</time>
</trkpt>
<trkpt lat="45.9515330" lon="10.1557160">
	<ele>1226.20</ele>
	<time>2025-08-03T10:10:59.000Z</time>
</trkpt>
<trkpt lat="45.9515320" lon="10.1557150">
	<ele>1226.00</ele>
	<time>2025-08-03T10:11:00.000Z</time>
</trkpt>
<trkpt lat="45.9515310" lon="10.1557180">
	<ele>1225.40</ele>
	<time>2025-08-03T10:11:01.000Z</time>
</trkpt>
<trkpt lat="45.9515360" lon="10.1557200">
	<ele>1225.20</ele>
	<time>2025-08-03T10:11:02.000Z</time>
</trkpt>
<trkpt lat="45.9515410" lon="10.1557290">
	<ele>1225.00</ele>
	<time>2025-08-03T10:11:03.000Z</time>
</trkpt>
<trkpt lat="45.9515490" lon="10.1557440">
	<ele>1224.60</ele>
	<time>2025-08-03T10:11:04.000Z</time>
</trkpt>
<trkpt lat="45.9515550" lon="10.1557540">
	<ele>1224.40</ele>
	<time>2025-08-03T10:11:05.000Z</time>
</trkpt>
<trkpt lat="45.9515500" lon="10.1557570">
	<ele>1224.20</ele>
	<time>2025-08-03T10:11:06.000Z</time>
</trkpt>
<trkpt lat="45.9515470" lon="10.1557730">
	<ele>1223.60</ele>
	<time>2025-08-03T10:11:07.000Z</time>
</trkpt>
<trkpt lat="45.9515530" lon="10.1557970">
	<ele>1223.40</ele>
	<time>2025-08-03T10:11:08.000Z</time>
</trkpt>
<trkpt lat="45.9515650" lon="10.1558200">
	<ele>1223.20</ele>
	<time>2025-08-03T10:11:09.000Z</time>
</trkpt>
<trkpt lat="45.9515600" lon="10.1558340">
	<ele>1223.00</ele>
	<time>2025-08-03T10:11:10.000Z</time>
</trkpt>
<trkpt lat="45.9515600" lon="10.1558500">
	<ele>1223.00</ele>
	<time>2025-08-03T10:11:11.000Z</time>
</trkpt>
<trkpt lat="45.9515590" lon="10.1558650">
	<ele>1222.60</ele>
	<time>2025-08-03T10:11:12.000Z</time>
</trkpt>
<trkpt lat="45.9515580" lon="10.1558880">
	<ele>1222.20</ele>
	<time>2025-08-03T10:11:13.000Z</time>
</trkpt>
<trkpt lat="45.9515610" lon="10.1559210">
	<ele>1222.00</ele>
	<time>2025-08-03T10:11:14.000Z</time>
</trkpt>
<trkpt lat="45.9515610" lon="10.1559380">
	<ele>1221.80</ele>
	<time>2025-08-03T10:11:15.000Z</time>
</trkpt>
<trkpt lat="45.9515600" lon="10.1559440">
	<ele>1221.40</ele>
	<time>2025-08-03T10:11:16.000Z</time>
</trkpt>
<trkpt lat="45.9515580" lon="10.1559520">
	<ele>1221.20</ele>
	<time>2025-08-03T10:11:17.000Z</time>
</trkpt>
<trkpt lat="45.9515620" lon="10.1559630">
	<ele>1221.00</ele>
	<time>2025-08-03T10:11:18.000Z</time>
</trkpt>
<trkpt lat="45.9515670" lon="10.1559730">
	<ele>1220.60</ele>
	<time>2025-08-03T10:11:19.000Z</time>
</trkpt>
<trkpt lat="45.9515770" lon="10.1559810">
	<ele>1220.40</ele>
	<time>2025-08-03T10:11:20.000Z</time>
</trkpt>
<trkpt lat="45.9515800" lon="10.1559870">
	<ele>1220.00</ele>
	<time>2025-08-03T10:11:21.000Z</time>
</trkpt>
<trkpt lat="45.9515790" lon="10.1559910">
	<ele>1220.00</ele>
	<time>2025-08-03T10:11:22.000Z</time>
</trkpt>
<trkpt lat="45.9515890" lon="10.1559990">
	<ele>1219.80</ele>
	<time>2025-08-03T10:11:23.000Z</time>
</trkpt>
<trkpt lat="45.9515920" lon="10.1560000">
	<ele>1219.60</ele>
	<time>2025-08-03T10:11:24.000Z</time>
</trkpt>
<trkpt lat="45.9515950" lon="10.1559960">
	<ele>1219.40</ele>
	<time>2025-08-03T10:11:25.000Z</time>
</trkpt>
<trkpt lat="45.9515920" lon="10.1559980">
	<ele>1219.40</ele>
	<time>2025-08-03T10:11:26.000Z</time>
</trkpt>
<trkpt lat="45.9515920" lon="10.1560020">
	<ele>1219.40</ele>
	<time>2025-08-03T10:11:27.000Z</time>
</trkpt>
<trkpt lat="45.9515910" lon="10.1560090">
	<ele>1219.20</ele>
	<time>2025-08-03T10:11:28.000Z</time>
</trkpt>
<trkpt lat="45.9515870" lon="10.1560130">
	<ele>1219.20</ele>
	<time>2025-08-03T10:11:29.000Z</time>
</trkpt>
<trkpt lat="45.9515820" lon="10.1560110">
	<ele>1219.00</ele>
	<time>2025-08-03T10:11:30.000Z</time>
</trkpt>
<trkpt lat="45.9515680" lon="10.1560070">
	<ele>1219.00</ele>
	<time>2025-08-03T10:11:31.000Z</time>
</trkpt>
<trkpt lat="45.9515520" lon="10.1560110">
	<ele>1219.00</ele>
	<time>2025-08-03T10:11:32.000Z</time>
</trkpt>
<trkpt lat="45.9515440" lon="10.1560090">
	<ele>1219.00</ele>
	<time>2025-08-03T10:11:33.000Z</time>
</trkpt>
<trkpt lat="45.9515610" lon="10.1560200">
	<ele>1219.00</ele>
	<time>2025-08-03T10:11:34.000Z</time>
</trkpt>
<trkpt lat="45.9515610" lon="10.1560200">
	<ele>1219.00</ele>
	<time>2025-08-03T10:11:35.000Z</time>
</trkpt>
<trkpt lat="45.9515610" lon="10.1560170">
	<ele>1219.00</ele>
	<time>2025-08-03T10:11:36.000Z</time>
</trkpt>
<trkpt lat="45.9515600" lon="10.1560140">
	<ele>1219.00</ele>
	<time>2025-08-03T10:11:37.000Z</time>
</trkpt>
<trkpt lat="45.9515600" lon="10.1560190">
	<ele>1219.00</ele>
	<time>2025-08-03T10:11:38.000Z</time>
</trkpt>
<trkpt lat="45.9515580" lon="10.1560200">
	<ele>1219.00</ele>
	<time>2025-08-03T10:11:39.000Z</time>
</trkpt>
<trkpt lat="45.9515580" lon="10.1560290">
	<ele>1219.00</ele>
	<time>2025-08-03T10:11:40.000Z</time>
</trkpt>
<trkpt lat="45.9515560" lon="10.1560320">
	<ele>1219.00</ele>
	<time>2025-08-03T10:11:41.000Z</time>
</trkpt>
<trkpt lat="45.9515560" lon="10.1560330">
	<ele>1219.00</ele>
	<time>2025-08-03T10:11:42.000Z</time>
</trkpt>
<trkpt lat="45.9515550" lon="10.1560310">
	<ele>1219.00</ele>
	<time>2025-08-03T10:11:43.000Z</time>
</trkpt>
<trkpt lat="45.9515550" lon="10.1560310">
	<ele>1219.00</ele>
	<time>2025-08-03T10:11:44.000Z</time>
</trkpt>
<trkpt lat="45.9515550" lon="10.1560310">
	<ele>1218.80</ele>
	<time>2025-08-03T10:11:45.000Z</time>
</trkpt>
<trkpt lat="45.9515540" lon="10.1560320">
	<ele>1218.80</ele>
	<time>2025-08-03T10:11:46.000Z</time>
</trkpt>
<trkpt lat="45.9515500" lon="10.1560330">
	<ele>1218.80</ele>
	<time>2025-08-03T10:11:47.000Z</time>
</trkpt>
<trkpt lat="45.9515490" lon="10.1560330">
	<ele>1219.00</ele>
	<time>2025-08-03T10:11:48.000Z</time>
</trkpt>
<trkpt lat="45.9515490" lon="10.1560330">
	<ele>1219.00</ele>
	<time>2025-08-03T10:11:49.000Z</time>
</trkpt>
<trkpt lat="45.9515490" lon="10.1560330">
	<ele>1219.00</ele>
	<time>2025-08-03T10:11:50.000Z</time>
</trkpt>
<trkpt lat="45.9515460" lon="10.1560330">
	<ele>1219.00</ele>
	<time>2025-08-03T10:11:51.000Z</time>
</trkpt>
<trkpt lat="45.9515450" lon="10.1560350">
	<ele>1218.80</ele>
	<time>2025-08-03T10:11:52.000Z</time>
</trkpt>
<trkpt lat="45.9515460" lon="10.1560340">
	<ele>1218.80</ele>
	<time>2025-08-03T10:11:53.000Z</time>
</trkpt>
<trkpt lat="45.9515520" lon="10.1560320">
	<ele>1218.80</ele>
	<time>2025-08-03T10:11:54.000Z</time>
</trkpt>
<trkpt lat="45.9515590" lon="10.1560270">
	<ele>1218.80</ele>
	<time>2025-08-03T10:11:55.000Z</time>
</trkpt>
<trkpt lat="45.9515660" lon="10.1560400">
	<ele>1218.80</ele>
	<time>2025-08-03T10:11:56.000Z</time>
</trkpt>
<trkpt lat="45.9515670" lon="10.1560400">
	<ele>1218.80</ele>
	<time>2025-08-03T10:11:57.000Z</time>
</trkpt>
<trkpt lat="45.9515730" lon="10.1560470">
	<ele>1218.80</ele>
	<time>2025-08-03T10:11:58.000Z</time>
</trkpt>
<trkpt lat="45.9515750" lon="10.1560540">
	<ele>1218.80</ele>
	<time>2025-08-03T10:11:59.000Z</time>
</trkpt>
<trkpt lat="45.9515710" lon="10.1560610">
	<ele>1218.80</ele>
	<time>2025-08-03T10:12:00.000Z</time>
</trkpt>
<trkpt lat="45.9515730" lon="10.1560630">
	<ele>1218.60</ele>
	<time>2025-08-03T10:12:01.000Z</time>
</trkpt>
<trkpt lat="45.9515830" lon="10.1560710">
	<ele>1218.40</ele>
	<time>2025-08-03T10:12:02.000Z</time>
</trkpt>
<trkpt lat="45.9515890" lon="10.1560800">
	<ele>1218.20</ele>
	<time>2025-08-03T10:12:03.000Z</time>
</trkpt>
<trkpt lat="45.9515940" lon="10.1560950">
	<ele>1218.00</ele>
	<time>2025-08-03T10:12:04.000Z</time>
</trkpt>
<trkpt lat="45.9516000" lon="10.1561130">
	<ele>1217.80</ele>
	<time>2025-08-03T10:12:05.000Z</time>
</trkpt>
<trkpt lat="45.9516120" lon="10.1561360">
	<ele>1217.80</ele>
	<time>2025-08-03T10:12:06.000Z</time>
</trkpt>
<trkpt lat="45.9516230" lon="10.1561510">
	<ele>1217.40</ele>
	<time>2025-08-03T10:12:07.000Z</time>
</trkpt>
<trkpt lat="45.9516290" lon="10.1561550">
	<ele>1217.20</ele>
	<time>2025-08-03T10:12:08.000Z</time>
</trkpt>
<trkpt lat="45.9516450" lon="10.1561720">
	<ele>1217.00</ele>
	<time>2025-08-03T10:12:09.000Z</time>
</trkpt>
<trkpt lat="45.9516660" lon="10.1561730">
	<ele>1216.80</ele>
	<time>2025-08-03T10:12:10.000Z</time>
</trkpt>
<trkpt lat="45.9516850" lon="10.1561880">
	<ele>1216.40</ele>
	<time>2025-08-03T10:12:11.000Z</time>
</trkpt>
<trkpt lat="45.9516960" lon="10.1561960">
	<ele>1216.20</ele>
	<time>2025-08-03T10:12:12.000Z</time>
</trkpt>
<trkpt lat="45.9517070" lon="10.1562050">
	<ele>1215.80</ele>
	<time>2025-08-03T10:12:13.000Z</time>
</trkpt>
<trkpt lat="45.9517120" lon="10.1562100">
	<ele>1215.60</ele>
	<time>2025-08-03T10:12:14.000Z</time>
</trkpt>
<trkpt lat="45.9517110" lon="10.1562110">
	<ele>1215.40</ele>
	<time>2025-08-03T10:12:15.000Z</time>
</trkpt>
<trkpt lat="45.9517130" lon="10.1562160">
	<ele>1215.00</ele>
	<time>2025-08-03T10:12:16.000Z</time>
</trkpt>
<trkpt lat="45.9517090" lon="10.1562200">
	<ele>1214.60</ele>
	<time>2025-08-03T10:12:17.000Z</time>
</trkpt>
<trkpt lat="45.9517040" lon="10.1562200">
	<ele>1214.40</ele>
	<time>2025-08-03T10:12:18.000Z</time>
</trkpt>
<trkpt lat="45.9517030" lon="10.1562210">
	<ele>1214.20</ele>
	<time>2025-08-03T10:12:19.000Z</time>
</trkpt>
<trkpt lat="45.9517040" lon="10.1562210">
	<ele>1213.80</ele>
	<time>2025-08-03T10:12:20.000Z</time>
</trkpt>
<trkpt lat="45.9517070" lon="10.1562250">
	<ele>1213.60</ele>
	<time>2025-08-03T10:12:21.000Z</time>
</trkpt>
<trkpt lat="45.9517090" lon="10.1562250">
	<ele>1213.20</ele>
	<time>2025-08-03T10:12:22.000Z</time>
</trkpt>
<trkpt lat="45.9517200" lon="10.1562350">
	<ele>1212.80</ele>
	<time>2025-08-03T10:12:23.000Z</time>
</trkpt>
<trkpt lat="45.9517250" lon="10.1562390">
	<ele>1212.40</ele>
	<time>2025-08-03T10:12:24.000Z</time>
</trkpt>
<trkpt lat="45.9517280" lon="10.1562430">
	<ele>1212.20</ele>
	<time>2025-08-03T10:12:25.000Z</time>
</trkpt>
<trkpt lat="45.9517330" lon="10.1562560">
	<ele>1211.80</ele>
	<time>2025-08-03T10:12:26.000Z</time>
</trkpt>
<trkpt lat="45.9517380" lon="10.1562670">
	<ele>1211.60</ele>
	<time>2025-08-03T10:12:27.000Z</time>
</trkpt>
<trkpt lat="45.9517390" lon="10.1562820">
	<ele>1211.40</ele>
	<time>2025-08-03T10:12:28.000Z</time>
</trkpt>
<trkpt lat="45.9517400" lon="10.1562820">
	<ele>1211.20</ele>
	<time>2025-08-03T10:12:29.000Z</time>
</trkpt>
<trkpt lat="45.9517410" lon="10.1562920">
	<ele>1210.80</ele>
	<time>2025-08-03T10:12:30.000Z</time>
</trkpt>
<trkpt lat="45.9517330" lon="10.1563030">
	<ele>1210.60</ele>
	<time>2025-08-03T10:12:31.000Z</time>
</trkpt>
<trkpt lat="45.9517230" lon="10.1563110">
	<ele>1210.20</ele>
	<time>2025-08-03T10:12:32.000Z</time>
</trkpt>
<trkpt lat="45.9517150" lon="10.1563150">
	<ele>1209.80</ele>
	<time>2025-08-03T10:12:33.000Z</time>
</trkpt>
<trkpt lat="45.9517000" lon="10.1563290">
	<ele>1209.60</ele>
	<time>2025-08-03T10:12:34.000Z</time>
</trkpt>
<trkpt lat="45.9516920" lon="10.1563550">
	<ele>1209.20</ele>
	<time>2025-08-03T10:12:35.000Z</time>
</trkpt>
<trkpt lat="45.9516890" lon="10.1563740">
	<ele>1209.00</ele>
	<time>2025-08-03T10:12:36.000Z</time>
</trkpt>
<trkpt lat="45.9516890" lon="10.1563820">
	<ele>1208.80</ele>
	<time>2025-08-03T10:12:37.000Z</time>
</trkpt>
<trkpt lat="45.9516790" lon="10.1563800">
	<ele>1208.60</ele>
	<time>2025-08-03T10:12:38.000Z</time>
</trkpt>
<trkpt lat="45.9516670" lon="10.1563970">
	<ele>1208.40</ele>
	<time>2025-08-03T10:12:39.000Z</time>
</trkpt>
<trkpt lat="45.9516550" lon="10.1564120">
	<ele>1208.20</ele>
	<time>2025-08-03T10:12:40.000Z</time>
</trkpt>
<trkpt lat="45.9516450" lon="10.1564140">
	<ele>1207.80</ele>
	<time>2025-08-03T10:12:41.000Z</time>
</trkpt>
<trkpt lat="45.9516400" lon="10.1564290">
	<ele>1207.60</ele>
	<time>2025-08-03T10:12:42.000Z</time>
</trkpt>
<trkpt lat="45.9516360" lon="10.1564250">
	<ele>1207.40</ele>
	<time>2025-08-03T10:12:43.000Z</time>
</trkpt>
<trkpt lat="45.9516290" lon="10.1564270">
	<ele>1207.00</ele>
	<time>2025-08-03T10:12:44.000Z</time>
</trkpt>
<trkpt lat="45.9516190" lon="10.1564290">
	<ele>1206.80</ele>
	<time>2025-08-03T10:12:45.000Z</time>
</trkpt>
<trkpt lat="45.9516100" lon="10.1564260">
	<ele>1206.60</ele>
	<time>2025-08-03T10:12:46.000Z</time>
</trkpt>
<trkpt lat="45.9516000" lon="10.1564200">
	<ele>1206.40</ele>
	<time>2025-08-03T10:12:47.000Z</time>
</trkpt>
<trkpt lat="45.9515910" lon="10.1564150">
	<ele>1206.20</ele>
	<time>2025-08-03T10:12:48.000Z</time>
</trkpt>
<trkpt lat="45.9515840" lon="10.1564160">
	<ele>1205.80</ele>
	<time>2025-08-03T10:12:49.000Z</time>
</trkpt>
<trkpt lat="45.9515750" lon="10.1564230">
	<ele>1205.60</ele>
	<time>2025-08-03T10:12:50.000Z</time>
</trkpt>
<trkpt lat="45.9515640" lon="10.1564250">
	<ele>1205.60</ele>
	<time>2025-08-03T10:12:51.000Z</time>
</trkpt>
<trkpt lat="45.9515520" lon="10.1564260">
	<ele>1205.20</ele>
	<time>2025-08-03T10:12:52.000Z</time>
</trkpt>
<trkpt lat="45.9515430" lon="10.1564250">
	<ele>1205.00</ele>
	<time>2025-08-03T10:12:53.000Z</time>
</trkpt>
<trkpt lat="45.9515270" lon="10.1564190">
	<ele>1204.60</ele>
	<time>2025-08-03T10:12:54.000Z</time>
</trkpt>
<trkpt lat="45.9515170" lon="10.1564140">
	<ele>1204.40</ele>
	<time>2025-08-03T10:12:55.000Z</time>
</trkpt>
<trkpt lat="45.9515090" lon="10.1564180">
	<ele>1203.80</ele>
	<time>2025-08-03T10:12:56.000Z</time>
</trkpt>
<trkpt lat="45.9514960" lon="10.1564140">
	<ele>1203.60</ele>
	<time>2025-08-03T10:12:57.000Z</time>
</trkpt>
<trkpt lat="45.9514860" lon="10.1564090">
	<ele>1203.00</ele>
	<time>2025-08-03T10:12:58.000Z</time>
</trkpt>
<trkpt lat="45.9514770" lon="10.1564020">
	<ele>1202.60</ele>
	<time>2025-08-03T10:12:59.000Z</time>
</trkpt>
<trkpt lat="45.9514750" lon="10.1564070">
	<ele>1202.40</ele>
	<time>2025-08-03T10:13:00.000Z</time>
</trkpt>
<trkpt lat="45.9514680" lon="10.1564070">
	<ele>1202.20</ele>
	<time>2025-08-03T10:13:01.000Z</time>
</trkpt>
<trkpt lat="45.9514560" lon="10.1563960">
	<ele>1202.00</ele>
	<time>2025-08-03T10:13:02.000Z</time>
</trkpt>
<trkpt lat="45.9514470" lon="10.1563890">
	<ele>1201.60</ele>
	<time>2025-08-03T10:13:03.000Z</time>
</trkpt>
<trkpt lat="45.9514360" lon="10.1563860">
	<ele>1201.40</ele>
	<time>2025-08-03T10:13:04.000Z</time>
</trkpt>
<trkpt lat="45.9514270" lon="10.1563870">
	<ele>1201.00</ele>
	<time>2025-08-03T10:13:05.000Z</time>
</trkpt>
<trkpt lat="45.9514220" lon="10.1563830">
	<ele>1200.80</ele>
	<time>2025-08-03T10:13:06.000Z</time>
</trkpt>
<trkpt lat="45.9514100" lon="10.1563650">
	<ele>1200.60</ele>
	<time>2025-08-03T10:13:07.000Z</time>
</trkpt>
<trkpt lat="45.9514010" lon="10.1563470">
	<ele>1200.40</ele>
	<time>2025-08-03T10:13:08.000Z</time>
</trkpt>
<trkpt lat="45.9513920" lon="10.1563270">
	<ele>1200.20</ele>
	<time>2025-08-03T10:13:09.000Z</time>
</trkpt>
<trkpt lat="45.9513790" lon="10.1563130">
	<ele>1200.00</ele>
	<time>2025-08-03T10:13:10.000Z</time>
</trkpt>
<trkpt lat="45.9513800" lon="10.1563040">
	<ele>1199.80</ele>
	<time>2025-08-03T10:13:11.000Z</time>
</trkpt>
<trkpt lat="45.9513820" lon="10.1563000">
	<ele>1199.60</ele>
	<time>2025-08-03T10:13:12.000Z</time>
</trkpt>
<trkpt lat="45.9513850" lon="10.1563010">
	<ele>1199.40</ele>
	<time>2025-08-03T10:13:13.000Z</time>
</trkpt>
<trkpt lat="45.9513870" lon="10.1562990">
	<ele>1199.00</ele>
	<time>2025-08-03T10:13:14.000Z</time>
</trkpt>
<trkpt lat="45.9513750" lon="10.1562980">
	<ele>1198.80</ele>
	<time>2025-08-03T10:13:15.000Z</time>
</trkpt>
<trkpt lat="45.9513700" lon="10.1562860">
	<ele>1198.40</ele>
	<time>2025-08-03T10:13:16.000Z</time>
</trkpt>
<trkpt lat="45.9513590" lon="10.1562810">
	<ele>1198.00</ele>
	<time>2025-08-03T10:13:17.000Z</time>
</trkpt>
<trkpt lat="45.9513450" lon="10.1562860">
	<ele>1197.80</ele>
	<time>2025-08-03T10:13:18.000Z</time>
</trkpt>
<trkpt lat="45.9513270" lon="10.1562980">
	<ele>1197.80</ele>
	<time>2025-08-03T10:13:19.000Z</time>
</trkpt>
<trkpt lat="45.9513090" lon="10.1563200">
	<ele>1197.60</ele>
	<time>2025-08-03T10:13:20.000Z</time>
</trkpt>
<trkpt lat="45.9512920" lon="10.1563330">
	<ele>1197.20</ele>
	<time>2025-08-03T10:13:21.000Z</time>
</trkpt>
<trkpt lat="45.9512720" lon="10.1563440">
	<ele>1197.00</ele>
	<time>2025-08-03T10:13:22.000Z</time>
</trkpt>
<trkpt lat="45.9512530" lon="10.1563500">
	<ele>1196.80</ele>
	<time>2025-08-03T10:13:23.000Z</time>
</trkpt>
<trkpt lat="45.9512340" lon="10.1563580">
	<ele>1196.60</ele>
	<time>2025-08-03T10:13:24.000Z</time>
</trkpt>
<trkpt lat="45.9512200" lon="10.1563670">
	<ele>1196.40</ele>
	<time>2025-08-03T10:13:25.000Z</time>
</trkpt>
<trkpt lat="45.9512090" lon="10.1563820">
	<ele>1196.20</ele>
	<time>2025-08-03T10:13:26.000Z</time>
</trkpt>
<trkpt lat="45.9512030" lon="10.1563930">
	<ele>1196.00</ele>
	<time>2025-08-03T10:13:27.000Z</time>
</trkpt>
<trkpt lat="45.9512010" lon="10.1564000">
	<ele>1195.60</ele>
	<time>2025-08-03T10:13:28.000Z</time>
</trkpt>
<trkpt lat="45.9511960" lon="10.1564030">
	<ele>1195.40</ele>
	<time>2025-08-03T10:13:29.000Z</time>
</trkpt>
<trkpt lat="45.9511810" lon="10.1564080">
	<ele>1195.20</ele>
	<time>2025-08-03T10:13:30.000Z</time>
</trkpt>
<trkpt lat="45.9511540" lon="10.1564050">
	<ele>1194.80</ele>
	<time>2025-08-03T10:13:31.000Z</time>
</trkpt>
<trkpt lat="45.9511270" lon="10.1563990">
	<ele>1194.80</ele>
	<time>2025-08-03T10:13:32.000Z</time>
</trkpt>
<trkpt lat="45.9510970" lon="10.1563830">
	<ele>1194.60</ele>
	<time>2025-08-03T10:13:33.000Z</time>
</trkpt>
<trkpt lat="45.9510770" lon="10.1563700">
	<ele>1194.20</ele>
	<time>2025-08-03T10:13:34.000Z</time>
</trkpt>
<trkpt lat="45.9510600" lon="10.1563590">
	<ele>1194.00</ele>
	<time>2025-08-03T10:13:35.000Z</time>
</trkpt>
<trkpt lat="45.9510450" lon="10.1563610">
	<ele>1193.60</ele>
	<time>2025-08-03T10:13:36.000Z</time>
</trkpt>
<trkpt lat="45.9510360" lon="10.1563700">
	<ele>1193.40</ele>
	<time>2025-08-03T10:13:37.000Z</time>
</trkpt>
<trkpt lat="45.9510340" lon="10.1563880">
	<ele>1193.20</ele>
	<time>2025-08-03T10:13:38.000Z</time>
</trkpt>
<trkpt lat="45.9510250" lon="10.1564010">
	<ele>1192.80</ele>
	<time>2025-08-03T10:13:39.000Z</time>
</trkpt>
<trkpt lat="45.9510140" lon="10.1564010">
	<ele>1192.60</ele>
	<time>2025-08-03T10:13:40.000Z</time>
</trkpt>
<trkpt lat="45.9510070" lon="10.1564000">
	<ele>1192.20</ele>
	<time>2025-08-03T10:13:41.000Z</time>
</trkpt>
<trkpt lat="45.9509990" lon="10.1563980">
	<ele>1192.00</ele>
	<time>2025-08-03T10:13:42.000Z</time>
</trkpt>
<trkpt lat="45.9509910" lon="10.1563990">
	<ele>1191.60</ele>
	<time>2025-08-03T10:13:43.000Z</time>
</trkpt>
<trkpt lat="45.9509800" lon="10.1563920">
	<ele>1191.20</ele>
	<time>2025-08-03T10:13:44.000Z</time>
</trkpt>
<trkpt lat="45.9509680" lon="10.1563880">
	<ele>1190.80</ele>
	<time>2025-08-03T10:13:45.000Z</time>
</trkpt>
<trkpt lat="45.9509560" lon="10.1563930">
	<ele>1190.60</ele>
	<time>2025-08-03T10:13:46.000Z</time>
</trkpt>
<trkpt lat="45.9509570" lon="10.1564060">
	<ele>1190.40</ele>
	<time>2025-08-03T10:13:47.000Z</time>
</trkpt>
<trkpt lat="45.9509470" lon="10.1564000">
	<ele>1190.20</ele>
	<time>2025-08-03T10:13:48.000Z</time>
</trkpt>
<trkpt lat="45.9509350" lon="10.1564010">
	<ele>1190.00</ele>
	<time>2025-08-03T10:13:49.000Z</time>
</trkpt>
<trkpt lat="45.9509350" lon="10.1564100">
	<ele>1190.00</ele>
	<time>2025-08-03T10:13:50.000Z</time>
</trkpt>
<trkpt lat="45.9509320" lon="10.1564130">
	<ele>1189.80</ele>
	<time>2025-08-03T10:13:51.000Z</time>
</trkpt>
<trkpt lat="45.9509280" lon="10.1564090">
	<ele>1189.80</ele>
	<time>2025-08-03T10:13:52.000Z</time>
</trkpt>
<trkpt lat="45.9509210" lon="10.1564030">
	<ele>1189.80</ele>
	<time>2025-08-03T10:13:53.000Z</time>
</trkpt>
<trkpt lat="45.9509180" lon="10.1564040">
	<ele>1189.80</ele>
	<time>2025-08-03T10:13:54.000Z</time>
</trkpt>
<trkpt lat="45.9509170" lon="10.1564090">
	<ele>1189.60</ele>
	<time>2025-08-03T10:13:55.000Z</time>
</trkpt>
<trkpt lat="45.9509070" lon="10.1564120">
	<ele>1189.60</ele>
	<time>2025-08-03T10:13:56.000Z</time>
</trkpt>
<trkpt lat="45.9508950" lon="10.1564180">
	<ele>1189.40</ele>
	<time>2025-08-03T10:13:57.000Z</time>
</trkpt>
<trkpt lat="45.9508820" lon="10.1564270">
	<ele>1189.20</ele>
	<time>2025-08-03T10:13:58.000Z</time>
</trkpt>
<trkpt lat="45.9508730" lon="10.1564350">
	<ele>1189.00</ele>
	<time>2025-08-03T10:13:59.000Z</time>
</trkpt>
<trkpt lat="45.9508640" lon="10.1564390">
	<ele>1188.80</ele>
	<time>2025-08-03T10:14:00.000Z</time>
</trkpt>
<trkpt lat="45.9508590" lon="10.1564430">
	<ele>1188.40</ele>
	<time>2025-08-03T10:14:01.000Z</time>
</trkpt>
<trkpt lat="45.9508440" lon="10.1564450">
	<ele>1188.40</ele>
	<time>2025-08-03T10:14:02.000Z</time>
</trkpt>
<trkpt lat="45.9508280" lon="10.1564480">
	<ele>1188.20</ele>
	<time>2025-08-03T10:14:03.000Z</time>
</trkpt>
<trkpt lat="45.9508110" lon="10.1564400">
	<ele>1188.00</ele>
	<time>2025-08-03T10:14:04.000Z</time>
</trkpt>
<trkpt lat="45.9507990" lon="10.1564310">
	<ele>1187.40</ele>
	<time>2025-08-03T10:14:05.000Z</time>
</trkpt>
<trkpt lat="45.9507860" lon="10.1564110">
	<ele>1187.20</ele>
	<time>2025-08-03T10:14:06.000Z</time>
</trkpt>
<trkpt lat="45.9507780" lon="10.1564000">
	<ele>1186.60</ele>
	<time>2025-08-03T10:14:07.000Z</time>
</trkpt>
<trkpt lat="45.9507740" lon="10.1563960">
	<ele>1186.40</ele>
	<time>2025-08-03T10:14:08.000Z</time>
</trkpt>
<trkpt lat="45.9507620" lon="10.1563820">
	<ele>1186.40</ele>
	<time>2025-08-03T10:14:09.000Z</time>
</trkpt>
<trkpt lat="45.9507540" lon="10.1563760">
	<ele>1186.20</ele>
	<time>2025-08-03T10:14:10.000Z</time>
</trkpt>
<trkpt lat="45.9507470" lon="10.1563700">
	<ele>1186.00</ele>
	<time>2025-08-03T10:14:11.000Z</time>
</trkpt>
<trkpt lat="45.9507350" lon="10.1563670">
	<ele>1185.80</ele>
	<time>2025-08-03T10:14:12.000Z</time>
</trkpt>
<trkpt lat="45.9507230" lon="10.1563680">
	<ele>1185.60</ele>
	<time>2025-08-03T10:14:13.000Z</time>
</trkpt>
<trkpt lat="45.9507130" lon="10.1563670">
	<ele>1185.40</ele>
	<time>2025-08-03T10:14:14.000Z</time>
</trkpt>
<trkpt lat="45.9507030" lon="10.1563600">
	<ele>1185.20</ele>
	<time>2025-08-03T10:14:15.000Z</time>
</trkpt>
<trkpt lat="45.9506940" lon="10.1563550">
	<ele>1185.00</ele>
	<time>2025-08-03T10:14:16.000Z</time>
</trkpt>
<trkpt lat="45.9506850" lon="10.1563460">
	<ele>1184.60</ele>
	<time>2025-08-03T10:14:17.000Z</time>
</trkpt>
<trkpt lat="45.9506700" lon="10.1563360">
	<ele>1184.40</ele>
	<time>2025-08-03T10:14:18.000Z</time>
</trkpt>
<trkpt lat="45.9506590" lon="10.1563270">
	<ele>1184.20</ele>
	<time>2025-08-03T10:14:19.000Z</time>
</trkpt>
<trkpt lat="45.9506430" lon="10.1563080">
	<ele>1184.00</ele>
	<time>2025-08-03T10:14:20.000Z</time>
</trkpt>
<trkpt lat="45.9506290" lon="10.1562910">
	<ele>1183.80</ele>
	<time>2025-08-03T10:14:21.000Z</time>
</trkpt>
<trkpt lat="45.9506180" lon="10.1562690">
	<ele>1183.80</ele>
	<time>2025-08-03T10:14:22.000Z</time>
</trkpt>
<trkpt lat="45.9506010" lon="10.1562430">
	<ele>1183.60</ele>
	<time>2025-08-03T10:14:23.000Z</time>
</trkpt>
<trkpt lat="45.9505810" lon="10.1562140">
	<ele>1183.40</ele>
	<time>2025-08-03T10:14:24.000Z</time>
</trkpt>
<trkpt lat="45.9505710" lon="10.1562050">
	<ele>1183.20</ele>
	<time>2025-08-03T10:14:25.000Z</time>
</trkpt>
<trkpt lat="45.9505630" lon="10.1561920">
	<ele>1183.00</ele>
	<time>2025-08-03T10:14:26.000Z</time>
</trkpt>
<trkpt lat="45.9505590" lon="10.1561830">
	<ele>1182.80</ele>
	<time>2025-08-03T10:14:27.000Z</time>
</trkpt>
<trkpt lat="45.9505520" lon="10.1561740">
	<ele>1182.60</ele>
	<time>2025-08-03T10:14:28.000Z</time>
</trkpt>
<trkpt lat="45.9505420" lon="10.1561610">
	<ele>1182.60</ele>
	<time>2025-08-03T10:14:29.000Z</time>
</trkpt>
<trkpt lat="45.9505280" lon="10.1561390">
	<ele>1182.20</ele>
	<time>2025-08-03T10:14:30.000Z</time>
</trkpt>
<trkpt lat="45.9505180" lon="10.1561220">
	<ele>1182.00</ele>
	<time>2025-08-03T10:14:31.000Z</time>
</trkpt>
<trkpt lat="45.9505120" lon="10.1561060">
	<ele>1181.60</ele>
	<time>2025-08-03T10:14:32.000Z</time>
</trkpt>
<trkpt lat="45.9505070" lon="10.1560910">
	<ele>1181.60</ele>
	<time>2025-08-03T10:14:33.000Z</time>
</trkpt>
<trkpt lat="45.9505000" lon="10.1560780">
	<ele>1181.20</ele>
	<time>2025-08-03T10:14:34.000Z</time>
</trkpt>
<trkpt lat="45.9505000" lon="10.1560800">
	<ele>1180.80</ele>
	<time>2025-08-03T10:14:35.000Z</time>
</trkpt>
<trkpt lat="45.9504970" lon="10.1560740">
	<ele>1180.40</ele>
	<time>2025-08-03T10:14:36.000Z</time>
</trkpt>
<trkpt lat="45.9504870" lon="10.1560720">
	<ele>1179.80</ele>
	<time>2025-08-03T10:14:37.000Z</time>
</trkpt>
<trkpt lat="45.9504700" lon="10.1560650">
	<ele>1179.60</ele>
	<time>2025-08-03T10:14:38.000Z</time>
</trkpt>
<trkpt lat="45.9504560" lon="10.1560640">
	<ele>1179.40</ele>
	<time>2025-08-03T10:14:39.000Z</time>
</trkpt>
<trkpt lat="45.9504440" lon="10.1560530">
	<ele>1179.20</ele>
	<time>2025-08-03T10:14:40.000Z</time>
</trkpt>
<trkpt lat="45.9504420" lon="10.1560500">
	<ele>1179.00</ele>
	<time>2025-08-03T10:14:41.000Z</time>
</trkpt>
<trkpt lat="45.9504400" lon="10.1560350">
	<ele>1178.80</ele>
	<time>2025-08-03T10:14:42.000Z</time>
</trkpt>
<trkpt lat="45.9504280" lon="10.1560240">
	<ele>1178.40</ele>
	<time>2025-08-03T10:14:43.000Z</time>
</trkpt>
<trkpt lat="45.9504180" lon="10.1560270">
	<ele>1178.20</ele>
	<time>2025-08-03T10:14:44.000Z</time>
</trkpt>
<trkpt lat="45.9504120" lon="10.1560350">
	<ele>1178.00</ele>
	<time>2025-08-03T10:14:45.000Z</time>
</trkpt>
<trkpt lat="45.9504030" lon="10.1560450">
	<ele>1177.60</ele>
	<time>2025-08-03T10:14:46.000Z</time>
</trkpt>
<trkpt lat="45.9503910" lon="10.1560440">
	<ele>1177.40</ele>
	<time>2025-08-03T10:14:47.000Z</time>
</trkpt>
<trkpt lat="45.9503880" lon="10.1560440">
	<ele>1177.20</ele>
	<time>2025-08-03T10:14:48.000Z</time>
</trkpt>
<trkpt lat="45.9503830" lon="10.1560660">
	<ele>1177.00</ele>
	<time>2025-08-03T10:14:49.000Z</time>
</trkpt>
<trkpt lat="45.9503750" lon="10.1560750">
	<ele>1176.60</ele>
	<time>2025-08-03T10:14:50.000Z</time>
</trkpt>
<trkpt lat="45.9503710" lon="10.1560750">
	<ele>1176.40</ele>
	<time>2025-08-03T10:14:51.000Z</time>
</trkpt>
<trkpt lat="45.9503620" lon="10.1560780">
	<ele>1176.20</ele>
	<time>2025-08-03T10:14:52.000Z</time>
</trkpt>
<trkpt lat="45.9503390" lon="10.1560790">
	<ele>1176.00</ele>
	<time>2025-08-03T10:14:53.000Z</time>
</trkpt>
<trkpt lat="45.9503180" lon="10.1560710">
	<ele>1175.60</ele>
	<time>2025-08-03T10:14:54.000Z</time>
</trkpt>
<trkpt lat="45.9502980" lon="10.1560610">
	<ele>1175.20</ele>
	<time>2025-08-03T10:14:55.000Z</time>
</trkpt>
<trkpt lat="45.9502820" lon="10.1560530">
	<ele>1175.00</ele>
	<time>2025-08-03T10:14:56.000Z</time>
</trkpt>
<trkpt lat="45.9502710" lon="10.1560460">
	<ele>1174.80</ele>
	<time>2025-08-03T10:14:57.000Z</time>
</trkpt>
<trkpt lat="45.9502620" lon="10.1560380">
	<ele>1174.60</ele>
	<time>2025-08-03T10:14:58.000Z</time>
</trkpt>
<trkpt lat="45.9502570" lon="10.1560320">
	<ele>1174.40</ele>
	<time>2025-08-03T10:14:59.000Z</time>
</trkpt>
<trkpt lat="45.9502560" lon="10.1560250">
	<ele>1174.20</ele>
	<time>2025-08-03T10:15:00.000Z</time>
</trkpt>
<trkpt lat="45.9502480" lon="10.1560190">
	<ele>1173.80</ele>
	<time>2025-08-03T10:15:01.000Z</time>
</trkpt>
<trkpt lat="45.9502320" lon="10.1560200">
	<ele>1173.60</ele>
	<time>2025-08-03T10:15:02.000Z</time>
</trkpt>
<trkpt lat="45.9502170" lon="10.1560250">
	<ele>1173.40</ele>
	<time>2025-08-03T10:15:03.000Z</time>
</trkpt>
<trkpt lat="45.9502000" lon="10.1560420">
	<ele>1173.40</ele>
	<time>2025-08-03T10:15:04.000Z</time>
</trkpt>
<trkpt lat="45.9501840" lon="10.1560470">
	<ele>1173.00</ele>
	<time>2025-08-03T10:15:05.000Z</time>
</trkpt>
<trkpt lat="45.9501660" lon="10.1560400">
	<ele>1172.80</ele>
	<time>2025-08-03T10:15:06.000Z</time>
</trkpt>
<trkpt lat="45.9501490" lon="10.1560260">
	<ele>1172.60</ele>
	<time>2025-08-03T10:15:07.000Z</time>
</trkpt>
<trkpt lat="45.9501330" lon="10.1560220">
	<ele>1172.40</ele>
	<time>2025-08-03T10:15:08.000Z</time>
</trkpt>
<trkpt lat="45.9501150" lon="10.1560240">
	<ele>1172.20</ele>
	<time>2025-08-03T10:15:09.000Z</time>
</trkpt>
<trkpt lat="45.9500880" lon="10.1560170">
	<ele>1171.80</ele>
	<time>2025-08-03T10:15:10.000Z</time>
</trkpt>
<trkpt lat="45.9500660" lon="10.1560100">
	<ele>1171.60</ele>
	<time>2025-08-03T10:15:11.000Z</time>
</trkpt>
<trkpt lat="45.9500380" lon="10.1559980">
	<ele>1171.40</ele>
	<time>2025-08-03T10:15:12.000Z</time>
</trkpt>
<trkpt lat="45.9500140" lon="10.1559870">
	<ele>1171.20</ele>
	<time>2025-08-03T10:15:13.000Z</time>
</trkpt>
<trkpt lat="45.9499960" lon="10.1559800">
	<ele>1170.80</ele>
	<time>2025-08-03T10:15:14.000Z</time>
</trkpt>
<trkpt lat="45.9499830" lon="10.1559680">
	<ele>1170.60</ele>
	<time>2025-08-03T10:15:15.000Z</time>
</trkpt>
<trkpt lat="45.9499720" lon="10.1559620">
	<ele>1170.40</ele>
	<time>2025-08-03T10:15:16.000Z</time>
</trkpt>
<trkpt lat="45.9499560" lon="10.1559490">
	<ele>1170.20</ele>
	<time>2025-08-03T10:15:17.000Z</time>
</trkpt>
<trkpt lat="45.9499380" lon="10.1559350">
	<ele>1169.80</ele>
	<time>2025-08-03T10:15:18.000Z</time>
</trkpt>
<trkpt lat="45.9499170" lon="10.1559220">
	<ele>1169.40</ele>
	<time>2025-08-03T10:15:19.000Z</time>
</trkpt>
<trkpt lat="45.9498930" lon="10.1559100">
	<ele>1169.20</ele>
	<time>2025-08-03T10:15:20.000Z</time>
</trkpt>
<trkpt lat="45.9498780" lon="10.1559060">
	<ele>1169.00</ele>
	<time>2025-08-03T10:15:21.000Z</time>
</trkpt>
<trkpt lat="45.9498600" lon="10.1559010">
	<ele>1168.60</ele>
	<time>2025-08-03T10:15:22.000Z</time>
</trkpt>
<trkpt lat="45.9498350" lon="10.1558950">
	<ele>1168.40</ele>
	<time>2025-08-03T10:15:23.000Z</time>
</trkpt>
<trkpt lat="45.9498160" lon="10.1558870">
	<ele>1168.40</ele>
	<time>2025-08-03T10:15:24.000Z</time>
</trkpt>
<trkpt lat="45.9497960" lon="10.1558780">
	<ele>1168.20</ele>
	<time>2025-08-03T10:15:25.000Z</time>
</trkpt>
<trkpt lat="45.9497750" lon="10.1558680">
	<ele>1168.00</ele>
	<time>2025-08-03T10:15:26.000Z</time>
</trkpt>
<trkpt lat="45.9497510" lon="10.1558570">
	<ele>1167.80</ele>
	<time>2025-08-03T10:15:27.000Z</time>
</trkpt>
<trkpt lat="45.9497210" lon="10.1558450">
	<ele>1167.60</ele>
	<time>2025-08-03T10:15:28.000Z</time>
</trkpt>
<trkpt lat="45.9497060" lon="10.1558550">
	<ele>1167.20</ele>
	<time>2025-08-03T10:15:29.000Z</time>
</trkpt>
<trkpt lat="45.9496990" lon="10.1558720">
	<ele>1166.80</ele>
	<time>2025-08-03T10:15:30.000Z</time>
</trkpt>
<trkpt lat="45.9496840" lon="10.1558790">
	<ele>1166.60</ele>
	<time>2025-08-03T10:15:31.000Z</time>
</trkpt>
<trkpt lat="45.9496760" lon="10.1558900">
	<ele>1166.40</ele>
	<time>2025-08-03T10:15:32.000Z</time>
</trkpt>
<trkpt lat="45.9496700" lon="10.1559010">
	<ele>1166.40</ele>
	<time>2025-08-03T10:15:33.000Z</time>
</trkpt>
<trkpt lat="45.9496610" lon="10.1559050">
	<ele>1166.20</ele>
	<time>2025-08-03T10:15:34.000Z</time>
</trkpt>
<trkpt lat="45.9496460" lon="10.1559010">
	<ele>1165.60</ele>
	<time>2025-08-03T10:15:35.000Z</time>
</trkpt>
<trkpt lat="45.9496330" lon="10.1558960">
	<ele>1165.40</ele>
	<time>2025-08-03T10:15:36.000Z</time>
</trkpt>
<trkpt lat="45.9496180" lon="10.1558870">
	<ele>1165.20</ele>
	<time>2025-08-03T10:15:37.000Z</time>
</trkpt>
<trkpt lat="45.9496110" lon="10.1558840">
	<ele>1165.00</ele>
	<time>2025-08-03T10:15:38.000Z</time>
</trkpt>
<trkpt lat="45.9496000" lon="10.1558900">
	<ele>1165.00</ele>
	<time>2025-08-03T10:15:39.000Z</time>
</trkpt>
<trkpt lat="45.9495950" lon="10.1558910">
	<ele>1164.80</ele>
	<time>2025-08-03T10:15:40.000Z</time>
</trkpt>
<trkpt lat="45.9495850" lon="10.1559030">
	<ele>1164.60</ele>
	<time>2025-08-03T10:15:41.000Z</time>
</trkpt>
<trkpt lat="45.9495800" lon="10.1559230">
	<ele>1164.20</ele>
	<time>2025-08-03T10:15:42.000Z</time>
</trkpt>
<trkpt lat="45.9495690" lon="10.1559420">
	<ele>1164.00</ele>
	<time>2025-08-03T10:15:43.000Z</time>
</trkpt>
<trkpt lat="45.9495580" lon="10.1559610">
	<ele>1163.60</ele>
	<time>2025-08-03T10:15:44.000Z</time>
</trkpt>
<trkpt lat="45.9495510" lon="10.1559790">
	<ele>1163.60</ele>
	<time>2025-08-03T10:15:45.000Z</time>
</trkpt>
<trkpt lat="45.9495400" lon="10.1559910">
	<ele>1163.20</ele>
	<time>2025-08-03T10:15:46.000Z</time>
</trkpt>
<trkpt lat="45.9495270" lon="10.1559970">
	<ele>1163.00</ele>
	<time>2025-08-03T10:15:47.000Z</time>
</trkpt>
<trkpt lat="45.9495110" lon="10.1560010">
	<ele>1162.80</ele>
	<time>2025-08-03T10:15:48.000Z</time>
</trkpt>
<trkpt lat="45.9495020" lon="10.1560090">
	<ele>1162.60</ele>
	<time>2025-08-03T10:15:49.000Z</time>
</trkpt>
<trkpt lat="45.9494910" lon="10.1560180">
	<ele>1162.40</ele>
	<time>2025-08-03T10:15:50.000Z</time>
</trkpt>
<trkpt lat="45.9494790" lon="10.1560310">
	<ele>1162.20</ele>
	<time>2025-08-03T10:15:51.000Z</time>
</trkpt>
<trkpt lat="45.9494700" lon="10.1560470">
	<ele>1161.80</ele>
	<time>2025-08-03T10:15:52.000Z</time>
</trkpt>
<trkpt lat="45.9494640" lon="10.1560610">
	<ele>1161.60</ele>
	<time>2025-08-03T10:15:53.000Z</time>
</trkpt>
<trkpt lat="45.9494600" lon="10.1560760">
	<ele>1161.20</ele>
	<time>2025-08-03T10:15:54.000Z</time>
</trkpt>
<trkpt lat="45.9494500" lon="10.1560870">
	<ele>1161.00</ele>
	<time>2025-08-03T10:15:55.000Z</time>
</trkpt>
<trkpt lat="45.9494360" lon="10.1560960">
	<ele>1160.80</ele>
	<time>2025-08-03T10:15:56.000Z</time>
</trkpt>
<trkpt lat="45.9494260" lon="10.1561060">
	<ele>1160.60</ele>
	<time>2025-08-03T10:15:57.000Z</time>
</trkpt>
<trkpt lat="45.9494160" lon="10.1561170">
	<ele>1160.20</ele>
	<time>2025-08-03T10:15:58.000Z</time>
</trkpt>
<trkpt lat="45.9494000" lon="10.1561240">
	<ele>1160.00</ele>
	<time>2025-08-03T10:15:59.000Z</time>
</trkpt>
<trkpt lat="45.9493860" lon="10.1561340">
	<ele>1159.80</ele>
	<time>2025-08-03T10:16:00.000Z</time>
</trkpt>
<trkpt lat="45.9493730" lon="10.1561420">
	<ele>1159.60</ele>
	<time>2025-08-03T10:16:01.000Z</time>
</trkpt>
<trkpt lat="45.9493590" lon="10.1561440">
	<ele>1159.40</ele>
	<time>2025-08-03T10:16:02.000Z</time>
</trkpt>
<trkpt lat="45.9493520" lon="10.1561490">
	<ele>1159.00</ele>
	<time>2025-08-03T10:16:03.000Z</time>
</trkpt>
<trkpt lat="45.9493430" lon="10.1561510">
	<ele>1159.00</ele>
	<time>2025-08-03T10:16:04.000Z</time>
</trkpt>
<trkpt lat="45.9493310" lon="10.1561490">
	<ele>1158.60</ele>
	<time>2025-08-03T10:16:05.000Z</time>
</trkpt>
<trkpt lat="45.9493160" lon="10.1561540">
	<ele>1158.20</ele>
	<time>2025-08-03T10:16:06.000Z</time>
</trkpt>
<trkpt lat="45.9492990" lon="10.1561630">
	<ele>1158.00</ele>
	<time>2025-08-03T10:16:07.000Z</time>
</trkpt>
<trkpt lat="45.9492790" lon="10.1561720">
	<ele>1157.80</ele>
	<time>2025-08-03T10:16:08.000Z</time>
</trkpt>
<trkpt lat="45.9492600" lon="10.1561810">
	<ele>1157.60</ele>
	<time>2025-08-03T10:16:09.000Z</time>
</trkpt>
<trkpt lat="45.9492420" lon="10.1561750">
	<ele>1157.20</ele>
	<time>2025-08-03T10:16:10.000Z</time>
</trkpt>
<trkpt lat="45.9492340" lon="10.1562150">
	<ele>1157.00</ele>
	<time>2025-08-03T10:16:11.000Z</time>
</trkpt>
<trkpt lat="45.9492170" lon="10.1562210">
	<ele>1156.60</ele>
	<time>2025-08-03T10:16:12.000Z</time>
</trkpt>
<trkpt lat="45.9492010" lon="10.1562210">
	<ele>1156.40</ele>
	<time>2025-08-03T10:16:13.000Z</time>
</trkpt>
<trkpt lat="45.9491800" lon="10.1562110">
	<ele>1156.20</ele>
	<time>2025-08-03T10:16:14.000Z</time>
</trkpt>
<trkpt lat="45.9491610" lon="10.1562100">
	<ele>1156.00</ele>
	<time>2025-08-03T10:16:15.000Z</time>
</trkpt>
<trkpt lat="45.9491470" lon="10.1561900">
	<ele>1155.80</ele>
	<time>2025-08-03T10:16:16.000Z</time>
</trkpt>
<trkpt lat="45.9491330" lon="10.1561770">
	<ele>1155.60</ele>
	<time>2025-08-03T10:16:17.000Z</time>
</trkpt>
<trkpt lat="45.9491160" lon="10.1561680">
	<ele>1155.40</ele>
	<time>2025-08-03T10:16:18.000Z</time>
</trkpt>
<trkpt lat="45.9490960" lon="10.1561540">
	<ele>1155.00</ele>
	<time>2025-08-03T10:16:19.000Z</time>
</trkpt>
<trkpt lat="45.9490790" lon="10.1561470">
	<ele>1154.80</ele>
	<time>2025-08-03T10:16:20.000Z</time>
</trkpt>
<trkpt lat="45.9490560" lon="10.1561440">
	<ele>1154.60</ele>
	<time>2025-08-03T10:16:21.000Z</time>
</trkpt>
<trkpt lat="45.9490340" lon="10.1561360">
	<ele>1154.20</ele>
	<time>2025-08-03T10:16:22.000Z</time>
</trkpt>
<trkpt lat="45.9490200" lon="10.1561340">
	<ele>1154.00</ele>
	<time>2025-08-03T10:16:23.000Z</time>
</trkpt>
<trkpt lat="45.9490020" lon="10.1561340">
	<ele>1153.60</ele>
	<time>2025-08-03T10:16:24.000Z</time>
</trkpt>
<trkpt lat="45.9489860" lon="10.1561350">
	<ele>1153.40</ele>
	<time>2025-08-03T10:16:25.000Z</time>
</trkpt>
<trkpt lat="45.9489790" lon="10.1561450">
	<ele>1153.20</ele>
	<time>2025-08-03T10:16:26.000Z</time>
</trkpt>
<trkpt lat="45.9489630" lon="10.1561500">
	<ele>1153.00</ele>
	<time>2025-08-03T10:16:27.000Z</time>
</trkpt>
<trkpt lat="45.9489360" lon="10.1561490">
	<ele>1152.80</ele>
	<time>2025-08-03T10:16:28.000Z</time>
</trkpt>
<trkpt lat="45.9489160" lon="10.1561350">
	<ele>1152.60</ele>
	<time>2025-08-03T10:16:29.000Z</time>
</trkpt>
<trkpt lat="45.9488940" lon="10.1561100">
	<ele>1152.40</ele>
	<time>2025-08-03T10:16:30.000Z</time>
</trkpt>
<trkpt lat="45.9488700" lon="10.1560910">
	<ele>1152.20</ele>
	<time>2025-08-03T10:16:31.000Z</time>
</trkpt>
<trkpt lat="45.9488620" lon="10.1560820">
	<ele>1151.80</ele>
	<time>2025-08-03T10:16:32.000Z</time>
</trkpt>
<trkpt lat="45.9488570" lon="10.1560810">
	<ele>1151.40</ele>
	<time>2025-08-03T10:16:33.000Z</time>
</trkpt>
<trkpt lat="45.9488400" lon="10.1560730">
	<ele>1151.00</ele>
	<time>2025-08-03T10:16:34.000Z</time>
</trkpt>
<trkpt lat="45.9488230" lon="10.1560670">
	<ele>1150.80</ele>
	<time>2025-08-03T10:16:35.000Z</time>
</trkpt>
<trkpt lat="45.9488080" lon="10.1560670">
	<ele>1150.40</ele>
	<time>2025-08-03T10:16:36.000Z</time>
</trkpt>
<trkpt lat="45.9487980" lon="10.1560710">
	<ele>1150.40</ele>
	<time>2025-08-03T10:16:37.000Z</time>
</trkpt>
<trkpt lat="45.9487870" lon="10.1560720">
	<ele>1150.00</ele>
	<time>2025-08-03T10:16:38.000Z</time>
</trkpt>
<trkpt lat="45.9487610" lon="10.1560540">
	<ele>1149.60</ele>
	<time>2025-08-03T10:16:39.000Z</time>
</trkpt>
<trkpt lat="45.9487490" lon="10.1560570">
	<ele>1149.20</ele>
	<time>2025-08-03T10:16:40.000Z</time>
</trkpt>
<trkpt lat="45.9487400" lon="10.1560480">
	<ele>1149.20</ele>
	<time>2025-08-03T10:16:41.000Z</time>
</trkpt>
<trkpt lat="45.9487290" lon="10.1560320">
	<ele>1148.80</ele>
	<time>2025-08-03T10:16:42.000Z</time>
</trkpt>
<trkpt lat="45.9487140" lon="10.1560320">
	<ele>1148.40</ele>
	<time>2025-08-03T10:16:43.000Z</time>
</trkpt>
<trkpt lat="45.9487000" lon="10.1560460">
	<ele>1148.20</ele>
	<time>2025-08-03T10:16:44.000Z</time>
</trkpt>
<trkpt lat="45.9486880" lon="10.1560610">
	<ele>1148.00</ele>
	<time>2025-08-03T10:16:45.000Z</time>
</trkpt>
<trkpt lat="45.9486770" lon="10.1560800">
	<ele>1147.80</ele>
	<time>2025-08-03T10:16:46.000Z</time>
</trkpt>
<trkpt lat="45.9486700" lon="10.1560900">
	<ele>1147.60</ele>
	<time>2025-08-03T10:16:47.000Z</time>
</trkpt>
<trkpt lat="45.9486550" lon="10.1561040">
	<ele>1147.20</ele>
	<time>2025-08-03T10:16:48.000Z</time>
</trkpt>
<trkpt lat="45.9486440" lon="10.1561230">
	<ele>1147.00</ele>
	<time>2025-08-03T10:16:49.000Z</time>
</trkpt>
<trkpt lat="45.9486340" lon="10.1561360">
	<ele>1146.60</ele>
	<time>2025-08-03T10:16:50.000Z</time>
</trkpt>
<trkpt lat="45.9486170" lon="10.1561310">
	<ele>1146.20</ele>
	<time>2025-08-03T10:16:51.000Z</time>
</trkpt>
<trkpt lat="45.9485980" lon="10.1561300">
	<ele>1146.00</ele>
	<time>2025-08-03T10:16:52.000Z</time>
</trkpt>
<trkpt lat="45.9485860" lon="10.1561300">
	<ele>1145.80</ele>
	<time>2025-08-03T10:16:53.000Z</time>
</trkpt>
<trkpt lat="45.9485820" lon="10.1561350">
	<ele>1145.60</ele>
	<time>2025-08-03T10:16:54.000Z</time>
</trkpt>
<trkpt lat="45.9485830" lon="10.1561480">
	<ele>1145.20</ele>
	<time>2025-08-03T10:16:55.000Z</time>
</trkpt>
<trkpt lat="45.9485840" lon="10.1561620">
	<ele>1145.00</ele>
	<time>2025-08-03T10:16:56.000Z</time>
</trkpt>
<trkpt lat="45.9485740" lon="10.1561720">
	<ele>1144.60</ele>
	<time>2025-08-03T10:16:57.000Z</time>
</trkpt>
<trkpt lat="45.9485560" lon="10.1561810">
	<ele>1144.40</ele>
	<time>2025-08-03T10:16:58.000Z</time>
</trkpt>
<trkpt lat="45.9485390" lon="10.1561830">
	<ele>1144.20</ele>
	<time>2025-08-03T10:16:59.000Z</time>
</trkpt>
<trkpt lat="45.9485230" lon="10.1561830">
	<ele>1144.00</ele>
	<time>2025-08-03T10:17:00.000Z</time>
</trkpt>
<trkpt lat="45.9485130" lon="10.1561880">
	<ele>1143.80</ele>
	<time>2025-08-03T10:17:01.000Z</time>
</trkpt>
<trkpt lat="45.9485080" lon="10.1562020">
	<ele>1143.60</ele>
	<time>2025-08-03T10:17:02.000Z</time>
</trkpt>
<trkpt lat="45.9485030" lon="10.1562160">
	<ele>1143.40</ele>
	<time>2025-08-03T10:17:03.000Z</time>
</trkpt>
<trkpt lat="45.9484930" lon="10.1562230">
	<ele>1143.20</ele>
	<time>2025-08-03T10:17:04.000Z</time>
</trkpt>
<trkpt lat="45.9484830" lon="10.1562370">
	<ele>1143.00</ele>
	<time>2025-08-03T10:17:05.000Z</time>
</trkpt>
<trkpt lat="45.9484730" lon="10.1562470">
	<ele>1143.00</ele>
	<time>2025-08-03T10:17:06.000Z</time>
</trkpt>
<trkpt lat="45.9484610" lon="10.1562530">
	<ele>1142.60</ele>
	<time>2025-08-03T10:17:07.000Z</time>
</trkpt>
<trkpt lat="45.9484470" lon="10.1562540">
	<ele>1142.40</ele>
	<time>2025-08-03T10:17:08.000Z</time>
</trkpt>
<trkpt lat="45.9484330" lon="10.1562510">
	<ele>1142.20</ele>
	<time>2025-08-03T10:17:09.000Z</time>
</trkpt>
<trkpt lat="45.9484210" lon="10.1562450">
	<ele>1142.00</ele>
	<time>2025-08-03T10:17:10.000Z</time>
</trkpt>
<trkpt lat="45.9484060" lon="10.1562390">
	<ele>1141.60</ele>
	<time>2025-08-03T10:17:11.000Z</time>
</trkpt>
<trkpt lat="45.9483870" lon="10.1562290">
	<ele>1141.40</ele>
	<time>2025-08-03T10:17:12.000Z</time>
</trkpt>
<trkpt lat="45.9483610" lon="10.1562080">
	<ele>1141.40</ele>
	<time>2025-08-03T10:17:13.000Z</time>
</trkpt>
<trkpt lat="45.9483400" lon="10.1561860">
	<ele>1141.00</ele>
	<time>2025-08-03T10:17:14.000Z</time>
</trkpt>
<trkpt lat="45.9483190" lon="10.1561590">
	<ele>1140.80</ele>
	<time>2025-08-03T10:17:15.000Z</time>
</trkpt>
<trkpt lat="45.9483040" lon="10.1561270">
	<ele>1140.60</ele>
	<time>2025-08-03T10:17:16.000Z</time>
</trkpt>
<trkpt lat="45.9482910" lon="10.1561070">
	<ele>1140.60</ele>
	<time>2025-08-03T10:17:17.000Z</time>
</trkpt>
<trkpt lat="45.9482760" lon="10.1560860">
	<ele>1140.40</ele>
	<time>2025-08-03T10:17:18.000Z</time>
</trkpt>
<trkpt lat="45.9482590" lon="10.1560700">
	<ele>1140.40</ele>
	<time>2025-08-03T10:17:19.000Z</time>
</trkpt>
<trkpt lat="45.9482480" lon="10.1560520">
	<ele>1140.20</ele>
	<time>2025-08-03T10:17:20.000Z</time>
</trkpt>
<trkpt lat="45.9482470" lon="10.1560410">
	<ele>1140.00</ele>
	<time>2025-08-03T10:17:21.000Z</time>
</trkpt>
<trkpt lat="45.9482390" lon="10.1560180">
	<ele>1140.00</ele>
	<time>2025-08-03T10:17:22.000Z</time>
</trkpt>
<trkpt lat="45.9482270" lon="10.1559980">
	<ele>1140.00</ele>
	<time>2025-08-03T10:17:23.000Z</time>
</trkpt>
<trkpt lat="45.9482220" lon="10.1559730">
	<ele>1140.00</ele>
	<time>2025-08-03T10:17:24.000Z</time>
</trkpt>
<trkpt lat="45.9482190" lon="10.1559530">
	<ele>1139.80</ele>
	<time>2025-08-03T10:17:25.000Z</time>
</trkpt>
<trkpt lat="45.9482100" lon="10.1559310">
	<ele>1139.80</ele>
	<time>2025-08-03T10:17:26.000Z</time>
</trkpt>
<trkpt lat="45.9482010" lon="10.1559160">
	<ele>1139.60</ele>
	<time>2025-08-03T10:17:27.000Z</time>
</trkpt>
<trkpt lat="45.9481930" lon="10.1559060">
	<ele>1139.60</ele>
	<time>2025-08-03T10:17:28.000Z</time>
</trkpt>
<trkpt lat="45.9481850" lon="10.1558910">
	<ele>1139.60</ele>
	<time>2025-08-03T10:17:29.000Z</time>
</trkpt>
<trkpt lat="45.9481680" lon="10.1558580">
	<ele>1139.60</ele>
	<time>2025-08-03T10:17:30.000Z</time>
</trkpt>
<trkpt lat="45.9481550" lon="10.1558260">
	<ele>1139.40</ele>
	<time>2025-08-03T10:17:31.000Z</time>
</trkpt>
<trkpt lat="45.9481440" lon="10.1557970">
	<ele>1139.40</ele>
	<time>2025-08-03T10:17:32.000Z</time>
</trkpt>
<trkpt lat="45.9481410" lon="10.1557710">
	<ele>1139.00</ele>
	<time>2025-08-03T10:17:33.000Z</time>
</trkpt>
<trkpt lat="45.9481450" lon="10.1557530">
	<ele>1139.00</ele>
	<time>2025-08-03T10:17:34.000Z</time>
</trkpt>
<trkpt lat="45.9481500" lon="10.1557380">
	<ele>1138.80</ele>
	<time>2025-08-03T10:17:35.000Z</time>
</trkpt>
<trkpt lat="45.9481540" lon="10.1557140">
	<ele>1138.60</ele>
	<time>2025-08-03T10:17:36.000Z</time>
</trkpt>
<trkpt lat="45.9481600" lon="10.1556810">
	<ele>1138.20</ele>
	<time>2025-08-03T10:17:37.000Z</time>
</trkpt>
<trkpt lat="45.9481740" lon="10.1556630">
	<ele>1138.20</ele>
	<time>2025-08-03T10:17:38.000Z</time>
</trkpt>
<trkpt lat="45.9481850" lon="10.1556570">
	<ele>1137.80</ele>
	<time>2025-08-03T10:17:39.000Z</time>
</trkpt>
<trkpt lat="45.9482000" lon="10.1556480">
	<ele>1137.60</ele>
	<time>2025-08-03T10:17:40.000Z</time>
</trkpt>
<trkpt lat="45.9482210" lon="10.1556480">
	<ele>1137.40</ele>
	<time>2025-08-03T10:17:41.000Z</time>
</trkpt>
<trkpt lat="45.9482240" lon="10.1556340">
	<ele>1137.00</ele>
	<time>2025-08-03T10:17:42.000Z</time>
</trkpt>
<trkpt lat="45.9482070" lon="10.1556140">
	<ele>1137.00</ele>
	<time>2025-08-03T10:17:43.000Z</time>
</trkpt>
<trkpt lat="45.9481960" lon="10.1555980">
	<ele>1136.80</ele>
	<time>2025-08-03T10:17:44.000Z</time>
</trkpt>
<trkpt lat="45.9481840" lon="10.1555880">
	<ele>1136.40</ele>
	<time>2025-08-03T10:17:45.000Z</time>
</trkpt>
<trkpt lat="45.9481650" lon="10.1555650">
	<ele>1136.20</ele>
	<time>2025-08-03T10:17:46.000Z</time>
</trkpt>
<trkpt lat="45.9481520" lon="10.1555580">
	<ele>1135.80</ele>
	<time>2025-08-03T10:17:47.000Z</time>
</trkpt>
<trkpt lat="45.9481280" lon="10.1555480">
	<ele>1135.40</ele>
	<time>2025-08-03T10:17:48.000Z</time>
</trkpt>
<trkpt lat="45.9481090" lon="10.1555430">
	<ele>1135.20</ele>
	<time>2025-08-03T10:17:49.000Z</time>
</trkpt>
<trkpt lat="45.9480850" lon="10.1555330">
	<ele>1134.80</ele>
	<time>2025-08-03T10:17:50.000Z</time>
</trkpt>
<trkpt lat="45.9480650" lon="10.1555130">
	<ele>1134.60</ele>
	<time>2025-08-03T10:17:51.000Z</time>
</trkpt>
<trkpt lat="45.9480540" lon="10.1555170">
	<ele>1134.20</ele>
	<time>2025-08-03T10:17:52.000Z</time>
</trkpt>
<trkpt lat="45.9480330" lon="10.1555160">
	<ele>1133.80</ele>
	<time>2025-08-03T10:17:53.000Z</time>
</trkpt>
<trkpt lat="45.9480160" lon="10.1555080">
	<ele>1133.60</ele>
	<time>2025-08-03T10:17:54.000Z</time>
</trkpt>
<trkpt lat="45.9479990" lon="10.1554980">
	<ele>1133.40</ele>
	<time>2025-08-03T10:17:55.000Z</time>
</trkpt>
<trkpt lat="45.9479880" lon="10.1554920">
	<ele>1133.20</ele>
	<time>2025-08-03T10:17:56.000Z</time>
</trkpt>
<trkpt lat="45.9479800" lon="10.1554830">
	<ele>1133.20</ele>
	<time>2025-08-03T10:17:57.000Z</time>
</trkpt>
<trkpt lat="45.9479710" lon="10.1554680">
	<ele>1133.00</ele>
	<time>2025-08-03T10:17:58.000Z</time>
</trkpt>
<trkpt lat="45.9479630" lon="10.1554500">
	<ele>1133.00</ele>
	<time>2025-08-03T10:17:59.000Z</time>
</trkpt>
<trkpt lat="45.9479520" lon="10.1554270">
	<ele>1132.60</ele>
	<time>2025-08-03T10:18:00.000Z</time>
</trkpt>
<trkpt lat="45.9479390" lon="10.1554110">
	<ele>1132.20</ele>
	<time>2025-08-03T10:18:01.000Z</time>
</trkpt>
<trkpt lat="45.9479090" lon="10.1553870">
	<ele>1132.00</ele>
	<time>2025-08-03T10:18:02.000Z</time>
</trkpt>
<trkpt lat="45.9478880" lon="10.1553710">
	<ele>1132.00</ele>
	<time>2025-08-03T10:18:03.000Z</time>
</trkpt>
<trkpt lat="45.9478690" lon="10.1553620">
	<ele>1131.80</ele>
	<time>2025-08-03T10:18:04.000Z</time>
</trkpt>
<trkpt lat="45.9478550" lon="10.1553610">
	<ele>1131.80</ele>
	<time>2025-08-03T10:18:05.000Z</time>
</trkpt>
<trkpt lat="45.9478450" lon="10.1553460">
	<ele>1131.60</ele>
	<time>2025-08-03T10:18:06.000Z</time>
</trkpt>
<trkpt lat="45.9478420" lon="10.1553390">
	<ele>1131.60</ele>
	<time>2025-08-03T10:18:07.000Z</time>
</trkpt>
<trkpt lat="45.9478410" lon="10.1553360">
	<ele>1131.40</ele>
	<time>2025-08-03T10:18:08.000Z</time>
</trkpt>
<trkpt lat="45.9478330" lon="10.1553200">
	<ele>1131.20</ele>
	<time>2025-08-03T10:18:09.000Z</time>
</trkpt>
<trkpt lat="45.9478220" lon="10.1553060">
	<ele>1131.00</ele>
	<time>2025-08-03T10:18:10.000Z</time>
</trkpt>
<trkpt lat="45.9478110" lon="10.1552880">
	<ele>1130.80</ele>
	<time>2025-08-03T10:18:11.000Z</time>
</trkpt>
<trkpt lat="45.9477860" lon="10.1552790">
	<ele>1130.60</ele>
	<time>2025-08-03T10:18:12.000Z</time>
</trkpt>
<trkpt lat="45.9477740" lon="10.1552810">
	<ele>1130.40</ele>
	<time>2025-08-03T10:18:13.000Z</time>
</trkpt>
<trkpt lat="45.9477630" lon="10.1552820">
	<ele>1130.20</ele>
	<time>2025-08-03T10:18:14.000Z</time>
</trkpt>
<trkpt lat="45.9477590" lon="10.1552860">
	<ele>1130.00</ele>
	<time>2025-08-03T10:18:15.000Z</time>
</trkpt>
<trkpt lat="45.9477580" lon="10.1552940">
	<ele>1129.80</ele>
	<time>2025-08-03T10:18:16.000Z</time>
</trkpt>
<trkpt lat="45.9477460" lon="10.1552870">
	<ele>1129.60</ele>
	<time>2025-08-03T10:18:17.000Z</time>
</trkpt>
<trkpt lat="45.9477330" lon="10.1552820">
	<ele>1129.00</ele>
	<time>2025-08-03T10:18:18.000Z</time>
</trkpt>
<trkpt lat="45.9477210" lon="10.1552760">
	<ele>1128.60</ele>
	<time>2025-08-03T10:18:19.000Z</time>
</trkpt>
<trkpt lat="45.9477130" lon="10.1552730">
	<ele>1128.40</ele>
	<time>2025-08-03T10:18:20.000Z</time>
</trkpt>
<trkpt lat="45.9477100" lon="10.1552710">
	<ele>1128.20</ele>
	<time>2025-08-03T10:18:21.000Z</time>
</trkpt>
<trkpt lat="45.9477050" lon="10.1552610">
	<ele>1127.80</ele>
	<time>2025-08-03T10:18:22.000Z</time>
</trkpt>
<trkpt lat="45.9476880" lon="10.1552440">
	<ele>1127.60</ele>
	<time>2025-08-03T10:18:23.000Z</time>
</trkpt>
<trkpt lat="45.9476780" lon="10.1552370">
	<ele>1127.40</ele>
	<time>2025-08-03T10:18:24.000Z</time>
</trkpt>
<trkpt lat="45.9476660" lon="10.1552300">
	<ele>1126.80</ele>
	<time>2025-08-03T10:18:25.000Z</time>
</trkpt>
<trkpt lat="45.9476550" lon="10.1552210">
	<ele>1126.60</ele>
	<time>2025-08-03T10:18:26.000Z</time>
</trkpt>
<trkpt lat="45.9476420" lon="10.1552100">
	<ele>1126.40</ele>
	<time>2025-08-03T10:18:27.000Z</time>
</trkpt>
<trkpt lat="45.9476350" lon="10.1552050">
	<ele>1126.20</ele>
	<time>2025-08-03T10:18:28.000Z</time>
</trkpt>
<trkpt lat="45.9476310" lon="10.1552040">
	<ele>1126.00</ele>
	<time>2025-08-03T10:18:29.000Z</time>
</trkpt>
<trkpt lat="45.9476250" lon="10.1552060">
	<ele>1125.60</ele>
	<time>2025-08-03T10:18:30.000Z</time>
</trkpt>
<trkpt lat="45.9476190" lon="10.1552000">
	<ele>1125.40</ele>
	<time>2025-08-03T10:18:31.000Z</time>
</trkpt>
<trkpt lat="45.9476040" lon="10.1551740">
	<ele>1125.40</ele>
	<time>2025-08-03T10:18:32.000Z</time>
</trkpt>
<trkpt lat="45.9475910" lon="10.1551500">
	<ele>1125.00</ele>
	<time>2025-08-03T10:18:33.000Z</time>
</trkpt>
<trkpt lat="45.9475770" lon="10.1551330">
	<ele>1124.80</ele>
	<time>2025-08-03T10:18:34.000Z</time>
</trkpt>
<trkpt lat="45.9475620" lon="10.1551320">
	<ele>1124.60</ele>
	<time>2025-08-03T10:18:35.000Z</time>
</trkpt>
<trkpt lat="45.9475460" lon="10.1551310">
	<ele>1124.40</ele>
	<time>2025-08-03T10:18:36.000Z</time>
</trkpt>
<trkpt lat="45.9475350" lon="10.1551290">
	<ele>1124.20</ele>
	<time>2025-08-03T10:18:37.000Z</time>
</trkpt>
<trkpt lat="45.9475360" lon="10.1551310">
	<ele>1124.00</ele>
	<time>2025-08-03T10:18:38.000Z</time>
</trkpt>
<trkpt lat="45.9475280" lon="10.1551290">
	<ele>1123.80</ele>
	<time>2025-08-03T10:18:39.000Z</time>
</trkpt>
<trkpt lat="45.9475210" lon="10.1551150">
	<ele>1123.60</ele>
	<time>2025-08-03T10:18:40.000Z</time>
</trkpt>
<trkpt lat="45.9475180" lon="10.1551110">
	<ele>1123.60</ele>
	<time>2025-08-03T10:18:41.000Z</time>
</trkpt>
<trkpt lat="45.9475110" lon="10.1551010">
	<ele>1123.40</ele>
	<time>2025-08-03T10:18:42.000Z</time>
</trkpt>
<trkpt lat="45.9474890" lon="10.1550820">
	<ele>1123.20</ele>
	<time>2025-08-03T10:18:43.000Z</time>
</trkpt>
<trkpt lat="45.9474670" lon="10.1550600">
	<ele>1123.20</ele>
	<time>2025-08-03T10:18:44.000Z</time>
</trkpt>
<trkpt lat="45.9474490" lon="10.1550450">
	<ele>1123.00</ele>
	<time>2025-08-03T10:18:45.000Z</time>
</trkpt>
<trkpt lat="45.9474350" lon="10.1550390">
	<ele>1122.60</ele>
	<time>2025-08-03T10:18:46.000Z</time>
</trkpt>
<trkpt lat="45.9474200" lon="10.1550310">
	<ele>1122.40</ele>
	<time>2025-08-03T10:18:47.000Z</time>
</trkpt>
<trkpt lat="45.9474030" lon="10.1550210">
	<ele>1122.20</ele>
	<time>2025-08-03T10:18:48.000Z</time>
</trkpt>
<trkpt lat="45.9473870" lon="10.1550160">
	<ele>1122.00</ele>
	<time>2025-08-03T10:18:49.000Z</time>
</trkpt>
<trkpt lat="45.9473630" lon="10.1550010">
	<ele>1121.80</ele>
	<time>2025-08-03T10:18:50.000Z</time>
</trkpt>
<trkpt lat="45.9473530" lon="10.1549960">
	<ele>1121.60</ele>
	<time>2025-08-03T10:18:51.000Z</time>
</trkpt>
<trkpt lat="45.9473400" lon="10.1549930">
	<ele>1121.40</ele>
	<time>2025-08-03T10:18:52.000Z</time>
</trkpt>
<trkpt lat="45.9473350" lon="10.1549840">
	<ele>1121.00</ele>
	<time>2025-08-03T10:18:53.000Z</time>
</trkpt>
<trkpt lat="45.9473310" lon="10.1549840">
	<ele>1120.80</ele>
	<time>2025-08-03T10:18:54.000Z</time>
</trkpt>
<trkpt lat="45.9473340" lon="10.1549830">
	<ele>1120.40</ele>
	<time>2025-08-03T10:18:55.000Z</time>
</trkpt>
<trkpt lat="45.9473320" lon="10.1549710">
	<ele>1120.20</ele>
	<time>2025-08-03T10:18:56.000Z</time>
</trkpt>
<trkpt lat="45.9473270" lon="10.1549620">
	<ele>1120.00</ele>
	<time>2025-08-03T10:18:57.000Z</time>
</trkpt>
<trkpt lat="45.9473160" lon="10.1549230">
	<ele>1119.80</ele>
	<time>2025-08-03T10:18:58.000Z</time>
</trkpt>
<trkpt lat="45.9473000" lon="10.1549000">
	<ele>1119.60</ele>
	<time>2025-08-03T10:18:59.000Z</time>
</trkpt>
<trkpt lat="45.9472850" lon="10.1548870">
	<ele>1119.40</ele>
	<time>2025-08-03T10:19:00.000Z</time>
</trkpt>
<trkpt lat="45.9472730" lon="10.1548790">
	<ele>1119.20</ele>
	<time>2025-08-03T10:19:01.000Z</time>
</trkpt>
<trkpt lat="45.9472530" lon="10.1548710">
	<ele>1118.80</ele>
	<time>2025-08-03T10:19:02.000Z</time>
</trkpt>
<trkpt lat="45.9472370" lon="10.1548620">
	<ele>1118.60</ele>
	<time>2025-08-03T10:19:03.000Z</time>
</trkpt>
<trkpt lat="45.9472200" lon="10.1548540">
	<ele>1118.60</ele>
	<time>2025-08-03T10:19:04.000Z</time>
</trkpt>
<trkpt lat="45.9472000" lon="10.1548360">
	<ele>1118.40</ele>
	<time>2025-08-03T10:19:05.000Z</time>
</trkpt>
<trkpt lat="45.9471760" lon="10.1548160">
	<ele>1118.00</ele>
	<time>2025-08-03T10:19:06.000Z</time>
</trkpt>
<trkpt lat="45.9471540" lon="10.1548010">
	<ele>1117.80</ele>
	<time>2025-08-03T10:19:07.000Z</time>
</trkpt>
<trkpt lat="45.9471290" lon="10.1547840">
	<ele>1117.80</ele>
	<time>2025-08-03T10:19:08.000Z</time>
</trkpt>
<trkpt lat="45.9471100" lon="10.1547730">
	<ele>1117.60</ele>
	<time>2025-08-03T10:19:09.000Z</time>
</trkpt>
<trkpt lat="45.9470890" lon="10.1547660">
	<ele>1117.20</ele>
	<time>2025-08-03T10:19:10.000Z</time>
</trkpt>
<trkpt lat="45.9470780" lon="10.1547670">
	<ele>1117.00</ele>
	<time>2025-08-03T10:19:11.000Z</time>
</trkpt>
<trkpt lat="45.9470630" lon="10.1547580">
	<ele>1116.80</ele>
	<time>2025-08-03T10:19:12.000Z</time>
</trkpt>
<trkpt lat="45.9470520" lon="10.1547600">
	<ele>1116.60</ele>
	<time>2025-08-03T10:19:13.000Z</time>
</trkpt>
<trkpt lat="45.9470340" lon="10.1547380">
	<ele>1116.40</ele>
	<time>2025-08-03T10:19:14.000Z</time>
</trkpt>
<trkpt lat="45.9470200" lon="10.1547310">
	<ele>1116.00</ele>
	<time>2025-08-03T10:19:15.000Z</time>
</trkpt>
<trkpt lat="45.9470190" lon="10.1547160">
	<ele>1115.80</ele>
	<time>2025-08-03T10:19:16.000Z</time>
</trkpt>
<trkpt lat="45.9470120" lon="10.1547080">
	<ele>1115.60</ele>
	<time>2025-08-03T10:19:17.000Z</time>
</trkpt>
<trkpt lat="45.9469970" lon="10.1547030">
	<ele>1115.40</ele>
	<time>2025-08-03T10:19:18.000Z</time>
</trkpt>
<trkpt lat="45.9469730" lon="10.1546860">
	<ele>1115.20</ele>
	<time>2025-08-03T10:19:19.000Z</time>
</trkpt>
<trkpt lat="45.9469420" lon="10.1546660">
	<ele>1114.80</ele>
	<time>2025-08-03T10:19:20.000Z</time>
</trkpt>
<trkpt lat="45.9469150" lon="10.1546540">
	<ele>1114.60</ele>
	<time>2025-08-03T10:19:21.000Z</time>
</trkpt>
<trkpt lat="45.9468950" lon="10.1546500">
	<ele>1114.40</ele>
	<time>2025-08-03T10:19:22.000Z</time>
</trkpt>
<trkpt lat="45.9468810" lon="10.1546430">
	<ele>1114.20</ele>
	<time>2025-08-03T10:19:23.000Z</time>
</trkpt>
<trkpt lat="45.9468640" lon="10.1546330">
	<ele>1114.00</ele>
	<time>2025-08-03T10:19:24.000Z</time>
</trkpt>
<trkpt lat="45.9468460" lon="10.1546180">
	<ele>1113.60</ele>
	<time>2025-08-03T10:19:25.000Z</time>
</trkpt>
<trkpt lat="45.9468290" lon="10.1546010">
	<ele>1113.40</ele>
	<time>2025-08-03T10:19:26.000Z</time>
</trkpt>
<trkpt lat="45.9468150" lon="10.1545930">
	<ele>1113.20</ele>
	<time>2025-08-03T10:19:27.000Z</time>
</trkpt>
<trkpt lat="45.9468100" lon="10.1545900">
	<ele>1113.20</ele>
	<time>2025-08-03T10:19:28.000Z</time>
</trkpt>
<trkpt lat="45.9468080" lon="10.1545890">
	<ele>1113.20</ele>
	<time>2025-08-03T10:19:29.000Z</time>
</trkpt>
<trkpt lat="45.9468090" lon="10.1545900">
	<ele>1113.00</ele>
	<time>2025-08-03T10:19:30.000Z</time>
</trkpt>
<trkpt lat="45.9468090" lon="10.1545890">
	<ele>1113.00</ele>
	<time>2025-08-03T10:19:31.000Z</time>
</trkpt>
<trkpt lat="45.9468000" lon="10.1545840">
	<ele>1112.80</ele>
	<time>2025-08-03T10:19:32.000Z</time>
</trkpt>
<trkpt lat="45.9467930" lon="10.1545730">
	<ele>1112.80</ele>
	<time>2025-08-03T10:19:33.000Z</time>
</trkpt>
<trkpt lat="45.9467700" lon="10.1545590">
	<ele>1112.60</ele>
	<time>2025-08-03T10:19:34.000Z</time>
</trkpt>
<trkpt lat="45.9467610" lon="10.1545470">
	<ele>1112.40</ele>
	<time>2025-08-03T10:19:35.000Z</time>
</trkpt>
<trkpt lat="45.9467540" lon="10.1545350">
	<ele>1112.40</ele>
	<time>2025-08-03T10:19:36.000Z</time>
</trkpt>
<trkpt lat="45.9467500" lon="10.1545310">
	<ele>1112.00</ele>
	<time>2025-08-03T10:19:37.000Z</time>
</trkpt>
<trkpt lat="45.9467420" lon="10.1545230">
	<ele>1112.00</ele>
	<time>2025-08-03T10:19:38.000Z</time>
</trkpt>
<trkpt lat="45.9467260" lon="10.1545100">
	<ele>1111.80</ele>
	<time>2025-08-03T10:19:39.000Z</time>
</trkpt>
<trkpt lat="45.9467130" lon="10.1544990">
	<ele>1111.80</ele>
	<time>2025-08-03T10:19:40.000Z</time>
</trkpt>
<trkpt lat="45.9466960" lon="10.1544860">
	<ele>1111.60</ele>
	<time>2025-08-03T10:19:41.000Z</time>
</trkpt>
<trkpt lat="45.9466780" lon="10.1544720">
	<ele>1111.40</ele>
	<time>2025-08-03T10:19:42.000Z</time>
</trkpt>
<trkpt lat="45.9466640" lon="10.1544660">
	<ele>1111.20</ele>
	<time>2025-08-03T10:19:43.000Z</time>
</trkpt>
<trkpt lat="45.9466510" lon="10.1544650">
	<ele>1111.00</ele>
	<time>2025-08-03T10:19:44.000Z</time>
</trkpt>
<trkpt lat="45.9466430" lon="10.1544660">
	<ele>1110.80</ele>
	<time>2025-08-03T10:19:45.000Z</time>
</trkpt>
<trkpt lat="45.9466270" lon="10.1544590">
	<ele>1110.80</ele>
	<time>2025-08-03T10:19:46.000Z</time>
</trkpt>
<trkpt lat="45.9466110" lon="10.1544520">
	<ele>1110.60</ele>
	<time>2025-08-03T10:19:47.000Z</time>
</trkpt>
<trkpt lat="45.9465970" lon="10.1544450">
	<ele>1110.40</ele>
	<time>2025-08-03T10:19:48.000Z</time>
</trkpt>
<trkpt lat="45.9465760" lon="10.1544310">
	<ele>1110.40</ele>
	<time>2025-08-03T10:19:49.000Z</time>
</trkpt>
<trkpt lat="45.9465610" lon="10.1544210">
	<ele>1110.00</ele>
	<time>2025-08-03T10:19:50.000Z</time>
</trkpt>
<trkpt lat="45.9465490" lon="10.1544150">
	<ele>1109.80</ele>
	<time>2025-08-03T10:19:51.000Z</time>
</trkpt>
<trkpt lat="45.9465380" lon="10.1544100">
	<ele>1109.60</ele>
	<time>2025-08-03T10:19:52.000Z</time>
</trkpt>
<trkpt lat="45.9465240" lon="10.1544010">
	<ele>1109.40</ele>
	<time>2025-08-03T10:19:53.000Z</time>
</trkpt>
<trkpt lat="45.9465100" lon="10.1543920">
	<ele>1109.40</ele>
	<time>2025-08-03T10:19:54.000Z</time>
</trkpt>
<trkpt lat="45.9465000" lon="10.1543830">
	<ele>1109.20</ele>
	<time>2025-08-03T10:19:55.000Z</time>
</trkpt>
<trkpt lat="45.9464860" lon="10.1543700">
	<ele>1109.00</ele>
	<time>2025-08-03T10:19:56.000Z</time>
</trkpt>
<trkpt lat="45.9464740" lon="10.1543580">
	<ele>1108.80</ele>
	<time>2025-08-03T10:19:57.000Z</time>
</trkpt>
<trkpt lat="45.9464570" lon="10.1543470">
	<ele>1108.60</ele>
	<time>2025-08-03T10:19:58.000Z</time>
</trkpt>
<trkpt lat="45.9464450" lon="10.1543510">
	<ele>1108.40</ele>
	<time>2025-08-03T10:19:59.000Z</time>
</trkpt>
<trkpt lat="45.9464400" lon="10.1543610">
	<ele>1108.20</ele>
	<time>2025-08-03T10:20:00.000Z</time>
</trkpt>
<trkpt lat="45.9464380" lon="10.1543690">
	<ele>1108.20</ele>
	<time>2025-08-03T10:20:01.000Z</time>
</trkpt>
<trkpt lat="45.9464340" lon="10.1543540">
	<ele>1108.00</ele>
	<time>2025-08-03T10:20:02.000Z</time>
</trkpt>
<trkpt lat="45.9464230" lon="10.1543270">
	<ele>1107.80</ele>
	<time>2025-08-03T10:20:03.000Z</time>
</trkpt>
<trkpt lat="45.9464140" lon="10.1543090">
	<ele>1107.80</ele>
	<time>2025-08-03T10:20:04.000Z</time>
</trkpt>
<trkpt lat="45.9463960" lon="10.1542960">
	<ele>1107.60</ele>
	<time>2025-08-03T10:20:05.000Z</time>
</trkpt>
<trkpt lat="45.9463800" lon="10.1542890">
	<ele>1107.40</ele>
	<time>2025-08-03T10:20:06.000Z</time>
</trkpt>
<trkpt lat="45.9463740" lon="10.1542880">
	<ele>1107.40</ele>
	<time>2025-08-03T10:20:07.000Z</time>
</trkpt>
<trkpt lat="45.9463780" lon="10.1542890">
	<ele>1107.40</ele>
	<time>2025-08-03T10:20:08.000Z</time>
</trkpt>
<trkpt lat="45.9463940" lon="10.1542880">
	<ele>1107.40</ele>
	<time>2025-08-03T10:20:09.000Z</time>
</trkpt>
<trkpt lat="45.9464110" lon="10.1542880">
	<ele>1107.40</ele>
	<time>2025-08-03T10:20:10.000Z</time>
</trkpt>
<trkpt lat="45.9464290" lon="10.1542830">
	<ele>1107.40</ele>
	<time>2025-08-03T10:20:11.000Z</time>
</trkpt>
<trkpt lat="45.9464450" lon="10.1542750">
	<ele>1107.40</ele>
	<time>2025-08-03T10:20:12.000Z</time>
</trkpt>
<trkpt lat="45.9464630" lon="10.1542600">
	<ele>1107.40</ele>
	<time>2025-08-03T10:20:13.000Z</time>
</trkpt>
<trkpt lat="45.9464780" lon="10.1542420">
	<ele>1107.40</ele>
	<time>2025-08-03T10:20:14.000Z</time>
</trkpt>
<trkpt lat="45.9464900" lon="10.1542190">
	<ele>1107.40</ele>
	<time>2025-08-03T10:20:15.000Z</time>
</trkpt>
<trkpt lat="45.9465020" lon="10.1541950">
	<ele>1107.40</ele>
	<time>2025-08-03T10:20:16.000Z</time>
</trkpt>
<trkpt lat="45.9465120" lon="10.1541750">
	<ele>1107.40</ele>
	<time>2025-08-03T10:20:17.000Z</time>
</trkpt>
<trkpt lat="45.9465190" lon="10.1541520">
	<ele>1107.40</ele>
	<time>2025-08-03T10:20:18.000Z</time>
</trkpt>
<trkpt lat="45.9465200" lon="10.1541280">
	<ele>1107.40</ele>
	<time>2025-08-03T10:20:19.000Z</time>
</trkpt>
<trkpt lat="45.9465210" lon="10.1541030">
	<ele>1107.60</ele>
	<time>2025-08-03T10:20:20.000Z</time>
</trkpt>
<trkpt lat="45.9465240" lon="10.1540860">
	<ele>1107.80</ele>
	<time>2025-08-03T10:20:21.000Z</time>
</trkpt>
<trkpt lat="45.9465340" lon="10.1540670">
	<ele>1107.80</ele>
	<time>2025-08-03T10:20:22.000Z</time>
</trkpt>
<trkpt lat="45.9465390" lon="10.1540450">
	<ele>1107.80</ele>
	<time>2025-08-03T10:20:23.000Z</time>
</trkpt>
<trkpt lat="45.9465410" lon="10.1540160">
	<ele>1107.80</ele>
	<time>2025-08-03T10:20:24.000Z</time>
</trkpt>
<trkpt lat="45.9465460" lon="10.1539840">
	<ele>1107.60</ele>
	<time>2025-08-03T10:20:25.000Z</time>
</trkpt>
<trkpt lat="45.9465520" lon="10.1539650">
	<ele>1107.60</ele>
	<time>2025-08-03T10:20:26.000Z</time>
</trkpt>
<trkpt lat="45.9465630" lon="10.1539450">
	<ele>1107.40</ele>
	<time>2025-08-03T10:20:27.000Z</time>
</trkpt>
<trkpt lat="45.9465730" lon="10.1539310">
	<ele>1107.40</ele>
	<time>2025-08-03T10:20:28.000Z</time>
</trkpt>
<trkpt lat="45.9465810" lon="10.1539190">
	<ele>1107.40</ele>
	<time>2025-08-03T10:20:29.000Z</time>
</trkpt>
<trkpt lat="45.9465930" lon="10.1539090">
	<ele>1107.20</ele>
	<time>2025-08-03T10:20:30.000Z</time>
</trkpt>
<trkpt lat="45.9465990" lon="10.1538890">
	<ele>1107.20</ele>
	<time>2025-08-03T10:20:31.000Z</time>
</trkpt>
<trkpt lat="45.9466040" lon="10.1538700">
	<ele>1107.20</ele>
	<time>2025-08-03T10:20:32.000Z</time>
</trkpt>
<trkpt lat="45.9466150" lon="10.1538570">
	<ele>1107.20</ele>
	<time>2025-08-03T10:20:33.000Z</time>
</trkpt>
<trkpt lat="45.9466200" lon="10.1538350">
	<ele>1107.20</ele>
	<time>2025-08-03T10:20:34.000Z</time>
</trkpt>
<trkpt lat="45.9466240" lon="10.1538120">
	<ele>1107.20</ele>
	<time>2025-08-03T10:20:35.000Z</time>
</trkpt>
<trkpt lat="45.9466310" lon="10.1537940">
	<ele>1107.20</ele>
	<time>2025-08-03T10:20:36.000Z</time>
</trkpt>
<trkpt lat="45.9466360" lon="10.1537770">
	<ele>1107.40</ele>
	<time>2025-08-03T10:20:37.000Z</time>
</trkpt>
<trkpt lat="45.9466380" lon="10.1537500">
	<ele>1107.40</ele>
	<time>2025-08-03T10:20:38.000Z</time>
</trkpt>
<trkpt lat="45.9466380" lon="10.1537220">
	<ele>1107.40</ele>
	<time>2025-08-03T10:20:39.000Z</time>
</trkpt>
<trkpt lat="45.9466460" lon="10.1536990">
	<ele>1107.40</ele>
	<time>2025-08-03T10:20:40.000Z</time>
</trkpt>
<trkpt lat="45.9466500" lon="10.1536750">
	<ele>1107.60</ele>
	<time>2025-08-03T10:20:41.000Z</time>
</trkpt>
<trkpt lat="45.9466550" lon="10.1536510">
	<ele>1107.60</ele>
	<time>2025-08-03T10:20:42.000Z</time>
</trkpt>
<trkpt lat="45.9466630" lon="10.1536310">
	<ele>1107.60</ele>
	<time>2025-08-03T10:20:43.000Z</time>
</trkpt>
<trkpt lat="45.9466730" lon="10.1536110">
	<ele>1107.80</ele>
	<time>2025-08-03T10:20:44.000Z</time>
</trkpt>
<trkpt lat="45.9466860" lon="10.1535930">
	<ele>1107.80</ele>
	<time>2025-08-03T10:20:45.000Z</time>
</trkpt>
<trkpt lat="45.9466930" lon="10.1535700">
	<ele>1107.80</ele>
	<time>2025-08-03T10:20:46.000Z</time>
</trkpt>
<trkpt lat="45.9467000" lon="10.1535460">
	<ele>1107.80</ele>
	<time>2025-08-03T10:20:47.000Z</time>
</trkpt>
<trkpt lat="45.9467040" lon="10.1535260">
	<ele>1107.80</ele>
	<time>2025-08-03T10:20:48.000Z</time>
</trkpt>
<trkpt lat="45.9467070" lon="10.1535050">
	<ele>1107.60</ele>
	<time>2025-08-03T10:20:49.000Z</time>
</trkpt>
<trkpt lat="45.9467120" lon="10.1534840">
	<ele>1107.60</ele>
	<time>2025-08-03T10:20:50.000Z</time>
</trkpt>
<trkpt lat="45.9467200" lon="10.1534670">
	<ele>1107.60</ele>
	<time>2025-08-03T10:20:51.000Z</time>
</trkpt>
<trkpt lat="45.9467280" lon="10.1534500">
	<ele>1107.60</ele>
	<time>2025-08-03T10:20:52.000Z</time>
</trkpt>
<trkpt lat="45.9467350" lon="10.1534320">
	<ele>1107.60</ele>
	<time>2025-08-03T10:20:53.000Z</time>
</trkpt>
<trkpt lat="45.9467440" lon="10.1534140">
	<ele>1107.60</ele>
	<time>2025-08-03T10:20:54.000Z</time>
</trkpt>
<trkpt lat="45.9467520" lon="10.1533950">
	<ele>1107.60</ele>
	<time>2025-08-03T10:20:55.000Z</time>
</trkpt>
<trkpt lat="45.9467600" lon="10.1533770">
	<ele>1107.60</ele>
	<time>2025-08-03T10:20:56.000Z</time>
</trkpt>
<trkpt lat="45.9467690" lon="10.1533580">
	<ele>1107.60</ele>
	<time>2025-08-03T10:20:57.000Z</time>
</trkpt>
<trkpt lat="45.9467800" lon="10.1533430">
	<ele>1107.60</ele>
	<time>2025-08-03T10:20:58.000Z</time>
</trkpt>
<trkpt lat="45.9467870" lon="10.1533270">
	<ele>1107.60</ele>
	<time>2025-08-03T10:20:59.000Z</time>
</trkpt>
<trkpt lat="45.9467970" lon="10.1533140">
	<ele>1107.60</ele>
	<time>2025-08-03T10:21:00.000Z</time>
</trkpt>
<trkpt lat="45.9468080" lon="10.1532990">
	<ele>1107.60</ele>
	<time>2025-08-03T10:21:01.000Z</time>
</trkpt>
<trkpt lat="45.9468190" lon="10.1532860">
	<ele>1107.60</ele>
	<time>2025-08-03T10:21:02.000Z</time>
</trkpt>
<trkpt lat="45.9468290" lon="10.1532720">
	<ele>1107.80</ele>
	<time>2025-08-03T10:21:03.000Z</time>
</trkpt>
<trkpt lat="45.9468360" lon="10.1532530">
	<ele>1107.80</ele>
	<time>2025-08-03T10:21:04.000Z</time>
</trkpt>
<trkpt lat="45.9468430" lon="10.1532340">
	<ele>1107.80</ele>
	<time>2025-08-03T10:21:05.000Z</time>
</trkpt>
<trkpt lat="45.9468470" lon="10.1532150">
	<ele>1107.80</ele>
	<time>2025-08-03T10:21:06.000Z</time>
</trkpt>
<trkpt lat="45.9468510" lon="10.1531930">
	<ele>1108.00</ele>
	<time>2025-08-03T10:21:07.000Z</time>
</trkpt>
<trkpt lat="45.9468560" lon="10.1531690">
	<ele>1108.00</ele>
	<time>2025-08-03T10:21:08.000Z</time>
</trkpt>
<trkpt lat="45.9468620" lon="10.1531510">
	<ele>1108.00</ele>
	<time>2025-08-03T10:21:09.000Z</time>
</trkpt>
<trkpt lat="45.9468660" lon="10.1531350">
	<ele>1108.00</ele>
	<time>2025-08-03T10:21:10.000Z</time>
</trkpt>
<trkpt lat="45.9468730" lon="10.1531190">
	<ele>1108.00</ele>
	<time>2025-08-03T10:21:11.000Z</time>
</trkpt>
<trkpt lat="45.9468780" lon="10.1530970">
	<ele>1108.20</ele>
	<time>2025-08-03T10:21:12.000Z</time>
</trkpt>
<trkpt lat="45.9468850" lon="10.1530800">
	<ele>1108.20</ele>
	<time>2025-08-03T10:21:13.000Z</time>
</trkpt>
<trkpt lat="45.9468910" lon="10.1530620">
	<ele>1108.20</ele>
	<time>2025-08-03T10:21:14.000Z</time>
</trkpt>
<trkpt lat="45.9468930" lon="10.1530450">
	<ele>1108.20</ele>
	<time>2025-08-03T10:21:15.000Z</time>
</trkpt>
<trkpt lat="45.9468980" lon="10.1530250">
	<ele>1108.20</ele>
	<time>2025-08-03T10:21:16.000Z</time>
</trkpt>
<trkpt lat="45.9469020" lon="10.1530030">
	<ele>1108.20</ele>
	<time>2025-08-03T10:21:17.000Z</time>
</trkpt>
<trkpt lat="45.9469060" lon="10.1529840">
	<ele>1108.20</ele>
	<time>2025-08-03T10:21:18.000Z</time>
</trkpt>
<trkpt lat="45.9469140" lon="10.1529640">
	<ele>1108.20</ele>
	<time>2025-08-03T10:21:19.000Z</time>
</trkpt>
<trkpt lat="45.9469220" lon="10.1529450">
	<ele>1108.00</ele>
	<time>2025-08-03T10:21:20.000Z</time>
</trkpt>
<trkpt lat="45.9469320" lon="10.1529250">
	<ele>1108.00</ele>
	<time>2025-08-03T10:21:21.000Z</time>
</trkpt>
<trkpt lat="45.9469410" lon="10.1529070">
	<ele>1108.00</ele>
	<time>2025-08-03T10:21:22.000Z</time>
</trkpt>
<trkpt lat="45.9469500" lon="10.1528930">
	<ele>1108.20</ele>
	<time>2025-08-03T10:21:23.000Z</time>
</trkpt>
<trkpt lat="45.9469580" lon="10.1528770">
	<ele>1108.20</ele>
	<time>2025-08-03T10:21:24.000Z</time>
</trkpt>
<trkpt lat="45.9469640" lon="10.1528600">
	<ele>1108.40</ele>
	<time>2025-08-03T10:21:25.000Z</time>
</trkpt>
<trkpt lat="45.9469670" lon="10.1528420">
	<ele>1108.40</ele>
	<time>2025-08-03T10:21:26.000Z</time>
</trkpt>
<trkpt lat="45.9469690" lon="10.1528230">
	<ele>1108.40</ele>
	<time>2025-08-03T10:21:27.000Z</time>
</trkpt>
<trkpt lat="45.9469760" lon="10.1528080">
	<ele>1108.40</ele>
	<time>2025-08-03T10:21:28.000Z</time>
</trkpt>
<trkpt lat="45.9469810" lon="10.1527890">
	<ele>1108.40</ele>
	<time>2025-08-03T10:21:29.000Z</time>
</trkpt>
<trkpt lat="45.9469880" lon="10.1527720">
	<ele>1108.40</ele>
	<time>2025-08-03T10:21:30.000Z</time>
</trkpt>
<trkpt lat="45.9469960" lon="10.1527540">
	<ele>1108.40</ele>
	<time>2025-08-03T10:21:31.000Z</time>
</trkpt>
<trkpt lat="45.9470040" lon="10.1527370">
	<ele>1108.40</ele>
	<time>2025-08-03T10:21:32.000Z</time>
</trkpt>
<trkpt lat="45.9470130" lon="10.1527200">
	<ele>1108.40</ele>
	<time>2025-08-03T10:21:33.000Z</time>
</trkpt>
<trkpt lat="45.9470190" lon="10.1527020">
	<ele>1108.40</ele>
	<time>2025-08-03T10:21:34.000Z</time>
</trkpt>
<trkpt lat="45.9470230" lon="10.1526860">
	<ele>1108.40</ele>
	<time>2025-08-03T10:21:35.000Z</time>
</trkpt>
<trkpt lat="45.9470300" lon="10.1526690">
	<ele>1108.40</ele>
	<time>2025-08-03T10:21:36.000Z</time>
</trkpt>
<trkpt lat="45.9470350" lon="10.1526520">
	<ele>1108.40</ele>
	<time>2025-08-03T10:21:37.000Z</time>
</trkpt>
<trkpt lat="45.9470400" lon="10.1526340">
	<ele>1108.40</ele>
	<time>2025-08-03T10:21:38.000Z</time>
</trkpt>
<trkpt lat="45.9470460" lon="10.1526140">
	<ele>1108.40</ele>
	<time>2025-08-03T10:21:39.000Z</time>
</trkpt>
<trkpt lat="45.9470520" lon="10.1525960">
	<ele>1108.20</ele>
	<time>2025-08-03T10:21:40.000Z</time>
</trkpt>
<trkpt lat="45.9470560" lon="10.1525770">
	<ele>1108.20</ele>
	<time>2025-08-03T10:21:41.000Z</time>
</trkpt>
<trkpt lat="45.9470620" lon="10.1525570">
	<ele>1108.40</ele>
	<time>2025-08-03T10:21:42.000Z</time>
</trkpt>
<trkpt lat="45.9470710" lon="10.1525370">
	<ele>1108.40</ele>
	<time>2025-08-03T10:21:43.000Z</time>
</trkpt>
<trkpt lat="45.9470750" lon="10.1525160">
	<ele>1108.40</ele>
	<time>2025-08-03T10:21:44.000Z</time>
</trkpt>
<trkpt lat="45.9470800" lon="10.1524950">
	<ele>1108.40</ele>
	<time>2025-08-03T10:21:45.000Z</time>
</trkpt>
<trkpt lat="45.9470840" lon="10.1524760">
	<ele>1108.40</ele>
	<time>2025-08-03T10:21:46.000Z</time>
</trkpt>
<trkpt lat="45.9470870" lon="10.1524560">
	<ele>1108.40</ele>
	<time>2025-08-03T10:21:47.000Z</time>
</trkpt>
<trkpt lat="45.9470930" lon="10.1524380">
	<ele>1108.40</ele>
	<time>2025-08-03T10:21:48.000Z</time>
</trkpt>
<trkpt lat="45.9471040" lon="10.1524220">
	<ele>1108.40</ele>
	<time>2025-08-03T10:21:49.000Z</time>
</trkpt>
<trkpt lat="45.9471130" lon="10.1524040">
	<ele>1108.40</ele>
	<time>2025-08-03T10:21:50.000Z</time>
</trkpt>
<trkpt lat="45.9471210" lon="10.1523830">
	<ele>1108.60</ele>
	<time>2025-08-03T10:21:51.000Z</time>
</trkpt>
<trkpt lat="45.9471260" lon="10.1523630">
	<ele>1108.60</ele>
	<time>2025-08-03T10:21:52.000Z</time>
</trkpt>
<trkpt lat="45.9471340" lon="10.1523460">
	<ele>1108.60</ele>
	<time>2025-08-03T10:21:53.000Z</time>
</trkpt>
<trkpt lat="45.9471390" lon="10.1523280">
	<ele>1108.80</ele>
	<time>2025-08-03T10:21:54.000Z</time>
</trkpt>
<trkpt lat="45.9471450" lon="10.1523090">
	<ele>1108.80</ele>
	<time>2025-08-03T10:21:55.000Z</time>
</trkpt>
<trkpt lat="45.9471490" lon="10.1522900">
	<ele>1108.80</ele>
	<time>2025-08-03T10:21:56.000Z</time>
</trkpt>
<trkpt lat="45.9471530" lon="10.1522690">
	<ele>1108.80</ele>
	<time>2025-08-03T10:21:57.000Z</time>
</trkpt>
<trkpt lat="45.9471560" lon="10.1522510">
	<ele>1109.00</ele>
	<time>2025-08-03T10:21:58.000Z</time>
</trkpt>
<trkpt lat="45.9471620" lon="10.1522310">
	<ele>1109.00</ele>
	<time>2025-08-03T10:21:59.000Z</time>
</trkpt>
<trkpt lat="45.9471660" lon="10.1522110">
	<ele>1109.00</ele>
	<time>2025-08-03T10:22:00.000Z</time>
</trkpt>
<trkpt lat="45.9471720" lon="10.1521880">
	<ele>1109.00</ele>
	<time>2025-08-03T10:22:01.000Z</time>
</trkpt>
<trkpt lat="45.9471810" lon="10.1521690">
	<ele>1109.20</ele>
	<time>2025-08-03T10:22:02.000Z</time>
</trkpt>
<trkpt lat="45.9471860" lon="10.1521520">
	<ele>1109.20</ele>
	<time>2025-08-03T10:22:03.000Z</time>
</trkpt>
<trkpt lat="45.9471890" lon="10.1521340">
	<ele>1109.20</ele>
	<time>2025-08-03T10:22:04.000Z</time>
</trkpt>
<trkpt lat="45.9471950" lon="10.1521170">
	<ele>1109.00</ele>
	<time>2025-08-03T10:22:05.000Z</time>
</trkpt>
<trkpt lat="45.9471990" lon="10.1520950">
	<ele>1109.00</ele>
	<time>2025-08-03T10:22:06.000Z</time>
</trkpt>
<trkpt lat="45.9472080" lon="10.1520750">
	<ele>1109.00</ele>
	<time>2025-08-03T10:22:07.000Z</time>
</trkpt>
<trkpt lat="45.9472170" lon="10.1520580">
	<ele>1109.00</ele>
	<time>2025-08-03T10:22:08.000Z</time>
</trkpt>
<trkpt lat="45.9472230" lon="10.1520430">
	<ele>1109.00</ele>
	<time>2025-08-03T10:22:09.000Z</time>
</trkpt>
<trkpt lat="45.9472310" lon="10.1520280">
	<ele>1109.00</ele>
	<time>2025-08-03T10:22:10.000Z</time>
</trkpt>
<trkpt lat="45.9472400" lon="10.1520110">
	<ele>1109.00</ele>
	<time>2025-08-03T10:22:11.000Z</time>
</trkpt>
<trkpt lat="45.9472490" lon="10.1519930">
	<ele>1109.20</ele>
	<time>2025-08-03T10:22:12.000Z</time>
</trkpt>
<trkpt lat="45.9472560" lon="10.1519750">
	<ele>1109.40</ele>
	<time>2025-08-03T10:22:13.000Z</time>
</trkpt>
<trkpt lat="45.9472620" lon="10.1519550">
	<ele>1109.40</ele>
	<time>2025-08-03T10:22:14.000Z</time>
</trkpt>
<trkpt lat="45.9472710" lon="10.1519360">
	<ele>1109.40</ele>
	<time>2025-08-03T10:22:15.000Z</time>
</trkpt>
<trkpt lat="45.9472760" lon="10.1519170">
	<ele>1109.60</ele>
	<time>2025-08-03T10:22:16.000Z</time>
</trkpt>
<trkpt lat="45.9472840" lon="10.1518960">
	<ele>1109.60</ele>
	<time>2025-08-03T10:22:17.000Z</time>
</trkpt>
<trkpt lat="45.9472930" lon="10.1518790">
	<ele>1109.60</ele>
	<time>2025-08-03T10:22:18.000Z</time>
</trkpt>
<trkpt lat="45.9473010" lon="10.1518610">
	<ele>1109.60</ele>
	<time>2025-08-03T10:22:19.000Z</time>
</trkpt>
<trkpt lat="45.9473120" lon="10.1518490">
	<ele>1109.60</ele>
	<time>2025-08-03T10:22:20.000Z</time>
</trkpt>
<trkpt lat="45.9473200" lon="10.1518330">
	<ele>1109.60</ele>
	<time>2025-08-03T10:22:21.000Z</time>
</trkpt>
<trkpt lat="45.9473310" lon="10.1518170">
	<ele>1109.60</ele>
	<time>2025-08-03T10:22:22.000Z</time>
</trkpt>
<trkpt lat="45.9473420" lon="10.1517970">
	<ele>1109.60</ele>
	<time>2025-08-03T10:22:23.000Z</time>
</trkpt>
<trkpt lat="45.9473480" lon="10.1517780">
	<ele>1109.80</ele>
	<time>2025-08-03T10:22:24.000Z</time>
</trkpt>
<trkpt lat="45.9473550" lon="10.1517570">
	<ele>1110.00</ele>
	<time>2025-08-03T10:22:25.000Z</time>
</trkpt>
<trkpt lat="45.9473640" lon="10.1517380">
	<ele>1110.00</ele>
	<time>2025-08-03T10:22:26.000Z</time>
</trkpt>
<trkpt lat="45.9473750" lon="10.1517220">
	<ele>1110.00</ele>
	<time>2025-08-03T10:22:27.000Z</time>
</trkpt>
<trkpt lat="45.9473820" lon="10.1517030">
	<ele>1110.00</ele>
	<time>2025-08-03T10:22:28.000Z</time>
</trkpt>
<trkpt lat="45.9473860" lon="10.1516780">
	<ele>1110.00</ele>
	<time>2025-08-03T10:22:29.000Z</time>
</trkpt>
<trkpt lat="45.9473930" lon="10.1516550">
	<ele>1110.00</ele>
	<time>2025-08-03T10:22:30.000Z</time>
</trkpt>
<trkpt lat="45.9474040" lon="10.1516340">
	<ele>1110.00</ele>
	<time>2025-08-03T10:22:31.000Z</time>
</trkpt>
<trkpt lat="45.9474180" lon="10.1516180">
	<ele>1110.00</ele>
	<time>2025-08-03T10:22:32.000Z</time>
</trkpt>
<trkpt lat="45.9474370" lon="10.1516080">
	<ele>1110.00</ele>
	<time>2025-08-03T10:22:33.000Z</time>
</trkpt>
<trkpt lat="45.9474460" lon="10.1515910">
	<ele>1110.00</ele>
	<time>2025-08-03T10:22:34.000Z</time>
</trkpt>
<trkpt lat="45.9474520" lon="10.1515720">
	<ele>1110.00</ele>
	<time>2025-08-03T10:22:35.000Z</time>
</trkpt>
<trkpt lat="45.9474570" lon="10.1515520">
	<ele>1110.00</ele>
	<time>2025-08-03T10:22:36.000Z</time>
</trkpt>
<trkpt lat="45.9474550" lon="10.1515290">
	<ele>1110.00</ele>
	<time>2025-08-03T10:22:37.000Z</time>
</trkpt>
<trkpt lat="45.9474490" lon="10.1515020">
	<ele>1110.00</ele>
	<time>2025-08-03T10:22:38.000Z</time>
</trkpt>
<trkpt lat="45.9474470" lon="10.1514810">
	<ele>1110.20</ele>
	<time>2025-08-03T10:22:39.000Z</time>
</trkpt>
<trkpt lat="45.9474530" lon="10.1514660">
	<ele>1110.20</ele>
	<time>2025-08-03T10:22:40.000Z</time>
</trkpt>
<trkpt lat="45.9474530" lon="10.1514480">
	<ele>1110.40</ele>
	<time>2025-08-03T10:22:41.000Z</time>
</trkpt>
<trkpt lat="45.9474490" lon="10.1514230">
	<ele>1110.40</ele>
	<time>2025-08-03T10:22:42.000Z</time>
</trkpt>
<trkpt lat="45.9474430" lon="10.1514050">
	<ele>1110.40</ele>
	<time>2025-08-03T10:22:43.000Z</time>
</trkpt>
<trkpt lat="45.9474390" lon="10.1513970">
	<ele>1110.60</ele>
	<time>2025-08-03T10:22:44.000Z</time>
</trkpt>
<trkpt lat="45.9474440" lon="10.1513860">
	<ele>1110.60</ele>
	<time>2025-08-03T10:22:45.000Z</time>
</trkpt>
<trkpt lat="45.9474470" lon="10.1513660">
	<ele>1110.40</ele>
	<time>2025-08-03T10:22:46.000Z</time>
</trkpt>
<trkpt lat="45.9474580" lon="10.1513540">
	<ele>1110.40</ele>
	<time>2025-08-03T10:22:47.000Z</time>
</trkpt>
<trkpt lat="45.9474610" lon="10.1513300">
	<ele>1110.40</ele>
	<time>2025-08-03T10:22:48.000Z</time>
</trkpt>
<trkpt lat="45.9474690" lon="10.1513190">
	<ele>1110.40</ele>
	<time>2025-08-03T10:22:49.000Z</time>
</trkpt>
<trkpt lat="45.9474810" lon="10.1513170">
	<ele>1110.40</ele>
	<time>2025-08-03T10:22:50.000Z</time>
</trkpt>
<trkpt lat="45.9474770" lon="10.1513080">
	<ele>1110.40</ele>
	<time>2025-08-03T10:22:51.000Z</time>
</trkpt>
<trkpt lat="45.9474770" lon="10.1513020">
	<ele>1110.40</ele>
	<time>2025-08-03T10:22:52.000Z</time>
</trkpt>
<trkpt lat="45.9474770" lon="10.1512990">
	<ele>1110.60</ele>
	<time>2025-08-03T10:22:53.000Z</time>
</trkpt>
<trkpt lat="45.9474760" lon="10.1512950">
	<ele>1110.80</ele>
	<time>2025-08-03T10:22:54.000Z</time>
</trkpt>
<trkpt lat="45.9474770" lon="10.1512920">
	<ele>1111.00</ele>
	<time>2025-08-03T10:22:55.000Z</time>
</trkpt>
<trkpt lat="45.9474770" lon="10.1512920">
	<ele>1111.20</ele>
	<time>2025-08-03T10:22:56.000Z</time>
</trkpt>
<trkpt lat="45.9474800" lon="10.1512940">
	<ele>1111.20</ele>
	<time>2025-08-03T10:22:57.000Z</time>
</trkpt>
<trkpt lat="45.9474860" lon="10.1512910">
	<ele>1110.80</ele>
	<time>2025-08-03T10:22:58.000Z</time>
</trkpt>
<trkpt lat="45.9474890" lon="10.1512800">
	<ele>1110.80</ele>
	<time>2025-08-03T10:22:59.000Z</time>
</trkpt>
<trkpt lat="45.9474950" lon="10.1512630">
	<ele>1110.80</ele>
	<time>2025-08-03T10:23:00.000Z</time>
</trkpt>
<trkpt lat="45.9475030" lon="10.1512470">
	<ele>1110.80</ele>
	<time>2025-08-03T10:23:01.000Z</time>
</trkpt>
<trkpt lat="45.9475070" lon="10.1512240">
	<ele>1110.80</ele>
	<time>2025-08-03T10:23:02.000Z</time>
</trkpt>
<trkpt lat="45.9475120" lon="10.1512010">
	<ele>1110.80</ele>
	<time>2025-08-03T10:23:03.000Z</time>
</trkpt>
<trkpt lat="45.9475140" lon="10.1511790">
	<ele>1110.80</ele>
	<time>2025-08-03T10:23:04.000Z</time>
</trkpt>
<trkpt lat="45.9475110" lon="10.1511570">
	<ele>1110.80</ele>
	<time>2025-08-03T10:23:05.000Z</time>
</trkpt>
<trkpt lat="45.9475070" lon="10.1511370">
	<ele>1110.80</ele>
	<time>2025-08-03T10:23:06.000Z</time>
</trkpt>
<trkpt lat="45.9475050" lon="10.1511220">
	<ele>1110.80</ele>
	<time>2025-08-03T10:23:07.000Z</time>
</trkpt>
<trkpt lat="45.9475110" lon="10.1511050">
	<ele>1110.80</ele>
	<time>2025-08-03T10:23:08.000Z</time>
</trkpt>
<trkpt lat="45.9475170" lon="10.1510820">
	<ele>1110.80</ele>
	<time>2025-08-03T10:23:09.000Z</time>
</trkpt>
<trkpt lat="45.9475250" lon="10.1510670">
	<ele>1110.80</ele>
	<time>2025-08-03T10:23:10.000Z</time>
</trkpt>
<trkpt lat="45.9475380" lon="10.1510590">
	<ele>1110.80</ele>
	<time>2025-08-03T10:23:11.000Z</time>
</trkpt>
<trkpt lat="45.9475500" lon="10.1510480">
	<ele>1110.60</ele>
	<time>2025-08-03T10:23:12.000Z</time>
</trkpt>
<trkpt lat="45.9475600" lon="10.1510330">
	<ele>1110.60</ele>
	<time>2025-08-03T10:23:13.000Z</time>
</trkpt>
<trkpt lat="45.9475680" lon="10.1510230">
	<ele>1110.60</ele>
	<time>2025-08-03T10:23:14.000Z</time>
</trkpt>
<trkpt lat="45.9475780" lon="10.1510120">
	<ele>1110.40</ele>
	<time>2025-08-03T10:23:15.000Z</time>
</trkpt>
<trkpt lat="45.9475880" lon="10.1509980">
	<ele>1110.40</ele>
	<time>2025-08-03T10:23:16.000Z</time>
</trkpt>
<trkpt lat="45.9475950" lon="10.1509800">
	<ele>1110.40</ele>
	<time>2025-08-03T10:23:17.000Z</time>
</trkpt>
<trkpt lat="45.9476030" lon="10.1509620">
	<ele>1110.40</ele>
	<time>2025-08-03T10:23:18.000Z</time>
</trkpt>
<trkpt lat="45.9476100" lon="10.1509410">
	<ele>1110.40</ele>
	<time>2025-08-03T10:23:19.000Z</time>
</trkpt>
<trkpt lat="45.9476130" lon="10.1509220">
	<ele>1110.40</ele>
	<time>2025-08-03T10:23:20.000Z</time>
</trkpt>
<trkpt lat="45.9476120" lon="10.1509000">
	<ele>1110.20</ele>
	<time>2025-08-03T10:23:21.000Z</time>
</trkpt>
<trkpt lat="45.9476130" lon="10.1508740">
	<ele>1110.20</ele>
	<time>2025-08-03T10:23:22.000Z</time>
</trkpt>
<trkpt lat="45.9476120" lon="10.1508470">
	<ele>1110.20</ele>
	<time>2025-08-03T10:23:23.000Z</time>
</trkpt>
<trkpt lat="45.9476110" lon="10.1508240">
	<ele>1110.00</ele>
	<time>2025-08-03T10:23:24.000Z</time>
</trkpt>
<trkpt lat="45.9476180" lon="10.1508070">
	<ele>1110.00</ele>
	<time>2025-08-03T10:23:25.000Z</time>
</trkpt>
<trkpt lat="45.9476260" lon="10.1507910">
	<ele>1110.20</ele>
	<time>2025-08-03T10:23:26.000Z</time>
</trkpt>
<trkpt lat="45.9476370" lon="10.1507750">
	<ele>1110.20</ele>
	<time>2025-08-03T10:23:27.000Z</time>
</trkpt>
<trkpt lat="45.9476420" lon="10.1507580">
	<ele>1110.40</ele>
	<time>2025-08-03T10:23:28.000Z</time>
</trkpt>
<trkpt lat="45.9476440" lon="10.1507350">
	<ele>1110.40</ele>
	<time>2025-08-03T10:23:29.000Z</time>
</trkpt>
<trkpt lat="45.9476440" lon="10.1507110">
	<ele>1110.60</ele>
	<time>2025-08-03T10:23:30.000Z</time>
</trkpt>
<trkpt lat="45.9476530" lon="10.1506920">
	<ele>1110.60</ele>
	<time>2025-08-03T10:23:31.000Z</time>
</trkpt>
<trkpt lat="45.9476610" lon="10.1506700">
	<ele>1110.60</ele>
	<time>2025-08-03T10:23:32.000Z</time>
</trkpt>
<trkpt lat="45.9476680" lon="10.1506610">
	<ele>1110.60</ele>
	<time>2025-08-03T10:23:33.000Z</time>
</trkpt>
<trkpt lat="45.9476750" lon="10.1506390">
	<ele>1110.80</ele>
	<time>2025-08-03T10:23:34.000Z</time>
</trkpt>
<trkpt lat="45.9476820" lon="10.1506140">
	<ele>1110.60</ele>
	<time>2025-08-03T10:23:35.000Z</time>
</trkpt>
<trkpt lat="45.9476850" lon="10.1505910">
	<ele>1110.60</ele>
	<time>2025-08-03T10:23:36.000Z</time>
</trkpt>
<trkpt lat="45.9476930" lon="10.1505740">
	<ele>1110.60</ele>
	<time>2025-08-03T10:23:37.000Z</time>
</trkpt>
<trkpt lat="45.9476980" lon="10.1505590">
	<ele>1110.60</ele>
	<time>2025-08-03T10:23:38.000Z</time>
</trkpt>
<trkpt lat="45.9477080" lon="10.1505430">
	<ele>1110.40</ele>
	<time>2025-08-03T10:23:39.000Z</time>
</trkpt>
<trkpt lat="45.9477190" lon="10.1505290">
	<ele>1110.40</ele>
	<time>2025-08-03T10:23:40.000Z</time>
</trkpt>
<trkpt lat="45.9477250" lon="10.1505100">
	<ele>1110.20</ele>
	<time>2025-08-03T10:23:41.000Z</time>
</trkpt>
<trkpt lat="45.9477200" lon="10.1504900">
	<ele>1110.20</ele>
	<time>2025-08-03T10:23:42.000Z</time>
</trkpt>
<trkpt lat="45.9477190" lon="10.1504710">
	<ele>1110.20</ele>
	<time>2025-08-03T10:23:43.000Z</time>
</trkpt>
<trkpt lat="45.9477240" lon="10.1504540">
	<ele>1110.00</ele>
	<time>2025-08-03T10:23:44.000Z</time>
</trkpt>
<trkpt lat="45.9477290" lon="10.1504360">
	<ele>1110.00</ele>
	<time>2025-08-03T10:23:45.000Z</time>
</trkpt>
<trkpt lat="45.9477360" lon="10.1504200">
	<ele>1110.00</ele>
	<time>2025-08-03T10:23:46.000Z</time>
</trkpt>
<trkpt lat="45.9477440" lon="10.1504050">
	<ele>1109.80</ele>
	<time>2025-08-03T10:23:47.000Z</time>
</trkpt>
<trkpt lat="45.9477560" lon="10.1503870">
	<ele>1109.80</ele>
	<time>2025-08-03T10:23:48.000Z</time>
</trkpt>
<trkpt lat="45.9477620" lon="10.1503630">
	<ele>1109.80</ele>
	<time>2025-08-03T10:23:49.000Z</time>
</trkpt>
<trkpt lat="45.9477690" lon="10.1503400">
	<ele>1109.60</ele>
	<time>2025-08-03T10:23:50.000Z</time>
</trkpt>
<trkpt lat="45.9477750" lon="10.1503230">
	<ele>1109.60</ele>
	<time>2025-08-03T10:23:51.000Z</time>
</trkpt>
<trkpt lat="45.9477850" lon="10.1503050">
	<ele>1109.60</ele>
	<time>2025-08-03T10:23:52.000Z</time>
</trkpt>
<trkpt lat="45.9477960" lon="10.1502880">
	<ele>1109.60</ele>
	<time>2025-08-03T10:23:53.000Z</time>
</trkpt>
<trkpt lat="45.9478080" lon="10.1502720">
	<ele>1109.60</ele>
	<time>2025-08-03T10:23:54.000Z</time>
</trkpt>
<trkpt lat="45.9478130" lon="10.1502530">
	<ele>1109.60</ele>
	<time>2025-08-03T10:23:55.000Z</time>
</trkpt>
<trkpt lat="45.9478160" lon="10.1502300">
	<ele>1109.60</ele>
	<time>2025-08-03T10:23:56.000Z</time>
</trkpt>
<trkpt lat="45.9478190" lon="10.1502070">
	<ele>1109.60</ele>
	<time>2025-08-03T10:23:57.000Z</time>
</trkpt>
<trkpt lat="45.9478220" lon="10.1501840">
	<ele>1109.40</ele>
	<time>2025-08-03T10:23:58.000Z</time>
</trkpt>
<trkpt lat="45.9478280" lon="10.1501650">
	<ele>1109.20</ele>
	<time>2025-08-03T10:23:59.000Z</time>
</trkpt>
<trkpt lat="45.9478380" lon="10.1501490">
	<ele>1109.20</ele>
	<time>2025-08-03T10:24:00.000Z</time>
</trkpt>
<trkpt lat="45.9478460" lon="10.1501330">
	<ele>1109.00</ele>
	<time>2025-08-03T10:24:01.000Z</time>
</trkpt>
<trkpt lat="45.9478520" lon="10.1501080">
	<ele>1109.00</ele>
	<time>2025-08-03T10:24:02.000Z</time>
</trkpt>
<trkpt lat="45.9478580" lon="10.1500890">
	<ele>1109.00</ele>
	<time>2025-08-03T10:24:03.000Z</time>
</trkpt>
<trkpt lat="45.9478660" lon="10.1500690">
	<ele>1109.00</ele>
	<time>2025-08-03T10:24:04.000Z</time>
</trkpt>
<trkpt lat="45.9478740" lon="10.1500500">
	<ele>1109.20</ele>
	<time>2025-08-03T10:24:05.000Z</time>
</trkpt>
<trkpt lat="45.9478830" lon="10.1500330">
	<ele>1109.20</ele>
	<time>2025-08-03T10:24:06.000Z</time>
</trkpt>
<trkpt lat="45.9478910" lon="10.1500140">
	<ele>1109.20</ele>
	<time>2025-08-03T10:24:07.000Z</time>
</trkpt>
<trkpt lat="45.9478970" lon="10.1499920">
	<ele>1109.20</ele>
	<time>2025-08-03T10:24:08.000Z</time>
</trkpt>
<trkpt lat="45.9479020" lon="10.1499740">
	<ele>1109.20</ele>
	<time>2025-08-03T10:24:09.000Z</time>
</trkpt>
<trkpt lat="45.9479070" lon="10.1499540">
	<ele>1109.20</ele>
	<time>2025-08-03T10:24:10.000Z</time>
</trkpt>
<trkpt lat="45.9479110" lon="10.1499320">
	<ele>1109.20</ele>
	<time>2025-08-03T10:24:11.000Z</time>
</trkpt>
<trkpt lat="45.9479210" lon="10.1499140">
	<ele>1109.00</ele>
	<time>2025-08-03T10:24:12.000Z</time>
</trkpt>
<trkpt lat="45.9479270" lon="10.1498990">
	<ele>1109.00</ele>
	<time>2025-08-03T10:24:13.000Z</time>
</trkpt>
<trkpt lat="45.9479280" lon="10.1498810">
	<ele>1108.80</ele>
	<time>2025-08-03T10:24:14.000Z</time>
</trkpt>
<trkpt lat="45.9479330" lon="10.1498640">
	<ele>1108.80</ele>
	<time>2025-08-03T10:24:15.000Z</time>
</trkpt>
<trkpt lat="45.9479390" lon="10.1498490">
	<ele>1108.80</ele>
	<time>2025-08-03T10:24:16.000Z</time>
</trkpt>
<trkpt lat="45.9479420" lon="10.1498290">
	<ele>1108.80</ele>
	<time>2025-08-03T10:24:17.000Z</time>
</trkpt>
<trkpt lat="45.9479430" lon="10.1498030">
	<ele>1108.60</ele>
	<time>2025-08-03T10:24:18.000Z</time>
</trkpt>
<trkpt lat="45.9479440" lon="10.1497780">
	<ele>1108.80</ele>
	<time>2025-08-03T10:24:19.000Z</time>
</trkpt>
<trkpt lat="45.9479450" lon="10.1497570">
	<ele>1108.80</ele>
	<time>2025-08-03T10:24:20.000Z</time>
</trkpt>
<trkpt lat="45.9479520" lon="10.1497380">
	<ele>1108.80</ele>
	<time>2025-08-03T10:24:21.000Z</time>
</trkpt>
<trkpt lat="45.9479550" lon="10.1497220">
	<ele>1108.80</ele>
	<time>2025-08-03T10:24:22.000Z</time>
</trkpt>
<trkpt lat="45.9479600" lon="10.1497040">
	<ele>1108.80</ele>
	<time>2025-08-03T10:24:23.000Z</time>
</trkpt>
<trkpt lat="45.9479610" lon="10.1496860">
	<ele>1108.80</ele>
	<time>2025-08-03T10:24:24.000Z</time>
</trkpt>
<trkpt lat="45.9479630" lon="10.1496660">
	<ele>1108.80</ele>
	<time>2025-08-03T10:24:25.000Z</time>
</trkpt>
<trkpt lat="45.9479660" lon="10.1496460">
	<ele>1108.80</ele>
	<time>2025-08-03T10:24:26.000Z</time>
</trkpt>
<trkpt lat="45.9479680" lon="10.1496270">
	<ele>1108.80</ele>
	<time>2025-08-03T10:24:27.000Z</time>
</trkpt>
<trkpt lat="45.9479730" lon="10.1496090">
	<ele>1108.60</ele>
	<time>2025-08-03T10:24:28.000Z</time>
</trkpt>
<trkpt lat="45.9479790" lon="10.1495930">
	<ele>1108.60</ele>
	<time>2025-08-03T10:24:29.000Z</time>
</trkpt>
<trkpt lat="45.9479850" lon="10.1495750">
	<ele>1108.60</ele>
	<time>2025-08-03T10:24:30.000Z</time>
</trkpt>
<trkpt lat="45.9479870" lon="10.1495560">
	<ele>1108.60</ele>
	<time>2025-08-03T10:24:31.000Z</time>
</trkpt>
<trkpt lat="45.9479870" lon="10.1495380">
	<ele>1108.40</ele>
	<time>2025-08-03T10:24:32.000Z</time>
</trkpt>
<trkpt lat="45.9479900" lon="10.1495220">
	<ele>1108.20</ele>
	<time>2025-08-03T10:24:33.000Z</time>
</trkpt>
<trkpt lat="45.9479930" lon="10.1495050">
	<ele>1108.20</ele>
	<time>2025-08-03T10:24:34.000Z</time>
</trkpt>
<trkpt lat="45.9480000" lon="10.1494900">
	<ele>1108.00</ele>
	<time>2025-08-03T10:24:35.000Z</time>
</trkpt>
<trkpt lat="45.9480100" lon="10.1494760">
	<ele>1108.00</ele>
	<time>2025-08-03T10:24:36.000Z</time>
</trkpt>
<trkpt lat="45.9480180" lon="10.1494580">
	<ele>1108.00</ele>
	<time>2025-08-03T10:24:37.000Z</time>
</trkpt>
<trkpt lat="45.9480260" lon="10.1494420">
	<ele>1108.00</ele>
	<time>2025-08-03T10:24:38.000Z</time>
</trkpt>
<trkpt lat="45.9480350" lon="10.1494230">
	<ele>1108.00</ele>
	<time>2025-08-03T10:24:39.000Z</time>
</trkpt>
<trkpt lat="45.9480420" lon="10.1494060">
	<ele>1107.80</ele>
	<time>2025-08-03T10:24:40.000Z</time>
</trkpt>
<trkpt lat="45.9480460" lon="10.1493850">
	<ele>1107.80</ele>
	<time>2025-08-03T10:24:41.000Z</time>
</trkpt>
<trkpt lat="45.9480540" lon="10.1493690">
	<ele>1108.00</ele>
	<time>2025-08-03T10:24:42.000Z</time>
</trkpt>
<trkpt lat="45.9480610" lon="10.1493480">
	<ele>1108.20</ele>
	<time>2025-08-03T10:24:43.000Z</time>
</trkpt>
<trkpt lat="45.9480680" lon="10.1493300">
	<ele>1108.20</ele>
	<time>2025-08-03T10:24:44.000Z</time>
</trkpt>
<trkpt lat="45.9480740" lon="10.1493110">
	<ele>1108.40</ele>
	<time>2025-08-03T10:24:45.000Z</time>
</trkpt>
<trkpt lat="45.9480840" lon="10.1492940">
	<ele>1108.60</ele>
	<time>2025-08-03T10:24:46.000Z</time>
</trkpt>
<trkpt lat="45.9480930" lon="10.1492780">
	<ele>1108.60</ele>
	<time>2025-08-03T10:24:47.000Z</time>
</trkpt>
<trkpt lat="45.9481060" lon="10.1492670">
	<ele>1108.60</ele>
	<time>2025-08-03T10:24:48.000Z</time>
</trkpt>
<trkpt lat="45.9481160" lon="10.1492530">
	<ele>1108.60</ele>
	<time>2025-08-03T10:24:49.000Z</time>
</trkpt>
<trkpt lat="45.9481230" lon="10.1492340">
	<ele>1108.60</ele>
	<time>2025-08-03T10:24:50.000Z</time>
</trkpt>
<trkpt lat="45.9481270" lon="10.1492110">
	<ele>1108.60</ele>
	<time>2025-08-03T10:24:51.000Z</time>
</trkpt>
<trkpt lat="45.9481320" lon="10.1491860">
	<ele>1108.60</ele>
	<time>2025-08-03T10:24:52.000Z</time>
</trkpt>
<trkpt lat="45.9481360" lon="10.1491630">
	<ele>1108.60</ele>
	<time>2025-08-03T10:24:53.000Z</time>
</trkpt>
<trkpt lat="45.9481410" lon="10.1491390">
	<ele>1108.40</ele>
	<time>2025-08-03T10:24:54.000Z</time>
</trkpt>
<trkpt lat="45.9481480" lon="10.1491180">
	<ele>1108.40</ele>
	<time>2025-08-03T10:24:55.000Z</time>
</trkpt>
<trkpt lat="45.9481600" lon="10.1491010">
	<ele>1108.40</ele>
	<time>2025-08-03T10:24:56.000Z</time>
</trkpt>
<trkpt lat="45.9481720" lon="10.1490860">
	<ele>1108.20</ele>
	<time>2025-08-03T10:24:57.000Z</time>
</trkpt>
<trkpt lat="45.9481840" lon="10.1490710">
	<ele>1108.20</ele>
	<time>2025-08-03T10:24:58.000Z</time>
</trkpt>
<trkpt lat="45.9481940" lon="10.1490530">
	<ele>1108.20</ele>
	<time>2025-08-03T10:24:59.000Z</time>
</trkpt>
<trkpt lat="45.9482040" lon="10.1490370">
	<ele>1108.00</ele>
	<time>2025-08-03T10:25:00.000Z</time>
</trkpt>
<trkpt lat="45.9482100" lon="10.1490170">
	<ele>1108.00</ele>
	<time>2025-08-03T10:25:01.000Z</time>
</trkpt>
<trkpt lat="45.9482170" lon="10.1489940">
	<ele>1107.80</ele>
	<time>2025-08-03T10:25:02.000Z</time>
</trkpt>
<trkpt lat="45.9482240" lon="10.1489730">
	<ele>1107.80</ele>
	<time>2025-08-03T10:25:03.000Z</time>
</trkpt>
<trkpt lat="45.9482310" lon="10.1489530">
	<ele>1107.80</ele>
	<time>2025-08-03T10:25:04.000Z</time>
</trkpt>
<trkpt lat="45.9482390" lon="10.1489370">
	<ele>1107.80</ele>
	<time>2025-08-03T10:25:05.000Z</time>
</trkpt>
<trkpt lat="45.9482490" lon="10.1489210">
	<ele>1107.60</ele>
	<time>2025-08-03T10:25:06.000Z</time>
</trkpt>
<trkpt lat="45.9482570" lon="10.1489070">
	<ele>1107.60</ele>
	<time>2025-08-03T10:25:07.000Z</time>
</trkpt>
<trkpt lat="45.9482620" lon="10.1488870">
	<ele>1107.60</ele>
	<time>2025-08-03T10:25:08.000Z</time>
</trkpt>
<trkpt lat="45.9482690" lon="10.1488690">
	<ele>1107.60</ele>
	<time>2025-08-03T10:25:09.000Z</time>
</trkpt>
<trkpt lat="45.9482790" lon="10.1488500">
	<ele>1107.60</ele>
	<time>2025-08-03T10:25:10.000Z</time>
</trkpt>
<trkpt lat="45.9482900" lon="10.1488300">
	<ele>1107.60</ele>
	<time>2025-08-03T10:25:11.000Z</time>
</trkpt>
<trkpt lat="45.9482970" lon="10.1488150">
	<ele>1107.60</ele>
	<time>2025-08-03T10:25:12.000Z</time>
</trkpt>
<trkpt lat="45.9483000" lon="10.1487940">
	<ele>1107.60</ele>
	<time>2025-08-03T10:25:13.000Z</time>
</trkpt>
<trkpt lat="45.9483030" lon="10.1487740">
	<ele>1107.60</ele>
	<time>2025-08-03T10:25:14.000Z</time>
</trkpt>
<trkpt lat="45.9483090" lon="10.1487550">
	<ele>1107.60</ele>
	<time>2025-08-03T10:25:15.000Z</time>
</trkpt>
<trkpt lat="45.9483170" lon="10.1487330">
	<ele>1107.40</ele>
	<time>2025-08-03T10:25:16.000Z</time>
</trkpt>
<trkpt lat="45.9483270" lon="10.1487150">
	<ele>1107.20</ele>
	<time>2025-08-03T10:25:17.000Z</time>
</trkpt>
<trkpt lat="45.9483340" lon="10.1486930">
	<ele>1107.00</ele>
	<time>2025-08-03T10:25:18.000Z</time>
</trkpt>
<trkpt lat="45.9483410" lon="10.1486730">
	<ele>1107.00</ele>
	<time>2025-08-03T10:25:19.000Z</time>
</trkpt>
<trkpt lat="45.9483500" lon="10.1486520">
	<ele>1106.80</ele>
	<time>2025-08-03T10:25:20.000Z</time>
</trkpt>
<trkpt lat="45.9483570" lon="10.1486310">
	<ele>1106.80</ele>
	<time>2025-08-03T10:25:21.000Z</time>
</trkpt>
<trkpt lat="45.9483660" lon="10.1486100">
	<ele>1106.80</ele>
	<time>2025-08-03T10:25:22.000Z</time>
</trkpt>
<trkpt lat="45.9483750" lon="10.1485910">
	<ele>1106.80</ele>
	<time>2025-08-03T10:25:23.000Z</time>
</trkpt>
<trkpt lat="45.9483790" lon="10.1485720">
	<ele>1106.80</ele>
	<time>2025-08-03T10:25:24.000Z</time>
</trkpt>
<trkpt lat="45.9483860" lon="10.1485560">
	<ele>1106.80</ele>
	<time>2025-08-03T10:25:25.000Z</time>
</trkpt>
<trkpt lat="45.9483940" lon="10.1485390">
	<ele>1106.80</ele>
	<time>2025-08-03T10:25:26.000Z</time>
</trkpt>
<trkpt lat="45.9484000" lon="10.1485230">
	<ele>1106.80</ele>
	<time>2025-08-03T10:25:27.000Z</time>
</trkpt>
<trkpt lat="45.9484020" lon="10.1485070">
	<ele>1106.80</ele>
	<time>2025-08-03T10:25:28.000Z</time>
</trkpt>
<trkpt lat="45.9484060" lon="10.1484910">
	<ele>1106.80</ele>
	<time>2025-08-03T10:25:29.000Z</time>
</trkpt>
<trkpt lat="45.9484160" lon="10.1484750">
	<ele>1106.80</ele>
	<time>2025-08-03T10:25:30.000Z</time>
</trkpt>
<trkpt lat="45.9484270" lon="10.1484600">
	<ele>1106.80</ele>
	<time>2025-08-03T10:25:31.000Z</time>
</trkpt>
<trkpt lat="45.9484330" lon="10.1484440">
	<ele>1106.80</ele>
	<time>2025-08-03T10:25:32.000Z</time>
</trkpt>
<trkpt lat="45.9484410" lon="10.1484290">
	<ele>1106.80</ele>
	<time>2025-08-03T10:25:33.000Z</time>
</trkpt>
<trkpt lat="45.9484510" lon="10.1484140">
	<ele>1106.80</ele>
	<time>2025-08-03T10:25:34.000Z</time>
</trkpt>
<trkpt lat="45.9484640" lon="10.1484000">
	<ele>1106.80</ele>
	<time>2025-08-03T10:25:35.000Z</time>
</trkpt>
<trkpt lat="45.9484760" lon="10.1483840">
	<ele>1106.80</ele>
	<time>2025-08-03T10:25:36.000Z</time>
</trkpt>
<trkpt lat="45.9484880" lon="10.1483690">
	<ele>1106.80</ele>
	<time>2025-08-03T10:25:37.000Z</time>
</trkpt>
<trkpt lat="45.9485000" lon="10.1483560">
	<ele>1106.80</ele>
	<time>2025-08-03T10:25:38.000Z</time>
</trkpt>
<trkpt lat="45.9485090" lon="10.1483370">
	<ele>1106.80</ele>
	<time>2025-08-03T10:25:39.000Z</time>
</trkpt>
<trkpt lat="45.9485170" lon="10.1483160">
	<ele>1106.60</ele>
	<time>2025-08-03T10:25:40.000Z</time>
</trkpt>
<trkpt lat="45.9485250" lon="10.1482980">
	<ele>1106.60</ele>
	<time>2025-08-03T10:25:41.000Z</time>
</trkpt>
<trkpt lat="45.9485370" lon="10.1482780">
	<ele>1106.60</ele>
	<time>2025-08-03T10:25:42.000Z</time>
</trkpt>
<trkpt lat="45.9485470" lon="10.1482600">
	<ele>1106.40</ele>
	<time>2025-08-03T10:25:43.000Z</time>
</trkpt>
<trkpt lat="45.9485530" lon="10.1482410">
	<ele>1106.40</ele>
	<time>2025-08-03T10:25:44.000Z</time>
</trkpt>
<trkpt lat="45.9485610" lon="10.1482210">
	<ele>1106.40</ele>
	<time>2025-08-03T10:25:45.000Z</time>
</trkpt>
<trkpt lat="45.9485660" lon="10.1482050">
	<ele>1106.40</ele>
	<time>2025-08-03T10:25:46.000Z</time>
</trkpt>
<trkpt lat="45.9485700" lon="10.1481880">
	<ele>1106.40</ele>
	<time>2025-08-03T10:25:47.000Z</time>
</trkpt>
<trkpt lat="45.9485770" lon="10.1481710">
	<ele>1106.40</ele>
	<time>2025-08-03T10:25:48.000Z</time>
</trkpt>
<trkpt lat="45.9485820" lon="10.1481530">
	<ele>1106.60</ele>
	<time>2025-08-03T10:25:49.000Z</time>
</trkpt>
<trkpt lat="45.9485930" lon="10.1481340">
	<ele>1106.60</ele>
	<time>2025-08-03T10:25:50.000Z</time>
</trkpt>
<trkpt lat="45.9486010" lon="10.1481130">
	<ele>1106.60</ele>
	<time>2025-08-03T10:25:51.000Z</time>
</trkpt>
<trkpt lat="45.9486060" lon="10.1480910">
	<ele>1106.40</ele>
	<time>2025-08-03T10:25:52.000Z</time>
</trkpt>
<trkpt lat="45.9486130" lon="10.1480750">
	<ele>1106.40</ele>
	<time>2025-08-03T10:25:53.000Z</time>
</trkpt>
<trkpt lat="45.9486210" lon="10.1480590">
	<ele>1106.40</ele>
	<time>2025-08-03T10:25:54.000Z</time>
</trkpt>
<trkpt lat="45.9486260" lon="10.1480400">
	<ele>1106.20</ele>
	<time>2025-08-03T10:25:55.000Z</time>
</trkpt>
<trkpt lat="45.9486330" lon="10.1480220">
	<ele>1106.20</ele>
	<time>2025-08-03T10:25:56.000Z</time>
</trkpt>
<trkpt lat="45.9486400" lon="10.1480040">
	<ele>1106.20</ele>
	<time>2025-08-03T10:25:57.000Z</time>
</trkpt>
<trkpt lat="45.9486510" lon="10.1479880">
	<ele>1106.20</ele>
	<time>2025-08-03T10:25:58.000Z</time>
</trkpt>
<trkpt lat="45.9486580" lon="10.1479730">
	<ele>1106.20</ele>
	<time>2025-08-03T10:25:59.000Z</time>
</trkpt>
<trkpt lat="45.9486700" lon="10.1479560">
	<ele>1106.20</ele>
	<time>2025-08-03T10:26:00.000Z</time>
</trkpt>
<trkpt lat="45.9486770" lon="10.1479400">
	<ele>1106.00</ele>
	<time>2025-08-03T10:26:01.000Z</time>
</trkpt>
<trkpt lat="45.9486860" lon="10.1479250">
	<ele>1106.00</ele>
	<time>2025-08-03T10:26:02.000Z</time>
</trkpt>
<trkpt lat="45.9486980" lon="10.1479070">
	<ele>1106.00</ele>
	<time>2025-08-03T10:26:03.000Z</time>
</trkpt>
<trkpt lat="45.9487100" lon="10.1478890">
	<ele>1105.80</ele>
	<time>2025-08-03T10:26:04.000Z</time>
</trkpt>
<trkpt lat="45.9487220" lon="10.1478710">
	<ele>1105.80</ele>
	<time>2025-08-03T10:26:05.000Z</time>
</trkpt>
<trkpt lat="45.9487300" lon="10.1478520">
	<ele>1105.80</ele>
	<time>2025-08-03T10:26:06.000Z</time>
</trkpt>
<trkpt lat="45.9487360" lon="10.1478350">
	<ele>1105.60</ele>
	<time>2025-08-03T10:26:07.000Z</time>
</trkpt>
<trkpt lat="45.9487430" lon="10.1478130">
	<ele>1105.60</ele>
	<time>2025-08-03T10:26:08.000Z</time>
</trkpt>
<trkpt lat="45.9487530" lon="10.1477930">
	<ele>1105.60</ele>
	<time>2025-08-03T10:26:09.000Z</time>
</trkpt>
<trkpt lat="45.9487640" lon="10.1477750">
	<ele>1105.60</ele>
	<time>2025-08-03T10:26:10.000Z</time>
</trkpt>
<trkpt lat="45.9487720" lon="10.1477560">
	<ele>1105.60</ele>
	<time>2025-08-03T10:26:11.000Z</time>
</trkpt>
<trkpt lat="45.9487790" lon="10.1477370">
	<ele>1105.40</ele>
	<time>2025-08-03T10:26:12.000Z</time>
</trkpt>
<trkpt lat="45.9487850" lon="10.1477170">
	<ele>1105.40</ele>
	<time>2025-08-03T10:26:13.000Z</time>
</trkpt>
<trkpt lat="45.9487890" lon="10.1476990">
	<ele>1105.40</ele>
	<time>2025-08-03T10:26:14.000Z</time>
</trkpt>
<trkpt lat="45.9487950" lon="10.1476810">
	<ele>1105.20</ele>
	<time>2025-08-03T10:26:15.000Z</time>
</trkpt>
<trkpt lat="45.9488030" lon="10.1476600">
	<ele>1105.20</ele>
	<time>2025-08-03T10:26:16.000Z</time>
</trkpt>
<trkpt lat="45.9488110" lon="10.1476380">
	<ele>1105.00</ele>
	<time>2025-08-03T10:26:17.000Z</time>
</trkpt>
<trkpt lat="45.9488220" lon="10.1476170">
	<ele>1105.00</ele>
	<time>2025-08-03T10:26:18.000Z</time>
</trkpt>
<trkpt lat="45.9488280" lon="10.1475970">
	<ele>1104.80</ele>
	<time>2025-08-03T10:26:19.000Z</time>
</trkpt>
<trkpt lat="45.9488380" lon="10.1475760">
	<ele>1104.80</ele>
	<time>2025-08-03T10:26:20.000Z</time>
</trkpt>
<trkpt lat="45.9488460" lon="10.1475580">
	<ele>1104.80</ele>
	<time>2025-08-03T10:26:21.000Z</time>
</trkpt>
<trkpt lat="45.9488530" lon="10.1475400">
	<ele>1104.80</ele>
	<time>2025-08-03T10:26:22.000Z</time>
</trkpt>
<trkpt lat="45.9488610" lon="10.1475220">
	<ele>1104.80</ele>
	<time>2025-08-03T10:26:23.000Z</time>
</trkpt>
<trkpt lat="45.9488680" lon="10.1475080">
	<ele>1104.60</ele>
	<time>2025-08-03T10:26:24.000Z</time>
</trkpt>
<trkpt lat="45.9488790" lon="10.1474920">
	<ele>1104.60</ele>
	<time>2025-08-03T10:26:25.000Z</time>
</trkpt>
<trkpt lat="45.9488860" lon="10.1474790">
	<ele>1104.40</ele>
	<time>2025-08-03T10:26:26.000Z</time>
</trkpt>
<trkpt lat="45.9488900" lon="10.1474610">
	<ele>1104.40</ele>
	<time>2025-08-03T10:26:27.000Z</time>
</trkpt>
<trkpt lat="45.9488980" lon="10.1474420">
	<ele>1104.40</ele>
	<time>2025-08-03T10:26:28.000Z</time>
</trkpt>
<trkpt lat="45.9489070" lon="10.1474280">
	<ele>1104.40</ele>
	<time>2025-08-03T10:26:29.000Z</time>
</trkpt>
<trkpt lat="45.9489180" lon="10.1474160">
	<ele>1104.40</ele>
	<time>2025-08-03T10:26:30.000Z</time>
</trkpt>
<trkpt lat="45.9489270" lon="10.1473970">
	<ele>1104.20</ele>
	<time>2025-08-03T10:26:31.000Z</time>
</trkpt>
<trkpt lat="45.9489400" lon="10.1473790">
	<ele>1104.20</ele>
	<time>2025-08-03T10:26:32.000Z</time>
</trkpt>
<trkpt lat="45.9489540" lon="10.1473580">
	<ele>1104.20</ele>
	<time>2025-08-03T10:26:33.000Z</time>
</trkpt>
<trkpt lat="45.9489620" lon="10.1473380">
	<ele>1104.00</ele>
	<time>2025-08-03T10:26:34.000Z</time>
</trkpt>
<trkpt lat="45.9489690" lon="10.1473200">
	<ele>1104.00</ele>
	<time>2025-08-03T10:26:35.000Z</time>
</trkpt>
<trkpt lat="45.9489740" lon="10.1473070">
	<ele>1104.00</ele>
	<time>2025-08-03T10:26:36.000Z</time>
</trkpt>
<trkpt lat="45.9489780" lon="10.1472840">
	<ele>1104.00</ele>
	<time>2025-08-03T10:26:37.000Z</time>
</trkpt>
<trkpt lat="45.9489890" lon="10.1472640">
	<ele>1103.80</ele>
	<time>2025-08-03T10:26:38.000Z</time>
</trkpt>
<trkpt lat="45.9489990" lon="10.1472460">
	<ele>1103.80</ele>
	<time>2025-08-03T10:26:39.000Z</time>
</trkpt>
<trkpt lat="45.9490130" lon="10.1472310">
	<ele>1103.80</ele>
	<time>2025-08-03T10:26:40.000Z</time>
</trkpt>
<trkpt lat="45.9490290" lon="10.1472170">
	<ele>1103.80</ele>
	<time>2025-08-03T10:26:41.000Z</time>
</trkpt>
<trkpt lat="45.9490360" lon="10.1471970">
	<ele>1103.60</ele>
	<time>2025-08-03T10:26:42.000Z</time>
</trkpt>
<trkpt lat="45.9490550" lon="10.1471830">
	<ele>1103.40</ele>
	<time>2025-08-03T10:26:43.000Z</time>
</trkpt>
<trkpt lat="45.9490680" lon="10.1471650">
	<ele>1103.40</ele>
	<time>2025-08-03T10:26:44.000Z</time>
</trkpt>
<trkpt lat="45.9490750" lon="10.1471500">
	<ele>1103.20</ele>
	<time>2025-08-03T10:26:45.000Z</time>
</trkpt>
<trkpt lat="45.9490890" lon="10.1471350">
	<ele>1103.00</ele>
	<time>2025-08-03T10:26:46.000Z</time>
</trkpt>
<trkpt lat="45.9490960" lon="10.1471220">
	<ele>1103.00</ele>
	<time>2025-08-03T10:26:47.000Z</time>
</trkpt>
<trkpt lat="45.9491030" lon="10.1471050">
	<ele>1103.00</ele>
	<time>2025-08-03T10:26:48.000Z</time>
</trkpt>
<trkpt lat="45.9491040" lon="10.1470800">
	<ele>1103.00</ele>
	<time>2025-08-03T10:26:49.000Z</time>
</trkpt>
<trkpt lat="45.9491110" lon="10.1470640">
	<ele>1103.00</ele>
	<time>2025-08-03T10:26:50.000Z</time>
</trkpt>
<trkpt lat="45.9491220" lon="10.1470480">
	<ele>1103.00</ele>
	<time>2025-08-03T10:26:51.000Z</time>
</trkpt>
<trkpt lat="45.9491290" lon="10.1470340">
	<ele>1103.00</ele>
	<time>2025-08-03T10:26:52.000Z</time>
</trkpt>
<trkpt lat="45.9491380" lon="10.1470160">
	<ele>1103.00</ele>
	<time>2025-08-03T10:26:53.000Z</time>
</trkpt>
<trkpt lat="45.9491490" lon="10.1470030">
	<ele>1103.00</ele>
	<time>2025-08-03T10:26:54.000Z</time>
</trkpt>
<trkpt lat="45.9491660" lon="10.1469950">
	<ele>1103.00</ele>
	<time>2025-08-03T10:26:55.000Z</time>
</trkpt>
<trkpt lat="45.9491810" lon="10.1469810">
	<ele>1103.00</ele>
	<time>2025-08-03T10:26:56.000Z</time>
</trkpt>
<trkpt lat="45.9491960" lon="10.1469670">
	<ele>1103.00</ele>
	<time>2025-08-03T10:26:57.000Z</time>
</trkpt>
<trkpt lat="45.9492130" lon="10.1469530">
	<ele>1102.80</ele>
	<time>2025-08-03T10:26:58.000Z</time>
</trkpt>
<trkpt lat="45.9492280" lon="10.1469370">
	<ele>1102.80</ele>
	<time>2025-08-03T10:26:59.000Z</time>
</trkpt>
<trkpt lat="45.9492430" lon="10.1469210">
	<ele>1102.80</ele>
	<time>2025-08-03T10:27:00.000Z</time>
</trkpt>
<trkpt lat="45.9492550" lon="10.1469010">
	<ele>1102.80</ele>
	<time>2025-08-03T10:27:01.000Z</time>
</trkpt>
<trkpt lat="45.9492620" lon="10.1468840">
	<ele>1102.80</ele>
	<time>2025-08-03T10:27:02.000Z</time>
</trkpt>
<trkpt lat="45.9492730" lon="10.1468670">
	<ele>1102.80</ele>
	<time>2025-08-03T10:27:03.000Z</time>
</trkpt>
<trkpt lat="45.9492830" lon="10.1468470">
	<ele>1102.60</ele>
	<time>2025-08-03T10:27:04.000Z</time>
</trkpt>
<trkpt lat="45.9492940" lon="10.1468280">
	<ele>1102.60</ele>
	<time>2025-08-03T10:27:05.000Z</time>
</trkpt>
<trkpt lat="45.9493030" lon="10.1468130">
	<ele>1102.60</ele>
	<time>2025-08-03T10:27:06.000Z</time>
</trkpt>
<trkpt lat="45.9493130" lon="10.1467950">
	<ele>1102.40</ele>
	<time>2025-08-03T10:27:07.000Z</time>
</trkpt>
<trkpt lat="45.9493270" lon="10.1467780">
	<ele>1102.20</ele>
	<time>2025-08-03T10:27:08.000Z</time>
</trkpt>
<trkpt lat="45.9493360" lon="10.1467610">
	<ele>1102.20</ele>
	<time>2025-08-03T10:27:09.000Z</time>
</trkpt>
<trkpt lat="45.9493480" lon="10.1467430">
	<ele>1102.20</ele>
	<time>2025-08-03T10:27:10.000Z</time>
</trkpt>
<trkpt lat="45.9493570" lon="10.1467270">
	<ele>1102.20</ele>
	<time>2025-08-03T10:27:11.000Z</time>
</trkpt>
<trkpt lat="45.9493650" lon="10.1467100">
	<ele>1102.20</ele>
	<time>2025-08-03T10:27:12.000Z</time>
</trkpt>
<trkpt lat="45.9493750" lon="10.1466950">
	<ele>1102.20</ele>
	<time>2025-08-03T10:27:13.000Z</time>
</trkpt>
<trkpt lat="45.9493870" lon="10.1466800">
	<ele>1102.20</ele>
	<time>2025-08-03T10:27:14.000Z</time>
</trkpt>
<trkpt lat="45.9494020" lon="10.1466640">
	<ele>1102.40</ele>
	<time>2025-08-03T10:27:15.000Z</time>
</trkpt>
<trkpt lat="45.9494140" lon="10.1466470">
	<ele>1102.40</ele>
	<time>2025-08-03T10:27:16.000Z</time>
</trkpt>
<trkpt lat="45.9494210" lon="10.1466230">
	<ele>1102.40</ele>
	<time>2025-08-03T10:27:17.000Z</time>
</trkpt>
<trkpt lat="45.9494290" lon="10.1466050">
	<ele>1102.40</ele>
	<time>2025-08-03T10:27:18.000Z</time>
</trkpt>
<trkpt lat="45.9494370" lon="10.1465880">
	<ele>1102.40</ele>
	<time>2025-08-03T10:27:19.000Z</time>
</trkpt>
<trkpt lat="45.9494450" lon="10.1465710">
	<ele>1102.20</ele>
	<time>2025-08-03T10:27:20.000Z</time>
</trkpt>
<trkpt lat="45.9494520" lon="10.1465550">
	<ele>1102.20</ele>
	<time>2025-08-03T10:27:21.000Z</time>
</trkpt>
<trkpt lat="45.9494640" lon="10.1465430">
	<ele>1102.00</ele>
	<time>2025-08-03T10:27:22.000Z</time>
</trkpt>
<trkpt lat="45.9494790" lon="10.1465310">
	<ele>1102.00</ele>
	<time>2025-08-03T10:27:23.000Z</time>
</trkpt>
<trkpt lat="45.9494930" lon="10.1465220">
	<ele>1102.00</ele>
	<time>2025-08-03T10:27:24.000Z</time>
</trkpt>
<trkpt lat="45.9495060" lon="10.1465100">
	<ele>1101.80</ele>
	<time>2025-08-03T10:27:25.000Z</time>
</trkpt>
<trkpt lat="45.9495130" lon="10.1464920">
	<ele>1101.80</ele>
	<time>2025-08-03T10:27:26.000Z</time>
</trkpt>
<trkpt lat="45.9495230" lon="10.1464730">
	<ele>1101.60</ele>
	<time>2025-08-03T10:27:27.000Z</time>
</trkpt>
<trkpt lat="45.9495300" lon="10.1464520">
	<ele>1101.60</ele>
	<time>2025-08-03T10:27:28.000Z</time>
</trkpt>
<trkpt lat="45.9495370" lon="10.1464320">
	<ele>1101.60</ele>
	<time>2025-08-03T10:27:29.000Z</time>
</trkpt>
<trkpt lat="45.9495430" lon="10.1464140">
	<ele>1101.60</ele>
	<time>2025-08-03T10:27:30.000Z</time>
</trkpt>
<trkpt lat="45.9495490" lon="10.1463920">
	<ele>1101.60</ele>
	<time>2025-08-03T10:27:31.000Z</time>
</trkpt>
<trkpt lat="45.9495590" lon="10.1463730">
	<ele>1101.60</ele>
	<time>2025-08-03T10:27:32.000Z</time>
</trkpt>
<trkpt lat="45.9495640" lon="10.1463480">
	<ele>1101.40</ele>
	<time>2025-08-03T10:27:33.000Z</time>
</trkpt>
<trkpt lat="45.9495660" lon="10.1463260">
	<ele>1101.40</ele>
	<time>2025-08-03T10:27:34.000Z</time>
</trkpt>
<trkpt lat="45.9495790" lon="10.1463160">
	<ele>1101.40</ele>
	<time>2025-08-03T10:27:35.000Z</time>
</trkpt>
<trkpt lat="45.9495900" lon="10.1462990">
	<ele>1101.20</ele>
	<time>2025-08-03T10:27:36.000Z</time>
</trkpt>
<trkpt lat="45.9496030" lon="10.1462830">
	<ele>1101.20</ele>
	<time>2025-08-03T10:27:37.000Z</time>
</trkpt>
<trkpt lat="45.9496090" lon="10.1462700">
	<ele>1101.20</ele>
	<time>2025-08-03T10:27:38.000Z</time>
</trkpt>
<trkpt lat="45.9496220" lon="10.1462630">
	<ele>1101.00</ele>
	<time>2025-08-03T10:27:39.000Z</time>
</trkpt>
<trkpt lat="45.9496330" lon="10.1462470">
	<ele>1100.80</ele>
	<time>2025-08-03T10:27:40.000Z</time>
</trkpt>
<trkpt lat="45.9496440" lon="10.1462260">
	<ele>1100.60</ele>
	<time>2025-08-03T10:27:41.000Z</time>
</trkpt>
<trkpt lat="45.9496520" lon="10.1462080">
	<ele>1100.40</ele>
	<time>2025-08-03T10:27:42.000Z</time>
</trkpt>
<trkpt lat="45.9496580" lon="10.1461900">
	<ele>1100.40</ele>
	<time>2025-08-03T10:27:43.000Z</time>
</trkpt>
<trkpt lat="45.9496610" lon="10.1461720">
	<ele>1100.40</ele>
	<time>2025-08-03T10:27:44.000Z</time>
</trkpt>
<trkpt lat="45.9496710" lon="10.1461630">
	<ele>1100.20</ele>
	<time>2025-08-03T10:27:45.000Z</time>
</trkpt>
<trkpt lat="45.9496790" lon="10.1461520">
	<ele>1100.00</ele>
	<time>2025-08-03T10:27:46.000Z</time>
</trkpt>
<trkpt lat="45.9496880" lon="10.1461500">
	<ele>1100.00</ele>
	<time>2025-08-03T10:27:47.000Z</time>
</trkpt>
<trkpt lat="45.9496930" lon="10.1461310">
	<ele>1099.60</ele>
	<time>2025-08-03T10:27:48.000Z</time>
</trkpt>
<trkpt lat="45.9496970" lon="10.1461150">
	<ele>1099.60</ele>
	<time>2025-08-03T10:27:49.000Z</time>
</trkpt>
<trkpt lat="45.9497090" lon="10.1461020">
	<ele>1099.40</ele>
	<time>2025-08-03T10:27:50.000Z</time>
</trkpt>
<trkpt lat="45.9497200" lon="10.1460880">
	<ele>1099.20</ele>
	<time>2025-08-03T10:27:51.000Z</time>
</trkpt>
<trkpt lat="45.9497310" lon="10.1460710">
	<ele>1099.20</ele>
	<time>2025-08-03T10:27:52.000Z</time>
</trkpt>
<trkpt lat="45.9497420" lon="10.1460580">
	<ele>1099.00</ele>
	<time>2025-08-03T10:27:53.000Z</time>
</trkpt>
<trkpt lat="45.9497540" lon="10.1460410">
	<ele>1099.00</ele>
	<time>2025-08-03T10:27:54.000Z</time>
</trkpt>
<trkpt lat="45.9497640" lon="10.1460300">
	<ele>1098.80</ele>
	<time>2025-08-03T10:27:55.000Z</time>
</trkpt>
<trkpt lat="45.9497750" lon="10.1460200">
	<ele>1098.40</ele>
	<time>2025-08-03T10:27:56.000Z</time>
</trkpt>
<trkpt lat="45.9497910" lon="10.1460100">
	<ele>1098.20</ele>
	<time>2025-08-03T10:27:57.000Z</time>
</trkpt>
<trkpt lat="45.9498020" lon="10.1459950">
	<ele>1098.00</ele>
	<time>2025-08-03T10:27:58.000Z</time>
</trkpt>
<trkpt lat="45.9498120" lon="10.1459830">
	<ele>1097.80</ele>
	<time>2025-08-03T10:27:59.000Z</time>
</trkpt>
<trkpt lat="45.9498220" lon="10.1459660">
	<ele>1097.80</ele>
	<time>2025-08-03T10:28:00.000Z</time>
</trkpt>
<trkpt lat="45.9498280" lon="10.1459480">
	<ele>1097.80</ele>
	<time>2025-08-03T10:28:01.000Z</time>
</trkpt>
<trkpt lat="45.9498340" lon="10.1459290">
	<ele>1097.60</ele>
	<time>2025-08-03T10:28:02.000Z</time>
</trkpt>
<trkpt lat="45.9498430" lon="10.1459100">
	<ele>1097.40</ele>
	<time>2025-08-03T10:28:03.000Z</time>
</trkpt>
<trkpt lat="45.9498480" lon="10.1458880">
	<ele>1097.20</ele>
	<time>2025-08-03T10:28:04.000Z</time>
</trkpt>
<trkpt lat="45.9498520" lon="10.1458650">
	<ele>1097.00</ele>
	<time>2025-08-03T10:28:05.000Z</time>
</trkpt>
<trkpt lat="45.9498580" lon="10.1458430">
	<ele>1097.00</ele>
	<time>2025-08-03T10:28:06.000Z</time>
</trkpt>
<trkpt lat="45.9498680" lon="10.1458240">
	<ele>1096.80</ele>
	<time>2025-08-03T10:28:07.000Z</time>
</trkpt>
<trkpt lat="45.9498830" lon="10.1458080">
	<ele>1096.80</ele>
	<time>2025-08-03T10:28:08.000Z</time>
</trkpt>
<trkpt lat="45.9498960" lon="10.1457940">
	<ele>1096.60</ele>
	<time>2025-08-03T10:28:09.000Z</time>
</trkpt>
<trkpt lat="45.9499090" lon="10.1457800">
	<ele>1096.60</ele>
	<time>2025-08-03T10:28:10.000Z</time>
</trkpt>
<trkpt lat="45.9499190" lon="10.1457600">
	<ele>1096.60</ele>
	<time>2025-08-03T10:28:11.000Z</time>
</trkpt>
<trkpt lat="45.9499270" lon="10.1457330">
	<ele>1096.40</ele>
	<time>2025-08-03T10:28:12.000Z</time>
</trkpt>
<trkpt lat="45.9499290" lon="10.1457030">
	<ele>1096.40</ele>
	<time>2025-08-03T10:28:13.000Z</time>
</trkpt>
<trkpt lat="45.9499350" lon="10.1456800">
	<ele>1096.40</ele>
	<time>2025-08-03T10:28:14.000Z</time>
</trkpt>
<trkpt lat="45.9499450" lon="10.1456580">
	<ele>1096.40</ele>
	<time>2025-08-03T10:28:15.000Z</time>
</trkpt>
<trkpt lat="45.9499550" lon="10.1456400">
	<ele>1096.40</ele>
	<time>2025-08-03T10:28:16.000Z</time>
</trkpt>
<trkpt lat="45.9499630" lon="10.1456230">
	<ele>1096.20</ele>
	<time>2025-08-03T10:28:17.000Z</time>
</trkpt>
<trkpt lat="45.9499660" lon="10.1455990">
	<ele>1096.20</ele>
	<time>2025-08-03T10:28:18.000Z</time>
</trkpt>
<trkpt lat="45.9499720" lon="10.1455750">
	<ele>1095.80</ele>
	<time>2025-08-03T10:28:19.000Z</time>
</trkpt>
<trkpt lat="45.9499790" lon="10.1455530">
	<ele>1095.20</ele>
	<time>2025-08-03T10:28:20.000Z</time>
</trkpt>
<trkpt lat="45.9499840" lon="10.1455290">
	<ele>1094.80</ele>
	<time>2025-08-03T10:28:21.000Z</time>
</trkpt>
<trkpt lat="45.9499850" lon="10.1455050">
	<ele>1094.60</ele>
	<time>2025-08-03T10:28:22.000Z</time>
</trkpt>
<trkpt lat="45.9499940" lon="10.1454880">
	<ele>1094.40</ele>
	<time>2025-08-03T10:28:23.000Z</time>
</trkpt>
<trkpt lat="45.9500040" lon="10.1454690">
	<ele>1094.40</ele>
	<time>2025-08-03T10:28:24.000Z</time>
</trkpt>
<trkpt lat="45.9500150" lon="10.1454470">
	<ele>1094.40</ele>
	<time>2025-08-03T10:28:25.000Z</time>
</trkpt>
<trkpt lat="45.9500240" lon="10.1454250">
	<ele>1094.40</ele>
	<time>2025-08-03T10:28:26.000Z</time>
</trkpt>
<trkpt lat="45.9500320" lon="10.1454040">
	<ele>1094.20</ele>
	<time>2025-08-03T10:28:27.000Z</time>
</trkpt>
<trkpt lat="45.9500410" lon="10.1453860">
	<ele>1094.20</ele>
	<time>2025-08-03T10:28:28.000Z</time>
</trkpt>
<trkpt lat="45.9500470" lon="10.1453700">
	<ele>1094.00</ele>
	<time>2025-08-03T10:28:29.000Z</time>
</trkpt>
<trkpt lat="45.9500510" lon="10.1453450">
	<ele>1093.60</ele>
	<time>2025-08-03T10:28:30.000Z</time>
</trkpt>
<trkpt lat="45.9500600" lon="10.1453230">
	<ele>1093.60</ele>
	<time>2025-08-03T10:28:31.000Z</time>
</trkpt>
<trkpt lat="45.9500660" lon="10.1452960">
	<ele>1093.40</ele>
	<time>2025-08-03T10:28:32.000Z</time>
</trkpt>
<trkpt lat="45.9500710" lon="10.1452750">
	<ele>1093.40</ele>
	<time>2025-08-03T10:28:33.000Z</time>
</trkpt>
<trkpt lat="45.9500700" lon="10.1452410">
	<ele>1093.40</ele>
	<time>2025-08-03T10:28:34.000Z</time>
</trkpt>
<trkpt lat="45.9500730" lon="10.1452190">
	<ele>1093.40</ele>
	<time>2025-08-03T10:28:35.000Z</time>
</trkpt>
<trkpt lat="45.9500640" lon="10.1451850">
	<ele>1093.00</ele>
	<time>2025-08-03T10:28:36.000Z</time>
</trkpt>
<trkpt lat="45.9500680" lon="10.1451610">
	<ele>1092.80</ele>
	<time>2025-08-03T10:28:37.000Z</time>
</trkpt>
<trkpt lat="45.9500740" lon="10.1451420">
	<ele>1092.60</ele>
	<time>2025-08-03T10:28:38.000Z</time>
</trkpt>
<trkpt lat="45.9500810" lon="10.1451250">
	<ele>1092.40</ele>
	<time>2025-08-03T10:28:39.000Z</time>
</trkpt>
<trkpt lat="45.9500870" lon="10.1451050">
	<ele>1092.20</ele>
	<time>2025-08-03T10:28:40.000Z</time>
</trkpt>
<trkpt lat="45.9500940" lon="10.1450840">
	<ele>1092.00</ele>
	<time>2025-08-03T10:28:41.000Z</time>
</trkpt>
<trkpt lat="45.9500970" lon="10.1450660">
	<ele>1092.00</ele>
	<time>2025-08-03T10:28:42.000Z</time>
</trkpt>
<trkpt lat="45.9501000" lon="10.1450480">
	<ele>1091.80</ele>
	<time>2025-08-03T10:28:43.000Z</time>
</trkpt>
<trkpt lat="45.9501090" lon="10.1450300">
	<ele>1091.80</ele>
	<time>2025-08-03T10:28:44.000Z</time>
</trkpt>
<trkpt lat="45.9501150" lon="10.1450100">
	<ele>1091.60</ele>
	<time>2025-08-03T10:28:45.000Z</time>
</trkpt>
<trkpt lat="45.9501210" lon="10.1449850">
	<ele>1091.60</ele>
	<time>2025-08-03T10:28:46.000Z</time>
</trkpt>
<trkpt lat="45.9501240" lon="10.1449580">
	<ele>1091.40</ele>
	<time>2025-08-03T10:28:47.000Z</time>
</trkpt>
<trkpt lat="45.9501230" lon="10.1449280">
	<ele>1091.40</ele>
	<time>2025-08-03T10:28:48.000Z</time>
</trkpt>
<trkpt lat="45.9501230" lon="10.1449030">
	<ele>1091.40</ele>
	<time>2025-08-03T10:28:49.000Z</time>
</trkpt>
<trkpt lat="45.9501240" lon="10.1448810">
	<ele>1091.40</ele>
	<time>2025-08-03T10:28:50.000Z</time>
</trkpt>
<trkpt lat="45.9501300" lon="10.1448600">
	<ele>1091.40</ele>
	<time>2025-08-03T10:28:51.000Z</time>
</trkpt>
<trkpt lat="45.9501340" lon="10.1448390">
	<ele>1091.40</ele>
	<time>2025-08-03T10:28:52.000Z</time>
</trkpt>
<trkpt lat="45.9501350" lon="10.1448170">
	<ele>1091.40</ele>
	<time>2025-08-03T10:28:53.000Z</time>
</trkpt>
<trkpt lat="45.9501310" lon="10.1447970">
	<ele>1091.40</ele>
	<time>2025-08-03T10:28:54.000Z</time>
</trkpt>
<trkpt lat="45.9501280" lon="10.1447750">
	<ele>1091.20</ele>
	<time>2025-08-03T10:28:55.000Z</time>
</trkpt>
<trkpt lat="45.9501290" lon="10.1447570">
	<ele>1091.00</ele>
	<time>2025-08-03T10:28:56.000Z</time>
</trkpt>
<trkpt lat="45.9501350" lon="10.1447380">
	<ele>1090.80</ele>
	<time>2025-08-03T10:28:57.000Z</time>
</trkpt>
<trkpt lat="45.9501430" lon="10.1447120">
	<ele>1090.40</ele>
	<time>2025-08-03T10:28:58.000Z</time>
</trkpt>
<trkpt lat="45.9501470" lon="10.1446900">
	<ele>1090.20</ele>
	<time>2025-08-03T10:28:59.000Z</time>
</trkpt>
<trkpt lat="45.9501530" lon="10.1446760">
	<ele>1090.00</ele>
	<time>2025-08-03T10:29:00.000Z</time>
</trkpt>
<trkpt lat="45.9501510" lon="10.1446590">
	<ele>1090.00</ele>
	<time>2025-08-03T10:29:01.000Z</time>
</trkpt>
<trkpt lat="45.9501500" lon="10.1446490">
	<ele>1090.00</ele>
	<time>2025-08-03T10:29:02.000Z</time>
</trkpt>
<trkpt lat="45.9501420" lon="10.1446390">
	<ele>1089.80</ele>
	<time>2025-08-03T10:29:03.000Z</time>
</trkpt>
<trkpt lat="45.9501360" lon="10.1446220">
	<ele>1089.60</ele>
	<time>2025-08-03T10:29:04.000Z</time>
</trkpt>
<trkpt lat="45.9501330" lon="10.1446020">
	<ele>1089.60</ele>
	<time>2025-08-03T10:29:05.000Z</time>
</trkpt>
<trkpt lat="45.9501340" lon="10.1445810">
	<ele>1089.60</ele>
	<time>2025-08-03T10:29:06.000Z</time>
</trkpt>
<trkpt lat="45.9501320" lon="10.1445590">
	<ele>1089.40</ele>
	<time>2025-08-03T10:29:07.000Z</time>
</trkpt>
<trkpt lat="45.9501340" lon="10.1445340">
	<ele>1089.40</ele>
	<time>2025-08-03T10:29:08.000Z</time>
</trkpt>
<trkpt lat="45.9501390" lon="10.1445110">
	<ele>1089.20</ele>
	<time>2025-08-03T10:29:09.000Z</time>
</trkpt>
<trkpt lat="45.9501440" lon="10.1444870">
	<ele>1089.00</ele>
	<time>2025-08-03T10:29:10.000Z</time>
</trkpt>
<trkpt lat="45.9501470" lon="10.1444610">
	<ele>1089.00</ele>
	<time>2025-08-03T10:29:11.000Z</time>
</trkpt>
<trkpt lat="45.9501450" lon="10.1444380">
	<ele>1088.80</ele>
	<time>2025-08-03T10:29:12.000Z</time>
</trkpt>
<trkpt lat="45.9501440" lon="10.1444140">
	<ele>1088.60</ele>
	<time>2025-08-03T10:29:13.000Z</time>
</trkpt>
<trkpt lat="45.9501440" lon="10.1443890">
	<ele>1088.60</ele>
	<time>2025-08-03T10:29:14.000Z</time>
</trkpt>
<trkpt lat="45.9501460" lon="10.1443650">
	<ele>1088.40</ele>
	<time>2025-08-03T10:29:15.000Z</time>
</trkpt>
<trkpt lat="45.9501470" lon="10.1443410">
	<ele>1088.20</ele>
	<time>2025-08-03T10:29:16.000Z</time>
</trkpt>
<trkpt lat="45.9501480" lon="10.1443160">
	<ele>1088.20</ele>
	<time>2025-08-03T10:29:17.000Z</time>
</trkpt>
<trkpt lat="45.9501500" lon="10.1442930">
	<ele>1088.20</ele>
	<time>2025-08-03T10:29:18.000Z</time>
</trkpt>
<trkpt lat="45.9501520" lon="10.1442690">
	<ele>1088.00</ele>
	<time>2025-08-03T10:29:19.000Z</time>
</trkpt>
<trkpt lat="45.9501520" lon="10.1442500">
	<ele>1087.80</ele>
	<time>2025-08-03T10:29:20.000Z</time>
</trkpt>
<trkpt lat="45.9501560" lon="10.1442280">
	<ele>1087.60</ele>
	<time>2025-08-03T10:29:21.000Z</time>
</trkpt>
<trkpt lat="45.9501600" lon="10.1442090">
	<ele>1087.40</ele>
	<time>2025-08-03T10:29:22.000Z</time>
</trkpt>
<trkpt lat="45.9501640" lon="10.1441910">
	<ele>1087.20</ele>
	<time>2025-08-03T10:29:23.000Z</time>
</trkpt>
<trkpt lat="45.9501660" lon="10.1441710">
	<ele>1087.00</ele>
	<time>2025-08-03T10:29:24.000Z</time>
</trkpt>
<trkpt lat="45.9501670" lon="10.1441500">
	<ele>1087.00</ele>
	<time>2025-08-03T10:29:25.000Z</time>
</trkpt>
<trkpt lat="45.9501690" lon="10.1441280">
	<ele>1086.80</ele>
	<time>2025-08-03T10:29:26.000Z</time>
</trkpt>
<trkpt lat="45.9501720" lon="10.1441020">
	<ele>1086.60</ele>
	<time>2025-08-03T10:29:27.000Z</time>
</trkpt>
<trkpt lat="45.9501740" lon="10.1440760">
	<ele>1086.60</ele>
	<time>2025-08-03T10:29:28.000Z</time>
</trkpt>
<trkpt lat="45.9501730" lon="10.1440480">
	<ele>1086.40</ele>
	<time>2025-08-03T10:29:29.000Z</time>
</trkpt>
<trkpt lat="45.9501720" lon="10.1440220">
	<ele>1086.40</ele>
	<time>2025-08-03T10:29:30.000Z</time>
</trkpt>
<trkpt lat="45.9501680" lon="10.1439980">
	<ele>1086.20</ele>
	<time>2025-08-03T10:29:31.000Z</time>
</trkpt>
<trkpt lat="45.9501660" lon="10.1439740">
	<ele>1086.20</ele>
	<time>2025-08-03T10:29:32.000Z</time>
</trkpt>
<trkpt lat="45.9501660" lon="10.1439470">
	<ele>1086.00</ele>
	<time>2025-08-03T10:29:33.000Z</time>
</trkpt>
<trkpt lat="45.9501680" lon="10.1439210">
	<ele>1086.00</ele>
	<time>2025-08-03T10:29:34.000Z</time>
</trkpt>
<trkpt lat="45.9501700" lon="10.1438980">
	<ele>1086.00</ele>
	<time>2025-08-03T10:29:35.000Z</time>
</trkpt>
<trkpt lat="45.9501710" lon="10.1438730">
	<ele>1086.00</ele>
	<time>2025-08-03T10:29:36.000Z</time>
</trkpt>
<trkpt lat="45.9501740" lon="10.1438500">
	<ele>1085.80</ele>
	<time>2025-08-03T10:29:37.000Z</time>
</trkpt>
<trkpt lat="45.9501750" lon="10.1438300">
	<ele>1085.80</ele>
	<time>2025-08-03T10:29:38.000Z</time>
</trkpt>
<trkpt lat="45.9501710" lon="10.1438090">
	<ele>1085.80</ele>
	<time>2025-08-03T10:29:39.000Z</time>
</trkpt>
<trkpt lat="45.9501680" lon="10.1437840">
	<ele>1085.80</ele>
	<time>2025-08-03T10:29:40.000Z</time>
</trkpt>
<trkpt lat="45.9501670" lon="10.1437590">
	<ele>1085.80</ele>
	<time>2025-08-03T10:29:41.000Z</time>
</trkpt>
<trkpt lat="45.9501720" lon="10.1437410">
	<ele>1085.60</ele>
	<time>2025-08-03T10:29:42.000Z</time>
</trkpt>
<trkpt lat="45.9501740" lon="10.1437200">
	<ele>1085.40</ele>
	<time>2025-08-03T10:29:43.000Z</time>
</trkpt>
<trkpt lat="45.9501760" lon="10.1437040">
	<ele>1085.40</ele>
	<time>2025-08-03T10:29:44.000Z</time>
</trkpt>
<trkpt lat="45.9501800" lon="10.1436880">
	<ele>1085.20</ele>
	<time>2025-08-03T10:29:45.000Z</time>
</trkpt>
<trkpt lat="45.9501840" lon="10.1436720">
	<ele>1085.20</ele>
	<time>2025-08-03T10:29:46.000Z</time>
</trkpt>
<trkpt lat="45.9501910" lon="10.1436510">
	<ele>1084.80</ele>
	<time>2025-08-03T10:29:47.000Z</time>
</trkpt>
<trkpt lat="45.9501940" lon="10.1436340">
	<ele>1084.60</ele>
	<time>2025-08-03T10:29:48.000Z</time>
</trkpt>
<trkpt lat="45.9501990" lon="10.1436140">
	<ele>1084.40</ele>
	<time>2025-08-03T10:29:49.000Z</time>
</trkpt>
<trkpt lat="45.9501980" lon="10.1435890">
	<ele>1084.20</ele>
	<time>2025-08-03T10:29:50.000Z</time>
</trkpt>
<trkpt lat="45.9501970" lon="10.1435640">
	<ele>1084.20</ele>
	<time>2025-08-03T10:29:51.000Z</time>
</trkpt>
<trkpt lat="45.9501970" lon="10.1435400">
	<ele>1084.00</ele>
	<time>2025-08-03T10:29:52.000Z</time>
</trkpt>
<trkpt lat="45.9502020" lon="10.1435160">
	<ele>1084.00</ele>
	<time>2025-08-03T10:29:53.000Z</time>
</trkpt>
<trkpt lat="45.9502040" lon="10.1434940">
	<ele>1084.00</ele>
	<time>2025-08-03T10:29:54.000Z</time>
</trkpt>
<trkpt lat="45.9502070" lon="10.1434740">
	<ele>1083.80</ele>
	<time>2025-08-03T10:29:55.000Z</time>
</trkpt>
<trkpt lat="45.9502090" lon="10.1434550">
	<ele>1083.80</ele>
	<time>2025-08-03T10:29:56.000Z</time>
</trkpt>
<trkpt lat="45.9502120" lon="10.1434350">
	<ele>1083.60</ele>
	<time>2025-08-03T10:29:57.000Z</time>
</trkpt>
<trkpt lat="45.9502130" lon="10.1434130">
	<ele>1083.60</ele>
	<time>2025-08-03T10:29:58.000Z</time>
</trkpt>
<trkpt lat="45.9502130" lon="10.1433910">
	<ele>1083.40</ele>
	<time>2025-08-03T10:29:59.000Z</time>
</trkpt>
<trkpt lat="45.9502100" lon="10.1433670">
	<ele>1083.40</ele>
	<time>2025-08-03T10:30:00.000Z</time>
</trkpt>
<trkpt lat="45.9502080" lon="10.1433440">
	<ele>1083.40</ele>
	<time>2025-08-03T10:30:01.000Z</time>
</trkpt>
<trkpt lat="45.9502050" lon="10.1433230">
	<ele>1083.40</ele>
	<time>2025-08-03T10:30:02.000Z</time>
</trkpt>
<trkpt lat="45.9502030" lon="10.1433030">
	<ele>1083.40</ele>
	<time>2025-08-03T10:30:03.000Z</time>
</trkpt>
<trkpt lat="45.9502020" lon="10.1432820">
	<ele>1083.20</ele>
	<time>2025-08-03T10:30:04.000Z</time>
</trkpt>
<trkpt lat="45.9502030" lon="10.1432600">
	<ele>1083.20</ele>
	<time>2025-08-03T10:30:05.000Z</time>
</trkpt>
<trkpt lat="45.9502050" lon="10.1432380">
	<ele>1083.00</ele>
	<time>2025-08-03T10:30:06.000Z</time>
</trkpt>
<trkpt lat="45.9502050" lon="10.1432170">
	<ele>1083.00</ele>
	<time>2025-08-03T10:30:07.000Z</time>
</trkpt>
<trkpt lat="45.9502150" lon="10.1431980">
	<ele>1083.00</ele>
	<time>2025-08-03T10:30:08.000Z</time>
</trkpt>
<trkpt lat="45.9502120" lon="10.1431780">
	<ele>1083.00</ele>
	<time>2025-08-03T10:30:09.000Z</time>
</trkpt>
<trkpt lat="45.9502120" lon="10.1431590">
	<ele>1082.80</ele>
	<time>2025-08-03T10:30:10.000Z</time>
</trkpt>
<trkpt lat="45.9502120" lon="10.1431380">
	<ele>1082.60</ele>
	<time>2025-08-03T10:30:11.000Z</time>
</trkpt>
<trkpt lat="45.9502110" lon="10.1431160">
	<ele>1082.40</ele>
	<time>2025-08-03T10:30:12.000Z</time>
</trkpt>
<trkpt lat="45.9502100" lon="10.1430920">
	<ele>1082.20</ele>
	<time>2025-08-03T10:30:13.000Z</time>
</trkpt>
<trkpt lat="45.9502150" lon="10.1430710">
	<ele>1082.00</ele>
	<time>2025-08-03T10:30:14.000Z</time>
</trkpt>
<trkpt lat="45.9502200" lon="10.1430540">
	<ele>1081.80</ele>
	<time>2025-08-03T10:30:15.000Z</time>
</trkpt>
<trkpt lat="45.9502270" lon="10.1430420">
	<ele>1081.80</ele>
	<time>2025-08-03T10:30:16.000Z</time>
</trkpt>
<trkpt lat="45.9502360" lon="10.1430320">
	<ele>1081.80</ele>
	<time>2025-08-03T10:30:17.000Z</time>
</trkpt>
<trkpt lat="45.9502450" lon="10.1430220">
	<ele>1081.80</ele>
	<time>2025-08-03T10:30:18.000Z</time>
</trkpt>
<trkpt lat="45.9502530" lon="10.1430110">
	<ele>1081.80</ele>
	<time>2025-08-03T10:30:19.000Z</time>
</trkpt>
<trkpt lat="45.9502640" lon="10.1430030">
	<ele>1081.80</ele>
	<time>2025-08-03T10:30:20.000Z</time>
</trkpt>
<trkpt lat="45.9502730" lon="10.1429970">
	<ele>1081.60</ele>
	<time>2025-08-03T10:30:21.000Z</time>
</trkpt>
<trkpt lat="45.9502850" lon="10.1429940">
	<ele>1081.60</ele>
	<time>2025-08-03T10:30:22.000Z</time>
</trkpt>
<trkpt lat="45.9502960" lon="10.1429870">
	<ele>1081.80</ele>
	<time>2025-08-03T10:30:23.000Z</time>
</trkpt>
<trkpt lat="45.9503090" lon="10.1429810">
	<ele>1081.80</ele>
	<time>2025-08-03T10:30:24.000Z</time>
</trkpt>
<trkpt lat="45.9503220" lon="10.1429780">
	<ele>1081.80</ele>
	<time>2025-08-03T10:30:25.000Z</time>
</trkpt>
<trkpt lat="45.9503380" lon="10.1429750">
	<ele>1082.00</ele>
	<time>2025-08-03T10:30:26.000Z</time>
</trkpt>
<trkpt lat="45.9503510" lon="10.1429700">
	<ele>1082.00</ele>
	<time>2025-08-03T10:30:27.000Z</time>
</trkpt>
<trkpt lat="45.9503630" lon="10.1429620">
	<ele>1082.00</ele>
	<time>2025-08-03T10:30:28.000Z</time>
</trkpt>
<trkpt lat="45.9503780" lon="10.1429530">
	<ele>1082.20</ele>
	<time>2025-08-03T10:30:29.000Z</time>
</trkpt>
<trkpt lat="45.9503880" lon="10.1429400">
	<ele>1082.20</ele>
	<time>2025-08-03T10:30:30.000Z</time>
</trkpt>
<trkpt lat="45.9503950" lon="10.1429240">
	<ele>1082.60</ele>
	<time>2025-08-03T10:30:31.000Z</time>
</trkpt>
<trkpt lat="45.9504010" lon="10.1429090">
	<ele>1082.60</ele>
	<time>2025-08-03T10:30:32.000Z</time>
</trkpt>
<trkpt lat="45.9504070" lon="10.1428950">
	<ele>1082.80</ele>
	<time>2025-08-03T10:30:33.000Z</time>
</trkpt>
<trkpt lat="45.9504090" lon="10.1428800">
	<ele>1082.80</ele>
	<time>2025-08-03T10:30:34.000Z</time>
</trkpt>
<trkpt lat="45.9504100" lon="10.1428640">
	<ele>1082.80</ele>
	<time>2025-08-03T10:30:35.000Z</time>
</trkpt>
<trkpt lat="45.9504110" lon="10.1428450">
	<ele>1082.80</ele>
	<time>2025-08-03T10:30:36.000Z</time>
</trkpt>
<trkpt lat="45.9504110" lon="10.1428270">
	<ele>1082.80</ele>
	<time>2025-08-03T10:30:37.000Z</time>
</trkpt>
<trkpt lat="45.9504080" lon="10.1428060">
	<ele>1082.80</ele>
	<time>2025-08-03T10:30:38.000Z</time>
</trkpt>
</trkseg>
</trk>
</gpx>
